<?xml version='1.0' encoding='UTF-8'?><gpx version="1.1" creator="JPX - https://github.com/jenetics/jpx" xmlns="http://www.topografix.com/GPX/1/1"><trk><trkseg><trkpt lat="45.50363578648651" lon="9.11043756254822"><ele>134.0</ele><time>2026-03-29T09:10:54.999Z</time></trkpt><trkpt lat="45.50359956987636" lon="9.110607403090778"><ele>134.0</ele><time>2026-03-29T09:10:56.999Z</time></trkpt><trkpt lat="45.503581894245585" lon="9.110703029863796"><ele>134.0</ele><time>2026-03-29T09:10:57.999Z</time></trkpt><trkpt lat="45.50356198892477" lon="9.110807770949885"><ele>134.0</ele><time>2026-03-29T09:10:58.999Z</time></trkpt><trkpt lat="45.50354440294347" lon="9.11091306292926"><ele>134.0</ele><time>2026-03-29T09:10:59.999Z</time></trkpt><trkpt lat="45.503524398549295" lon="9.11102766806916"><ele>134.0</ele><time>2026-03-29T09:11:00.999Z</time></trkpt><trkpt lat="45.5035125043772" lon="9.111134645917017"><ele>134.0</ele><time>2026-03-29T09:11:01.999Z</time></trkpt><trkpt lat="45.50349029143852" lon="9.111238757697238"><ele>134.0</ele><time>2026-03-29T09:11:02.999Z</time></trkpt><trkpt lat="45.503467430244186" lon="9.111336464746108"><ele>134.0</ele><time>2026-03-29T09:11:03.999Z</time></trkpt><trkpt lat="45.503431746937956" lon="9.111415300690688"><ele>134.0</ele><time>2026-03-29T09:11:04.999Z</time></trkpt><trkpt lat="45.50336528754035" lon="9.111568650512632"><ele>134.0</ele><time>2026-03-29T09:11:06.999Z</time></trkpt><trkpt lat="45.503305796180676" lon="9.111535398189268"><ele>134.0</ele><time>2026-03-29T09:11:07.999Z</time></trkpt><trkpt lat="45.50338837907894" lon="9.111732596470231"><ele>134.0</ele><time>2026-03-29T09:11:08.999Z</time></trkpt><trkpt lat="45.50346061288951" lon="9.111771620160628"><ele>134.0</ele><time>2026-03-29T09:11:09.999Z</time></trkpt><trkpt lat="45.503532614278654" lon="9.111752165291184"><ele>134.0</ele><time>2026-03-29T09:11:10.999Z</time></trkpt><trkpt lat="45.503589906443274" lon="9.111664721686692"><ele>134.0</ele><time>2026-03-29T09:11:11.999Z</time></trkpt><trkpt lat="45.503593829231214" lon="9.11154570311795"><ele>134.0</ele><time>2026-03-29T09:11:12.999Z</time></trkpt><trkpt lat="45.50358674524044" lon="9.111429132152232"><ele>134.0</ele><time>2026-03-29T09:11:13.999Z</time></trkpt><trkpt lat="45.50355923187096" lon="9.111314459070892"><ele>134.0</ele><time>2026-03-29T09:11:14.999Z</time></trkpt><trkpt lat="45.50356382806984" lon="9.111202180342454"><ele>134.0</ele><time>2026-03-29T09:11:15.999Z</time></trkpt><trkpt lat="45.50358835182646" lon="9.111089392311762"><ele>134.0</ele><time>2026-03-29T09:11:16.999Z</time></trkpt><trkpt lat="45.50360939034121" lon="9.110966815430505"><ele>134.0</ele><time>2026-03-29T09:11:17.999Z</time></trkpt><trkpt lat="45.503638994190496" lon="9.110832934524677"><ele>134.0</ele><time>2026-03-29T09:11:18.999Z</time></trkpt><trkpt lat="45.50366924724595" lon="9.110707480643415"><ele>134.0</ele><time>2026-03-29T09:11:19.999Z</time></trkpt><trkpt lat="45.50370167227976" lon="9.110577044428007"><ele>134.0</ele><time>2026-03-29T09:11:20.999Z</time></trkpt><trkpt lat="45.50373333968667" lon="9.110451217820069"><ele>134.0</ele><time>2026-03-29T09:11:21.999Z</time></trkpt><trkpt lat="45.503764888861035" lon="9.110340181179826"><ele>134.0</ele><time>2026-03-29T09:11:22.999Z</time></trkpt><trkpt lat="45.5037895442901" lon="9.110229021228676"><ele>134.0</ele><time>2026-03-29T09:11:23.999Z</time></trkpt><trkpt lat="45.50381520336283" lon="9.110133191624694"><ele>134.0</ele><time>2026-03-29T09:11:24.999Z</time></trkpt><trkpt lat="45.50384610025884" lon="9.110034727970342"><ele>134.0</ele><time>2026-03-29T09:11:25.999Z</time></trkpt><trkpt lat="45.50389324230802" lon="9.109945965155218"><ele>134.0</ele><time>2026-03-29T09:11:26.999Z</time></trkpt><trkpt lat="45.503968802672354" lon="9.109891935428355"><ele>134.0</ele><time>2026-03-29T09:11:27.999Z</time></trkpt><trkpt lat="45.50402696861132" lon="9.109809894064192"><ele>134.0</ele><time>2026-03-29T09:11:28.999Z</time></trkpt><trkpt lat="45.504068588200056" lon="9.109681079967139"><ele>134.0</ele><time>2026-03-29T09:11:29.999Z</time></trkpt><trkpt lat="45.5040265431719" lon="9.109527285615508"><ele>134.0</ele><time>2026-03-29T09:11:30.999Z</time></trkpt><trkpt lat="45.50401693412309" lon="9.109385213316735"><ele>134.0</ele><time>2026-03-29T09:11:31.999Z</time></trkpt><trkpt lat="45.504023540451406" lon="9.109245808310389"><ele>134.0</ele><time>2026-03-29T09:11:32.999Z</time></trkpt><trkpt lat="45.50404246031831" lon="9.109112922186844"><ele>134.0</ele><time>2026-03-29T09:11:33.999Z</time></trkpt><trkpt lat="45.5040680810344" lon="9.108970579081742"><ele>134.0</ele><time>2026-03-29T09:11:34.999Z</time></trkpt><trkpt lat="45.504115768067464" lon="9.108860238801691"><ele>134.0</ele><time>2026-03-29T09:11:35.999Z</time></trkpt><trkpt lat="45.50416088633737" lon="9.10871675886272"><ele>134.0</ele><time>2026-03-29T09:11:36.999Z</time></trkpt><trkpt lat="45.504189730848154" lon="9.108576256048847"><ele>134.0</ele><time>2026-03-29T09:11:37.999Z</time></trkpt><trkpt lat="45.50422245364556" lon="9.10842051967631"><ele>134.0</ele><time>2026-03-29T09:11:38.999Z</time></trkpt><trkpt lat="45.50425418721098" lon="9.108273372111293"><ele>134.0</ele><time>2026-03-29T09:11:39.999Z</time></trkpt><trkpt lat="45.50429411458679" lon="9.108124881708216"><ele>134.0</ele><time>2026-03-29T09:11:40.999Z</time></trkpt><trkpt lat="45.504332436916144" lon="9.10797085636489"><ele>134.4</ele><time>2026-03-29T09:11:41.999Z</time></trkpt><trkpt lat="45.50436750469816" lon="9.107820565530144"><ele>134.8</ele><time>2026-03-29T09:11:42.999Z</time></trkpt><trkpt lat="45.504406166543916" lon="9.107668924919738"><ele>135.2</ele><time>2026-03-29T09:11:43.999Z</time></trkpt><trkpt lat="45.50444222157071" lon="9.107512029815675"><ele>135.6</ele><time>2026-03-29T09:11:44.999Z</time></trkpt><trkpt lat="45.50447691865147" lon="9.10736776740595"><ele>136.0</ele><time>2026-03-29T09:11:45.999Z</time></trkpt><trkpt lat="45.50451798041219" lon="9.10720939583966"><ele>136.25</ele><time>2026-03-29T09:11:46.999Z</time></trkpt><trkpt lat="45.50455321345916" lon="9.10706585455784"><ele>136.5</ele><time>2026-03-29T09:11:47.999Z</time></trkpt><trkpt lat="45.50459054745142" lon="9.106911303357961"><ele>136.75</ele><time>2026-03-29T09:11:48.999Z</time></trkpt><trkpt lat="45.50462689567456" lon="9.106758599571746"><ele>137.0</ele><time>2026-03-29T09:11:49.999Z</time></trkpt><trkpt lat="45.50466514726886" lon="9.10659666450746"><ele>136.79999999999998</ele><time>2026-03-29T09:11:50.999Z</time></trkpt><trkpt lat="45.50469987915146" lon="9.106449090085032"><ele>136.6</ele><time>2026-03-29T09:11:51.999Z</time></trkpt><trkpt lat="45.504731034915274" lon="9.106308761915933"><ele>136.39999999999998</ele><time>2026-03-29T09:11:52.999Z</time></trkpt><trkpt lat="45.5047603559851" lon="9.10618487190708"><ele>136.2</ele><time>2026-03-29T09:11:53.999Z</time></trkpt><trkpt lat="45.5047883084376" lon="9.106061040689198"><ele>136.0</ele><time>2026-03-29T09:11:54.999Z</time></trkpt><trkpt lat="45.504814416320485" lon="9.105945781363936"><ele>136.0</ele><time>2026-03-29T09:11:55.999Z</time></trkpt><trkpt lat="45.50484059732373" lon="9.105859403088932"><ele>136.0</ele><time>2026-03-29T09:11:56.999Z</time></trkpt><trkpt lat="45.50486323877447" lon="9.10576327616178"><ele>136.0</ele><time>2026-03-29T09:11:57.999Z</time></trkpt><trkpt lat="45.50488622060781" lon="9.10565539281255"><ele>136.0</ele><time>2026-03-29T09:11:58.999Z</time></trkpt><trkpt lat="45.504908857514806" lon="9.10555206315483"><ele>136.0</ele><time>2026-03-29T09:12:00Z</time></trkpt><trkpt lat="45.50493346675172" lon="9.105437629366197"><ele>136.0</ele><time>2026-03-29T09:12:01Z</time></trkpt><trkpt lat="45.50496136269392" lon="9.105321350720331"><ele>136.0</ele><time>2026-03-29T09:12:02Z</time></trkpt><trkpt lat="45.50498547266686" lon="9.105200562882699"><ele>136.0</ele><time>2026-03-29T09:12:03Z</time></trkpt><trkpt lat="45.50502241001569" lon="9.105092055915833"><ele>136.0</ele><time>2026-03-29T09:12:04Z</time></trkpt><trkpt lat="45.50506177567514" lon="9.104977465868142"><ele>136.0</ele><time>2026-03-29T09:12:05Z</time></trkpt><trkpt lat="45.505090856780704" lon="9.104854113278643"><ele>136.0</ele><time>2026-03-29T09:12:06Z</time></trkpt><trkpt lat="45.50512458100881" lon="9.10473792604488"><ele>136.0</ele><time>2026-03-29T09:12:07Z</time></trkpt><trkpt lat="45.505154318639846" lon="9.10461613504064"><ele>136.0</ele><time>2026-03-29T09:12:08Z</time></trkpt><trkpt lat="45.50518218433732" lon="9.104492511780691"><ele>136.0</ele><time>2026-03-29T09:12:09Z</time></trkpt><trkpt lat="45.5052145644838" lon="9.104375876103013"><ele>136.0</ele><time>2026-03-29T09:12:10Z</time></trkpt><trkpt lat="45.50524607003272" lon="9.104254804907509"><ele>136.0</ele><time>2026-03-29T09:12:11Z</time></trkpt><trkpt lat="45.50528168565651" lon="9.104148719845018"><ele>136.0</ele><time>2026-03-29T09:12:12Z</time></trkpt><trkpt lat="45.505310737664594" lon="9.104063322389276"><ele>136.0</ele><time>2026-03-29T09:12:13Z</time></trkpt><trkpt lat="45.505355058669544" lon="9.103986146607587"><ele>135.8</ele><time>2026-03-29T09:12:14Z</time></trkpt><trkpt lat="45.505416386833176" lon="9.103922512056698"><ele>135.6</ele><time>2026-03-29T09:12:15Z</time></trkpt><trkpt lat="45.50551458210959" lon="9.103906056757763"><ele>135.4</ele><time>2026-03-29T09:12:16Z</time></trkpt><trkpt lat="45.50557400286291" lon="9.103846264666561"><ele>135.2</ele><time>2026-03-29T09:12:17Z</time></trkpt><trkpt lat="45.50562830440206" lon="9.103745751618527"><ele>135.0</ele><time>2026-03-29T09:12:18Z</time></trkpt><trkpt lat="45.505641032608985" lon="9.10358457359977"><ele>135.0</ele><time>2026-03-29T09:12:19Z</time></trkpt><trkpt lat="45.50557394533408" lon="9.10342938015396"><ele>135.0</ele><time>2026-03-29T09:12:20Z</time></trkpt><trkpt lat="45.505540316885366" lon="9.10329067079791"><ele>135.0</ele><time>2026-03-29T09:12:21Z</time></trkpt><trkpt lat="45.50552694195467" lon="9.103135476622477"><ele>135.0</ele><time>2026-03-29T09:12:22Z</time></trkpt><trkpt lat="45.50554166449927" lon="9.102975938438608"><ele>135.5</ele><time>2026-03-29T09:12:23Z</time></trkpt><trkpt lat="45.50558306780381" lon="9.102830989651666"><ele>136.0</ele><time>2026-03-29T09:12:24Z</time></trkpt><trkpt lat="45.50562639019945" lon="9.102678481557133"><ele>136.5</ele><time>2026-03-29T09:12:25Z</time></trkpt><trkpt lat="45.50566216056921" lon="9.102518761953993"><ele>137.0</ele><time>2026-03-29T09:12:26Z</time></trkpt><trkpt lat="45.50570540107252" lon="9.102353826005087"><ele>137.75</ele><time>2026-03-29T09:12:27Z</time></trkpt><trkpt lat="45.50574755600383" lon="9.102186890773131"><ele>138.5</ele><time>2026-03-29T09:12:28Z</time></trkpt><trkpt lat="45.5057852181266" lon="9.102033765984666"><ele>139.25</ele><time>2026-03-29T09:12:29Z</time></trkpt><trkpt lat="45.50582333928787" lon="9.101874366372483"><ele>140.0</ele><time>2026-03-29T09:12:30Z</time></trkpt><trkpt lat="45.505855972623614" lon="9.101726005277415"><ele>140.0</ele><time>2026-03-29T09:12:31Z</time></trkpt><trkpt lat="45.50588736942329" lon="9.101589490819748"><ele>140.0</ele><time>2026-03-29T09:12:32Z</time></trkpt><trkpt lat="45.505917228536" lon="9.101462474523556"><ele>140.0</ele><time>2026-03-29T09:12:33Z</time></trkpt><trkpt lat="45.505944333760866" lon="9.101357294540296"><ele>140.0</ele><time>2026-03-29T09:12:34Z</time></trkpt><trkpt lat="45.50596840373359" lon="9.101261123558949"><ele>140.0</ele><time>2026-03-29T09:12:35Z</time></trkpt><trkpt lat="45.50600161744945" lon="9.101184265563615"><ele>140.0</ele><time>2026-03-29T09:12:36Z</time></trkpt><trkpt lat="45.5060464990219" lon="9.101103936248498"><ele>140.2</ele><time>2026-03-29T09:12:37Z</time></trkpt><trkpt lat="45.50610738445349" lon="9.10103498515611"><ele>140.4</ele><time>2026-03-29T09:12:38Z</time></trkpt><trkpt lat="45.50617984840344" lon="9.100984432474158"><ele>140.6</ele><time>2026-03-29T09:12:39Z</time></trkpt><trkpt lat="45.506254765395234" lon="9.100903035201512"><ele>140.8</ele><time>2026-03-29T09:12:40Z</time></trkpt><trkpt lat="45.506234237999884" lon="9.100734649682968"><ele>141.0</ele><time>2026-03-29T09:12:41Z</time></trkpt><trkpt lat="45.506215246227455" lon="9.10059399883072"><ele>141.2</ele><time>2026-03-29T09:12:42Z</time></trkpt><trkpt lat="45.50619873236894" lon="9.100449776907794"><ele>141.39999999999998</ele><time>2026-03-29T09:12:43Z</time></trkpt><trkpt lat="45.50622732685905" lon="9.100308088308058"><ele>141.6</ele><time>2026-03-29T09:12:44Z</time></trkpt><trkpt lat="45.50628187695792" lon="9.100167477883375"><ele>141.79999999999998</ele><time>2026-03-29T09:12:45Z</time></trkpt><trkpt lat="45.506330189041385" lon="9.100012156603599"><ele>142.0</ele><time>2026-03-29T09:12:46Z</time></trkpt><trkpt lat="45.506373175871396" lon="9.099854257823162"><ele>141.6</ele><time>2026-03-29T09:12:47Z</time></trkpt><trkpt lat="45.506402012365776" lon="9.099709837055256"><ele>141.2</ele><time>2026-03-29T09:12:48Z</time></trkpt><trkpt lat="45.50643835996689" lon="9.0995477454847"><ele>140.8</ele><time>2026-03-29T09:12:49Z</time></trkpt><trkpt lat="45.50647369207932" lon="9.099394042593964"><ele>140.4</ele><time>2026-03-29T09:12:50Z</time></trkpt><trkpt lat="45.50650658122085" lon="9.099243918677518"><ele>140.0</ele><time>2026-03-29T09:12:51Z</time></trkpt><trkpt lat="45.5065336066277" lon="9.099113474530279"><ele>139.8</ele><time>2026-03-29T09:12:52Z</time></trkpt><trkpt lat="45.50656796469173" lon="9.09897780903236"><ele>139.6</ele><time>2026-03-29T09:12:53Z</time></trkpt><trkpt lat="45.506599446465316" lon="9.09883042368993"><ele>139.4</ele><time>2026-03-29T09:12:54Z</time></trkpt><trkpt lat="45.506612530334024" lon="9.09869153898029"><ele>139.2</ele><time>2026-03-29T09:12:55Z</time></trkpt><trkpt lat="45.50664100727098" lon="9.098543577394953"><ele>139.0</ele><time>2026-03-29T09:12:56Z</time></trkpt><trkpt lat="45.50667628598686" lon="9.098384032390673"><ele>138.75</ele><time>2026-03-29T09:12:57Z</time></trkpt><trkpt lat="45.5067201551477" lon="9.098214756201058"><ele>138.5</ele><time>2026-03-29T09:12:57.999Z</time></trkpt><trkpt lat="45.5067652659205" lon="9.098038057349687"><ele>138.25</ele><time>2026-03-29T09:12:58.999Z</time></trkpt><trkpt lat="45.50680724339793" lon="9.097863397561468"><ele>138.0</ele><time>2026-03-29T09:12:59.999Z</time></trkpt><trkpt lat="45.50684571441945" lon="9.097672123124507"><ele>138.0</ele><time>2026-03-29T09:13:00.999Z</time></trkpt><trkpt lat="45.50688472722687" lon="9.097477985265897"><ele>138.0</ele><time>2026-03-29T09:13:01.999Z</time></trkpt><trkpt lat="45.506933393756945" lon="9.097276618938322"><ele>138.0</ele><time>2026-03-29T09:13:02.999Z</time></trkpt><trkpt lat="45.5069810765337" lon="9.09706959089414"><ele>138.0</ele><time>2026-03-29T09:13:03.999Z</time></trkpt><trkpt lat="45.50702789831066" lon="9.096864559593172"><ele>138.33333333333334</ele><time>2026-03-29T09:13:04.999Z</time></trkpt><trkpt lat="45.507065747907326" lon="9.096664823105797"><ele>138.66666666666669</ele><time>2026-03-29T09:13:05.999Z</time></trkpt><trkpt lat="45.507104683553386" lon="9.096459757689347"><ele>139.0</ele><time>2026-03-29T09:13:06.999Z</time></trkpt><trkpt lat="45.50714822944394" lon="9.096235656527002"><ele>139.0</ele><time>2026-03-29T09:13:07.999Z</time></trkpt><trkpt lat="45.5071935170916" lon="9.096018706792634"><ele>139.0</ele><time>2026-03-29T09:13:08.999Z</time></trkpt><trkpt lat="45.507242965572345" lon="9.095800644436633"><ele>139.0</ele><time>2026-03-29T09:13:09.999Z</time></trkpt><trkpt lat="45.507303194990776" lon="9.09561267828063"><ele>139.25</ele><time>2026-03-29T09:13:10.999Z</time></trkpt><trkpt lat="45.50734639701217" lon="9.095430151027028"><ele>139.5</ele><time>2026-03-29T09:13:11.999Z</time></trkpt><trkpt lat="45.50738431641395" lon="9.09526705249723"><ele>139.75</ele><time>2026-03-29T09:13:12.999Z</time></trkpt><trkpt lat="45.507423256042976" lon="9.095118284292226"><ele>140.0</ele><time>2026-03-29T09:13:13.999Z</time></trkpt><trkpt lat="45.50745815569679" lon="9.094978367722362"><ele>139.83333333333331</ele><time>2026-03-29T09:13:14.999Z</time></trkpt><trkpt lat="45.507486200345205" lon="9.094853720210567"><ele>139.66666666666666</ele><time>2026-03-29T09:13:15.999Z</time></trkpt><trkpt lat="45.50751533350833" lon="9.094737067599196"><ele>139.5</ele><time>2026-03-29T09:13:16.999Z</time></trkpt><trkpt lat="45.50754319749337" lon="9.094628572355273"><ele>139.33333333333334</ele><time>2026-03-29T09:13:17.999Z</time></trkpt><trkpt lat="45.50757224677149" lon="9.094526917033308"><ele>139.16666666666669</ele><time>2026-03-29T09:13:18.999Z</time></trkpt><trkpt lat="45.507594364944" lon="9.094429422162685"><ele>139.0</ele><time>2026-03-29T09:13:19.999Z</time></trkpt><trkpt lat="45.50760267331687" lon="9.09432466890734"><ele>139.0</ele><time>2026-03-29T09:13:20.999Z</time></trkpt><trkpt lat="45.50759828656424" lon="9.094212736449037"><ele>139.0</ele><time>2026-03-29T09:13:21.999Z</time></trkpt><trkpt lat="45.507556999796975" lon="9.094101694213453"><ele>139.0</ele><time>2026-03-29T09:13:22.999Z</time></trkpt><trkpt lat="45.50746531292306" lon="9.094010962140759"><ele>139.0</ele><time>2026-03-29T09:13:23.999Z</time></trkpt><trkpt lat="45.50737626623179" lon="9.093932669046152"><ele>139.0</ele><time>2026-03-29T09:13:24.999Z</time></trkpt><trkpt lat="45.507294756257366" lon="9.093826473547395"><ele>138.75</ele><time>2026-03-29T09:13:25.999Z</time></trkpt><trkpt lat="45.507198460261705" lon="9.093731967770799"><ele>138.5</ele><time>2026-03-29T09:13:26.999Z</time></trkpt><trkpt lat="45.50710066576731" lon="9.093629781267586"><ele>138.25</ele><time>2026-03-29T09:13:27.999Z</time></trkpt><trkpt lat="45.507016897975625" lon="9.093536619353781"><ele>138.0</ele><time>2026-03-29T09:13:28.999Z</time></trkpt><trkpt lat="45.50692866116377" lon="9.093445788396167"><ele>137.75</ele><time>2026-03-29T09:13:29.999Z</time></trkpt><trkpt lat="45.5068437969827" lon="9.093316155029633"><ele>137.5</ele><time>2026-03-29T09:13:30.999Z</time></trkpt><trkpt lat="45.50673063597496" lon="9.09319716060743"><ele>137.25</ele><time>2026-03-29T09:13:31.999Z</time></trkpt><trkpt lat="45.50662805294407" lon="9.093079132691642"><ele>137.0</ele><time>2026-03-29T09:13:32.999Z</time></trkpt><trkpt lat="45.50653818221954" lon="9.09296297218944"><ele>137.0</ele><time>2026-03-29T09:13:33.999Z</time></trkpt><trkpt lat="45.50645436348502" lon="9.092844132056282"><ele>137.0</ele><time>2026-03-29T09:13:34.999Z</time></trkpt><trkpt lat="45.5063638150822" lon="9.092727754570998"><ele>137.0</ele><time>2026-03-29T09:13:35.999Z</time></trkpt><trkpt lat="45.50627488889068" lon="9.092602266190278"><ele>137.0</ele><time>2026-03-29T09:13:36.999Z</time></trkpt><trkpt lat="45.50618569436845" lon="9.092440364233346"><ele>137.25</ele><time>2026-03-29T09:13:37.999Z</time></trkpt><trkpt lat="45.50608616867944" lon="9.092305408180826"><ele>137.5</ele><time>2026-03-29T09:13:38.999Z</time></trkpt><trkpt lat="45.505989256358575" lon="9.092171042059197"><ele>137.75</ele><time>2026-03-29T09:13:39.999Z</time></trkpt><trkpt lat="45.5058317276939" lon="9.092125681105232"><ele>138.0</ele><time>2026-03-29T09:13:40.999Z</time></trkpt><trkpt lat="45.50571077838" lon="9.092017882356604"><ele>138.0</ele><time>2026-03-29T09:13:41.999Z</time></trkpt><trkpt lat="45.505588229815544" lon="9.091905517391472"><ele>138.0</ele><time>2026-03-29T09:13:42.999Z</time></trkpt><trkpt lat="45.50546429577697" lon="9.091802944295853"><ele>138.0</ele><time>2026-03-29T09:13:43.999Z</time></trkpt><trkpt lat="45.505329215824545" lon="9.091687816049273"><ele>138.0</ele><time>2026-03-29T09:13:44.999Z</time></trkpt><trkpt lat="45.50518563024899" lon="9.09157271615688"><ele>137.66666666666666</ele><time>2026-03-29T09:13:45.999Z</time></trkpt><trkpt lat="45.50504072160366" lon="9.091457282275764"><ele>137.33333333333331</ele><time>2026-03-29T09:13:46.999Z</time></trkpt><trkpt lat="45.504883898196795" lon="9.091338977629505"><ele>137.0</ele><time>2026-03-29T09:13:47.999Z</time></trkpt><trkpt lat="45.50471739129214" lon="9.09122681144741"><ele>137.66666666666666</ele><time>2026-03-29T09:13:48.999Z</time></trkpt><trkpt lat="45.50454064019412" lon="9.09110302677502"><ele>138.33333333333334</ele><time>2026-03-29T09:13:49.999Z</time></trkpt><trkpt lat="45.504362804008174" lon="9.091001406559268"><ele>139.0</ele><time>2026-03-29T09:13:50.999Z</time></trkpt><trkpt lat="45.50418103864583" lon="9.090905040380651"><ele>139.0</ele><time>2026-03-29T09:13:51.999Z</time></trkpt><trkpt lat="45.50400675815102" lon="9.09082686332007"><ele>139.0</ele><time>2026-03-29T09:13:52.999Z</time></trkpt><trkpt lat="45.50383039619727" lon="9.090748755783617"><ele>139.0</ele><time>2026-03-29T09:13:53.999Z</time></trkpt><trkpt lat="45.503650604983335" lon="9.09067513561976"><ele>138.66666666666669</ele><time>2026-03-29T09:13:54.999Z</time></trkpt><trkpt lat="45.50347881743679" lon="9.090612414532304"><ele>138.33333333333334</ele><time>2026-03-29T09:13:55.999Z</time></trkpt><trkpt lat="45.50330906655965" lon="9.0905463201378"><ele>138.0</ele><time>2026-03-29T09:13:56.999Z</time></trkpt><trkpt lat="45.50312195754786" lon="9.090484817654765"><ele>138.0</ele><time>2026-03-29T09:13:57.999Z</time></trkpt><trkpt lat="45.50294019336544" lon="9.090423898915457"><ele>138.0</ele><time>2026-03-29T09:13:58.999Z</time></trkpt><trkpt lat="45.50275360045986" lon="9.090357354435207"><ele>138.0</ele><time>2026-03-29T09:13:59.999Z</time></trkpt><trkpt lat="45.5025534077208" lon="9.090296098934092"><ele>138.66666666666666</ele><time>2026-03-29T09:14:00.999Z</time></trkpt><trkpt lat="45.502371609385726" lon="9.090219945896271"><ele>139.33333333333331</ele><time>2026-03-29T09:14:01.999Z</time></trkpt><trkpt lat="45.502205047310895" lon="9.09013863322159"><ele>140.0</ele><time>2026-03-29T09:14:02.999Z</time></trkpt><trkpt lat="45.50202841662323" lon="9.090051189188468"><ele>140.0</ele><time>2026-03-29T09:14:03.999Z</time></trkpt><trkpt lat="45.50185157770736" lon="9.0899483435694"><ele>140.0</ele><time>2026-03-29T09:14:04.999Z</time></trkpt><trkpt lat="45.501667474706124" lon="9.08983747483748"><ele>140.0</ele><time>2026-03-29T09:14:06Z</time></trkpt><trkpt lat="45.5014936052348" lon="9.08971513512032"><ele>140.33333333333331</ele><time>2026-03-29T09:14:07Z</time></trkpt><trkpt lat="45.501320173033996" lon="9.089578883181254"><ele>140.66666666666666</ele><time>2026-03-29T09:14:08Z</time></trkpt><trkpt lat="45.50116277891428" lon="9.089430886874682"><ele>141.0</ele><time>2026-03-29T09:14:09Z</time></trkpt><trkpt lat="45.50100204928442" lon="9.089272500151147"><ele>140.33333333333334</ele><time>2026-03-29T09:14:10Z</time></trkpt><trkpt lat="45.50084625875726" lon="9.089106096692356"><ele>139.66666666666669</ele><time>2026-03-29T09:14:11Z</time></trkpt><trkpt lat="45.500701059538436" lon="9.088924272169953"><ele>139.0</ele><time>2026-03-29T09:14:12Z</time></trkpt><trkpt lat="45.50055324184695" lon="9.088746066309746"><ele>139.0</ele><time>2026-03-29T09:14:13Z</time></trkpt><trkpt lat="45.50041255678226" lon="9.088552491575921"><ele>139.0</ele><time>2026-03-29T09:14:14Z</time></trkpt><trkpt lat="45.500273597844114" lon="9.088355136471229"><ele>139.0</ele><time>2026-03-29T09:14:15Z</time></trkpt><trkpt lat="45.50013924102074" lon="9.088148447148228"><ele>138.66666666666669</ele><time>2026-03-29T09:14:16Z</time></trkpt><trkpt lat="45.50000817871312" lon="9.08794287481077"><ele>138.33333333333334</ele><time>2026-03-29T09:14:17Z</time></trkpt><trkpt lat="45.499879795815566" lon="9.087731556964982"><ele>138.0</ele><time>2026-03-29T09:14:18Z</time></trkpt><trkpt lat="45.49974748863852" lon="9.087521521058374"><ele>137.66666666666666</ele><time>2026-03-29T09:14:19Z</time></trkpt><trkpt lat="45.49962025529334" lon="9.08730751953747"><ele>137.33333333333331</ele><time>2026-03-29T09:14:20Z</time></trkpt><trkpt lat="45.49949581195406" lon="9.087087329603465"><ele>137.0</ele><time>2026-03-29T09:14:21Z</time></trkpt><trkpt lat="45.49937943704279" lon="9.086859592099621"><ele>137.0</ele><time>2026-03-29T09:14:22Z</time></trkpt><trkpt lat="45.49926680822483" lon="9.086623477924286"><ele>137.0</ele><time>2026-03-29T09:14:23Z</time></trkpt><trkpt lat="45.49915631771577" lon="9.086382854117975"><ele>137.0</ele><time>2026-03-29T09:14:24Z</time></trkpt><trkpt lat="45.49905062559948" lon="9.086136480363459"><ele>137.0</ele><time>2026-03-29T09:14:25Z</time></trkpt><trkpt lat="45.49895119825599" lon="9.08588063735462"><ele>137.0</ele><time>2026-03-29T09:14:26Z</time></trkpt><trkpt lat="45.49885741165523" lon="9.085620634380232"><ele>137.0</ele><time>2026-03-29T09:14:27Z</time></trkpt><trkpt lat="45.49876613013498" lon="9.085354000665548"><ele>137.0</ele><time>2026-03-29T09:14:28Z</time></trkpt><trkpt lat="45.498684039308934" lon="9.085078769237843"><ele>137.0</ele><time>2026-03-29T09:14:29Z</time></trkpt><trkpt lat="45.49861089588958" lon="9.084801294633632"><ele>137.0</ele><time>2026-03-29T09:14:30Z</time></trkpt><trkpt lat="45.498544225636316" lon="9.084517622753383"><ele>137.0</ele><time>2026-03-29T09:14:31Z</time></trkpt><trkpt lat="45.49848573603766" lon="9.084234733586738"><ele>137.0</ele><time>2026-03-29T09:14:32Z</time></trkpt><trkpt lat="45.498436828965275" lon="9.083951947047096"><ele>137.0</ele><time>2026-03-29T09:14:33Z</time></trkpt><trkpt lat="45.4983934433028" lon="9.083667946553975"><ele>137.33333333333331</ele><time>2026-03-29T09:14:34Z</time></trkpt><trkpt lat="45.49835614355608" lon="9.083381265687787"><ele>137.66666666666666</ele><time>2026-03-29T09:14:35Z</time></trkpt><trkpt lat="45.49832173207442" lon="9.083090163221776"><ele>138.0</ele><time>2026-03-29T09:14:36Z</time></trkpt><trkpt lat="45.49829257477408" lon="9.082799090684588"><ele>138.0</ele><time>2026-03-29T09:14:37Z</time></trkpt><trkpt lat="45.4982674780023" lon="9.08250524697487"><ele>138.0</ele><time>2026-03-29T09:14:38Z</time></trkpt><trkpt lat="45.49824624426571" lon="9.082211384767493"><ele>138.0</ele><time>2026-03-29T09:14:39Z</time></trkpt><trkpt lat="45.498223019530826" lon="9.081923196232177"><ele>138.0</ele><time>2026-03-29T09:14:40Z</time></trkpt><trkpt lat="45.49819828928697" lon="9.081630468876646"><ele>138.0</ele><time>2026-03-29T09:14:41Z</time></trkpt><trkpt lat="45.49817398928969" lon="9.081339945203364"><ele>138.0</ele><time>2026-03-29T09:14:42Z</time></trkpt><trkpt lat="45.49815219938632" lon="9.081039670039493"><ele>138.33333333333334</ele><time>2026-03-29T09:14:43Z</time></trkpt><trkpt lat="45.49813676941776" lon="9.080744827729388"><ele>138.66666666666669</ele><time>2026-03-29T09:14:44Z</time></trkpt><trkpt lat="45.498120077355445" lon="9.080455301287273"><ele>139.0</ele><time>2026-03-29T09:14:45Z</time></trkpt><trkpt lat="45.49810311294636" lon="9.080162733634191"><ele>139.33333333333334</ele><time>2026-03-29T09:14:46Z</time></trkpt><trkpt lat="45.49808236121787" lon="9.079869997199717"><ele>139.66666666666666</ele><time>2026-03-29T09:14:47Z</time></trkpt><trkpt lat="45.498062531401985" lon="9.079579973928785"><ele>140.0</ele><time>2026-03-29T09:14:48Z</time></trkpt><trkpt lat="45.49804215642642" lon="9.079288758840466"><ele>140.0</ele><time>2026-03-29T09:14:49Z</time></trkpt><trkpt lat="45.49802125584828" lon="9.079008377205017"><ele>140.0</ele><time>2026-03-29T09:14:50Z</time></trkpt><trkpt lat="45.49799643435524" lon="9.07871985931561"><ele>140.0</ele><time>2026-03-29T09:14:51Z</time></trkpt><trkpt lat="45.4979753906048" lon="9.07843478717887"><ele>139.66666666666666</ele><time>2026-03-29T09:14:52Z</time></trkpt><trkpt lat="45.4979565870738" lon="9.078158999348705"><ele>139.33333333333334</ele><time>2026-03-29T09:14:53Z</time></trkpt><trkpt lat="45.49794027938363" lon="9.077897479451911"><ele>139.0</ele><time>2026-03-29T09:14:54Z</time></trkpt><trkpt lat="45.49792200967041" lon="9.077637842563083"><ele>138.33333333333334</ele><time>2026-03-29T09:14:55Z</time></trkpt><trkpt lat="45.49789412463955" lon="9.07736758737154"><ele>137.66666666666666</ele><time>2026-03-29T09:14:56Z</time></trkpt><trkpt lat="45.4978797601307" lon="9.077098403474583"><ele>137.0</ele><time>2026-03-29T09:14:57Z</time></trkpt><trkpt lat="45.49787294437031" lon="9.076829147259883"><ele>137.33333333333331</ele><time>2026-03-29T09:14:58Z</time></trkpt><trkpt lat="45.497865799239946" lon="9.07655312927783"><ele>137.66666666666666</ele><time>2026-03-29T09:14:59Z</time></trkpt><trkpt lat="45.49785729030137" lon="9.076278914157877"><ele>138.0</ele><time>2026-03-29T09:15:00Z</time></trkpt><trkpt lat="45.49785403888217" lon="9.07600450194762"><ele>138.0</ele><time>2026-03-29T09:15:01Z</time></trkpt><trkpt lat="45.497851142828154" lon="9.07572602175032"><ele>138.0</ele><time>2026-03-29T09:15:02Z</time></trkpt><trkpt lat="45.49785110530642" lon="9.075452398849881"><ele>138.0</ele><time>2026-03-29T09:15:03Z</time></trkpt><trkpt lat="45.497853980827884" lon="9.075176031086889"><ele>138.0</ele><time>2026-03-29T09:15:04Z</time></trkpt><trkpt lat="45.49785724552645" lon="9.074897603869074"><ele>138.0</ele><time>2026-03-29T09:15:05Z</time></trkpt><trkpt lat="45.49786247431031" lon="9.074618413362899"><ele>138.0</ele><time>2026-03-29T09:15:06Z</time></trkpt><trkpt lat="45.49786746364408" lon="9.074336306108357"><ele>137.33333333333334</ele><time>2026-03-29T09:15:07Z</time></trkpt><trkpt lat="45.497875540762585" lon="9.074049117405695"><ele>136.66666666666669</ele><time>2026-03-29T09:15:08Z</time></trkpt><trkpt lat="45.497881767998486" lon="9.073760011281065"><ele>136.0</ele><time>2026-03-29T09:15:09Z</time></trkpt><trkpt lat="45.49789062279485" lon="9.07346851407536"><ele>136.33333333333334</ele><time>2026-03-29T09:15:10Z</time></trkpt><trkpt lat="45.497895182210776" lon="9.073179136911815"><ele>136.66666666666666</ele><time>2026-03-29T09:15:10.999Z</time></trkpt><trkpt lat="45.497898005718675" lon="9.072889941424561"><ele>137.0</ele><time>2026-03-29T09:15:11.999Z</time></trkpt><trkpt lat="45.49790231042512" lon="9.072601694646265"><ele>137.66666666666666</ele><time>2026-03-29T09:15:12.999Z</time></trkpt><trkpt lat="45.497904316019124" lon="9.072299897107587"><ele>138.33333333333334</ele><time>2026-03-29T09:15:13.999Z</time></trkpt><trkpt lat="45.49791198222956" lon="9.072010325991913"><ele>139.0</ele><time>2026-03-29T09:15:14.999Z</time></trkpt><trkpt lat="45.49791924337877" lon="9.07172357196467"><ele>139.66666666666669</ele><time>2026-03-29T09:15:15.999Z</time></trkpt><trkpt lat="45.497924082967494" lon="9.07143396999993"><ele>140.33333333333334</ele><time>2026-03-29T09:15:16.999Z</time></trkpt><trkpt lat="45.49792475679504" lon="9.071138546879725"><ele>141.0</ele><time>2026-03-29T09:15:17.999Z</time></trkpt><trkpt lat="45.497924965278955" lon="9.070844379289946"><ele>141.0</ele><time>2026-03-29T09:15:18.999Z</time></trkpt><trkpt lat="45.49792885596895" lon="9.07055111110351"><ele>141.0</ele><time>2026-03-29T09:15:19.999Z</time></trkpt><trkpt lat="45.497933247902566" lon="9.070256944858402"><ele>141.0</ele><time>2026-03-29T09:15:20.999Z</time></trkpt><trkpt lat="45.497939313756014" lon="9.069963002288258"><ele>140.0</ele><time>2026-03-29T09:15:21.999Z</time></trkpt><trkpt lat="45.497946211251026" lon="9.069669283014443"><ele>139.0</ele><time>2026-03-29T09:15:22.999Z</time></trkpt><trkpt lat="45.49795283031793" lon="9.069373766277218"><ele>138.0</ele><time>2026-03-29T09:15:23.999Z</time></trkpt><trkpt lat="45.49795942867668" lon="9.069078618542783"><ele>138.0</ele><time>2026-03-29T09:15:24.999Z</time></trkpt><trkpt lat="45.49796381339574" lon="9.06877987502852"><ele>138.0</ele><time>2026-03-29T09:15:25.999Z</time></trkpt><trkpt lat="45.49796979324611" lon="9.06848186603325"><ele>138.0</ele><time>2026-03-29T09:15:26.999Z</time></trkpt><trkpt lat="45.49797647888444" lon="9.068186044392208"><ele>137.66666666666666</ele><time>2026-03-29T09:15:27.999Z</time></trkpt><trkpt lat="45.49798452566742" lon="9.067898057808446"><ele>137.33333333333331</ele><time>2026-03-29T09:15:28.999Z</time></trkpt><trkpt lat="45.49799358597969" lon="9.06761485754721"><ele>137.0</ele><time>2026-03-29T09:15:29.999Z</time></trkpt><trkpt lat="45.49800154554225" lon="9.067329924315448"><ele>136.66666666666666</ele><time>2026-03-29T09:15:30.999Z</time></trkpt><trkpt lat="45.49801012219733" lon="9.067052166506016"><ele>136.33333333333334</ele><time>2026-03-29T09:15:31.999Z</time></trkpt><trkpt lat="45.49802097177482" lon="9.066772479941985"><ele>136.0</ele><time>2026-03-29T09:15:32.999Z</time></trkpt><trkpt lat="45.498030544033924" lon="9.06649169168201"><ele>136.66666666666669</ele><time>2026-03-29T09:15:33.999Z</time></trkpt><trkpt lat="45.498036659241684" lon="9.066210352474291"><ele>137.33333333333334</ele><time>2026-03-29T09:15:34.999Z</time></trkpt><trkpt lat="45.49804588814841" lon="9.065925652250629"><ele>138.0</ele><time>2026-03-29T09:15:35.999Z</time></trkpt><trkpt lat="45.498058462402405" lon="9.065639922633057"><ele>138.0</ele><time>2026-03-29T09:15:36.999Z</time></trkpt><trkpt lat="45.498069828780515" lon="9.065345816187408"><ele>138.0</ele><time>2026-03-29T09:15:37.999Z</time></trkpt><trkpt lat="45.49807878166124" lon="9.065038342191352"><ele>138.0</ele><time>2026-03-29T09:15:38.999Z</time></trkpt><trkpt lat="45.49808800386109" lon="9.064726358496609"><ele>138.0</ele><time>2026-03-29T09:15:39.999Z</time></trkpt><trkpt lat="45.498095983161825" lon="9.064412590184478"><ele>138.0</ele><time>2026-03-29T09:15:40.999Z</time></trkpt><trkpt lat="45.498107415212985" lon="9.064104913283257"><ele>138.0</ele><time>2026-03-29T09:15:41.999Z</time></trkpt><trkpt lat="45.498120401641735" lon="9.06378921055814"><ele>137.66666666666666</ele><time>2026-03-29T09:15:42.999Z</time></trkpt><trkpt lat="45.49813026409768" lon="9.063479245405631"><ele>137.33333333333331</ele><time>2026-03-29T09:15:43.999Z</time></trkpt><trkpt lat="45.4981387260199" lon="9.063172242249781"><ele>137.0</ele><time>2026-03-29T09:15:44.999Z</time></trkpt><trkpt lat="45.498146870158266" lon="9.062867742731868"><ele>137.0</ele><time>2026-03-29T09:15:45.999Z</time></trkpt><trkpt lat="45.49814786118052" lon="9.062564116716729"><ele>137.0</ele><time>2026-03-29T09:15:46.999Z</time></trkpt><trkpt lat="45.49813413197654" lon="9.062256615973123"><ele>137.0</ele><time>2026-03-29T09:15:47.999Z</time></trkpt><trkpt lat="45.4981023684828" lon="9.06195342497744"><ele>136.66666666666666</ele><time>2026-03-29T09:15:48.999Z</time></trkpt><trkpt lat="45.49805543961729" lon="9.061651325192507"><ele>136.33333333333334</ele><time>2026-03-29T09:15:49.999Z</time></trkpt><trkpt lat="45.49799579929269" lon="9.061350857974203"><ele>136.0</ele><time>2026-03-29T09:15:50.999Z</time></trkpt><trkpt lat="45.49791528042124" lon="9.061070282430292"><ele>135.66666666666669</ele><time>2026-03-29T09:15:51.999Z</time></trkpt><trkpt lat="45.497822486884864" lon="9.060798733830122"><ele>135.33333333333334</ele><time>2026-03-29T09:15:52.999Z</time></trkpt><trkpt lat="45.497719227608876" lon="9.060533720413579"><ele>135.0</ele><time>2026-03-29T09:15:53.999Z</time></trkpt><trkpt lat="45.497603819717455" lon="9.06028385418781"><ele>135.0</ele><time>2026-03-29T09:15:54.999Z</time></trkpt><trkpt lat="45.4974714191702" lon="9.06004025766625"><ele>135.0</ele><time>2026-03-29T09:15:55.999Z</time></trkpt><trkpt lat="45.49734021851507" lon="9.059786596890014"><ele>135.0</ele><time>2026-03-29T09:15:56.999Z</time></trkpt><trkpt lat="45.497215460622" lon="9.059514091087662"><ele>135.5</ele><time>2026-03-29T09:15:57.999Z</time></trkpt><trkpt lat="45.49707778394452" lon="9.059227435004829"><ele>136.0</ele><time>2026-03-29T09:15:58.999Z</time></trkpt><trkpt lat="45.496949875671866" lon="9.058938402689915"><ele>137.0</ele><time>2026-03-29T09:15:59.999Z</time></trkpt><trkpt lat="45.496813786912504" lon="9.058642126139059"><ele>138.0</ele><time>2026-03-29T09:16:00.999Z</time></trkpt><trkpt lat="45.496674452111506" lon="9.05833989102551"><ele>138.0</ele><time>2026-03-29T09:16:01.999Z</time></trkpt><trkpt lat="45.496534399957504" lon="9.058032593122787"><ele>138.0</ele><time>2026-03-29T09:16:02.999Z</time></trkpt><trkpt lat="45.49639252820288" lon="9.05772947792957"><ele>138.0</ele><time>2026-03-29T09:16:03.999Z</time></trkpt><trkpt lat="45.49625655266344" lon="9.057430665829564"><ele>138.0</ele><time>2026-03-29T09:16:04.999Z</time></trkpt><trkpt lat="45.49612192699066" lon="9.057134080615384"><ele>138.5</ele><time>2026-03-29T09:16:05.999Z</time></trkpt><trkpt lat="45.49598352151116" lon="9.056838022734054"><ele>139.0</ele><time>2026-03-29T09:16:06.999Z</time></trkpt><trkpt lat="45.495844406568494" lon="9.056541663467662"><ele>139.0</ele><time>2026-03-29T09:16:07.999Z</time></trkpt><trkpt lat="45.495708264478736" lon="9.05624676227696"><ele>139.0</ele><time>2026-03-29T09:16:08.999Z</time></trkpt><trkpt lat="45.49557225305788" lon="9.055947910033765"><ele>139.0</ele><time>2026-03-29T09:16:09.999Z</time></trkpt><trkpt lat="45.495434351260414" lon="9.055649749450176"><ele>139.0</ele><time>2026-03-29T09:16:10.999Z</time></trkpt><trkpt lat="45.49529609698597" lon="9.055351028360203"><ele>139.0</ele><time>2026-03-29T09:16:12Z</time></trkpt><trkpt lat="45.495161452410436" lon="9.05505341055105"><ele>139.0</ele><time>2026-03-29T09:16:13Z</time></trkpt><trkpt lat="45.495027170666155" lon="9.054754965659667"><ele>140.0</ele><time>2026-03-29T09:16:14Z</time></trkpt><trkpt lat="45.49490034402827" lon="9.05445322387956"><ele>141.0</ele><time>2026-03-29T09:16:15Z</time></trkpt><trkpt lat="45.49478227223205" lon="9.054143919519424"><ele>140.5</ele><time>2026-03-29T09:16:16Z</time></trkpt><trkpt lat="45.49468181640325" lon="9.053841385075618"><ele>140.0</ele><time>2026-03-29T09:16:17Z</time></trkpt><trkpt lat="45.49457616570037" lon="9.053539467099561"><ele>139.5</ele><time>2026-03-29T09:16:18Z</time></trkpt><trkpt lat="45.49447074683006" lon="9.053246521433817"><ele>139.0</ele><time>2026-03-29T09:16:19Z</time></trkpt><trkpt lat="45.49436702753058" lon="9.052966382018518"><ele>139.0</ele><time>2026-03-29T09:16:20Z</time></trkpt><trkpt lat="45.49426479945991" lon="9.052684465367575"><ele>139.0</ele><time>2026-03-29T09:16:21Z</time></trkpt><trkpt lat="45.494159428002625" lon="9.052406067219382"><ele>139.0</ele><time>2026-03-29T09:16:22Z</time></trkpt><trkpt lat="45.494058337807694" lon="9.052133804102986"><ele>138.0</ele><time>2026-03-29T09:16:23Z</time></trkpt><trkpt lat="45.49395856797989" lon="9.05186520427214"><ele>137.0</ele><time>2026-03-29T09:16:24Z</time></trkpt><trkpt lat="45.49385992296636" lon="9.051594885703784"><ele>136.0</ele><time>2026-03-29T09:16:25Z</time></trkpt><trkpt lat="45.49375788713047" lon="9.051326464279189"><ele>136.0</ele><time>2026-03-29T09:16:26Z</time></trkpt><trkpt lat="45.49365609537476" lon="9.051063823976463"><ele>136.0</ele><time>2026-03-29T09:16:27Z</time></trkpt><trkpt lat="45.493561527588696" lon="9.05080696974882"><ele>136.0</ele><time>2026-03-29T09:16:28Z</time></trkpt><trkpt lat="45.49346564217113" lon="9.050549181421493"><ele>135.33333333333334</ele><time>2026-03-29T09:16:29Z</time></trkpt><trkpt lat="45.493373290195834" lon="9.050291775964558"><ele>134.66666666666666</ele><time>2026-03-29T09:16:30Z</time></trkpt><trkpt lat="45.493278461425206" lon="9.050037707276038"><ele>134.0</ele><time>2026-03-29T09:16:31Z</time></trkpt><trkpt lat="45.493186718220436" lon="9.04979162916625"><ele>133.66666666666666</ele><time>2026-03-29T09:16:32Z</time></trkpt><trkpt lat="45.49309523874658" lon="9.049542786118218"><ele>133.33333333333334</ele><time>2026-03-29T09:16:33Z</time></trkpt><trkpt lat="45.493002106527456" lon="9.049290628163163"><ele>133.0</ele><time>2026-03-29T09:16:34Z</time></trkpt><trkpt lat="45.49290877812972" lon="9.049044174285969"><ele>133.66666666666669</ele><time>2026-03-29T09:16:35Z</time></trkpt><trkpt lat="45.49282202819571" lon="9.0488126234146"><ele>134.33333333333334</ele><time>2026-03-29T09:16:36Z</time></trkpt><trkpt lat="45.492732011776646" lon="9.048573957084619"><ele>135.0</ele><time>2026-03-29T09:16:37Z</time></trkpt><trkpt lat="45.49264553187204" lon="9.048342598827592"><ele>136.0</ele><time>2026-03-29T09:16:38Z</time></trkpt><trkpt lat="45.492561813483846" lon="9.04811082374499"><ele>137.0</ele><time>2026-03-29T09:16:39Z</time></trkpt><trkpt lat="45.49247337152848" lon="9.04787736259375"><ele>138.0</ele><time>2026-03-29T09:16:40Z</time></trkpt><trkpt lat="45.492383467221885" lon="9.0476420441177"><ele>139.0</ele><time>2026-03-29T09:16:41Z</time></trkpt><trkpt lat="45.49229206940099" lon="9.047402241275236"><ele>140.0</ele><time>2026-03-29T09:16:42Z</time></trkpt><trkpt lat="45.49220514512615" lon="9.047161001717233"><ele>141.0</ele><time>2026-03-29T09:16:43Z</time></trkpt><trkpt lat="45.49211630771716" lon="9.04691969484473"><ele>140.33333333333334</ele><time>2026-03-29T09:16:44Z</time></trkpt><trkpt lat="45.49202568607797" lon="9.046681086065552"><ele>139.66666666666669</ele><time>2026-03-29T09:16:45Z</time></trkpt><trkpt lat="45.49193842270194" lon="9.046441762314592"><ele>139.0</ele><time>2026-03-29T09:16:46Z</time></trkpt><trkpt lat="45.49184806440762" lon="9.046193946846445"><ele>139.0</ele><time>2026-03-29T09:16:47Z</time></trkpt><trkpt lat="45.491761978471615" lon="9.045954442071661"><ele>139.0</ele><time>2026-03-29T09:16:48Z</time></trkpt><trkpt lat="45.49166885308094" lon="9.04571348753809"><ele>139.0</ele><time>2026-03-29T09:16:49Z</time></trkpt><trkpt lat="45.491574909098254" lon="9.045473735708946"><ele>139.0</ele><time>2026-03-29T09:16:50Z</time></trkpt><trkpt lat="45.491482196433836" lon="9.045233839220158"><ele>139.0</ele><time>2026-03-29T09:16:51Z</time></trkpt><trkpt lat="45.49138906758292" lon="9.044987421610674"><ele>139.0</ele><time>2026-03-29T09:16:52Z</time></trkpt><trkpt lat="45.49130152578248" lon="9.04474712582208"><ele>138.0</ele><time>2026-03-29T09:16:53Z</time></trkpt><trkpt lat="45.491212460061746" lon="9.044503145085244"><ele>137.0</ele><time>2026-03-29T09:16:54Z</time></trkpt><trkpt lat="45.49112294303588" lon="9.044258210194306"><ele>136.0</ele><time>2026-03-29T09:16:55Z</time></trkpt><trkpt lat="45.49103608603412" lon="9.044013692689433"><ele>136.0</ele><time>2026-03-29T09:16:56Z</time></trkpt><trkpt lat="45.49095014386752" lon="9.043777663295142"><ele>136.0</ele><time>2026-03-29T09:16:57Z</time></trkpt><trkpt lat="45.490869818546955" lon="9.043547134120232"><ele>136.0</ele><time>2026-03-29T09:16:58Z</time></trkpt><trkpt lat="45.490789406893896" lon="9.043308251092352"><ele>136.66666666666669</ele><time>2026-03-29T09:16:59Z</time></trkpt><trkpt lat="45.49071872570166" lon="9.043064791824076"><ele>137.33333333333334</ele><time>2026-03-29T09:17:00Z</time></trkpt><trkpt lat="45.49065502118286" lon="9.042812158651248"><ele>138.0</ele><time>2026-03-29T09:17:01Z</time></trkpt><trkpt lat="45.49060757514598" lon="9.042556230734364"><ele>139.0</ele><time>2026-03-29T09:17:02Z</time></trkpt><trkpt lat="45.49056663766482" lon="9.042293111088162"><ele>140.0</ele><time>2026-03-29T09:17:03Z</time></trkpt><trkpt lat="45.49053610015971" lon="9.042026974435073"><ele>141.0</ele><time>2026-03-29T09:17:04Z</time></trkpt><trkpt lat="45.490509525072035" lon="9.041756732900433"><ele>141.66666666666666</ele><time>2026-03-29T09:17:05Z</time></trkpt><trkpt lat="45.490479678751456" lon="9.041487081023195"><ele>142.33333333333331</ele><time>2026-03-29T09:17:06Z</time></trkpt><trkpt lat="45.49045191836982" lon="9.041220684633132"><ele>143.0</ele><time>2026-03-29T09:17:07Z</time></trkpt><trkpt lat="45.490424278893805" lon="9.040953606691419"><ele>141.0</ele><time>2026-03-29T09:17:08Z</time></trkpt><trkpt lat="45.490388862206274" lon="9.040692977410401"><ele>139.0</ele><time>2026-03-29T09:17:09Z</time></trkpt><trkpt lat="45.4903589495487" lon="9.040425493629316"><ele>137.0</ele><time>2026-03-29T09:17:10Z</time></trkpt><trkpt lat="45.49031833328931" lon="9.040162816385822"><ele>136.66666666666666</ele><time>2026-03-29T09:17:11Z</time></trkpt><trkpt lat="45.49027877216205" lon="9.039925846442104"><ele>136.33333333333334</ele><time>2026-03-29T09:17:12Z</time></trkpt><trkpt lat="45.49024112901182" lon="9.039686620502621"><ele>136.0</ele><time>2026-03-29T09:17:13Z</time></trkpt><trkpt lat="45.49021191289341" lon="9.039472115460521"><ele>136.0</ele><time>2026-03-29T09:17:14Z</time></trkpt><trkpt lat="45.49018365067779" lon="9.03926604293494"><ele>136.0</ele><time>2026-03-29T09:17:15Z</time></trkpt><trkpt lat="45.49016148108223" lon="9.039084021905461"><ele>136.0</ele><time>2026-03-29T09:17:16Z</time></trkpt><trkpt lat="45.490146508428744" lon="9.038902790252171"><ele>136.0</ele><time>2026-03-29T09:17:17Z</time></trkpt><trkpt lat="45.4901432406409" lon="9.038734031567587"><ele>136.4</ele><time>2026-03-29T09:17:18Z</time></trkpt><trkpt lat="45.49015292325144" lon="9.0385757902166"><ele>136.8</ele><time>2026-03-29T09:17:18.999Z</time></trkpt><trkpt lat="45.49020061923332" lon="9.03845006791044"><ele>137.20000000000002</ele><time>2026-03-29T09:17:19.999Z</time></trkpt><trkpt lat="45.49025632584417" lon="9.038341647288053"><ele>137.6</ele><time>2026-03-29T09:17:20.999Z</time></trkpt><trkpt lat="45.49032520721599" lon="9.03826884686835"><ele>138.0</ele><time>2026-03-29T09:17:21.999Z</time></trkpt><trkpt lat="45.490411283978766" lon="9.038191290372843"><ele>138.20000000000002</ele><time>2026-03-29T09:17:22.999Z</time></trkpt><trkpt lat="45.49049634207189" lon="9.038103644277415"><ele>138.4</ele><time>2026-03-29T09:17:23.999Z</time></trkpt><trkpt lat="45.4905448365749" lon="9.037984745485861"><ele>138.60000000000002</ele><time>2026-03-29T09:17:24.999Z</time></trkpt><trkpt lat="45.490554921982365" lon="9.037848302136206"><ele>138.8</ele><time>2026-03-29T09:17:25.999Z</time></trkpt><trkpt lat="45.49051894157637" lon="9.037708428489132"><ele>139.0</ele><time>2026-03-29T09:17:26.999Z</time></trkpt><trkpt lat="45.49045099387902" lon="9.037597578648134"><ele>138.75</ele><time>2026-03-29T09:17:27.999Z</time></trkpt><trkpt lat="45.490359044791916" lon="9.037495837747068"><ele>138.5</ele><time>2026-03-29T09:17:28.999Z</time></trkpt><trkpt lat="45.49027090114094" lon="9.037385882153231"><ele>138.25</ele><time>2026-03-29T09:17:29.999Z</time></trkpt><trkpt lat="45.49019844711964" lon="9.037235553613797"><ele>138.0</ele><time>2026-03-29T09:17:30.999Z</time></trkpt><trkpt lat="45.49014641866304" lon="9.037041676335953"><ele>137.66666666666666</ele><time>2026-03-29T09:17:31.999Z</time></trkpt><trkpt lat="45.49009231182491" lon="9.03682497443249"><ele>137.33333333333331</ele><time>2026-03-29T09:17:32.999Z</time></trkpt><trkpt lat="45.49004668898408" lon="9.036590498780807"><ele>137.0</ele><time>2026-03-29T09:17:33.999Z</time></trkpt><trkpt lat="45.49001716529654" lon="9.036334240121235"><ele>137.66666666666666</ele><time>2026-03-29T09:17:34.999Z</time></trkpt><trkpt lat="45.489995101991276" lon="9.036060149068135"><ele>138.33333333333334</ele><time>2026-03-29T09:17:35.999Z</time></trkpt><trkpt lat="45.489976877942354" lon="9.035801643973056"><ele>139.0</ele><time>2026-03-29T09:17:36.999Z</time></trkpt><trkpt lat="45.48995652558283" lon="9.035539300700218"><ele>139.0</ele><time>2026-03-29T09:17:37.999Z</time></trkpt><trkpt lat="45.48993485796227" lon="9.035293541824725"><ele>139.0</ele><time>2026-03-29T09:17:38.999Z</time></trkpt><trkpt lat="45.489910002645864" lon="9.035052212175293"><ele>139.0</ele><time>2026-03-29T09:17:39.999Z</time></trkpt><trkpt lat="45.48988979875897" lon="9.03482711180396"><ele>139.0</ele><time>2026-03-29T09:17:40.999Z</time></trkpt><trkpt lat="45.48987109796991" lon="9.034610829789047"><ele>139.0</ele><time>2026-03-29T09:17:41.999Z</time></trkpt><trkpt lat="45.4898543568749" lon="9.034413441942876"><ele>139.0</ele><time>2026-03-29T09:17:42.999Z</time></trkpt><trkpt lat="45.48983680661059" lon="9.034226220846408"><ele>139.0</ele><time>2026-03-29T09:17:43.999Z</time></trkpt><trkpt lat="45.48982212958678" lon="9.034050357208201"><ele>138.6</ele><time>2026-03-29T09:17:44.999Z</time></trkpt><trkpt lat="45.489808811090384" lon="9.033881606105032"><ele>138.2</ele><time>2026-03-29T09:17:45.999Z</time></trkpt><trkpt lat="45.48979488515882" lon="9.033732036315323"><ele>137.79999999999998</ele><time>2026-03-29T09:17:46.999Z</time></trkpt><trkpt lat="45.48978251658421" lon="9.033590397834235"><ele>137.4</ele><time>2026-03-29T09:17:47.999Z</time></trkpt><trkpt lat="45.48976992221726" lon="9.033456720543828"><ele>137.0</ele><time>2026-03-29T09:17:48.999Z</time></trkpt><trkpt lat="45.48976644671784" lon="9.033332122246339"><ele>137.2</ele><time>2026-03-29T09:17:49.999Z</time></trkpt><trkpt lat="45.48977604287752" lon="9.033209488745221"><ele>137.39999999999998</ele><time>2026-03-29T09:17:50.999Z</time></trkpt><trkpt lat="45.489789607196435" lon="9.033079024576672"><ele>137.60000000000002</ele><time>2026-03-29T09:17:51.999Z</time></trkpt><trkpt lat="45.48978278637393" lon="9.032937951526486"><ele>137.8</ele><time>2026-03-29T09:17:52.999Z</time></trkpt><trkpt lat="45.48973834371846" lon="9.032811052553258"><ele>138.0</ele><time>2026-03-29T09:17:53.999Z</time></trkpt><trkpt lat="45.48967421850312" lon="9.032679977676326"><ele>138.0</ele><time>2026-03-29T09:17:54.999Z</time></trkpt><trkpt lat="45.48962815133296" lon="9.032536598396337"><ele>138.0</ele><time>2026-03-29T09:17:55.999Z</time></trkpt><trkpt lat="45.48959891922507" lon="9.032378644312857"><ele>138.0</ele><time>2026-03-29T09:17:56.999Z</time></trkpt><trkpt lat="45.489576288312925" lon="9.032208834830556"><ele>138.0</ele><time>2026-03-29T09:17:57.999Z</time></trkpt><trkpt lat="45.489561748783906" lon="9.032037910816056"><ele>138.0</ele><time>2026-03-29T09:17:58.999Z</time></trkpt><trkpt lat="45.489546092207505" lon="9.031859068811869"><ele>138.0</ele><time>2026-03-29T09:17:59.999Z</time></trkpt><trkpt lat="45.48953019927022" lon="9.03167627157863"><ele>138.0</ele><time>2026-03-29T09:18:00.999Z</time></trkpt><trkpt lat="45.48951297815066" lon="9.031511470222304"><ele>138.0</ele><time>2026-03-29T09:18:01.999Z</time></trkpt><trkpt lat="45.48950345729457" lon="9.031350674532096"><ele>138.0</ele><time>2026-03-29T09:18:02.999Z</time></trkpt><trkpt lat="45.48949446505127" lon="9.031188055396163"><ele>138.0</ele><time>2026-03-29T09:18:03.999Z</time></trkpt><trkpt lat="45.48948575346032" lon="9.031025429170116"><ele>138.0</ele><time>2026-03-29T09:18:04.999Z</time></trkpt><trkpt lat="45.48947477189385" lon="9.030874348095125"><ele>138.0</ele><time>2026-03-29T09:18:05.999Z</time></trkpt><trkpt lat="45.48946803761517" lon="9.030731294355693"><ele>138.0</ele><time>2026-03-29T09:18:06.999Z</time></trkpt><trkpt lat="45.48945865151743" lon="9.030596068359422"><ele>138.0</ele><time>2026-03-29T09:18:07.999Z</time></trkpt><trkpt lat="45.48945080348091" lon="9.030467630556304"><ele>138.0</ele><time>2026-03-29T09:18:08.999Z</time></trkpt><trkpt lat="45.48944954705011" lon="9.030328097059053"><ele>138.0</ele><time>2026-03-29T09:18:09.999Z</time></trkpt><trkpt lat="45.489465983060626" lon="9.030194209483204"><ele>138.0</ele><time>2026-03-29T09:18:10.999Z</time></trkpt><trkpt lat="45.48950626296933" lon="9.030078831782898"><ele>138.0</ele><time>2026-03-29T09:18:11.999Z</time></trkpt><trkpt lat="45.4895468665245" lon="9.029981976142354"><ele>138.16666666666666</ele><time>2026-03-29T09:18:12.999Z</time></trkpt><trkpt lat="45.489571006982054" lon="9.029893133304446"><ele>138.33333333333334</ele><time>2026-03-29T09:18:13.999Z</time></trkpt><trkpt lat="45.48956459318774" lon="9.029788085699723"><ele>138.5</ele><time>2026-03-29T09:18:14.999Z</time></trkpt><trkpt lat="45.489517988418314" lon="9.029674842666205"><ele>138.66666666666669</ele><time>2026-03-29T09:18:15.999Z</time></trkpt><trkpt lat="45.489444183688555" lon="9.029575682984827"><ele>138.83333333333334</ele><time>2026-03-29T09:18:16.999Z</time></trkpt><trkpt lat="45.48939417775886" lon="9.029459843232116"><ele>139.0</ele><time>2026-03-29T09:18:18Z</time></trkpt><trkpt lat="45.489368466692106" lon="9.02931693377647"><ele>139.0</ele><time>2026-03-29T09:18:19Z</time></trkpt><trkpt lat="45.489354201673706" lon="9.029188797581789"><ele>139.0</ele><time>2026-03-29T09:18:20Z</time></trkpt><trkpt lat="45.48934157737503" lon="9.029072943757638"><ele>139.0</ele><time>2026-03-29T09:18:21Z</time></trkpt><trkpt lat="45.489329848911645" lon="9.028963010008574"><ele>139.0</ele><time>2026-03-29T09:18:22Z</time></trkpt><trkpt lat="45.489317873742834" lon="9.028858196905116"><ele>139.0</ele><time>2026-03-29T09:18:23Z</time></trkpt><trkpt lat="45.48931969147094" lon="9.028760373562612"><ele>139.0</ele><time>2026-03-29T09:18:24Z</time></trkpt><trkpt lat="45.48931095280654" lon="9.028658746738872"><ele>139.0</ele><time>2026-03-29T09:18:25Z</time></trkpt><trkpt lat="45.48930278724757" lon="9.028563784829199"><ele>139.0</ele><time>2026-03-29T09:18:26Z</time></trkpt><trkpt lat="45.489282783295174" lon="9.028405140944288"><ele>139.0</ele><time>2026-03-29T09:18:28Z</time></trkpt><trkpt lat="45.489266583165055" lon="9.028285585099002"><ele>139.0</ele><time>2026-03-29T09:18:30Z</time></trkpt><trkpt lat="45.489256403905834" lon="9.028192132043884"><ele>139.0</ele><time>2026-03-29T09:18:33Z</time></trkpt><trkpt lat="45.48925465356868" lon="9.028034432504167"><ele>139.0</ele><time>2026-03-29T09:18:37Z</time></trkpt><trkpt lat="45.48924279776088" lon="9.027935338073423"><ele>139.0</ele><time>2026-03-29T09:18:38Z</time></trkpt><trkpt lat="45.48922840565347" lon="9.027809424453983"><ele>139.0</ele><time>2026-03-29T09:18:39Z</time></trkpt><trkpt lat="45.48922017354281" lon="9.027663582426081"><ele>139.0</ele><time>2026-03-29T09:18:40Z</time></trkpt><trkpt lat="45.4892062084509" lon="9.027496494210684"><ele>139.0</ele><time>2026-03-29T09:18:41Z</time></trkpt><trkpt lat="45.48918491245357" lon="9.027329688506438"><ele>139.0</ele><time>2026-03-29T09:18:42Z</time></trkpt><trkpt lat="45.489177161508024" lon="9.027152961870305"><ele>139.0</ele><time>2026-03-29T09:18:43Z</time></trkpt><trkpt lat="45.48916058919429" lon="9.026960568131788"><ele>139.0</ele><time>2026-03-29T09:18:44Z</time></trkpt><trkpt lat="45.48914341136067" lon="9.026759022535904"><ele>139.0</ele><time>2026-03-29T09:18:45Z</time></trkpt><trkpt lat="45.48914253157011" lon="9.026553697396512"><ele>139.0</ele><time>2026-03-29T09:18:46Z</time></trkpt><trkpt lat="45.48911658280069" lon="9.026332938036683"><ele>139.0</ele><time>2026-03-29T09:18:47Z</time></trkpt><trkpt lat="45.48909282467786" lon="9.026108704234076"><ele>139.0</ele><time>2026-03-29T09:18:48Z</time></trkpt><trkpt lat="45.48907168235922" lon="9.025901817638925"><ele>139.0</ele><time>2026-03-29T09:18:49Z</time></trkpt><trkpt lat="45.489051641434465" lon="9.02568989123423"><ele>139.66666666666669</ele><time>2026-03-29T09:18:50Z</time></trkpt><trkpt lat="45.489031689184536" lon="9.02547256595706"><ele>140.33333333333334</ele><time>2026-03-29T09:18:51Z</time></trkpt><trkpt lat="45.48900728076991" lon="9.02523326070796"><ele>141.0</ele><time>2026-03-29T09:18:52Z</time></trkpt><trkpt lat="45.4889950896643" lon="9.024997613468818"><ele>140.66666666666666</ele><time>2026-03-29T09:18:53Z</time></trkpt><trkpt lat="45.48897343502601" lon="9.024771079806861"><ele>140.33333333333331</ele><time>2026-03-29T09:18:54Z</time></trkpt><trkpt lat="45.48896067005274" lon="9.024551002372855"><ele>140.0</ele><time>2026-03-29T09:18:55Z</time></trkpt><trkpt lat="45.4889417598944" lon="9.02432831239068"><ele>139.75</ele><time>2026-03-29T09:18:56Z</time></trkpt><trkpt lat="45.4889244049681" lon="9.024116682326625"><ele>139.5</ele><time>2026-03-29T09:18:57Z</time></trkpt><trkpt lat="45.48890923850608" lon="9.023924633369143"><ele>139.25</ele><time>2026-03-29T09:18:58Z</time></trkpt><trkpt lat="45.48889399744366" lon="9.023749042440961"><ele>139.0</ele><time>2026-03-29T09:18:59Z</time></trkpt><trkpt lat="45.48887832788572" lon="9.023582681795947"><ele>139.0</ele><time>2026-03-29T09:19:00Z</time></trkpt><trkpt lat="45.488860900718606" lon="9.023422811402773"><ele>139.0</ele><time>2026-03-29T09:19:01Z</time></trkpt><trkpt lat="45.48883615143495" lon="9.023285252441514"><ele>139.0</ele><time>2026-03-29T09:19:02Z</time></trkpt><trkpt lat="45.48881383745259" lon="9.023149576029972"><ele>139.0</ele><time>2026-03-29T09:19:03Z</time></trkpt><trkpt lat="45.488797265494895" lon="9.023017311019299"><ele>139.0</ele><time>2026-03-29T09:19:04Z</time></trkpt><trkpt lat="45.48881728230161" lon="9.022913522949318"><ele>139.0</ele><time>2026-03-29T09:19:05Z</time></trkpt><trkpt lat="45.48883069612508" lon="9.022812038416204"><ele>139.0</ele><time>2026-03-29T09:19:06Z</time></trkpt><trkpt lat="45.488806426283034" lon="9.02267617857942"><ele>139.0</ele><time>2026-03-29T09:19:07Z</time></trkpt><trkpt lat="45.48880176008336" lon="9.022557249789708"><ele>139.0</ele><time>2026-03-29T09:19:08Z</time></trkpt><trkpt lat="45.488820972787686" lon="9.022451334078944"><ele>139.0</ele><time>2026-03-29T09:19:09Z</time></trkpt><trkpt lat="45.48884462661078" lon="9.022365279912576"><ele>139.0</ele><time>2026-03-29T09:19:10Z</time></trkpt><trkpt lat="45.488900599307286" lon="9.022219190764071"><ele>139.0</ele><time>2026-03-29T09:19:12Z</time></trkpt><trkpt lat="45.48896363083232" lon="9.022089880837962"><ele>139.0</ele><time>2026-03-29T09:19:14Z</time></trkpt><trkpt lat="45.48890026518888" lon="9.0219584634666"><ele>139.0</ele><time>2026-03-29T09:19:15Z</time></trkpt><trkpt lat="45.488840254391015" lon="9.021882258838607"><ele>139.0</ele><time>2026-03-29T09:19:16Z</time></trkpt><trkpt lat="45.488774545778604" lon="9.021800239214574"><ele>139.0</ele><time>2026-03-29T09:19:17Z</time></trkpt><trkpt lat="45.48872150194356" lon="9.021701933472379"><ele>139.8</ele><time>2026-03-29T09:19:17.999Z</time></trkpt><trkpt lat="45.4886929978199" lon="9.021582787964794"><ele>140.60000000000002</ele><time>2026-03-29T09:19:18.999Z</time></trkpt><trkpt lat="45.488701693268894" lon="9.02143697442189"><ele>141.4</ele><time>2026-03-29T09:19:19.999Z</time></trkpt><trkpt lat="45.4886762988515" lon="9.021303920049917"><ele>142.20000000000002</ele><time>2026-03-29T09:19:20.999Z</time></trkpt><trkpt lat="45.48866305394432" lon="9.02115316178925"><ele>143.0</ele><time>2026-03-29T09:19:21.999Z</time></trkpt><trkpt lat="45.48863669563401" lon="9.02098989058603"><ele>143.0</ele><time>2026-03-29T09:19:22.999Z</time></trkpt><trkpt lat="45.48861805918526" lon="9.020837332153242"><ele>143.0</ele><time>2026-03-29T09:19:23.999Z</time></trkpt><trkpt lat="45.488584803106974" lon="9.020678559321087"><ele>143.0</ele><time>2026-03-29T09:19:24.999Z</time></trkpt><trkpt lat="45.488549543832086" lon="9.02051807740885"><ele>143.0</ele><time>2026-03-29T09:19:25.999Z</time></trkpt><trkpt lat="45.488510089059574" lon="9.020357777864682"><ele>142.75</ele><time>2026-03-29T09:19:26.999Z</time></trkpt><trkpt lat="45.48847706365535" lon="9.020198207177064"><ele>142.5</ele><time>2026-03-29T09:19:27.999Z</time></trkpt><trkpt lat="45.48843956518365" lon="9.020053223677856"><ele>142.25</ele><time>2026-03-29T09:19:28.999Z</time></trkpt><trkpt lat="45.48840172205969" lon="9.019904160244447"><ele>142.0</ele><time>2026-03-29T09:19:29.999Z</time></trkpt><trkpt lat="45.488361183487484" lon="9.019752283628323"><ele>141.75</ele><time>2026-03-29T09:19:30.999Z</time></trkpt><trkpt lat="45.4883225298039" lon="9.019596701150517"><ele>141.5</ele><time>2026-03-29T09:19:31.999Z</time></trkpt><trkpt lat="45.48828473062752" lon="9.019439189014161"><ele>141.25</ele><time>2026-03-29T09:19:32.999Z</time></trkpt><trkpt lat="45.4882459330173" lon="9.019283949378396"><ele>141.0</ele><time>2026-03-29T09:19:33.999Z</time></trkpt><trkpt lat="45.488209413108706" lon="9.019130412678129"><ele>141.0</ele><time>2026-03-29T09:19:34.999Z</time></trkpt><trkpt lat="45.48817275779204" lon="9.018977941888918"><ele>141.0</ele><time>2026-03-29T09:19:35.999Z</time></trkpt><trkpt lat="45.488138496709915" lon="9.018834417648318"><ele>141.0</ele><time>2026-03-29T09:19:36.999Z</time></trkpt><trkpt lat="45.48810368322033" lon="9.018692891343903"><ele>141.0</ele><time>2026-03-29T09:19:37.999Z</time></trkpt><trkpt lat="45.48806895634617" lon="9.018561236923206"><ele>141.0</ele><time>2026-03-29T09:19:38.999Z</time></trkpt><trkpt lat="45.48803615795522" lon="9.01843175061345"><ele>141.8</ele><time>2026-03-29T09:19:39.999Z</time></trkpt><trkpt lat="45.488004355065186" lon="9.01830365227364"><ele>142.6</ele><time>2026-03-29T09:19:40.999Z</time></trkpt><trkpt lat="45.48797491584537" lon="9.018184640518172"><ele>143.4</ele><time>2026-03-29T09:19:41.999Z</time></trkpt><trkpt lat="45.487954893896514" lon="9.01806962630919"><ele>144.2</ele><time>2026-03-29T09:19:42.999Z</time></trkpt><trkpt lat="45.48791643379143" lon="9.017939592370974"><ele>145.0</ele><time>2026-03-29T09:19:43.999Z</time></trkpt><trkpt lat="45.48790020431587" lon="9.017799568771684"><ele>145.0</ele><time>2026-03-29T09:19:44.999Z</time></trkpt><trkpt lat="45.48787432002392" lon="9.017671588932924"><ele>145.0</ele><time>2026-03-29T09:19:45.999Z</time></trkpt><trkpt lat="45.487848552615205" lon="9.01754252276903"><ele>145.0</ele><time>2026-03-29T09:19:46.999Z</time></trkpt><trkpt lat="45.487810755007786" lon="9.017402434700859"><ele>145.0</ele><time>2026-03-29T09:19:47.999Z</time></trkpt><trkpt lat="45.48778498751896" lon="9.017280254728215"><ele>145.0</ele><time>2026-03-29T09:19:48.999Z</time></trkpt><trkpt lat="45.487755337318305" lon="9.017149273273791"><ele>145.0</ele><time>2026-03-29T09:19:49.999Z</time></trkpt><trkpt lat="45.487719623183025" lon="9.017013474139032"><ele>145.0</ele><time>2026-03-29T09:19:50.999Z</time></trkpt><trkpt lat="45.487686336449265" lon="9.016877042769101"><ele>145.0</ele><time>2026-03-29T09:19:51.999Z</time></trkpt><trkpt lat="45.48765419373581" lon="9.016743113057084"><ele>145.0</ele><time>2026-03-29T09:19:52.999Z</time></trkpt><trkpt lat="45.48762775129244" lon="9.016614394144806"><ele>145.0</ele><time>2026-03-29T09:19:53.999Z</time></trkpt><trkpt lat="45.48759384140024" lon="9.01649147850096"><ele>145.0</ele><time>2026-03-29T09:19:54.999Z</time></trkpt><trkpt lat="45.48756365999277" lon="9.016380624999362"><ele>145.0</ele><time>2026-03-29T09:19:55.999Z</time></trkpt><trkpt lat="45.48754275838379" lon="9.016280447080836"><ele>145.0</ele><time>2026-03-29T09:19:56.999Z</time></trkpt><trkpt lat="45.48751391761478" lon="9.016190573114796"><ele>145.0</ele><time>2026-03-29T09:19:57.999Z</time></trkpt><trkpt lat="45.48749530700569" lon="9.016101940590238"><ele>145.0</ele><time>2026-03-29T09:19:58.999Z</time></trkpt><trkpt lat="45.48744390911252" lon="9.015948280906454"><ele>145.0</ele><time>2026-03-29T09:20:00.999Z</time></trkpt><trkpt lat="45.48739914825086" lon="9.015783716406814"><ele>144.71428571428572</ele><time>2026-03-29T09:20:02.999Z</time></trkpt><trkpt lat="45.48738120613785" lon="9.015688681489978"><ele>144.42857142857144</ele><time>2026-03-29T09:20:03.999Z</time></trkpt><trkpt lat="45.48735840766656" lon="9.015588719314657"><ele>144.14285714285714</ele><time>2026-03-29T09:20:04.999Z</time></trkpt><trkpt lat="45.48733907173862" lon="9.01549551821373"><ele>143.85714285714286</ele><time>2026-03-29T09:20:05.999Z</time></trkpt><trkpt lat="45.487317003063275" lon="9.015399009321325"><ele>143.57142857142856</ele><time>2026-03-29T09:20:06.999Z</time></trkpt><trkpt lat="45.48729193598322" lon="9.015300081243401"><ele>143.28571428571428</ele><time>2026-03-29T09:20:07.999Z</time></trkpt><trkpt lat="45.48727498105541" lon="9.015200199067566"><ele>143.0</ele><time>2026-03-29T09:20:08.999Z</time></trkpt><trkpt lat="45.48725198940964" lon="9.015113608813241"><ele>143.0</ele><time>2026-03-29T09:20:09.999Z</time></trkpt><trkpt lat="45.48722919939783" lon="9.015027504632695"><ele>143.0</ele><time>2026-03-29T09:20:10.999Z</time></trkpt><trkpt lat="45.48720229769079" lon="9.01492626334058"><ele>143.0</ele><time>2026-03-29T09:20:11.999Z</time></trkpt><trkpt lat="45.487160917839056" lon="9.014812334252447"><ele>143.0</ele><time>2026-03-29T09:20:12.999Z</time></trkpt><trkpt lat="45.487128685472925" lon="9.014676329590174"><ele>143.0</ele><time>2026-03-29T09:20:13.999Z</time></trkpt><trkpt lat="45.48709410374616" lon="9.01452902731691"><ele>143.0</ele><time>2026-03-29T09:20:14.999Z</time></trkpt><trkpt lat="45.4870607848924" lon="9.014381779353467"><ele>143.20000000000002</ele><time>2026-03-29T09:20:15.999Z</time></trkpt><trkpt lat="45.48702404830799" lon="9.014237555084271"><ele>143.4</ele><time>2026-03-29T09:20:16.999Z</time></trkpt><trkpt lat="45.4870005706866" lon="9.014097019623115"><ele>143.60000000000002</ele><time>2026-03-29T09:20:17.999Z</time></trkpt><trkpt lat="45.486976408042956" lon="9.013954065354266"><ele>143.8</ele><time>2026-03-29T09:20:18.999Z</time></trkpt><trkpt lat="45.48694900811112" lon="9.013815171816942"><ele>144.0</ele><time>2026-03-29T09:20:19.999Z</time></trkpt><trkpt lat="45.486920317746424" lon="9.013666157656218"><ele>143.6</ele><time>2026-03-29T09:20:20.999Z</time></trkpt><trkpt lat="45.486892418474824" lon="9.013531379926453"><ele>143.2</ele><time>2026-03-29T09:20:21.999Z</time></trkpt><trkpt lat="45.48686699250515" lon="9.01339414230854"><ele>142.79999999999998</ele><time>2026-03-29T09:20:22.999Z</time></trkpt><trkpt lat="45.48684892899195" lon="9.013258731899024"><ele>142.4</ele><time>2026-03-29T09:20:24Z</time></trkpt><trkpt lat="45.486830267557785" lon="9.013134918642297"><ele>142.0</ele><time>2026-03-29T09:20:25Z</time></trkpt><trkpt lat="45.48681063019816" lon="9.013006585279305"><ele>141.6</ele><time>2026-03-29T09:20:26Z</time></trkpt><trkpt lat="45.48678972074178" lon="9.012880056421094"><ele>141.2</ele><time>2026-03-29T09:20:27Z</time></trkpt><trkpt lat="45.486770938841474" lon="9.012746342978822"><ele>140.8</ele><time>2026-03-29T09:20:28Z</time></trkpt><trkpt lat="45.48674671869138" lon="9.012610382299833"><ele>140.4</ele><time>2026-03-29T09:20:29Z</time></trkpt><trkpt lat="45.48670897908371" lon="9.012474986231743"><ele>140.0</ele><time>2026-03-29T09:20:30Z</time></trkpt><trkpt lat="45.486668242316966" lon="9.012338418370673"><ele>140.0</ele><time>2026-03-29T09:20:31Z</time></trkpt><trkpt lat="45.48662270921226" lon="9.012205901822657"><ele>140.0</ele><time>2026-03-29T09:20:32Z</time></trkpt><trkpt lat="45.48657281735468" lon="9.01205975030938"><ele>140.0</ele><time>2026-03-29T09:20:33Z</time></trkpt><trkpt lat="45.48652690608" lon="9.011922488070677"><ele>140.0</ele><time>2026-03-29T09:20:34Z</time></trkpt><trkpt lat="45.48647971204716" lon="9.011775880038138"><ele>140.0</ele><time>2026-03-29T09:20:35Z</time></trkpt><trkpt lat="45.48643542447262" lon="9.011623605373316"><ele>140.2</ele><time>2026-03-29T09:20:36Z</time></trkpt><trkpt lat="45.48640008626256" lon="9.011473065375824"><ele>140.4</ele><time>2026-03-29T09:20:37Z</time></trkpt><trkpt lat="45.48636979342192" lon="9.011322836784103"><ele>140.6</ele><time>2026-03-29T09:20:38Z</time></trkpt><trkpt lat="45.486339592907456" lon="9.011170819534929"><ele>140.8</ele><time>2026-03-29T09:20:39Z</time></trkpt><trkpt lat="45.4863083061797" lon="9.011016265501917"><ele>141.0</ele><time>2026-03-29T09:20:40Z</time></trkpt><trkpt lat="45.48627895212663" lon="9.010862110451434"><ele>140.8</ele><time>2026-03-29T09:20:41Z</time></trkpt><trkpt lat="45.48624955139471" lon="9.010708422586688"><ele>140.6</ele><time>2026-03-29T09:20:42Z</time></trkpt><trkpt lat="45.48622136908681" lon="9.010566249938874"><ele>140.4</ele><time>2026-03-29T09:20:43Z</time></trkpt><trkpt lat="45.48619164386143" lon="9.010419272595897"><ele>140.2</ele><time>2026-03-29T09:20:44Z</time></trkpt><trkpt lat="45.48616078664171" lon="9.010273322570278"><ele>140.0</ele><time>2026-03-29T09:20:45Z</time></trkpt><trkpt lat="45.48612937756694" lon="9.010124671907498"><ele>140.4</ele><time>2026-03-29T09:20:46Z</time></trkpt><trkpt lat="45.486098764016745" lon="9.009977284558413"><ele>140.8</ele><time>2026-03-29T09:20:47Z</time></trkpt><trkpt lat="45.48607270855999" lon="9.009833970130952"><ele>141.2</ele><time>2026-03-29T09:20:48Z</time></trkpt><trkpt lat="45.486042055410365" lon="9.009683374724899"><ele>141.6</ele><time>2026-03-29T09:20:49Z</time></trkpt><trkpt lat="45.486013192660515" lon="9.0095357063005"><ele>142.0</ele><time>2026-03-29T09:20:50Z</time></trkpt><trkpt lat="45.48598425190645" lon="9.009386976194618"><ele>142.0</ele><time>2026-03-29T09:20:51Z</time></trkpt><trkpt lat="45.48595718635954" lon="9.009238205550808"><ele>142.0</ele><time>2026-03-29T09:20:52Z</time></trkpt><trkpt lat="45.48592694127842" lon="9.009083458261841"><ele>142.0</ele><time>2026-03-29T09:20:53Z</time></trkpt><trkpt lat="45.48589852260995" lon="9.008937623935138"><ele>142.0</ele><time>2026-03-29T09:20:54Z</time></trkpt><trkpt lat="45.48587013762844" lon="9.008797183238"><ele>142.0</ele><time>2026-03-29T09:20:55Z</time></trkpt><trkpt lat="45.48584388480237" lon="9.00865879510489"><ele>142.0</ele><time>2026-03-29T09:20:56Z</time></trkpt><trkpt lat="45.48581924183814" lon="9.008526420071227"><ele>142.0</ele><time>2026-03-29T09:20:57Z</time></trkpt><trkpt lat="45.48579731838571" lon="9.008408687999397"><ele>142.0</ele><time>2026-03-29T09:20:58Z</time></trkpt><trkpt lat="45.48577483573273" lon="9.008290582015306"><ele>142.0</ele><time>2026-03-29T09:20:59Z</time></trkpt><trkpt lat="45.4857572373626" lon="9.00817995592808"><ele>142.0</ele><time>2026-03-29T09:21:00Z</time></trkpt><trkpt lat="45.48573737823692" lon="9.008072775780056"><ele>142.0</ele><time>2026-03-29T09:21:01Z</time></trkpt><trkpt lat="45.48572048634019" lon="9.00796105195187"><ele>142.0</ele><time>2026-03-29T09:21:02Z</time></trkpt><trkpt lat="45.48569709689549" lon="9.007833047578325"><ele>142.0</ele><time>2026-03-29T09:21:03Z</time></trkpt><trkpt lat="45.485671925617076" lon="9.007702293520973"><ele>142.0</ele><time>2026-03-29T09:21:04Z</time></trkpt><trkpt lat="45.485641773854795" lon="9.007568030723153"><ele>142.0</ele><time>2026-03-29T09:21:05Z</time></trkpt><trkpt lat="45.48561201334169" lon="9.007434588886625"><ele>142.0</ele><time>2026-03-29T09:21:06Z</time></trkpt><trkpt lat="45.48558703819261" lon="9.007297886658252"><ele>142.0</ele><time>2026-03-29T09:21:07Z</time></trkpt><trkpt lat="45.48556187961174" lon="9.007161551424968"><ele>142.0</ele><time>2026-03-29T09:21:08Z</time></trkpt><trkpt lat="45.485537786278755" lon="9.007028367598041"><ele>142.0</ele><time>2026-03-29T09:21:09Z</time></trkpt><trkpt lat="45.48550918757595" lon="9.006897110992815"><ele>142.0</ele><time>2026-03-29T09:21:10Z</time></trkpt><trkpt lat="45.48548232664383" lon="9.006774802542319"><ele>142.0</ele><time>2026-03-29T09:21:11Z</time></trkpt><trkpt lat="45.485450481094595" lon="9.006646566802292"><ele>141.79999999999998</ele><time>2026-03-29T09:21:12Z</time></trkpt><trkpt lat="45.485426922682414" lon="9.006524043504836"><ele>141.6</ele><time>2026-03-29T09:21:13Z</time></trkpt><trkpt lat="45.48541996646291" lon="9.006396707857888"><ele>141.39999999999998</ele><time>2026-03-29T09:21:14Z</time></trkpt><trkpt lat="45.485398368281096" lon="9.006271624050086"><ele>141.2</ele><time>2026-03-29T09:21:15Z</time></trkpt><trkpt lat="45.48537543014933" lon="9.006146851074385"><ele>141.0</ele><time>2026-03-29T09:21:16Z</time></trkpt><trkpt lat="45.485350274670814" lon="9.006018984590748"><ele>141.0</ele><time>2026-03-29T09:21:17Z</time></trkpt><trkpt lat="45.4853245728597" lon="9.00589220703024"><ele>141.0</ele><time>2026-03-29T09:21:18Z</time></trkpt><trkpt lat="45.48530234080479" lon="9.005766894252751"><ele>141.0</ele><time>2026-03-29T09:21:19Z</time></trkpt><trkpt lat="45.485276445955236" lon="9.005636695219932"><ele>141.0</ele><time>2026-03-29T09:21:20Z</time></trkpt><trkpt lat="45.48525610611327" lon="9.005511108594266"><ele>141.0</ele><time>2026-03-29T09:21:21Z</time></trkpt><trkpt lat="45.48523756058934" lon="9.005380879873028"><ele>141.0</ele><time>2026-03-29T09:21:22Z</time></trkpt><trkpt lat="45.4852161117731" lon="9.005247878844"><ele>141.0</ele><time>2026-03-29T09:21:23Z</time></trkpt><trkpt lat="45.485196524541806" lon="9.005115951139798"><ele>141.0</ele><time>2026-03-29T09:21:24Z</time></trkpt><trkpt lat="45.48518206244223" lon="9.004986324032139"><ele>141.0</ele><time>2026-03-29T09:21:25Z</time></trkpt><trkpt lat="45.485179572315836" lon="9.004859239104373"><ele>141.0</ele><time>2026-03-29T09:21:26Z</time></trkpt><trkpt lat="45.48518652744181" lon="9.004742587770792"><ele>141.0</ele><time>2026-03-29T09:21:27Z</time></trkpt><trkpt lat="45.48519421985356" lon="9.004623516725564"><ele>141.0</ele><time>2026-03-29T09:21:28Z</time></trkpt><trkpt lat="45.48520364823891" lon="9.004495680309937"><ele>141.0</ele><time>2026-03-29T09:21:29Z</time></trkpt><trkpt lat="45.48521312699027" lon="9.004361436556922"><ele>141.0</ele><time>2026-03-29T09:21:30Z</time></trkpt><trkpt lat="45.48522299154865" lon="9.004236600776121"><ele>141.0</ele><time>2026-03-29T09:21:31Z</time></trkpt><trkpt lat="45.48522946923979" lon="9.004110870345405"><ele>141.0</ele><time>2026-03-29T09:21:31.999Z</time></trkpt><trkpt lat="45.48523502234036" lon="9.003990991569058"><ele>141.0</ele><time>2026-03-29T09:21:32.999Z</time></trkpt><trkpt lat="45.48523900219606" lon="9.003880549211093"><ele>141.0</ele><time>2026-03-29T09:21:33.999Z</time></trkpt><trkpt lat="45.48524423370282" lon="9.003768947809766"><ele>141.0</ele><time>2026-03-29T09:21:34.999Z</time></trkpt><trkpt lat="45.48525150043628" lon="9.00365543561178"><ele>141.0</ele><time>2026-03-29T09:21:35.999Z</time></trkpt><trkpt lat="45.48525997232643" lon="9.003540819044877"><ele>141.0</ele><time>2026-03-29T09:21:36.999Z</time></trkpt><trkpt lat="45.485268086748206" lon="9.003424931672884"><ele>141.0</ele><time>2026-03-29T09:21:37.999Z</time></trkpt><trkpt lat="45.4852781572282" lon="9.003304649446008"><ele>141.0</ele><time>2026-03-29T09:21:38.999Z</time></trkpt><trkpt lat="45.48528821405332" lon="9.003180569161259"><ele>141.0</ele><time>2026-03-29T09:21:39.999Z</time></trkpt><trkpt lat="45.48529947642405" lon="9.003057706378756"><ele>141.0</ele><time>2026-03-29T09:21:40.999Z</time></trkpt><trkpt lat="45.485302027505995" lon="9.002945703904073"><ele>141.0</ele><time>2026-03-29T09:21:41.999Z</time></trkpt><trkpt lat="45.48530682302652" lon="9.00284544732826"><ele>141.0</ele><time>2026-03-29T09:21:42.999Z</time></trkpt><trkpt lat="45.48531133966784" lon="9.00274382003251"><ele>141.0</ele><time>2026-03-29T09:21:43.999Z</time></trkpt><trkpt lat="45.48531924415374" lon="9.002644416912833"><ele>141.0</ele><time>2026-03-29T09:21:44.999Z</time></trkpt><trkpt lat="45.48532637865235" lon="9.002539223393976"><ele>141.0</ele><time>2026-03-29T09:21:45.999Z</time></trkpt><trkpt lat="45.48533461417683" lon="9.002438942374269"><ele>141.0</ele><time>2026-03-29T09:21:46.999Z</time></trkpt><trkpt lat="45.485346004670845" lon="9.002338137235489"><ele>141.0</ele><time>2026-03-29T09:21:47.999Z</time></trkpt><trkpt lat="45.48535574833879" lon="9.002231328492515"><ele>141.0</ele><time>2026-03-29T09:21:48.999Z</time></trkpt><trkpt lat="45.48536576871003" lon="9.002117901260915"><ele>141.0</ele><time>2026-03-29T09:21:49.999Z</time></trkpt><trkpt lat="45.485371276070154" lon="9.002011859657685"><ele>141.0</ele><time>2026-03-29T09:21:50.999Z</time></trkpt><trkpt lat="45.48537615764169" lon="9.00190527992043"><ele>141.0</ele><time>2026-03-29T09:21:51.999Z</time></trkpt><trkpt lat="45.4853803426091" lon="9.001798261678127"><ele>141.0</ele><time>2026-03-29T09:21:52.999Z</time></trkpt><trkpt lat="45.485384138164406" lon="9.001694037252012"><ele>141.0</ele><time>2026-03-29T09:21:53.999Z</time></trkpt><trkpt lat="45.4853838700796" lon="9.001604071364216"><ele>141.0</ele><time>2026-03-29T09:21:54.999Z</time></trkpt><trkpt lat="45.48539562483821" lon="9.00145719261437"><ele>141.0</ele><time>2026-03-29T09:21:56.999Z</time></trkpt><trkpt lat="45.485383673222074" lon="9.00127079644134"><ele>141.0</ele><time>2026-03-29T09:21:58.999Z</time></trkpt><trkpt lat="45.48538107416989" lon="9.00116315487608"><ele>141.0</ele><time>2026-03-29T09:21:59.999Z</time></trkpt><trkpt lat="45.48538310426671" lon="9.001066285323141"><ele>141.0</ele><time>2026-03-29T09:22:00.999Z</time></trkpt><trkpt lat="45.485395374414615" lon="9.00091047231251"><ele>141.0</ele><time>2026-03-29T09:22:02.999Z</time></trkpt><trkpt lat="45.48544455597541" lon="9.000748188558914"><ele>141.0</ele><time>2026-03-29T09:22:04.999Z</time></trkpt><trkpt lat="45.48547000046924" lon="9.000657911679276"><ele>141.0</ele><time>2026-03-29T09:22:05.999Z</time></trkpt><trkpt lat="45.48546834933614" lon="9.00056345516522"><ele>141.0</ele><time>2026-03-29T09:22:06.999Z</time></trkpt><trkpt lat="45.48539156818813" lon="9.000429864064198"><ele>141.0</ele><time>2026-03-29T09:22:08.999Z</time></trkpt><trkpt lat="45.48531635838023" lon="9.000409777425618"><ele>141.0</ele><time>2026-03-29T09:22:09.999Z</time></trkpt><trkpt lat="45.48523919261907" lon="9.00043811512901"><ele>141.0</ele><time>2026-03-29T09:22:10.999Z</time></trkpt><trkpt lat="45.48515120034274" lon="9.00046914938871"><ele>141.0</ele><time>2026-03-29T09:22:11.999Z</time></trkpt><trkpt lat="45.48506764155311" lon="9.000498051203106"><ele>141.0</ele><time>2026-03-29T09:22:12.999Z</time></trkpt><trkpt lat="45.484968711961116" lon="9.000518275223024"><ele>141.0</ele><time>2026-03-29T09:22:13.999Z</time></trkpt><trkpt lat="45.484866036878714" lon="9.000524549109457"><ele>141.0</ele><time>2026-03-29T09:22:14.999Z</time></trkpt><trkpt lat="45.48475484394023" lon="9.000531521999157"><ele>141.0</ele><time>2026-03-29T09:22:15.999Z</time></trkpt><trkpt lat="45.48463803319424" lon="9.000536870971386"><ele>141.0</ele><time>2026-03-29T09:22:16.999Z</time></trkpt><trkpt lat="45.48451410711997" lon="9.000542647591805"><ele>141.0</ele><time>2026-03-29T09:22:17.999Z</time></trkpt><trkpt lat="45.484402337912734" lon="9.000553247117638"><ele>141.0</ele><time>2026-03-29T09:22:18.999Z</time></trkpt><trkpt lat="45.48429468809878" lon="9.000556938130348"><ele>141.0</ele><time>2026-03-29T09:22:19.999Z</time></trkpt><trkpt lat="45.484175718307114" lon="9.000569334279962"><ele>141.0</ele><time>2026-03-29T09:22:20.999Z</time></trkpt><trkpt lat="45.484047525957585" lon="9.000603700804584"><ele>141.0</ele><time>2026-03-29T09:22:21.999Z</time></trkpt><trkpt lat="45.483924724582955" lon="9.00065997210259"><ele>141.0</ele><time>2026-03-29T09:22:22.999Z</time></trkpt><trkpt lat="45.48382140675945" lon="9.000722033909724"><ele>141.0</ele><time>2026-03-29T09:22:23.999Z</time></trkpt><trkpt lat="45.483716527718585" lon="9.0007806072786"><ele>141.0</ele><time>2026-03-29T09:22:24.999Z</time></trkpt><trkpt lat="45.48361930135778" lon="9.000824994521267"><ele>141.0</ele><time>2026-03-29T09:22:25.999Z</time></trkpt><trkpt lat="45.48351779036955" lon="9.000876054095416"><ele>141.0</ele><time>2026-03-29T09:22:26.999Z</time></trkpt><trkpt lat="45.48340616988129" lon="9.00092505424304"><ele>141.0</ele><time>2026-03-29T09:22:27.999Z</time></trkpt><trkpt lat="45.4832927927373" lon="9.000972585843158"><ele>141.0</ele><time>2026-03-29T09:22:28.999Z</time></trkpt><trkpt lat="45.483183738187385" lon="9.001015032081279"><ele>141.0</ele><time>2026-03-29T09:22:30Z</time></trkpt><trkpt lat="45.48306913380283" lon="9.001064822418325"><ele>141.0</ele><time>2026-03-29T09:22:31Z</time></trkpt><trkpt lat="45.48295272169058" lon="9.001105705827516"><ele>140.5</ele><time>2026-03-29T09:22:32Z</time></trkpt><trkpt lat="45.48284314266462" lon="9.0011488025857"><ele>140.0</ele><time>2026-03-29T09:22:33Z</time></trkpt><trkpt lat="45.48273003343838" lon="9.001191459992228"><ele>139.5</ele><time>2026-03-29T09:22:34Z</time></trkpt><trkpt lat="45.482608037473724" lon="9.001238798147483"><ele>139.0</ele><time>2026-03-29T09:22:35Z</time></trkpt><trkpt lat="45.48247819982674" lon="9.001297723073627"><ele>139.0</ele><time>2026-03-29T09:22:36Z</time></trkpt><trkpt lat="45.482348739596816" lon="9.001348699975766"><ele>139.0</ele><time>2026-03-29T09:22:37Z</time></trkpt><trkpt lat="45.482213247223584" lon="9.001401278054963"><ele>139.0</ele><time>2026-03-29T09:22:38Z</time></trkpt><trkpt lat="45.48206552888396" lon="9.001461339060505"><ele>139.0</ele><time>2026-03-29T09:22:39Z</time></trkpt><trkpt lat="45.48191199095074" lon="9.001523914126208"><ele>139.25</ele><time>2026-03-29T09:22:40Z</time></trkpt><trkpt lat="45.481771047836375" lon="9.001581160783141"><ele>139.5</ele><time>2026-03-29T09:22:41Z</time></trkpt><trkpt lat="45.481641585447015" lon="9.001650904929933"><ele>139.75</ele><time>2026-03-29T09:22:42Z</time></trkpt><trkpt lat="45.48150012200456" lon="9.001703521805489"><ele>140.0</ele><time>2026-03-29T09:22:43Z</time></trkpt><trkpt lat="45.481369379903064" lon="9.00175512453616"><ele>140.0</ele><time>2026-03-29T09:22:44Z</time></trkpt><trkpt lat="45.481247648744045" lon="9.001805406068955"><ele>140.0</ele><time>2026-03-29T09:22:45Z</time></trkpt><trkpt lat="45.481132899943496" lon="9.001851933344044"><ele>140.0</ele><time>2026-03-29T09:22:46Z</time></trkpt><trkpt lat="45.48102347627395" lon="9.001898382763775"><ele>140.0</ele><time>2026-03-29T09:22:47Z</time></trkpt><trkpt lat="45.48093125490873" lon="9.00193618232899"><ele>140.0</ele><time>2026-03-29T09:22:48Z</time></trkpt><trkpt lat="45.48084482905677" lon="9.00196969978729"><ele>140.0</ele><time>2026-03-29T09:22:49Z</time></trkpt><trkpt lat="45.48077061586178" lon="9.001999623744528"><ele>140.0</ele><time>2026-03-29T09:22:50Z</time></trkpt><trkpt lat="45.480704459383375" lon="9.002021701664702"><ele>140.0</ele><time>2026-03-29T09:22:51Z</time></trkpt><trkpt lat="45.48063664805347" lon="9.002027784168343"><ele>140.0</ele><time>2026-03-29T09:22:52Z</time></trkpt><trkpt lat="45.48056430409134" lon="9.002019816770275"><ele>140.0</ele><time>2026-03-29T09:22:53Z</time></trkpt><trkpt lat="45.48048223703124" lon="9.002050813198514"><ele>139.6</ele><time>2026-03-29T09:22:54Z</time></trkpt><trkpt lat="45.48041188314463" lon="9.002095020677753"><ele>139.2</ele><time>2026-03-29T09:22:55Z</time></trkpt><trkpt lat="45.48034047263864" lon="9.002174104690017"><ele>138.8</ele><time>2026-03-29T09:22:56Z</time></trkpt><trkpt lat="45.4802393141842" lon="9.002214927172911"><ele>138.4</ele><time>2026-03-29T09:22:57Z</time></trkpt><trkpt lat="45.48012802106916" lon="9.002272890485042"><ele>138.0</ele><time>2026-03-29T09:22:58Z</time></trkpt><trkpt lat="45.48001545176002" lon="9.002316772554607"><ele>138.0</ele><time>2026-03-29T09:22:59Z</time></trkpt><trkpt lat="45.47989726727049" lon="9.002360355391584"><ele>138.0</ele><time>2026-03-29T09:23:00Z</time></trkpt><trkpt lat="45.479795259154514" lon="9.00239907328074"><ele>138.0</ele><time>2026-03-29T09:23:01Z</time></trkpt><trkpt lat="45.47971876816285" lon="9.002428836127002"><ele>138.0</ele><time>2026-03-29T09:23:02Z</time></trkpt><trkpt lat="45.479635206105776" lon="9.002458369579195"><ele>138.0</ele><time>2026-03-29T09:23:03Z</time></trkpt><trkpt lat="45.479539593554456" lon="9.002494750957558"><ele>138.0</ele><time>2026-03-29T09:23:04Z</time></trkpt><trkpt lat="45.47943903324619" lon="9.002532977338262"><ele>138.0</ele><time>2026-03-29T09:23:05Z</time></trkpt><trkpt lat="45.47933475429642" lon="9.002576462985411"><ele>138.0</ele><time>2026-03-29T09:23:06Z</time></trkpt><trkpt lat="45.47922196763579" lon="9.002621573145822"><ele>138.0</ele><time>2026-03-29T09:23:07Z</time></trkpt><trkpt lat="45.47910960402082" lon="9.002662461479783"><ele>138.0</ele><time>2026-03-29T09:23:08Z</time></trkpt><trkpt lat="45.47899340148723" lon="9.002705679969248"><ele>138.0</ele><time>2026-03-29T09:23:09Z</time></trkpt><trkpt lat="45.478873986547455" lon="9.002749023336044"><ele>138.0</ele><time>2026-03-29T09:23:10Z</time></trkpt><trkpt lat="45.47876079026833" lon="9.002792408648109"><ele>138.0</ele><time>2026-03-29T09:23:11Z</time></trkpt><trkpt lat="45.478648632765946" lon="9.002839652917935"><ele>138.0</ele><time>2026-03-29T09:23:12Z</time></trkpt><trkpt lat="45.47852712736801" lon="9.002884889565776"><ele>137.75</ele><time>2026-03-29T09:23:13Z</time></trkpt><trkpt lat="45.47840238885606" lon="9.002917371649923"><ele>137.5</ele><time>2026-03-29T09:23:14Z</time></trkpt><trkpt lat="45.47827864178638" lon="9.002957366724505"><ele>137.25</ele><time>2026-03-29T09:23:15Z</time></trkpt><trkpt lat="45.478153840515986" lon="9.003000537847278"><ele>137.0</ele><time>2026-03-29T09:23:16Z</time></trkpt><trkpt lat="45.47802912047026" lon="9.00304933235106"><ele>137.25</ele><time>2026-03-29T09:23:17Z</time></trkpt><trkpt lat="45.47790328419431" lon="9.003099470794298"><ele>137.5</ele><time>2026-03-29T09:23:18Z</time></trkpt><trkpt lat="45.47778134948459" lon="9.003145091383562"><ele>137.75</ele><time>2026-03-29T09:23:19Z</time></trkpt><trkpt lat="45.477669190773085" lon="9.00318305574302"><ele>138.0</ele><time>2026-03-29T09:23:20Z</time></trkpt><trkpt lat="45.47756177574359" lon="9.003220291497746"><ele>138.0</ele><time>2026-03-29T09:23:21Z</time></trkpt><trkpt lat="45.47746063179676" lon="9.003256901066747"><ele>138.0</ele><time>2026-03-29T09:23:22Z</time></trkpt><trkpt lat="45.4773648328371" lon="9.003290654502383"><ele>138.0</ele><time>2026-03-29T09:23:23Z</time></trkpt><trkpt lat="45.477268403469644" lon="9.003319869736037"><ele>138.0</ele><time>2026-03-29T09:23:24Z</time></trkpt><trkpt lat="45.47716831236706" lon="9.003357717793047"><ele>138.0</ele><time>2026-03-29T09:23:25Z</time></trkpt><trkpt lat="45.477071847154896" lon="9.00339523112226"><ele>138.0</ele><time>2026-03-29T09:23:26Z</time></trkpt><trkpt lat="45.47697842582811" lon="9.003428632488685"><ele>138.0</ele><time>2026-03-29T09:23:27Z</time></trkpt><trkpt lat="45.476883431712835" lon="9.003463112385308"><ele>138.0</ele><time>2026-03-29T09:23:28Z</time></trkpt><trkpt lat="45.47678723962588" lon="9.003496943117044"><ele>138.0</ele><time>2026-03-29T09:23:29Z</time></trkpt><trkpt lat="45.476686195478635" lon="9.003532747256513"><ele>138.0</ele><time>2026-03-29T09:23:30Z</time></trkpt><trkpt lat="45.47658541646389" lon="9.003571016300308"><ele>138.0</ele><time>2026-03-29T09:23:31Z</time></trkpt><trkpt lat="45.4764838143257" lon="9.003608440455615"><ele>138.0</ele><time>2026-03-29T09:23:32Z</time></trkpt><trkpt lat="45.47638736760557" lon="9.003641410001846"><ele>138.0</ele><time>2026-03-29T09:23:33Z</time></trkpt><trkpt lat="45.47629224078708" lon="9.00367732104268"><ele>138.0</ele><time>2026-03-29T09:23:34Z</time></trkpt><trkpt lat="45.47620327173252" lon="9.00371469783097"><ele>138.0</ele><time>2026-03-29T09:23:35Z</time></trkpt><trkpt lat="45.47612670423284" lon="9.003745931506323"><ele>138.0</ele><time>2026-03-29T09:23:36Z</time></trkpt><trkpt lat="45.47606236748303" lon="9.003761665411908"><ele>138.0</ele><time>2026-03-29T09:23:36.999Z</time></trkpt><trkpt lat="45.47600067434003" lon="9.003741681690684"><ele>138.0</ele><time>2026-03-29T09:23:37.999Z</time></trkpt><trkpt lat="45.475965981606066" lon="9.003663868626086"><ele>138.0</ele><time>2026-03-29T09:23:38.999Z</time></trkpt><trkpt lat="45.475962249119526" lon="9.00355621791844"><ele>138.0</ele><time>2026-03-29T09:23:39.999Z</time></trkpt><trkpt lat="45.47595688289483" lon="9.003454852350329"><ele>138.0</ele><time>2026-03-29T09:23:40.999Z</time></trkpt><trkpt lat="45.47593548237594" lon="9.003360390688904"><ele>138.0</ele><time>2026-03-29T09:23:41.999Z</time></trkpt><trkpt lat="45.475910820559804" lon="9.003253546082792"><ele>137.6</ele><time>2026-03-29T09:23:42.999Z</time></trkpt><trkpt lat="45.47589154904782" lon="9.003138732981258"><ele>137.20000000000002</ele><time>2026-03-29T09:23:43.999Z</time></trkpt><trkpt lat="45.475877986901516" lon="9.003012406614978"><ele>136.8</ele><time>2026-03-29T09:23:44.999Z</time></trkpt><trkpt lat="45.47585638476437" lon="9.002887038644719"><ele>136.4</ele><time>2026-03-29T09:23:45.999Z</time></trkpt><trkpt lat="45.47579865615721" lon="9.002777352014585"><ele>136.0</ele><time>2026-03-29T09:23:46.999Z</time></trkpt><trkpt lat="45.475710046428695" lon="9.00270712348485"><ele>136.0</ele><time>2026-03-29T09:23:47.999Z</time></trkpt><trkpt lat="45.47562020163398" lon="9.002633112629518"><ele>136.0</ele><time>2026-03-29T09:23:48.999Z</time></trkpt><trkpt lat="45.475541872001564" lon="9.002557838963673"><ele>136.0</ele><time>2026-03-29T09:23:49.999Z</time></trkpt><trkpt lat="45.475471519432496" lon="9.002489573559327"><ele>136.0</ele><time>2026-03-29T09:23:50.999Z</time></trkpt><trkpt lat="45.475404224204595" lon="9.00242728546512"><ele>136.0</ele><time>2026-03-29T09:23:51.999Z</time></trkpt><trkpt lat="45.47533967926445" lon="9.002369978843785"><ele>136.0</ele><time>2026-03-29T09:23:52.999Z</time></trkpt><trkpt lat="45.475294794136694" lon="9.002288995984497"><ele>136.0</ele><time>2026-03-29T09:23:53.999Z</time></trkpt><trkpt lat="45.47520476782405" lon="9.002296541958243"><ele>136.0</ele><time>2026-03-29T09:23:54.999Z</time></trkpt><trkpt lat="45.47511837031866" lon="9.002308456544457"><ele>136.0</ele><time>2026-03-29T09:23:55.999Z</time></trkpt><trkpt lat="45.475026286505184" lon="9.002345387824603"><ele>136.0</ele><time>2026-03-29T09:23:56.999Z</time></trkpt><trkpt lat="45.47493898327326" lon="9.002377562956188"><ele>136.0</ele><time>2026-03-29T09:23:57.999Z</time></trkpt><trkpt lat="45.47484427343003" lon="9.002413420177096"><ele>136.0</ele><time>2026-03-29T09:23:58.999Z</time></trkpt><trkpt lat="45.47475450228983" lon="9.002447214863963"><ele>136.0</ele><time>2026-03-29T09:23:59.999Z</time></trkpt><trkpt lat="45.47467268364029" lon="9.002476871990389"><ele>136.0</ele><time>2026-03-29T09:24:00.999Z</time></trkpt><trkpt lat="45.474601234661684" lon="9.00250734239457"><ele>136.0</ele><time>2026-03-29T09:24:01.999Z</time></trkpt><trkpt lat="45.47450309671448" lon="9.00249837978225"><ele>136.0</ele><time>2026-03-29T09:24:03.999Z</time></trkpt><trkpt lat="45.474500400680874" lon="9.00231986546628"><ele>136.0</ele><time>2026-03-29T09:24:04.999Z</time></trkpt><trkpt lat="45.474476462643715" lon="9.002211962171906"><ele>136.0</ele><time>2026-03-29T09:24:05.999Z</time></trkpt><trkpt lat="45.47444855188653" lon="9.002087727649236"><ele>136.0</ele><time>2026-03-29T09:24:06.999Z</time></trkpt><trkpt lat="45.47441457236365" lon="9.00197819240889"><ele>136.0</ele><time>2026-03-29T09:24:07.999Z</time></trkpt><trkpt lat="45.47438509490349" lon="9.001851254648882"><ele>136.0</ele><time>2026-03-29T09:24:08.999Z</time></trkpt><trkpt lat="45.47435343782059" lon="9.001720624685154"><ele>136.0</ele><time>2026-03-29T09:24:09.999Z</time></trkpt><trkpt lat="45.47432022325389" lon="9.001574923736364"><ele>136.0</ele><time>2026-03-29T09:24:10.999Z</time></trkpt><trkpt lat="45.474288978441635" lon="9.00143638498194"><ele>136.0</ele><time>2026-03-29T09:24:11.999Z</time></trkpt><trkpt lat="45.474256564235965" lon="9.001292468338548"><ele>136.0</ele><time>2026-03-29T09:24:12.999Z</time></trkpt><trkpt lat="45.474226250219566" lon="9.00114002741448"><ele>136.0</ele><time>2026-03-29T09:24:13.999Z</time></trkpt><trkpt lat="45.474193707914885" lon="9.000980556948114"><ele>136.0</ele><time>2026-03-29T09:24:14.999Z</time></trkpt><trkpt lat="45.47414962768733" lon="9.0008182663095"><ele>136.0</ele><time>2026-03-29T09:24:15.999Z</time></trkpt><trkpt lat="45.47411461810898" lon="9.000668704661214"><ele>136.0</ele><time>2026-03-29T09:24:16.999Z</time></trkpt><trkpt lat="45.47408224278921" lon="9.000515462638718"><ele>136.0</ele><time>2026-03-29T09:24:17.999Z</time></trkpt><trkpt lat="45.47405006122553" lon="9.000360509639044"><ele>136.0</ele><time>2026-03-29T09:24:18.999Z</time></trkpt><trkpt lat="45.47401726447877" lon="9.000219631431582"><ele>136.0</ele><time>2026-03-29T09:24:19.999Z</time></trkpt><trkpt lat="45.47398769592304" lon="9.000089013022558"><ele>136.0</ele><time>2026-03-29T09:24:20.999Z</time></trkpt><trkpt lat="45.473961501196136" lon="8.99996879017678"><ele>136.0</ele><time>2026-03-29T09:24:21.999Z</time></trkpt><trkpt lat="45.4739387465941" lon="8.999853516265045"><ele>136.0</ele><time>2026-03-29T09:24:22.999Z</time></trkpt><trkpt lat="45.47391128322975" lon="8.999751394142278"><ele>136.0</ele><time>2026-03-29T09:24:23.999Z</time></trkpt><trkpt lat="45.473897710636095" lon="8.99963685505264"><ele>136.0</ele><time>2026-03-29T09:24:24.999Z</time></trkpt><trkpt lat="45.47386460288228" lon="8.999534779746995"><ele>136.0</ele><time>2026-03-29T09:24:25.999Z</time></trkpt><trkpt lat="45.473843815280816" lon="8.99941937556912"><ele>136.0</ele><time>2026-03-29T09:24:26.999Z</time></trkpt><trkpt lat="45.47381740261932" lon="8.999286668566784"><ele>136.0</ele><time>2026-03-29T09:24:27.999Z</time></trkpt><trkpt lat="45.47378935045735" lon="8.999153278941701"><ele>136.0</ele><time>2026-03-29T09:24:28.999Z</time></trkpt><trkpt lat="45.473765066137474" lon="8.999027248769668"><ele>136.0</ele><time>2026-03-29T09:24:29.999Z</time></trkpt><trkpt lat="45.47373914588164" lon="8.998897203491019"><ele>136.0</ele><time>2026-03-29T09:24:30.999Z</time></trkpt><trkpt lat="45.47371021556241" lon="8.998772938194092"><ele>136.0</ele><time>2026-03-29T09:24:31.999Z</time></trkpt><trkpt lat="45.47368855315885" lon="8.99865855820567"><ele>136.0</ele><time>2026-03-29T09:24:32.999Z</time></trkpt><trkpt lat="45.47366426268244" lon="8.998556377768903"><ele>136.0</ele><time>2026-03-29T09:24:33.999Z</time></trkpt><trkpt lat="45.47363805479063" lon="8.998440434089028"><ele>136.0</ele><time>2026-03-29T09:24:34.999Z</time></trkpt><trkpt lat="45.473613089782425" lon="8.99831817750517"><ele>136.0</ele><time>2026-03-29T09:24:36Z</time></trkpt><trkpt lat="45.47358445734694" lon="8.998190301717633"><ele>136.0</ele><time>2026-03-29T09:24:37Z</time></trkpt><trkpt lat="45.47355613291622" lon="8.998066846049193"><ele>136.16666666666669</ele><time>2026-03-29T09:24:38Z</time></trkpt><trkpt lat="45.47352887160513" lon="8.997943004389711"><ele>136.33333333333334</ele><time>2026-03-29T09:24:39Z</time></trkpt><trkpt lat="45.47351072961992" lon="8.997829085469581"><ele>136.5</ele><time>2026-03-29T09:24:40Z</time></trkpt><trkpt lat="45.47348824726791" lon="8.997725770341882"><ele>136.66666666666666</ele><time>2026-03-29T09:24:41Z</time></trkpt><trkpt lat="45.4734717780379" lon="8.997635406932908"><ele>136.83333333333331</ele><time>2026-03-29T09:24:42Z</time></trkpt><trkpt lat="45.47345161045234" lon="8.997546856419927"><ele>137.0</ele><time>2026-03-29T09:24:43Z</time></trkpt><trkpt lat="45.47341928533208" lon="8.997403895882334"><ele>136.66666666666666</ele><time>2026-03-29T09:24:45Z</time></trkpt><trkpt lat="45.47338946277755" lon="8.997263787441646"><ele>136.33333333333331</ele><time>2026-03-29T09:24:47Z</time></trkpt><trkpt lat="45.47332539463919" lon="8.997136360241186"><ele>136.0</ele><time>2026-03-29T09:24:49Z</time></trkpt><trkpt lat="45.47325780892719" lon="8.997120360449017"><ele>135.66666666666666</ele><time>2026-03-29T09:24:50Z</time></trkpt><trkpt lat="45.47318723364225" lon="8.997155906452157"><ele>135.33333333333334</ele><time>2026-03-29T09:24:51Z</time></trkpt><trkpt lat="45.47311494637199" lon="8.997104627529586"><ele>135.0</ele><time>2026-03-29T09:24:52Z</time></trkpt><trkpt lat="45.4730408427394" lon="8.997060982812778"><ele>135.0</ele><time>2026-03-29T09:24:53Z</time></trkpt><trkpt lat="45.47296658619639" lon="8.996992936673925"><ele>135.0</ele><time>2026-03-29T09:24:54Z</time></trkpt><trkpt lat="45.47289806883928" lon="8.996920335473918"><ele>135.0</ele><time>2026-03-29T09:24:55Z</time></trkpt><trkpt lat="45.47283043261475" lon="8.996848708472143"><ele>135.0</ele><time>2026-03-29T09:24:56Z</time></trkpt><trkpt lat="45.4727607084411" lon="8.996770197659876"><ele>135.0</ele><time>2026-03-29T09:24:57Z</time></trkpt><trkpt lat="45.47269227967143" lon="8.996702047813745"><ele>135.0</ele><time>2026-03-29T09:24:58Z</time></trkpt><trkpt lat="45.47262146829971" lon="8.996643198618274"><ele>134.83333333333334</ele><time>2026-03-29T09:24:59Z</time></trkpt><trkpt lat="45.47254816956526" lon="8.99658843798878"><ele>134.66666666666666</ele><time>2026-03-29T09:25:00Z</time></trkpt><trkpt lat="45.47247344674897" lon="8.996532967057707"><ele>134.5</ele><time>2026-03-29T09:25:01Z</time></trkpt><trkpt lat="45.47239882302699" lon="8.996470487583725"><ele>134.33333333333331</ele><time>2026-03-29T09:25:02Z</time></trkpt><trkpt lat="45.472329710783825" lon="8.996385396414437"><ele>134.16666666666666</ele><time>2026-03-29T09:25:03Z</time></trkpt><trkpt lat="45.47226343236696" lon="8.996273532533056"><ele>134.0</ele><time>2026-03-29T09:25:04Z</time></trkpt><trkpt lat="45.47220809141618" lon="8.996147527673376"><ele>134.0</ele><time>2026-03-29T09:25:05Z</time></trkpt><trkpt lat="45.472159095517114" lon="8.99602871684751"><ele>134.0</ele><time>2026-03-29T09:25:06Z</time></trkpt><trkpt lat="45.47211421049337" lon="8.995923965502834"><ele>134.0</ele><time>2026-03-29T09:25:07Z</time></trkpt><trkpt lat="45.472071255631434" lon="8.995828423457686"><ele>134.0</ele><time>2026-03-29T09:25:08Z</time></trkpt><trkpt lat="45.472035903977336" lon="8.995731344725163"><ele>134.0</ele><time>2026-03-29T09:25:09Z</time></trkpt><trkpt lat="45.47202443533502" lon="8.995637859558975"><ele>134.0</ele><time>2026-03-29T09:25:10Z</time></trkpt><trkpt lat="45.47202511352535" lon="8.995543039292732"><ele>134.5</ele><time>2026-03-29T09:25:11Z</time></trkpt><trkpt lat="45.47198894453304" lon="8.99546618834085"><ele>135.0</ele><time>2026-03-29T09:25:12Z</time></trkpt><trkpt lat="45.47191930119423" lon="8.995409134682843"><ele>135.5</ele><time>2026-03-29T09:25:13Z</time></trkpt><trkpt lat="45.4718499971091" lon="8.995351676775368"><ele>136.0</ele><time>2026-03-29T09:25:14Z</time></trkpt><trkpt lat="45.47180387275373" lon="8.995260329911636"><ele>136.5</ele><time>2026-03-29T09:25:15Z</time></trkpt><trkpt lat="45.47174953498263" lon="8.995156835005265"><ele>137.0</ele><time>2026-03-29T09:25:16Z</time></trkpt><trkpt lat="45.47169782047501" lon="8.995055043553936"><ele>136.79999999999998</ele><time>2026-03-29T09:25:17Z</time></trkpt><trkpt lat="45.47163265766639" lon="8.994955965868348"><ele>136.6</ele><time>2026-03-29T09:25:18Z</time></trkpt><trkpt lat="45.471575725589915" lon="8.994831770284769"><ele>136.39999999999998</ele><time>2026-03-29T09:25:19Z</time></trkpt><trkpt lat="45.47151724004436" lon="8.99470330373185"><ele>136.2</ele><time>2026-03-29T09:25:20Z</time></trkpt><trkpt lat="45.47146856282269" lon="8.994579305454614"><ele>136.0</ele><time>2026-03-29T09:25:21Z</time></trkpt><trkpt lat="45.47142282042164" lon="8.994479403229528"><ele>136.0</ele><time>2026-03-29T09:25:22Z</time></trkpt><trkpt lat="45.47139449875444" lon="8.99436794553404"><ele>136.0</ele><time>2026-03-29T09:25:23Z</time></trkpt><trkpt lat="45.47133325282097" lon="8.99428610736922"><ele>136.0</ele><time>2026-03-29T09:25:24Z</time></trkpt><trkpt lat="45.47127477930275" lon="8.994214829452067"><ele>136.0</ele><time>2026-03-29T09:25:25Z</time></trkpt><trkpt lat="45.471196802728535" lon="8.99418533165493"><ele>136.0</ele><time>2026-03-29T09:25:26Z</time></trkpt><trkpt lat="45.471108525853545" lon="8.994168036381481"><ele>136.0</ele><time>2026-03-29T09:25:27Z</time></trkpt><trkpt lat="45.471013483561" lon="8.994218709250651"><ele>136.0</ele><time>2026-03-29T09:25:28Z</time></trkpt><trkpt lat="45.4709305366869" lon="8.994279307380111"><ele>136.0</ele><time>2026-03-29T09:25:29Z</time></trkpt><trkpt lat="45.47083510940467" lon="8.994273393367694"><ele>136.0</ele><time>2026-03-29T09:25:30Z</time></trkpt><trkpt lat="45.470750657652395" lon="8.994240595637514"><ele>136.0</ele><time>2026-03-29T09:25:31Z</time></trkpt><trkpt lat="45.47066562829241" lon="8.994189502629977"><ele>136.0</ele><time>2026-03-29T09:25:32Z</time></trkpt><trkpt lat="45.47058022443329" lon="8.994114610027312"><ele>136.0</ele><time>2026-03-29T09:25:33Z</time></trkpt><trkpt lat="45.4705027460086" lon="8.994006306611446"><ele>136.0</ele><time>2026-03-29T09:25:34Z</time></trkpt><trkpt lat="45.47041264971363" lon="8.993922616848279"><ele>136.0</ele><time>2026-03-29T09:25:35Z</time></trkpt><trkpt lat="45.47031555259953" lon="8.99382079374081"><ele>136.0</ele><time>2026-03-29T09:25:36Z</time></trkpt><trkpt lat="45.47022181986491" lon="8.993730319184799"><ele>135.25</ele><time>2026-03-29T09:25:37Z</time></trkpt><trkpt lat="45.470123258489615" lon="8.993625031534595"><ele>134.5</ele><time>2026-03-29T09:25:38Z</time></trkpt><trkpt lat="45.47001516521662" lon="8.99352192248103"><ele>133.75</ele><time>2026-03-29T09:25:39Z</time></trkpt><trkpt lat="45.4698919611075" lon="8.993429208054112"><ele>133.0</ele><time>2026-03-29T09:25:40Z</time></trkpt><trkpt lat="45.46976375098254" lon="8.993316593166101"><ele>132.66666666666669</ele><time>2026-03-29T09:25:41Z</time></trkpt><trkpt lat="45.46963211043546" lon="8.993178562621821"><ele>132.33333333333334</ele><time>2026-03-29T09:25:42Z</time></trkpt><trkpt lat="45.4695087160508" lon="8.993025513990146"><ele>132.0</ele><time>2026-03-29T09:25:43Z</time></trkpt><trkpt lat="45.46940588172092" lon="8.992872066621466"><ele>132.5</ele><time>2026-03-29T09:25:44Z</time></trkpt><trkpt lat="45.469319404484544" lon="8.99271510904753"><ele>133.0</ele><time>2026-03-29T09:25:45Z</time></trkpt><trkpt lat="45.46923600761741" lon="8.992551946121429"><ele>133.5</ele><time>2026-03-29T09:25:45.999Z</time></trkpt><trkpt lat="45.46916750965325" lon="8.992397450779691"><ele>134.0</ele><time>2026-03-29T09:25:46.999Z</time></trkpt><trkpt lat="45.46910127543667" lon="8.992250521082756"><ele>134.0</ele><time>2026-03-29T09:25:47.999Z</time></trkpt><trkpt lat="45.46902364598421" lon="8.99211212460931"><ele>134.0</ele><time>2026-03-29T09:25:48.999Z</time></trkpt><trkpt lat="45.468921794077225" lon="8.991993285038937"><ele>134.0</ele><time>2026-03-29T09:25:49.999Z</time></trkpt><trkpt lat="45.46879586688596" lon="8.99189990347567"><ele>134.0</ele><time>2026-03-29T09:25:50.999Z</time></trkpt><trkpt lat="45.46866325886636" lon="8.99180651265619"><ele>134.25</ele><time>2026-03-29T09:25:51.999Z</time></trkpt><trkpt lat="45.46853953979369" lon="8.99169323294285"><ele>134.5</ele><time>2026-03-29T09:25:52.999Z</time></trkpt><trkpt lat="45.46843092157952" lon="8.991563196521362"><ele>134.75</ele><time>2026-03-29T09:25:53.999Z</time></trkpt><trkpt lat="45.46832755666203" lon="8.991425646356973"><ele>135.0</ele><time>2026-03-29T09:25:54.999Z</time></trkpt><trkpt lat="45.46821925647992" lon="8.991290650234683"><ele>135.0</ele><time>2026-03-29T09:25:55.999Z</time></trkpt><trkpt lat="45.468108285132324" lon="8.99115631036173"><ele>135.0</ele><time>2026-03-29T09:25:56.999Z</time></trkpt><trkpt lat="45.4679872657431" lon="8.991030918366084"><ele>135.0</ele><time>2026-03-29T09:25:57.999Z</time></trkpt><trkpt lat="45.46785657093435" lon="8.990920897623175"><ele>135.0</ele><time>2026-03-29T09:25:58.999Z</time></trkpt><trkpt lat="45.46771355034345" lon="8.990821390578608"><ele>134.75</ele><time>2026-03-29T09:25:59.999Z</time></trkpt><trkpt lat="45.467568886987856" lon="8.990731503763206"><ele>134.5</ele><time>2026-03-29T09:26:00.999Z</time></trkpt><trkpt lat="45.4674375445913" lon="8.990651856220461"><ele>134.25</ele><time>2026-03-29T09:26:01.999Z</time></trkpt><trkpt lat="45.46730809484153" lon="8.990549036486685"><ele>134.0</ele><time>2026-03-29T09:26:02.999Z</time></trkpt><trkpt lat="45.467182295775416" lon="8.990430155072787"><ele>133.33333333333331</ele><time>2026-03-29T09:26:03.999Z</time></trkpt><trkpt lat="45.46704290996635" lon="8.990302953127436"><ele>132.66666666666666</ele><time>2026-03-29T09:26:04.999Z</time></trkpt><trkpt lat="45.46689992844449" lon="8.990186089953262"><ele>132.0</ele><time>2026-03-29T09:26:05.999Z</time></trkpt><trkpt lat="45.46673821048889" lon="8.990078407813638"><ele>132.0</ele><time>2026-03-29T09:26:06.999Z</time></trkpt><trkpt lat="45.46656635549421" lon="8.9899774888102"><ele>132.0</ele><time>2026-03-29T09:26:07.999Z</time></trkpt><trkpt lat="45.46638288503224" lon="8.989876686490184"><ele>132.0</ele><time>2026-03-29T09:26:08.999Z</time></trkpt><trkpt lat="45.466196893590364" lon="8.98977363943515"><ele>132.0</ele><time>2026-03-29T09:26:09.999Z</time></trkpt><trkpt lat="45.46600839040102" lon="8.989667070536715"><ele>132.0</ele><time>2026-03-29T09:26:10.999Z</time></trkpt><trkpt lat="45.46581868513544" lon="8.98955772997923"><ele>132.0</ele><time>2026-03-29T09:26:11.999Z</time></trkpt><trkpt lat="45.46562552122843" lon="8.989441789168323"><ele>131.33333333333334</ele><time>2026-03-29T09:26:12.999Z</time></trkpt><trkpt lat="45.46543406175036" lon="8.989328802528071"><ele>130.66666666666669</ele><time>2026-03-29T09:26:13.999Z</time></trkpt><trkpt lat="45.46524491238572" lon="8.989217571790341"><ele>130.0</ele><time>2026-03-29T09:26:14.999Z</time></trkpt><trkpt lat="45.46504863379837" lon="8.989114077283741"><ele>130.0</ele><time>2026-03-29T09:26:15.999Z</time></trkpt><trkpt lat="45.46485141023879" lon="8.989024047623932"><ele>130.0</ele><time>2026-03-29T09:26:16.999Z</time></trkpt><trkpt lat="45.46466129419561" lon="8.98895421263621"><ele>130.0</ele><time>2026-03-29T09:26:17.999Z</time></trkpt><trkpt lat="45.46447185257533" lon="8.988885716961814"><ele>130.33333333333334</ele><time>2026-03-29T09:26:18.999Z</time></trkpt><trkpt lat="45.46428468367861" lon="8.98881748250049"><ele>130.66666666666666</ele><time>2026-03-29T09:26:19.999Z</time></trkpt><trkpt lat="45.464092649866636" lon="8.988745877868178"><ele>131.0</ele><time>2026-03-29T09:26:20.999Z</time></trkpt><trkpt lat="45.46389976316977" lon="8.98869638329755"><ele>131.33333333333331</ele><time>2026-03-29T09:26:21.999Z</time></trkpt><trkpt lat="45.46372347366186" lon="8.988678594056703"><ele>131.66666666666666</ele><time>2026-03-29T09:26:22.999Z</time></trkpt><trkpt lat="45.4635595298589" lon="8.988669993927802"><ele>132.0</ele><time>2026-03-29T09:26:23.999Z</time></trkpt><trkpt lat="45.46340965463689" lon="8.988661707015728"><ele>132.0</ele><time>2026-03-29T09:26:24.999Z</time></trkpt><trkpt lat="45.463277400803406" lon="8.98865171934353"><ele>132.0</ele><time>2026-03-29T09:26:25.999Z</time></trkpt><trkpt lat="45.46314899857177" lon="8.988632114833715"><ele>132.0</ele><time>2026-03-29T09:26:26.999Z</time></trkpt><trkpt lat="45.463025563877856" lon="8.988591414534921"><ele>132.0</ele><time>2026-03-29T09:26:27.999Z</time></trkpt><trkpt lat="45.462904313825845" lon="8.988518168004957"><ele>132.25</ele><time>2026-03-29T09:26:28.999Z</time></trkpt><trkpt lat="45.46277830814829" lon="8.98843269267241"><ele>132.5</ele><time>2026-03-29T09:26:29.999Z</time></trkpt><trkpt lat="45.46263329729657" lon="8.988379088713671"><ele>132.75</ele><time>2026-03-29T09:26:30.999Z</time></trkpt><trkpt lat="45.46248453595668" lon="8.988321082174592"><ele>133.0</ele><time>2026-03-29T09:26:31.999Z</time></trkpt><trkpt lat="45.46234124591521" lon="8.98824066404378"><ele>133.0</ele><time>2026-03-29T09:26:32.999Z</time></trkpt><trkpt lat="45.462208649526694" lon="8.988122552278174"><ele>133.0</ele><time>2026-03-29T09:26:33.999Z</time></trkpt><trkpt lat="45.46207800729945" lon="8.987967608967674"><ele>133.0</ele><time>2026-03-29T09:26:34.999Z</time></trkpt><trkpt lat="45.46195493047311" lon="8.98777580012652"><ele>132.0</ele><time>2026-03-29T09:26:35.999Z</time></trkpt><trkpt lat="45.46185099090378" lon="8.98756856977983"><ele>131.0</ele><time>2026-03-29T09:26:36.999Z</time></trkpt><trkpt lat="45.46177094351885" lon="8.987338150088519"><ele>130.0</ele><time>2026-03-29T09:26:37.999Z</time></trkpt><trkpt lat="45.46167417448012" lon="8.987121239344708"><ele>129.66666666666669</ele><time>2026-03-29T09:26:38.999Z</time></trkpt><trkpt lat="45.461592113890426" lon="8.986904509447784"><ele>129.33333333333334</ele><time>2026-03-29T09:26:39.999Z</time></trkpt><trkpt lat="45.46152100026403" lon="8.986674915723372"><ele>129.0</ele><time>2026-03-29T09:26:40.999Z</time></trkpt><trkpt lat="45.46142633311774" lon="8.986456940209768"><ele>129.66666666666666</ele><time>2026-03-29T09:26:42Z</time></trkpt><trkpt lat="45.46131407477375" lon="8.98626388685951"><ele>130.33333333333331</ele><time>2026-03-29T09:26:43Z</time></trkpt><trkpt lat="45.461201631565096" lon="8.986098630127293"><ele>131.0</ele><time>2026-03-29T09:26:44Z</time></trkpt><trkpt lat="45.46108939626011" lon="8.985964001323586"><ele>131.0</ele><time>2026-03-29T09:26:45Z</time></trkpt><trkpt lat="45.46098604190373" lon="8.985813579003317"><ele>131.0</ele><time>2026-03-29T09:26:46Z</time></trkpt><trkpt lat="45.46088914213441" lon="8.985673737202262"><ele>131.0</ele><time>2026-03-29T09:26:47Z</time></trkpt><trkpt lat="45.46079883366425" lon="8.985546291316284"><ele>131.0</ele><time>2026-03-29T09:26:48Z</time></trkpt><trkpt lat="45.460706657289855" lon="8.985440525116624"><ele>131.0</ele><time>2026-03-29T09:26:49Z</time></trkpt><trkpt lat="45.46060828092249" lon="8.985359825175534"><ele>131.0</ele><time>2026-03-29T09:26:50Z</time></trkpt><trkpt lat="45.46049975648889" lon="8.985310576227798"><ele>131.0</ele><time>2026-03-29T09:26:51Z</time></trkpt><trkpt lat="45.46038445195408" lon="8.985297557124044"><ele>131.0</ele><time>2026-03-29T09:26:52Z</time></trkpt><trkpt lat="45.46026451136579" lon="8.985318588485182"><ele>130.75</ele><time>2026-03-29T09:26:53Z</time></trkpt><trkpt lat="45.460149312087786" lon="8.985366927727176"><ele>130.5</ele><time>2026-03-29T09:26:54Z</time></trkpt><trkpt lat="45.46003484925523" lon="8.985429237780084"><ele>130.25</ele><time>2026-03-29T09:26:55Z</time></trkpt><trkpt lat="45.4599253756688" lon="8.985489862326366"><ele>130.0</ele><time>2026-03-29T09:26:56Z</time></trkpt><trkpt lat="45.45983102139186" lon="8.985539103215103"><ele>130.0</ele><time>2026-03-29T09:26:57Z</time></trkpt><trkpt lat="45.4597425088403" lon="8.98555326751266"><ele>130.0</ele><time>2026-03-29T09:26:58Z</time></trkpt><trkpt lat="45.45965314319254" lon="8.98550972163447"><ele>130.0</ele><time>2026-03-29T09:26:59Z</time></trkpt><trkpt lat="45.459582007280744" lon="8.985396059156553"><ele>130.0</ele><time>2026-03-29T09:27:00Z</time></trkpt><trkpt lat="45.45950001001722" lon="8.98527974866264"><ele>130.0</ele><time>2026-03-29T09:27:01Z</time></trkpt><trkpt lat="45.459422216059586" lon="8.985130635976853"><ele>130.2</ele><time>2026-03-29T09:27:02Z</time></trkpt><trkpt lat="45.45934487748047" lon="8.98499283723978"><ele>130.4</ele><time>2026-03-29T09:27:03Z</time></trkpt><trkpt lat="45.45928128673794" lon="8.984864934836523"><ele>130.6</ele><time>2026-03-29T09:27:04Z</time></trkpt><trkpt lat="45.45921865846535" lon="8.984760357899823"><ele>130.8</ele><time>2026-03-29T09:27:05Z</time></trkpt><trkpt lat="45.4591411535991" lon="8.98470289605484"><ele>131.0</ele><time>2026-03-29T09:27:06Z</time></trkpt><trkpt lat="45.45905042560197" lon="8.984686634884245"><ele>131.0</ele><time>2026-03-29T09:27:07Z</time></trkpt><trkpt lat="45.45894173265982" lon="8.98470454368499"><ele>131.0</ele><time>2026-03-29T09:27:08Z</time></trkpt><trkpt lat="45.45882639354414" lon="8.984734872137139"><ele>131.0</ele><time>2026-03-29T09:27:09Z</time></trkpt><trkpt lat="45.45870353016526" lon="8.984757579262878"><ele>131.0</ele><time>2026-03-29T09:27:10Z</time></trkpt><trkpt lat="45.45856156836292" lon="8.984779653533105"><ele>130.33333333333331</ele><time>2026-03-29T09:27:11Z</time></trkpt><trkpt lat="45.45841050707588" lon="8.984802067933362"><ele>129.66666666666666</ele><time>2026-03-29T09:27:12Z</time></trkpt><trkpt lat="45.458254938705544" lon="8.98482388955285"><ele>129.0</ele><time>2026-03-29T09:27:13Z</time></trkpt><trkpt lat="45.458094650656115" lon="8.984849338250495"><ele>129.0</ele><time>2026-03-29T09:27:14Z</time></trkpt><trkpt lat="45.457926018369314" lon="8.98487701434251"><ele>129.0</ele><time>2026-03-29T09:27:15Z</time></trkpt><trkpt lat="45.45774792490183" lon="8.984908653520568"><ele>129.0</ele><time>2026-03-29T09:27:16Z</time></trkpt><trkpt lat="45.45757421362668" lon="8.98493877051015"><ele>129.0</ele><time>2026-03-29T09:27:17Z</time></trkpt><trkpt lat="45.45739879734959" lon="8.984965806913303"><ele>129.0</ele><time>2026-03-29T09:27:18Z</time></trkpt><trkpt lat="45.457222247185136" lon="8.984992276618778"><ele>129.0</ele><time>2026-03-29T09:27:19Z</time></trkpt><trkpt lat="45.457036809910264" lon="8.985022888600382"><ele>130.0</ele><time>2026-03-29T09:27:20Z</time></trkpt><trkpt lat="45.456845998783585" lon="8.98505899108916"><ele>131.0</ele><time>2026-03-29T09:27:21Z</time></trkpt><trkpt lat="45.45665914522619" lon="8.98510447406552"><ele>132.0</ele><time>2026-03-29T09:27:22Z</time></trkpt><trkpt lat="45.45647530440675" lon="8.985162159611912"><ele>132.0</ele><time>2026-03-29T09:27:23Z</time></trkpt><trkpt lat="45.45629617379951" lon="8.985226189759159"><ele>132.0</ele><time>2026-03-29T09:27:24Z</time></trkpt><trkpt lat="45.45612255400315" lon="8.985281546724908"><ele>132.0</ele><time>2026-03-29T09:27:25Z</time></trkpt><trkpt lat="45.45595543291669" lon="8.985334545599573"><ele>132.33333333333334</ele><time>2026-03-29T09:27:26Z</time></trkpt><trkpt lat="45.455787665593824" lon="8.985386403975763"><ele>132.66666666666669</ele><time>2026-03-29T09:27:27Z</time></trkpt><trkpt lat="45.455621742513536" lon="8.985430379631037"><ele>133.0</ele><time>2026-03-29T09:27:28Z</time></trkpt><trkpt lat="45.45545172023095" lon="8.985477508579496"><ele>133.0</ele><time>2026-03-29T09:27:29Z</time></trkpt><trkpt lat="45.45527453301257" lon="8.985527229027653"><ele>133.0</ele><time>2026-03-29T09:27:30Z</time></trkpt><trkpt lat="45.45509033345752" lon="8.985578347201823"><ele>133.0</ele><time>2026-03-29T09:27:31Z</time></trkpt><trkpt lat="45.45489381064643" lon="8.985635564860681"><ele>133.0</ele><time>2026-03-29T09:27:32Z</time></trkpt><trkpt lat="45.45470446814675" lon="8.985695638742111"><ele>133.0</ele><time>2026-03-29T09:27:33Z</time></trkpt><trkpt lat="45.45452926372246" lon="8.985747030770524"><ele>133.0</ele><time>2026-03-29T09:27:34Z</time></trkpt><trkpt lat="45.45436229843957" lon="8.985795005848814"><ele>132.33333333333334</ele><time>2026-03-29T09:27:35Z</time></trkpt><trkpt lat="45.45420637681097" lon="8.985839595982773"><ele>131.66666666666666</ele><time>2026-03-29T09:27:36Z</time></trkpt><trkpt lat="45.45405307365312" lon="8.985880010566158"><ele>131.0</ele><time>2026-03-29T09:27:37Z</time></trkpt><trkpt lat="45.45388934510541" lon="8.985884278058203"><ele>129.66666666666666</ele><time>2026-03-29T09:27:38Z</time></trkpt><trkpt lat="45.45371983926235" lon="8.985836932738055"><ele>128.33333333333334</ele><time>2026-03-29T09:27:39Z</time></trkpt><trkpt lat="45.45354311149297" lon="8.985776772374347"><ele>127.0</ele><time>2026-03-29T09:27:40Z</time></trkpt><trkpt lat="45.45335120858265" lon="8.985752816508615"><ele>127.0</ele><time>2026-03-29T09:27:41Z</time></trkpt><trkpt lat="45.45314173147864" lon="8.985778527229412"><ele>127.0</ele><time>2026-03-29T09:27:42Z</time></trkpt><trkpt lat="45.45292667566184" lon="8.98585277158341"><ele>127.0</ele><time>2026-03-29T09:27:43Z</time></trkpt><trkpt lat="45.45269726685721" lon="8.985929940430292"><ele>126.66666666666667</ele><time>2026-03-29T09:27:44Z</time></trkpt><trkpt lat="45.4524845393371" lon="8.986015776847989"><ele>126.33333333333334</ele><time>2026-03-29T09:27:45Z</time></trkpt><trkpt lat="45.45228575157781" lon="8.98609958774266"><ele>126.0</ele><time>2026-03-29T09:27:46Z</time></trkpt><trkpt lat="45.45209954797284" lon="8.986175372452534"><ele>126.0</ele><time>2026-03-29T09:27:46.999Z</time></trkpt><trkpt lat="45.45192670727261" lon="8.98623810812013"><ele>126.0</ele><time>2026-03-29T09:27:47.999Z</time></trkpt><trkpt lat="45.451775389050546" lon="8.986286072589394"><ele>126.0</ele><time>2026-03-29T09:27:48.999Z</time></trkpt><trkpt lat="45.45164528241261" lon="8.986325621467158"><ele>126.0</ele><time>2026-03-29T09:27:49.999Z</time></trkpt><trkpt lat="45.45152322857479" lon="8.986358259580872"><ele>126.0</ele><time>2026-03-29T09:27:50.999Z</time></trkpt><trkpt lat="45.45140294223035" lon="8.98639350697455"><ele>126.0</ele><time>2026-03-29T09:27:51.999Z</time></trkpt><trkpt lat="45.45130043176654" lon="8.98642407970976"><ele>126.0</ele><time>2026-03-29T09:27:52.999Z</time></trkpt><trkpt lat="45.451210988075566" lon="8.986446265470354"><ele>126.0</ele><time>2026-03-29T09:27:53.999Z</time></trkpt><trkpt lat="45.451128851412705" lon="8.986470545048359"><ele>126.16666666666667</ele><time>2026-03-29T09:27:54.999Z</time></trkpt><trkpt lat="45.45105519968187" lon="8.986490015346805"><ele>126.33333333333334</ele><time>2026-03-29T09:27:55.999Z</time></trkpt><trkpt lat="45.45098099451001" lon="8.986505270544056"><ele>126.5</ele><time>2026-03-29T09:27:56.999Z</time></trkpt><trkpt lat="45.45090219805494" lon="8.986519217769354"><ele>126.66666666666667</ele><time>2026-03-29T09:27:57.999Z</time></trkpt><trkpt lat="45.45082552219788" lon="8.986530118176729"><ele>126.83333333333334</ele><time>2026-03-29T09:27:58.999Z</time></trkpt><trkpt lat="45.45075816079291" lon="8.986530777089936"><ele>127.0</ele><time>2026-03-29T09:27:59.999Z</time></trkpt><trkpt lat="45.45064673141684" lon="8.986513793957975"><ele>127.00000000000001</ele><time>2026-03-29T09:28:01.999Z</time></trkpt><trkpt lat="45.450558269122844" lon="8.986454241277984"><ele>127.0</ele><time>2026-03-29T09:28:03.999Z</time></trkpt><trkpt lat="45.45046743771541" lon="8.986341203351488"><ele>127.0</ele><time>2026-03-29T09:28:05.999Z</time></trkpt><trkpt lat="45.4504383264603" lon="8.986237858298907"><ele>127.0</ele><time>2026-03-29T09:28:06.999Z</time></trkpt><trkpt lat="45.450408066215665" lon="8.986149854243422"><ele>127.00000000000001</ele><time>2026-03-29T09:28:07.999Z</time></trkpt><trkpt lat="45.450381395607415" lon="8.986058021966787"><ele>127.0</ele><time>2026-03-29T09:28:08.999Z</time></trkpt><trkpt lat="45.45035270954817" lon="8.985963229396718"><ele>127.0</ele><time>2026-03-29T09:28:09.999Z</time></trkpt><trkpt lat="45.45030903028779" lon="8.985882197498352"><ele>127.0</ele><time>2026-03-29T09:28:10.999Z</time></trkpt><trkpt lat="45.45028185275786" lon="8.985794184837566"><ele>127.0</ele><time>2026-03-29T09:28:11.999Z</time></trkpt><trkpt lat="45.450246597932484" lon="8.985709825496118"><ele>127.0</ele><time>2026-03-29T09:28:12.999Z</time></trkpt><trkpt lat="45.450194735987786" lon="8.985643970290523"><ele>127.0</ele><time>2026-03-29T09:28:13.999Z</time></trkpt><trkpt lat="45.4501255093043" lon="8.985611969255418"><ele>127.0</ele><time>2026-03-29T09:28:14.999Z</time></trkpt><trkpt lat="45.45005291662753" lon="8.985599640105272"><ele>127.0</ele><time>2026-03-29T09:28:15.999Z</time></trkpt><trkpt lat="45.44997623874897" lon="8.985623485348679"><ele>127.00000000000001</ele><time>2026-03-29T09:28:16.999Z</time></trkpt><trkpt lat="45.4499020159439" lon="8.985654275878558"><ele>127.0</ele><time>2026-03-29T09:28:17.999Z</time></trkpt><trkpt lat="45.449825969713245" lon="8.98568863934514"><ele>127.0</ele><time>2026-03-29T09:28:18.999Z</time></trkpt><trkpt lat="45.44975196449065" lon="8.985728666254014"><ele>127.0</ele><time>2026-03-29T09:28:19.999Z</time></trkpt><trkpt lat="45.4496716961395" lon="8.985770469920672"><ele>127.00000000000001</ele><time>2026-03-29T09:28:20.999Z</time></trkpt><trkpt lat="45.4495918750004" lon="8.98581665574418"><ele>127.0</ele><time>2026-03-29T09:28:21.999Z</time></trkpt><trkpt lat="45.44950730148002" lon="8.985864575959498"><ele>126.8</ele><time>2026-03-29T09:28:22.999Z</time></trkpt><trkpt lat="45.44942014452205" lon="8.985917465897854"><ele>126.6</ele><time>2026-03-29T09:28:23.999Z</time></trkpt><trkpt lat="45.44932865931426" lon="8.985978107117138"><ele>126.39999999999999</ele><time>2026-03-29T09:28:24.999Z</time></trkpt><trkpt lat="45.44923667756653" lon="8.986032932610325"><ele>126.19999999999999</ele><time>2026-03-29T09:28:25.999Z</time></trkpt><trkpt lat="45.4491479584026" lon="8.98608163013895"><ele>126.0</ele><time>2026-03-29T09:28:26.999Z</time></trkpt><trkpt lat="45.449056330427574" lon="8.986134672304711"><ele>126.0</ele><time>2026-03-29T09:28:27.999Z</time></trkpt><trkpt lat="45.44897560081858" lon="8.986185856489287"><ele>126.0</ele><time>2026-03-29T09:28:28.999Z</time></trkpt><trkpt lat="45.44890288823877" lon="8.986237442295767"><ele>126.0</ele><time>2026-03-29T09:28:29.999Z</time></trkpt><trkpt lat="45.44883066335003" lon="8.986288090142164"><ele>126.0</ele><time>2026-03-29T09:28:30.999Z</time></trkpt><trkpt lat="45.44874964400686" lon="8.986332300352224"><ele>126.0</ele><time>2026-03-29T09:28:31.999Z</time></trkpt><trkpt lat="45.44867132669949" lon="8.986364986577783"><ele>126.0</ele><time>2026-03-29T09:28:32.999Z</time></trkpt><trkpt lat="45.448581631937394" lon="8.986383276429459"><ele>126.0</ele><time>2026-03-29T09:28:33.999Z</time></trkpt><trkpt lat="45.44848312661449" lon="8.986378897611123"><ele>126.0</ele><time>2026-03-29T09:28:34.999Z</time></trkpt><trkpt lat="45.44837790773307" lon="8.986348708223595"><ele>126.0</ele><time>2026-03-29T09:28:35.999Z</time></trkpt><trkpt lat="45.44829464965216" lon="8.986318433350052"><ele>126.0</ele><time>2026-03-29T09:28:36.999Z</time></trkpt><trkpt lat="45.44821548610745" lon="8.98630608922696"><ele>126.0</ele><time>2026-03-29T09:28:37.999Z</time></trkpt><trkpt lat="45.44814064801649" lon="8.986288971139254"><ele>126.0</ele><time>2026-03-29T09:28:38.999Z</time></trkpt><trkpt lat="45.448069526506444" lon="8.986278566860634"><ele>126.0</ele><time>2026-03-29T09:28:39.999Z</time></trkpt><trkpt lat="45.44800517505443" lon="8.986262454001018"><ele>126.0</ele><time>2026-03-29T09:28:40.999Z</time></trkpt><trkpt lat="45.4478846042812" lon="8.986231213163641"><ele>126.0</ele><time>2026-03-29T09:28:42.999Z</time></trkpt><trkpt lat="45.447818147733116" lon="8.986201085563495"><ele>126.0</ele><time>2026-03-29T09:28:43.999Z</time></trkpt><trkpt lat="45.447758488280364" lon="8.98614991733607"><ele>126.0</ele><time>2026-03-29T09:28:44.999Z</time></trkpt><trkpt lat="45.44769215124864" lon="8.986080610280473"><ele>126.0</ele><time>2026-03-29T09:28:45.999Z</time></trkpt><trkpt lat="45.4476517276891" lon="8.985996227937106"><ele>126.0</ele><time>2026-03-29T09:28:46.999Z</time></trkpt><trkpt lat="45.447610288324896" lon="8.98590925260412"><ele>126.0</ele><time>2026-03-29T09:28:48Z</time></trkpt><trkpt lat="45.447571847674475" lon="8.985808968362509"><ele>126.0</ele><time>2026-03-29T09:28:49Z</time></trkpt><trkpt lat="45.44753572621919" lon="8.985701412838244"><ele>126.0</ele><time>2026-03-29T09:28:50Z</time></trkpt><trkpt lat="45.447494971542255" lon="8.985587302454318"><ele>126.0</ele><time>2026-03-29T09:28:51Z</time></trkpt><trkpt lat="45.44746028201196" lon="8.985467415271177"><ele>126.0</ele><time>2026-03-29T09:28:52Z</time></trkpt><trkpt lat="45.44742860504784" lon="8.985344586164771"><ele>126.0</ele><time>2026-03-29T09:28:53Z</time></trkpt><trkpt lat="45.44740035966705" lon="8.985224501748183"><ele>126.0</ele><time>2026-03-29T09:28:54Z</time></trkpt><trkpt lat="45.44737278940922" lon="8.98511552691929"><ele>126.0</ele><time>2026-03-29T09:28:55Z</time></trkpt><trkpt lat="45.447355905536384" lon="8.98499932171066"><ele>126.0</ele><time>2026-03-29T09:28:56Z</time></trkpt><trkpt lat="45.447332269673836" lon="8.984905148844408"><ele>126.0</ele><time>2026-03-29T09:28:57Z</time></trkpt><trkpt lat="45.447279814517934" lon="8.984746158918181"><ele>126.0</ele><time>2026-03-29T09:28:59Z</time></trkpt><trkpt lat="45.44724251403438" lon="8.984576511874774"><ele>125.8</ele><time>2026-03-29T09:29:01Z</time></trkpt><trkpt lat="45.44718688972081" lon="8.984516924060594"><ele>125.6</ele><time>2026-03-29T09:29:02Z</time></trkpt><trkpt lat="45.447038356576535" lon="8.984609880264145"><ele>125.4</ele><time>2026-03-29T09:29:04Z</time></trkpt><trkpt lat="45.44697951151611" lon="8.984672564197146"><ele>125.2</ele><time>2026-03-29T09:29:05Z</time></trkpt><trkpt lat="45.44691042919384" lon="8.984727059726325"><ele>125.0</ele><time>2026-03-29T09:29:06Z</time></trkpt><trkpt lat="45.44682914959877" lon="8.984793454831175"><ele>124.99999999999999</ele><time>2026-03-29T09:29:07Z</time></trkpt><trkpt lat="45.446745532231674" lon="8.984858098749722"><ele>125.0</ele><time>2026-03-29T09:29:08Z</time></trkpt><trkpt lat="45.446668464497925" lon="8.984919272020012"><ele>125.0</ele><time>2026-03-29T09:29:09Z</time></trkpt><trkpt lat="45.4465982104388" lon="8.984971896000426"><ele>125.0</ele><time>2026-03-29T09:29:10Z</time></trkpt><trkpt lat="45.44652836421876" lon="8.985022849608907"><ele>124.99999999999999</ele><time>2026-03-29T09:29:11Z</time></trkpt><trkpt lat="45.446466885677324" lon="8.985061311880818"><ele>125.0</ele><time>2026-03-29T09:29:12Z</time></trkpt><trkpt lat="45.44640902507023" lon="8.985101414173815"><ele>125.2</ele><time>2026-03-29T09:29:13Z</time></trkpt><trkpt lat="45.44631067009874" lon="8.98516181039332"><ele>125.4</ele><time>2026-03-29T09:29:15Z</time></trkpt><trkpt lat="45.44622285518934" lon="8.985206349315593"><ele>125.6</ele><time>2026-03-29T09:29:17Z</time></trkpt><trkpt lat="45.446174548548974" lon="8.985083632362256"><ele>125.8</ele><time>2026-03-29T09:29:19Z</time></trkpt><trkpt lat="45.44614368423171" lon="8.985000660021399"><ele>126.0</ele><time>2026-03-29T09:29:20Z</time></trkpt><trkpt lat="45.4460832457679" lon="8.984842901180299"><ele>126.0</ele><time>2026-03-29T09:29:22Z</time></trkpt><trkpt lat="45.44604688979343" lon="8.984743659424169"><ele>126.0</ele><time>2026-03-29T09:29:23Z</time></trkpt><trkpt lat="45.4460109174625" lon="8.984645444760938"><ele>126.0</ele><time>2026-03-29T09:29:24Z</time></trkpt><trkpt lat="45.44597029359901" lon="8.984534530299195"><ele>126.0</ele><time>2026-03-29T09:29:25Z</time></trkpt><trkpt lat="45.445922584219126" lon="8.98442000029522"><ele>126.0</ele><time>2026-03-29T09:29:26Z</time></trkpt><trkpt lat="45.445873129354524" lon="8.984306379725956"><ele>126.0</ele><time>2026-03-29T09:29:27Z</time></trkpt><trkpt lat="45.44583022372092" lon="8.98419334912484"><ele>126.4</ele><time>2026-03-29T09:29:28Z</time></trkpt><trkpt lat="45.4458046167424" lon="8.984065390445275"><ele>126.8</ele><time>2026-03-29T09:29:29Z</time></trkpt><trkpt lat="45.445766323314444" lon="8.98394795110111"><ele>127.20000000000002</ele><time>2026-03-29T09:29:30Z</time></trkpt><trkpt lat="45.445720645008045" lon="8.983832935635794"><ele>127.60000000000001</ele><time>2026-03-29T09:29:31Z</time></trkpt><trkpt lat="45.44568818803928" lon="8.983709726250117"><ele>128.0</ele><time>2026-03-29T09:29:32Z</time></trkpt><trkpt lat="45.44564708741747" lon="8.983592411497035"><ele>127.99999999999999</ele><time>2026-03-29T09:29:33Z</time></trkpt><trkpt lat="45.445599204829215" lon="8.983470672895496"><ele>128.0</ele><time>2026-03-29T09:29:34Z</time></trkpt><trkpt lat="45.44555549786455" lon="8.983362788002372"><ele>128.0</ele><time>2026-03-29T09:29:35Z</time></trkpt><trkpt lat="45.445535785637716" lon="8.98326220640554"><ele>128.0</ele><time>2026-03-29T09:29:36Z</time></trkpt><trkpt lat="45.44550766208346" lon="8.98318025768244"><ele>127.99999999999999</ele><time>2026-03-29T09:29:37Z</time></trkpt><trkpt lat="45.44545325892948" lon="8.983024324838077"><ele>128.0</ele><time>2026-03-29T09:29:39Z</time></trkpt><trkpt lat="45.44542100479694" lon="8.982932395547786"><ele>127.99999999999999</ele><time>2026-03-29T09:29:40Z</time></trkpt><trkpt lat="45.4453866123381" lon="8.982834369751131"><ele>128.0</ele><time>2026-03-29T09:29:41Z</time></trkpt><trkpt lat="45.44533493149371" lon="8.98273635204854"><ele>128.0</ele><time>2026-03-29T09:29:42Z</time></trkpt><trkpt lat="45.4453008869061" lon="8.982632818695278"><ele>128.0</ele><time>2026-03-29T09:29:43Z</time></trkpt><trkpt lat="45.44526901793648" lon="8.982532714248936"><ele>127.99999999999999</ele><time>2026-03-29T09:29:44Z</time></trkpt><trkpt lat="45.445240402430144" lon="8.982441581306713"><ele>128.0</ele><time>2026-03-29T09:29:45Z</time></trkpt><trkpt lat="45.445189163496856" lon="8.982290811999079"><ele>128.0</ele><time>2026-03-29T09:29:47Z</time></trkpt><trkpt lat="45.44513869147353" lon="8.982166268141603"><ele>128.0</ele><time>2026-03-29T09:29:48.999Z</time></trkpt><trkpt lat="45.44507747802733" lon="8.982011362364187"><ele>128.0</ele><time>2026-03-29T09:29:50.999Z</time></trkpt><trkpt lat="45.445042216287185" lon="8.98186258664807"><ele>128.0</ele><time>2026-03-29T09:29:52.999Z</time></trkpt><trkpt lat="45.444996245823674" lon="8.98177465458609"><ele>128.0</ele><time>2026-03-29T09:29:54.999Z</time></trkpt><trkpt lat="45.4449836927651" lon="8.98168502555985"><ele>128.0</ele><time>2026-03-29T09:30:02.999Z</time></trkpt><trkpt lat="45.44508907462365" lon="8.981606359878612"><ele>128.0</ele><time>2026-03-29T09:30:05.999Z</time></trkpt><trkpt lat="45.44520389984925" lon="8.98153675551077"><ele>128.0</ele><time>2026-03-29T09:30:07.999Z</time></trkpt><trkpt lat="45.44527325650761" lon="8.981501678797903"><ele>128.0</ele><time>2026-03-29T09:30:08.999Z</time></trkpt><trkpt lat="45.44535141978293" lon="8.98146198921663"><ele>128.0</ele><time>2026-03-29T09:30:09.999Z</time></trkpt><trkpt lat="45.445433966136186" lon="8.981423291603235"><ele>128.0</ele><time>2026-03-29T09:30:10.999Z</time></trkpt><trkpt lat="45.44552148321213" lon="8.981382995444607"><ele>128.0</ele><time>2026-03-29T09:30:11.999Z</time></trkpt><trkpt lat="45.445608908342635" lon="8.981329664391804"><ele>128.0</ele><time>2026-03-29T09:30:12.999Z</time></trkpt><trkpt lat="45.4456990016024" lon="8.981265914057289"><ele>128.0</ele><time>2026-03-29T09:30:13.999Z</time></trkpt><trkpt lat="45.44578807999029" lon="8.981196340216592"><ele>128.0</ele><time>2026-03-29T09:30:14.999Z</time></trkpt><trkpt lat="45.44587907360444" lon="8.981128569438427"><ele>128.0</ele><time>2026-03-29T09:30:15.999Z</time></trkpt><trkpt lat="45.44596388698564" lon="8.981058062939615"><ele>128.0</ele><time>2026-03-29T09:30:16.999Z</time></trkpt><trkpt lat="45.44605527001886" lon="8.980990280705006"><ele>128.0</ele><time>2026-03-29T09:30:17.999Z</time></trkpt><trkpt lat="45.44614177000705" lon="8.980899977068587"><ele>128.0</ele><time>2026-03-29T09:30:18.999Z</time></trkpt><trkpt lat="45.446233376461166" lon="8.980800389756915"><ele>128.0</ele><time>2026-03-29T09:30:19.999Z</time></trkpt><trkpt lat="45.44632017242723" lon="8.980697279656875"><ele>127.5</ele><time>2026-03-29T09:30:20.999Z</time></trkpt><trkpt lat="45.44641530316058" lon="8.980592235424854"><ele>127.0</ele><time>2026-03-29T09:30:21.999Z</time></trkpt><trkpt lat="45.44651844914671" lon="8.980494066556151"><ele>126.5</ele><time>2026-03-29T09:30:22.999Z</time></trkpt><trkpt lat="45.44662756228289" lon="8.980399204996658"><ele>126.0</ele><time>2026-03-29T09:30:23.999Z</time></trkpt><trkpt lat="45.44674363173439" lon="8.980297868118452"><ele>126.0</ele><time>2026-03-29T09:30:24.999Z</time></trkpt><trkpt lat="45.44686528059458" lon="8.980187436874711"><ele>126.0</ele><time>2026-03-29T09:30:25.999Z</time></trkpt><trkpt lat="45.44698555623884" lon="8.98007423218635"><ele>126.0</ele><time>2026-03-29T09:30:26.999Z</time></trkpt><trkpt lat="45.44710259331149" lon="8.979951222099624"><ele>126.0</ele><time>2026-03-29T09:30:27.999Z</time></trkpt><trkpt lat="45.44721710569642" lon="8.979808523581008"><ele>125.33333333333334</ele><time>2026-03-29T09:30:28.999Z</time></trkpt><trkpt lat="45.4473297743136" lon="8.97964489032848"><ele>124.66666666666667</ele><time>2026-03-29T09:30:29.999Z</time></trkpt><trkpt lat="45.44744200354515" lon="8.979471989745777"><ele>124.0</ele><time>2026-03-29T09:30:30.999Z</time></trkpt><trkpt lat="45.447563249546285" lon="8.979310924875351"><ele>124.33333333333334</ele><time>2026-03-29T09:30:31.999Z</time></trkpt><trkpt lat="45.44769840125688" lon="8.979165244820658"><ele>124.66666666666666</ele><time>2026-03-29T09:30:32.999Z</time></trkpt><trkpt lat="45.447840241352566" lon="8.979035102577328"><ele>125.0</ele><time>2026-03-29T09:30:33.999Z</time></trkpt><trkpt lat="45.447989582641725" lon="8.978914663734432"><ele>125.0</ele><time>2026-03-29T09:30:34.999Z</time></trkpt><trkpt lat="45.44814908152505" lon="8.97880036083276"><ele>125.0</ele><time>2026-03-29T09:30:35.999Z</time></trkpt><trkpt lat="45.448310142676156" lon="8.978712027452083"><ele>125.0</ele><time>2026-03-29T09:30:36.999Z</time></trkpt><trkpt lat="45.44846722876615" lon="8.978637685732199"><ele>125.0</ele><time>2026-03-29T09:30:37.999Z</time></trkpt><trkpt lat="45.44861887314806" lon="8.9785289171995"><ele>125.0</ele><time>2026-03-29T09:30:38.999Z</time></trkpt><trkpt lat="45.448769864125595" lon="8.978391374540164"><ele>125.0</ele><time>2026-03-29T09:30:39.999Z</time></trkpt><trkpt lat="45.4489035819069" lon="8.978204175566026"><ele>125.0</ele><time>2026-03-29T09:30:40.999Z</time></trkpt><trkpt lat="45.44903258347153" lon="8.978004741221548"><ele>125.0</ele><time>2026-03-29T09:30:41.999Z</time></trkpt><trkpt lat="45.44914804505288" lon="8.977807040349036"><ele>125.0</ele><time>2026-03-29T09:30:42.999Z</time></trkpt><trkpt lat="45.449248105134245" lon="8.977626228164102"><ele>125.33333333333333</ele><time>2026-03-29T09:30:43.999Z</time></trkpt><trkpt lat="45.4493495758218" lon="8.977456485186522"><ele>125.66666666666666</ele><time>2026-03-29T09:30:44.999Z</time></trkpt><trkpt lat="45.44946538972487" lon="8.977301081017313"><ele>126.0</ele><time>2026-03-29T09:30:45.999Z</time></trkpt><trkpt lat="45.44959749825504" lon="8.977170751882419"><ele>126.0</ele><time>2026-03-29T09:30:46.999Z</time></trkpt><trkpt lat="45.449745576552814" lon="8.977058739715922"><ele>126.0</ele><time>2026-03-29T09:30:47.999Z</time></trkpt><trkpt lat="45.44990294742539" lon="8.976942404951952"><ele>126.0</ele><time>2026-03-29T09:30:48.999Z</time></trkpt><trkpt lat="45.45005294266546" lon="8.976828222007002"><ele>126.0</ele><time>2026-03-29T09:30:49.999Z</time></trkpt><trkpt lat="45.450195720028866" lon="8.976703053899968"><ele>126.0</ele><time>2026-03-29T09:30:50.999Z</time></trkpt><trkpt lat="45.45033792809548" lon="8.976574239022364"><ele>126.0</ele><time>2026-03-29T09:30:51.999Z</time></trkpt><trkpt lat="45.45048748790799" lon="8.976456429739658"><ele>126.0</ele><time>2026-03-29T09:30:52.999Z</time></trkpt><trkpt lat="45.45064004835409" lon="8.976340687355934"><ele>126.0</ele><time>2026-03-29T09:30:54Z</time></trkpt><trkpt lat="45.450789932627494" lon="8.97622767065104"><ele>126.0</ele><time>2026-03-29T09:30:55Z</time></trkpt><trkpt lat="45.45094212067027" lon="8.976115105079137"><ele>126.0</ele><time>2026-03-29T09:30:56Z</time></trkpt><trkpt lat="45.451088903559345" lon="8.976006537344592"><ele>126.0</ele><time>2026-03-29T09:30:57Z</time></trkpt><trkpt lat="45.45122253678511" lon="8.975907695787646"><ele>126.0</ele><time>2026-03-29T09:30:58Z</time></trkpt><trkpt lat="45.45134459361923" lon="8.975817984622395"><ele>126.5</ele><time>2026-03-29T09:30:59Z</time></trkpt><trkpt lat="45.451454402850594" lon="8.975737537986856"><ele>127.0</ele><time>2026-03-29T09:31:00Z</time></trkpt><trkpt lat="45.4515556681159" lon="8.975645327318498"><ele>127.5</ele><time>2026-03-29T09:31:01Z</time></trkpt><trkpt lat="45.45165482228164" lon="8.975572317464193"><ele>128.0</ele><time>2026-03-29T09:31:02Z</time></trkpt><trkpt lat="45.45174358973981" lon="8.975507479147357"><ele>127.99999999999999</ele><time>2026-03-29T09:31:03Z</time></trkpt><trkpt lat="45.45182682182773" lon="8.975450932764716"><ele>128.0</ele><time>2026-03-29T09:31:04Z</time></trkpt><trkpt lat="45.45190141619863" lon="8.975393806142534"><ele>128.0</ele><time>2026-03-29T09:31:05Z</time></trkpt><trkpt lat="45.45196663755731" lon="8.975343087650781"><ele>128.0</ele><time>2026-03-29T09:31:06Z</time></trkpt><trkpt lat="45.45201849588837" lon="8.975288458703265"><ele>127.99999999999999</ele><time>2026-03-29T09:31:07Z</time></trkpt><trkpt lat="45.45207691225439" lon="8.975236034048738"><ele>128.0</ele><time>2026-03-29T09:31:08Z</time></trkpt><trkpt lat="45.452107926494556" lon="8.975105854185502"><ele>128.20000000000002</ele><time>2026-03-29T09:31:09Z</time></trkpt><trkpt lat="45.45206114762794" lon="8.974964018524881"><ele>128.4</ele><time>2026-03-29T09:31:10Z</time></trkpt><trkpt lat="45.45200797399421" lon="8.97483319826983"><ele>128.60000000000002</ele><time>2026-03-29T09:31:11Z</time></trkpt><trkpt lat="45.45194975271641" lon="8.974723251045017"><ele>128.8</ele><time>2026-03-29T09:31:12Z</time></trkpt><trkpt lat="45.451901252462946" lon="8.974599247475128"><ele>129.0</ele><time>2026-03-29T09:31:13Z</time></trkpt><trkpt lat="45.45185205973317" lon="8.974467223654056"><ele>129.0</ele><time>2026-03-29T09:31:14Z</time></trkpt><trkpt lat="45.4517951689022" lon="8.97432835841713"><ele>129.0</ele><time>2026-03-29T09:31:15Z</time></trkpt><trkpt lat="45.45173589763968" lon="8.974193006608592"><ele>129.0</ele><time>2026-03-29T09:31:16Z</time></trkpt><trkpt lat="45.45168174568616" lon="8.974072544404525"><ele>129.0</ele><time>2026-03-29T09:31:17Z</time></trkpt><trkpt lat="45.451622716538196" lon="8.973940475703413"><ele>129.0</ele><time>2026-03-29T09:31:18Z</time></trkpt><trkpt lat="45.45158316103329" lon="8.973814767109229"><ele>129.0</ele><time>2026-03-29T09:31:19Z</time></trkpt><trkpt lat="45.451536453445456" lon="8.973711045924832"><ele>129.0</ele><time>2026-03-29T09:31:20Z</time></trkpt><trkpt lat="45.45149997954347" lon="8.973613898924611"><ele>129.0</ele><time>2026-03-29T09:31:21Z</time></trkpt><trkpt lat="45.45148159892537" lon="8.973510897705454"><ele>129.0</ele><time>2026-03-29T09:31:22Z</time></trkpt><trkpt lat="45.45150749975124" lon="8.973388174852605"><ele>129.0</ele><time>2026-03-29T09:31:23Z</time></trkpt><trkpt lat="45.45155386707185" lon="8.97325935756971"><ele>129.0</ele><time>2026-03-29T09:31:24Z</time></trkpt><trkpt lat="45.45161427674794" lon="8.973151621714914"><ele>129.0</ele><time>2026-03-29T09:31:25Z</time></trkpt><trkpt lat="45.45167192084854" lon="8.97306800019837"><ele>129.0</ele><time>2026-03-29T09:31:26Z</time></trkpt><trkpt lat="45.45170569221644" lon="8.972969258272071"><ele>129.0</ele><time>2026-03-29T09:31:27Z</time></trkpt><trkpt lat="45.451709657797686" lon="8.97285662317055"><ele>129.0</ele><time>2026-03-29T09:31:28Z</time></trkpt><trkpt lat="45.45168846367127" lon="8.972731512655672"><ele>129.0</ele><time>2026-03-29T09:31:29Z</time></trkpt><trkpt lat="45.4516381423497" lon="8.972605533127926"><ele>129.0</ele><time>2026-03-29T09:31:30Z</time></trkpt><trkpt lat="45.45158182301395" lon="8.972481707194365"><ele>128.75</ele><time>2026-03-29T09:31:31Z</time></trkpt><trkpt lat="45.45152457668456" lon="8.972351335990378"><ele>128.5</ele><time>2026-03-29T09:31:32Z</time></trkpt><trkpt lat="45.45148685286588" lon="8.972211947667429"><ele>128.25</ele><time>2026-03-29T09:31:33Z</time></trkpt><trkpt lat="45.45142268974801" lon="8.97207377525704"><ele>128.0</ele><time>2026-03-29T09:31:34Z</time></trkpt><trkpt lat="45.4513663204331" lon="8.97191751878429"><ele>128.0</ele><time>2026-03-29T09:31:35Z</time></trkpt><trkpt lat="45.45131084220607" lon="8.971743571951592"><ele>128.0</ele><time>2026-03-29T09:31:36Z</time></trkpt><trkpt lat="45.45124021303909" lon="8.971564751611174"><ele>128.0</ele><time>2026-03-29T09:31:37Z</time></trkpt><trkpt lat="45.45116842214337" lon="8.971407342106454"><ele>128.0</ele><time>2026-03-29T09:31:38Z</time></trkpt><trkpt lat="45.45110249155781" lon="8.971254287771124"><ele>127.83333333333333</ele><time>2026-03-29T09:31:39Z</time></trkpt><trkpt lat="45.45104404720538" lon="8.97111412648083"><ele>127.66666666666666</ele><time>2026-03-29T09:31:40Z</time></trkpt><trkpt lat="45.45100255566555" lon="8.971000620950395"><ele>127.5</ele><time>2026-03-29T09:31:41Z</time></trkpt><trkpt lat="45.45098102963927" lon="8.970888365691"><ele>127.33333333333334</ele><time>2026-03-29T09:31:42Z</time></trkpt><trkpt lat="45.45098457186183" lon="8.97078340690031"><ele>127.16666666666667</ele><time>2026-03-29T09:31:43Z</time></trkpt><trkpt lat="45.45099316753522" lon="8.970692728093109"><ele>127.0</ele><time>2026-03-29T09:31:44Z</time></trkpt><trkpt lat="45.4509990388082" lon="8.970573502461"><ele>127.0</ele><time>2026-03-29T09:31:46Z</time></trkpt><trkpt lat="45.45098468735747" lon="8.970478913468385"><ele>126.99999999999999</ele><time>2026-03-29T09:31:51Z</time></trkpt><trkpt lat="45.4508797037291" lon="8.970389139626374"><ele>126.99999999999999</ele><time>2026-03-29T09:31:55.999Z</time></trkpt><trkpt lat="45.45074857381984" lon="8.970392806787544"><ele>127.0</ele><time>2026-03-29T09:31:58.999Z</time></trkpt><trkpt lat="45.4506459860609" lon="8.97035934213624"><ele>127.0</ele><time>2026-03-29T09:31:59.999Z</time></trkpt><trkpt lat="45.450535956396024" lon="8.970340437191979"><ele>127.0</ele><time>2026-03-29T09:32:00.999Z</time></trkpt><trkpt lat="45.45044466733357" lon="8.970303040690364"><ele>127.0</ele><time>2026-03-29T09:32:01.999Z</time></trkpt><trkpt lat="45.450360465021625" lon="8.97004966676687"><ele>127.0</ele><time>2026-03-29T09:32:03.999Z</time></trkpt><trkpt lat="45.450363062718736" lon="8.969849821764843"><ele>127.0</ele><time>2026-03-29T09:32:04.999Z</time></trkpt><trkpt lat="45.45036244051547" lon="8.96965392043525"><ele>127.25</ele><time>2026-03-29T09:32:05.999Z</time></trkpt><trkpt lat="45.45037317910198" lon="8.96945360751214"><ele>127.5</ele><time>2026-03-29T09:32:06.999Z</time></trkpt><trkpt lat="45.4503770617311" lon="8.969257429642234"><ele>127.75</ele><time>2026-03-29T09:32:07.999Z</time></trkpt><trkpt lat="45.4503865867983" lon="8.9690759140534"><ele>128.0</ele><time>2026-03-29T09:32:08.999Z</time></trkpt><trkpt lat="45.45043719046968" lon="8.968924860475232"><ele>128.0</ele><time>2026-03-29T09:32:09.999Z</time></trkpt><trkpt lat="45.45050887162701" lon="8.968801686274475"><ele>128.0</ele><time>2026-03-29T09:32:10.999Z</time></trkpt><trkpt lat="45.450599756680504" lon="8.968668484584295"><ele>128.0</ele><time>2026-03-29T09:32:11.999Z</time></trkpt><trkpt lat="45.450685116545564" lon="8.968548763064431"><ele>128.0</ele><time>2026-03-29T09:32:12.999Z</time></trkpt><trkpt lat="45.45076388321284" lon="8.968404840726144"><ele>128.25</ele><time>2026-03-29T09:32:13.999Z</time></trkpt><trkpt lat="45.45084286572985" lon="8.968257017296562"><ele>128.5</ele><time>2026-03-29T09:32:14.999Z</time></trkpt><trkpt lat="45.45090394299324" lon="8.96811103239021"><ele>128.75</ele><time>2026-03-29T09:32:15.999Z</time></trkpt><trkpt lat="45.450955264260934" lon="8.967967941274058"><ele>129.0</ele><time>2026-03-29T09:32:16.999Z</time></trkpt><trkpt lat="45.45099873697213" lon="8.967845276866774"><ele>129.0</ele><time>2026-03-29T09:32:17.999Z</time></trkpt><trkpt lat="45.451035872124514" lon="8.967740407018779"><ele>129.0</ele><time>2026-03-29T09:32:18.999Z</time></trkpt><trkpt lat="45.45107384900922" lon="8.967627133258548"><ele>129.0</ele><time>2026-03-29T09:32:19.999Z</time></trkpt><trkpt lat="45.451111791135176" lon="8.967500280726044"><ele>129.0</ele><time>2026-03-29T09:32:20.999Z</time></trkpt><trkpt lat="45.45115121023764" lon="8.967356016814248"><ele>129.0</ele><time>2026-03-29T09:32:21.999Z</time></trkpt><trkpt lat="45.45121059627709" lon="8.967202732477416"><ele>129.25</ele><time>2026-03-29T09:32:22.999Z</time></trkpt><trkpt lat="45.45123345886347" lon="8.967034606045571"><ele>129.5</ele><time>2026-03-29T09:32:23.999Z</time></trkpt><trkpt lat="45.451256950377086" lon="8.966858654368844"><ele>129.75</ele><time>2026-03-29T09:32:24.999Z</time></trkpt><trkpt lat="45.45127328437074" lon="8.966686241373322"><ele>130.0</ele><time>2026-03-29T09:32:25.999Z</time></trkpt><trkpt lat="45.45125443350032" lon="8.966495197154021"><ele>130.25</ele><time>2026-03-29T09:32:26.999Z</time></trkpt><trkpt lat="45.45121687131826" lon="8.966304881538878"><ele>130.5</ele><time>2026-03-29T09:32:27.999Z</time></trkpt><trkpt lat="45.45116986435364" lon="8.96610977915573"><ele>130.75</ele><time>2026-03-29T09:32:28.999Z</time></trkpt><trkpt lat="45.45109351905922" lon="8.96591856368042"><ele>131.0</ele><time>2026-03-29T09:32:29.999Z</time></trkpt><trkpt lat="45.45100570294746" lon="8.965728855312669"><ele>130.0</ele><time>2026-03-29T09:32:30.999Z</time></trkpt><trkpt lat="45.45089185702938" lon="8.965542375441164"><ele>129.0</ele><time>2026-03-29T09:32:31.999Z</time></trkpt><trkpt lat="45.45078794174885" lon="8.965330859814735"><ele>128.0</ele><time>2026-03-29T09:32:32.999Z</time></trkpt><trkpt lat="45.45068255589425" lon="8.965151901941221"><ele>128.0</ele><time>2026-03-29T09:32:33.999Z</time></trkpt><trkpt lat="45.45058436036441" lon="8.964981406016275"><ele>128.0</ele><time>2026-03-29T09:32:34.999Z</time></trkpt><trkpt lat="45.45049372834343" lon="8.964805352477555"><ele>128.0</ele><time>2026-03-29T09:32:35.999Z</time></trkpt><trkpt lat="45.45041571987908" lon="8.964614463711762"><ele>128.0</ele><time>2026-03-29T09:32:36.999Z</time></trkpt><trkpt lat="45.450351521776334" lon="8.964410425928062"><ele>128.0</ele><time>2026-03-29T09:32:37.999Z</time></trkpt><trkpt lat="45.45029094084342" lon="8.964185092049274"><ele>128.0</ele><time>2026-03-29T09:32:38.999Z</time></trkpt><trkpt lat="45.450228311915794" lon="8.963947431171157"><ele>128.66666666666666</ele><time>2026-03-29T09:32:39.999Z</time></trkpt><trkpt lat="45.45015236652586" lon="8.963717839742772"><ele>129.33333333333334</ele><time>2026-03-29T09:32:40.999Z</time></trkpt><trkpt lat="45.45007865801683" lon="8.963476267360155"><ele>130.0</ele><time>2026-03-29T09:32:41.999Z</time></trkpt><trkpt lat="45.44999137323997" lon="8.96322704846082"><ele>130.0</ele><time>2026-03-29T09:32:42.999Z</time></trkpt><trkpt lat="45.44990276877942" lon="8.962978730933486"><ele>130.0</ele><time>2026-03-29T09:32:43.999Z</time></trkpt><trkpt lat="45.449830492309786" lon="8.962752477440803"><ele>130.0</ele><time>2026-03-29T09:32:44.999Z</time></trkpt><trkpt lat="45.449755339610626" lon="8.962540759406115"><ele>130.0</ele><time>2026-03-29T09:32:45.999Z</time></trkpt><trkpt lat="45.449685839507104" lon="8.962346130887388"><ele>130.0</ele><time>2026-03-29T09:32:46.999Z</time></trkpt><trkpt lat="45.449623014403755" lon="8.962159916090892"><ele>130.0</ele><time>2026-03-29T09:32:47.999Z</time></trkpt><trkpt lat="45.4495658437428" lon="8.961992769143158"><ele>130.0</ele><time>2026-03-29T09:32:48.999Z</time></trkpt><trkpt lat="45.44952555709745" lon="8.961826605914816"><ele>129.8</ele><time>2026-03-29T09:32:49.999Z</time></trkpt><trkpt lat="45.44948066301666" lon="8.961675225318533"><ele>129.6</ele><time>2026-03-29T09:32:50.999Z</time></trkpt><trkpt lat="45.449453247853825" lon="8.961539465605528"><ele>129.4</ele><time>2026-03-29T09:32:51.999Z</time></trkpt><trkpt lat="45.44944320973318" lon="8.961411057432937"><ele>129.2</ele><time>2026-03-29T09:32:52.999Z</time></trkpt><trkpt lat="45.44947329890889" lon="8.96128856246709"><ele>129.0</ele><time>2026-03-29T09:32:53.999Z</time></trkpt><trkpt lat="45.44954951431554" lon="8.961177903086954"><ele>128.75</ele><time>2026-03-29T09:32:54.999Z</time></trkpt><trkpt lat="45.44963904426336" lon="8.961094368438381"><ele>128.5</ele><time>2026-03-29T09:32:55.999Z</time></trkpt><trkpt lat="45.44973446724807" lon="8.961016639210355"><ele>128.25</ele><time>2026-03-29T09:32:56.999Z</time></trkpt><trkpt lat="45.449845912676295" lon="8.960936455072538"><ele>128.0</ele><time>2026-03-29T09:32:57.999Z</time></trkpt><trkpt lat="45.449956150472595" lon="8.960853769734136"><ele>128.0</ele><time>2026-03-29T09:32:58.999Z</time></trkpt><trkpt lat="45.450051683239906" lon="8.960786513715233"><ele>128.0</ele><time>2026-03-29T09:33:00Z</time></trkpt><trkpt lat="45.45013623821471" lon="8.960723774990278"><ele>128.0</ele><time>2026-03-29T09:33:01Z</time></trkpt><trkpt lat="45.450209825772355" lon="8.960647673130595"><ele>128.0</ele><time>2026-03-29T09:33:02Z</time></trkpt><trkpt lat="45.45027785610015" lon="8.960546602598813"><ele>128.0</ele><time>2026-03-29T09:33:03Z</time></trkpt><trkpt lat="45.450281545377706" lon="8.960382801197495"><ele>128.0</ele><time>2026-03-29T09:33:04Z</time></trkpt><trkpt lat="45.4502650683363" lon="8.960210926453847"><ele>128.0</ele><time>2026-03-29T09:33:05Z</time></trkpt><trkpt lat="45.45023395699717" lon="8.960030939716136"><ele>128.0</ele><time>2026-03-29T09:33:06Z</time></trkpt><trkpt lat="45.45021560726173" lon="8.959864987796468"><ele>128.0</ele><time>2026-03-29T09:33:07Z</time></trkpt><trkpt lat="45.45018740557925" lon="8.95967781300661"><ele>127.75</ele><time>2026-03-29T09:33:08Z</time></trkpt><trkpt lat="45.45015593847244" lon="8.95948897354223"><ele>127.5</ele><time>2026-03-29T09:33:09Z</time></trkpt><trkpt lat="45.45012537746746" lon="8.959297593252344"><ele>127.25</ele><time>2026-03-29T09:33:10Z</time></trkpt><trkpt lat="45.45009257817624" lon="8.959112539289555"><ele>127.0</ele><time>2026-03-29T09:33:11Z</time></trkpt><trkpt lat="45.45008526502752" lon="8.958934028767535"><ele>127.0</ele><time>2026-03-29T09:33:12Z</time></trkpt><trkpt lat="45.45006057880511" lon="8.958792288129516"><ele>126.99999999999999</ele><time>2026-03-29T09:33:13Z</time></trkpt><trkpt lat="45.45006470960811" lon="8.958643833107613"><ele>126.99999999999999</ele><time>2026-03-29T09:33:14Z</time></trkpt><trkpt lat="45.450099663903806" lon="8.958502319854619"><ele>127.0</ele><time>2026-03-29T09:33:15Z</time></trkpt><trkpt lat="45.45017540814689" lon="8.95837542210879"><ele>127.0</ele><time>2026-03-29T09:33:16Z</time></trkpt><trkpt lat="45.450294500337904" lon="8.95831548855211"><ele>127.0</ele><time>2026-03-29T09:33:17Z</time></trkpt><trkpt lat="45.450404571957826" lon="8.9582136289209"><ele>127.0</ele><time>2026-03-29T09:33:18Z</time></trkpt><trkpt lat="45.45051421726567" lon="8.95812016176095"><ele>127.0</ele><time>2026-03-29T09:33:19Z</time></trkpt><trkpt lat="45.450625223332764" lon="8.958001765560196"><ele>127.0</ele><time>2026-03-29T09:33:20Z</time></trkpt><trkpt lat="45.45073267865036" lon="8.957876167124153"><ele>127.0</ele><time>2026-03-29T09:33:21Z</time></trkpt><trkpt lat="45.45082679143252" lon="8.957769982250818"><ele>126.99999999999999</ele><time>2026-03-29T09:33:22Z</time></trkpt><trkpt lat="45.45091276704741" lon="8.957673866600805"><ele>126.99999999999999</ele><time>2026-03-29T09:33:23Z</time></trkpt><trkpt lat="45.450992205031525" lon="8.957571315937404"><ele>127.0</ele><time>2026-03-29T09:33:24Z</time></trkpt><trkpt lat="45.451055614829805" lon="8.957450638229972"><ele>127.0</ele><time>2026-03-29T09:33:25Z</time></trkpt><trkpt lat="45.4511047960362" lon="8.957314369415865"><ele>126.75</ele><time>2026-03-29T09:33:26Z</time></trkpt><trkpt lat="45.4510894871549" lon="8.957152655767898"><ele>126.5</ele><time>2026-03-29T09:33:27Z</time></trkpt><trkpt lat="45.45107776633181" lon="8.956992964241937"><ele>126.25</ele><time>2026-03-29T09:33:28Z</time></trkpt><trkpt lat="45.45107155473691" lon="8.956824781116058"><ele>126.0</ele><time>2026-03-29T09:33:29Z</time></trkpt><trkpt lat="45.451048312229176" lon="8.95664317196228"><ele>127.0</ele><time>2026-03-29T09:33:30Z</time></trkpt><trkpt lat="45.45101334145168" lon="8.956457646967953"><ele>128.0</ele><time>2026-03-29T09:33:31Z</time></trkpt><trkpt lat="45.450953727104135" lon="8.956271245490028"><ele>129.0</ele><time>2026-03-29T09:33:32Z</time></trkpt><trkpt lat="45.45089043289613" lon="8.95606960652243"><ele>130.0</ele><time>2026-03-29T09:33:33Z</time></trkpt><trkpt lat="45.45082756610959" lon="8.955860551551122"><ele>130.0</ele><time>2026-03-29T09:33:34Z</time></trkpt><trkpt lat="45.450764519121755" lon="8.955651030349973"><ele>130.0</ele><time>2026-03-29T09:33:35Z</time></trkpt><trkpt lat="45.450705723403246" lon="8.95544884127805"><ele>130.0</ele><time>2026-03-29T09:33:36Z</time></trkpt><trkpt lat="45.45064875186912" lon="8.95524854430907"><ele>129.0</ele><time>2026-03-29T09:33:37Z</time></trkpt><trkpt lat="45.45058864298542" lon="8.955036518473069"><ele>128.0</ele><time>2026-03-29T09:33:38Z</time></trkpt><trkpt lat="45.45052886518263" lon="8.954817832189537"><ele>127.0</ele><time>2026-03-29T09:33:39Z</time></trkpt><trkpt lat="45.450463805204265" lon="8.954581110641216"><ele>128.33333333333334</ele><time>2026-03-29T09:33:40Z</time></trkpt><trkpt lat="45.450391924590065" lon="8.95433931235652"><ele>129.66666666666666</ele><time>2026-03-29T09:33:41Z</time></trkpt><trkpt lat="45.45031499461727" lon="8.954084607113137"><ele>131.0</ele><time>2026-03-29T09:33:42Z</time></trkpt><trkpt lat="45.45023721744199" lon="8.953819613671978"><ele>131.0</ele><time>2026-03-29T09:33:43Z</time></trkpt><trkpt lat="45.45015672389877" lon="8.95354470970472"><ele>131.0</ele><time>2026-03-29T09:33:44Z</time></trkpt><trkpt lat="45.45007425802669" lon="8.953269772831414"><ele>131.0</ele><time>2026-03-29T09:33:45Z</time></trkpt><trkpt lat="45.450008808738076" lon="8.95298757177209"><ele>130.33333333333331</ele><time>2026-03-29T09:33:46Z</time></trkpt><trkpt lat="45.449935000576055" lon="8.952730737323455"><ele>129.66666666666666</ele><time>2026-03-29T09:33:47Z</time></trkpt><trkpt lat="45.44986841705051" lon="8.952500402482002"><ele>129.0</ele><time>2026-03-29T09:33:48Z</time></trkpt><trkpt lat="45.44981143458699" lon="8.952300708992604"><ele>129.0</ele><time>2026-03-29T09:33:49Z</time></trkpt><trkpt lat="45.44976408471255" lon="8.952134179011662"><ele>129.0</ele><time>2026-03-29T09:33:50Z</time></trkpt><trkpt lat="45.44972226858994" lon="8.95198296875721"><ele>129.0</ele><time>2026-03-29T09:33:51Z</time></trkpt><trkpt lat="45.44969350551923" lon="8.951852627770107"><ele>129.0</ele><time>2026-03-29T09:33:52Z</time></trkpt><trkpt lat="45.449694345246165" lon="8.951743320345276"><ele>129.0</ele><time>2026-03-29T09:33:53Z</time></trkpt><trkpt lat="45.449730551218" lon="8.951652336433956"><ele>129.2</ele><time>2026-03-29T09:33:54Z</time></trkpt><trkpt lat="45.449800921503815" lon="8.95157683770766"><ele>129.4</ele><time>2026-03-29T09:33:55Z</time></trkpt><trkpt lat="45.449905593687525" lon="8.951547005508921"><ele>129.6</ele><time>2026-03-29T09:33:56Z</time></trkpt><trkpt lat="45.45000401855947" lon="8.951478492083657"><ele>129.8</ele><time>2026-03-29T09:33:57Z</time></trkpt><trkpt lat="45.45012713272252" lon="8.951444777629119"><ele>130.0</ele><time>2026-03-29T09:33:58Z</time></trkpt><trkpt lat="45.450251210760925" lon="8.951377301270151"><ele>130.0</ele><time>2026-03-29T09:33:59Z</time></trkpt><trkpt lat="45.45037886030902" lon="8.951315693029052"><ele>130.0</ele><time>2026-03-29T09:34:00Z</time></trkpt><trkpt lat="45.45049201619646" lon="8.951267297304675"><ele>130.0</ele><time>2026-03-29T09:34:01Z</time></trkpt><trkpt lat="45.45060531423184" lon="8.95121856522994"><ele>130.0</ele><time>2026-03-29T09:34:02Z</time></trkpt><trkpt lat="45.450719265592966" lon="8.951168750561504"><ele>129.66666666666669</ele><time>2026-03-29T09:34:03Z</time></trkpt><trkpt lat="45.45081908036925" lon="8.951120832608474"><ele>129.33333333333334</ele><time>2026-03-29T09:34:04Z</time></trkpt><trkpt lat="45.45091171233876" lon="8.951078124239205"><ele>129.0</ele><time>2026-03-29T09:34:05Z</time></trkpt><trkpt lat="45.45099327736709" lon="8.951040933481668"><ele>128.66666666666666</ele><time>2026-03-29T09:34:06Z</time></trkpt><trkpt lat="45.451069913516015" lon="8.951003992308312"><ele>128.33333333333331</ele><time>2026-03-29T09:34:06.999Z</time></trkpt><trkpt lat="45.451131884446006" lon="8.950975619216123"><ele>128.0</ele><time>2026-03-29T09:34:07.999Z</time></trkpt><trkpt lat="45.45120037079192" lon="8.950959337461924"><ele>128.66666666666666</ele><time>2026-03-29T09:34:09.999Z</time></trkpt><trkpt lat="45.45117609176444" lon="8.950756672399356"><ele>129.33333333333331</ele><time>2026-03-29T09:34:12.999Z</time></trkpt><trkpt lat="45.45116602261502" lon="8.950661047008868"><ele>130.0</ele><time>2026-03-29T09:34:13.999Z</time></trkpt><trkpt lat="45.451138752675206" lon="8.950578952636674"><ele>130.66666666666666</ele><time>2026-03-29T09:34:14.999Z</time></trkpt><trkpt lat="45.451103204282354" lon="8.950477029227565"><ele>131.33333333333334</ele><time>2026-03-29T09:34:15.999Z</time></trkpt><trkpt lat="45.451059673839524" lon="8.950392136138476"><ele>132.0</ele><time>2026-03-29T09:34:16.999Z</time></trkpt><trkpt lat="45.451026279182564" lon="8.950290151935526"><ele>132.0</ele><time>2026-03-29T09:34:17.999Z</time></trkpt><trkpt lat="45.4509874303482" lon="8.950186804253404"><ele>132.0</ele><time>2026-03-29T09:34:18.999Z</time></trkpt><trkpt lat="45.450947343522564" lon="8.950074753687142"><ele>132.0</ele><time>2026-03-29T09:34:19.999Z</time></trkpt><trkpt lat="45.45091342686918" lon="8.949959903792225"><ele>132.0</ele><time>2026-03-29T09:34:20.999Z</time></trkpt><trkpt lat="45.45087726325015" lon="8.949845196299398"><ele>132.0</ele><time>2026-03-29T09:34:21.999Z</time></trkpt><trkpt lat="45.450839116146554" lon="8.94972969538984"><ele>132.0</ele><time>2026-03-29T09:34:22.999Z</time></trkpt><trkpt lat="45.450796882038325" lon="8.94960269555475"><ele>132.2</ele><time>2026-03-29T09:34:23.999Z</time></trkpt><trkpt lat="45.45075246525025" lon="8.94947506989145"><ele>132.39999999999998</ele><time>2026-03-29T09:34:24.999Z</time></trkpt><trkpt lat="45.45070724142743" lon="8.949348968210407"><ele>132.60000000000002</ele><time>2026-03-29T09:34:25.999Z</time></trkpt><trkpt lat="45.450662192224534" lon="8.949218970566442"><ele>132.8</ele><time>2026-03-29T09:34:26.999Z</time></trkpt><trkpt lat="45.45062990314213" lon="8.949081024429672"><ele>133.0</ele><time>2026-03-29T09:34:27.999Z</time></trkpt><trkpt lat="45.45058112949053" lon="8.948935125669506"><ele>133.0</ele><time>2026-03-29T09:34:28.999Z</time></trkpt><trkpt lat="45.45053164812493" lon="8.948810294500474"><ele>133.0</ele><time>2026-03-29T09:34:29.999Z</time></trkpt><trkpt lat="45.45049155407163" lon="8.948712935300668"><ele>133.0</ele><time>2026-03-29T09:34:30.999Z</time></trkpt><trkpt lat="45.450456091217774" lon="8.948617733412226"><ele>133.0</ele><time>2026-03-29T09:34:31.999Z</time></trkpt><trkpt lat="45.450437077537586" lon="8.948530194407043"><ele>133.0</ele><time>2026-03-29T09:34:32.999Z</time></trkpt><trkpt lat="45.450402304807646" lon="8.948427785262153"><ele>133.0</ele><time>2026-03-29T09:34:33.999Z</time></trkpt><trkpt lat="45.45035604814781" lon="8.948312279016708"><ele>132.20000000000002</ele><time>2026-03-29T09:34:34.999Z</time></trkpt><trkpt lat="45.45030242961686" lon="8.94818494639279"><ele>131.4</ele><time>2026-03-29T09:34:35.999Z</time></trkpt><trkpt lat="45.45025746713532" lon="8.948063044243428"><ele>130.60000000000002</ele><time>2026-03-29T09:34:36.999Z</time></trkpt><trkpt lat="45.45020867907445" lon="8.947922707177407"><ele>129.8</ele><time>2026-03-29T09:34:37.999Z</time></trkpt><trkpt lat="45.45015893867377" lon="8.947761180848204"><ele>129.0</ele><time>2026-03-29T09:34:38.999Z</time></trkpt><trkpt lat="45.4501092653823" lon="8.947591539859966"><ele>128.75</ele><time>2026-03-29T09:34:39.999Z</time></trkpt><trkpt lat="45.45006484832795" lon="8.947406297145076"><ele>128.5</ele><time>2026-03-29T09:34:40.999Z</time></trkpt><trkpt lat="45.4500167445137" lon="8.947208755815913"><ele>128.25</ele><time>2026-03-29T09:34:41.999Z</time></trkpt><trkpt lat="45.449965892526436" lon="8.947000390489707"><ele>128.0</ele><time>2026-03-29T09:34:42.999Z</time></trkpt><trkpt lat="45.4499164588815" lon="8.946793546243665"><ele>127.75</ele><time>2026-03-29T09:34:43.999Z</time></trkpt><trkpt lat="45.44986940442751" lon="8.946599542772674"><ele>127.5</ele><time>2026-03-29T09:34:44.999Z</time></trkpt><trkpt lat="45.44982359895268" lon="8.946400880317782"><ele>127.25</ele><time>2026-03-29T09:34:45.999Z</time></trkpt><trkpt lat="45.449777651174244" lon="8.946219646299072"><ele>127.0</ele><time>2026-03-29T09:34:46.999Z</time></trkpt><trkpt lat="45.44974468862549" lon="8.946053875411943"><ele>127.0</ele><time>2026-03-29T09:34:47.999Z</time></trkpt><trkpt lat="45.44971487834505" lon="8.945888659852848"><ele>127.0</ele><time>2026-03-29T09:34:48.999Z</time></trkpt><trkpt lat="45.449701757446014" lon="8.945710598180685"><ele>127.0</ele><time>2026-03-29T09:34:49.999Z</time></trkpt><trkpt lat="45.44970054819406" lon="8.94551019452133"><ele>127.0</ele><time>2026-03-29T09:34:50.999Z</time></trkpt><trkpt lat="45.449712016919904" lon="8.94530424197562"><ele>127.33333333333334</ele><time>2026-03-29T09:34:51.999Z</time></trkpt><trkpt lat="45.44973916461681" lon="8.945085274234645"><ele>127.66666666666666</ele><time>2026-03-29T09:34:52.999Z</time></trkpt><trkpt lat="45.44976602806543" lon="8.944861925831704"><ele>128.0</ele><time>2026-03-29T09:34:53.999Z</time></trkpt><trkpt lat="45.44981139159329" lon="8.944650758625734"><ele>128.0</ele><time>2026-03-29T09:34:54.999Z</time></trkpt><trkpt lat="45.449859332457336" lon="8.944434751483291"><ele>128.0</ele><time>2026-03-29T09:34:55.999Z</time></trkpt><trkpt lat="45.449902337600925" lon="8.94420485568146"><ele>128.0</ele><time>2026-03-29T09:34:56.999Z</time></trkpt><trkpt lat="45.449943216233386" lon="8.943958344193549"><ele>128.0</ele><time>2026-03-29T09:34:57.999Z</time></trkpt><trkpt lat="45.4499656295043" lon="8.943714401413109"><ele>128.0</ele><time>2026-03-29T09:34:58.999Z</time></trkpt><trkpt lat="45.44998411304783" lon="8.943471627095066"><ele>128.0</ele><time>2026-03-29T09:34:59.999Z</time></trkpt><trkpt lat="45.45000092214142" lon="8.943225109021945"><ele>128.33333333333331</ele><time>2026-03-29T09:35:00.999Z</time></trkpt><trkpt lat="45.45000916345617" lon="8.942980830426848"><ele>128.66666666666666</ele><time>2026-03-29T09:35:01.999Z</time></trkpt><trkpt lat="45.450014143898734" lon="8.942742279825165"><ele>129.0</ele><time>2026-03-29T09:35:02.999Z</time></trkpt><trkpt lat="45.45001582967612" lon="8.942519175007948"><ele>129.25</ele><time>2026-03-29T09:35:03.999Z</time></trkpt><trkpt lat="45.45001662814377" lon="8.94231514564286"><ele>129.5</ele><time>2026-03-29T09:35:04.999Z</time></trkpt><trkpt lat="45.45001638541578" lon="8.94211988498703"><ele>129.75</ele><time>2026-03-29T09:35:06Z</time></trkpt><trkpt lat="45.450008931869604" lon="8.941928968930814"><ele>130.0</ele><time>2026-03-29T09:35:07Z</time></trkpt><trkpt lat="45.44998124938917" lon="8.94175122640173"><ele>130.0</ele><time>2026-03-29T09:35:08Z</time></trkpt><trkpt lat="45.44990668518097" lon="8.941601709335325"><ele>130.0</ele><time>2026-03-29T09:35:09Z</time></trkpt><trkpt lat="45.44982930916594" lon="8.941494343297371"><ele>130.0</ele><time>2026-03-29T09:35:10Z</time></trkpt><trkpt lat="45.44972048658028" lon="8.941414586534995"><ele>130.0</ele><time>2026-03-29T09:35:11Z</time></trkpt><trkpt lat="45.4495947852642" lon="8.941353717500022"><ele>129.5</ele><time>2026-03-29T09:35:12Z</time></trkpt><trkpt lat="45.4494776627866" lon="8.941300813547858"><ele>129.0</ele><time>2026-03-29T09:35:13Z</time></trkpt><trkpt lat="45.44936899571468" lon="8.941240677867885"><ele>128.5</ele><time>2026-03-29T09:35:14Z</time></trkpt><trkpt lat="45.449265310442" lon="8.941164170986191"><ele>128.0</ele><time>2026-03-29T09:35:15Z</time></trkpt><trkpt lat="45.44918820599139" lon="8.941064090551809"><ele>128.0</ele><time>2026-03-29T09:35:16Z</time></trkpt><trkpt lat="45.44910294012008" lon="8.940968379443627"><ele>128.0</ele><time>2026-03-29T09:35:17Z</time></trkpt><trkpt lat="45.44901462063055" lon="8.940867550149854"><ele>128.0</ele><time>2026-03-29T09:35:18Z</time></trkpt><trkpt lat="45.44893244544093" lon="8.940768619567848"><ele>128.0</ele><time>2026-03-29T09:35:19Z</time></trkpt><trkpt lat="45.448848849751855" lon="8.940682179110505"><ele>128.0</ele><time>2026-03-29T09:35:20Z</time></trkpt><trkpt lat="45.4487712444547" lon="8.940596455610246"><ele>128.0</ele><time>2026-03-29T09:35:21Z</time></trkpt><trkpt lat="45.44869086015596" lon="8.940510042472168"><ele>128.0</ele><time>2026-03-29T09:35:22Z</time></trkpt><trkpt lat="45.44861146807661" lon="8.940432899254075"><ele>128.0</ele><time>2026-03-29T09:35:23Z</time></trkpt><trkpt lat="45.44852807211903" lon="8.940360702267327"><ele>128.0</ele><time>2026-03-29T09:35:24Z</time></trkpt><trkpt lat="45.448452793028686" lon="8.940291558189976"><ele>128.0</ele><time>2026-03-29T09:35:25Z</time></trkpt><trkpt lat="45.44837866620875" lon="8.94021985562156"><ele>128.0</ele><time>2026-03-29T09:35:26Z</time></trkpt><trkpt lat="45.44829869402972" lon="8.94014653063963"><ele>128.0</ele><time>2026-03-29T09:35:27Z</time></trkpt><trkpt lat="45.44822131016642" lon="8.940075601523688"><ele>128.0</ele><time>2026-03-29T09:35:28Z</time></trkpt><trkpt lat="45.4481417563757" lon="8.940004635782737"><ele>128.0</ele><time>2026-03-29T09:35:29Z</time></trkpt><trkpt lat="45.4480620736922" lon="8.939934658830644"><ele>128.0</ele><time>2026-03-29T09:35:30Z</time></trkpt><trkpt lat="45.44798520612205" lon="8.939864589279269"><ele>128.20000000000002</ele><time>2026-03-29T09:35:31Z</time></trkpt><trkpt lat="45.44790921000191" lon="8.939789489613487"><ele>128.4</ele><time>2026-03-29T09:35:32Z</time></trkpt><trkpt lat="45.44783296934345" lon="8.939717624559755"><ele>128.60000000000002</ele><time>2026-03-29T09:35:33Z</time></trkpt><trkpt lat="45.447752084478495" lon="8.939651944314663"><ele>128.8</ele><time>2026-03-29T09:35:34Z</time></trkpt><trkpt lat="45.44767004193596" lon="8.93958169959493"><ele>129.0</ele><time>2026-03-29T09:35:35Z</time></trkpt><trkpt lat="45.447592472661675" lon="8.939503001250593"><ele>129.0</ele><time>2026-03-29T09:35:36Z</time></trkpt><trkpt lat="45.447520416892466" lon="8.93941840151451"><ele>129.0</ele><time>2026-03-29T09:35:37Z</time></trkpt><trkpt lat="45.447466168359426" lon="8.939309288292403"><ele>129.0</ele><time>2026-03-29T09:35:38Z</time></trkpt><trkpt lat="45.44742040869571" lon="8.939193510308826"><ele>129.0</ele><time>2026-03-29T09:35:39Z</time></trkpt><trkpt lat="45.447379698099205" lon="8.939069785616711"><ele>129.0</ele><time>2026-03-29T09:35:40Z</time></trkpt><trkpt lat="45.44733818175884" lon="8.938940469089802"><ele>129.0</ele><time>2026-03-29T09:35:41Z</time></trkpt><trkpt lat="45.44729573877463" lon="8.938813808633121"><ele>129.0</ele><time>2026-03-29T09:35:42Z</time></trkpt><trkpt lat="45.447253470782336" lon="8.938701691260974"><ele>129.0</ele><time>2026-03-29T09:35:43Z</time></trkpt><trkpt lat="45.44722069252935" lon="8.938597326077284"><ele>129.0</ele><time>2026-03-29T09:35:44Z</time></trkpt><trkpt lat="45.44719579979318" lon="8.938503055621583"><ele>129.0</ele><time>2026-03-29T09:35:45Z</time></trkpt><trkpt lat="45.447168784519775" lon="8.938400267303102"><ele>129.0</ele><time>2026-03-29T09:35:46Z</time></trkpt><trkpt lat="45.44715857380808" lon="8.938291479754595"><ele>129.0</ele><time>2026-03-29T09:35:47Z</time></trkpt><trkpt lat="45.447166147333405" lon="8.938187823371518"><ele>129.0</ele><time>2026-03-29T09:35:48Z</time></trkpt><trkpt lat="45.447196637842076" lon="8.938087894994789"><ele>129.0</ele><time>2026-03-29T09:35:49Z</time></trkpt><trkpt lat="45.44724087486121" lon="8.93799487015518"><ele>129.0</ele><time>2026-03-29T09:35:50Z</time></trkpt><trkpt lat="45.447286492808544" lon="8.937908704037753"><ele>129.0</ele><time>2026-03-29T09:35:51Z</time></trkpt><trkpt lat="45.44732461247244" lon="8.937806873463646"><ele>129.0</ele><time>2026-03-29T09:35:52Z</time></trkpt><trkpt lat="45.447363411695015" lon="8.937710445890133"><ele>128.99999999999997</ele><time>2026-03-29T09:35:53Z</time></trkpt><trkpt lat="45.4474065415143" lon="8.9376192370833"><ele>129.0</ele><time>2026-03-29T09:35:54Z</time></trkpt><trkpt lat="45.44744875892881" lon="8.937532521883888"><ele>129.0</ele><time>2026-03-29T09:35:55Z</time></trkpt><trkpt lat="45.447486728267194" lon="8.937449057639892"><ele>129.0</ele><time>2026-03-29T09:35:56Z</time></trkpt><trkpt lat="45.44752275523854" lon="8.93736390252539"><ele>129.0</ele><time>2026-03-29T09:35:57Z</time></trkpt><trkpt lat="45.44755201297369" lon="8.937274957310416"><ele>128.99999999999997</ele><time>2026-03-29T09:35:58Z</time></trkpt><trkpt lat="45.44756988250328" lon="8.937186954378333"><ele>129.0</ele><time>2026-03-29T09:35:59Z</time></trkpt><trkpt lat="45.447588757723636" lon="8.937089728243576"><ele>129.16666666666666</ele><time>2026-03-29T09:36:00Z</time></trkpt><trkpt lat="45.44760580425876" lon="8.936981232794125"><ele>129.33333333333334</ele><time>2026-03-29T09:36:01Z</time></trkpt><trkpt lat="45.44762189994612" lon="8.936874770258589"><ele>129.5</ele><time>2026-03-29T09:36:02Z</time></trkpt><trkpt lat="45.44763843147793" lon="8.936770361012128"><ele>129.66666666666669</ele><time>2026-03-29T09:36:03Z</time></trkpt><trkpt lat="45.447647185120104" lon="8.936655300704935"><ele>129.83333333333334</ele><time>2026-03-29T09:36:04Z</time></trkpt><trkpt lat="45.44764992033846" lon="8.936532245315009"><ele>130.0</ele><time>2026-03-29T09:36:05Z</time></trkpt><trkpt lat="45.4476438272264" lon="8.936408424366649"><ele>130.2</ele><time>2026-03-29T09:36:06Z</time></trkpt><trkpt lat="45.44762368439702" lon="8.936286662792332"><ele>130.4</ele><time>2026-03-29T09:36:07Z</time></trkpt><trkpt lat="45.4476046177904" lon="8.936161873687173"><ele>130.6</ele><time>2026-03-29T09:36:08Z</time></trkpt><trkpt lat="45.447584971248595" lon="8.936031688745608"><ele>130.8</ele><time>2026-03-29T09:36:09Z</time></trkpt><trkpt lat="45.447564370654064" lon="8.935897774123198"><ele>131.0</ele><time>2026-03-29T09:36:10Z</time></trkpt><trkpt lat="45.44756021555499" lon="8.935766424318224"><ele>131.0</ele><time>2026-03-29T09:36:10.999Z</time></trkpt><trkpt lat="45.447531971855106" lon="8.9356304868601"><ele>131.0</ele><time>2026-03-29T09:36:11.999Z</time></trkpt><trkpt lat="45.44750723872911" lon="8.935516703184778"><ele>131.0</ele><time>2026-03-29T09:36:12.999Z</time></trkpt><trkpt lat="45.44748146794619" lon="8.935398145692456"><ele>131.0</ele><time>2026-03-29T09:36:13.999Z</time></trkpt><trkpt lat="45.44745731460405" lon="8.935287028729013"><ele>131.0</ele><time>2026-03-29T09:36:14.999Z</time></trkpt><trkpt lat="45.447433336328274" lon="8.935179310251593"><ele>131.0</ele><time>2026-03-29T09:36:15.999Z</time></trkpt><trkpt lat="45.4473962949721" lon="8.935012546417704"><ele>131.0</ele><time>2026-03-29T09:36:17.999Z</time></trkpt><trkpt lat="45.44736231643437" lon="8.934863998386968"><ele>131.0</ele><time>2026-03-29T09:36:19.999Z</time></trkpt><trkpt lat="45.4473373328459" lon="8.934764695226649"><ele>131.0</ele><time>2026-03-29T09:36:20.999Z</time></trkpt><trkpt lat="45.4473144766791" lon="8.93467374082809"><ele>131.0</ele><time>2026-03-29T09:36:21.999Z</time></trkpt><trkpt lat="45.44727758607852" lon="8.934597143968423"><ele>131.0</ele><time>2026-03-29T09:36:22.999Z</time></trkpt><trkpt lat="45.44724771465352" lon="8.934450157513211"><ele>131.0</ele><time>2026-03-29T09:36:24.999Z</time></trkpt><trkpt lat="45.447223312285175" lon="8.934341578390445"><ele>131.0</ele><time>2026-03-29T09:36:26.999Z</time></trkpt><trkpt lat="45.447192732618966" lon="8.934227624658744"><ele>131.0</ele><time>2026-03-29T09:36:28.999Z</time></trkpt><trkpt lat="45.447150909400534" lon="8.934105201280248"><ele>131.0</ele><time>2026-03-29T09:36:30.999Z</time></trkpt><trkpt lat="45.447102579216" lon="8.933949751226633"><ele>131.0</ele><time>2026-03-29T09:36:32.999Z</time></trkpt><trkpt lat="45.447080662108135" lon="8.933863626848563"><ele>131.0</ele><time>2026-03-29T09:36:33.999Z</time></trkpt><trkpt lat="45.447058179714844" lon="8.933767257383597"><ele>131.0</ele><time>2026-03-29T09:36:34.999Z</time></trkpt><trkpt lat="45.44703299073749" lon="8.93368201321086"><ele>130.66666666666666</ele><time>2026-03-29T09:36:35.999Z</time></trkpt><trkpt lat="45.447020462866874" lon="8.933581738793226"><ele>130.33333333333331</ele><time>2026-03-29T09:36:36.999Z</time></trkpt><trkpt lat="45.44699529631738" lon="8.933488296090843"><ele>130.0</ele><time>2026-03-29T09:36:37.999Z</time></trkpt><trkpt lat="45.446956620925135" lon="8.933403307902536"><ele>129.66666666666666</ele><time>2026-03-29T09:36:38.999Z</time></trkpt><trkpt lat="45.44693114082124" lon="8.933294958410265"><ele>129.33333333333334</ele><time>2026-03-29T09:36:39.999Z</time></trkpt><trkpt lat="45.44689754883125" lon="8.933170235735856"><ele>129.0</ele><time>2026-03-29T09:36:40.999Z</time></trkpt><trkpt lat="45.44686959016661" lon="8.933057292808089"><ele>129.0</ele><time>2026-03-29T09:36:41.999Z</time></trkpt><trkpt lat="45.446839351686016" lon="8.93294546276292"><ele>129.0</ele><time>2026-03-29T09:36:42.999Z</time></trkpt><trkpt lat="45.44680854665725" lon="8.932835226787477"><ele>129.0</ele><time>2026-03-29T09:36:43.999Z</time></trkpt><trkpt lat="45.44679601012498" lon="8.932730100448124"><ele>129.0</ele><time>2026-03-29T09:36:44.999Z</time></trkpt><trkpt lat="45.44676565237905" lon="8.932624570406437"><ele>129.0</ele><time>2026-03-29T09:36:45.999Z</time></trkpt><trkpt lat="45.44673283676908" lon="8.93251894378505"><ele>129.0</ele><time>2026-03-29T09:36:46.999Z</time></trkpt><trkpt lat="45.4467070763222" lon="8.93242804389221"><ele>129.16666666666666</ele><time>2026-03-29T09:36:47.999Z</time></trkpt><trkpt lat="45.4466835268567" lon="8.93233696625942"><ele>129.33333333333334</ele><time>2026-03-29T09:36:48.999Z</time></trkpt><trkpt lat="45.446658086164646" lon="8.932235063388415"><ele>129.5</ele><time>2026-03-29T09:36:49.999Z</time></trkpt><trkpt lat="45.44662973635598" lon="8.932131131690166"><ele>129.66666666666669</ele><time>2026-03-29T09:36:50.999Z</time></trkpt><trkpt lat="45.44660296316871" lon="8.932030972055108"><ele>129.83333333333334</ele><time>2026-03-29T09:36:51.999Z</time></trkpt><trkpt lat="45.446578424620995" lon="8.931924562097745"><ele>130.0</ele><time>2026-03-29T09:36:52.999Z</time></trkpt><trkpt lat="45.44655363566932" lon="8.931821001142891"><ele>130.00000000000003</ele><time>2026-03-29T09:36:53.999Z</time></trkpt><trkpt lat="45.44652783004925" lon="8.931710461085355"><ele>130.0</ele><time>2026-03-29T09:36:54.999Z</time></trkpt><trkpt lat="45.44650336767509" lon="8.931606765273342"><ele>130.0</ele><time>2026-03-29T09:36:55.999Z</time></trkpt><trkpt lat="45.446482890463066" lon="8.931517623986995"><ele>130.0</ele><time>2026-03-29T09:36:56.999Z</time></trkpt><trkpt lat="45.4464615045769" lon="8.931427518227093"><ele>130.0</ele><time>2026-03-29T09:36:57.999Z</time></trkpt><trkpt lat="45.44645352826774" lon="8.931333975740776"><ele>130.00000000000003</ele><time>2026-03-29T09:36:58.999Z</time></trkpt><trkpt lat="45.44644858848077" lon="8.931243348621724"><ele>130.0</ele><time>2026-03-29T09:36:59.999Z</time></trkpt><trkpt lat="45.446452126672355" lon="8.931064185078048"><ele>130.0</ele><time>2026-03-29T09:37:01.999Z</time></trkpt><trkpt lat="45.44645021563476" lon="8.930973991575954"><ele>130.0</ele><time>2026-03-29T09:37:02.999Z</time></trkpt><trkpt lat="45.446455508641215" lon="8.930812750940438"><ele>130.0</ele><time>2026-03-29T09:37:04.999Z</time></trkpt><trkpt lat="45.4464575144735" lon="8.930633044653792"><ele>130.0</ele><time>2026-03-29T09:37:06.999Z</time></trkpt><trkpt lat="45.446453367278366" lon="8.930453887648596"><ele>130.0</ele><time>2026-03-29T09:37:08.999Z</time></trkpt><trkpt lat="45.44644632800723" lon="8.930361953898323"><ele>130.0</ele><time>2026-03-29T09:37:09.999Z</time></trkpt><trkpt lat="45.44643658616607" lon="8.930262677652118"><ele>130.0</ele><time>2026-03-29T09:37:10.999Z</time></trkpt><trkpt lat="45.44641792303067" lon="8.930161352408904"><ele>130.0</ele><time>2026-03-29T09:37:12Z</time></trkpt><trkpt lat="45.446396283432094" lon="8.930054615613578"><ele>130.0</ele><time>2026-03-29T09:37:13Z</time></trkpt><trkpt lat="45.44636587035718" lon="8.929953177966853"><ele>130.0</ele><time>2026-03-29T09:37:14Z</time></trkpt><trkpt lat="45.446331599596974" lon="8.929845084994811"><ele>130.0</ele><time>2026-03-29T09:37:15Z</time></trkpt><trkpt lat="45.44628987667715" lon="8.92975083666486"><ele>130.00000000000003</ele><time>2026-03-29T09:37:16Z</time></trkpt><trkpt lat="45.44625809229185" lon="8.929659696461215"><ele>130.0</ele><time>2026-03-29T09:37:17Z</time></trkpt><trkpt lat="45.44622461792583" lon="8.929567954213379"><ele>130.0</ele><time>2026-03-29T09:37:18Z</time></trkpt><trkpt lat="45.44619117525082" lon="8.929475288579031"><ele>130.0</ele><time>2026-03-29T09:37:19Z</time></trkpt><trkpt lat="45.446172318376014" lon="8.929378143957958"><ele>130.0</ele><time>2026-03-29T09:37:20Z</time></trkpt><trkpt lat="45.446140348052765" lon="8.929294063580745"><ele>130.00000000000003</ele><time>2026-03-29T09:37:21Z</time></trkpt><trkpt lat="45.446106502331745" lon="8.929205981909433"><ele>130.0</ele><time>2026-03-29T09:37:22Z</time></trkpt><trkpt lat="45.44607587196062" lon="8.929124693550506"><ele>130.0</ele><time>2026-03-29T09:37:23Z</time></trkpt><trkpt lat="45.446061780923" lon="8.928968130739692"><ele>130.0</ele><time>2026-03-29T09:37:25Z</time></trkpt><trkpt lat="45.44612820871592" lon="8.928812002407078"><ele>130.0</ele><time>2026-03-29T09:37:27Z</time></trkpt><trkpt lat="45.44617653657523" lon="8.92875169211937"><ele>130.0</ele><time>2026-03-29T09:37:28Z</time></trkpt><trkpt lat="45.44623151043274" lon="8.928689492792236"><ele>130.0</ele><time>2026-03-29T09:37:29Z</time></trkpt><trkpt lat="45.44628520368554" lon="8.92863202901393"><ele>130.0</ele><time>2026-03-29T09:37:30Z</time></trkpt><trkpt lat="45.44634214724767" lon="8.92858968425776"><ele>129.83333333333334</ele><time>2026-03-29T09:37:31Z</time></trkpt><trkpt lat="45.446398551858586" lon="8.928525653938177"><ele>129.66666666666669</ele><time>2026-03-29T09:37:32Z</time></trkpt><trkpt lat="45.44644582382439" lon="8.928439457893186"><ele>129.5</ele><time>2026-03-29T09:37:33Z</time></trkpt><trkpt lat="45.44649477372044" lon="8.928359700519925"><ele>129.33333333333334</ele><time>2026-03-29T09:37:34Z</time></trkpt><trkpt lat="45.44652153275274" lon="8.928265981855798"><ele>129.16666666666666</ele><time>2026-03-29T09:37:35Z</time></trkpt><trkpt lat="45.446541385755" lon="8.928149122651565"><ele>129.0</ele><time>2026-03-29T09:37:36Z</time></trkpt><trkpt lat="45.44657490249289" lon="8.928041454959912"><ele>129.0</ele><time>2026-03-29T09:37:37Z</time></trkpt><trkpt lat="45.44660372407162" lon="8.92793984718021"><ele>129.0</ele><time>2026-03-29T09:37:38Z</time></trkpt><trkpt lat="45.446608489358134" lon="8.927812356061086"><ele>129.0</ele><time>2026-03-29T09:37:39Z</time></trkpt><trkpt lat="45.44659682359476" lon="8.927688719136253"><ele>129.0</ele><time>2026-03-29T09:37:40Z</time></trkpt><trkpt lat="45.4465868659009" lon="8.927565173877086"><ele>129.0</ele><time>2026-03-29T09:37:41Z</time></trkpt><trkpt lat="45.44657951166549" lon="8.927451312581951"><ele>129.0</ele><time>2026-03-29T09:37:42Z</time></trkpt><trkpt lat="45.44656899808717" lon="8.927333565756124"><ele>129.16666666666666</ele><time>2026-03-29T09:37:43Z</time></trkpt><trkpt lat="45.446569870112" lon="8.927223670394396"><ele>129.33333333333334</ele><time>2026-03-29T09:37:44Z</time></trkpt><trkpt lat="45.4465615364514" lon="8.927127221959152"><ele>129.5</ele><time>2026-03-29T09:37:45Z</time></trkpt><trkpt lat="45.446554829076796" lon="8.927020350341264"><ele>129.66666666666669</ele><time>2026-03-29T09:37:46Z</time></trkpt><trkpt lat="45.446544480562174" lon="8.926914616559854"><ele>129.83333333333334</ele><time>2026-03-29T09:37:47Z</time></trkpt><trkpt lat="45.44653044898377" lon="8.926826905954007"><ele>130.0</ele><time>2026-03-29T09:37:48Z</time></trkpt><trkpt lat="45.44649865505585" lon="8.92667761933791"><ele>130.0</ele><time>2026-03-29T09:37:50Z</time></trkpt><trkpt lat="45.44648689310657" lon="8.926555072672842"><ele>130.0</ele><time>2026-03-29T09:37:52Z</time></trkpt><trkpt lat="45.44646236080661" lon="8.926464876306841"><ele>130.0</ele><time>2026-03-29T09:37:54Z</time></trkpt><trkpt lat="45.44644625134039" lon="8.926359576852404"><ele>130.0</ele><time>2026-03-29T09:37:57Z</time></trkpt><trkpt lat="45.44642472784097" lon="8.926256521710759"><ele>130.0</ele><time>2026-03-29T09:38:04Z</time></trkpt><trkpt lat="45.44625574168002" lon="8.926330614441397"><ele>130.0</ele><time>2026-03-29T09:38:09Z</time></trkpt><trkpt lat="45.44614202140195" lon="8.926412418633616"><ele>130.0</ele><time>2026-03-29T09:38:11Z</time></trkpt><trkpt lat="45.44608356650962" lon="8.926460145697652"><ele>130.0</ele><time>2026-03-29T09:38:12Z</time></trkpt><trkpt lat="45.446001820234926" lon="8.926473854146517"><ele>130.0</ele><time>2026-03-29T09:38:13Z</time></trkpt><trkpt lat="45.445922920404534" lon="8.926490314945525"><ele>130.0</ele><time>2026-03-29T09:38:14Z</time></trkpt><trkpt lat="45.44583742157265" lon="8.926515558085727"><ele>130.0</ele><time>2026-03-29T09:38:14.999Z</time></trkpt><trkpt lat="45.44574319825825" lon="8.926539831080675"><ele>130.0</ele><time>2026-03-29T09:38:15.999Z</time></trkpt><trkpt lat="45.44564989539262" lon="8.926579028625417"><ele>130.0</ele><time>2026-03-29T09:38:16.999Z</time></trkpt><trkpt lat="45.44554603017271" lon="8.926619027005232"><ele>130.0</ele><time>2026-03-29T09:38:17.999Z</time></trkpt><trkpt lat="45.44543736043157" lon="8.926656792337104"><ele>130.0</ele><time>2026-03-29T09:38:18.999Z</time></trkpt><trkpt lat="45.44533708666112" lon="8.926661520168844"><ele>130.0</ele><time>2026-03-29T09:38:19.999Z</time></trkpt><trkpt lat="45.445236037526435" lon="8.926701662771302"><ele>130.0</ele><time>2026-03-29T09:38:20.999Z</time></trkpt><trkpt lat="45.44514468308857" lon="8.926746899411574"><ele>130.0</ele><time>2026-03-29T09:38:21.999Z</time></trkpt><trkpt lat="45.44504528168828" lon="8.926792978518412"><ele>130.0</ele><time>2026-03-29T09:38:22.999Z</time></trkpt><trkpt lat="45.44495146116928" lon="8.92684249797227"><ele>130.0</ele><time>2026-03-29T09:38:23.999Z</time></trkpt><trkpt lat="45.444859346510746" lon="8.926927428556144"><ele>130.0</ele><time>2026-03-29T09:38:24.999Z</time></trkpt><trkpt lat="45.44478420762365" lon="8.927011390518215"><ele>130.0</ele><time>2026-03-29T09:38:25.999Z</time></trkpt><trkpt lat="45.44469903945454" lon="8.927104104732114"><ele>130.0</ele><time>2026-03-29T09:38:26.999Z</time></trkpt><trkpt lat="45.44461660850122" lon="8.927198378005073"><ele>130.0</ele><time>2026-03-29T09:38:27.999Z</time></trkpt><trkpt lat="45.444538925947555" lon="8.927302581348563"><ele>130.0</ele><time>2026-03-29T09:38:28.999Z</time></trkpt><trkpt lat="45.44445738776482" lon="8.927401509364255"><ele>130.0</ele><time>2026-03-29T09:38:29.999Z</time></trkpt><trkpt lat="45.44436391305947" lon="8.927505659602119"><ele>129.75</ele><time>2026-03-29T09:38:30.999Z</time></trkpt><trkpt lat="45.44424371813323" lon="8.92754785393692"><ele>129.5</ele><time>2026-03-29T09:38:31.999Z</time></trkpt><trkpt lat="45.44412415537652" lon="8.927598967657085"><ele>129.25</ele><time>2026-03-29T09:38:32.999Z</time></trkpt><trkpt lat="45.44400121747955" lon="8.927627823029493"><ele>129.0</ele><time>2026-03-29T09:38:33.999Z</time></trkpt><trkpt lat="45.443878897334784" lon="8.927664907026392"><ele>128.75</ele><time>2026-03-29T09:38:34.999Z</time></trkpt><trkpt lat="45.44375691671989" lon="8.927704090020859"><ele>128.5</ele><time>2026-03-29T09:38:35.999Z</time></trkpt><trkpt lat="45.44363012450363" lon="8.927743473822057"><ele>128.25</ele><time>2026-03-29T09:38:36.999Z</time></trkpt><trkpt lat="45.44349225519055" lon="8.927780345796698"><ele>128.0</ele><time>2026-03-29T09:38:37.999Z</time></trkpt><trkpt lat="45.44335472222302" lon="8.927818500983204"><ele>128.0</ele><time>2026-03-29T09:38:38.999Z</time></trkpt><trkpt lat="45.44320702471243" lon="8.927848504342046"><ele>128.0</ele><time>2026-03-29T09:38:39.999Z</time></trkpt><trkpt lat="45.443051361281434" lon="8.92789528769076"><ele>128.0</ele><time>2026-03-29T09:38:40.999Z</time></trkpt><trkpt lat="45.4428981536231" lon="8.927937267906927"><ele>127.66666666666666</ele><time>2026-03-29T09:38:41.999Z</time></trkpt><trkpt lat="45.44273505375069" lon="8.927985512311876"><ele>127.33333333333334</ele><time>2026-03-29T09:38:42.999Z</time></trkpt><trkpt lat="45.442565856604865" lon="8.928036106241796"><ele>127.0</ele><time>2026-03-29T09:38:43.999Z</time></trkpt><trkpt lat="45.44239023985405" lon="8.928081994077823"><ele>127.0</ele><time>2026-03-29T09:38:44.999Z</time></trkpt><trkpt lat="45.44220952626395" lon="8.92813352220091"><ele>127.0</ele><time>2026-03-29T09:38:45.999Z</time></trkpt><trkpt lat="45.44203290309181" lon="8.928183639347758"><ele>127.0</ele><time>2026-03-29T09:38:46.999Z</time></trkpt><trkpt lat="45.441868771163605" lon="8.928233093277102"><ele>127.0</ele><time>2026-03-29T09:38:47.999Z</time></trkpt><trkpt lat="45.44171524905873" lon="8.928279159508268"><ele>127.0</ele><time>2026-03-29T09:38:48.999Z</time></trkpt><trkpt lat="45.44157051480516" lon="8.928328397330024"><ele>127.0</ele><time>2026-03-29T09:38:49.999Z</time></trkpt><trkpt lat="45.44143291796205" lon="8.92836574545998"><ele>127.0</ele><time>2026-03-29T09:38:50.999Z</time></trkpt><trkpt lat="45.44129421246882" lon="8.92839339767161"><ele>127.25</ele><time>2026-03-29T09:38:51.999Z</time></trkpt><trkpt lat="45.44116254429859" lon="8.92837952853902"><ele>127.5</ele><time>2026-03-29T09:38:52.999Z</time></trkpt><trkpt lat="45.441039845290746" lon="8.928317005857984"><ele>127.75</ele><time>2026-03-29T09:38:53.999Z</time></trkpt><trkpt lat="45.440918121135894" lon="8.928251519825718"><ele>128.0</ele><time>2026-03-29T09:38:54.999Z</time></trkpt><trkpt lat="45.440779237381996" lon="8.928246570927271"><ele>128.0</ele><time>2026-03-29T09:38:55.999Z</time></trkpt><trkpt lat="45.44063097035797" lon="8.928292908573878"><ele>128.0</ele><time>2026-03-29T09:38:56.999Z</time></trkpt><trkpt lat="45.440476167261686" lon="8.928363781013813"><ele>128.0</ele><time>2026-03-29T09:38:57.999Z</time></trkpt><trkpt lat="45.44031252329916" lon="8.92843667633895"><ele>127.66666666666666</ele><time>2026-03-29T09:38:58.999Z</time></trkpt><trkpt lat="45.44014033244387" lon="8.928515365185422"><ele>127.33333333333334</ele><time>2026-03-29T09:38:59.999Z</time></trkpt><trkpt lat="45.43995401999114" lon="8.928605006923364"><ele>127.0</ele><time>2026-03-29T09:39:00.999Z</time></trkpt><trkpt lat="45.439759373875525" lon="8.928697384831283"><ele>126.33333333333334</ele><time>2026-03-29T09:39:01.999Z</time></trkpt><trkpt lat="45.43955982906068" lon="8.928806633634071"><ele>125.66666666666666</ele><time>2026-03-29T09:39:02.999Z</time></trkpt><trkpt lat="45.439349672180974" lon="8.928924704606626"><ele>125.0</ele><time>2026-03-29T09:39:03.999Z</time></trkpt><trkpt lat="45.43913922162494" lon="8.929040238236235"><ele>125.0</ele><time>2026-03-29T09:39:04.999Z</time></trkpt><trkpt lat="45.43892989877249" lon="8.929147325638425"><ele>125.0</ele><time>2026-03-29T09:39:05.999Z</time></trkpt><trkpt lat="45.438714704684706" lon="8.92925076220764"><ele>125.0</ele><time>2026-03-29T09:39:06.999Z</time></trkpt><trkpt lat="45.43850384572761" lon="8.929346071773464"><ele>125.0</ele><time>2026-03-29T09:39:07.999Z</time></trkpt><trkpt lat="45.438297357775404" lon="8.929451020273474"><ele>125.0</ele><time>2026-03-29T09:39:08.999Z</time></trkpt><trkpt lat="45.43809480485895" lon="8.929579656595513"><ele>125.0</ele><time>2026-03-29T09:39:09.999Z</time></trkpt><trkpt lat="45.43789555709685" lon="8.929726429008168"><ele>125.0</ele><time>2026-03-29T09:39:10.999Z</time></trkpt><trkpt lat="45.43769954797307" lon="8.929872059530378"><ele>125.0</ele><time>2026-03-29T09:39:11.999Z</time></trkpt><trkpt lat="45.43749945022954" lon="8.929998212614993"><ele>125.0</ele><time>2026-03-29T09:39:12.999Z</time></trkpt><trkpt lat="45.4372976062406" lon="8.93011451508095"><ele>125.33333333333333</ele><time>2026-03-29T09:39:13.999Z</time></trkpt><trkpt lat="45.437102745869915" lon="8.93021539759823"><ele>125.66666666666666</ele><time>2026-03-29T09:39:14.999Z</time></trkpt><trkpt lat="45.436910462361" lon="8.930294079152667"><ele>126.0</ele><time>2026-03-29T09:39:15.999Z</time></trkpt><trkpt lat="45.4367175325777" lon="8.930357311419892"><ele>126.0</ele><time>2026-03-29T09:39:16.999Z</time></trkpt><trkpt lat="45.436521226025754" lon="8.930415853027322"><ele>126.0</ele><time>2026-03-29T09:39:18Z</time></trkpt><trkpt lat="45.436342511778804" lon="8.930465671542043"><ele>126.0</ele><time>2026-03-29T09:39:19Z</time></trkpt><trkpt lat="45.43617798338557" lon="8.930514963433277"><ele>125.33333333333334</ele><time>2026-03-29T09:39:20Z</time></trkpt><trkpt lat="45.43601367463031" lon="8.930569460746316"><ele>124.66666666666667</ele><time>2026-03-29T09:39:21Z</time></trkpt><trkpt lat="45.435845203724234" lon="8.93062054465604"><ele>124.0</ele><time>2026-03-29T09:39:22Z</time></trkpt><trkpt lat="45.43567126163169" lon="8.930676365455927"><ele>124.0</ele><time>2026-03-29T09:39:23Z</time></trkpt><trkpt lat="45.435487635249224" lon="8.930740563440855"><ele>124.0</ele><time>2026-03-29T09:39:24Z</time></trkpt><trkpt lat="45.43530805998998" lon="8.93079268109914"><ele>124.0</ele><time>2026-03-29T09:39:25Z</time></trkpt><trkpt lat="45.435128360191996" lon="8.9308453093641"><ele>124.33333333333334</ele><time>2026-03-29T09:39:26Z</time></trkpt><trkpt lat="45.43495283631261" lon="8.930898497284618"><ele>124.66666666666666</ele><time>2026-03-29T09:39:27Z</time></trkpt><trkpt lat="45.434772861524664" lon="8.93095367697087"><ele>125.0</ele><time>2026-03-29T09:39:28Z</time></trkpt><trkpt lat="45.43459578309251" lon="8.931009295370078"><ele>125.33333333333333</ele><time>2026-03-29T09:39:29Z</time></trkpt><trkpt lat="45.43441359157185" lon="8.931073558876847"><ele>125.66666666666666</ele><time>2026-03-29T09:39:30Z</time></trkpt><trkpt lat="45.43423214212937" lon="8.931140624735638"><ele>126.0</ele><time>2026-03-29T09:39:31Z</time></trkpt><trkpt lat="45.434046873488086" lon="8.93120821428744"><ele>126.0</ele><time>2026-03-29T09:39:32Z</time></trkpt><trkpt lat="45.43385259252685" lon="8.931283021475517"><ele>126.0</ele><time>2026-03-29T09:39:33Z</time></trkpt><trkpt lat="45.43365686210366" lon="8.931356914457927"><ele>126.0</ele><time>2026-03-29T09:39:34Z</time></trkpt><trkpt lat="45.433475107688196" lon="8.93142012063607"><ele>125.66666666666666</ele><time>2026-03-29T09:39:35Z</time></trkpt><trkpt lat="45.433305020054554" lon="8.931483353184033"><ele>125.33333333333333</ele><time>2026-03-29T09:39:36Z</time></trkpt><trkpt lat="45.43314400967517" lon="8.931539098848477"><ele>125.0</ele><time>2026-03-29T09:39:37Z</time></trkpt><trkpt lat="45.43299454664448" lon="8.93158325667158"><ele>125.0</ele><time>2026-03-29T09:39:38Z</time></trkpt><trkpt lat="45.43285978632497" lon="8.93162899149052"><ele>125.0</ele><time>2026-03-29T09:39:39Z</time></trkpt><trkpt lat="45.43273971641218" lon="8.931675880348916"><ele>125.0</ele><time>2026-03-29T09:39:40Z</time></trkpt><trkpt lat="45.432635245185075" lon="8.931711340548645"><ele>125.0</ele><time>2026-03-29T09:39:41Z</time></trkpt><trkpt lat="45.43254640175359" lon="8.93173986581592"><ele>125.0</ele><time>2026-03-29T09:39:42Z</time></trkpt><trkpt lat="45.43246482071531" lon="8.931756185904858"><ele>125.0</ele><time>2026-03-29T09:39:43Z</time></trkpt><trkpt lat="45.432378504479715" lon="8.931742707648077"><ele>125.0</ele><time>2026-03-29T09:39:44Z</time></trkpt><trkpt lat="45.432304221081466" lon="8.931670521965582"><ele>125.0</ele><time>2026-03-29T09:39:45Z</time></trkpt><trkpt lat="45.432257347191545" lon="8.931542945264129"><ele>125.0</ele><time>2026-03-29T09:39:46Z</time></trkpt><trkpt lat="45.43223213984083" lon="8.931385062926283"><ele>124.75</ele><time>2026-03-29T09:39:47Z</time></trkpt><trkpt lat="45.43220871881756" lon="8.931219537045477"><ele>124.5</ele><time>2026-03-29T09:39:48Z</time></trkpt><trkpt lat="45.432180345339575" lon="8.931057006780758"><ele>124.25</ele><time>2026-03-29T09:39:49Z</time></trkpt><trkpt lat="45.43215154599769" lon="8.930880443862842"><ele>124.0</ele><time>2026-03-29T09:39:50Z</time></trkpt><trkpt lat="45.43212550858832" lon="8.930718390719754"><ele>124.0</ele><time>2026-03-29T09:39:51Z</time></trkpt><trkpt lat="45.43209923800933" lon="8.93057490378649"><ele>124.0</ele><time>2026-03-29T09:39:52Z</time></trkpt><trkpt lat="45.432079022235506" lon="8.930438900916627"><ele>124.0</ele><time>2026-03-29T09:39:53Z</time></trkpt><trkpt lat="45.43205998215144" lon="8.930313795530468"><ele>124.0</ele><time>2026-03-29T09:39:54Z</time></trkpt><trkpt lat="45.43203018952649" lon="8.930189882707765"><ele>124.0</ele><time>2026-03-29T09:39:55Z</time></trkpt><trkpt lat="45.43196413812559" lon="8.930087274105487"><ele>124.0</ele><time>2026-03-29T09:39:56Z</time></trkpt><trkpt lat="45.43186707901797" lon="8.930032281884658"><ele>124.0</ele><time>2026-03-29T09:39:57Z</time></trkpt><trkpt lat="45.43174466017105" lon="8.930026456038995"><ele>124.0</ele><time>2026-03-29T09:39:58Z</time></trkpt><trkpt lat="45.431615472724665" lon="8.93006847020418"><ele>124.0</ele><time>2026-03-29T09:39:59Z</time></trkpt><trkpt lat="45.43148442014703" lon="8.93012613535344"><ele>124.0</ele><time>2026-03-29T09:40:00Z</time></trkpt><trkpt lat="45.431353652005214" lon="8.930185854299049"><ele>124.0</ele><time>2026-03-29T09:40:01Z</time></trkpt><trkpt lat="45.43121056870685" lon="8.930241770874016"><ele>124.0</ele><time>2026-03-29T09:40:02Z</time></trkpt><trkpt lat="45.43107813877752" lon="8.93029707419846"><ele>124.0</ele><time>2026-03-29T09:40:03Z</time></trkpt><trkpt lat="45.4309395389265" lon="8.93035811310444"><ele>124.33333333333334</ele><time>2026-03-29T09:40:04Z</time></trkpt><trkpt lat="45.43079481787687" lon="8.930427551667629"><ele>124.66666666666666</ele><time>2026-03-29T09:40:05Z</time></trkpt><trkpt lat="45.430645062926985" lon="8.930489327541899"><ele>125.0</ele><time>2026-03-29T09:40:06Z</time></trkpt><trkpt lat="45.43049069809732" lon="8.930574891159516"><ele>124.66666666666666</ele><time>2026-03-29T09:40:07Z</time></trkpt><trkpt lat="45.430333932390326" lon="8.930641001143306"><ele>124.33333333333334</ele><time>2026-03-29T09:40:08Z</time></trkpt><trkpt lat="45.430176545537556" lon="8.930701736321225"><ele>124.0</ele><time>2026-03-29T09:40:09Z</time></trkpt><trkpt lat="45.43000675447001" lon="8.930773904729845"><ele>124.0</ele><time>2026-03-29T09:40:10Z</time></trkpt><trkpt lat="45.42983550918548" lon="8.930834542662412"><ele>124.0</ele><time>2026-03-29T09:40:11Z</time></trkpt><trkpt lat="45.42966092560535" lon="8.930901716828986"><ele>124.0</ele><time>2026-03-29T09:40:12Z</time></trkpt><trkpt lat="45.429486417900584" lon="8.930968098414555"><ele>123.66666666666667</ele><time>2026-03-29T09:40:13Z</time></trkpt><trkpt lat="45.42929997009386" lon="8.931028850289925"><ele>123.33333333333334</ele><time>2026-03-29T09:40:14Z</time></trkpt><trkpt lat="45.429105194545244" lon="8.931081358438917"><ele>123.0</ele><time>2026-03-29T09:40:15Z</time></trkpt><trkpt lat="45.428907450260766" lon="8.931128317824623"><ele>123.33333333333334</ele><time>2026-03-29T09:40:16Z</time></trkpt><trkpt lat="45.428704966529274" lon="8.931181932387537"><ele>123.66666666666667</ele><time>2026-03-29T09:40:17Z</time></trkpt><trkpt lat="45.42850973404318" lon="8.931222328239954"><ele>124.0</ele><time>2026-03-29T09:40:17.999Z</time></trkpt><trkpt lat="45.42832259135747" lon="8.931255895983401"><ele>124.0</ele><time>2026-03-29T09:40:18.999Z</time></trkpt><trkpt lat="45.42814659015323" lon="8.931296471552129"><ele>124.0</ele><time>2026-03-29T09:40:19.999Z</time></trkpt><trkpt lat="45.42796946210807" lon="8.931340785623703"><ele>124.0</ele><time>2026-03-29T09:40:20.999Z</time></trkpt><trkpt lat="45.427793106501696" lon="8.931386636001733"><ele>124.0</ele><time>2026-03-29T09:40:21.999Z</time></trkpt><trkpt lat="45.42762771086316" lon="8.931434054327239"><ele>124.0</ele><time>2026-03-29T09:40:22.999Z</time></trkpt><trkpt lat="45.42745891521966" lon="8.93146453332434"><ele>124.0</ele><time>2026-03-29T09:40:23.999Z</time></trkpt><trkpt lat="45.427275682064256" lon="8.931476284851565"><ele>124.33333333333334</ele><time>2026-03-29T09:40:24.999Z</time></trkpt><trkpt lat="45.42709277123437" lon="8.931464155451629"><ele>124.66666666666666</ele><time>2026-03-29T09:40:25.999Z</time></trkpt><trkpt lat="45.426901727041844" lon="8.93145767285031"><ele>125.0</ele><time>2026-03-29T09:40:26.999Z</time></trkpt><trkpt lat="45.42671351325529" lon="8.931459072080425"><ele>125.0</ele><time>2026-03-29T09:40:27.999Z</time></trkpt><trkpt lat="45.42654492368375" lon="8.931472824687832"><ele>125.0</ele><time>2026-03-29T09:40:28.999Z</time></trkpt><trkpt lat="45.42638828190092" lon="8.93150633876491"><ele>125.0</ele><time>2026-03-29T09:40:29.999Z</time></trkpt><trkpt lat="45.4262476797379" lon="8.931554371404768"><ele>124.5</ele><time>2026-03-29T09:40:30.999Z</time></trkpt><trkpt lat="45.42611559501089" lon="8.931613192118903"><ele>124.0</ele><time>2026-03-29T09:40:31.999Z</time></trkpt><trkpt lat="45.42600238847007" lon="8.931706395051474"><ele>123.5</ele><time>2026-03-29T09:40:32.999Z</time></trkpt><trkpt lat="45.425895629560046" lon="8.931827038778694"><ele>123.0</ele><time>2026-03-29T09:40:33.999Z</time></trkpt><trkpt lat="45.425796376467055" lon="8.931955826416301"><ele>123.0</ele><time>2026-03-29T09:40:34.999Z</time></trkpt><trkpt lat="45.42570857040021" lon="8.932072594350432"><ele>123.0</ele><time>2026-03-29T09:40:35.999Z</time></trkpt><trkpt lat="45.425615441410734" lon="8.932184472801813"><ele>123.0</ele><time>2026-03-29T09:40:36.999Z</time></trkpt><trkpt lat="45.425526740538075" lon="8.932290156738956"><ele>123.0</ele><time>2026-03-29T09:40:37.999Z</time></trkpt><trkpt lat="45.425436110096584" lon="8.932397605082237"><ele>123.0</ele><time>2026-03-29T09:40:38.999Z</time></trkpt><trkpt lat="45.425338003805514" lon="8.932504527328616"><ele>123.0</ele><time>2026-03-29T09:40:39.999Z</time></trkpt><trkpt lat="45.425232352247846" lon="8.932607927261294"><ele>123.0</ele><time>2026-03-29T09:40:40.999Z</time></trkpt><trkpt lat="45.42512439717079" lon="8.932706145169506"><ele>123.0</ele><time>2026-03-29T09:40:41.999Z</time></trkpt><trkpt lat="45.42502122121905" lon="8.93279539186226"><ele>123.0</ele><time>2026-03-29T09:40:42.999Z</time></trkpt><trkpt lat="45.42491983441998" lon="8.932883986694957"><ele>123.0</ele><time>2026-03-29T09:40:43.999Z</time></trkpt><trkpt lat="45.424812432753264" lon="8.932972420805157"><ele>123.0</ele><time>2026-03-29T09:40:44.999Z</time></trkpt><trkpt lat="45.42470311878449" lon="8.93306736688287"><ele>123.0</ele><time>2026-03-29T09:40:45.999Z</time></trkpt><trkpt lat="45.42460264458371" lon="8.933153087450899"><ele>122.80000000000001</ele><time>2026-03-29T09:40:46.999Z</time></trkpt><trkpt lat="45.42451151404796" lon="8.933231791682068"><ele>122.60000000000001</ele><time>2026-03-29T09:40:47.999Z</time></trkpt><trkpt lat="45.42442863462246" lon="8.933302624305972"><ele>122.39999999999999</ele><time>2026-03-29T09:40:48.999Z</time></trkpt><trkpt lat="45.424354316065624" lon="8.933364451505893"><ele>122.19999999999999</ele><time>2026-03-29T09:40:49.999Z</time></trkpt><trkpt lat="45.42427815880502" lon="8.933426309871097"><ele>122.0</ele><time>2026-03-29T09:40:50.999Z</time></trkpt><trkpt lat="45.42419600745286" lon="8.933494533618896"><ele>121.8</ele><time>2026-03-29T09:40:51.999Z</time></trkpt><trkpt lat="45.424119457757406" lon="8.933562080999156"><ele>121.6</ele><time>2026-03-29T09:40:52.999Z</time></trkpt><trkpt lat="45.42403667971644" lon="8.933640641619464"><ele>121.39999999999999</ele><time>2026-03-29T09:40:53.999Z</time></trkpt><trkpt lat="45.423953886437005" lon="8.93371691496188"><ele>121.19999999999999</ele><time>2026-03-29T09:40:54.999Z</time></trkpt><trkpt lat="45.42387265974046" lon="8.933803773773018"><ele>121.0</ele><time>2026-03-29T09:40:55.999Z</time></trkpt><trkpt lat="45.4237951561685" lon="8.933891785342157"><ele>121.16666666666667</ele><time>2026-03-29T09:40:56.999Z</time></trkpt><trkpt lat="45.423718397971264" lon="8.93397157964375"><ele>121.33333333333334</ele><time>2026-03-29T09:40:57.999Z</time></trkpt><trkpt lat="45.42364564768307" lon="8.934047137302333"><ele>121.5</ele><time>2026-03-29T09:40:58.999Z</time></trkpt><trkpt lat="45.42357927763397" lon="8.934118795233626"><ele>121.66666666666666</ele><time>2026-03-29T09:40:59.999Z</time></trkpt><trkpt lat="45.42351221272901" lon="8.93419579794199"><ele>121.83333333333333</ele><time>2026-03-29T09:41:00.999Z</time></trkpt><trkpt lat="45.42345069600231" lon="8.93425925411635"><ele>122.0</ele><time>2026-03-29T09:41:01.999Z</time></trkpt><trkpt lat="45.423389756559175" lon="8.934318223889612"><ele>122.0</ele><time>2026-03-29T09:41:02.999Z</time></trkpt><trkpt lat="45.4233339906869" lon="8.93437151520664"><ele>121.99999999999999</ele><time>2026-03-29T09:41:03.999Z</time></trkpt><trkpt lat="45.423239428599075" lon="8.93444089485982"><ele>121.99999999999999</ele><time>2026-03-29T09:41:05.999Z</time></trkpt><trkpt lat="45.42317065367903" lon="8.934520348691466"><ele>122.0</ele><time>2026-03-29T09:41:08.999Z</time></trkpt><trkpt lat="45.4230999047563" lon="8.934661875568112"><ele>122.0</ele><time>2026-03-29T09:41:10.999Z</time></trkpt><trkpt lat="45.42305094016582" lon="8.934735006966022"><ele>121.99999999999999</ele><time>2026-03-29T09:41:11.999Z</time></trkpt><trkpt lat="45.42300745634984" lon="8.934801048831357"><ele>122.0</ele><time>2026-03-29T09:41:12.999Z</time></trkpt><trkpt lat="45.42295746205828" lon="8.93487921187303"><ele>122.0</ele><time>2026-03-29T09:41:13.999Z</time></trkpt><trkpt lat="45.42290495644739" lon="8.934948491731872"><ele>122.0</ele><time>2026-03-29T09:41:14.999Z</time></trkpt><trkpt lat="45.422842722279604" lon="8.935022157719091"><ele>121.99999999999999</ele><time>2026-03-29T09:41:15.999Z</time></trkpt><trkpt lat="45.422772207119735" lon="8.935096829577256"><ele>122.0</ele><time>2026-03-29T09:41:16.999Z</time></trkpt><trkpt lat="45.4227011877516" lon="8.935172444183014"><ele>122.16666666666666</ele><time>2026-03-29T09:41:17.999Z</time></trkpt><trkpt lat="45.422628942567364" lon="8.935250011331247"><ele>122.33333333333333</ele><time>2026-03-29T09:41:18.999Z</time></trkpt><trkpt lat="45.42256493973619" lon="8.935338898176518"><ele>122.5</ele><time>2026-03-29T09:41:19.999Z</time></trkpt><trkpt lat="45.42249344018817" lon="8.935397552477449"><ele>122.66666666666666</ele><time>2026-03-29T09:41:20.999Z</time></trkpt><trkpt lat="45.42241493658334" lon="8.93543896313871"><ele>122.83333333333333</ele><time>2026-03-29T09:41:21.999Z</time></trkpt><trkpt lat="45.42234873837739" lon="8.935479329109045"><ele>123.0</ele><time>2026-03-29T09:41:22.999Z</time></trkpt><trkpt lat="45.42227868255995" lon="8.9355271653706"><ele>123.00000000000001</ele><time>2026-03-29T09:41:24Z</time></trkpt><trkpt lat="45.42221736449194" lon="8.935574122253643"><ele>123.0</ele><time>2026-03-29T09:41:25Z</time></trkpt><trkpt lat="45.42215236046934" lon="8.935619581420516"><ele>123.00000000000001</ele><time>2026-03-29T09:41:26Z</time></trkpt><trkpt lat="45.42209107116545" lon="8.935660659430372"><ele>123.00000000000001</ele><time>2026-03-29T09:41:27Z</time></trkpt><trkpt lat="45.422024699889754" lon="8.935696551519639"><ele>123.0</ele><time>2026-03-29T09:41:28Z</time></trkpt><trkpt lat="45.42195921883472" lon="8.935729323122873"><ele>123.00000000000001</ele><time>2026-03-29T09:41:29Z</time></trkpt><trkpt lat="45.42189045549033" lon="8.93575742223078"><ele>123.00000000000001</ele><time>2026-03-29T09:41:30Z</time></trkpt><trkpt lat="45.421823264465075" lon="8.935782753759604"><ele>123.4</ele><time>2026-03-29T09:41:31Z</time></trkpt><trkpt lat="45.42175789949259" lon="8.935809558625461"><ele>123.80000000000001</ele><time>2026-03-29T09:41:32Z</time></trkpt><trkpt lat="45.42165116298804" lon="8.935852232932552"><ele>124.2</ele><time>2026-03-29T09:41:34Z</time></trkpt><trkpt lat="45.4215506213741" lon="8.935900140161293"><ele>124.6</ele><time>2026-03-29T09:41:36Z</time></trkpt><trkpt lat="45.421456289619016" lon="8.935923399625079"><ele>125.0</ele><time>2026-03-29T09:41:38Z</time></trkpt><trkpt lat="45.42136450462043" lon="8.93597252199422"><ele>124.99999999999999</ele><time>2026-03-29T09:41:40Z</time></trkpt><trkpt lat="45.42129158088802" lon="8.93599180440155"><ele>125.0</ele><time>2026-03-29T09:41:42Z</time></trkpt><trkpt lat="45.42128874528009" lon="8.936083366370978"><ele>125.0</ele><time>2026-03-29T09:41:43Z</time></trkpt><trkpt lat="45.421268801883905" lon="8.936192734691012"><ele>125.0</ele><time>2026-03-29T09:41:51Z</time></trkpt><trkpt lat="45.42127407759681" lon="8.9362954915807"><ele>124.99999999999999</ele><time>2026-03-29T09:41:53Z</time></trkpt><trkpt lat="45.42127761268956" lon="8.936445539604646"><ele>125.0</ele><time>2026-03-29T09:41:55Z</time></trkpt><trkpt lat="45.421275095348676" lon="8.936621466710243"><ele>125.28571428571428</ele><time>2026-03-29T09:41:57Z</time></trkpt><trkpt lat="45.4212709011913" lon="8.936723663437206"><ele>125.57142857142858</ele><time>2026-03-29T09:41:58Z</time></trkpt><trkpt lat="45.421268725970336" lon="8.936830452535588"><ele>125.85714285714286</ele><time>2026-03-29T09:41:59Z</time></trkpt><trkpt lat="45.42127462153209" lon="8.936933811294157"><ele>126.14285714285714</ele><time>2026-03-29T09:42:00Z</time></trkpt><trkpt lat="45.4212773905441" lon="8.937035244009513"><ele>126.42857142857142</ele><time>2026-03-29T09:42:01Z</time></trkpt><trkpt lat="45.42127087012938" lon="8.937133706171451"><ele>126.71428571428572</ele><time>2026-03-29T09:42:02Z</time></trkpt><trkpt lat="45.421267016606684" lon="8.937233097237568"><ele>127.0</ele><time>2026-03-29T09:42:03Z</time></trkpt><trkpt lat="45.421269676277966" lon="8.937333570811852"><ele>127.0</ele><time>2026-03-29T09:42:04Z</time></trkpt><trkpt lat="45.421267741429816" lon="8.937435308525629"><ele>127.0</ele><time>2026-03-29T09:42:05Z</time></trkpt><trkpt lat="45.42126306390323" lon="8.937533495613405"><ele>127.0</ele><time>2026-03-29T09:42:06Z</time></trkpt><trkpt lat="45.42124914141805" lon="8.93762404244108"><ele>127.0</ele><time>2026-03-29T09:42:07Z</time></trkpt><trkpt lat="45.42124144341026" lon="8.937726757488122"><ele>127.0</ele><time>2026-03-29T09:42:08Z</time></trkpt><trkpt lat="45.42123976623801" lon="8.937829424934778"><ele>127.0</ele><time>2026-03-29T09:42:09Z</time></trkpt><trkpt lat="45.42124532616173" lon="8.937923224764905"><ele>127.0</ele><time>2026-03-29T09:42:10Z</time></trkpt><trkpt lat="45.42125123017165" lon="8.938016790133322"><ele>127.00000000000001</ele><time>2026-03-29T09:42:11Z</time></trkpt><trkpt lat="45.42126978671376" lon="8.938120280417564"><ele>127.0</ele><time>2026-03-29T09:42:12Z</time></trkpt><trkpt lat="45.42129890002007" lon="8.938230793438134"><ele>127.0</ele><time>2026-03-29T09:42:13Z</time></trkpt><trkpt lat="45.421332258407595" lon="8.938334942811611"><ele>127.0</ele><time>2026-03-29T09:42:14Z</time></trkpt><trkpt lat="45.42136067565214" lon="8.93842247926195"><ele>127.00000000000001</ele><time>2026-03-29T09:42:15Z</time></trkpt><trkpt lat="45.421385338256044" lon="8.938522486398943"><ele>127.0</ele><time>2026-03-29T09:42:16Z</time></trkpt><trkpt lat="45.42140946660762" lon="8.938622395404458"><ele>126.6</ele><time>2026-03-29T09:42:17Z</time></trkpt><trkpt lat="45.421426307756434" lon="8.938718977933682"><ele>126.19999999999999</ele><time>2026-03-29T09:42:18Z</time></trkpt><trkpt lat="45.42144166362945" lon="8.93880827093528"><ele>125.8</ele><time>2026-03-29T09:42:19Z</time></trkpt><trkpt lat="45.42143550281351" lon="8.938976676279646"><ele>125.4</ele><time>2026-03-29T09:42:21Z</time></trkpt><trkpt lat="45.42132148361152" lon="8.93908999510887"><ele>125.0</ele><time>2026-03-29T09:42:23Z</time></trkpt><trkpt lat="45.42126432166009" lon="8.939131092746793"><ele>125.0</ele><time>2026-03-29T09:42:24Z</time></trkpt><trkpt lat="45.42119353920651" lon="8.939171512531969"><ele>125.0</ele><time>2026-03-29T09:42:25Z</time></trkpt><trkpt lat="45.421111441521255" lon="8.9392034072202"><ele>125.0</ele><time>2026-03-29T09:42:26Z</time></trkpt><trkpt lat="45.421015531262775" lon="8.939239425622672"><ele>125.0</ele><time>2026-03-29T09:42:27Z</time></trkpt><trkpt lat="45.42091722838911" lon="8.939276179833563"><ele>125.0</ele><time>2026-03-29T09:42:28Z</time></trkpt><trkpt lat="45.420829658709025" lon="8.93931955890398"><ele>124.71428571428571</ele><time>2026-03-29T09:42:29Z</time></trkpt><trkpt lat="45.42074637585023" lon="8.939350408973779"><ele>124.42857142857144</ele><time>2026-03-29T09:42:29.999Z</time></trkpt><trkpt lat="45.42067296634306" lon="8.939371103400603"><ele>124.14285714285715</ele><time>2026-03-29T09:42:30.999Z</time></trkpt><trkpt lat="45.42061586892639" lon="8.939410768727253"><ele>123.85714285714286</ele><time>2026-03-29T09:42:31.999Z</time></trkpt><trkpt lat="45.4205861760037" lon="8.939490593570405"><ele>123.57142857142858</ele><time>2026-03-29T09:42:32.999Z</time></trkpt><trkpt lat="45.42058316539863" lon="8.93959765624136"><ele>123.2857142857143</ele><time>2026-03-29T09:42:33.999Z</time></trkpt><trkpt lat="45.420614509837684" lon="8.939694577741138"><ele>123.00000000000001</ele><time>2026-03-29T09:42:34.999Z</time></trkpt><trkpt lat="45.42064096025802" lon="8.939792935264709"><ele>123.0</ele><time>2026-03-29T09:42:35.999Z</time></trkpt><trkpt lat="45.42065136746015" lon="8.939968476200205"><ele>123.0</ele><time>2026-03-29T09:42:37.999Z</time></trkpt><trkpt lat="45.42054544470457" lon="8.940125476897007"><ele>123.0</ele><time>2026-03-29T09:42:39.999Z</time></trkpt><trkpt lat="45.420471906785544" lon="8.940201792936353"><ele>123.0</ele><time>2026-03-29T09:42:40.999Z</time></trkpt><trkpt lat="45.42040174086317" lon="8.940269810783485"><ele>123.0</ele><time>2026-03-29T09:42:41.999Z</time></trkpt><trkpt lat="45.42033197859379" lon="8.940335746765705"><ele>123.0</ele><time>2026-03-29T09:42:42.999Z</time></trkpt><trkpt lat="45.4202711227595" lon="8.940399463600503"><ele>123.0</ele><time>2026-03-29T09:42:43.999Z</time></trkpt><trkpt lat="45.42020459538913" lon="8.940456771226483"><ele>123.0</ele><time>2026-03-29T09:42:44.999Z</time></trkpt><trkpt lat="45.420126536260064" lon="8.94048947748503"><ele>123.0</ele><time>2026-03-29T09:42:45.999Z</time></trkpt><trkpt lat="45.420032247958105" lon="8.940481832073514"><ele>123.0</ele><time>2026-03-29T09:42:46.999Z</time></trkpt><trkpt lat="45.4199357426617" lon="8.940474021101004"><ele>123.0</ele><time>2026-03-29T09:42:47.999Z</time></trkpt><trkpt lat="45.4198443745935" lon="8.940471986982743"><ele>123.00000000000001</ele><time>2026-03-29T09:42:48.999Z</time></trkpt><trkpt lat="45.419751689531545" lon="8.940481083341544"><ele>123.00000000000001</ele><time>2026-03-29T09:42:49.999Z</time></trkpt><trkpt lat="45.41965873808958" lon="8.94049288907033"><ele>123.0</ele><time>2026-03-29T09:42:50.999Z</time></trkpt><trkpt lat="45.41956483151416" lon="8.940510354317695"><ele>123.0</ele><time>2026-03-29T09:42:51.999Z</time></trkpt><trkpt lat="45.419473272845515" lon="8.94054333072468"><ele>123.2</ele><time>2026-03-29T09:42:52.999Z</time></trkpt><trkpt lat="45.419374291756824" lon="8.940582686584555"><ele>123.4</ele><time>2026-03-29T09:42:53.999Z</time></trkpt><trkpt lat="45.41926929117993" lon="8.940633290891288"><ele>123.60000000000001</ele><time>2026-03-29T09:42:54.999Z</time></trkpt><trkpt lat="45.41916636233678" lon="8.94068554785964"><ele>123.80000000000001</ele><time>2026-03-29T09:42:55.999Z</time></trkpt><trkpt lat="45.419072984370054" lon="8.940736705431085"><ele>124.0</ele><time>2026-03-29T09:42:56.999Z</time></trkpt><trkpt lat="45.41898193913714" lon="8.940787954903056"><ele>124.0</ele><time>2026-03-29T09:42:57.999Z</time></trkpt><trkpt lat="45.41890094164796" lon="8.940834719516928"><ele>124.0</ele><time>2026-03-29T09:42:58.999Z</time></trkpt><trkpt lat="45.41881505357846" lon="8.940874991950611"><ele>124.0</ele><time>2026-03-29T09:42:59.999Z</time></trkpt><trkpt lat="45.418727081953726" lon="8.940918004992671"><ele>124.0</ele><time>2026-03-29T09:43:00.999Z</time></trkpt><trkpt lat="45.418638472169405" lon="8.940949607335407"><ele>124.0</ele><time>2026-03-29T09:43:01.999Z</time></trkpt><trkpt lat="45.41854574804052" lon="8.940969635970193"><ele>123.6</ele><time>2026-03-29T09:43:02.999Z</time></trkpt><trkpt lat="45.4184488441209" lon="8.94099051094268"><ele>123.2</ele><time>2026-03-29T09:43:03.999Z</time></trkpt><trkpt lat="45.418349798103264" lon="8.941005757481651"><ele>122.79999999999998</ele><time>2026-03-29T09:43:04.999Z</time></trkpt><trkpt lat="45.41825994109007" lon="8.941008591869082"><ele>122.39999999999999</ele><time>2026-03-29T09:43:05.999Z</time></trkpt><trkpt lat="45.41817529936566" lon="8.94100422574662"><ele>122.0</ele><time>2026-03-29T09:43:06.999Z</time></trkpt><trkpt lat="45.4180827168355" lon="8.940990706803413"><ele>121.99999999999999</ele><time>2026-03-29T09:43:07.999Z</time></trkpt><trkpt lat="45.41798973107361" lon="8.940984170301236"><ele>122.0</ele><time>2026-03-29T09:43:08.999Z</time></trkpt><trkpt lat="45.41789329072178" lon="8.940980479933652"><ele>122.0</ele><time>2026-03-29T09:43:09.999Z</time></trkpt><trkpt lat="45.41779825639522" lon="8.940982501416144"><ele>122.0</ele><time>2026-03-29T09:43:10.999Z</time></trkpt><trkpt lat="45.41771286234228" lon="8.940975621614184"><ele>121.99999999999999</ele><time>2026-03-29T09:43:11.999Z</time></trkpt><trkpt lat="45.41764096786853" lon="8.940967166408653"><ele>122.0</ele><time>2026-03-29T09:43:12.999Z</time></trkpt><trkpt lat="45.41756653542271" lon="8.940961907438163"><ele>121.83333333333333</ele><time>2026-03-29T09:43:13.999Z</time></trkpt><trkpt lat="45.41749461554751" lon="8.940952406467328"><ele>121.66666666666666</ele><time>2026-03-29T09:43:14.999Z</time></trkpt><trkpt lat="45.417413957523245" lon="8.940940759812898"><ele>121.5</ele><time>2026-03-29T09:43:15.999Z</time></trkpt><trkpt lat="45.417334086926076" lon="8.940937242342784"><ele>121.33333333333334</ele><time>2026-03-29T09:43:16.999Z</time></trkpt><trkpt lat="45.41725041214468" lon="8.940942194417604"><ele>121.16666666666667</ele><time>2026-03-29T09:43:17.999Z</time></trkpt><trkpt lat="45.41715872820582" lon="8.94095198175509"><ele>121.0</ele><time>2026-03-29T09:43:18.999Z</time></trkpt><trkpt lat="45.41705548934474" lon="8.940972220859603"><ele>121.0</ele><time>2026-03-29T09:43:19.999Z</time></trkpt><trkpt lat="45.41696883094173" lon="8.941006513567583"><ele>121.0</ele><time>2026-03-29T09:43:20.999Z</time></trkpt><trkpt lat="45.41688277339708" lon="8.941026969953082"><ele>121.0</ele><time>2026-03-29T09:43:21.999Z</time></trkpt><trkpt lat="45.416804315931145" lon="8.941066680461628"><ele>121.0</ele><time>2026-03-29T09:43:22.999Z</time></trkpt><trkpt lat="45.416689676371625" lon="8.94100407663705"><ele>121.0</ele><time>2026-03-29T09:43:23.999Z</time></trkpt><trkpt lat="45.41658896264301" lon="8.940993334240238"><ele>121.0</ele><time>2026-03-29T09:43:24.999Z</time></trkpt><trkpt lat="45.41649932179376" lon="8.941014049917722"><ele>121.0</ele><time>2026-03-29T09:43:25.999Z</time></trkpt><trkpt lat="45.416419392605675" lon="8.941059421209657"><ele>121.0</ele><time>2026-03-29T09:43:26.999Z</time></trkpt><trkpt lat="45.41638772249068" lon="8.941197126174096"><ele>121.0</ele><time>2026-03-29T09:43:27.999Z</time></trkpt><trkpt lat="45.416366626213666" lon="8.941320572716265"><ele>121.0</ele><time>2026-03-29T09:43:28.999Z</time></trkpt><trkpt lat="45.41639684252558" lon="8.941460131142525"><ele>121.0</ele><time>2026-03-29T09:43:30Z</time></trkpt><trkpt lat="45.41649767169988" lon="8.941559486049803"><ele>121.0</ele><time>2026-03-29T09:43:31Z</time></trkpt><trkpt lat="45.41659269760914" lon="8.941648811401448"><ele>121.0</ele><time>2026-03-29T09:43:32Z</time></trkpt><trkpt lat="45.41668310957757" lon="8.94174810903183"><ele>121.0</ele><time>2026-03-29T09:43:33Z</time></trkpt><trkpt lat="45.416750046709346" lon="8.941875292728268"><ele>121.0</ele><time>2026-03-29T09:43:34Z</time></trkpt><trkpt lat="45.41679886701223" lon="8.942013913654785"><ele>121.0</ele><time>2026-03-29T09:43:35Z</time></trkpt><trkpt lat="45.416843591664936" lon="8.94214977982507"><ele>121.0</ele><time>2026-03-29T09:43:36Z</time></trkpt><trkpt lat="45.41688879496631" lon="8.942280894950622"><ele>121.0</ele><time>2026-03-29T09:43:37Z</time></trkpt><trkpt lat="45.41692971600098" lon="8.94241109251111"><ele>121.0</ele><time>2026-03-29T09:43:38Z</time></trkpt><trkpt lat="45.416969359007965" lon="8.942518394466406"><ele>121.0</ele><time>2026-03-29T09:43:39Z</time></trkpt><trkpt lat="45.41701021675529" lon="8.94260739746878"><ele>121.0</ele><time>2026-03-29T09:43:40Z</time></trkpt><trkpt lat="45.41706400541429" lon="8.94266601749068"><ele>121.0</ele><time>2026-03-29T09:43:41Z</time></trkpt><trkpt lat="45.41705121182692" lon="8.942791223169895"><ele>121.0</ele><time>2026-03-29T09:43:43Z</time></trkpt><trkpt lat="45.417220946369945" lon="8.942791770430164"><ele>121.0</ele><time>2026-03-29T09:43:46Z</time></trkpt><trkpt lat="45.417254027629845" lon="8.942871907796713"><ele>121.0</ele><time>2026-03-29T09:43:49Z</time></trkpt><trkpt lat="45.41730026602115" lon="8.942948848388111"><ele>121.0</ele><time>2026-03-29T09:46:26Z</time></trkpt><trkpt lat="45.417283731391166" lon="8.943055464918954"><ele>121.0</ele><time>2026-03-29T09:46:31Z</time></trkpt><trkpt lat="45.41714681978966" lon="8.942953533747547"><ele>121.0</ele><time>2026-03-29T09:48:25Z</time></trkpt><trkpt lat="45.41711119911525" lon="8.94280801924682"><ele>121.0</ele><time>2026-03-29T09:48:27Z</time></trkpt><trkpt lat="45.41705173677519" lon="8.942650935185052"><ele>121.0</ele><time>2026-03-29T09:48:29Z</time></trkpt><trkpt lat="45.41701646219113" lon="8.942550288439433"><ele>121.0</ele><time>2026-03-29T09:48:30Z</time></trkpt><trkpt lat="45.41698062622011" lon="8.942445669267688"><ele>121.0</ele><time>2026-03-29T09:48:31Z</time></trkpt><trkpt lat="45.41693930756766" lon="8.942323920116813"><ele>121.0</ele><time>2026-03-29T09:48:32Z</time></trkpt><trkpt lat="45.41689592352908" lon="8.942192872703188"><ele>121.0</ele><time>2026-03-29T09:48:33Z</time></trkpt><trkpt lat="45.41685244385454" lon="8.942058418830655"><ele>121.00000000000001</ele><time>2026-03-29T09:48:34Z</time></trkpt><trkpt lat="45.41681545802122" lon="8.941940834592492"><ele>121.0</ele><time>2026-03-29T09:48:35Z</time></trkpt><trkpt lat="45.4167818846513" lon="8.941831995021408"><ele>121.0</ele><time>2026-03-29T09:48:36Z</time></trkpt><trkpt lat="45.41675475832034" lon="8.941730438698164"><ele>121.0</ele><time>2026-03-29T09:48:37Z</time></trkpt><trkpt lat="45.41673316531437" lon="8.941617222431937"><ele>121.00000000000001</ele><time>2026-03-29T09:48:38Z</time></trkpt><trkpt lat="45.41673508267606" lon="8.9414970209392"><ele>121.0</ele><time>2026-03-29T09:48:39Z</time></trkpt><trkpt lat="45.41675329120181" lon="8.94137638147296"><ele>121.00000000000001</ele><time>2026-03-29T09:48:40Z</time></trkpt><trkpt lat="45.41676732402076" lon="8.941259689347964"><ele>121.0</ele><time>2026-03-29T09:48:41Z</time></trkpt><trkpt lat="45.41675057165059" lon="8.941147231791389"><ele>121.0</ele><time>2026-03-29T09:48:42Z</time></trkpt><trkpt lat="45.41671630616637" lon="8.941041117170956"><ele>121.0</ele><time>2026-03-29T09:48:43Z</time></trkpt><trkpt lat="45.41662167706905" lon="8.940990594186879"><ele>121.00000000000001</ele><time>2026-03-29T09:48:44Z</time></trkpt><trkpt lat="45.41653398057694" lon="8.940985926274701"><ele>121.0</ele><time>2026-03-29T09:48:45Z</time></trkpt><trkpt lat="45.41644680801314" lon="8.941025665872605"><ele>121.0</ele><time>2026-03-29T09:48:46Z</time></trkpt><trkpt lat="45.41638179879385" lon="8.941112159217957"><ele>121.0</ele><time>2026-03-29T09:48:47Z</time></trkpt><trkpt lat="45.41632819321239" lon="8.941211268924029"><ele>121.0</ele><time>2026-03-29T09:48:48Z</time></trkpt><trkpt lat="45.416264447422165" lon="8.941309185538945"><ele>121.0</ele><time>2026-03-29T09:48:49Z</time></trkpt><trkpt lat="45.41622656352638" lon="8.941426952181295"><ele>121.0</ele><time>2026-03-29T09:48:50Z</time></trkpt><trkpt lat="45.41607949220079" lon="8.941428100741744"><ele>121.0</ele><time>2026-03-29T09:48:51Z</time></trkpt><trkpt lat="45.415962299196195" lon="8.94146053246296"><ele>121.0</ele><time>2026-03-29T09:48:52Z</time></trkpt><trkpt lat="45.415854604987594" lon="8.941516127567963"><ele>121.0</ele><time>2026-03-29T09:48:52.999Z</time></trkpt><trkpt lat="45.415749718877905" lon="8.941601768585961"><ele>121.0</ele><time>2026-03-29T09:48:53.999Z</time></trkpt><trkpt lat="45.41565604273819" lon="8.941701308443577"><ele>121.0</ele><time>2026-03-29T09:48:54.999Z</time></trkpt><trkpt lat="45.415557629639" lon="8.941798795218762"><ele>121.0</ele><time>2026-03-29T09:48:55.999Z</time></trkpt><trkpt lat="45.415448424371945" lon="8.941903822120645"><ele>121.0</ele><time>2026-03-29T09:48:56.999Z</time></trkpt><trkpt lat="45.41533894904389" lon="8.942001348697522"><ele>121.0</ele><time>2026-03-29T09:48:57.999Z</time></trkpt><trkpt lat="45.4152209567217" lon="8.942089929456191"><ele>120.75</ele><time>2026-03-29T09:48:58.999Z</time></trkpt><trkpt lat="45.41509210928145" lon="8.942175702147054"><ele>120.5</ele><time>2026-03-29T09:48:59.999Z</time></trkpt><trkpt lat="45.41496043562181" lon="8.942251915940446"><ele>120.25</ele><time>2026-03-29T09:49:00.999Z</time></trkpt><trkpt lat="45.414828871637305" lon="8.942318893603773"><ele>120.0</ele><time>2026-03-29T09:49:01.999Z</time></trkpt><trkpt lat="45.41469753559685" lon="8.942384839322855"><ele>120.25</ele><time>2026-03-29T09:49:02.999Z</time></trkpt><trkpt lat="45.41456640739043" lon="8.942454796525134"><ele>120.5</ele><time>2026-03-29T09:49:03.999Z</time></trkpt><trkpt lat="45.41444166841765" lon="8.942528491956834"><ele>120.75</ele><time>2026-03-29T09:49:04.999Z</time></trkpt><trkpt lat="45.41431989530833" lon="8.94261400033181"><ele>121.0</ele><time>2026-03-29T09:49:05.999Z</time></trkpt><trkpt lat="45.41420503804947" lon="8.942706092775182"><ele>121.0</ele><time>2026-03-29T09:49:06.999Z</time></trkpt><trkpt lat="45.414089744779076" lon="8.94281781155937"><ele>121.0</ele><time>2026-03-29T09:49:07.999Z</time></trkpt><trkpt lat="45.41397807271123" lon="8.942935464951088"><ele>121.0</ele><time>2026-03-29T09:49:08.999Z</time></trkpt><trkpt lat="45.41386626916351" lon="8.943057344302272"><ele>121.0</ele><time>2026-03-29T09:49:09.999Z</time></trkpt><trkpt lat="45.41376048953837" lon="8.943195577115333"><ele>121.0</ele><time>2026-03-29T09:49:10.999Z</time></trkpt><trkpt lat="45.41365982002566" lon="8.943343935115978"><ele>121.0</ele><time>2026-03-29T09:49:11.999Z</time></trkpt><trkpt lat="45.413555496658205" lon="8.943499021782817"><ele>121.0</ele><time>2026-03-29T09:49:12.999Z</time></trkpt><trkpt lat="45.41344791048851" lon="8.943655416515837"><ele>121.0</ele><time>2026-03-29T09:49:13.999Z</time></trkpt><trkpt lat="45.41333531416063" lon="8.943806616392143"><ele>120.66666666666667</ele><time>2026-03-29T09:49:14.999Z</time></trkpt><trkpt lat="45.41321974318999" lon="8.943960797036786"><ele>120.33333333333334</ele><time>2026-03-29T09:49:15.999Z</time></trkpt><trkpt lat="45.41310157737088" lon="8.944117083072612"><ele>120.0</ele><time>2026-03-29T09:49:16.999Z</time></trkpt><trkpt lat="45.41298063061461" lon="8.944274042598655"><ele>119.66666666666666</ele><time>2026-03-29T09:49:17.999Z</time></trkpt><trkpt lat="45.41286074097274" lon="8.944426589056176"><ele>119.33333333333333</ele><time>2026-03-29T09:49:18.999Z</time></trkpt><trkpt lat="45.412745407001346" lon="8.944584100634724"><ele>119.0</ele><time>2026-03-29T09:49:19.999Z</time></trkpt><trkpt lat="45.4126355377715" lon="8.944765190255419"><ele>119.0</ele><time>2026-03-29T09:49:20.999Z</time></trkpt><trkpt lat="45.41253826434245" lon="8.944947271526825"><ele>119.0</ele><time>2026-03-29T09:49:21.999Z</time></trkpt><trkpt lat="45.41244808232829" lon="8.945138680879008"><ele>119.0</ele><time>2026-03-29T09:49:22.999Z</time></trkpt><trkpt lat="45.41236598305161" lon="8.945330877359913"><ele>119.25</ele><time>2026-03-29T09:49:23.999Z</time></trkpt><trkpt lat="45.41228955705832" lon="8.945510181897273"><ele>119.5</ele><time>2026-03-29T09:49:24.999Z</time></trkpt><trkpt lat="45.41220593196614" lon="8.945670200207692"><ele>119.75</ele><time>2026-03-29T09:49:25.999Z</time></trkpt><trkpt lat="45.4121012773072" lon="8.945813917759862"><ele>120.0</ele><time>2026-03-29T09:49:26.999Z</time></trkpt><trkpt lat="45.41197772707761" lon="8.94593120353008"><ele>119.33333333333334</ele><time>2026-03-29T09:49:27.999Z</time></trkpt><trkpt lat="45.41183817920785" lon="8.946025975137713"><ele>118.66666666666667</ele><time>2026-03-29T09:49:28.999Z</time></trkpt><trkpt lat="45.4116836041244" lon="8.946096519701234"><ele>118.0</ele><time>2026-03-29T09:49:29.999Z</time></trkpt><trkpt lat="45.41152935078495" lon="8.94617537157138"><ele>118.0</ele><time>2026-03-29T09:49:30.999Z</time></trkpt><trkpt lat="45.41136874175747" lon="8.946264915884516"><ele>118.0</ele><time>2026-03-29T09:49:31.999Z</time></trkpt><trkpt lat="45.411215020581444" lon="8.946350326941992"><ele>118.0</ele><time>2026-03-29T09:49:32.999Z</time></trkpt><trkpt lat="45.41106070642087" lon="8.94642564980532"><ele>118.0</ele><time>2026-03-29T09:49:33.999Z</time></trkpt><trkpt lat="45.410904121636" lon="8.946503781380931"><ele>118.0</ele><time>2026-03-29T09:49:34.999Z</time></trkpt><trkpt lat="45.41074766936235" lon="8.946585293699606"><ele>118.0</ele><time>2026-03-29T09:49:35.999Z</time></trkpt><trkpt lat="45.41059165857222" lon="8.946667400808256"><ele>117.5</ele><time>2026-03-29T09:49:36.999Z</time></trkpt><trkpt lat="45.410448726465965" lon="8.946739292772154"><ele>117.0</ele><time>2026-03-29T09:49:37.999Z</time></trkpt><trkpt lat="45.41031418566564" lon="8.946800907162011"><ele>116.5</ele><time>2026-03-29T09:49:38.999Z</time></trkpt><trkpt lat="45.41018481033181" lon="8.94686577437705"><ele>116.0</ele><time>2026-03-29T09:49:39.999Z</time></trkpt><trkpt lat="45.41005579390614" lon="8.94694558915015"><ele>116.0</ele><time>2026-03-29T09:49:40.999Z</time></trkpt><trkpt lat="45.40992560893809" lon="8.947064825361277"><ele>116.0</ele><time>2026-03-29T09:49:41.999Z</time></trkpt><trkpt lat="45.40980931278823" lon="8.947227003750397"><ele>116.0</ele><time>2026-03-29T09:49:42.999Z</time></trkpt><trkpt lat="45.40969859765928" lon="8.947404853741828"><ele>115.66666666666666</ele><time>2026-03-29T09:49:43.999Z</time></trkpt><trkpt lat="45.40958823874865" lon="8.947586282490102"><ele>115.33333333333334</ele><time>2026-03-29T09:49:44.999Z</time></trkpt><trkpt lat="45.40947447127038" lon="8.947764996589827"><ele>115.0</ele><time>2026-03-29T09:49:45.999Z</time></trkpt><trkpt lat="45.40935719949511" lon="8.947941841835988"><ele>115.0</ele><time>2026-03-29T09:49:46.999Z</time></trkpt><trkpt lat="45.40924152153098" lon="8.948115565018014"><ele>115.0</ele><time>2026-03-29T09:49:48Z</time></trkpt><trkpt lat="45.40912616651225" lon="8.948299517421344"><ele>115.0</ele><time>2026-03-29T09:49:49Z</time></trkpt><trkpt lat="45.40901074841009" lon="8.948482263007271"><ele>116.0</ele><time>2026-03-29T09:49:50Z</time></trkpt><trkpt lat="45.40888760772942" lon="8.948664153841811"><ele>117.0</ele><time>2026-03-29T09:49:51Z</time></trkpt><trkpt lat="45.40876048237925" lon="8.948835727314625"><ele>118.0</ele><time>2026-03-29T09:49:52Z</time></trkpt><trkpt lat="45.4086294418342" lon="8.948986731218676"><ele>118.0</ele><time>2026-03-29T09:49:53Z</time></trkpt><trkpt lat="45.40849326527415" lon="8.949138163431217"><ele>118.0</ele><time>2026-03-29T09:49:54Z</time></trkpt><trkpt lat="45.40835857629542" lon="8.949290262545217"><ele>118.0</ele><time>2026-03-29T09:49:55Z</time></trkpt><trkpt lat="45.40822457299827" lon="8.949443291504478"><ele>117.66666666666667</ele><time>2026-03-29T09:49:56Z</time></trkpt><trkpt lat="45.40808641624819" lon="8.94960823839184"><ele>117.33333333333334</ele><time>2026-03-29T09:49:57Z</time></trkpt><trkpt lat="45.40795140954786" lon="8.949785932789563"><ele>117.0</ele><time>2026-03-29T09:49:58Z</time></trkpt><trkpt lat="45.40781674931424" lon="8.949968002422322"><ele>117.66666666666666</ele><time>2026-03-29T09:49:59Z</time></trkpt><trkpt lat="45.407693585034885" lon="8.950142528981091"><ele>118.33333333333333</ele><time>2026-03-29T09:50:00Z</time></trkpt><trkpt lat="45.40756164776565" lon="8.95031425767886"><ele>119.0</ele><time>2026-03-29T09:50:01Z</time></trkpt><trkpt lat="45.407420346002056" lon="8.950477398640416"><ele>119.0</ele><time>2026-03-29T09:50:02Z</time></trkpt><trkpt lat="45.40727084221265" lon="8.950627856722965"><ele>119.0</ele><time>2026-03-29T09:50:03Z</time></trkpt><trkpt lat="45.40711590425217" lon="8.950772149525642"><ele>119.0</ele><time>2026-03-29T09:50:04Z</time></trkpt><trkpt lat="45.40694907775207" lon="8.950918010154682"><ele>118.33333333333333</ele><time>2026-03-29T09:50:05Z</time></trkpt><trkpt lat="45.40677297747245" lon="8.951047271978071"><ele>117.66666666666666</ele><time>2026-03-29T09:50:06Z</time></trkpt><trkpt lat="45.40658363084106" lon="8.95116780913513"><ele>117.0</ele><time>2026-03-29T09:50:07Z</time></trkpt><trkpt lat="45.40638513977986" lon="8.951274850285202"><ele>117.33333333333334</ele><time>2026-03-29T09:50:08Z</time></trkpt><trkpt lat="45.40618089124278" lon="8.951369414372147"><ele>117.66666666666667</ele><time>2026-03-29T09:50:09Z</time></trkpt><trkpt lat="45.405974709556034" lon="8.951448667547352"><ele>118.0</ele><time>2026-03-29T09:50:10Z</time></trkpt><trkpt lat="45.40576755032769" lon="8.951525642150642"><ele>118.0</ele><time>2026-03-29T09:50:11Z</time></trkpt><trkpt lat="45.40556528421366" lon="8.951603824423145"><ele>118.0</ele><time>2026-03-29T09:50:12Z</time></trkpt><trkpt lat="45.4053567587985" lon="8.951677528479237"><ele>118.0</ele><time>2026-03-29T09:50:13Z</time></trkpt><trkpt lat="45.40514320697312" lon="8.951750867233617"><ele>118.0</ele><time>2026-03-29T09:50:14Z</time></trkpt><trkpt lat="45.404928326390994" lon="8.951820703335414"><ele>118.0</ele><time>2026-03-29T09:50:15Z</time></trkpt><trkpt lat="45.4047120209004" lon="8.951889957932938"><ele>118.0</ele><time>2026-03-29T09:50:16Z</time></trkpt><trkpt lat="45.404502984089895" lon="8.951958536590222"><ele>117.0</ele><time>2026-03-29T09:50:17Z</time></trkpt><trkpt lat="45.40429949110053" lon="8.95202701533289"><ele>116.0</ele><time>2026-03-29T09:50:18Z</time></trkpt><trkpt lat="45.404097918880325" lon="8.952104418635795"><ele>115.0</ele><time>2026-03-29T09:50:19Z</time></trkpt><trkpt lat="45.403904396523956" lon="8.952178401048922"><ele>115.66666666666667</ele><time>2026-03-29T09:50:20Z</time></trkpt><trkpt lat="45.403709605955285" lon="8.952247833474443"><ele>116.33333333333334</ele><time>2026-03-29T09:50:21Z</time></trkpt><trkpt lat="45.40351323936828" lon="8.952309539802929"><ele>117.0</ele><time>2026-03-29T09:50:22Z</time></trkpt><trkpt lat="45.40332204209165" lon="8.95238365356033"><ele>117.0</ele><time>2026-03-29T09:50:23Z</time></trkpt><trkpt lat="45.403124486188766" lon="8.952451815401787"><ele>117.0</ele><time>2026-03-29T09:50:24Z</time></trkpt><trkpt lat="45.40295052865987" lon="8.952504520009823"><ele>117.0</ele><time>2026-03-29T09:50:25Z</time></trkpt><trkpt lat="45.40278634806312" lon="8.952562835515836"><ele>117.0</ele><time>2026-03-29T09:50:26Z</time></trkpt><trkpt lat="45.40263691964217" lon="8.952613359404747"><ele>117.0</ele><time>2026-03-29T09:50:27Z</time></trkpt><trkpt lat="45.402492879258546" lon="8.952661566413317"><ele>117.0</ele><time>2026-03-29T09:50:28Z</time></trkpt><trkpt lat="45.402360628978926" lon="8.95270431521082"><ele>117.0</ele><time>2026-03-29T09:50:29Z</time></trkpt><trkpt lat="45.40223290151574" lon="8.952741935450952"><ele>117.0</ele><time>2026-03-29T09:50:30Z</time></trkpt><trkpt lat="45.40211402261127" lon="8.952781852760905"><ele>116.99999999999999</ele><time>2026-03-29T09:50:31Z</time></trkpt><trkpt lat="45.40200995696314" lon="8.952820319685625"><ele>116.99999999999999</ele><time>2026-03-29T09:50:32Z</time></trkpt><trkpt lat="45.4019204800571" lon="8.952888926925722"><ele>117.0</ele><time>2026-03-29T09:50:33Z</time></trkpt><trkpt lat="45.40184354966602" lon="8.952979323850608"><ele>117.0</ele><time>2026-03-29T09:50:34Z</time></trkpt><trkpt lat="45.40183170656576" lon="8.953134470175021"><ele>117.0</ele><time>2026-03-29T09:50:35Z</time></trkpt><trkpt lat="45.40184937221947" lon="8.953290838185465"><ele>117.0</ele><time>2026-03-29T09:50:36Z</time></trkpt><trkpt lat="45.40188997574447" lon="8.95345480082745"><ele>117.0</ele><time>2026-03-29T09:50:37Z</time></trkpt><trkpt lat="45.4019413751999" lon="8.953622043245524"><ele>117.0</ele><time>2026-03-29T09:50:38Z</time></trkpt><trkpt lat="45.401995593626935" lon="8.95380239403783"><ele>117.0</ele><time>2026-03-29T09:50:39Z</time></trkpt><trkpt lat="45.40204928142575" lon="8.953988712117322"><ele>117.0</ele><time>2026-03-29T09:50:40Z</time></trkpt><trkpt lat="45.40210264370539" lon="8.954185609462087"><ele>117.0</ele><time>2026-03-29T09:50:41Z</time></trkpt><trkpt lat="45.4021584606804" lon="8.954390413352437"><ele>117.0</ele><time>2026-03-29T09:50:42Z</time></trkpt><trkpt lat="45.40221754939854" lon="8.954607329052058"><ele>117.0</ele><time>2026-03-29T09:50:43Z</time></trkpt><trkpt lat="45.40227856628993" lon="8.954830372693914"><ele>117.0</ele><time>2026-03-29T09:50:44Z</time></trkpt><trkpt lat="45.40234068544097" lon="8.955062812842108"><ele>117.0</ele><time>2026-03-29T09:50:45Z</time></trkpt><trkpt lat="45.40240295129249" lon="8.955300122586733"><ele>117.0</ele><time>2026-03-29T09:50:46Z</time></trkpt><trkpt lat="45.402460866180746" lon="8.955511210399555"><ele>117.0</ele><time>2026-03-29T09:50:47Z</time></trkpt><trkpt lat="45.40251460182101" lon="8.95571243298902"><ele>117.0</ele><time>2026-03-29T09:50:48Z</time></trkpt><trkpt lat="45.402570261776965" lon="8.955919431621147"><ele>116.66666666666666</ele><time>2026-03-29T09:50:49Z</time></trkpt><trkpt lat="45.40262054007059" lon="8.956132652951649"><ele>116.33333333333333</ele><time>2026-03-29T09:50:50Z</time></trkpt><trkpt lat="45.4026771395798" lon="8.95634855549915"><ele>116.0</ele><time>2026-03-29T09:50:51Z</time></trkpt><trkpt lat="45.40273693610781" lon="8.956568405834295"><ele>116.0</ele><time>2026-03-29T09:50:52Z</time></trkpt><trkpt lat="45.40279620365391" lon="8.956794995807297"><ele>116.0</ele><time>2026-03-29T09:50:52.999Z</time></trkpt><trkpt lat="45.40285131135951" lon="8.95699958436435"><ele>116.0</ele><time>2026-03-29T09:50:53.999Z</time></trkpt><trkpt lat="45.40290382523897" lon="8.957198020644823"><ele>116.0</ele><time>2026-03-29T09:50:54.999Z</time></trkpt><trkpt lat="45.40295555466195" lon="8.957406145885564"><ele>116.0</ele><time>2026-03-29T09:50:55.999Z</time></trkpt><trkpt lat="45.403008525481084" lon="8.957615705467939"><ele>116.0</ele><time>2026-03-29T09:50:56.999Z</time></trkpt><trkpt lat="45.40306689264054" lon="8.957826046981516"><ele>116.25</ele><time>2026-03-29T09:50:57.999Z</time></trkpt><trkpt lat="45.40311868547591" lon="8.958017809750428"><ele>116.5</ele><time>2026-03-29T09:50:58.999Z</time></trkpt><trkpt lat="45.403166627050055" lon="8.95819670635676"><ele>116.75</ele><time>2026-03-29T09:50:59.999Z</time></trkpt><trkpt lat="45.40320927901132" lon="8.958362415479048"><ele>117.0</ele><time>2026-03-29T09:51:00.999Z</time></trkpt><trkpt lat="45.40325371685795" lon="8.958519043511872"><ele>117.19999999999999</ele><time>2026-03-29T09:51:01.999Z</time></trkpt><trkpt lat="45.40329472656052" lon="8.95866069953049"><ele>117.39999999999999</ele><time>2026-03-29T09:51:02.999Z</time></trkpt><trkpt lat="45.40332908262713" lon="8.958797573711623"><ele>117.60000000000001</ele><time>2026-03-29T09:51:03.999Z</time></trkpt><trkpt lat="45.403357826576226" lon="8.958918449288415"><ele>117.80000000000001</ele><time>2026-03-29T09:51:04.999Z</time></trkpt><trkpt lat="45.40338647563431" lon="8.959029807808202"><ele>118.0</ele><time>2026-03-29T09:51:05.999Z</time></trkpt><trkpt lat="45.403407577469494" lon="8.95912441072425"><ele>118.00000000000001</ele><time>2026-03-29T09:51:06.999Z</time></trkpt><trkpt lat="45.403433065522805" lon="8.959255530221307"><ele>118.0</ele><time>2026-03-29T09:51:08.999Z</time></trkpt><trkpt lat="45.403446383781905" lon="8.959393366045518"><ele>118.0</ele><time>2026-03-29T09:51:10.999Z</time></trkpt><trkpt lat="45.40346384623386" lon="8.95948641035084"><ele>118.0</ele><time>2026-03-29T09:51:11.999Z</time></trkpt><trkpt lat="45.403490845714146" lon="8.959588397062245"><ele>118.00000000000001</ele><time>2026-03-29T09:51:12.999Z</time></trkpt><trkpt lat="45.403513651409945" lon="8.959699627082413"><ele>118.0</ele><time>2026-03-29T09:51:13.999Z</time></trkpt><trkpt lat="45.40352325209333" lon="8.959832337463425"><ele>118.0</ele><time>2026-03-29T09:51:14.999Z</time></trkpt><trkpt lat="45.40352586174053" lon="8.95997912300024"><ele>118.00000000000001</ele><time>2026-03-29T09:51:15.999Z</time></trkpt><trkpt lat="45.40353337191826" lon="8.960122093047506"><ele>118.00000000000001</ele><time>2026-03-29T09:51:16.999Z</time></trkpt><trkpt lat="45.4035414053102" lon="8.960274177346449"><ele>118.0</ele><time>2026-03-29T09:51:17.999Z</time></trkpt><trkpt lat="45.40355126999674" lon="8.960428610536292"><ele>118.0</ele><time>2026-03-29T09:51:18.999Z</time></trkpt><trkpt lat="45.40356446576593" lon="8.960592157804678"><ele>118.0</ele><time>2026-03-29T09:51:19.999Z</time></trkpt><trkpt lat="45.40357746002719" lon="8.960762010837323"><ele>118.0</ele><time>2026-03-29T09:51:20.999Z</time></trkpt><trkpt lat="45.403589434431225" lon="8.96093464001809"><ele>118.0</ele><time>2026-03-29T09:51:21.999Z</time></trkpt><trkpt lat="45.403602089457856" lon="8.961095011255788"><ele>118.0</ele><time>2026-03-29T09:51:22.999Z</time></trkpt><trkpt lat="45.403615217591565" lon="8.961255492410979"><ele>118.0</ele><time>2026-03-29T09:51:23.999Z</time></trkpt><trkpt lat="45.403624958769164" lon="8.961424566985942"><ele>118.0</ele><time>2026-03-29T09:51:24.999Z</time></trkpt><trkpt lat="45.40363540414629" lon="8.961601242765953"><ele>118.0</ele><time>2026-03-29T09:51:25.999Z</time></trkpt><trkpt lat="45.40365003339235" lon="8.961790812718666"><ele>118.0</ele><time>2026-03-29T09:51:26.999Z</time></trkpt><trkpt lat="45.403659376254566" lon="8.961975837856494"><ele>118.0</ele><time>2026-03-29T09:51:27.999Z</time></trkpt><trkpt lat="45.403670945115486" lon="8.962166888382988"><ele>118.0</ele><time>2026-03-29T09:51:28.999Z</time></trkpt><trkpt lat="45.40368292549493" lon="8.962367629585144"><ele>118.0</ele><time>2026-03-29T09:51:29.999Z</time></trkpt><trkpt lat="45.403696963842116" lon="8.962579730505583"><ele>118.0</ele><time>2026-03-29T09:51:30.999Z</time></trkpt><trkpt lat="45.403712085534345" lon="8.962777301383221"><ele>117.75</ele><time>2026-03-29T09:51:31.999Z</time></trkpt><trkpt lat="45.403725012379404" lon="8.962963022273"><ele>117.5</ele><time>2026-03-29T09:51:32.999Z</time></trkpt><trkpt lat="45.403740050340986" lon="8.963159147080697"><ele>117.25</ele><time>2026-03-29T09:51:33.999Z</time></trkpt><trkpt lat="45.403755242456796" lon="8.963375604560575"><ele>117.0</ele><time>2026-03-29T09:51:34.999Z</time></trkpt><trkpt lat="45.403770476075714" lon="8.96358966432621"><ele>117.0</ele><time>2026-03-29T09:51:35.999Z</time></trkpt><trkpt lat="45.40378688269904" lon="8.963796103791983"><ele>117.0</ele><time>2026-03-29T09:51:36.999Z</time></trkpt><trkpt lat="45.40380493493661" lon="8.963989934773512"><ele>117.0</ele><time>2026-03-29T09:51:37.999Z</time></trkpt><trkpt lat="45.403825765706486" lon="8.964166451718135"><ele>117.0</ele><time>2026-03-29T09:51:38.999Z</time></trkpt><trkpt lat="45.40384562024716" lon="8.964349924058755"><ele>116.75</ele><time>2026-03-29T09:51:39.999Z</time></trkpt><trkpt lat="45.40386253073484" lon="8.964535707046766"><ele>116.5</ele><time>2026-03-29T09:51:40.999Z</time></trkpt><trkpt lat="45.403878174536906" lon="8.964721743924985"><ele>116.25</ele><time>2026-03-29T09:51:41.999Z</time></trkpt><trkpt lat="45.403891814785986" lon="8.96492645507489"><ele>116.0</ele><time>2026-03-29T09:51:42.999Z</time></trkpt><trkpt lat="45.40390809459697" lon="8.965140163830371"><ele>115.33333333333333</ele><time>2026-03-29T09:51:43.999Z</time></trkpt><trkpt lat="45.403925991560946" lon="8.965362897490138"><ele>114.66666666666666</ele><time>2026-03-29T09:51:44.999Z</time></trkpt><trkpt lat="45.40394414475831" lon="8.965590756689338"><ele>114.0</ele><time>2026-03-29T09:51:45.999Z</time></trkpt><trkpt lat="45.40396130561279" lon="8.965807638541"><ele>114.33333333333334</ele><time>2026-03-29T09:51:46.999Z</time></trkpt><trkpt lat="45.40397796636107" lon="8.966011965532585"><ele>114.66666666666667</ele><time>2026-03-29T09:51:47.999Z</time></trkpt><trkpt lat="45.403991897685785" lon="8.96622700187627"><ele>115.0</ele><time>2026-03-29T09:51:48.999Z</time></trkpt><trkpt lat="45.40400632518461" lon="8.966448954773913"><ele>115.0</ele><time>2026-03-29T09:51:49.999Z</time></trkpt><trkpt lat="45.404018831304725" lon="8.96667073379752"><ele>115.0</ele><time>2026-03-29T09:51:50.999Z</time></trkpt><trkpt lat="45.40403674089225" lon="8.96686969804812"><ele>115.0</ele><time>2026-03-29T09:51:51.999Z</time></trkpt><trkpt lat="45.404057393079" lon="8.967073199802925"><ele>115.0</ele><time>2026-03-29T09:51:52.999Z</time></trkpt><trkpt lat="45.4040559926416" lon="8.96726233403005"><ele>115.25</ele><time>2026-03-29T09:51:54Z</time></trkpt><trkpt lat="45.40406981441016" lon="8.967438286462494"><ele>115.5</ele><time>2026-03-29T09:51:55Z</time></trkpt><trkpt lat="45.40409566262738" lon="8.967621961801107"><ele>115.75</ele><time>2026-03-29T09:51:56Z</time></trkpt><trkpt lat="45.40408059389388" lon="8.967813402391872"><ele>116.0</ele><time>2026-03-29T09:51:57Z</time></trkpt><trkpt lat="45.40405118369103" lon="8.96800665613489"><ele>116.0</ele><time>2026-03-29T09:51:58Z</time></trkpt><trkpt lat="45.40399679866712" lon="8.968182700008569"><ele>116.0</ele><time>2026-03-29T09:51:59Z</time></trkpt><trkpt lat="45.403925111886025" lon="8.968328534501913"><ele>116.0</ele><time>2026-03-29T09:52:00Z</time></trkpt><trkpt lat="45.40384188650921" lon="8.96843953396375"><ele>116.0</ele><time>2026-03-29T09:52:01Z</time></trkpt><trkpt lat="45.403747346656246" lon="8.968520105496372"><ele>115.8</ele><time>2026-03-29T09:52:02Z</time></trkpt><trkpt lat="45.40363840793156" lon="8.968574874029382"><ele>115.6</ele><time>2026-03-29T09:52:03Z</time></trkpt><trkpt lat="45.4035236134954" lon="8.96860728872629"><ele>115.4</ele><time>2026-03-29T09:52:04Z</time></trkpt><trkpt lat="45.40341576769224" lon="8.968644117846365"><ele>115.2</ele><time>2026-03-29T09:52:05Z</time></trkpt><trkpt lat="45.40331338656147" lon="8.968680799404007"><ele>115.0</ele><time>2026-03-29T09:52:06Z</time></trkpt><trkpt lat="45.40321574102228" lon="8.968722283208407"><ele>115.00000000000001</ele><time>2026-03-29T09:52:07Z</time></trkpt><trkpt lat="45.40312726207984" lon="8.968758329763817"><ele>115.0</ele><time>2026-03-29T09:52:08Z</time></trkpt><trkpt lat="45.4030473520654" lon="8.968796000796761"><ele>115.0</ele><time>2026-03-29T09:52:09Z</time></trkpt><trkpt lat="45.402985218485185" lon="8.968836379227755"><ele>115.0</ele><time>2026-03-29T09:52:10Z</time></trkpt><trkpt lat="45.4029001020134" lon="8.968907727417564"><ele>115.00000000000001</ele><time>2026-03-29T09:52:12Z</time></trkpt><trkpt lat="45.402833640746124" lon="8.968964589380468"><ele>115.0</ele><time>2026-03-29T09:52:16Z</time></trkpt><trkpt lat="45.402736854506415" lon="8.968991582906131"><ele>115.00000000000001</ele><time>2026-03-29T09:52:31Z</time></trkpt><trkpt lat="45.40267158372533" lon="8.968983593899033"><ele>115.0</ele><time>2026-03-29T09:52:32Z</time></trkpt><trkpt lat="45.402598195019564" lon="8.968969383865561"><ele>115.0</ele><time>2026-03-29T09:52:33Z</time></trkpt><trkpt lat="45.40252990887396" lon="8.96899436587835"><ele>115.0</ele><time>2026-03-29T09:52:34Z</time></trkpt><trkpt lat="45.40247036918304" lon="8.969084145632158"><ele>115.00000000000001</ele><time>2026-03-29T09:52:35Z</time></trkpt><trkpt lat="45.40245385444793" lon="8.96919827018894"><ele>115.0</ele><time>2026-03-29T09:52:36Z</time></trkpt><trkpt lat="45.402469419921296" lon="8.969316813097615"><ele>115.00000000000001</ele><time>2026-03-29T09:52:37Z</time></trkpt><trkpt lat="45.40251174121375" lon="8.969419722970589"><ele>115.0</ele><time>2026-03-29T09:52:38Z</time></trkpt><trkpt lat="45.40257865312155" lon="8.96949366440443"><ele>115.0</ele><time>2026-03-29T09:52:39Z</time></trkpt><trkpt lat="45.40266237693737" lon="8.969520152199332"><ele>115.0</ele><time>2026-03-29T09:52:40Z</time></trkpt><trkpt lat="45.402753483295946" lon="8.969519631309131"><ele>115.00000000000001</ele><time>2026-03-29T09:52:41Z</time></trkpt><trkpt lat="45.402854213507375" lon="8.969533205086979"><ele>115.0</ele><time>2026-03-29T09:52:42Z</time></trkpt><trkpt lat="45.40295111183926" lon="8.969588519136629"><ele>115.0</ele><time>2026-03-29T09:52:43Z</time></trkpt><trkpt lat="45.403049257392915" lon="8.969622035516387"><ele>115.0</ele><time>2026-03-29T09:52:44Z</time></trkpt><trkpt lat="45.40311837571954" lon="8.969790616711734"><ele>115.0</ele><time>2026-03-29T09:52:45Z</time></trkpt><trkpt lat="45.40318636897558" lon="8.96991782474489"><ele>115.0</ele><time>2026-03-29T09:52:46Z</time></trkpt><trkpt lat="45.40324958766098" lon="8.97007199791718"><ele>114.75</ele><time>2026-03-29T09:52:47Z</time></trkpt><trkpt lat="45.403297899747926" lon="8.970246678381095"><ele>114.5</ele><time>2026-03-29T09:52:48Z</time></trkpt><trkpt lat="45.403333061573925" lon="8.970435838620675"><ele>114.25</ele><time>2026-03-29T09:52:49Z</time></trkpt><trkpt lat="45.40335475523069" lon="8.970611116144285"><ele>114.0</ele><time>2026-03-29T09:52:50Z</time></trkpt><trkpt lat="45.40339334377059" lon="8.970796261093803"><ele>114.5</ele><time>2026-03-29T09:52:51Z</time></trkpt><trkpt lat="45.403431663854" lon="8.970987829955599"><ele>115.0</ele><time>2026-03-29T09:52:52Z</time></trkpt><trkpt lat="45.403462667897486" lon="8.971191190140276"><ele>115.5</ele><time>2026-03-29T09:52:53Z</time></trkpt><trkpt lat="45.403478938063685" lon="8.971400932740083"><ele>116.0</ele><time>2026-03-29T09:52:54Z</time></trkpt><trkpt lat="45.4034700181062" lon="8.971610071812458"><ele>116.0</ele><time>2026-03-29T09:52:55Z</time></trkpt><trkpt lat="45.403423338733965" lon="8.971843130185224"><ele>116.0</ele><time>2026-03-29T09:52:55.999Z</time></trkpt><trkpt lat="45.40335152751704" lon="8.972049475367912"><ele>116.0</ele><time>2026-03-29T09:52:56.999Z</time></trkpt><trkpt lat="45.40325768573094" lon="8.972237072523692"><ele>116.0</ele><time>2026-03-29T09:52:57.999Z</time></trkpt><trkpt lat="45.403150437089614" lon="8.97239458839583"><ele>116.0</ele><time>2026-03-29T09:52:58.999Z</time></trkpt><trkpt lat="45.403025206427664" lon="8.97251485081861"><ele>116.0</ele><time>2026-03-29T09:52:59.999Z</time></trkpt><trkpt lat="45.40288572906685" lon="8.972610865151044"><ele>116.66666666666666</ele><time>2026-03-29T09:53:00.999Z</time></trkpt><trkpt lat="45.402733551513386" lon="8.972676103761179"><ele>117.33333333333334</ele><time>2026-03-29T09:53:01.999Z</time></trkpt><trkpt lat="45.4025827009057" lon="8.972727620253957"><ele>118.0</ele><time>2026-03-29T09:53:02.999Z</time></trkpt><trkpt lat="45.40243267985407" lon="8.972772452849542"><ele>118.0</ele><time>2026-03-29T09:53:03.999Z</time></trkpt><trkpt lat="45.40231993537815" lon="8.972813200807801"><ele>118.00000000000001</ele><time>2026-03-29T09:53:04.999Z</time></trkpt><trkpt lat="45.40224634726159" lon="8.972841048671045"><ele>118.00000000000001</ele><time>2026-03-29T09:53:05.999Z</time></trkpt><trkpt lat="45.40213497816958" lon="8.972878792865167"><ele>118.0</ele><time>2026-03-29T09:53:07.999Z</time></trkpt><trkpt lat="45.40206856935152" lon="8.972912124486593"><ele>118.0</ele><time>2026-03-29T09:53:09.999Z</time></trkpt><trkpt lat="45.40198231807276" lon="8.972941659537826"><ele>118.4</ele><time>2026-03-29T09:53:12.999Z</time></trkpt><trkpt lat="45.40190925148335" lon="8.97299372883938"><ele>118.80000000000001</ele><time>2026-03-29T09:53:14.999Z</time></trkpt><trkpt lat="45.401845939751986" lon="8.973009693699623"><ele>119.2</ele><time>2026-03-29T09:53:15.999Z</time></trkpt><trkpt lat="45.401753093549466" lon="8.973046715077839"><ele>119.6</ele><time>2026-03-29T09:53:16.999Z</time></trkpt><trkpt lat="45.40164837701413" lon="8.973076684900805"><ele>120.0</ele><time>2026-03-29T09:53:17.999Z</time></trkpt><trkpt lat="45.401525434672074" lon="8.973103609280445"><ele>120.0</ele><time>2026-03-29T09:53:18.999Z</time></trkpt><trkpt lat="45.401392492041" lon="8.973137070987155"><ele>120.0</ele><time>2026-03-29T09:53:19.999Z</time></trkpt><trkpt lat="45.401238534903435" lon="8.973176536494154"><ele>120.0</ele><time>2026-03-29T09:53:20.999Z</time></trkpt><trkpt lat="45.401062632708744" lon="8.973220338205689"><ele>119.33333333333334</ele><time>2026-03-29T09:53:21.999Z</time></trkpt><trkpt lat="45.40086838515556" lon="8.973267720782655"><ele>118.66666666666667</ele><time>2026-03-29T09:53:22.999Z</time></trkpt><trkpt lat="45.40065009914301" lon="8.973320272467484"><ele>118.0</ele><time>2026-03-29T09:53:23.999Z</time></trkpt><trkpt lat="45.40042221681185" lon="8.973372167194402"><ele>118.0</ele><time>2026-03-29T09:53:24.999Z</time></trkpt><trkpt lat="45.40020512076786" lon="8.973420142143977"><ele>118.0</ele><time>2026-03-29T09:53:25.999Z</time></trkpt><trkpt lat="45.39998657883277" lon="8.973476569957823"><ele>118.0</ele><time>2026-03-29T09:53:26.999Z</time></trkpt><trkpt lat="45.399773912722985" lon="8.973533677386841"><ele>117.66666666666667</ele><time>2026-03-29T09:53:27.999Z</time></trkpt><trkpt lat="45.39956827662778" lon="8.97358661515185"><ele>117.33333333333334</ele><time>2026-03-29T09:53:28.999Z</time></trkpt><trkpt lat="45.39936544872895" lon="8.973652023225474"><ele>117.0</ele><time>2026-03-29T09:53:29.999Z</time></trkpt><trkpt lat="45.399164398301885" lon="8.973729832371939"><ele>117.0</ele><time>2026-03-29T09:53:30.999Z</time></trkpt><trkpt lat="45.39896249166969" lon="8.973816033116181"><ele>117.0</ele><time>2026-03-29T09:53:31.999Z</time></trkpt><trkpt lat="45.398760924465954" lon="8.973907947745724"><ele>117.0</ele><time>2026-03-29T09:53:32.999Z</time></trkpt><trkpt lat="45.39855741519234" lon="8.974005802540777"><ele>117.0</ele><time>2026-03-29T09:53:33.999Z</time></trkpt><trkpt lat="45.39835916515889" lon="8.974111197817837"><ele>117.0</ele><time>2026-03-29T09:53:34.999Z</time></trkpt><trkpt lat="45.39816437078978" lon="8.974216024296968"><ele>117.0</ele><time>2026-03-29T09:53:35.999Z</time></trkpt><trkpt lat="45.39797007183429" lon="8.974329788724603"><ele>117.0</ele><time>2026-03-29T09:53:36.999Z</time></trkpt><trkpt lat="45.39777857083447" lon="8.974441370424232"><ele>117.0</ele><time>2026-03-29T09:53:37.999Z</time></trkpt><trkpt lat="45.39758767671766" lon="8.9745515556804"><ele>117.0</ele><time>2026-03-29T09:53:38.999Z</time></trkpt><trkpt lat="45.39739229090872" lon="8.974659299974666"><ele>117.0</ele><time>2026-03-29T09:53:39.999Z</time></trkpt><trkpt lat="45.397197295139726" lon="8.974774614601492"><ele>117.0</ele><time>2026-03-29T09:53:40.999Z</time></trkpt><trkpt lat="45.3970032995552" lon="8.974888579098812"><ele>117.0</ele><time>2026-03-29T09:53:41.999Z</time></trkpt><trkpt lat="45.39680892175614" lon="8.975000973970953"><ele>116.33333333333334</ele><time>2026-03-29T09:53:42.999Z</time></trkpt><trkpt lat="45.396613080107144" lon="8.975108135274963"><ele>115.66666666666667</ele><time>2026-03-29T09:53:43.999Z</time></trkpt><trkpt lat="45.396409797604306" lon="8.975228881585792"><ele>115.0</ele><time>2026-03-29T09:53:44.999Z</time></trkpt><trkpt lat="45.396203641028514" lon="8.975347789983863"><ele>114.66666666666667</ele><time>2026-03-29T09:53:45.999Z</time></trkpt><trkpt lat="45.39600287484956" lon="8.975459361521635"><ele>114.33333333333334</ele><time>2026-03-29T09:53:46.999Z</time></trkpt><trkpt lat="45.39581596510198" lon="8.975564008095759"><ele>114.0</ele><time>2026-03-29T09:53:47.999Z</time></trkpt><trkpt lat="45.39564400784984" lon="8.97566196746756"><ele>113.66666666666666</ele><time>2026-03-29T09:53:48.999Z</time></trkpt><trkpt lat="45.39547440594136" lon="8.97576447769494"><ele>113.33333333333333</ele><time>2026-03-29T09:53:49.999Z</time></trkpt><trkpt lat="45.39530210474537" lon="8.97586448666498"><ele>113.0</ele><time>2026-03-29T09:53:50.999Z</time></trkpt><trkpt lat="45.39512671091109" lon="8.975960609839516"><ele>113.0</ele><time>2026-03-29T09:53:51.999Z</time></trkpt><trkpt lat="45.394947000314254" lon="8.976059087335834"><ele>113.0</ele><time>2026-03-29T09:53:52.999Z</time></trkpt><trkpt lat="45.39477305576734" lon="8.976157193453668"><ele>113.0</ele><time>2026-03-29T09:53:53.999Z</time></trkpt><trkpt lat="45.39460122199159" lon="8.976258562276252"><ele>111.66666666666666</ele><time>2026-03-29T09:53:54.999Z</time></trkpt><trkpt lat="45.39442987257944" lon="8.976357788067155"><ele>110.33333333333334</ele><time>2026-03-29T09:53:55.999Z</time></trkpt><trkpt lat="45.394257019500564" lon="8.976459612140664"><ele>109.0</ele><time>2026-03-29T09:53:56.999Z</time></trkpt><trkpt lat="45.39408357554561" lon="8.976561159496823"><ele>109.0</ele><time>2026-03-29T09:53:57.999Z</time></trkpt><trkpt lat="45.39390669028231" lon="8.976663828209592"><ele>109.0</ele><time>2026-03-29T09:53:58.999Z</time></trkpt><trkpt lat="45.393726943881006" lon="8.976765262934505"><ele>109.0</ele><time>2026-03-29T09:54:00Z</time></trkpt><trkpt lat="45.39354406126507" lon="8.976860931869355"><ele>110.66666666666667</ele><time>2026-03-29T09:54:01Z</time></trkpt><trkpt lat="45.39336968249797" lon="8.976960624245914"><ele>112.33333333333334</ele><time>2026-03-29T09:54:02Z</time></trkpt><trkpt lat="45.39319779280372" lon="8.9770678030735"><ele>114.0</ele><time>2026-03-29T09:54:03Z</time></trkpt><trkpt lat="45.393025239644885" lon="8.977176564014654"><ele>114.0</ele><time>2026-03-29T09:54:04Z</time></trkpt><trkpt lat="45.392858425635964" lon="8.97728398727268"><ele>114.0</ele><time>2026-03-29T09:54:05Z</time></trkpt><trkpt lat="45.392689814107385" lon="8.977395170403012"><ele>114.0</ele><time>2026-03-29T09:54:06Z</time></trkpt><trkpt lat="45.39251995115145" lon="8.977507844024904"><ele>114.33333333333334</ele><time>2026-03-29T09:54:07Z</time></trkpt><trkpt lat="45.39235161170164" lon="8.977621162429688"><ele>114.66666666666667</ele><time>2026-03-29T09:54:08Z</time></trkpt><trkpt lat="45.39217924201853" lon="8.977736864995759"><ele>115.0</ele><time>2026-03-29T09:54:09Z</time></trkpt><trkpt lat="45.392003557027756" lon="8.97785471645682"><ele>114.33333333333334</ele><time>2026-03-29T09:54:10Z</time></trkpt><trkpt lat="45.39182541971675" lon="8.977976360752365"><ele>113.66666666666666</ele><time>2026-03-29T09:54:11Z</time></trkpt><trkpt lat="45.39164090737529" lon="8.978101140241858"><ele>113.0</ele><time>2026-03-29T09:54:12Z</time></trkpt><trkpt lat="45.39144872274815" lon="8.978232992869554"><ele>113.0</ele><time>2026-03-29T09:54:13Z</time></trkpt><trkpt lat="45.39124341522816" lon="8.97837301515135"><ele>113.0</ele><time>2026-03-29T09:54:14Z</time></trkpt><trkpt lat="45.39102910812093" lon="8.978523446289369"><ele>113.0</ele><time>2026-03-29T09:54:15Z</time></trkpt><trkpt lat="45.39080454624718" lon="8.978674568598821"><ele>113.0</ele><time>2026-03-29T09:54:16Z</time></trkpt><trkpt lat="45.39057098237145" lon="8.97882944850984"><ele>112.5</ele><time>2026-03-29T09:54:17Z</time></trkpt><trkpt lat="45.3903328160504" lon="8.978988498671425"><ele>112.0</ele><time>2026-03-29T09:54:18Z</time></trkpt><trkpt lat="45.3900895588315" lon="8.979153586284793"><ele>112.0</ele><time>2026-03-29T09:54:19Z</time></trkpt><trkpt lat="45.389864952624556" lon="8.979305948382766"><ele>112.0</ele><time>2026-03-29T09:54:20Z</time></trkpt><trkpt lat="45.38965679741956" lon="8.979447040010399"><ele>112.0</ele><time>2026-03-29T09:54:21Z</time></trkpt><trkpt lat="45.38946469835022" lon="8.979580007161728"><ele>112.0</ele><time>2026-03-29T09:54:22Z</time></trkpt><trkpt lat="45.38926875047679" lon="8.979712520057813"><ele>112.0</ele><time>2026-03-29T09:54:23Z</time></trkpt><trkpt lat="45.3890703062633" lon="8.979845697869056"><ele>112.0</ele><time>2026-03-29T09:54:24Z</time></trkpt><trkpt lat="45.388873656972045" lon="8.97997694994411"><ele>112.0</ele><time>2026-03-29T09:54:25Z</time></trkpt><trkpt lat="45.388678228038266" lon="8.98011310462311"><ele>112.0</ele><time>2026-03-29T09:54:26Z</time></trkpt><trkpt lat="45.38849045133575" lon="8.980243452461403"><ele>111.66666666666667</ele><time>2026-03-29T09:54:27Z</time></trkpt><trkpt lat="45.38831167261227" lon="8.9803652787664"><ele>111.33333333333334</ele><time>2026-03-29T09:54:28Z</time></trkpt><trkpt lat="45.38814515279262" lon="8.98047791229486"><ele>111.0</ele><time>2026-03-29T09:54:29Z</time></trkpt><trkpt lat="45.3879788175236" lon="8.980589744420467"><ele>112.0</ele><time>2026-03-29T09:54:30Z</time></trkpt><trkpt lat="45.387804681550875" lon="8.980709131245113"><ele>113.0</ele><time>2026-03-29T09:54:31Z</time></trkpt><trkpt lat="45.387635806477576" lon="8.980822219794192"><ele>114.0</ele><time>2026-03-29T09:54:32Z</time></trkpt><trkpt lat="45.38747823364178" lon="8.980928682913307"><ele>114.0</ele><time>2026-03-29T09:54:33Z</time></trkpt><trkpt lat="45.3873193452153" lon="8.98103683034905"><ele>114.0</ele><time>2026-03-29T09:54:34Z</time></trkpt><trkpt lat="45.387151160605065" lon="8.981151158301378"><ele>114.0</ele><time>2026-03-29T09:54:35Z</time></trkpt><trkpt lat="45.38699786424484" lon="8.981256333921602"><ele>113.66666666666666</ele><time>2026-03-29T09:54:36Z</time></trkpt><trkpt lat="45.38684859750355" lon="8.981356984168803"><ele>113.33333333333333</ele><time>2026-03-29T09:54:37Z</time></trkpt><trkpt lat="45.38669580848669" lon="8.981463914157942"><ele>113.0</ele><time>2026-03-29T09:54:38Z</time></trkpt><trkpt lat="45.38654300546484" lon="8.98156842781342"><ele>113.0</ele><time>2026-03-29T09:54:39Z</time></trkpt><trkpt lat="45.38639003971947" lon="8.981674375304111"><ele>113.0</ele><time>2026-03-29T09:54:40Z</time></trkpt><trkpt lat="45.38623905547164" lon="8.981777027045743"><ele>113.0</ele><time>2026-03-29T09:54:41Z</time></trkpt><trkpt lat="45.38609123305979" lon="8.981877424869666"><ele>113.33333333333333</ele><time>2026-03-29T09:54:42Z</time></trkpt><trkpt lat="45.38594891328302" lon="8.981974561275218"><ele>113.66666666666666</ele><time>2026-03-29T09:54:43Z</time></trkpt><trkpt lat="45.38580507858753" lon="8.982070761870776"><ele>114.0</ele><time>2026-03-29T09:54:44Z</time></trkpt><trkpt lat="45.38565706833981" lon="8.982167565206227"><ele>114.0</ele><time>2026-03-29T09:54:45Z</time></trkpt><trkpt lat="45.38551246648007" lon="8.982265993262276"><ele>114.0</ele><time>2026-03-29T09:54:46Z</time></trkpt><trkpt lat="45.385369614031916" lon="8.98236139869806"><ele>114.0</ele><time>2026-03-29T09:54:47Z</time></trkpt><trkpt lat="45.38522845667816" lon="8.98245784599935"><ele>113.66666666666666</ele><time>2026-03-29T09:54:48Z</time></trkpt><trkpt lat="45.38509002613551" lon="8.982552315068277"><ele>113.33333333333333</ele><time>2026-03-29T09:54:49Z</time></trkpt><trkpt lat="45.384952069685085" lon="8.982644796130804"><ele>113.0</ele><time>2026-03-29T09:54:50Z</time></trkpt><trkpt lat="45.384813700882816" lon="8.98273955540299"><ele>113.0</ele><time>2026-03-29T09:54:51Z</time></trkpt><trkpt lat="45.38467386848016" lon="8.982833828953986"><ele>113.0</ele><time>2026-03-29T09:54:52Z</time></trkpt><trkpt lat="45.384542036157185" lon="8.982920186655704"><ele>113.0</ele><time>2026-03-29T09:54:53Z</time></trkpt><trkpt lat="45.38441358752613" lon="8.983003465993502"><ele>113.0</ele><time>2026-03-29T09:54:54Z</time></trkpt><trkpt lat="45.38428379850658" lon="8.983092450613537"><ele>113.0</ele><time>2026-03-29T09:54:55Z</time></trkpt><trkpt lat="45.384153325845205" lon="8.983183935983499"><ele>113.0</ele><time>2026-03-29T09:54:56Z</time></trkpt><trkpt lat="45.38402382489468" lon="8.983278326435988"><ele>113.0</ele><time>2026-03-29T09:54:57Z</time></trkpt><trkpt lat="45.383888836102805" lon="8.983379532775754"><ele>113.0</ele><time>2026-03-29T09:54:58Z</time></trkpt><trkpt lat="45.38376106446645" lon="8.98346954614048"><ele>113.0</ele><time>2026-03-29T09:54:59Z</time></trkpt><trkpt lat="45.38363075529366" lon="8.983560519696917"><ele>113.0</ele><time>2026-03-29T09:54:59.999Z</time></trkpt><trkpt lat="45.38350193158364" lon="8.983651518768015"><ele>113.0</ele><time>2026-03-29T09:55:00.999Z</time></trkpt><trkpt lat="45.38337120731612" lon="8.983740486315922"><ele>113.0</ele><time>2026-03-29T09:55:01.999Z</time></trkpt><trkpt lat="45.38324035741239" lon="8.98382932752954"><ele>113.0</ele><time>2026-03-29T09:55:02.999Z</time></trkpt><trkpt lat="45.383106626050235" lon="8.98392266996931"><ele>113.0</ele><time>2026-03-29T09:55:03.999Z</time></trkpt><trkpt lat="45.3829727488289" lon="8.984012773876689"><ele>113.0</ele><time>2026-03-29T09:55:04.999Z</time></trkpt><trkpt lat="45.382839489619464" lon="8.98410329998021"><ele>113.0</ele><time>2026-03-29T09:55:05.999Z</time></trkpt><trkpt lat="45.382704156650014" lon="8.984200519131223"><ele>113.0</ele><time>2026-03-29T09:55:06.999Z</time></trkpt><trkpt lat="45.38256921439513" lon="8.984300303547082"><ele>113.0</ele><time>2026-03-29T09:55:07.999Z</time></trkpt><trkpt lat="45.38243533795327" lon="8.984407885482206"><ele>113.0</ele><time>2026-03-29T09:55:08.999Z</time></trkpt><trkpt lat="45.38230297394568" lon="8.984524040559993"><ele>112.66666666666666</ele><time>2026-03-29T09:55:09.999Z</time></trkpt><trkpt lat="45.3821617711561" lon="8.984657060938995"><ele>112.33333333333334</ele><time>2026-03-29T09:55:10.999Z</time></trkpt><trkpt lat="45.38201259377591" lon="8.984809514828202"><ele>112.0</ele><time>2026-03-29T09:55:11.999Z</time></trkpt><trkpt lat="45.38183894387219" lon="8.984946759718346"><ele>112.0</ele><time>2026-03-29T09:55:12.999Z</time></trkpt><trkpt lat="45.38167598695212" lon="8.98511037140974"><ele>112.0</ele><time>2026-03-29T09:55:13.999Z</time></trkpt><trkpt lat="45.3815046527229" lon="8.985305410054037"><ele>112.0</ele><time>2026-03-29T09:55:14.999Z</time></trkpt><trkpt lat="45.381318515260375" lon="8.985498352209259"><ele>111.0</ele><time>2026-03-29T09:55:15.999Z</time></trkpt><trkpt lat="45.3811381296963" lon="8.985696192076777"><ele>110.0</ele><time>2026-03-29T09:55:16.999Z</time></trkpt><trkpt lat="45.380962174277826" lon="8.985889010843646"><ele>110.0</ele><time>2026-03-29T09:55:17.999Z</time></trkpt><trkpt lat="45.38078777841097" lon="8.986080749003285"><ele>110.0</ele><time>2026-03-29T09:55:18.999Z</time></trkpt><trkpt lat="45.38062137365374" lon="8.986268283538301"><ele>110.0</ele><time>2026-03-29T09:55:19.999Z</time></trkpt><trkpt lat="45.38045951798136" lon="8.986453241670427"><ele>109.66666666666666</ele><time>2026-03-29T09:55:20.999Z</time></trkpt><trkpt lat="45.380297216694665" lon="8.986634283112053"><ele>109.33333333333334</ele><time>2026-03-29T09:55:21.999Z</time></trkpt><trkpt lat="45.38014566288217" lon="8.986802587481584"><ele>109.0</ele><time>2026-03-29T09:55:22.999Z</time></trkpt><trkpt lat="45.38000455177229" lon="8.986956246548033"><ele>109.0</ele><time>2026-03-29T09:55:23.999Z</time></trkpt><trkpt lat="45.379870504888835" lon="8.987102608501344"><ele>109.0</ele><time>2026-03-29T09:55:24.999Z</time></trkpt><trkpt lat="45.37973570752197" lon="8.987251700427594"><ele>109.0</ele><time>2026-03-29T09:55:25.999Z</time></trkpt><trkpt lat="45.37960224384012" lon="8.987400744282246"><ele>109.66666666666667</ele><time>2026-03-29T09:55:26.999Z</time></trkpt><trkpt lat="45.379464878179604" lon="8.987556434571847"><ele>110.33333333333334</ele><time>2026-03-29T09:55:27.999Z</time></trkpt><trkpt lat="45.3793258499822" lon="8.987710338446602"><ele>111.0</ele><time>2026-03-29T09:55:28.999Z</time></trkpt><trkpt lat="45.379184636611484" lon="8.987864564516563"><ele>111.0</ele><time>2026-03-29T09:55:29.999Z</time></trkpt><trkpt lat="45.379047069012174" lon="8.988015847729836"><ele>111.0</ele><time>2026-03-29T09:55:30.999Z</time></trkpt><trkpt lat="45.378910246648694" lon="8.988167988697278"><ele>111.0</ele><time>2026-03-29T09:55:31.999Z</time></trkpt><trkpt lat="45.378772964670056" lon="8.988323732090421"><ele>111.33333333333334</ele><time>2026-03-29T09:55:32.999Z</time></trkpt><trkpt lat="45.37863710004708" lon="8.988474348189984"><ele>111.66666666666667</ele><time>2026-03-29T09:55:33.999Z</time></trkpt><trkpt lat="45.37850354169263" lon="8.988621987302478"><ele>112.0</ele><time>2026-03-29T09:55:34.999Z</time></trkpt><trkpt lat="45.37837188917972" lon="8.988766003578831"><ele>112.0</ele><time>2026-03-29T09:55:35.999Z</time></trkpt><trkpt lat="45.378240909819205" lon="8.988909340237482"><ele>112.0</ele><time>2026-03-29T09:55:36.999Z</time></trkpt><trkpt lat="45.37811468248591" lon="8.989049157005633"><ele>112.0</ele><time>2026-03-29T09:55:37.999Z</time></trkpt><trkpt lat="45.37799189517875" lon="8.989181821466694"><ele>112.0</ele><time>2026-03-29T09:55:38.999Z</time></trkpt><trkpt lat="45.37786852877564" lon="8.989321051238202"><ele>112.0</ele><time>2026-03-29T09:55:39.999Z</time></trkpt><trkpt lat="45.37774531154966" lon="8.989456022133172"><ele>112.0</ele><time>2026-03-29T09:55:40.999Z</time></trkpt><trkpt lat="45.3776214997113" lon="8.98958926682859"><ele>112.0</ele><time>2026-03-29T09:55:41.999Z</time></trkpt><trkpt lat="45.37749529503231" lon="8.98973438337625"><ele>112.0</ele><time>2026-03-29T09:55:42.999Z</time></trkpt><trkpt lat="45.377370014217526" lon="8.98988682683833"><ele>112.0</ele><time>2026-03-29T09:55:43.999Z</time></trkpt><trkpt lat="45.37723250256833" lon="8.990060561844084"><ele>112.0</ele><time>2026-03-29T09:55:44.999Z</time></trkpt><trkpt lat="45.37708866764755" lon="8.990227424836853"><ele>112.0</ele><time>2026-03-29T09:55:45.999Z</time></trkpt><trkpt lat="45.37693211133163" lon="8.990385033403065"><ele>112.0</ele><time>2026-03-29T09:55:46.999Z</time></trkpt><trkpt lat="45.3767639732546" lon="8.990532009195686"><ele>112.0</ele><time>2026-03-29T09:55:47.999Z</time></trkpt><trkpt lat="45.37659224521009" lon="8.990677653432723"><ele>112.0</ele><time>2026-03-29T09:55:48.999Z</time></trkpt><trkpt lat="45.3764203985458" lon="8.990829083631889"><ele>112.0</ele><time>2026-03-29T09:55:49.999Z</time></trkpt><trkpt lat="45.376243126526944" lon="8.99098600951956"><ele>111.33333333333334</ele><time>2026-03-29T09:55:50.999Z</time></trkpt><trkpt lat="45.376061833371935" lon="8.991147022903782"><ele>110.66666666666666</ele><time>2026-03-29T09:55:51.999Z</time></trkpt><trkpt lat="45.37587894541278" lon="8.991314051460183"><ele>110.0</ele><time>2026-03-29T09:55:52.999Z</time></trkpt><trkpt lat="45.375700755939" lon="8.991476337860341"><ele>110.0</ele><time>2026-03-29T09:55:53.999Z</time></trkpt><trkpt lat="45.37552481996382" lon="8.991641197775646"><ele>110.0</ele><time>2026-03-29T09:55:54.999Z</time></trkpt><trkpt lat="45.37536339976666" lon="8.99179512780985"><ele>110.0</ele><time>2026-03-29T09:55:55.999Z</time></trkpt><trkpt lat="45.37520390779822" lon="8.991946786077998"><ele>110.33333333333333</ele><time>2026-03-29T09:55:56.999Z</time></trkpt><trkpt lat="45.37505208630959" lon="8.99208584516414"><ele>110.66666666666666</ele><time>2026-03-29T09:55:57.999Z</time></trkpt><trkpt lat="45.374894922886426" lon="8.992232647159677"><ele>111.0</ele><time>2026-03-29T09:55:58.999Z</time></trkpt><trkpt lat="45.37473070535902" lon="8.992384370510075"><ele>110.33333333333334</ele><time>2026-03-29T09:55:59.999Z</time></trkpt><trkpt lat="45.37456383116227" lon="8.992535667769078"><ele>109.66666666666667</ele><time>2026-03-29T09:56:00.999Z</time></trkpt><trkpt lat="45.37439678944933" lon="8.992686357841489"><ele>109.0</ele><time>2026-03-29T09:56:01.999Z</time></trkpt><trkpt lat="45.37423040655889" lon="8.992839717945296"><ele>109.0</ele><time>2026-03-29T09:56:02.999Z</time></trkpt><trkpt lat="45.37407633739645" lon="8.992982887672232"><ele>109.0</ele><time>2026-03-29T09:56:03.999Z</time></trkpt><trkpt lat="45.37393176703881" lon="8.993117161669083"><ele>109.0</ele><time>2026-03-29T09:56:04.999Z</time></trkpt><trkpt lat="45.37380060802879" lon="8.993244734238125"><ele>109.0</ele><time>2026-03-29T09:56:06Z</time></trkpt><trkpt lat="45.37367550895988" lon="8.993365929914933"><ele>109.0</ele><time>2026-03-29T09:56:07Z</time></trkpt><trkpt lat="45.373553531674595" lon="8.993480102370361"><ele>109.0</ele><time>2026-03-29T09:56:08Z</time></trkpt><trkpt lat="45.37342691801074" lon="8.993587177334208"><ele>109.0</ele><time>2026-03-29T09:56:09Z</time></trkpt><trkpt lat="45.37329969398283" lon="8.993708842670344"><ele>109.0</ele><time>2026-03-29T09:56:10Z</time></trkpt><trkpt lat="45.373188534669886" lon="8.993816880588849"><ele>109.0</ele><time>2026-03-29T09:56:11Z</time></trkpt><trkpt lat="45.37308433649232" lon="8.993914178281374"><ele>109.0</ele><time>2026-03-29T09:56:12Z</time></trkpt><trkpt lat="45.37298662917484" lon="8.99400435098438"><ele>109.0</ele><time>2026-03-29T09:56:13Z</time></trkpt><trkpt lat="45.372894676159525" lon="8.99408978970922"><ele>109.4</ele><time>2026-03-29T09:56:14Z</time></trkpt><trkpt lat="45.37280837637589" lon="8.994154912562756"><ele>109.80000000000001</ele><time>2026-03-29T09:56:15Z</time></trkpt><trkpt lat="45.37271452917457" lon="8.994188498771443"><ele>110.19999999999999</ele><time>2026-03-29T09:56:16Z</time></trkpt><trkpt lat="45.372607511133914" lon="8.994185180078127"><ele>110.6</ele><time>2026-03-29T09:56:17Z</time></trkpt><trkpt lat="45.37249368603296" lon="8.99419273828393"><ele>111.0</ele><time>2026-03-29T09:56:18Z</time></trkpt><trkpt lat="45.37238961505308" lon="8.994253804223211"><ele>111.0</ele><time>2026-03-29T09:56:19Z</time></trkpt><trkpt lat="45.372304457053545" lon="8.99438365757553"><ele>111.0</ele><time>2026-03-29T09:56:20Z</time></trkpt><trkpt lat="45.37224007753954" lon="8.994556316334457"><ele>111.0</ele><time>2026-03-29T09:56:21Z</time></trkpt><trkpt lat="45.3721747020789" lon="8.994725061413243"><ele>111.0</ele><time>2026-03-29T09:56:22Z</time></trkpt><trkpt lat="45.37207957171009" lon="8.994871320481082"><ele>111.0</ele><time>2026-03-29T09:56:23Z</time></trkpt><trkpt lat="45.37195112439352" lon="8.994982581885528"><ele>111.0</ele><time>2026-03-29T09:56:24Z</time></trkpt><trkpt lat="45.37182240646388" lon="8.995088504866365"><ele>111.0</ele><time>2026-03-29T09:56:25Z</time></trkpt><trkpt lat="45.37170057213041" lon="8.9951980053917"><ele>111.0</ele><time>2026-03-29T09:56:26Z</time></trkpt><trkpt lat="45.37157952829309" lon="8.995311002200674"><ele>110.75</ele><time>2026-03-29T09:56:27Z</time></trkpt><trkpt lat="45.37146153683642" lon="8.995419227251032"><ele>110.5</ele><time>2026-03-29T09:56:28Z</time></trkpt><trkpt lat="45.37134233290252" lon="8.995525724900705"><ele>110.25</ele><time>2026-03-29T09:56:29Z</time></trkpt><trkpt lat="45.37122574931147" lon="8.995637157029776"><ele>110.0</ele><time>2026-03-29T09:56:30Z</time></trkpt><trkpt lat="45.37111014390954" lon="8.995747378833775"><ele>109.75</ele><time>2026-03-29T09:56:31Z</time></trkpt><trkpt lat="45.37099413275448" lon="8.995856134721969"><ele>109.5</ele><time>2026-03-29T09:56:32Z</time></trkpt><trkpt lat="45.37087802376525" lon="8.99596540234456"><ele>109.25</ele><time>2026-03-29T09:56:33Z</time></trkpt><trkpt lat="45.37076054962356" lon="8.996076198757633"><ele>109.0</ele><time>2026-03-29T09:56:34Z</time></trkpt><trkpt lat="45.37063779164706" lon="8.996186048768658"><ele>108.66666666666667</ele><time>2026-03-29T09:56:35Z</time></trkpt><trkpt lat="45.37050933620484" lon="8.996307746372509"><ele>108.33333333333334</ele><time>2026-03-29T09:56:36Z</time></trkpt><trkpt lat="45.37037527060623" lon="8.99643567770673"><ele>108.0</ele><time>2026-03-29T09:56:37Z</time></trkpt><trkpt lat="45.3702369638197" lon="8.996563098214923"><ele>108.33333333333334</ele><time>2026-03-29T09:56:38Z</time></trkpt><trkpt lat="45.37009909723931" lon="8.996691746075612"><ele>108.66666666666667</ele><time>2026-03-29T09:56:39Z</time></trkpt><trkpt lat="45.369966449650235" lon="8.996817281740437"><ele>109.0</ele><time>2026-03-29T09:56:40Z</time></trkpt><trkpt lat="45.36983449728533" lon="8.996939835336699"><ele>109.0</ele><time>2026-03-29T09:56:41Z</time></trkpt><trkpt lat="45.36969712885684" lon="8.99706215647854"><ele>109.0</ele><time>2026-03-29T09:56:42Z</time></trkpt><trkpt lat="45.36955274153556" lon="8.997192000111394"><ele>109.0</ele><time>2026-03-29T09:56:43Z</time></trkpt><trkpt lat="45.369404281834115" lon="8.997326676910276"><ele>109.0</ele><time>2026-03-29T09:56:44Z</time></trkpt><trkpt lat="45.369251938025826" lon="8.997468401659631"><ele>109.0</ele><time>2026-03-29T09:56:45Z</time></trkpt><trkpt lat="45.36909707433831" lon="8.997614357379618"><ele>109.0</ele><time>2026-03-29T09:56:46Z</time></trkpt><trkpt lat="45.368941855484294" lon="8.997758761426542"><ele>108.33333333333334</ele><time>2026-03-29T09:56:47Z</time></trkpt><trkpt lat="45.36878753153446" lon="8.99790184261432"><ele>107.66666666666666</ele><time>2026-03-29T09:56:48Z</time></trkpt><trkpt lat="45.36863595131126" lon="8.998043766690941"><ele>107.0</ele><time>2026-03-29T09:56:49Z</time></trkpt><trkpt lat="45.368487312188556" lon="8.998184322671626"><ele>107.0</ele><time>2026-03-29T09:56:50Z</time></trkpt><trkpt lat="45.368336786784475" lon="8.99832611686021"><ele>107.0</ele><time>2026-03-29T09:56:51Z</time></trkpt><trkpt lat="45.36818655468463" lon="8.99846241421413"><ele>107.0</ele><time>2026-03-29T09:56:52Z</time></trkpt><trkpt lat="45.36804118934779" lon="8.99859287049475"><ele>107.66666666666666</ele><time>2026-03-29T09:56:53Z</time></trkpt><trkpt lat="45.36789539930836" lon="8.998724742911753"><ele>108.33333333333334</ele><time>2026-03-29T09:56:54Z</time></trkpt><trkpt lat="45.36774645640002" lon="8.998862271698082"><ele>109.0</ele><time>2026-03-29T09:56:55Z</time></trkpt><trkpt lat="45.367593852990105" lon="8.999005423471422"><ele>109.0</ele><time>2026-03-29T09:56:56Z</time></trkpt><trkpt lat="45.36743082150031" lon="8.999156948897095"><ele>109.0</ele><time>2026-03-29T09:56:57Z</time></trkpt><trkpt lat="45.367263319161054" lon="8.999309618136435"><ele>109.0</ele><time>2026-03-29T09:56:58Z</time></trkpt><trkpt lat="45.36708967223386" lon="8.999468880826734"><ele>108.33333333333334</ele><time>2026-03-29T09:56:59Z</time></trkpt><trkpt lat="45.366907036411824" lon="8.99963797003532"><ele>107.66666666666666</ele><time>2026-03-29T09:57:00Z</time></trkpt><trkpt lat="45.36672203635249" lon="8.999811426948765"><ele>107.0</ele><time>2026-03-29T09:57:01Z</time></trkpt><trkpt lat="45.36654357734299" lon="8.999975107166438"><ele>107.0</ele><time>2026-03-29T09:57:02Z</time></trkpt><trkpt lat="45.36637198773825" lon="9.000133332347579"><ele>107.0</ele><time>2026-03-29T09:57:03Z</time></trkpt><trkpt lat="45.36619884397895" lon="9.000299707633124"><ele>107.0</ele><time>2026-03-29T09:57:03.999Z</time></trkpt><trkpt lat="45.36602499553016" lon="9.000465582484859"><ele>107.0</ele><time>2026-03-29T09:57:04.999Z</time></trkpt><trkpt lat="45.365854553787564" lon="9.000626310391711"><ele>107.0</ele><time>2026-03-29T09:57:05.999Z</time></trkpt><trkpt lat="45.365684077595205" lon="9.000782785280308"><ele>107.0</ele><time>2026-03-29T09:57:06.999Z</time></trkpt><trkpt lat="45.36552115372596" lon="9.000932734010462"><ele>106.33333333333333</ele><time>2026-03-29T09:57:07.999Z</time></trkpt><trkpt lat="45.365365175447934" lon="9.001078676763546"><ele>105.66666666666666</ele><time>2026-03-29T09:57:08.999Z</time></trkpt><trkpt lat="45.36520616840227" lon="9.001226069091148"><ele>105.0</ele><time>2026-03-29T09:57:09.999Z</time></trkpt><trkpt lat="45.365043159949295" lon="9.001376431041999"><ele>105.0</ele><time>2026-03-29T09:57:10.999Z</time></trkpt><trkpt lat="45.36488322249212" lon="9.001524083691288"><ele>105.0</ele><time>2026-03-29T09:57:11.999Z</time></trkpt><trkpt lat="45.36472722741342" lon="9.001670432940749"><ele>105.0</ele><time>2026-03-29T09:57:12.999Z</time></trkpt><trkpt lat="45.36457315687155" lon="9.00181336733992"><ele>105.66666666666666</ele><time>2026-03-29T09:57:13.999Z</time></trkpt><trkpt lat="45.364419522052856" lon="9.001953288150723"><ele>106.33333333333333</ele><time>2026-03-29T09:57:14.999Z</time></trkpt><trkpt lat="45.36426496691891" lon="9.002095620632547"><ele>107.0</ele><time>2026-03-29T09:57:15.999Z</time></trkpt><trkpt lat="45.364107755546094" lon="9.002243545724053"><ele>107.0</ele><time>2026-03-29T09:57:16.999Z</time></trkpt><trkpt lat="45.36394529843544" lon="9.00239751547468"><ele>107.0</ele><time>2026-03-29T09:57:17.999Z</time></trkpt><trkpt lat="45.36378124280014" lon="9.00254680077037"><ele>107.0</ele><time>2026-03-29T09:57:18.999Z</time></trkpt><trkpt lat="45.363616686310806" lon="9.002697497013402"><ele>106.66666666666666</ele><time>2026-03-29T09:57:19.999Z</time></trkpt><trkpt lat="45.36345224133647" lon="9.002841595038287"><ele>106.33333333333334</ele><time>2026-03-29T09:57:20.999Z</time></trkpt><trkpt lat="45.363289884303036" lon="9.00299158626763"><ele>106.0</ele><time>2026-03-29T09:57:21.999Z</time></trkpt><trkpt lat="45.36313003795837" lon="9.003149265024593"><ele>106.0</ele><time>2026-03-29T09:57:22.999Z</time></trkpt><trkpt lat="45.36297081187739" lon="9.003304208431734"><ele>106.0</ele><time>2026-03-29T09:57:23.999Z</time></trkpt><trkpt lat="45.362811256747925" lon="9.003459405492125"><ele>106.0</ele><time>2026-03-29T09:57:24.999Z</time></trkpt><trkpt lat="45.3626520039613" lon="9.003609981752486"><ele>106.0</ele><time>2026-03-29T09:57:25.999Z</time></trkpt><trkpt lat="45.36248732693093" lon="9.00376200895691"><ele>106.0</ele><time>2026-03-29T09:57:26.999Z</time></trkpt><trkpt lat="45.36232705417035" lon="9.003898236486563"><ele>106.0</ele><time>2026-03-29T09:57:27.999Z</time></trkpt><trkpt lat="45.362173315917204" lon="9.004036014454316"><ele>105.66666666666667</ele><time>2026-03-29T09:57:28.999Z</time></trkpt><trkpt lat="45.36202619437983" lon="9.004170201609467"><ele>105.33333333333334</ele><time>2026-03-29T09:57:29.999Z</time></trkpt><trkpt lat="45.36188306608271" lon="9.00430316959044"><ele>105.0</ele><time>2026-03-29T09:57:30.999Z</time></trkpt><trkpt lat="45.361740476199095" lon="9.004433040490168"><ele>105.0</ele><time>2026-03-29T09:57:31.999Z</time></trkpt><trkpt lat="45.36160067607563" lon="9.004562139610805"><ele>105.0</ele><time>2026-03-29T09:57:32.999Z</time></trkpt><trkpt lat="45.361457520426306" lon="9.00469371333286"><ele>105.0</ele><time>2026-03-29T09:57:33.999Z</time></trkpt><trkpt lat="45.361313819804465" lon="9.004830894585623"><ele>105.0</ele><time>2026-03-29T09:57:34.999Z</time></trkpt><trkpt lat="45.361168849568614" lon="9.004971455219424"><ele>105.0</ele><time>2026-03-29T09:57:35.999Z</time></trkpt><trkpt lat="45.361027258749964" lon="9.00510032777431"><ele>105.0</ele><time>2026-03-29T09:57:36.999Z</time></trkpt><trkpt lat="45.36088963341709" lon="9.005230017605337"><ele>105.0</ele><time>2026-03-29T09:57:37.999Z</time></trkpt><trkpt lat="45.36075351778009" lon="9.005353809672927"><ele>105.0</ele><time>2026-03-29T09:57:38.999Z</time></trkpt><trkpt lat="45.360617713562355" lon="9.005480864370478"><ele>105.0</ele><time>2026-03-29T09:57:39.999Z</time></trkpt><trkpt lat="45.36048328818576" lon="9.005605299563848"><ele>104.66666666666666</ele><time>2026-03-29T09:57:40.999Z</time></trkpt><trkpt lat="45.36034928395593" lon="9.005728229723454"><ele>104.33333333333333</ele><time>2026-03-29T09:57:41.999Z</time></trkpt><trkpt lat="45.36021523747682" lon="9.005849199269905"><ele>104.0</ele><time>2026-03-29T09:57:42.999Z</time></trkpt><trkpt lat="45.36009087755155" lon="9.005960530362055"><ele>104.5</ele><time>2026-03-29T09:57:43.999Z</time></trkpt><trkpt lat="45.35997286539695" lon="9.006069422156747"><ele>105.0</ele><time>2026-03-29T09:57:44.999Z</time></trkpt><trkpt lat="45.35985539327459" lon="9.006181496110054"><ele>105.5</ele><time>2026-03-29T09:57:45.999Z</time></trkpt><trkpt lat="45.35973932740384" lon="9.006286833609659"><ele>106.0</ele><time>2026-03-29T09:57:46.999Z</time></trkpt><trkpt lat="45.359623400339736" lon="9.006393688417772"><ele>106.0</ele><time>2026-03-29T09:57:47.999Z</time></trkpt><trkpt lat="45.359505746804686" lon="9.006503937364691"><ele>106.0</ele><time>2026-03-29T09:57:48.999Z</time></trkpt><trkpt lat="45.359385201047004" lon="9.006613700447513"><ele>106.0</ele><time>2026-03-29T09:57:49.999Z</time></trkpt><trkpt lat="45.3592611878549" lon="9.006725716809651"><ele>106.0</ele><time>2026-03-29T09:57:50.999Z</time></trkpt><trkpt lat="45.35913788962718" lon="9.006840503360555"><ele>106.0</ele><time>2026-03-29T09:57:51.999Z</time></trkpt><trkpt lat="45.35900756683092" lon="9.006964507750853"><ele>106.0</ele><time>2026-03-29T09:57:52.999Z</time></trkpt><trkpt lat="45.35887308951998" lon="9.00709177705201"><ele>106.0</ele><time>2026-03-29T09:57:53.999Z</time></trkpt><trkpt lat="45.35873475759728" lon="9.007219608805352"><ele>105.33333333333334</ele><time>2026-03-29T09:57:54.999Z</time></trkpt><trkpt lat="45.358592793447585" lon="9.007350958465127"><ele>104.66666666666666</ele><time>2026-03-29T09:57:55.999Z</time></trkpt><trkpt lat="45.35844597371237" lon="9.007488874646391"><ele>104.0</ele><time>2026-03-29T09:57:56.999Z</time></trkpt><trkpt lat="45.3582984517116" lon="9.007626711342597"><ele>104.0</ele><time>2026-03-29T09:57:57.999Z</time></trkpt><trkpt lat="45.358152323822985" lon="9.007764727165688"><ele>104.0</ele><time>2026-03-29T09:57:58.999Z</time></trkpt><trkpt lat="45.35801501357937" lon="9.00789377189274"><ele>104.0</ele><time>2026-03-29T09:57:59.999Z</time></trkpt><trkpt lat="45.35788840509078" lon="9.008018256737966"><ele>104.0</ele><time>2026-03-29T09:58:00.999Z</time></trkpt><trkpt lat="45.35776619897181" lon="9.008147960172352"><ele>104.0</ele><time>2026-03-29T09:58:01.999Z</time></trkpt><trkpt lat="45.35764649237049" lon="9.00828814932722"><ele>104.0</ele><time>2026-03-29T09:58:02.999Z</time></trkpt><trkpt lat="45.35752551641809" lon="9.0084354757701"><ele>104.33333333333333</ele><time>2026-03-29T09:58:03.999Z</time></trkpt><trkpt lat="45.35740775107172" lon="9.008591718571086"><ele>104.66666666666666</ele><time>2026-03-29T09:58:04.999Z</time></trkpt><trkpt lat="45.35729071595329" lon="9.008757874508953"><ele>105.0</ele><time>2026-03-29T09:58:05.999Z</time></trkpt><trkpt lat="45.35718158520156" lon="9.008926631940312"><ele>105.0</ele><time>2026-03-29T09:58:06.999Z</time></trkpt><trkpt lat="45.35707885400939" lon="9.00910097994677"><ele>105.0</ele><time>2026-03-29T09:58:07.999Z</time></trkpt><trkpt lat="45.356983670451605" lon="9.009276893426218"><ele>105.0</ele><time>2026-03-29T09:58:08.999Z</time></trkpt><trkpt lat="45.35689482545002" lon="9.009449758645307"><ele>105.0</ele><time>2026-03-29T09:58:09.999Z</time></trkpt><trkpt lat="45.35681657071991" lon="9.009616621707405"><ele>105.0</ele><time>2026-03-29T09:58:10.999Z</time></trkpt><trkpt lat="45.35674596060967" lon="9.00978016738177"><ele>105.0</ele><time>2026-03-29T09:58:12Z</time></trkpt><trkpt lat="45.35668218717284" lon="9.009940747689283"><ele>105.0</ele><time>2026-03-29T09:58:13Z</time></trkpt><trkpt lat="45.35662283147142" lon="9.010088642363085"><ele>105.0</ele><time>2026-03-29T09:58:14Z</time></trkpt><trkpt lat="45.35656861724664" lon="9.01022481787027"><ele>105.0</ele><time>2026-03-29T09:58:15Z</time></trkpt><trkpt lat="45.356508287047596" lon="9.01034220313864"><ele>105.0</ele><time>2026-03-29T09:58:16Z</time></trkpt><trkpt lat="45.35643966761476" lon="9.010441251645446"><ele>105.0</ele><time>2026-03-29T09:58:17Z</time></trkpt><trkpt lat="45.35636689203066" lon="9.0105348256538"><ele>105.0</ele><time>2026-03-29T09:58:18Z</time></trkpt><trkpt lat="45.35629365400328" lon="9.010628228112672"><ele>105.0</ele><time>2026-03-29T09:58:19Z</time></trkpt><trkpt lat="45.35626808806851" lon="9.01078055197635"><ele>105.0</ele><time>2026-03-29T09:58:20Z</time></trkpt><trkpt lat="45.35630455811658" lon="9.010933445164207"><ele>105.0</ele><time>2026-03-29T09:58:21Z</time></trkpt><trkpt lat="45.356329727484926" lon="9.011094271560042"><ele>105.0</ele><time>2026-03-29T09:58:22Z</time></trkpt><trkpt lat="45.35632362605358" lon="9.011271604286497"><ele>105.0</ele><time>2026-03-29T09:58:23Z</time></trkpt><trkpt lat="45.35628785211471" lon="9.011434498226356"><ele>105.0</ele><time>2026-03-29T09:58:24Z</time></trkpt><trkpt lat="45.35625173563073" lon="9.011611493760743"><ele>105.0</ele><time>2026-03-29T09:58:25Z</time></trkpt><trkpt lat="45.356230976039434" lon="9.011816652633534"><ele>105.0</ele><time>2026-03-29T09:58:26Z</time></trkpt><trkpt lat="45.356212766689836" lon="9.012035631209542"><ele>105.0</ele><time>2026-03-29T09:58:27Z</time></trkpt><trkpt lat="45.356198640667444" lon="9.012264824210376"><ele>105.0</ele><time>2026-03-29T09:58:28Z</time></trkpt><trkpt lat="45.3561908220981" lon="9.012513686910747"><ele>105.0</ele><time>2026-03-29T09:58:29Z</time></trkpt><trkpt lat="45.35618835625873" lon="9.012780151367322"><ele>105.0</ele><time>2026-03-29T09:58:30Z</time></trkpt><trkpt lat="45.3561837205521" lon="9.013040919510136"><ele>105.0</ele><time>2026-03-29T09:58:31Z</time></trkpt><trkpt lat="45.35617914675009" lon="9.013288715693928"><ele>105.0</ele><time>2026-03-29T09:58:32Z</time></trkpt><trkpt lat="45.356177206129665" lon="9.013543898765326"><ele>105.0</ele><time>2026-03-29T09:58:33Z</time></trkpt><trkpt lat="45.356173525863056" lon="9.013799321035263"><ele>105.0</ele><time>2026-03-29T09:58:34Z</time></trkpt><trkpt lat="45.356169159833776" lon="9.01405949865448"><ele>105.0</ele><time>2026-03-29T09:58:35Z</time></trkpt><trkpt lat="45.35616660669442" lon="9.014320822941519"><ele>104.66666666666666</ele><time>2026-03-29T09:58:36Z</time></trkpt><trkpt lat="45.35616449383947" lon="9.014596356149012"><ele>104.33333333333333</ele><time>2026-03-29T09:58:37Z</time></trkpt><trkpt lat="45.35615971412247" lon="9.01488926729661"><ele>104.0</ele><time>2026-03-29T09:58:38Z</time></trkpt><trkpt lat="45.35616089077881" lon="9.015191741273275"><ele>104.0</ele><time>2026-03-29T09:58:39Z</time></trkpt><trkpt lat="45.35615859824188" lon="9.015488842320046"><ele>104.0</ele><time>2026-03-29T09:58:40Z</time></trkpt><trkpt lat="45.35613977421793" lon="9.01578046931106"><ele>104.0</ele><time>2026-03-29T09:58:41Z</time></trkpt><trkpt lat="45.356152046722535" lon="9.01607908325337"><ele>104.33333333333333</ele><time>2026-03-29T09:58:42Z</time></trkpt><trkpt lat="45.35613211234594" lon="9.016356642034744"><ele>104.66666666666666</ele><time>2026-03-29T09:58:43Z</time></trkpt><trkpt lat="45.3561438693172" lon="9.016613250778214"><ele>105.0</ele><time>2026-03-29T09:58:44Z</time></trkpt><trkpt lat="45.35614062627629" lon="9.016864917853574"><ele>105.0</ele><time>2026-03-29T09:58:45Z</time></trkpt><trkpt lat="45.35612144515548" lon="9.017095572436109"><ele>105.0</ele><time>2026-03-29T09:58:46Z</time></trkpt><trkpt lat="45.356118118783776" lon="9.01732288078692"><ele>105.0</ele><time>2026-03-29T09:58:47Z</time></trkpt><trkpt lat="45.35611474973245" lon="9.017553105537635"><ele>105.33333333333334</ele><time>2026-03-29T09:58:48Z</time></trkpt><trkpt lat="45.35611143415686" lon="9.017787768465814"><ele>105.66666666666667</ele><time>2026-03-29T09:58:49Z</time></trkpt><trkpt lat="45.35610829549598" lon="9.01802143960409"><ele>106.0</ele><time>2026-03-29T09:58:50Z</time></trkpt><trkpt lat="45.356105191931775" lon="9.0182524978826"><ele>105.33333333333334</ele><time>2026-03-29T09:58:51Z</time></trkpt><trkpt lat="45.35611691401698" lon="9.01848674624062"><ele>104.66666666666666</ele><time>2026-03-29T09:58:52Z</time></trkpt><trkpt lat="45.356106146127445" lon="9.018680651785905"><ele>104.0</ele><time>2026-03-29T09:58:53Z</time></trkpt><trkpt lat="45.356103607078865" lon="9.018909397483121"><ele>104.0</ele><time>2026-03-29T09:58:54Z</time></trkpt><trkpt lat="45.35610242109842" lon="9.019132538019518"><ele>104.0</ele><time>2026-03-29T09:58:55Z</time></trkpt><trkpt lat="45.35609637060066" lon="9.019365140660424"><ele>104.0</ele><time>2026-03-29T09:58:56Z</time></trkpt><trkpt lat="45.35608864501034" lon="9.019609940844896"><ele>104.0</ele><time>2026-03-29T09:58:57Z</time></trkpt><trkpt lat="45.35608510676253" lon="9.019839814558406"><ele>104.0</ele><time>2026-03-29T09:58:58Z</time></trkpt><trkpt lat="45.35608236067001" lon="9.020066667478178"><ele>104.0</ele><time>2026-03-29T09:58:59Z</time></trkpt><trkpt lat="45.35607884757611" lon="9.020299309957341"><ele>104.33333333333333</ele><time>2026-03-29T09:59:00Z</time></trkpt><trkpt lat="45.356075205748844" lon="9.020525257385255"><ele>104.66666666666666</ele><time>2026-03-29T09:59:01Z</time></trkpt><trkpt lat="45.356070422855524" lon="9.020756787096603"><ele>105.0</ele><time>2026-03-29T09:59:02Z</time></trkpt><trkpt lat="45.35606750203473" lon="9.020990339596928"><ele>105.0</ele><time>2026-03-29T09:59:03Z</time></trkpt><trkpt lat="45.356062732472424" lon="9.021233677774367"><ele>105.0</ele><time>2026-03-29T09:59:04Z</time></trkpt><trkpt lat="45.356057985271214" lon="9.02148403089006"><ele>105.0</ele><time>2026-03-29T09:59:05Z</time></trkpt><trkpt lat="45.35605021768274" lon="9.02175472832316"><ele>105.0</ele><time>2026-03-29T09:59:06Z</time></trkpt><trkpt lat="45.35605246495828" lon="9.022034217600428"><ele>105.0</ele><time>2026-03-29T09:59:07Z</time></trkpt><trkpt lat="45.35604912740727" lon="9.022327097452871"><ele>105.0</ele><time>2026-03-29T09:59:08Z</time></trkpt><trkpt lat="45.356044095999195" lon="9.022597945468425"><ele>105.0</ele><time>2026-03-29T09:59:09Z</time></trkpt><trkpt lat="45.35603981361739" lon="9.022856138165247"><ele>105.0</ele><time>2026-03-29T09:59:10Z</time></trkpt><trkpt lat="45.356035127614625" lon="9.023114357925213"><ele>105.0</ele><time>2026-03-29T09:59:11Z</time></trkpt><trkpt lat="45.356030578417794" lon="9.023360858464734"><ele>104.75</ele><time>2026-03-29T09:59:12Z</time></trkpt><trkpt lat="45.356032699833314" lon="9.023577789514896"><ele>104.5</ele><time>2026-03-29T09:59:13Z</time></trkpt><trkpt lat="45.356028493809106" lon="9.023787984345672"><ele>104.25</ele><time>2026-03-29T09:59:14Z</time></trkpt><trkpt lat="45.356026735133526" lon="9.023981596344669"><ele>104.0</ele><time>2026-03-29T09:59:15Z</time></trkpt><trkpt lat="45.35602508487398" lon="9.02415611083996"><ele>104.0</ele><time>2026-03-29T09:59:16Z</time></trkpt><trkpt lat="45.35601237539495" lon="9.024328274701412"><ele>104.0</ele><time>2026-03-29T09:59:16.999Z</time></trkpt><trkpt lat="45.35599222137339" lon="9.024483957810002"><ele>104.0</ele><time>2026-03-29T09:59:17.999Z</time></trkpt><trkpt lat="45.355949108901854" lon="9.024626884871772"><ele>104.0</ele><time>2026-03-29T09:59:18.999Z</time></trkpt><trkpt lat="45.35588746348002" lon="9.024764194556989"><ele>104.0</ele><time>2026-03-29T09:59:19.999Z</time></trkpt><trkpt lat="45.35582365237888" lon="9.024902167589454"><ele>104.0</ele><time>2026-03-29T09:59:20.999Z</time></trkpt><trkpt lat="45.355804493363195" lon="9.025071494574183"><ele>104.0</ele><time>2026-03-29T09:59:21.999Z</time></trkpt><trkpt lat="45.355831197759805" lon="9.025250812402176"><ele>104.0</ele><time>2026-03-29T09:59:22.999Z</time></trkpt><trkpt lat="45.3558960194248" lon="9.025412790237755"><ele>104.0</ele><time>2026-03-29T09:59:23.999Z</time></trkpt><trkpt lat="45.35595939996522" lon="9.025588364596814"><ele>104.0</ele><time>2026-03-29T09:59:24.999Z</time></trkpt><trkpt lat="45.35597711422337" lon="9.025795558295881"><ele>104.0</ele><time>2026-03-29T09:59:25.999Z</time></trkpt><trkpt lat="45.35597499646111" lon="9.026013591956477"><ele>104.0</ele><time>2026-03-29T09:59:26.999Z</time></trkpt><trkpt lat="45.35597088164449" lon="9.026235795740225"><ele>104.33333333333333</ele><time>2026-03-29T09:59:27.999Z</time></trkpt><trkpt lat="45.355957363564286" lon="9.026459518624936"><ele>104.66666666666666</ele><time>2026-03-29T09:59:28.999Z</time></trkpt><trkpt lat="45.355925355152465" lon="9.02666228432672"><ele>105.0</ele><time>2026-03-29T09:59:29.999Z</time></trkpt><trkpt lat="45.35587607636293" lon="9.02686609086365"><ele>105.0</ele><time>2026-03-29T09:59:30.999Z</time></trkpt><trkpt lat="45.35581270808385" lon="9.027066998793577"><ele>105.0</ele><time>2026-03-29T09:59:31.999Z</time></trkpt><trkpt lat="45.35575508363442" lon="9.02726951445885"><ele>105.0</ele><time>2026-03-29T09:59:32.999Z</time></trkpt><trkpt lat="45.35568517378724" lon="9.027449774037885"><ele>105.0</ele><time>2026-03-29T09:59:33.999Z</time></trkpt><trkpt lat="45.35560007555748" lon="9.027619989733104"><ele>105.0</ele><time>2026-03-29T09:59:34.999Z</time></trkpt><trkpt lat="45.35551555804515" lon="9.027789034922135"><ele>105.0</ele><time>2026-03-29T09:59:35.999Z</time></trkpt><trkpt lat="45.35541749676437" lon="9.027956776016328"><ele>105.0</ele><time>2026-03-29T09:59:36.999Z</time></trkpt><trkpt lat="45.35531954527568" lon="9.028099725259578"><ele>105.0</ele><time>2026-03-29T09:59:37.999Z</time></trkpt><trkpt lat="45.35521515586695" lon="9.028235901962297"><ele>105.0</ele><time>2026-03-29T09:59:38.999Z</time></trkpt><trkpt lat="45.35509748795848" lon="9.028369126265092"><ele>105.0</ele><time>2026-03-29T09:59:39.999Z</time></trkpt><trkpt lat="45.35497818301921" lon="9.028476415181236"><ele>105.0</ele><time>2026-03-29T09:59:40.999Z</time></trkpt><trkpt lat="45.35485258780046" lon="9.028571288905885"><ele>105.0</ele><time>2026-03-29T09:59:41.999Z</time></trkpt><trkpt lat="45.35471432066968" lon="9.028665116413256"><ele>105.0</ele><time>2026-03-29T09:59:42.999Z</time></trkpt><trkpt lat="45.35457397304902" lon="9.02875411937415"><ele>105.0</ele><time>2026-03-29T09:59:43.999Z</time></trkpt><trkpt lat="45.35444088685969" lon="9.028831656444897"><ele>105.5</ele><time>2026-03-29T09:59:44.999Z</time></trkpt><trkpt lat="45.354318518351256" lon="9.028897260426275"><ele>106.0</ele><time>2026-03-29T09:59:45.999Z</time></trkpt><trkpt lat="45.354205843103735" lon="9.028957297556838"><ele>106.5</ele><time>2026-03-29T09:59:46.999Z</time></trkpt><trkpt lat="45.354101598717236" lon="9.029013536822314"><ele>107.0</ele><time>2026-03-29T09:59:47.999Z</time></trkpt><trkpt lat="45.35401152609667" lon="9.02906391002603"><ele>106.99999999999999</ele><time>2026-03-29T09:59:48.999Z</time></trkpt><trkpt lat="45.35392462637703" lon="9.029105015002662"><ele>107.0</ele><time>2026-03-29T09:59:49.999Z</time></trkpt><trkpt lat="45.3538408661938" lon="9.029133140640976"><ele>107.0</ele><time>2026-03-29T09:59:50.999Z</time></trkpt><trkpt lat="45.35375582608527" lon="9.029164997195428"><ele>107.0</ele><time>2026-03-29T09:59:51.999Z</time></trkpt><trkpt lat="45.353679399823214" lon="9.029143540587796"><ele>106.99999999999999</ele><time>2026-03-29T09:59:52.999Z</time></trkpt><trkpt lat="45.35359840461283" lon="9.029136267725105"><ele>107.0</ele><time>2026-03-29T09:59:53.999Z</time></trkpt><trkpt lat="45.35351667897837" lon="9.029139540565804"><ele>107.0</ele><time>2026-03-29T09:59:54.999Z</time></trkpt><trkpt lat="45.353434125531884" lon="9.029081407648293"><ele>106.99999999999999</ele><time>2026-03-29T09:59:55.999Z</time></trkpt><trkpt lat="45.35334535364704" lon="9.029076399399953"><ele>106.99999999999999</ele><time>2026-03-29T09:59:56.999Z</time></trkpt><trkpt lat="45.353254926361814" lon="9.02911315029445"><ele>107.0</ele><time>2026-03-29T09:59:57.999Z</time></trkpt><trkpt lat="45.35316926795132" lon="9.02918609885134"><ele>107.0</ele><time>2026-03-29T09:59:58.999Z</time></trkpt><trkpt lat="45.353069793580964" lon="9.029277269311294"><ele>106.25</ele><time>2026-03-29T09:59:59.999Z</time></trkpt><trkpt lat="45.35295181784646" lon="9.029365304931797"><ele>105.5</ele><time>2026-03-29T10:00:00.999Z</time></trkpt><trkpt lat="45.35285334062181" lon="9.02946396920122"><ele>104.75</ele><time>2026-03-29T10:00:01.999Z</time></trkpt><trkpt lat="45.352686093980026" lon="9.02942810059951"><ele>104.0</ele><time>2026-03-29T10:00:02.999Z</time></trkpt><trkpt lat="45.35254167006276" lon="9.029408244432636"><ele>104.0</ele><time>2026-03-29T10:00:03.999Z</time></trkpt><trkpt lat="45.35237651820223" lon="9.029406283321018"><ele>104.0</ele><time>2026-03-29T10:00:04.999Z</time></trkpt><trkpt lat="45.352203930759146" lon="9.029400688929572"><ele>104.0</ele><time>2026-03-29T10:00:05.999Z</time></trkpt><trkpt lat="45.35202489730568" lon="9.02939630986631"><ele>104.33333333333333</ele><time>2026-03-29T10:00:06.999Z</time></trkpt><trkpt lat="45.35184317666413" lon="9.029394908069756"><ele>104.66666666666666</ele><time>2026-03-29T10:00:07.999Z</time></trkpt><trkpt lat="45.35166344558384" lon="9.02939659494469"><ele>105.0</ele><time>2026-03-29T10:00:08.999Z</time></trkpt><trkpt lat="45.35149386970566" lon="9.029396736733263"><ele>105.0</ele><time>2026-03-29T10:00:09.999Z</time></trkpt><trkpt lat="45.351324697643754" lon="9.029394261226452"><ele>105.0</ele><time>2026-03-29T10:00:10.999Z</time></trkpt><trkpt lat="45.35116802332361" lon="9.029391559663976"><ele>105.0</ele><time>2026-03-29T10:00:11.999Z</time></trkpt><trkpt lat="45.35102008341164" lon="9.029393570031365"><ele>105.0</ele><time>2026-03-29T10:00:12.999Z</time></trkpt><trkpt lat="45.35087088845488" lon="9.02939678120183"><ele>105.0</ele><time>2026-03-29T10:00:13.999Z</time></trkpt><trkpt lat="45.35072861452854" lon="9.029397988206386"><ele>105.0</ele><time>2026-03-29T10:00:14.999Z</time></trkpt><trkpt lat="45.3505946914439" lon="9.02940275720099"><ele>105.0</ele><time>2026-03-29T10:00:15.999Z</time></trkpt><trkpt lat="45.35045046538522" lon="9.029420378150025"><ele>104.66666666666666</ele><time>2026-03-29T10:00:16.999Z</time></trkpt><trkpt lat="45.35030138530298" lon="9.029451373875286"><ele>104.33333333333333</ele><time>2026-03-29T10:00:18Z</time></trkpt><trkpt lat="45.350148216291345" lon="9.029496160134613"><ele>104.0</ele><time>2026-03-29T10:00:19Z</time></trkpt><trkpt lat="45.34998760964293" lon="9.02955671509942"><ele>104.0</ele><time>2026-03-29T10:00:20Z</time></trkpt><trkpt lat="45.34983491010456" lon="9.029632190703804"><ele>104.0</ele><time>2026-03-29T10:00:21Z</time></trkpt><trkpt lat="45.34968850959919" lon="9.029715909925784"><ele>104.0</ele><time>2026-03-29T10:00:22Z</time></trkpt><trkpt lat="45.34954162738481" lon="9.029814046317304"><ele>104.0</ele><time>2026-03-29T10:00:23Z</time></trkpt><trkpt lat="45.34939761740092" lon="9.029930603842887"><ele>104.0</ele><time>2026-03-29T10:00:24Z</time></trkpt><trkpt lat="45.34925441230764" lon="9.03005206852434"><ele>104.0</ele><time>2026-03-29T10:00:25Z</time></trkpt><trkpt lat="45.3491183498683" lon="9.03018519746156"><ele>104.0</ele><time>2026-03-29T10:00:26Z</time></trkpt><trkpt lat="45.348989798346786" lon="9.030337677388895"><ele>104.0</ele><time>2026-03-29T10:00:27Z</time></trkpt><trkpt lat="45.348864602990844" lon="9.030500616482204"><ele>104.0</ele><time>2026-03-29T10:00:28Z</time></trkpt><trkpt lat="45.3487340476838" lon="9.030671735733804"><ele>103.66666666666666</ele><time>2026-03-29T10:00:29Z</time></trkpt><trkpt lat="45.34860876986444" lon="9.030848336864404"><ele>103.33333333333334</ele><time>2026-03-29T10:00:30Z</time></trkpt><trkpt lat="45.34848605623611" lon="9.031025557664831"><ele>103.0</ele><time>2026-03-29T10:00:31Z</time></trkpt><trkpt lat="45.34837394311517" lon="9.031186554110963"><ele>103.0</ele><time>2026-03-29T10:00:32Z</time></trkpt><trkpt lat="45.34827123483623" lon="9.031331944432145"><ele>103.0</ele><time>2026-03-29T10:00:33Z</time></trkpt><trkpt lat="45.34818208701068" lon="9.031456838033886"><ele>103.0</ele><time>2026-03-29T10:00:34Z</time></trkpt><trkpt lat="45.34810070268758" lon="9.031576394222878"><ele>103.0</ele><time>2026-03-29T10:00:35Z</time></trkpt><trkpt lat="45.34801975133764" lon="9.031688367890416"><ele>103.2</ele><time>2026-03-29T10:00:36Z</time></trkpt><trkpt lat="45.347943140298625" lon="9.031792776604004"><ele>103.4</ele><time>2026-03-29T10:00:37Z</time></trkpt><trkpt lat="45.347874269009296" lon="9.031890999101098"><ele>103.60000000000001</ele><time>2026-03-29T10:00:38Z</time></trkpt><trkpt lat="45.347808774899704" lon="9.031983106507772"><ele>103.80000000000001</ele><time>2026-03-29T10:00:39Z</time></trkpt><trkpt lat="45.3477487344127" lon="9.03206875896195"><ele>104.0</ele><time>2026-03-29T10:00:40Z</time></trkpt><trkpt lat="45.34769300833265" lon="9.0321480943852"><ele>104.0</ele><time>2026-03-29T10:00:41Z</time></trkpt><trkpt lat="45.347638960623485" lon="9.032226624753696"><ele>104.0</ele><time>2026-03-29T10:00:42Z</time></trkpt><trkpt lat="45.34758483730269" lon="9.032303603922614"><ele>104.0</ele><time>2026-03-29T10:00:43Z</time></trkpt><trkpt lat="45.34753700689186" lon="9.03237188404847"><ele>104.0</ele><time>2026-03-29T10:00:44Z</time></trkpt><trkpt lat="45.34748411983006" lon="9.032443824193813"><ele>104.0</ele><time>2026-03-29T10:00:45Z</time></trkpt><trkpt lat="45.347433429283605" lon="9.032519864402204"><ele>104.0</ele><time>2026-03-29T10:00:46Z</time></trkpt><trkpt lat="45.34737789908145" lon="9.032597738340584"><ele>104.0</ele><time>2026-03-29T10:00:47Z</time></trkpt><trkpt lat="45.34732544577374" lon="9.032674774601723"><ele>103.80000000000001</ele><time>2026-03-29T10:00:48Z</time></trkpt><trkpt lat="45.34726897543975" lon="9.032748158582157"><ele>103.60000000000001</ele><time>2026-03-29T10:00:49Z</time></trkpt><trkpt lat="45.3471725346425" lon="9.032889475877218"><ele>103.4</ele><time>2026-03-29T10:00:51Z</time></trkpt><trkpt lat="45.34710948898236" lon="9.032972498328315"><ele>103.2</ele><time>2026-03-29T10:00:52Z</time></trkpt><trkpt lat="45.347038216616625" lon="9.033067653501917"><ele>103.0</ele><time>2026-03-29T10:00:53Z</time></trkpt><trkpt lat="45.34696000183728" lon="9.033183478163682"><ele>103.0</ele><time>2026-03-29T10:00:54Z</time></trkpt><trkpt lat="45.34687159168655" lon="9.033317002438636"><ele>103.0</ele><time>2026-03-29T10:00:55Z</time></trkpt><trkpt lat="45.346772175031084" lon="9.033460998079411"><ele>103.0</ele><time>2026-03-29T10:00:56Z</time></trkpt><trkpt lat="45.346661797100516" lon="9.033619545131895"><ele>103.0</ele><time>2026-03-29T10:00:57Z</time></trkpt><trkpt lat="45.346539381555864" lon="9.0337920497247"><ele>103.0</ele><time>2026-03-29T10:00:58Z</time></trkpt><trkpt lat="45.3464055584989" lon="9.033982299905729"><ele>103.0</ele><time>2026-03-29T10:00:59Z</time></trkpt><trkpt lat="45.34626045817338" lon="9.034186867702267"><ele>103.0</ele><time>2026-03-29T10:01:00Z</time></trkpt><trkpt lat="45.34610629624828" lon="9.034405052535472"><ele>103.0</ele><time>2026-03-29T10:01:01Z</time></trkpt><trkpt lat="45.34594209486505" lon="9.034638345319614"><ele>103.0</ele><time>2026-03-29T10:01:02Z</time></trkpt><trkpt lat="45.345769921430126" lon="9.034880031943732"><ele>103.0</ele><time>2026-03-29T10:01:03Z</time></trkpt><trkpt lat="45.34559666658554" lon="9.03512324840073"><ele>103.0</ele><time>2026-03-29T10:01:04Z</time></trkpt><trkpt lat="45.345427940989616" lon="9.035363183370839"><ele>103.0</ele><time>2026-03-29T10:01:05Z</time></trkpt><trkpt lat="45.34524943609157" lon="9.035609088035896"><ele>103.0</ele><time>2026-03-29T10:01:06Z</time></trkpt><trkpt lat="45.345072621638984" lon="9.035861721042563"><ele>102.5</ele><time>2026-03-29T10:01:07Z</time></trkpt><trkpt lat="45.344901160712766" lon="9.036100038256318"><ele>102.0</ele><time>2026-03-29T10:01:08Z</time></trkpt><trkpt lat="45.34473029024922" lon="9.0363338616128"><ele>102.33333333333334</ele><time>2026-03-29T10:01:09Z</time></trkpt><trkpt lat="45.34456873302183" lon="9.03656347104156"><ele>102.66666666666667</ele><time>2026-03-29T10:01:10Z</time></trkpt><trkpt lat="45.34441485795327" lon="9.036787419578635"><ele>103.0</ele><time>2026-03-29T10:01:11Z</time></trkpt><trkpt lat="45.34425862797637" lon="9.037011931731666"><ele>103.33333333333334</ele><time>2026-03-29T10:01:12Z</time></trkpt><trkpt lat="45.344102264764075" lon="9.037235913517286"><ele>103.66666666666666</ele><time>2026-03-29T10:01:13Z</time></trkpt><trkpt lat="45.34394422107059" lon="9.037461774388229"><ele>104.0</ele><time>2026-03-29T10:01:14Z</time></trkpt><trkpt lat="45.34378092240998" lon="9.037686743317803"><ele>103.0</ele><time>2026-03-29T10:01:15Z</time></trkpt><trkpt lat="45.34361305782388" lon="9.03791605780409"><ele>102.0</ele><time>2026-03-29T10:01:16Z</time></trkpt><trkpt lat="45.343439868672704" lon="9.03815908852514"><ele>102.0</ele><time>2026-03-29T10:01:17Z</time></trkpt><trkpt lat="45.34325940778378" lon="9.038407929952056"><ele>102.0</ele><time>2026-03-29T10:01:18Z</time></trkpt><trkpt lat="45.34307689152988" lon="9.038665077316269"><ele>102.0</ele><time>2026-03-29T10:01:19Z</time></trkpt><trkpt lat="45.34289037563986" lon="9.038932735218726"><ele>102.0</ele><time>2026-03-29T10:01:20Z</time></trkpt><trkpt lat="45.34270141683284" lon="9.03920279860351"><ele>102.0</ele><time>2026-03-29T10:01:21Z</time></trkpt><trkpt lat="45.34250929628861" lon="9.039477328601949"><ele>102.0</ele><time>2026-03-29T10:01:22Z</time></trkpt><trkpt lat="45.34232519391595" lon="9.039747774054185"><ele>102.5</ele><time>2026-03-29T10:01:23Z</time></trkpt><trkpt lat="45.342150154407484" lon="9.04000329020021"><ele>103.0</ele><time>2026-03-29T10:01:24Z</time></trkpt><trkpt lat="45.34198116440933" lon="9.040241396054615"><ele>103.0</ele><time>2026-03-29T10:01:24.999Z</time></trkpt><trkpt lat="45.34181738974859" lon="9.040474243832264"><ele>103.0</ele><time>2026-03-29T10:01:25.999Z</time></trkpt><trkpt lat="45.34164889374911" lon="9.040703353711384"><ele>103.0</ele><time>2026-03-29T10:01:26.999Z</time></trkpt><trkpt lat="45.34148454891899" lon="9.040928841182344"><ele>103.0</ele><time>2026-03-29T10:01:27.999Z</time></trkpt><trkpt lat="45.34132480530988" lon="9.04115718094866"><ele>102.5</ele><time>2026-03-29T10:01:28.999Z</time></trkpt><trkpt lat="45.34116580119575" lon="9.041389098296733"><ele>102.0</ele><time>2026-03-29T10:01:29.999Z</time></trkpt><trkpt lat="45.34100197217281" lon="9.041619463840194"><ele>102.5</ele><time>2026-03-29T10:01:30.999Z</time></trkpt><trkpt lat="45.34083724637567" lon="9.04185354150508"><ele>103.0</ele><time>2026-03-29T10:01:31.999Z</time></trkpt><trkpt lat="45.34066833360798" lon="9.042094577264463"><ele>102.0</ele><time>2026-03-29T10:01:32.999Z</time></trkpt><trkpt lat="45.34049629578272" lon="9.042333409850265"><ele>101.0</ele><time>2026-03-29T10:01:33.999Z</time></trkpt><trkpt lat="45.34032472141419" lon="9.042570242819819"><ele>101.0</ele><time>2026-03-29T10:01:34.999Z</time></trkpt><trkpt lat="45.34015284922237" lon="9.04280769124007"><ele>101.0</ele><time>2026-03-29T10:01:35.999Z</time></trkpt><trkpt lat="45.339985245930244" lon="9.043038342265143"><ele>101.0</ele><time>2026-03-29T10:01:36.999Z</time></trkpt><trkpt lat="45.33983366809566" lon="9.043251496784894"><ele>101.0</ele><time>2026-03-29T10:01:37.999Z</time></trkpt><trkpt lat="45.339692585595934" lon="9.04345283519181"><ele>101.0</ele><time>2026-03-29T10:01:38.999Z</time></trkpt><trkpt lat="45.33955200720412" lon="9.043653102603935"><ele>101.33333333333333</ele><time>2026-03-29T10:01:39.999Z</time></trkpt><trkpt lat="45.339412796631095" lon="9.043849104519623"><ele>101.66666666666666</ele><time>2026-03-29T10:01:40.999Z</time></trkpt><trkpt lat="45.3392852264589" lon="9.04402584388354"><ele>102.0</ele><time>2026-03-29T10:01:41.999Z</time></trkpt><trkpt lat="45.33916276389698" lon="9.044200465524648"><ele>102.0</ele><time>2026-03-29T10:01:42.999Z</time></trkpt><trkpt lat="45.33904135391198" lon="9.044374533672306"><ele>102.0</ele><time>2026-03-29T10:01:43.999Z</time></trkpt><trkpt lat="45.338920847037414" lon="9.044544811057678"><ele>102.0</ele><time>2026-03-29T10:01:44.999Z</time></trkpt><trkpt lat="45.33880432139032" lon="9.04471098402271"><ele>102.0</ele><time>2026-03-29T10:01:45.999Z</time></trkpt><trkpt lat="45.33868554081458" lon="9.044873613924148"><ele>102.0</ele><time>2026-03-29T10:01:46.999Z</time></trkpt><trkpt lat="45.338569330519505" lon="9.045042425416792"><ele>102.0</ele><time>2026-03-29T10:01:47.999Z</time></trkpt><trkpt lat="45.33845285616888" lon="9.045206953963392"><ele>102.33333333333334</ele><time>2026-03-29T10:01:48.999Z</time></trkpt><trkpt lat="45.338334083314344" lon="9.045367307271162"><ele>102.66666666666667</ele><time>2026-03-29T10:01:49.999Z</time></trkpt><trkpt lat="45.33820727823251" lon="9.045538243663135"><ele>103.0</ele><time>2026-03-29T10:01:50.999Z</time></trkpt><trkpt lat="45.33807850345174" lon="9.045712009480374"><ele>101.66666666666667</ele><time>2026-03-29T10:01:51.999Z</time></trkpt><trkpt lat="45.33794457012069" lon="9.045872351280442"><ele>100.33333333333334</ele><time>2026-03-29T10:01:52.999Z</time></trkpt><trkpt lat="45.3377899646895" lon="9.046020898359588"><ele>99.0</ele><time>2026-03-29T10:01:53.999Z</time></trkpt><trkpt lat="45.33762119629016" lon="9.046149249169494"><ele>99.0</ele><time>2026-03-29T10:01:54.999Z</time></trkpt><trkpt lat="45.33743955886934" lon="9.04625248404053"><ele>99.0</ele><time>2026-03-29T10:01:55.999Z</time></trkpt><trkpt lat="45.33725086138509" lon="9.04635087291448"><ele>99.0</ele><time>2026-03-29T10:01:56.999Z</time></trkpt><trkpt lat="45.33705455645609" lon="9.046453293586984"><ele>99.33333333333334</ele><time>2026-03-29T10:01:57.999Z</time></trkpt><trkpt lat="45.336862892235494" lon="9.04655077746212"><ele>99.66666666666667</ele><time>2026-03-29T10:01:58.999Z</time></trkpt><trkpt lat="45.33667634821278" lon="9.046647684255783"><ele>100.0</ele><time>2026-03-29T10:01:59.999Z</time></trkpt><trkpt lat="45.33650029136395" lon="9.046741777165916"><ele>100.33333333333334</ele><time>2026-03-29T10:02:00.999Z</time></trkpt><trkpt lat="45.33633308124524" lon="9.046833067224718"><ele>100.66666666666666</ele><time>2026-03-29T10:02:01.999Z</time></trkpt><trkpt lat="45.33616990620724" lon="9.046917429107374"><ele>101.0</ele><time>2026-03-29T10:02:02.999Z</time></trkpt><trkpt lat="45.336012856438245" lon="9.046994622085089"><ele>101.0</ele><time>2026-03-29T10:02:03.999Z</time></trkpt><trkpt lat="45.335860454625106" lon="9.047071180503275"><ele>101.0</ele><time>2026-03-29T10:02:04.999Z</time></trkpt><trkpt lat="45.33571485828009" lon="9.047144724600638"><ele>101.0</ele><time>2026-03-29T10:02:05.999Z</time></trkpt><trkpt lat="45.33558635912797" lon="9.047212493962205"><ele>101.0</ele><time>2026-03-29T10:02:06.999Z</time></trkpt><trkpt lat="45.33546372484381" lon="9.047272845080386"><ele>101.0</ele><time>2026-03-29T10:02:07.999Z</time></trkpt><trkpt lat="45.33534778088948" lon="9.047330553010633"><ele>101.0</ele><time>2026-03-29T10:02:08.999Z</time></trkpt><trkpt lat="45.33524251093708" lon="9.047388855671064"><ele>101.0</ele><time>2026-03-29T10:02:09.999Z</time></trkpt><trkpt lat="45.3351423761765" lon="9.04743695288002"><ele>100.99999999999999</ele><time>2026-03-29T10:02:10.999Z</time></trkpt><trkpt lat="45.33505087423476" lon="9.04748420733924"><ele>101.0</ele><time>2026-03-29T10:02:11.999Z</time></trkpt><trkpt lat="45.33496038729016" lon="9.047532966297476"><ele>101.0</ele><time>2026-03-29T10:02:12.999Z</time></trkpt><trkpt lat="45.334879230886905" lon="9.047571580955896"><ele>101.0</ele><time>2026-03-29T10:02:13.999Z</time></trkpt><trkpt lat="45.334807461085596" lon="9.0476095893153"><ele>100.99999999999999</ele><time>2026-03-29T10:02:14.999Z</time></trkpt><trkpt lat="45.33473892400793" lon="9.047644698791968"><ele>101.0</ele><time>2026-03-29T10:02:15.999Z</time></trkpt><trkpt lat="45.33467502478508" lon="9.047674143609823"><ele>100.99999999999999</ele><time>2026-03-29T10:02:16.999Z</time></trkpt><trkpt lat="45.33456837447958" lon="9.047733626098733"><ele>101.0</ele><time>2026-03-29T10:02:18.999Z</time></trkpt><trkpt lat="45.3344822709868" lon="9.047786247694894"><ele>101.0</ele><time>2026-03-29T10:02:20.999Z</time></trkpt><trkpt lat="45.33440373730685" lon="9.047825506530016"><ele>101.0</ele><time>2026-03-29T10:02:22.999Z</time></trkpt><trkpt lat="45.33432976444961" lon="9.047850250188189"><ele>100.99999999999999</ele><time>2026-03-29T10:02:25Z</time></trkpt><trkpt lat="45.33427195951576" lon="9.047886489842226"><ele>101.0</ele><time>2026-03-29T10:02:27Z</time></trkpt><trkpt lat="45.334196433059546" lon="9.047921671075757"><ele>100.99999999999999</ele><time>2026-03-29T10:02:30Z</time></trkpt><trkpt lat="45.33410712659326" lon="9.047969942108844"><ele>101.0</ele><time>2026-03-29T10:02:34Z</time></trkpt><trkpt lat="45.33403133052588" lon="9.048013928800781"><ele>101.0</ele><time>2026-03-29T10:02:37Z</time></trkpt><trkpt lat="45.33396808874096" lon="9.04804644007902"><ele>101.0</ele><time>2026-03-29T10:02:41Z</time></trkpt><trkpt lat="45.3338944547181" lon="9.048092236971817"><ele>100.99999999999999</ele><time>2026-03-29T10:03:04Z</time></trkpt><trkpt lat="45.33383306397736" lon="9.048123731793813"><ele>101.0</ele><time>2026-03-29T10:03:05Z</time></trkpt><trkpt lat="45.33369893556932" lon="9.048169023372864"><ele>101.4</ele><time>2026-03-29T10:03:07Z</time></trkpt><trkpt lat="45.33361029707343" lon="9.048218506274207"><ele>101.8</ele><time>2026-03-29T10:03:08Z</time></trkpt><trkpt lat="45.33351623199418" lon="9.048261044814723"><ele>102.2</ele><time>2026-03-29T10:03:09Z</time></trkpt><trkpt lat="45.33341656302885" lon="9.048311239074302"><ele>102.60000000000001</ele><time>2026-03-29T10:03:10Z</time></trkpt><trkpt lat="45.33330591283202" lon="9.048369494466952"><ele>103.0</ele><time>2026-03-29T10:03:11Z</time></trkpt><trkpt lat="45.33319467220765" lon="9.048427325347706"><ele>103.0</ele><time>2026-03-29T10:03:12Z</time></trkpt><trkpt lat="45.33307437195232" lon="9.048498280480299"><ele>103.0</ele><time>2026-03-29T10:03:13Z</time></trkpt><trkpt lat="45.33296669048045" lon="9.048553294941849"><ele>103.0</ele><time>2026-03-29T10:03:14Z</time></trkpt><trkpt lat="45.33286767531431" lon="9.048620162927488"><ele>103.0</ele><time>2026-03-29T10:03:15Z</time></trkpt><trkpt lat="45.332781413886714" lon="9.04867569712486"><ele>103.0</ele><time>2026-03-29T10:03:16Z</time></trkpt><trkpt lat="45.33270310598527" lon="9.048748544838343"><ele>102.66666666666667</ele><time>2026-03-29T10:03:17Z</time></trkpt><trkpt lat="45.33263548842082" lon="9.048824403452977"><ele>102.33333333333334</ele><time>2026-03-29T10:03:18Z</time></trkpt><trkpt lat="45.33257659865632" lon="9.0488973076895"><ele>102.0</ele><time>2026-03-29T10:03:19Z</time></trkpt><trkpt lat="45.332531136330594" lon="9.048963099523501"><ele>101.66666666666666</ele><time>2026-03-29T10:03:19.999Z</time></trkpt><trkpt lat="45.33245804263253" lon="9.049075091021757"><ele>101.33333333333333</ele><time>2026-03-29T10:03:21.999Z</time></trkpt><trkpt lat="45.33241512233938" lon="9.049149697572066"><ele>101.0</ele><time>2026-03-29T10:03:23.999Z</time></trkpt><trkpt lat="45.33236108581666" lon="9.049230597149167"><ele>101.0</ele><time>2026-03-29T10:03:38.999Z</time></trkpt><trkpt lat="45.332269360576426" lon="9.049358787913151"><ele>101.0</ele><time>2026-03-29T10:03:40.999Z</time></trkpt><trkpt lat="45.33220839253428" lon="9.049429692518766"><ele>101.0</ele><time>2026-03-29T10:03:41.999Z</time></trkpt><trkpt lat="45.33214891364874" lon="9.049510975200715"><ele>101.0</ele><time>2026-03-29T10:03:42.999Z</time></trkpt><trkpt lat="45.33209141670714" lon="9.049603494717958"><ele>101.0</ele><time>2026-03-29T10:03:43.999Z</time></trkpt><trkpt lat="45.33203654376097" lon="9.049721602836454"><ele>101.0</ele><time>2026-03-29T10:03:44.999Z</time></trkpt><trkpt lat="45.33198153964698" lon="9.049845243681874"><ele>101.0</ele><time>2026-03-29T10:03:45.999Z</time></trkpt><trkpt lat="45.331919705676206" lon="9.049970679076052"><ele>101.0</ele><time>2026-03-29T10:03:46.999Z</time></trkpt><trkpt lat="45.33185275665222" lon="9.050101062734164"><ele>101.0</ele><time>2026-03-29T10:03:47.999Z</time></trkpt><trkpt lat="45.33178650670475" lon="9.05023179104198"><ele>101.0</ele><time>2026-03-29T10:03:48.999Z</time></trkpt><trkpt lat="45.331725053188265" lon="9.05036265062695"><ele>101.0</ele><time>2026-03-29T10:03:49.999Z</time></trkpt><trkpt lat="45.33166382142232" lon="9.050494512544592"><ele>101.0</ele><time>2026-03-29T10:03:50.999Z</time></trkpt><trkpt lat="45.331596513243305" lon="9.050632849288803"><ele>101.0</ele><time>2026-03-29T10:03:51.999Z</time></trkpt><trkpt lat="45.331535926310856" lon="9.050769925241594"><ele>101.0</ele><time>2026-03-29T10:03:52.999Z</time></trkpt><trkpt lat="45.33147429719094" lon="9.050903336854228"><ele>101.0</ele><time>2026-03-29T10:03:53.999Z</time></trkpt><trkpt lat="45.3314198539295" lon="9.05102298467766"><ele>101.0</ele><time>2026-03-29T10:03:54.999Z</time></trkpt><trkpt lat="45.33136686770095" lon="9.051132589003847"><ele>101.0</ele><time>2026-03-29T10:03:55.999Z</time></trkpt><trkpt lat="45.33131005986178" lon="9.051254964331354"><ele>101.0</ele><time>2026-03-29T10:03:56.999Z</time></trkpt><trkpt lat="45.33125386626028" lon="9.051381493551359"><ele>101.0</ele><time>2026-03-29T10:03:57.999Z</time></trkpt><trkpt lat="45.33119218373269" lon="9.051506315602394"><ele>101.0</ele><time>2026-03-29T10:03:58.999Z</time></trkpt><trkpt lat="45.33112092126628" lon="9.05161506961441"><ele>101.0</ele><time>2026-03-29T10:03:59.999Z</time></trkpt><trkpt lat="45.33103785424027" lon="9.05170350969444"><ele>101.0</ele><time>2026-03-29T10:04:00.999Z</time></trkpt><trkpt lat="45.330963496868094" lon="9.051774159803825"><ele>101.0</ele><time>2026-03-29T10:04:01.999Z</time></trkpt><trkpt lat="45.33091105247661" lon="9.05186418085921"><ele>101.0</ele><time>2026-03-29T10:04:02.999Z</time></trkpt><trkpt lat="45.33090062424428" lon="9.052000152853742"><ele>101.0</ele><time>2026-03-29T10:04:03.999Z</time></trkpt><trkpt lat="45.3309342122948" lon="9.052137638247412"><ele>101.0</ele><time>2026-03-29T10:04:04.999Z</time></trkpt><trkpt lat="45.33100519605711" lon="9.052252601157745"><ele>101.0</ele><time>2026-03-29T10:04:05.999Z</time></trkpt><trkpt lat="45.3310725243026" lon="9.052396412935593"><ele>101.0</ele><time>2026-03-29T10:04:06.999Z</time></trkpt><trkpt lat="45.3311388142511" lon="9.052536557902014"><ele>101.0</ele><time>2026-03-29T10:04:07.999Z</time></trkpt><trkpt lat="45.331238298755075" lon="9.052650232688414"><ele>101.0</ele><time>2026-03-29T10:04:08.999Z</time></trkpt><trkpt lat="45.33128236287843" lon="9.052855083056498"><ele>101.0</ele><time>2026-03-29T10:04:09.999Z</time></trkpt><trkpt lat="45.33134670246118" lon="9.053039267226346"><ele>101.0</ele><time>2026-03-29T10:04:10.999Z</time></trkpt><trkpt lat="45.33140740265939" lon="9.053229703958948"><ele>100.75</ele><time>2026-03-29T10:04:11.999Z</time></trkpt><trkpt lat="45.33147198839749" lon="9.053427270683137"><ele>100.5</ele><time>2026-03-29T10:04:12.999Z</time></trkpt><trkpt lat="45.33151814497219" lon="9.053619060349568"><ele>100.25</ele><time>2026-03-29T10:04:13.999Z</time></trkpt><trkpt lat="45.331592597586535" lon="9.053798517227381"><ele>100.0</ele><time>2026-03-29T10:04:14.999Z</time></trkpt><trkpt lat="45.331647423628766" lon="9.053997399900604"><ele>100.25</ele><time>2026-03-29T10:04:15.999Z</time></trkpt><trkpt lat="45.331699998024625" lon="9.054183627941969"><ele>100.5</ele><time>2026-03-29T10:04:16.999Z</time></trkpt><trkpt lat="45.331747628790104" lon="9.054377953386393"><ele>100.75</ele><time>2026-03-29T10:04:17.999Z</time></trkpt><trkpt lat="45.3317746435797" lon="9.054593030887437"><ele>101.0</ele><time>2026-03-29T10:04:18.999Z</time></trkpt><trkpt lat="45.331776957128774" lon="9.054821000736679"><ele>102.0</ele><time>2026-03-29T10:04:19.999Z</time></trkpt><trkpt lat="45.33178025167384" lon="9.055058167079476"><ele>103.0</ele><time>2026-03-29T10:04:20.999Z</time></trkpt><trkpt lat="45.331786383927835" lon="9.055304883379323"><ele>104.0</ele><time>2026-03-29T10:04:21.999Z</time></trkpt><trkpt lat="45.33179228100301" lon="9.0555460523615"><ele>104.0</ele><time>2026-03-29T10:04:22.999Z</time></trkpt><trkpt lat="45.33179840233012" lon="9.05579368823147"><ele>104.0</ele><time>2026-03-29T10:04:23.999Z</time></trkpt><trkpt lat="45.33180298514838" lon="9.056030506616018"><ele>104.0</ele><time>2026-03-29T10:04:24.999Z</time></trkpt><trkpt lat="45.331810893269704" lon="9.056263542788423"><ele>104.0</ele><time>2026-03-29T10:04:25.999Z</time></trkpt><trkpt lat="45.331814861774006" lon="9.056495859946477"><ele>104.0</ele><time>2026-03-29T10:04:26.999Z</time></trkpt><trkpt lat="45.33182078191876" lon="9.056723554787016"><ele>104.0</ele><time>2026-03-29T10:04:27.999Z</time></trkpt><trkpt lat="45.33182944512028" lon="9.05695158043645"><ele>103.0</ele><time>2026-03-29T10:04:28.999Z</time></trkpt><trkpt lat="45.331849138010554" lon="9.057157293541668"><ele>102.0</ele><time>2026-03-29T10:04:30Z</time></trkpt><trkpt lat="45.33188587135322" lon="9.05735912793467"><ele>101.0</ele><time>2026-03-29T10:04:31Z</time></trkpt><trkpt lat="45.3319438185562" lon="9.05755701248578"><ele>100.0</ele><time>2026-03-29T10:04:32Z</time></trkpt><trkpt lat="45.33201996087434" lon="9.057722141638259"><ele>99.5</ele><time>2026-03-29T10:04:33Z</time></trkpt><trkpt lat="45.3320969189351" lon="9.057876717456478"><ele>99.0</ele><time>2026-03-29T10:04:34Z</time></trkpt><trkpt lat="45.33216348940427" lon="9.058052739738093"><ele>98.5</ele><time>2026-03-29T10:04:35Z</time></trkpt><trkpt lat="45.33222384865542" lon="9.05824964551534"><ele>98.0</ele><time>2026-03-29T10:04:36Z</time></trkpt><trkpt lat="45.33227288015226" lon="9.058466763347452"><ele>98.0</ele><time>2026-03-29T10:04:37Z</time></trkpt><trkpt lat="45.33230892299063" lon="9.058693741977438"><ele>98.0</ele><time>2026-03-29T10:04:38Z</time></trkpt><trkpt lat="45.33233761481015" lon="9.058915173117377"><ele>98.0</ele><time>2026-03-29T10:04:39Z</time></trkpt><trkpt lat="45.33236585868338" lon="9.05913325897167"><ele>98.33333333333333</ele><time>2026-03-29T10:04:40Z</time></trkpt><trkpt lat="45.332394809283166" lon="9.059355712300746"><ele>98.66666666666666</ele><time>2026-03-29T10:04:41Z</time></trkpt><trkpt lat="45.33242372415174" lon="9.059579931602148"><ele>99.0</ele><time>2026-03-29T10:04:42Z</time></trkpt><trkpt lat="45.332453626359985" lon="9.059801156972917"><ele>99.33333333333334</ele><time>2026-03-29T10:04:43Z</time></trkpt><trkpt lat="45.33248627629933" lon="9.060028392190043"><ele>99.66666666666667</ele><time>2026-03-29T10:04:44Z</time></trkpt><trkpt lat="45.33251883862565" lon="9.060256769840231"><ele>100.0</ele><time>2026-03-29T10:04:45Z</time></trkpt><trkpt lat="45.33255053322953" lon="9.060483387356967"><ele>100.0</ele><time>2026-03-29T10:04:46Z</time></trkpt><trkpt lat="45.332586490480864" lon="9.06070474941732"><ele>100.0</ele><time>2026-03-29T10:04:47Z</time></trkpt><trkpt lat="45.332626307046866" lon="9.06092830854129"><ele>100.0</ele><time>2026-03-29T10:04:48Z</time></trkpt><trkpt lat="45.332669469521534" lon="9.061150180717727"><ele>100.0</ele><time>2026-03-29T10:04:49Z</time></trkpt><trkpt lat="45.332708839799594" lon="9.061369413176564"><ele>100.0</ele><time>2026-03-29T10:04:50Z</time></trkpt><trkpt lat="45.33274515181569" lon="9.06159055081901"><ele>100.0</ele><time>2026-03-29T10:04:51Z</time></trkpt><trkpt lat="45.332783920361365" lon="9.061802601758481"><ele>100.0</ele><time>2026-03-29T10:04:52Z</time></trkpt><trkpt lat="45.33282559148512" lon="9.062024603881028"><ele>100.0</ele><time>2026-03-29T10:04:53Z</time></trkpt><trkpt lat="45.33286659186337" lon="9.062247105385744"><ele>100.0</ele><time>2026-03-29T10:04:54Z</time></trkpt><trkpt lat="45.332905771567475" lon="9.062481773523864"><ele>100.33333333333334</ele><time>2026-03-29T10:04:55Z</time></trkpt><trkpt lat="45.33294379677688" lon="9.062717596548316"><ele>100.66666666666666</ele><time>2026-03-29T10:04:56Z</time></trkpt><trkpt lat="45.33297287443861" lon="9.062957028117545"><ele>101.0</ele><time>2026-03-29T10:04:57Z</time></trkpt><trkpt lat="45.3329832575574" lon="9.063202219845271"><ele>100.66666666666666</ele><time>2026-03-29T10:04:58Z</time></trkpt><trkpt lat="45.33298429400894" lon="9.063451852460885"><ele>100.33333333333334</ele><time>2026-03-29T10:04:59Z</time></trkpt><trkpt lat="45.33298705859287" lon="9.063705993741767"><ele>100.0</ele><time>2026-03-29T10:05:00Z</time></trkpt><trkpt lat="45.332992931127855" lon="9.06396557136759"><ele>100.33333333333334</ele><time>2026-03-29T10:05:01Z</time></trkpt><trkpt lat="45.332998600829626" lon="9.064217991220538"><ele>100.66666666666666</ele><time>2026-03-29T10:05:02Z</time></trkpt><trkpt lat="45.33300280095758" lon="9.064461850967264"><ele>101.0</ele><time>2026-03-29T10:05:03Z</time></trkpt><trkpt lat="45.3330060207599" lon="9.064710983685321"><ele>101.0</ele><time>2026-03-29T10:05:04Z</time></trkpt><trkpt lat="45.333009889577625" lon="9.064959714716595"><ele>101.0</ele><time>2026-03-29T10:05:05Z</time></trkpt><trkpt lat="45.333012309406875" lon="9.065214023919024"><ele>101.0</ele><time>2026-03-29T10:05:06Z</time></trkpt><trkpt lat="45.33301580872415" lon="9.065468245546976"><ele>101.0</ele><time>2026-03-29T10:05:07Z</time></trkpt><trkpt lat="45.333018008642966" lon="9.065723374884602"><ele>101.0</ele><time>2026-03-29T10:05:08Z</time></trkpt><trkpt lat="45.333020998855005" lon="9.065959408668286"><ele>101.0</ele><time>2026-03-29T10:05:09Z</time></trkpt><trkpt lat="45.333023187445434" lon="9.066207906769645"><ele>100.66666666666666</ele><time>2026-03-29T10:05:10Z</time></trkpt><trkpt lat="45.33302498192573" lon="9.066466965666962"><ele>100.33333333333334</ele><time>2026-03-29T10:05:11Z</time></trkpt><trkpt lat="45.33302977699824" lon="9.066737222309612"><ele>100.0</ele><time>2026-03-29T10:05:12Z</time></trkpt><trkpt lat="45.33303362602047" lon="9.066996119637263"><ele>100.0</ele><time>2026-03-29T10:05:13Z</time></trkpt><trkpt lat="45.33303731134969" lon="9.067250648031246"><ele>100.0</ele><time>2026-03-29T10:05:14Z</time></trkpt><trkpt lat="45.333038048078805" lon="9.067507355550369"><ele>100.0</ele><time>2026-03-29T10:05:15Z</time></trkpt><trkpt lat="45.333039457653854" lon="9.067760559298751"><ele>99.0</ele><time>2026-03-29T10:05:16Z</time></trkpt><trkpt lat="45.333043995068344" lon="9.06801383438376"><ele>98.0</ele><time>2026-03-29T10:05:17Z</time></trkpt><trkpt lat="45.33305218213498" lon="9.068267729963445"><ele>97.0</ele><time>2026-03-29T10:05:18Z</time></trkpt><trkpt lat="45.33306194833964" lon="9.068519930379585"><ele>97.0</ele><time>2026-03-29T10:05:19Z</time></trkpt><trkpt lat="45.333080067682076" lon="9.06877456282691"><ele>97.0</ele><time>2026-03-29T10:05:20Z</time></trkpt><trkpt lat="45.33310429911746" lon="9.069005480002899"><ele>97.0</ele><time>2026-03-29T10:05:21Z</time></trkpt><trkpt lat="45.333125603424236" lon="9.069241614851297"><ele>97.33333333333334</ele><time>2026-03-29T10:05:22Z</time></trkpt><trkpt lat="45.333145561408145" lon="9.069473931762644"><ele>97.66666666666666</ele><time>2026-03-29T10:05:23Z</time></trkpt><trkpt lat="45.33316752266796" lon="9.069714239065657"><ele>98.0</ele><time>2026-03-29T10:05:24Z</time></trkpt><trkpt lat="45.33319275431788" lon="9.06995263480903"><ele>98.66666666666666</ele><time>2026-03-29T10:05:25Z</time></trkpt><trkpt lat="45.333219014551766" lon="9.070199845551683"><ele>99.33333333333334</ele><time>2026-03-29T10:05:26Z</time></trkpt><trkpt lat="45.333244538039004" lon="9.070453506607286"><ele>100.0</ele><time>2026-03-29T10:05:27Z</time></trkpt><trkpt lat="45.333272987320704" lon="9.070720180277812"><ele>99.33333333333334</ele><time>2026-03-29T10:05:28Z</time></trkpt><trkpt lat="45.333301164108875" lon="9.070987375332251"><ele>98.66666666666666</ele><time>2026-03-29T10:05:29Z</time></trkpt><trkpt lat="45.333327079278256" lon="9.071258731402235"><ele>98.0</ele><time>2026-03-29T10:05:30Z</time></trkpt><trkpt lat="45.33335342332069" lon="9.071527265572232"><ele>98.33333333333333</ele><time>2026-03-29T10:05:30.999Z</time></trkpt><trkpt lat="45.333382286952286" lon="9.07178795291926"><ele>98.66666666666666</ele><time>2026-03-29T10:05:31.999Z</time></trkpt><trkpt lat="45.33340988433338" lon="9.072039240360727"><ele>99.0</ele><time>2026-03-29T10:05:32.999Z</time></trkpt><trkpt lat="45.333432950153814" lon="9.072299844300682"><ele>99.0</ele><time>2026-03-29T10:05:33.999Z</time></trkpt><trkpt lat="45.333453257797146" lon="9.07254146822422"><ele>99.0</ele><time>2026-03-29T10:05:34.999Z</time></trkpt><trkpt lat="45.33347573135682" lon="9.072775663344393"><ele>99.0</ele><time>2026-03-29T10:05:35.999Z</time></trkpt><trkpt lat="45.33349800455423" lon="9.073007983499531"><ele>99.0</ele><time>2026-03-29T10:05:36.999Z</time></trkpt><trkpt lat="45.33352273994952" lon="9.073240410680775"><ele>99.0</ele><time>2026-03-29T10:05:37.999Z</time></trkpt><trkpt lat="45.33354455220395" lon="9.07347115429584"><ele>99.0</ele><time>2026-03-29T10:05:38.999Z</time></trkpt><trkpt lat="45.33356091592582" lon="9.073691736190673"><ele>99.75</ele><time>2026-03-29T10:05:39.999Z</time></trkpt><trkpt lat="45.333579354595074" lon="9.07389373816012"><ele>100.5</ele><time>2026-03-29T10:05:40.999Z</time></trkpt><trkpt lat="45.33359435199172" lon="9.074081086393647"><ele>101.25</ele><time>2026-03-29T10:05:41.999Z</time></trkpt><trkpt lat="45.33360844696338" lon="9.074253818672556"><ele>102.0</ele><time>2026-03-29T10:05:42.999Z</time></trkpt><trkpt lat="45.33362164118453" lon="9.074393923683436"><ele>102.0</ele><time>2026-03-29T10:05:43.999Z</time></trkpt><trkpt lat="45.33363235957594" lon="9.074518413201163"><ele>102.0</ele><time>2026-03-29T10:05:44.999Z</time></trkpt><trkpt lat="45.333638425439545" lon="9.074633673810174"><ele>102.0</ele><time>2026-03-29T10:05:45.999Z</time></trkpt><trkpt lat="45.33361972209616" lon="9.074734254552101"><ele>102.0</ele><time>2026-03-29T10:05:46.999Z</time></trkpt><trkpt lat="45.33349438954356" lon="9.07487039193353"><ele>102.0</ele><time>2026-03-29T10:05:48.999Z</time></trkpt><trkpt lat="45.33340423951993" lon="9.074906914919996"><ele>102.0</ele><time>2026-03-29T10:05:49.999Z</time></trkpt><trkpt lat="45.333309789836775" lon="9.074932017902128"><ele>102.0</ele><time>2026-03-29T10:05:50.999Z</time></trkpt><trkpt lat="45.333207301602" lon="9.074960761560652"><ele>102.0</ele><time>2026-03-29T10:05:51.999Z</time></trkpt><trkpt lat="45.33310273087334" lon="9.074994554038064"><ele>102.0</ele><time>2026-03-29T10:05:52.999Z</time></trkpt><trkpt lat="45.3329955868371" lon="9.07502936505903"><ele>102.0</ele><time>2026-03-29T10:05:53.999Z</time></trkpt><trkpt lat="45.332882361582556" lon="9.075066755505155"><ele>101.0</ele><time>2026-03-29T10:05:54.999Z</time></trkpt><trkpt lat="45.33276235730246" lon="9.075113744882017"><ele>100.0</ele><time>2026-03-29T10:05:55.999Z</time></trkpt><trkpt lat="45.33263631211009" lon="9.075156689659236"><ele>99.0</ele><time>2026-03-29T10:05:56.999Z</time></trkpt><trkpt lat="45.33250306643117" lon="9.075199120556594"><ele>98.0</ele><time>2026-03-29T10:05:57.999Z</time></trkpt><trkpt lat="45.332376122947686" lon="9.075235769599248"><ele>98.0</ele><time>2026-03-29T10:05:58.999Z</time></trkpt><trkpt lat="45.332241055512505" lon="9.075273303057815"><ele>98.0</ele><time>2026-03-29T10:05:59.999Z</time></trkpt><trkpt lat="45.33209782198151" lon="9.075309184445896"><ele>98.0</ele><time>2026-03-29T10:06:00.999Z</time></trkpt><trkpt lat="45.331952704309884" lon="9.075338851281625"><ele>98.0</ele><time>2026-03-29T10:06:01.999Z</time></trkpt><trkpt lat="45.33180671958762" lon="9.075370069282446"><ele>97.75</ele><time>2026-03-29T10:06:02.999Z</time></trkpt><trkpt lat="45.33165764858149" lon="9.075400708306896"><ele>97.5</ele><time>2026-03-29T10:06:03.999Z</time></trkpt><trkpt lat="45.331510994666175" lon="9.075436073307813"><ele>97.25</ele><time>2026-03-29T10:06:04.999Z</time></trkpt><trkpt lat="45.331370920453445" lon="9.075467681239894"><ele>97.0</ele><time>2026-03-29T10:06:05.999Z</time></trkpt><trkpt lat="45.33123510444671" lon="9.07550231115895"><ele>97.66666666666667</ele><time>2026-03-29T10:06:06.999Z</time></trkpt><trkpt lat="45.331086204301954" lon="9.0755307601823"><ele>98.33333333333334</ele><time>2026-03-29T10:06:07.999Z</time></trkpt><trkpt lat="45.3309263771632" lon="9.07557062044581"><ele>99.0</ele><time>2026-03-29T10:06:08.999Z</time></trkpt><trkpt lat="45.33075630370887" lon="9.075620364113147"><ele>99.0</ele><time>2026-03-29T10:06:09.999Z</time></trkpt><trkpt lat="45.33058905232067" lon="9.07567683489835"><ele>99.0</ele><time>2026-03-29T10:06:10.999Z</time></trkpt><trkpt lat="45.33042084956999" lon="9.075733948727049"><ele>99.0</ele><time>2026-03-29T10:06:11.999Z</time></trkpt><trkpt lat="45.33027970498746" lon="9.075788330949846"><ele>98.66666666666666</ele><time>2026-03-29T10:06:12.999Z</time></trkpt><trkpt lat="45.33013098897912" lon="9.075846564954773"><ele>98.33333333333333</ele><time>2026-03-29T10:06:13.999Z</time></trkpt><trkpt lat="45.32998008549821" lon="9.07591135737585"><ele>98.0</ele><time>2026-03-29T10:06:14.999Z</time></trkpt><trkpt lat="45.329846376313405" lon="9.075971292378851"><ele>98.0</ele><time>2026-03-29T10:06:15.999Z</time></trkpt><trkpt lat="45.32972149657367" lon="9.076027754632072"><ele>98.0</ele><time>2026-03-29T10:06:16.999Z</time></trkpt><trkpt lat="45.329600165127836" lon="9.07608216529455"><ele>98.0</ele><time>2026-03-29T10:06:17.999Z</time></trkpt><trkpt lat="45.32948442262406" lon="9.07613630338133"><ele>98.0</ele><time>2026-03-29T10:06:18.999Z</time></trkpt><trkpt lat="45.32936646512759" lon="9.07619049754659"><ele>98.0</ele><time>2026-03-29T10:06:19.999Z</time></trkpt><trkpt lat="45.3292452416035" lon="9.07625239126394"><ele>98.0</ele><time>2026-03-29T10:06:20.999Z</time></trkpt><trkpt lat="45.32912248922553" lon="9.076321079880877"><ele>98.0</ele><time>2026-03-29T10:06:21.999Z</time></trkpt><trkpt lat="45.3289924989177" lon="9.076391256091412"><ele>98.0</ele><time>2026-03-29T10:06:22.999Z</time></trkpt><trkpt lat="45.32885920817149" lon="9.076457777275362"><ele>98.0</ele><time>2026-03-29T10:06:23.999Z</time></trkpt><trkpt lat="45.32872945519104" lon="9.076516290801665"><ele>98.0</ele><time>2026-03-29T10:06:24.999Z</time></trkpt><trkpt lat="45.32860211928145" lon="9.076577458828382"><ele>98.0</ele><time>2026-03-29T10:06:25.999Z</time></trkpt><trkpt lat="45.32848230212014" lon="9.076633989952011"><ele>98.0</ele><time>2026-03-29T10:06:26.999Z</time></trkpt><trkpt lat="45.328364725051365" lon="9.076687839151973"><ele>98.0</ele><time>2026-03-29T10:06:27.999Z</time></trkpt><trkpt lat="45.32824660537242" lon="9.076741557666438"><ele>98.0</ele><time>2026-03-29T10:06:28.999Z</time></trkpt><trkpt lat="45.32814040736736" lon="9.076786806970365"><ele>98.0</ele><time>2026-03-29T10:06:29.999Z</time></trkpt><trkpt lat="45.328038224992916" lon="9.076830434571296"><ele>98.0</ele><time>2026-03-29T10:06:30.999Z</time></trkpt><trkpt lat="45.32793686407416" lon="9.07687928845704"><ele>98.0</ele><time>2026-03-29T10:06:31.999Z</time></trkpt><trkpt lat="45.32783667038607" lon="9.076925895758103"><ele>97.80000000000001</ele><time>2026-03-29T10:06:32.999Z</time></trkpt><trkpt lat="45.32773072233995" lon="9.076976117702376"><ele>97.6</ele><time>2026-03-29T10:06:33.999Z</time></trkpt><trkpt lat="45.32763038099363" lon="9.077029569196583"><ele>97.4</ele><time>2026-03-29T10:06:34.999Z</time></trkpt><trkpt lat="45.32753525882855" lon="9.077077414350425"><ele>97.19999999999999</ele><time>2026-03-29T10:06:36Z</time></trkpt><trkpt lat="45.327445163430475" lon="9.077122154114406"><ele>97.0</ele><time>2026-03-29T10:06:37Z</time></trkpt><trkpt lat="45.32736202452659" lon="9.077167515178608"><ele>97.00000000000001</ele><time>2026-03-29T10:06:38Z</time></trkpt><trkpt lat="45.327285522466944" lon="9.07720781136826"><ele>97.0</ele><time>2026-03-29T10:06:39Z</time></trkpt><trkpt lat="45.32721330475934" lon="9.077256473901215"><ele>97.0</ele><time>2026-03-29T10:06:40Z</time></trkpt><trkpt lat="45.32715133191285" lon="9.077296780517397"><ele>97.0</ele><time>2026-03-29T10:06:41Z</time></trkpt><trkpt lat="45.32708866206754" lon="9.07733963921091"><ele>97.00000000000001</ele><time>2026-03-29T10:06:42Z</time></trkpt><trkpt lat="45.32698613072089" lon="9.077405936530797"><ele>97.0</ele><time>2026-03-29T10:06:44Z</time></trkpt><trkpt lat="45.32691544086875" lon="9.077446591381458"><ele>97.50000000000001</ele><time>2026-03-29T10:06:46Z</time></trkpt><trkpt lat="45.32684528828583" lon="9.077487221843885"><ele>98.0</ele><time>2026-03-29T10:06:48Z</time></trkpt><trkpt lat="45.32678547343277" lon="9.077519046594134"><ele>98.5</ele><time>2026-03-29T10:06:50Z</time></trkpt><trkpt lat="45.32672492649946" lon="9.07756550069759"><ele>99.0</ele><time>2026-03-29T10:06:53Z</time></trkpt><trkpt lat="45.32663304393597" lon="9.077632127129815"><ele>99.50000000000001</ele><time>2026-03-29T10:07:04Z</time></trkpt><trkpt lat="45.32655860015613" lon="9.077709495966749"><ele>100.0</ele><time>2026-03-29T10:07:06Z</time></trkpt><trkpt lat="45.32647055189516" lon="9.077790847879259"><ele>99.83333333333334</ele><time>2026-03-29T10:07:08Z</time></trkpt><trkpt lat="45.3263497087413" lon="9.077776434100398"><ele>99.66666666666667</ele><time>2026-03-29T10:07:10Z</time></trkpt><trkpt lat="45.32628424904081" lon="9.077782472580976"><ele>99.5</ele><time>2026-03-29T10:07:11Z</time></trkpt><trkpt lat="45.3262173898487" lon="9.077789659196375"><ele>99.33333333333334</ele><time>2026-03-29T10:07:12Z</time></trkpt><trkpt lat="45.32614211593249" lon="9.077824138567172"><ele>99.16666666666667</ele><time>2026-03-29T10:07:13Z</time></trkpt><trkpt lat="45.326062605355816" lon="9.077829587080563"><ele>99.0</ele><time>2026-03-29T10:07:14Z</time></trkpt><trkpt lat="45.325972023065134" lon="9.07784047308754"><ele>99.0</ele><time>2026-03-29T10:07:15Z</time></trkpt><trkpt lat="45.325875472172314" lon="9.077847235247912"><ele>99.0</ele><time>2026-03-29T10:07:16Z</time></trkpt><trkpt lat="45.32578054103146" lon="9.07785029520263"><ele>99.0</ele><time>2026-03-29T10:07:17Z</time></trkpt><trkpt lat="45.32568205028723" lon="9.077855905942249"><ele>99.0</ele><time>2026-03-29T10:07:18Z</time></trkpt><trkpt lat="45.32558085456486" lon="9.077864350903635"><ele>99.0</ele><time>2026-03-29T10:07:19Z</time></trkpt><trkpt lat="45.32547835534568" lon="9.077873840150149"><ele>98.80000000000001</ele><time>2026-03-29T10:07:20Z</time></trkpt><trkpt lat="45.32537085017318" lon="9.077877148754588"><ele>98.60000000000001</ele><time>2026-03-29T10:07:21Z</time></trkpt><trkpt lat="45.32526661658382" lon="9.07788997343972"><ele>98.4</ele><time>2026-03-29T10:07:22Z</time></trkpt><trkpt lat="45.325178312061965" lon="9.07789198981868"><ele>98.2</ele><time>2026-03-29T10:07:23Z</time></trkpt><trkpt lat="45.325094417474666" lon="9.077891822384949"><ele>98.0</ele><time>2026-03-29T10:07:24Z</time></trkpt><trkpt lat="45.32502029445098" lon="9.077895218814122"><ele>98.0</ele><time>2026-03-29T10:07:25Z</time></trkpt><trkpt lat="45.32494775188871" lon="9.077899997062918"><ele>98.0</ele><time>2026-03-29T10:07:26Z</time></trkpt><trkpt lat="45.32487349356701" lon="9.077906677912905"><ele>98.0</ele><time>2026-03-29T10:07:27Z</time></trkpt><trkpt lat="45.32480102508571" lon="9.077917251184953"><ele>98.0</ele><time>2026-03-29T10:07:28Z</time></trkpt><trkpt lat="45.32473462500206" lon="9.077928469137634"><ele>98.0</ele><time>2026-03-29T10:07:29Z</time></trkpt><trkpt lat="45.32467191957827" lon="9.077936735383897"><ele>98.0</ele><time>2026-03-29T10:07:30Z</time></trkpt><trkpt lat="45.32457675284261" lon="9.077948418102581"><ele>98.0</ele><time>2026-03-29T10:07:32Z</time></trkpt><trkpt lat="45.32451672384961" lon="9.07799220475426"><ele>97.99999999999999</ele><time>2026-03-29T10:07:35Z</time></trkpt><trkpt lat="45.324432291316974" lon="9.077962198617017"><ele>98.0</ele><time>2026-03-29T10:12:08.999Z</time></trkpt><trkpt lat="45.32435889219378" lon="9.077998787562894"><ele>98.0</ele><time>2026-03-29T10:12:10.999Z</time></trkpt><trkpt lat="45.32430702199865" lon="9.078069943577757"><ele>98.0</ele><time>2026-03-29T10:12:12.999Z</time></trkpt><trkpt lat="45.32429933446443" lon="9.078239625243672"><ele>97.99999999999999</ele><time>2026-03-29T10:12:14.999Z</time></trkpt><trkpt lat="45.32431814555568" lon="9.078339377188207"><ele>98.0</ele><time>2026-03-29T10:12:15.999Z</time></trkpt><trkpt lat="45.32433382373403" lon="9.078444566403448"><ele>97.60000000000001</ele><time>2026-03-29T10:12:16.999Z</time></trkpt><trkpt lat="45.324354634930415" lon="9.078552166506423"><ele>97.2</ele><time>2026-03-29T10:12:17.999Z</time></trkpt><trkpt lat="45.32437841920823" lon="9.078666663256232"><ele>96.8</ele><time>2026-03-29T10:12:18.999Z</time></trkpt><trkpt lat="45.324402203431525" lon="9.078794797055561"><ele>96.4</ele><time>2026-03-29T10:12:19.999Z</time></trkpt><trkpt lat="45.32442176628906" lon="9.078933519395761"><ele>96.0</ele><time>2026-03-29T10:12:20.999Z</time></trkpt><trkpt lat="45.32443783587047" lon="9.079067310231887"><ele>96.19999999999999</ele><time>2026-03-29T10:12:21.999Z</time></trkpt><trkpt lat="45.32445638674559" lon="9.079207378465942"><ele>96.39999999999999</ele><time>2026-03-29T10:12:22.999Z</time></trkpt><trkpt lat="45.32448155238044" lon="9.079361193138432"><ele>96.6</ele><time>2026-03-29T10:12:23.999Z</time></trkpt><trkpt lat="45.32450579158076" lon="9.079521059270906"><ele>96.8</ele><time>2026-03-29T10:12:24.999Z</time></trkpt><trkpt lat="45.32452563438822" lon="9.079679599179428"><ele>97.0</ele><time>2026-03-29T10:12:25.999Z</time></trkpt><trkpt lat="45.32454423931557" lon="9.079836064624226"><ele>96.6</ele><time>2026-03-29T10:12:26.999Z</time></trkpt><trkpt lat="45.3245580769712" lon="9.079998983658987"><ele>96.19999999999999</ele><time>2026-03-29T10:12:27.999Z</time></trkpt><trkpt lat="45.324569079894765" lon="9.0801505707903"><ele>95.8</ele><time>2026-03-29T10:12:28.999Z</time></trkpt><trkpt lat="45.32459274817713" lon="9.0803013905757"><ele>95.4</ele><time>2026-03-29T10:12:29.999Z</time></trkpt><trkpt lat="45.324623220683264" lon="9.080458593536864"><ele>95.0</ele><time>2026-03-29T10:12:30.999Z</time></trkpt><trkpt lat="45.3246385816593" lon="9.080610751950507"><ele>95.0</ele><time>2026-03-29T10:12:31.999Z</time></trkpt><trkpt lat="45.3246468575425" lon="9.080755336137011"><ele>95.0</ele><time>2026-03-29T10:12:32.999Z</time></trkpt><trkpt lat="45.32466683987815" lon="9.080904833449647"><ele>95.0</ele><time>2026-03-29T10:12:33.999Z</time></trkpt><trkpt lat="45.324684675276366" lon="9.081055945132706"><ele>95.0</ele><time>2026-03-29T10:12:34.999Z</time></trkpt><trkpt lat="45.32471362578269" lon="9.081220850476663"><ele>95.0</ele><time>2026-03-29T10:12:35.999Z</time></trkpt><trkpt lat="45.32474721952753" lon="9.081399562731589"><ele>95.75</ele><time>2026-03-29T10:12:36.999Z</time></trkpt><trkpt lat="45.32479636170075" lon="9.08155631337831"><ele>96.5</ele><time>2026-03-29T10:12:37.999Z</time></trkpt><trkpt lat="45.32485866523234" lon="9.081717932705194"><ele>97.25</ele><time>2026-03-29T10:12:38.999Z</time></trkpt><trkpt lat="45.324912906413694" lon="9.081893888138376"><ele>98.0</ele><time>2026-03-29T10:12:39.999Z</time></trkpt><trkpt lat="45.324958463489" lon="9.082080216585164"><ele>98.0</ele><time>2026-03-29T10:12:40.999Z</time></trkpt><trkpt lat="45.32500255446555" lon="9.082259125926013"><ele>98.0</ele><time>2026-03-29T10:12:41.999Z</time></trkpt><trkpt lat="45.32505091512457" lon="9.082432618512165"><ele>98.0</ele><time>2026-03-29T10:12:42.999Z</time></trkpt><trkpt lat="45.32509480167683" lon="9.082621075485275"><ele>98.0</ele><time>2026-03-29T10:12:43.999Z</time></trkpt><trkpt lat="45.325134940148686" lon="9.082806970968015"><ele>97.75</ele><time>2026-03-29T10:12:44.999Z</time></trkpt><trkpt lat="45.32518334464702" lon="9.082988063320727"><ele>97.5</ele><time>2026-03-29T10:12:45.999Z</time></trkpt><trkpt lat="45.325222181358185" lon="9.083172957581178"><ele>97.25</ele><time>2026-03-29T10:12:46.999Z</time></trkpt><trkpt lat="45.325252080007765" lon="9.083361480181301"><ele>97.0</ele><time>2026-03-29T10:12:47.999Z</time></trkpt><trkpt lat="45.32526280349401" lon="9.08355384127307"><ele>97.0</ele><time>2026-03-29T10:12:48.999Z</time></trkpt><trkpt lat="45.3252616896898" lon="9.083740577630882"><ele>97.0</ele><time>2026-03-29T10:12:49.999Z</time></trkpt><trkpt lat="45.325253947572385" lon="9.083938386774015"><ele>97.0</ele><time>2026-03-29T10:12:50.999Z</time></trkpt><trkpt lat="45.32524873408893" lon="9.084138718304924"><ele>97.0</ele><time>2026-03-29T10:12:51.999Z</time></trkpt><trkpt lat="45.325246539936245" lon="9.084331046500603"><ele>97.0</ele><time>2026-03-29T10:12:52.999Z</time></trkpt><trkpt lat="45.32524973903829" lon="9.084529804525582"><ele>97.0</ele><time>2026-03-29T10:12:54Z</time></trkpt><trkpt lat="45.32526141561327" lon="9.084726424992477"><ele>97.0</ele><time>2026-03-29T10:12:55Z</time></trkpt><trkpt lat="45.32528654272111" lon="9.08492758700351"><ele>97.0</ele><time>2026-03-29T10:12:56Z</time></trkpt><trkpt lat="45.325315986458214" lon="9.085138618564956"><ele>97.33333333333334</ele><time>2026-03-29T10:12:57Z</time></trkpt><trkpt lat="45.32536341447917" lon="9.085370257035029"><ele>97.66666666666666</ele><time>2026-03-29T10:12:58Z</time></trkpt><trkpt lat="45.325427410879186" lon="9.085583647930044"><ele>98.0</ele><time>2026-03-29T10:12:59Z</time></trkpt><trkpt lat="45.32546671983552" lon="9.085797322103106"><ele>98.0</ele><time>2026-03-29T10:13:00Z</time></trkpt><trkpt lat="45.32551599793009" lon="9.085979918627041"><ele>98.0</ele><time>2026-03-29T10:13:01Z</time></trkpt><trkpt lat="45.32555627564429" lon="9.086169402325133"><ele>98.0</ele><time>2026-03-29T10:13:02Z</time></trkpt><trkpt lat="45.32559521572643" lon="9.086346951078335"><ele>98.0</ele><time>2026-03-29T10:13:03Z</time></trkpt><trkpt lat="45.32563368633968" lon="9.086491913371143"><ele>98.0</ele><time>2026-03-29T10:13:04Z</time></trkpt><trkpt lat="45.32567141833568" lon="9.086648228760573"><ele>98.0</ele><time>2026-03-29T10:13:05Z</time></trkpt><trkpt lat="45.32570822032392" lon="9.086788613428107"><ele>98.0</ele><time>2026-03-29T10:13:06Z</time></trkpt><trkpt lat="45.32574304911522" lon="9.086916544452139"><ele>98.0</ele><time>2026-03-29T10:13:07Z</time></trkpt><trkpt lat="45.32577634788966" lon="9.087046759726983"><ele>98.0</ele><time>2026-03-29T10:13:08Z</time></trkpt><trkpt lat="45.32579359904255" lon="9.087172921665264"><ele>98.0</ele><time>2026-03-29T10:13:09Z</time></trkpt><trkpt lat="45.325828684448" lon="9.087300611272916"><ele>98.0</ele><time>2026-03-29T10:13:10Z</time></trkpt><trkpt lat="45.325879633854974" lon="9.087419336645343"><ele>98.0</ele><time>2026-03-29T10:13:11Z</time></trkpt><trkpt lat="45.325918609364386" lon="9.087557011954097"><ele>98.0</ele><time>2026-03-29T10:13:12Z</time></trkpt><trkpt lat="45.325956485334736" lon="9.087697226251674"><ele>98.0</ele><time>2026-03-29T10:13:13Z</time></trkpt><trkpt lat="45.32598098336711" lon="9.087845756021737"><ele>98.25</ele><time>2026-03-29T10:13:14Z</time></trkpt><trkpt lat="45.326022972958" lon="9.087998691261376"><ele>98.5</ele><time>2026-03-29T10:13:15Z</time></trkpt><trkpt lat="45.3260620019749" lon="9.088160324678482"><ele>98.75</ele><time>2026-03-29T10:13:16Z</time></trkpt><trkpt lat="45.326100796514744" lon="9.088328604351563"><ele>99.0</ele><time>2026-03-29T10:13:17Z</time></trkpt><trkpt lat="45.326156078362764" lon="9.088469562928323"><ele>99.0</ele><time>2026-03-29T10:13:18Z</time></trkpt><trkpt lat="45.3262203375722" lon="9.088622788924983"><ele>99.0</ele><time>2026-03-29T10:13:19Z</time></trkpt><trkpt lat="45.3263037569015" lon="9.088747566454852"><ele>99.0</ele><time>2026-03-29T10:13:20Z</time></trkpt><trkpt lat="45.326416295822234" lon="9.088851074262042"><ele>99.0</ele><time>2026-03-29T10:13:21Z</time></trkpt><trkpt lat="45.326535168010196" lon="9.088928309147398"><ele>99.0</ele><time>2026-03-29T10:13:22Z</time></trkpt><trkpt lat="45.3266255477726" lon="9.088997001212395"><ele>99.0</ele><time>2026-03-29T10:13:23Z</time></trkpt><trkpt lat="45.32671179110785" lon="9.089073576205058"><ele>99.0</ele><time>2026-03-29T10:13:24Z</time></trkpt><trkpt lat="45.326791570338145" lon="9.089160822720775"><ele>99.0</ele><time>2026-03-29T10:13:25Z</time></trkpt><trkpt lat="45.32686114981903" lon="9.089273823015851"><ele>99.0</ele><time>2026-03-29T10:13:26Z</time></trkpt><trkpt lat="45.32690673970679" lon="9.089407214725854"><ele>99.2</ele><time>2026-03-29T10:13:27Z</time></trkpt><trkpt lat="45.32692597716021" lon="9.08955428363272"><ele>99.4</ele><time>2026-03-29T10:13:28Z</time></trkpt><trkpt lat="45.32691390261218" lon="9.089705072414219"><ele>99.6</ele><time>2026-03-29T10:13:29Z</time></trkpt><trkpt lat="45.32686235505904" lon="9.0898470251366"><ele>99.8</ele><time>2026-03-29T10:13:30Z</time></trkpt><trkpt lat="45.326827289730815" lon="9.089988289758923"><ele>100.0</ele><time>2026-03-29T10:13:31Z</time></trkpt><trkpt lat="45.326782072853824" lon="9.090148422594417"><ele>100.0</ele><time>2026-03-29T10:13:32Z</time></trkpt><trkpt lat="45.32674323259845" lon="9.090288017159654"><ele>100.0</ele><time>2026-03-29T10:13:33Z</time></trkpt><trkpt lat="45.32670810898528" lon="9.090426664221857"><ele>100.0</ele><time>2026-03-29T10:13:34Z</time></trkpt><trkpt lat="45.32667390451818" lon="9.090574737504822"><ele>100.0</ele><time>2026-03-29T10:13:35Z</time></trkpt><trkpt lat="45.32665168068352" lon="9.090719317050496"><ele>100.0</ele><time>2026-03-29T10:13:36Z</time></trkpt><trkpt lat="45.32665754674874" lon="9.090863058745278"><ele>99.75</ele><time>2026-03-29T10:13:37Z</time></trkpt><trkpt lat="45.32668902368336" lon="9.091018552326044"><ele>99.5</ele><time>2026-03-29T10:13:38Z</time></trkpt><trkpt lat="45.32674808510466" lon="9.091147552290971"><ele>99.25</ele><time>2026-03-29T10:13:39Z</time></trkpt><trkpt lat="45.326830986528435" lon="9.091261135891802"><ele>99.0</ele><time>2026-03-29T10:13:40Z</time></trkpt><trkpt lat="45.326946440228724" lon="9.09133759034246"><ele>99.0</ele><time>2026-03-29T10:13:41Z</time></trkpt><trkpt lat="45.32707820183157" lon="9.091376288153787"><ele>99.0</ele><time>2026-03-29T10:13:42Z</time></trkpt><trkpt lat="45.32721989534332" lon="9.091389598188913"><ele>99.0</ele><time>2026-03-29T10:13:43Z</time></trkpt><trkpt lat="45.32736523602419" lon="9.09141181657229"><ele>99.0</ele><time>2026-03-29T10:13:44Z</time></trkpt><trkpt lat="45.32751277599381" lon="9.091451605118586"><ele>99.0</ele><time>2026-03-29T10:13:45Z</time></trkpt><trkpt lat="45.327640343532146" lon="9.091483223345973"><ele>99.0</ele><time>2026-03-29T10:13:46Z</time></trkpt><trkpt lat="45.32777365951889" lon="9.091504283490185"><ele>99.0</ele><time>2026-03-29T10:13:47Z</time></trkpt><trkpt lat="45.327891860338354" lon="9.091532555987204"><ele>99.0</ele><time>2026-03-29T10:13:48Z</time></trkpt><trkpt lat="45.32800504898772" lon="9.091489117624514"><ele>99.2</ele><time>2026-03-29T10:13:49Z</time></trkpt><trkpt lat="45.32810379094001" lon="9.091501294765028"><ele>99.4</ele><time>2026-03-29T10:13:50Z</time></trkpt><trkpt lat="45.32818669360019" lon="9.091457531365203"><ele>99.6</ele><time>2026-03-29T10:13:51Z</time></trkpt><trkpt lat="45.32827126595033" lon="9.091428342713153"><ele>99.8</ele><time>2026-03-29T10:13:52Z</time></trkpt><trkpt lat="45.32836037238914" lon="9.091409274740291"><ele>100.0</ele><time>2026-03-29T10:13:53Z</time></trkpt><trkpt lat="45.32846572173139" lon="9.091427459434994"><ele>100.0</ele><time>2026-03-29T10:13:54Z</time></trkpt><trkpt lat="45.32855883978139" lon="9.091490510593578"><ele>100.0</ele><time>2026-03-29T10:13:55Z</time></trkpt><trkpt lat="45.32865869006147" lon="9.091536428794583"><ele>100.0</ele><time>2026-03-29T10:13:55.999Z</time></trkpt><trkpt lat="45.32876610961059" lon="9.091599973037017"><ele>100.0</ele><time>2026-03-29T10:13:56.999Z</time></trkpt><trkpt lat="45.32888439485485" lon="9.091652099234878"><ele>100.0</ele><time>2026-03-29T10:13:57.999Z</time></trkpt><trkpt lat="45.328992174086835" lon="9.091698947155376"><ele>99.75</ele><time>2026-03-29T10:13:58.999Z</time></trkpt><trkpt lat="45.32909984792155" lon="9.091767049924819"><ele>99.5</ele><time>2026-03-29T10:13:59.999Z</time></trkpt><trkpt lat="45.32919581060897" lon="9.091863312755729"><ele>99.25</ele><time>2026-03-29T10:14:00.999Z</time></trkpt><trkpt lat="45.32929354747897" lon="9.091985701294213"><ele>99.0</ele><time>2026-03-29T10:14:01.999Z</time></trkpt><trkpt lat="45.329378074138425" lon="9.092135623226833"><ele>99.0</ele><time>2026-03-29T10:14:02.999Z</time></trkpt><trkpt lat="45.32945117678665" lon="9.092299214586607"><ele>99.0</ele><time>2026-03-29T10:14:03.999Z</time></trkpt><trkpt lat="45.32951665437946" lon="9.092466453846487"><ele>99.0</ele><time>2026-03-29T10:14:04.999Z</time></trkpt><trkpt lat="45.329577630835075" lon="9.09261853661554"><ele>99.0</ele><time>2026-03-29T10:14:05.999Z</time></trkpt><trkpt lat="45.329638213275594" lon="9.092772246850265"><ele>99.0</ele><time>2026-03-29T10:14:06.999Z</time></trkpt><trkpt lat="45.329692033169806" lon="9.092920129340632"><ele>99.0</ele><time>2026-03-29T10:14:07.999Z</time></trkpt><trkpt lat="45.32974462707814" lon="9.093058839296758"><ele>99.0</ele><time>2026-03-29T10:14:08.999Z</time></trkpt><trkpt lat="45.329792615170376" lon="9.093187564463985"><ele>99.0</ele><time>2026-03-29T10:14:09.999Z</time></trkpt><trkpt lat="45.32983404979572" lon="9.093314009432621"><ele>99.0</ele><time>2026-03-29T10:14:10.999Z</time></trkpt><trkpt lat="45.329880650817145" lon="9.093434399344478"><ele>99.25</ele><time>2026-03-29T10:14:11.999Z</time></trkpt><trkpt lat="45.32995065230083" lon="9.093555758627305"><ele>99.5</ele><time>2026-03-29T10:14:12.999Z</time></trkpt><trkpt lat="45.330009219712494" lon="9.09370329281931"><ele>99.75</ele><time>2026-03-29T10:14:13.999Z</time></trkpt><trkpt lat="45.33006762351231" lon="9.093845271972468"><ele>100.0</ele><time>2026-03-29T10:14:14.999Z</time></trkpt><trkpt lat="45.330117796149075" lon="9.09397911981024"><ele>100.33333333333334</ele><time>2026-03-29T10:14:15.999Z</time></trkpt><trkpt lat="45.330163850079344" lon="9.094105988218422"><ele>100.66666666666667</ele><time>2026-03-29T10:14:16.999Z</time></trkpt><trkpt lat="45.330207529385305" lon="9.094227998100934"><ele>101.0</ele><time>2026-03-29T10:14:17.999Z</time></trkpt><trkpt lat="45.330248555024205" lon="9.094342323926902"><ele>101.33333333333334</ele><time>2026-03-29T10:14:18.999Z</time></trkpt><trkpt lat="45.33028789629796" lon="9.094445007982253"><ele>101.66666666666667</ele><time>2026-03-29T10:14:19.999Z</time></trkpt><trkpt lat="45.33032623610705" lon="9.09454384482307"><ele>102.0</ele><time>2026-03-29T10:14:20.999Z</time></trkpt><trkpt lat="45.33036257077907" lon="9.094632954164434"><ele>102.0</ele><time>2026-03-29T10:14:21.999Z</time></trkpt><trkpt lat="45.33039780700103" lon="9.094708220955832"><ele>102.0</ele><time>2026-03-29T10:14:22.999Z</time></trkpt><trkpt lat="45.33041475967101" lon="9.09479953846951"><ele>102.0</ele><time>2026-03-29T10:14:23.999Z</time></trkpt><trkpt lat="45.33039457664407" lon="9.094964953931276"><ele>102.0</ele><time>2026-03-29T10:14:25.999Z</time></trkpt><trkpt lat="45.3302788223636" lon="9.094969995031674"><ele>102.0</ele><time>2026-03-29T10:14:26.999Z</time></trkpt><trkpt lat="45.330191163516645" lon="9.094960894313735"><ele>101.6</ele><time>2026-03-29T10:14:27.999Z</time></trkpt><trkpt lat="45.33010249601468" lon="9.094962619678013"><ele>101.19999999999999</ele><time>2026-03-29T10:14:28.999Z</time></trkpt><trkpt lat="45.33000492386581" lon="9.094983281811853"><ele>100.8</ele><time>2026-03-29T10:14:29.999Z</time></trkpt><trkpt lat="45.32990489832735" lon="9.094992969087853"><ele>100.4</ele><time>2026-03-29T10:14:30.999Z</time></trkpt><trkpt lat="45.32978145326254" lon="9.0950157046834"><ele>100.0</ele><time>2026-03-29T10:14:31.999Z</time></trkpt><trkpt lat="45.32965595583711" lon="9.095031714081568"><ele>100.0</ele><time>2026-03-29T10:14:32.999Z</time></trkpt><trkpt lat="45.32954721995182" lon="9.09505158349998"><ele>100.0</ele><time>2026-03-29T10:14:33.999Z</time></trkpt><trkpt lat="45.329441324955575" lon="9.095085456706228"><ele>100.0</ele><time>2026-03-29T10:14:34.999Z</time></trkpt><trkpt lat="45.32935243125523" lon="9.09510593036435"><ele>100.0</ele><time>2026-03-29T10:14:35.999Z</time></trkpt><trkpt lat="45.32926710524044" lon="9.095131853430349"><ele>100.0</ele><time>2026-03-29T10:14:36.999Z</time></trkpt><trkpt lat="45.32919846630199" lon="9.09513463488796"><ele>100.0</ele><time>2026-03-29T10:14:37.999Z</time></trkpt><trkpt lat="45.32913076924279" lon="9.095151704239143"><ele>100.0</ele><time>2026-03-29T10:14:38.999Z</time></trkpt><trkpt lat="45.3290777631735" lon="9.095205950910582"><ele>100.0</ele><time>2026-03-29T10:14:39.999Z</time></trkpt><trkpt lat="45.32904293801698" lon="9.095441636062144"><ele>100.0</ele><time>2026-03-29T10:14:41.999Z</time></trkpt><trkpt lat="45.329000721229484" lon="9.095565052275576"><ele>100.0</ele><time>2026-03-29T10:14:42.999Z</time></trkpt><trkpt lat="45.3289394232574" lon="9.095689499214872"><ele>100.0</ele><time>2026-03-29T10:14:43.999Z</time></trkpt><trkpt lat="45.328885281084" lon="9.095814428910495"><ele>100.0</ele><time>2026-03-29T10:14:44.999Z</time></trkpt><trkpt lat="45.328833324263535" lon="9.09593930402202"><ele>100.0</ele><time>2026-03-29T10:14:45.999Z</time></trkpt><trkpt lat="45.3287771787591" lon="9.096082703626577"><ele>100.0</ele><time>2026-03-29T10:14:46.999Z</time></trkpt><trkpt lat="45.32871530324232" lon="9.096221244036814"><ele>100.0</ele><time>2026-03-29T10:14:47.999Z</time></trkpt><trkpt lat="45.32865200942012" lon="9.09636065007557"><ele>100.0</ele><time>2026-03-29T10:14:48.999Z</time></trkpt><trkpt lat="45.328589742631756" lon="9.09650942257987"><ele>100.0</ele><time>2026-03-29T10:14:49.999Z</time></trkpt><trkpt lat="45.32852903451787" lon="9.096651288651556"><ele>100.0</ele><time>2026-03-29T10:14:50.999Z</time></trkpt><trkpt lat="45.328473580490936" lon="9.096779199693165"><ele>100.0</ele><time>2026-03-29T10:14:51.999Z</time></trkpt><trkpt lat="45.32842529401549" lon="9.096905184956956"><ele>100.0</ele><time>2026-03-29T10:14:52.999Z</time></trkpt><trkpt lat="45.32837703495167" lon="9.097020055204185"><ele>99.8</ele><time>2026-03-29T10:14:53.999Z</time></trkpt><trkpt lat="45.32832787824929" lon="9.09713243811853"><ele>99.6</ele><time>2026-03-29T10:14:54.999Z</time></trkpt><trkpt lat="45.32827940664816" lon="9.097243117946615"><ele>99.4</ele><time>2026-03-29T10:14:55.999Z</time></trkpt><trkpt lat="45.32822602930166" lon="9.097372713931453"><ele>99.2</ele><time>2026-03-29T10:14:56.999Z</time></trkpt><trkpt lat="45.32816665315344" lon="9.097514946562988"><ele>99.0</ele><time>2026-03-29T10:14:57.999Z</time></trkpt><trkpt lat="45.32810772397436" lon="9.097652545815167"><ele>98.4</ele><time>2026-03-29T10:14:58.999Z</time></trkpt><trkpt lat="45.328043695684" lon="9.09776672660408"><ele>97.80000000000001</ele><time>2026-03-29T10:15:00Z</time></trkpt><trkpt lat="45.32798676900881" lon="9.097890679919326"><ele>97.19999999999999</ele><time>2026-03-29T10:15:01Z</time></trkpt><trkpt lat="45.32793434931256" lon="9.098000716453377"><ele>96.6</ele><time>2026-03-29T10:15:02Z</time></trkpt><trkpt lat="45.32789093784215" lon="9.098094342169794"><ele>96.0</ele><time>2026-03-29T10:15:03Z</time></trkpt><trkpt lat="45.32783966905974" lon="9.098207796747905"><ele>96.33333333333333</ele><time>2026-03-29T10:15:05Z</time></trkpt><trkpt lat="45.32781752388033" lon="9.098352916253386"><ele>96.66666666666666</ele><time>2026-03-29T10:15:07Z</time></trkpt><trkpt lat="45.32781692093813" lon="9.098442655759133"><ele>97.0</ele><time>2026-03-29T10:15:08Z</time></trkpt><trkpt lat="45.3278077436726" lon="9.09854348106775"><ele>97.33333333333333</ele><time>2026-03-29T10:15:09Z</time></trkpt><trkpt lat="45.327772816727546" lon="9.098656406892664"><ele>97.66666666666666</ele><time>2026-03-29T10:15:10Z</time></trkpt><trkpt lat="45.327753113193715" lon="9.098772524316557"><ele>98.0</ele><time>2026-03-29T10:15:11Z</time></trkpt><trkpt lat="45.327730624084595" lon="9.0989067774637"><ele>98.0</ele><time>2026-03-29T10:15:12Z</time></trkpt><trkpt lat="45.32770593755526" lon="9.099054149503003"><ele>98.0</ele><time>2026-03-29T10:15:13Z</time></trkpt><trkpt lat="45.327681522261265" lon="9.099194025664398"><ele>98.0</ele><time>2026-03-29T10:15:14Z</time></trkpt><trkpt lat="45.3276735327885" lon="9.099343103791469"><ele>98.0</ele><time>2026-03-29T10:15:15Z</time></trkpt><trkpt lat="45.3276452823217" lon="9.099488422967363"><ele>98.0</ele><time>2026-03-29T10:15:16Z</time></trkpt><trkpt lat="45.32761999605887" lon="9.099637096493106"><ele>98.2</ele><time>2026-03-29T10:15:17Z</time></trkpt><trkpt lat="45.32759582678165" lon="9.099776194766216"><ele>98.4</ele><time>2026-03-29T10:15:18Z</time></trkpt><trkpt lat="45.32757140118994" lon="9.09990809307337"><ele>98.60000000000001</ele><time>2026-03-29T10:15:19Z</time></trkpt><trkpt lat="45.327558946687695" lon="9.100036679046397"><ele>98.80000000000001</ele><time>2026-03-29T10:15:20Z</time></trkpt><trkpt lat="45.32756454498178" lon="9.100170206041408"><ele>99.0</ele><time>2026-03-29T10:15:21Z</time></trkpt><trkpt lat="45.327586169672756" lon="9.10031670032003"><ele>99.0</ele><time>2026-03-29T10:15:22Z</time></trkpt><trkpt lat="45.32760874237531" lon="9.100475729988652"><ele>99.0</ele><time>2026-03-29T10:15:23Z</time></trkpt><trkpt lat="45.32763346817555" lon="9.100617944757275"><ele>99.0</ele><time>2026-03-29T10:15:24Z</time></trkpt><trkpt lat="45.327659196135976" lon="9.100761618090988"><ele>99.0</ele><time>2026-03-29T10:15:25Z</time></trkpt><trkpt lat="45.32769373133138" lon="9.10090281744582"><ele>99.0</ele><time>2026-03-29T10:15:26Z</time></trkpt><trkpt lat="45.32772202077103" lon="9.10105898829429"><ele>98.83333333333333</ele><time>2026-03-29T10:15:27Z</time></trkpt><trkpt lat="45.327755189880214" lon="9.101192900685035"><ele>98.66666666666666</ele><time>2026-03-29T10:15:28Z</time></trkpt><trkpt lat="45.327778744166885" lon="9.10132177821055"><ele>98.5</ele><time>2026-03-29T10:15:29Z</time></trkpt><trkpt lat="45.327801496989814" lon="9.101436820918503"><ele>98.33333333333333</ele><time>2026-03-29T10:15:30Z</time></trkpt><trkpt lat="45.32782050016539" lon="9.101540747506824"><ele>98.16666666666666</ele><time>2026-03-29T10:15:31Z</time></trkpt><trkpt lat="45.32783669792639" lon="9.101629193092437"><ele>98.0</ele><time>2026-03-29T10:15:32Z</time></trkpt><trkpt lat="45.3278554785749" lon="9.10171853225656"><ele>97.99999999999999</ele><time>2026-03-29T10:15:33Z</time></trkpt><trkpt lat="45.32788014749771" lon="9.101864408146554"><ele>98.0</ele><time>2026-03-29T10:15:35Z</time></trkpt><trkpt lat="45.327896565290594" lon="9.101964768831353"><ele>98.0</ele><time>2026-03-29T10:15:37Z</time></trkpt><trkpt lat="45.32791361785272" lon="9.102062680759254"><ele>98.0</ele><time>2026-03-29T10:15:40Z</time></trkpt><trkpt lat="45.327801910347134" lon="9.10211576216127"><ele>97.99999999999999</ele><time>2026-03-29T10:15:43Z</time></trkpt><trkpt lat="45.32774211268157" lon="9.10214617269792"><ele>98.0</ele><time>2026-03-29T10:15:44Z</time></trkpt><trkpt lat="45.32766728193693" lon="9.102162963422206"><ele>98.0</ele><time>2026-03-29T10:15:45Z</time></trkpt><trkpt lat="45.32759367433011" lon="9.1021907396638"><ele>98.0</ele><time>2026-03-29T10:15:46Z</time></trkpt><trkpt lat="45.32750884949028" lon="9.102222748820358"><ele>98.0</ele><time>2026-03-29T10:15:47Z</time></trkpt><trkpt lat="45.327424359036215" lon="9.102276012012942"><ele>98.0</ele><time>2026-03-29T10:15:48Z</time></trkpt><trkpt lat="45.32732302214527" lon="9.10229655753165"><ele>98.0</ele><time>2026-03-29T10:15:49Z</time></trkpt><trkpt lat="45.32722522386138" lon="9.102328443734253"><ele>98.0</ele><time>2026-03-29T10:15:50Z</time></trkpt><trkpt lat="45.32711805488033" lon="9.102366136113732"><ele>98.0</ele><time>2026-03-29T10:15:51Z</time></trkpt><trkpt lat="45.32700396393708" lon="9.102409210370848"><ele>98.0</ele><time>2026-03-29T10:15:52Z</time></trkpt><trkpt lat="45.32688914949409" lon="9.10245128685702"><ele>98.0</ele><time>2026-03-29T10:15:53Z</time></trkpt><trkpt lat="45.32679003328233" lon="9.102479121874707"><ele>98.0</ele><time>2026-03-29T10:15:54Z</time></trkpt><trkpt lat="45.32668888638272" lon="9.102501023947877"><ele>97.99999999999999</ele><time>2026-03-29T10:15:55Z</time></trkpt><trkpt lat="45.32658449929974" lon="9.102530832241946"><ele>98.0</ele><time>2026-03-29T10:15:56Z</time></trkpt><trkpt lat="45.32650224176616" lon="9.102555744170687"><ele>98.0</ele><time>2026-03-29T10:15:57Z</time></trkpt><trkpt lat="45.32642071460838" lon="9.10258319609976"><ele>98.0</ele><time>2026-03-29T10:15:58Z</time></trkpt><trkpt lat="45.32634866613362" lon="9.102611678261713"><ele>97.99999999999999</ele><time>2026-03-29T10:15:59Z</time></trkpt><trkpt lat="45.32628775600281" lon="9.102637894098669"><ele>98.0</ele><time>2026-03-29T10:16:00Z</time></trkpt><trkpt lat="45.326186723142065" lon="9.102679102318296"><ele>97.66666666666666</ele><time>2026-03-29T10:16:02Z</time></trkpt><trkpt lat="45.32610622884058" lon="9.102694893857006"><ele>97.33333333333333</ele><time>2026-03-29T10:16:03.999Z</time></trkpt><trkpt lat="45.32604217601006" lon="9.102698782278646"><ele>97.0</ele><time>2026-03-29T10:16:06.999Z</time></trkpt><trkpt lat="45.32598672062311" lon="9.102767656573612"><ele>96.66666666666666</ele><time>2026-03-29T10:16:09.999Z</time></trkpt><trkpt lat="45.3259007398633" lon="9.10284240346231"><ele>96.33333333333333</ele><time>2026-03-29T10:16:11.999Z</time></trkpt><trkpt lat="45.32579794482569" lon="9.102797700422915"><ele>96.0</ele><time>2026-03-29T10:16:12.999Z</time></trkpt><trkpt lat="45.32572609713532" lon="9.102827339401719"><ele>96.0</ele><time>2026-03-29T10:16:13.999Z</time></trkpt><trkpt lat="45.32564713984938" lon="9.102857429404493"><ele>96.0</ele><time>2026-03-29T10:16:14.999Z</time></trkpt><trkpt lat="45.325568149907056" lon="9.102892435538092"><ele>96.0</ele><time>2026-03-29T10:16:15.999Z</time></trkpt><trkpt lat="45.32549041297874" lon="9.102923068222793"><ele>96.0</ele><time>2026-03-29T10:16:16.999Z</time></trkpt><trkpt lat="45.325399850731216" lon="9.102958830220087"><ele>96.0</ele><time>2026-03-29T10:16:17.999Z</time></trkpt><trkpt lat="45.32530782589817" lon="9.102989220193747"><ele>96.0</ele><time>2026-03-29T10:16:18.999Z</time></trkpt><trkpt lat="45.32521133515454" lon="9.103029990769352"><ele>96.0</ele><time>2026-03-29T10:16:19.999Z</time></trkpt><trkpt lat="45.32511899186035" lon="9.103066575924318"><ele>96.0</ele><time>2026-03-29T10:16:20.999Z</time></trkpt><trkpt lat="45.3250263350215" lon="9.103104839218494"><ele>96.0</ele><time>2026-03-29T10:16:21.999Z</time></trkpt><trkpt lat="45.32493454317893" lon="9.10314360454535"><ele>96.0</ele><time>2026-03-29T10:16:22.999Z</time></trkpt><trkpt lat="45.32484066756847" lon="9.103182938463565"><ele>96.0</ele><time>2026-03-29T10:16:23.999Z</time></trkpt><trkpt lat="45.32475424172208" lon="9.103221851692222"><ele>96.19999999999999</ele><time>2026-03-29T10:16:24.999Z</time></trkpt><trkpt lat="45.32466802150076" lon="9.103255054083741"><ele>96.39999999999999</ele><time>2026-03-29T10:16:25.999Z</time></trkpt><trkpt lat="45.324575054388454" lon="9.103287909001352"><ele>96.6</ele><time>2026-03-29T10:16:26.999Z</time></trkpt><trkpt lat="45.32448903173708" lon="9.10331999279673"><ele>96.8</ele><time>2026-03-29T10:16:27.999Z</time></trkpt><trkpt lat="45.32439467848867" lon="9.103355266535743"><ele>97.0</ele><time>2026-03-29T10:16:28.999Z</time></trkpt><trkpt lat="45.324302907951996" lon="9.103383950367496"><ele>97.0</ele><time>2026-03-29T10:16:29.999Z</time></trkpt><trkpt lat="45.32420856617664" lon="9.103429607872084"><ele>97.0</ele><time>2026-03-29T10:16:30.999Z</time></trkpt><trkpt lat="45.324108270037044" lon="9.103469589719502"><ele>97.0</ele><time>2026-03-29T10:16:31.999Z</time></trkpt><trkpt lat="45.32401106068898" lon="9.103499003078374"><ele>97.0</ele><time>2026-03-29T10:16:32.999Z</time></trkpt><trkpt lat="45.32391183212104" lon="9.103531338896655"><ele>97.0</ele><time>2026-03-29T10:16:33.999Z</time></trkpt><trkpt lat="45.32380415418113" lon="9.103568805179881"><ele>97.25</ele><time>2026-03-29T10:16:34.999Z</time></trkpt><trkpt lat="45.32369648291793" lon="9.103612014998596"><ele>97.5</ele><time>2026-03-29T10:16:35.999Z</time></trkpt><trkpt lat="45.32359082064007" lon="9.103650061115161"><ele>97.75</ele><time>2026-03-29T10:16:36.999Z</time></trkpt><trkpt lat="45.32348367857252" lon="9.103692215732218"><ele>98.0</ele><time>2026-03-29T10:16:37.999Z</time></trkpt><trkpt lat="45.32336310116913" lon="9.103739055194565"><ele>98.0</ele><time>2026-03-29T10:16:38.999Z</time></trkpt><trkpt lat="45.32325281075946" lon="9.10378483356366"><ele>98.0</ele><time>2026-03-29T10:16:39.999Z</time></trkpt><trkpt lat="45.32314336873806" lon="9.103831130161598"><ele>98.0</ele><time>2026-03-29T10:16:40.999Z</time></trkpt><trkpt lat="45.32301740362688" lon="9.103881108250656"><ele>98.0</ele><time>2026-03-29T10:16:41.999Z</time></trkpt><trkpt lat="45.32289692648757" lon="9.103917727063626"><ele>98.25</ele><time>2026-03-29T10:16:42.999Z</time></trkpt><trkpt lat="45.32276554612975" lon="9.103955212138631"><ele>98.5</ele><time>2026-03-29T10:16:43.999Z</time></trkpt><trkpt lat="45.32262658070808" lon="9.104014192371627"><ele>98.75</ele><time>2026-03-29T10:16:44.999Z</time></trkpt><trkpt lat="45.32248671485136" lon="9.104065950753776"><ele>99.0</ele><time>2026-03-29T10:16:45.999Z</time></trkpt><trkpt lat="45.32234370042556" lon="9.104111110359524"><ele>98.33333333333334</ele><time>2026-03-29T10:16:46.999Z</time></trkpt><trkpt lat="45.322197167360514" lon="9.1041710335257"><ele>97.66666666666667</ele><time>2026-03-29T10:16:47.999Z</time></trkpt><trkpt lat="45.322045052321535" lon="9.10422742101336"><ele>97.0</ele><time>2026-03-29T10:16:48.999Z</time></trkpt><trkpt lat="45.321906990446884" lon="9.10428186644525"><ele>97.0</ele><time>2026-03-29T10:16:49.999Z</time></trkpt><trkpt lat="45.3217664540997" lon="9.104342337615982"><ele>97.0</ele><time>2026-03-29T10:16:50.999Z</time></trkpt><trkpt lat="45.32162797378402" lon="9.104390172700512"><ele>97.0</ele><time>2026-03-29T10:16:51.999Z</time></trkpt><trkpt lat="45.321487293752355" lon="9.104437847463062"><ele>97.0</ele><time>2026-03-29T10:16:52.999Z</time></trkpt><trkpt lat="45.32135339087438" lon="9.104479461969099"><ele>96.75</ele><time>2026-03-29T10:16:53.999Z</time></trkpt><trkpt lat="45.32121792862334" lon="9.104525470701258"><ele>96.5</ele><time>2026-03-29T10:16:54.999Z</time></trkpt><trkpt lat="45.32109047049975" lon="9.104571869925488"><ele>96.25</ele><time>2026-03-29T10:16:55.999Z</time></trkpt><trkpt lat="45.320965367371706" lon="9.104620537686944"><ele>96.0</ele><time>2026-03-29T10:16:56.999Z</time></trkpt><trkpt lat="45.32084788649609" lon="9.104661396749014"><ele>96.0</ele><time>2026-03-29T10:16:57.999Z</time></trkpt><trkpt lat="45.32073064064696" lon="9.104700851470849"><ele>96.0</ele><time>2026-03-29T10:16:58.999Z</time></trkpt><trkpt lat="45.3206002110738" lon="9.10474666751247"><ele>96.0</ele><time>2026-03-29T10:16:59.999Z</time></trkpt><trkpt lat="45.32046943514836" lon="9.10479468006627"><ele>96.0</ele><time>2026-03-29T10:17:00.999Z</time></trkpt><trkpt lat="45.32034028107484" lon="9.10484099623911"><ele>96.0</ele><time>2026-03-29T10:17:01.999Z</time></trkpt><trkpt lat="45.3202134811296" lon="9.104883412110588"><ele>96.0</ele><time>2026-03-29T10:17:02.999Z</time></trkpt><trkpt lat="45.32009006686642" lon="9.10493170537256"><ele>96.0</ele><time>2026-03-29T10:17:03.999Z</time></trkpt><trkpt lat="45.319975988335685" lon="9.104978269273266"><ele>96.0</ele><time>2026-03-29T10:17:04.999Z</time></trkpt><trkpt lat="45.3198673493478" lon="9.105020733748614"><ele>96.0</ele><time>2026-03-29T10:17:06Z</time></trkpt><trkpt lat="45.31976239970991" lon="9.105061220435173"><ele>96.0</ele><time>2026-03-29T10:17:07Z</time></trkpt><trkpt lat="45.319654055933945" lon="9.105098309952366"><ele>96.0</ele><time>2026-03-29T10:17:08Z</time></trkpt><trkpt lat="45.319548416102535" lon="9.1051363508323"><ele>96.0</ele><time>2026-03-29T10:17:09Z</time></trkpt><trkpt lat="45.31944181820421" lon="9.105174555401062"><ele>96.0</ele><time>2026-03-29T10:17:10Z</time></trkpt><trkpt lat="45.31933612421537" lon="9.105208221119875"><ele>95.75</ele><time>2026-03-29T10:17:11Z</time></trkpt><trkpt lat="45.31922294736189" lon="9.105247382438307"><ele>95.5</ele><time>2026-03-29T10:17:12Z</time></trkpt><trkpt lat="45.31910522781483" lon="9.105287488763723"><ele>95.25</ele><time>2026-03-29T10:17:13Z</time></trkpt><trkpt lat="45.31897871450925" lon="9.105333379441374"><ele>95.0</ele><time>2026-03-29T10:17:14Z</time></trkpt><trkpt lat="45.31885732270299" lon="9.10537189919537"><ele>95.5</ele><time>2026-03-29T10:17:15Z</time></trkpt><trkpt lat="45.318730246491874" lon="9.105415860948517"><ele>96.0</ele><time>2026-03-29T10:17:16Z</time></trkpt><trkpt lat="45.3186069658305" lon="9.105460921526486"><ele>96.5</ele><time>2026-03-29T10:17:17Z</time></trkpt><trkpt lat="45.31849603345711" lon="9.105503778314805"><ele>97.0</ele><time>2026-03-29T10:17:18Z</time></trkpt><trkpt lat="45.318383346253" lon="9.105546039305857"><ele>97.0</ele><time>2026-03-29T10:17:19Z</time></trkpt><trkpt lat="45.318271793956036" lon="9.105587500629964"><ele>97.0</ele><time>2026-03-29T10:17:20Z</time></trkpt><trkpt lat="45.31816019671021" lon="9.105635114772188"><ele>97.0</ele><time>2026-03-29T10:17:21Z</time></trkpt><trkpt lat="45.31804991544455" lon="9.105677604988255"><ele>97.0</ele><time>2026-03-29T10:17:22Z</time></trkpt><trkpt lat="45.31793702940494" lon="9.105723644213127"><ele>96.8</ele><time>2026-03-29T10:17:23Z</time></trkpt><trkpt lat="45.317825128992" lon="9.105767913340605"><ele>96.6</ele><time>2026-03-29T10:17:24Z</time></trkpt><trkpt lat="45.31771691607045" lon="9.10580387658419"><ele>96.39999999999999</ele><time>2026-03-29T10:17:25Z</time></trkpt><trkpt lat="45.317615359524176" lon="9.105838799371083"><ele>96.19999999999999</ele><time>2026-03-29T10:17:26Z</time></trkpt><trkpt lat="45.31751760578743" lon="9.105871996371812"><ele>96.0</ele><time>2026-03-29T10:17:27Z</time></trkpt><trkpt lat="45.317423391834474" lon="9.10590726577867"><ele>96.0</ele><time>2026-03-29T10:17:28Z</time></trkpt><trkpt lat="45.317326444538324" lon="9.105943245432115"><ele>96.0</ele><time>2026-03-29T10:17:29Z</time></trkpt><trkpt lat="45.31722295089064" lon="9.1059805505085"><ele>96.0</ele><time>2026-03-29T10:17:30Z</time></trkpt><trkpt lat="45.317111674107146" lon="9.106026989888163"><ele>96.0</ele><time>2026-03-29T10:17:31Z</time></trkpt><trkpt lat="45.316995099706226" lon="9.106068814391246"><ele>96.0</ele><time>2026-03-29T10:17:32Z</time></trkpt><trkpt lat="45.31687867092858" lon="9.10611383221232"><ele>96.0</ele><time>2026-03-29T10:17:33Z</time></trkpt><trkpt lat="45.316753194129376" lon="9.10616576834766"><ele>96.0</ele><time>2026-03-29T10:17:34Z</time></trkpt><trkpt lat="45.316633260732296" lon="9.106210163024079"><ele>96.0</ele><time>2026-03-29T10:17:35Z</time></trkpt><trkpt lat="45.31650573197632" lon="9.106255270296192"><ele>96.0</ele><time>2026-03-29T10:17:36Z</time></trkpt><trkpt lat="45.316369405181696" lon="9.106301581922295"><ele>95.75</ele><time>2026-03-29T10:17:37Z</time></trkpt><trkpt lat="45.316236591267774" lon="9.10635064205923"><ele>95.5</ele><time>2026-03-29T10:17:38Z</time></trkpt><trkpt lat="45.31610272004003" lon="9.10639755238797"><ele>95.25</ele><time>2026-03-29T10:17:39Z</time></trkpt><trkpt lat="45.315972030139235" lon="9.10644526621094"><ele>95.0</ele><time>2026-03-29T10:17:40Z</time></trkpt><trkpt lat="45.31583247743147" lon="9.106488395374514"><ele>95.0</ele><time>2026-03-29T10:17:41Z</time></trkpt><trkpt lat="45.315694595857934" lon="9.10653003476798"><ele>95.0</ele><time>2026-03-29T10:17:42Z</time></trkpt><trkpt lat="45.31555388177894" lon="9.106579887972533"><ele>95.0</ele><time>2026-03-29T10:17:43Z</time></trkpt><trkpt lat="45.315413069215545" lon="9.10663106884616"><ele>95.0</ele><time>2026-03-29T10:17:44Z</time></trkpt><trkpt lat="45.31527028863461" lon="9.106681289080777"><ele>94.66666666666667</ele><time>2026-03-29T10:17:45Z</time></trkpt><trkpt lat="45.315120697537566" lon="9.106733340739547"><ele>94.33333333333333</ele><time>2026-03-29T10:17:46Z</time></trkpt><trkpt lat="45.314965299542266" lon="9.10678425059916"><ele>94.0</ele><time>2026-03-29T10:17:47Z</time></trkpt><trkpt lat="45.31480631330917" lon="9.106834478817126"><ele>94.0</ele><time>2026-03-29T10:17:48Z</time></trkpt><trkpt lat="45.31465106772241" lon="9.10688649617078"><ele>94.0</ele><time>2026-03-29T10:17:49Z</time></trkpt><trkpt lat="45.31450092722135" lon="9.10693553191237"><ele>94.0</ele><time>2026-03-29T10:17:50Z</time></trkpt><trkpt lat="45.3143558879677" lon="9.106984716061802"><ele>94.0</ele><time>2026-03-29T10:17:51Z</time></trkpt><trkpt lat="45.31421282767498" lon="9.107034848900607"><ele>94.0</ele><time>2026-03-29T10:17:52Z</time></trkpt><trkpt lat="45.3140693788167" lon="9.107086567377646"><ele>94.0</ele><time>2026-03-29T10:17:53Z</time></trkpt><trkpt lat="45.31393073543444" lon="9.107139522582266"><ele>94.0</ele><time>2026-03-29T10:17:54Z</time></trkpt><trkpt lat="45.31379899174993" lon="9.107187182451181"><ele>94.0</ele><time>2026-03-29T10:17:55Z</time></trkpt><trkpt lat="45.313667513336675" lon="9.107235781838806"><ele>94.0</ele><time>2026-03-29T10:17:56Z</time></trkpt><trkpt lat="45.31354127719712" lon="9.107285617480871"><ele>94.0</ele><time>2026-03-29T10:17:57Z</time></trkpt><trkpt lat="45.3134060332336" lon="9.107336284576023"><ele>94.0</ele><time>2026-03-29T10:17:58Z</time></trkpt><trkpt lat="45.313271139333985" lon="9.107385723163912"><ele>94.0</ele><time>2026-03-29T10:17:59Z</time></trkpt><trkpt lat="45.31313571639729" lon="9.107433581089445"><ele>94.0</ele><time>2026-03-29T10:18:00Z</time></trkpt><trkpt lat="45.31299828422842" lon="9.107487821557292"><ele>94.0</ele><time>2026-03-29T10:18:01Z</time></trkpt><trkpt lat="45.312867454048614" lon="9.107533088580343"><ele>94.0</ele><time>2026-03-29T10:18:02Z</time></trkpt><trkpt lat="45.312730433978174" lon="9.107586680306673"><ele>93.75</ele><time>2026-03-29T10:18:03Z</time></trkpt><trkpt lat="45.312596098121055" lon="9.107637458857086"><ele>93.5</ele><time>2026-03-29T10:18:04Z</time></trkpt><trkpt lat="45.31246367955566" lon="9.107685976227067"><ele>93.25</ele><time>2026-03-29T10:18:05Z</time></trkpt><trkpt lat="45.312324403625" lon="9.107746131837635"><ele>93.0</ele><time>2026-03-29T10:18:06Z</time></trkpt><trkpt lat="45.312190443883" lon="9.107795743539816"><ele>93.0</ele><time>2026-03-29T10:18:06.999Z</time></trkpt><trkpt lat="45.31206626744683" lon="9.107844659880504"><ele>93.0</ele><time>2026-03-29T10:18:07.999Z</time></trkpt><trkpt lat="45.31195226941323" lon="9.107881006379294"><ele>93.0</ele><time>2026-03-29T10:18:08.999Z</time></trkpt><trkpt lat="45.31184851555743" lon="9.107918685345107"><ele>93.0</ele><time>2026-03-29T10:18:09.999Z</time></trkpt><trkpt lat="45.3117618695844" lon="9.107950634971395"><ele>93.0</ele><time>2026-03-29T10:18:10.999Z</time></trkpt><trkpt lat="45.31169272526235" lon="9.107962877876842"><ele>93.0</ele><time>2026-03-29T10:18:11.999Z</time></trkpt><trkpt lat="45.31158324302595" lon="9.107903836272396"><ele>93.0</ele><time>2026-03-29T10:18:13.999Z</time></trkpt><trkpt lat="45.31152543476455" lon="9.107748683546376"><ele>93.0</ele><time>2026-03-29T10:18:15.999Z</time></trkpt><trkpt lat="45.31148925065826" lon="9.10757510570928"><ele>93.0</ele><time>2026-03-29T10:18:17.999Z</time></trkpt><trkpt lat="45.31147196137137" lon="9.10748082594542"><ele>93.0</ele><time>2026-03-29T10:18:18.999Z</time></trkpt><trkpt lat="45.31145477624585" lon="9.107377824233371"><ele>93.28571428571429</ele><time>2026-03-29T10:18:19.999Z</time></trkpt><trkpt lat="45.311437721877745" lon="9.107277951790685"><ele>93.57142857142857</ele><time>2026-03-29T10:18:20.999Z</time></trkpt><trkpt lat="45.311423263524475" lon="9.10717947520023"><ele>93.85714285714286</ele><time>2026-03-29T10:18:21.999Z</time></trkpt><trkpt lat="45.31140176051311" lon="9.107080010664802"><ele>94.14285714285714</ele><time>2026-03-29T10:18:22.999Z</time></trkpt><trkpt lat="45.31138171304539" lon="9.106980774489644"><ele>94.42857142857143</ele><time>2026-03-29T10:18:23.999Z</time></trkpt><trkpt lat="45.31135893792084" lon="9.1068805567053"><ele>94.71428571428572</ele><time>2026-03-29T10:18:24.999Z</time></trkpt><trkpt lat="45.31133705474202" lon="9.106782946601891"><ele>95.0</ele><time>2026-03-29T10:18:25.999Z</time></trkpt><trkpt lat="45.31131663825817" lon="9.106679518470436"><ele>95.16666666666667</ele><time>2026-03-29T10:18:26.999Z</time></trkpt><trkpt lat="45.31129962151246" lon="9.1065759378689"><ele>95.33333333333334</ele><time>2026-03-29T10:18:27.999Z</time></trkpt><trkpt lat="45.311287380923275" lon="9.106479085764938"><ele>95.5</ele><time>2026-03-29T10:18:28.999Z</time></trkpt><trkpt lat="45.31127434751451" lon="9.106390324754857"><ele>95.66666666666667</ele><time>2026-03-29T10:18:29.999Z</time></trkpt><trkpt lat="45.31125766381157" lon="9.106303475029396"><ele>95.83333333333333</ele><time>2026-03-29T10:18:30.999Z</time></trkpt><trkpt lat="45.311227624803024" lon="9.10615555363153"><ele>96.0</ele><time>2026-03-29T10:18:32.999Z</time></trkpt><trkpt lat="45.31120022073377" lon="9.106005453678085"><ele>96.0</ele><time>2026-03-29T10:18:34.999Z</time></trkpt><trkpt lat="45.31116975330883" lon="9.105850346611248"><ele>96.0</ele><time>2026-03-29T10:18:36.999Z</time></trkpt><trkpt lat="45.31113694660573" lon="9.105718378026175"><ele>96.0</ele><time>2026-03-29T10:18:38.999Z</time></trkpt><trkpt lat="45.311117423915306" lon="9.10560840144749"><ele>96.0</ele><time>2026-03-29T10:18:40.999Z</time></trkpt><trkpt lat="45.311100447464526" lon="9.10547438069499"><ele>96.0</ele><time>2026-03-29T10:18:43.999Z</time></trkpt><trkpt lat="45.311076126605855" lon="9.10536656506206"><ele>96.0</ele><time>2026-03-29T10:18:45.999Z</time></trkpt><trkpt lat="45.31104909801099" lon="9.105262603199309"><ele>96.0</ele><time>2026-03-29T10:18:48.999Z</time></trkpt><trkpt lat="45.31100763127987" lon="9.105351506540439"><ele>96.0</ele><time>2026-03-29T10:18:53.999Z</time></trkpt><trkpt lat="45.31103482860514" lon="9.105479349353226"><ele>96.0</ele><time>2026-03-29T10:32:27Z</time></trkpt><trkpt lat="45.31107620978235" lon="9.105598386637629"><ele>96.0</ele><time>2026-03-29T10:32:29Z</time></trkpt><trkpt lat="45.311116922569155" lon="9.105729718506852"><ele>96.0</ele><time>2026-03-29T10:32:31Z</time></trkpt><trkpt lat="45.31114935513194" lon="9.105875328805082"><ele>96.0</ele><time>2026-03-29T10:32:33Z</time></trkpt><trkpt lat="45.31118126084655" lon="9.106047908706577"><ele>96.0</ele><time>2026-03-29T10:32:35Z</time></trkpt><trkpt lat="45.31119864777394" lon="9.106142203462875"><ele>96.0</ele><time>2026-03-29T10:32:36Z</time></trkpt><trkpt lat="45.31121838329127" lon="9.106238527203624"><ele>96.0</ele><time>2026-03-29T10:32:37Z</time></trkpt><trkpt lat="45.31123457769208" lon="9.106328080406275"><ele>96.0</ele><time>2026-03-29T10:32:38Z</time></trkpt><trkpt lat="45.31123120049039" lon="9.106434025629493"><ele>96.0</ele><time>2026-03-29T10:32:39Z</time></trkpt><trkpt lat="45.31126584801478" lon="9.106532772045812"><ele>96.0</ele><time>2026-03-29T10:32:40Z</time></trkpt><trkpt lat="45.31127025369799" lon="9.106645667338514"><ele>96.0</ele><time>2026-03-29T10:32:41Z</time></trkpt><trkpt lat="45.31129013233814" lon="9.10675339599142"><ele>96.0</ele><time>2026-03-29T10:32:42Z</time></trkpt><trkpt lat="45.31132737333036" lon="9.106862500151577"><ele>96.0</ele><time>2026-03-29T10:32:43Z</time></trkpt><trkpt lat="45.31134295477609" lon="9.106977895470246"><ele>96.0</ele><time>2026-03-29T10:32:43.999Z</time></trkpt><trkpt lat="45.31136606371796" lon="9.10708479181961"><ele>96.0</ele><time>2026-03-29T10:32:44.999Z</time></trkpt><trkpt lat="45.31138681944177" lon="9.10720121678187"><ele>95.83333333333333</ele><time>2026-03-29T10:32:45.999Z</time></trkpt><trkpt lat="45.31140982913766" lon="9.107314248458659"><ele>95.66666666666667</ele><time>2026-03-29T10:32:46.999Z</time></trkpt><trkpt lat="45.311428276191876" lon="9.107424949388031"><ele>95.5</ele><time>2026-03-29T10:32:47.999Z</time></trkpt><trkpt lat="45.31144509333715" lon="9.10751942366666"><ele>95.33333333333334</ele><time>2026-03-29T10:32:48.999Z</time></trkpt><trkpt lat="45.31146035200826" lon="9.10762075325155"><ele>95.16666666666667</ele><time>2026-03-29T10:32:49.999Z</time></trkpt><trkpt lat="45.31149046712035" lon="9.107756809249356"><ele>95.0</ele><time>2026-03-29T10:32:51.999Z</time></trkpt><trkpt lat="45.31150989540918" lon="9.107894803310462"><ele>94.66666666666667</ele><time>2026-03-29T10:32:53.999Z</time></trkpt><trkpt lat="45.3115324232915" lon="9.107982116682324"><ele>94.33333333333334</ele><time>2026-03-29T10:32:56.999Z</time></trkpt><trkpt lat="45.311610262467845" lon="9.10808325223099"><ele>94.0</ele><time>2026-03-29T10:33:27.999Z</time></trkpt><trkpt lat="45.31167578270564" lon="9.108074617328231"><ele>93.66666666666667</ele><time>2026-03-29T10:33:28.999Z</time></trkpt><trkpt lat="45.31174902989591" lon="9.10804014874698"><ele>93.33333333333333</ele><time>2026-03-29T10:33:29.999Z</time></trkpt><trkpt lat="45.311825529466816" lon="9.108000533473582"><ele>93.0</ele><time>2026-03-29T10:33:30.999Z</time></trkpt><trkpt lat="45.311907602075955" lon="9.107965144377783"><ele>93.0</ele><time>2026-03-29T10:33:31.999Z</time></trkpt><trkpt lat="45.311992865575476" lon="9.10793204575631"><ele>93.0</ele><time>2026-03-29T10:33:32.999Z</time></trkpt><trkpt lat="45.31207658264978" lon="9.107897151620978"><ele>93.0</ele><time>2026-03-29T10:33:33.999Z</time></trkpt><trkpt lat="45.31217508068126" lon="9.10785991974202"><ele>93.0</ele><time>2026-03-29T10:33:34.999Z</time></trkpt><trkpt lat="45.31226573312747" lon="9.107824475759685"><ele>93.0</ele><time>2026-03-29T10:33:35.999Z</time></trkpt><trkpt lat="45.31236626399163" lon="9.107784610757712"><ele>93.0</ele><time>2026-03-29T10:33:36.999Z</time></trkpt><trkpt lat="45.31246334735159" lon="9.107742324905221"><ele>93.0</ele><time>2026-03-29T10:33:37.999Z</time></trkpt><trkpt lat="45.312581979833936" lon="9.107698574517565"><ele>93.0</ele><time>2026-03-29T10:33:38.999Z</time></trkpt><trkpt lat="45.312690983708144" lon="9.107659204383527"><ele>93.0</ele><time>2026-03-29T10:33:39.999Z</time></trkpt><trkpt lat="45.31281340557801" lon="9.107616399439756"><ele>93.0</ele><time>2026-03-29T10:33:40.999Z</time></trkpt><trkpt lat="45.3129392925096" lon="9.107570020667309"><ele>93.0</ele><time>2026-03-29T10:33:41.999Z</time></trkpt><trkpt lat="45.31306290461859" lon="9.10752420605372"><ele>93.0</ele><time>2026-03-29T10:33:42.999Z</time></trkpt><trkpt lat="45.31319728797174" lon="9.107477330121753"><ele>93.0</ele><time>2026-03-29T10:33:43.999Z</time></trkpt><trkpt lat="45.3133195810224" lon="9.107430548704215"><ele>93.25</ele><time>2026-03-29T10:33:44.999Z</time></trkpt><trkpt lat="45.31344760569575" lon="9.107382278858456"><ele>93.5</ele><time>2026-03-29T10:33:45.999Z</time></trkpt><trkpt lat="45.31358131338206" lon="9.107334498363421"><ele>93.75</ele><time>2026-03-29T10:33:46.999Z</time></trkpt><trkpt lat="45.31371105213526" lon="9.10728902701857"><ele>94.0</ele><time>2026-03-29T10:33:47.999Z</time></trkpt><trkpt lat="45.31383897848819" lon="9.1072426538725"><ele>94.0</ele><time>2026-03-29T10:33:48.999Z</time></trkpt><trkpt lat="45.313977577355296" lon="9.107193048806469"><ele>94.0</ele><time>2026-03-29T10:33:49.999Z</time></trkpt><trkpt lat="45.31411575701932" lon="9.107141024664223"><ele>94.0</ele><time>2026-03-29T10:33:50.999Z</time></trkpt><trkpt lat="45.31425501483682" lon="9.107094532302622"><ele>94.0</ele><time>2026-03-29T10:33:51.999Z</time></trkpt><trkpt lat="45.31439568886581" lon="9.1070490381318"><ele>94.0</ele><time>2026-03-29T10:33:52.999Z</time></trkpt><trkpt lat="45.3145344351424" lon="9.107002150427157"><ele>94.0</ele><time>2026-03-29T10:33:54Z</time></trkpt><trkpt lat="45.31467809530002" lon="9.106949401568148"><ele>94.0</ele><time>2026-03-29T10:33:55Z</time></trkpt><trkpt lat="45.31482199522801" lon="9.106902971630106"><ele>94.0</ele><time>2026-03-29T10:33:56Z</time></trkpt><trkpt lat="45.31496134487846" lon="9.10685540267936"><ele>94.0</ele><time>2026-03-29T10:33:57Z</time></trkpt><trkpt lat="45.31510319259383" lon="9.106806449199802"><ele>94.0</ele><time>2026-03-29T10:33:58Z</time></trkpt><trkpt lat="45.31524590968985" lon="9.106754214563601"><ele>94.0</ele><time>2026-03-29T10:33:59Z</time></trkpt><trkpt lat="45.31537809966544" lon="9.106708175781305"><ele>94.0</ele><time>2026-03-29T10:34:00Z</time></trkpt><trkpt lat="45.31551508406686" lon="9.106658753168505"><ele>94.25</ele><time>2026-03-29T10:34:01Z</time></trkpt><trkpt lat="45.31564753379161" lon="9.106610862853199"><ele>94.5</ele><time>2026-03-29T10:34:02Z</time></trkpt><trkpt lat="45.31579157843949" lon="9.106562082475525"><ele>94.75</ele><time>2026-03-29T10:34:03Z</time></trkpt><trkpt lat="45.31592318373326" lon="9.106516454235154"><ele>95.0</ele><time>2026-03-29T10:34:04Z</time></trkpt><trkpt lat="45.316057837586605" lon="9.10647159372319"><ele>95.0</ele><time>2026-03-29T10:34:05Z</time></trkpt><trkpt lat="45.316189996669515" lon="9.106426925831975"><ele>95.0</ele><time>2026-03-29T10:34:06Z</time></trkpt><trkpt lat="45.316322531483564" lon="9.106380888451282"><ele>95.0</ele><time>2026-03-29T10:34:07Z</time></trkpt><trkpt lat="45.31644729537626" lon="9.106336341419514"><ele>95.0</ele><time>2026-03-29T10:34:08Z</time></trkpt><trkpt lat="45.316570933649736" lon="9.10629015837471"><ele>95.25</ele><time>2026-03-29T10:34:09Z</time></trkpt><trkpt lat="45.31668559023842" lon="9.106249018505677"><ele>95.5</ele><time>2026-03-29T10:34:10Z</time></trkpt><trkpt lat="45.316793502873125" lon="9.106208536357531"><ele>95.75</ele><time>2026-03-29T10:34:11Z</time></trkpt><trkpt lat="45.31690733627336" lon="9.106166389750019"><ele>96.0</ele><time>2026-03-29T10:34:12Z</time></trkpt><trkpt lat="45.31702266157859" lon="9.106122933994115"><ele>96.0</ele><time>2026-03-29T10:34:13Z</time></trkpt><trkpt lat="45.31714776730851" lon="9.106081002236412"><ele>96.0</ele><time>2026-03-29T10:34:14Z</time></trkpt><trkpt lat="45.3172666570493" lon="9.10603792049262"><ele>96.0</ele><time>2026-03-29T10:34:15Z</time></trkpt><trkpt lat="45.31739086955902" lon="9.105994158211065"><ele>96.0</ele><time>2026-03-29T10:34:16Z</time></trkpt><trkpt lat="45.31750859956015" lon="9.105950915314143"><ele>96.0</ele><time>2026-03-29T10:34:17Z</time></trkpt><trkpt lat="45.31763408845351" lon="9.105908501482437"><ele>96.0</ele><time>2026-03-29T10:34:18Z</time></trkpt><trkpt lat="45.317751360907046" lon="9.105865218702863"><ele>96.0</ele><time>2026-03-29T10:34:19Z</time></trkpt><trkpt lat="45.31787119259006" lon="9.105820811063804"><ele>96.0</ele><time>2026-03-29T10:34:20Z</time></trkpt><trkpt lat="45.317988266544425" lon="9.105780475731567"><ele>96.25</ele><time>2026-03-29T10:34:21Z</time></trkpt><trkpt lat="45.31810357435243" lon="9.105743064142121"><ele>96.5</ele><time>2026-03-29T10:34:22Z</time></trkpt><trkpt lat="45.31821918666101" lon="9.105702625253521"><ele>96.75</ele><time>2026-03-29T10:34:23Z</time></trkpt><trkpt lat="45.3183357212947" lon="9.10565987786369"><ele>97.0</ele><time>2026-03-29T10:34:24Z</time></trkpt><trkpt lat="45.31844875685374" lon="9.105613817382574"><ele>97.0</ele><time>2026-03-29T10:34:25Z</time></trkpt><trkpt lat="45.31856793792955" lon="9.105568214104439"><ele>97.0</ele><time>2026-03-29T10:34:26Z</time></trkpt><trkpt lat="45.318680110757796" lon="9.105517336354268"><ele>97.0</ele><time>2026-03-29T10:34:27Z</time></trkpt><trkpt lat="45.31879234054855" lon="9.105473790434989"><ele>97.0</ele><time>2026-03-29T10:34:28Z</time></trkpt><trkpt lat="45.318911025114055" lon="9.105432288503106"><ele>96.5</ele><time>2026-03-29T10:34:29Z</time></trkpt><trkpt lat="45.31903219099632" lon="9.105394899730351"><ele>96.0</ele><time>2026-03-29T10:34:30Z</time></trkpt><trkpt lat="45.31914440779248" lon="9.105351609251066"><ele>95.5</ele><time>2026-03-29T10:34:31Z</time></trkpt><trkpt lat="45.31926084733747" lon="9.105304019799753"><ele>95.0</ele><time>2026-03-29T10:34:32Z</time></trkpt><trkpt lat="45.31939307939757" lon="9.10525556433279"><ele>95.0</ele><time>2026-03-29T10:34:33Z</time></trkpt><trkpt lat="45.3195267955282" lon="9.105203542746567"><ele>95.0</ele><time>2026-03-29T10:34:34Z</time></trkpt><trkpt lat="45.3196742467045" lon="9.105155793075502"><ele>95.0</ele><time>2026-03-29T10:34:35Z</time></trkpt><trkpt lat="45.319819136659554" lon="9.10510006078887"><ele>95.0</ele><time>2026-03-29T10:34:36Z</time></trkpt><trkpt lat="45.31996890755787" lon="9.105047721906088"><ele>95.33333333333334</ele><time>2026-03-29T10:34:37Z</time></trkpt><trkpt lat="45.3201217570508" lon="9.104991731424061"><ele>95.66666666666667</ele><time>2026-03-29T10:34:38Z</time></trkpt><trkpt lat="45.32028187273095" lon="9.104929820348147"><ele>96.0</ele><time>2026-03-29T10:34:39Z</time></trkpt><trkpt lat="45.320448700472575" lon="9.104860202074263"><ele>96.0</ele><time>2026-03-29T10:34:40Z</time></trkpt><trkpt lat="45.32061390277185" lon="9.104797927660053"><ele>96.0</ele><time>2026-03-29T10:34:41Z</time></trkpt><trkpt lat="45.32078006933788" lon="9.104744334722092"><ele>96.0</ele><time>2026-03-29T10:34:42Z</time></trkpt><trkpt lat="45.32094301490754" lon="9.104686214995093"><ele>96.0</ele><time>2026-03-29T10:34:43Z</time></trkpt><trkpt lat="45.32110791967223" lon="9.1046274485951"><ele>96.0</ele><time>2026-03-29T10:34:44Z</time></trkpt><trkpt lat="45.32127323383068" lon="9.104568669184246"><ele>96.0</ele><time>2026-03-29T10:34:45Z</time></trkpt><trkpt lat="45.321441600460446" lon="9.10451299754136"><ele>96.33333333333334</ele><time>2026-03-29T10:34:46Z</time></trkpt><trkpt lat="45.321603228879745" lon="9.10445536388912"><ele>96.66666666666667</ele><time>2026-03-29T10:34:47Z</time></trkpt><trkpt lat="45.32176283831976" lon="9.104396874886284"><ele>97.0</ele><time>2026-03-29T10:34:48Z</time></trkpt><trkpt lat="45.32192751343002" lon="9.104340670355382"><ele>97.0</ele><time>2026-03-29T10:34:49Z</time></trkpt><trkpt lat="45.32208997102008" lon="9.104282745338814"><ele>97.0</ele><time>2026-03-29T10:34:50Z</time></trkpt><trkpt lat="45.3222543090355" lon="9.104224136841275"><ele>97.0</ele><time>2026-03-29T10:34:51Z</time></trkpt><trkpt lat="45.322418747827314" lon="9.104168701118107"><ele>96.66666666666667</ele><time>2026-03-29T10:34:52Z</time></trkpt><trkpt lat="45.32258503815328" lon="9.104110530835218"><ele>96.33333333333334</ele><time>2026-03-29T10:34:53Z</time></trkpt><trkpt lat="45.32274806072524" lon="9.10404961836728"><ele>96.0</ele><time>2026-03-29T10:34:54Z</time></trkpt><trkpt lat="45.32290941175416" lon="9.103984382012465"><ele>96.66666666666666</ele><time>2026-03-29T10:34:55Z</time></trkpt><trkpt lat="45.32307028294149" lon="9.103921717353616"><ele>97.33333333333333</ele><time>2026-03-29T10:34:56Z</time></trkpt><trkpt lat="45.32323804966874" lon="9.103862309452182"><ele>98.0</ele><time>2026-03-29T10:34:56.999Z</time></trkpt><trkpt lat="45.32340729209148" lon="9.103797117197281"><ele>98.0</ele><time>2026-03-29T10:34:57.999Z</time></trkpt><trkpt lat="45.32357944958367" lon="9.10373353466513"><ele>98.0</ele><time>2026-03-29T10:34:58.999Z</time></trkpt><trkpt lat="45.32374892754862" lon="9.103671392373123"><ele>98.0</ele><time>2026-03-29T10:34:59.999Z</time></trkpt><trkpt lat="45.3239186195587" lon="9.103606493089686"><ele>97.66666666666666</ele><time>2026-03-29T10:35:00.999Z</time></trkpt><trkpt lat="45.32408546311872" lon="9.103543053157397"><ele>97.33333333333334</ele><time>2026-03-29T10:35:01.999Z</time></trkpt><trkpt lat="45.32425724973282" lon="9.103471421668008"><ele>97.0</ele><time>2026-03-29T10:35:02.999Z</time></trkpt><trkpt lat="45.32442228248413" lon="9.103405705006352"><ele>97.0</ele><time>2026-03-29T10:35:03.999Z</time></trkpt><trkpt lat="45.32458464878801" lon="9.103339619748613"><ele>97.0</ele><time>2026-03-29T10:35:04.999Z</time></trkpt><trkpt lat="45.32474531187417" lon="9.103274669346261"><ele>97.0</ele><time>2026-03-29T10:35:05.999Z</time></trkpt><trkpt lat="45.324889107654776" lon="9.103220105482121"><ele>96.75</ele><time>2026-03-29T10:35:06.999Z</time></trkpt><trkpt lat="45.32503686503463" lon="9.10316620354811"><ele>96.5</ele><time>2026-03-29T10:35:07.999Z</time></trkpt><trkpt lat="45.32517564999892" lon="9.103118628734219"><ele>96.25</ele><time>2026-03-29T10:35:08.999Z</time></trkpt><trkpt lat="45.325307128710556" lon="9.103073688952836"><ele>96.0</ele><time>2026-03-29T10:35:09.999Z</time></trkpt><trkpt lat="45.32542916563102" lon="9.103032828151"><ele>96.0</ele><time>2026-03-29T10:35:10.999Z</time></trkpt><trkpt lat="45.325543196565604" lon="9.102989762250626"><ele>96.0</ele><time>2026-03-29T10:35:11.999Z</time></trkpt><trkpt lat="45.3256528867673" lon="9.102947464425418"><ele>96.0</ele><time>2026-03-29T10:35:12.999Z</time></trkpt><trkpt lat="45.32576516887105" lon="9.102916708872552"><ele>96.0</ele><time>2026-03-29T10:35:13.999Z</time></trkpt><trkpt lat="45.32586627283719" lon="9.10290086223849"><ele>96.0</ele><time>2026-03-29T10:35:14.999Z</time></trkpt><trkpt lat="45.325981691771865" lon="9.102879434418481"><ele>96.0</ele><time>2026-03-29T10:35:15.999Z</time></trkpt><trkpt lat="45.32608447387135" lon="9.102864008525867"><ele>96.0</ele><time>2026-03-29T10:35:16.999Z</time></trkpt><trkpt lat="45.32617572566991" lon="9.102851675236758"><ele>96.0</ele><time>2026-03-29T10:35:17.999Z</time></trkpt><trkpt lat="45.32626740424791" lon="9.10282141773547"><ele>96.0</ele><time>2026-03-29T10:35:18.999Z</time></trkpt><trkpt lat="45.32634782079423" lon="9.102869983663396"><ele>96.0</ele><time>2026-03-29T10:35:19.999Z</time></trkpt><trkpt lat="45.32644723675882" lon="9.102664799421573"><ele>96.5</ele><time>2026-03-29T10:35:20.999Z</time></trkpt><trkpt lat="45.326552640000735" lon="9.102601456489701"><ele>97.0</ele><time>2026-03-29T10:35:21.999Z</time></trkpt><trkpt lat="45.32666484483622" lon="9.102565015984071"><ele>97.5</ele><time>2026-03-29T10:35:22.999Z</time></trkpt><trkpt lat="45.3267804823505" lon="9.102525158214394"><ele>98.0</ele><time>2026-03-29T10:35:23.999Z</time></trkpt><trkpt lat="45.326891644566295" lon="9.102486978321531"><ele>98.0</ele><time>2026-03-29T10:35:24.999Z</time></trkpt><trkpt lat="45.3270097866703" lon="9.102447081662438"><ele>98.0</ele><time>2026-03-29T10:35:25.999Z</time></trkpt><trkpt lat="45.32713486080063" lon="9.102401805504451"><ele>98.0</ele><time>2026-03-29T10:35:26.999Z</time></trkpt><trkpt lat="45.32725739562284" lon="9.102353423185717"><ele>98.0</ele><time>2026-03-29T10:35:27.999Z</time></trkpt><trkpt lat="45.32737384137757" lon="9.102312514561435"><ele>98.0</ele><time>2026-03-29T10:35:28.999Z</time></trkpt><trkpt lat="45.32748500952623" lon="9.102278700267489"><ele>98.0</ele><time>2026-03-29T10:35:29.999Z</time></trkpt><trkpt lat="45.327579229717536" lon="9.102243117741418"><ele>98.0</ele><time>2026-03-29T10:35:30.999Z</time></trkpt><trkpt lat="45.32766971444835" lon="9.102207718991952"><ele>98.0</ele><time>2026-03-29T10:35:31.999Z</time></trkpt><trkpt lat="45.327749004117976" lon="9.10218550616431"><ele>98.0</ele><time>2026-03-29T10:35:32.999Z</time></trkpt><trkpt lat="45.32781779840834" lon="9.1021550048434"><ele>97.99999999999999</ele><time>2026-03-29T10:35:33.999Z</time></trkpt><trkpt lat="45.327903608939685" lon="9.102117145189611"><ele>98.0</ele><time>2026-03-29T10:35:35.999Z</time></trkpt><trkpt lat="45.327970000178865" lon="9.102097570328224"><ele>98.0</ele><time>2026-03-29T10:35:38.999Z</time></trkpt><trkpt lat="45.32794094764816" lon="9.101925401675006"><ele>98.0</ele><time>2026-03-29T10:35:40.999Z</time></trkpt><trkpt lat="45.327907427145156" lon="9.10183996433118"><ele>97.99999999999999</ele><time>2026-03-29T10:35:41.999Z</time></trkpt><trkpt lat="45.32789482279172" lon="9.101741386717418"><ele>98.0</ele><time>2026-03-29T10:35:42.999Z</time></trkpt><trkpt lat="45.32787887037687" lon="9.101639114252993"><ele>97.83333333333333</ele><time>2026-03-29T10:35:43.999Z</time></trkpt><trkpt lat="45.32785754729529" lon="9.101531971991845"><ele>97.66666666666666</ele><time>2026-03-29T10:35:44.999Z</time></trkpt><trkpt lat="45.32783507416253" lon="9.101407240578379"><ele>97.5</ele><time>2026-03-29T10:35:45.999Z</time></trkpt><trkpt lat="45.32781151307946" lon="9.101293103107917"><ele>97.33333333333334</ele><time>2026-03-29T10:35:46.999Z</time></trkpt><trkpt lat="45.327780067350034" lon="9.10116244400464"><ele>97.16666666666667</ele><time>2026-03-29T10:35:47.999Z</time></trkpt><trkpt lat="45.327750460036526" lon="9.101032330165989"><ele>97.0</ele><time>2026-03-29T10:35:48.999Z</time></trkpt><trkpt lat="45.32772484029301" lon="9.100897540561913"><ele>97.0</ele><time>2026-03-29T10:35:49.999Z</time></trkpt><trkpt lat="45.32770237152069" lon="9.10076129672309"><ele>97.0</ele><time>2026-03-29T10:35:50.999Z</time></trkpt><trkpt lat="45.32767662411781" lon="9.10061349350469"><ele>97.0</ele><time>2026-03-29T10:35:51.999Z</time></trkpt><trkpt lat="45.32764341467864" lon="9.100461824655866"><ele>97.0</ele><time>2026-03-29T10:35:52.999Z</time></trkpt><trkpt lat="45.32761136146474" lon="9.100321272390618"><ele>97.0</ele><time>2026-03-29T10:35:53.999Z</time></trkpt><trkpt lat="45.32758513866658" lon="9.10017777880714"><ele>97.5</ele><time>2026-03-29T10:35:54.999Z</time></trkpt><trkpt lat="45.32758112127589" lon="9.100025732608577"><ele>98.0</ele><time>2026-03-29T10:35:55.999Z</time></trkpt><trkpt lat="45.327599530471836" lon="9.099866729787188"><ele>98.5</ele><time>2026-03-29T10:35:56.999Z</time></trkpt><trkpt lat="45.327628456594084" lon="9.099701047071774"><ele>99.0</ele><time>2026-03-29T10:35:57.999Z</time></trkpt><trkpt lat="45.32765450323742" lon="9.09954296608193"><ele>99.0</ele><time>2026-03-29T10:35:58.999Z</time></trkpt><trkpt lat="45.327681455518444" lon="9.099403058395913"><ele>99.0</ele><time>2026-03-29T10:36:00Z</time></trkpt><trkpt lat="45.32770430871976" lon="9.099274366063357"><ele>99.0</ele><time>2026-03-29T10:36:01Z</time></trkpt><trkpt lat="45.32772116888659" lon="9.099152699774454"><ele>99.0</ele><time>2026-03-29T10:36:02Z</time></trkpt><trkpt lat="45.32774134407908" lon="9.09903186269292"><ele>99.0</ele><time>2026-03-29T10:36:03Z</time></trkpt><trkpt lat="45.32776494962678" lon="9.098921956109338"><ele>98.83333333333333</ele><time>2026-03-29T10:36:04Z</time></trkpt><trkpt lat="45.32778124859075" lon="9.098804614828143"><ele>98.66666666666666</ele><time>2026-03-29T10:36:05Z</time></trkpt><trkpt lat="45.3277987353543" lon="9.098702073019814"><ele>98.5</ele><time>2026-03-29T10:36:06Z</time></trkpt><trkpt lat="45.32781531487662" lon="9.09861104680837"><ele>98.33333333333333</ele><time>2026-03-29T10:36:07Z</time></trkpt><trkpt lat="45.32784717922633" lon="9.098448965776837"><ele>98.16666666666666</ele><time>2026-03-29T10:36:09Z</time></trkpt><trkpt lat="45.3278705040293" lon="9.098365660541209"><ele>98.0</ele><time>2026-03-29T10:36:13Z</time></trkpt><trkpt lat="45.32789095557139" lon="9.098277933701038"><ele>98.16666666666666</ele><time>2026-03-29T10:36:17Z</time></trkpt><trkpt lat="45.327921619748544" lon="9.098150578318812"><ele>98.33333333333333</ele><time>2026-03-29T10:36:19Z</time></trkpt><trkpt lat="45.32799458285215" lon="9.098016452934237"><ele>98.5</ele><time>2026-03-29T10:36:21Z</time></trkpt><trkpt lat="45.32803353045163" lon="9.097942461793007"><ele>98.66666666666666</ele><time>2026-03-29T10:36:22Z</time></trkpt><trkpt lat="45.32807930842683" lon="9.097848867058648"><ele>98.83333333333333</ele><time>2026-03-29T10:36:23Z</time></trkpt><trkpt lat="45.3281187694802" lon="9.097756491386049"><ele>99.0</ele><time>2026-03-29T10:36:24Z</time></trkpt><trkpt lat="45.328160937696694" lon="9.09765029996397"><ele>99.0</ele><time>2026-03-29T10:36:25Z</time></trkpt><trkpt lat="45.32820644432679" lon="9.097537211109564"><ele>99.0</ele><time>2026-03-29T10:36:26Z</time></trkpt><trkpt lat="45.32824785043826" lon="9.097432591328278"><ele>99.0</ele><time>2026-03-29T10:36:27Z</time></trkpt><trkpt lat="45.32828732208752" lon="9.097336383056014"><ele>99.0</ele><time>2026-03-29T10:36:28Z</time></trkpt><trkpt lat="45.32832320199817" lon="9.097244556970848"><ele>99.0</ele><time>2026-03-29T10:36:29Z</time></trkpt><trkpt lat="45.32836128753948" lon="9.097152916041814"><ele>99.0</ele><time>2026-03-29T10:36:30Z</time></trkpt><trkpt lat="45.32840203810705" lon="9.097058683760995"><ele>99.0</ele><time>2026-03-29T10:36:31Z</time></trkpt><trkpt lat="45.328449447353975" lon="9.096965381371527"><ele>99.0</ele><time>2026-03-29T10:36:32Z</time></trkpt><trkpt lat="45.32849541141777" lon="9.09686648445975"><ele>99.0</ele><time>2026-03-29T10:36:33Z</time></trkpt><trkpt lat="45.32853945566709" lon="9.096761369480838"><ele>99.0</ele><time>2026-03-29T10:36:34Z</time></trkpt><trkpt lat="45.328581578884815" lon="9.096657322288296"><ele>99.0</ele><time>2026-03-29T10:36:35Z</time></trkpt><trkpt lat="45.32862187981153" lon="9.096555619982475"><ele>99.0</ele><time>2026-03-29T10:36:36Z</time></trkpt><trkpt lat="45.32866413055042" lon="9.096449183956908"><ele>99.0</ele><time>2026-03-29T10:36:37Z</time></trkpt><trkpt lat="45.32871323259385" lon="9.096337760175608"><ele>99.0</ele><time>2026-03-29T10:36:38Z</time></trkpt><trkpt lat="45.32876354120444" lon="9.096220069589956"><ele>99.0</ele><time>2026-03-29T10:36:39Z</time></trkpt><trkpt lat="45.32880705464615" lon="9.096116440691965"><ele>99.0</ele><time>2026-03-29T10:36:40Z</time></trkpt><trkpt lat="45.3288546290272" lon="9.095999799320461"><ele>99.0</ele><time>2026-03-29T10:36:41Z</time></trkpt><trkpt lat="45.32890388910979" lon="9.095880487119194"><ele>99.0</ele><time>2026-03-29T10:36:42Z</time></trkpt><trkpt lat="45.32894512546091" lon="9.095769869517438"><ele>99.0</ele><time>2026-03-29T10:36:43Z</time></trkpt><trkpt lat="45.3289877786002" lon="9.095669524935817"><ele>99.0</ele><time>2026-03-29T10:36:44Z</time></trkpt><trkpt lat="45.32902857638068" lon="9.095578045551221"><ele>99.0</ele><time>2026-03-29T10:36:45Z</time></trkpt><trkpt lat="45.32906495197122" lon="9.095488187920957"><ele>99.0</ele><time>2026-03-29T10:36:46Z</time></trkpt><trkpt lat="45.32910282020611" lon="9.095409131658588"><ele>99.0</ele><time>2026-03-29T10:36:47Z</time></trkpt><trkpt lat="45.32913651876106" lon="9.095327632599435"><ele>99.16666666666667</ele><time>2026-03-29T10:36:48Z</time></trkpt><trkpt lat="45.32921678114114" lon="9.095192876002637"><ele>99.33333333333334</ele><time>2026-03-29T10:36:50Z</time></trkpt><trkpt lat="45.32927971777997" lon="9.095165049448847"><ele>99.5</ele><time>2026-03-29T10:36:51Z</time></trkpt><trkpt lat="45.32935585082813" lon="9.095154475764833"><ele>99.66666666666667</ele><time>2026-03-29T10:36:52Z</time></trkpt><trkpt lat="45.329428633037296" lon="9.095147381449243"><ele>99.83333333333334</ele><time>2026-03-29T10:36:53Z</time></trkpt><trkpt lat="45.3295006424337" lon="9.095138847368577"><ele>100.0</ele><time>2026-03-29T10:36:54Z</time></trkpt><trkpt lat="45.3295832969451" lon="9.095113452522586"><ele>100.00000000000001</ele><time>2026-03-29T10:36:55Z</time></trkpt><trkpt lat="45.32966445837046" lon="9.095106943473755"><ele>100.0</ele><time>2026-03-29T10:36:56Z</time></trkpt><trkpt lat="45.32974606312727" lon="9.09509550057886"><ele>100.0</ele><time>2026-03-29T10:36:57Z</time></trkpt><trkpt lat="45.32982318496709" lon="9.095089770621051"><ele>100.0</ele><time>2026-03-29T10:36:58Z</time></trkpt><trkpt lat="45.32990259466331" lon="9.095074456773927"><ele>100.00000000000001</ele><time>2026-03-29T10:36:59Z</time></trkpt><trkpt lat="45.32999200283538" lon="9.095065371789884"><ele>100.0</ele><time>2026-03-29T10:37:00Z</time></trkpt><trkpt lat="45.33006259706305" lon="9.09505750831456"><ele>100.0</ele><time>2026-03-29T10:37:01Z</time></trkpt><trkpt lat="45.33018384168305" lon="9.09504355778205"><ele>100.0</ele><time>2026-03-29T10:37:02.999Z</time></trkpt><trkpt lat="45.33028570539851" lon="9.095026459909912"><ele>100.0</ele><time>2026-03-29T10:37:04.999Z</time></trkpt><trkpt lat="45.330386598283155" lon="9.095012280698116"><ele>100.0</ele><time>2026-03-29T10:37:06.999Z</time></trkpt><trkpt lat="45.330472860580336" lon="9.094986842160194"><ele>100.0</ele><time>2026-03-29T10:37:08.999Z</time></trkpt><trkpt lat="45.33057220055489" lon="9.09493766702053"><ele>99.83333333333334</ele><time>2026-03-29T10:37:10.999Z</time></trkpt><trkpt lat="45.3305939551782" lon="9.094819893866802"><ele>99.66666666666667</ele><time>2026-03-29T10:37:11.999Z</time></trkpt><trkpt lat="45.3305547512108" lon="9.094720004693695"><ele>99.5</ele><time>2026-03-29T10:37:12.999Z</time></trkpt><trkpt lat="45.33048282450603" lon="9.094671383923933"><ele>99.33333333333334</ele><time>2026-03-29T10:37:13.999Z</time></trkpt><trkpt lat="45.330405153207764" lon="9.09465405950183"><ele>99.16666666666667</ele><time>2026-03-29T10:37:14.999Z</time></trkpt><trkpt lat="45.330369183999025" lon="9.094562229538637"><ele>99.0</ele><time>2026-03-29T10:37:15.999Z</time></trkpt><trkpt lat="45.330350326693086" lon="9.094456157395156"><ele>99.16666666666667</ele><time>2026-03-29T10:37:16.999Z</time></trkpt><trkpt lat="45.3303184577191" lon="9.094365035435208"><ele>99.33333333333334</ele><time>2026-03-29T10:37:17.999Z</time></trkpt><trkpt lat="45.33027516891849" lon="9.094259337413403"><ele>99.5</ele><time>2026-03-29T10:37:18.999Z</time></trkpt><trkpt lat="45.33023547920239" lon="9.094155409891096"><ele>99.66666666666667</ele><time>2026-03-29T10:37:19.999Z</time></trkpt><trkpt lat="45.33019027788707" lon="9.094038541036856"><ele>99.83333333333334</ele><time>2026-03-29T10:37:20.999Z</time></trkpt><trkpt lat="45.33014159543675" lon="9.09391588623723"><ele>100.0</ele><time>2026-03-29T10:37:21.999Z</time></trkpt><trkpt lat="45.33009203206689" lon="9.093782787119236"><ele>100.0</ele><time>2026-03-29T10:37:22.999Z</time></trkpt><trkpt lat="45.33004181829481" lon="9.093646153513767"><ele>100.0</ele><time>2026-03-29T10:37:23.999Z</time></trkpt><trkpt lat="45.32999697870372" lon="9.0935192452604"><ele>100.0</ele><time>2026-03-29T10:37:24.999Z</time></trkpt><trkpt lat="45.329952980067674" lon="9.093402550484084"><ele>100.0</ele><time>2026-03-29T10:37:25.999Z</time></trkpt><trkpt lat="45.329901646601364" lon="9.093279306094736"><ele>100.0</ele><time>2026-03-29T10:37:26.999Z</time></trkpt><trkpt lat="45.32984349997563" lon="9.093147271680417"><ele>100.0</ele><time>2026-03-29T10:37:27.999Z</time></trkpt><trkpt lat="45.32979965287711" lon="9.093023500541006"><ele>100.0</ele><time>2026-03-29T10:37:28.999Z</time></trkpt><trkpt lat="45.32974806942992" lon="9.092886602641778"><ele>100.0</ele><time>2026-03-29T10:37:29.999Z</time></trkpt><trkpt lat="45.329701701157354" lon="9.092756290570534"><ele>100.0</ele><time>2026-03-29T10:37:30.999Z</time></trkpt><trkpt lat="45.329651397284586" lon="9.092614378390127"><ele>100.0</ele><time>2026-03-29T10:37:31.999Z</time></trkpt><trkpt lat="45.32959449866226" lon="9.092466988639789"><ele>99.75</ele><time>2026-03-29T10:37:32.999Z</time></trkpt><trkpt lat="45.329531079661365" lon="9.092330248819728"><ele>99.5</ele><time>2026-03-29T10:37:33.999Z</time></trkpt><trkpt lat="45.32946387122823" lon="9.092190873479852"><ele>99.25</ele><time>2026-03-29T10:37:34.999Z</time></trkpt><trkpt lat="45.329391204739636" lon="9.092053459810073"><ele>99.0</ele><time>2026-03-29T10:37:35.999Z</time></trkpt><trkpt lat="45.32930882755781" lon="9.091915451553408"><ele>99.0</ele><time>2026-03-29T10:37:36.999Z</time></trkpt><trkpt lat="45.32921071838584" lon="9.091802163262354"><ele>99.0</ele><time>2026-03-29T10:37:37.999Z</time></trkpt><trkpt lat="45.32910441343233" lon="9.091719030921817"><ele>99.0</ele><time>2026-03-29T10:37:38.999Z</time></trkpt><trkpt lat="45.328989480627946" lon="9.091652691043475"><ele>99.0</ele><time>2026-03-29T10:37:39.999Z</time></trkpt><trkpt lat="45.328880000919504" lon="9.091596847734557"><ele>99.2</ele><time>2026-03-29T10:37:40.999Z</time></trkpt><trkpt lat="45.32877263242323" lon="9.0915518625644"><ele>99.4</ele><time>2026-03-29T10:37:41.999Z</time></trkpt><trkpt lat="45.32867523880569" lon="9.091506352726423"><ele>99.6</ele><time>2026-03-29T10:37:42.999Z</time></trkpt><trkpt lat="45.32858607215999" lon="9.091461686499423"><ele>99.8</ele><time>2026-03-29T10:37:43.999Z</time></trkpt><trkpt lat="45.32850422327529" lon="9.091414330168051"><ele>100.0</ele><time>2026-03-29T10:37:44.999Z</time></trkpt><trkpt lat="45.3284270641895" lon="9.091367943152592"><ele>100.0</ele><time>2026-03-29T10:37:45.999Z</time></trkpt><trkpt lat="45.32835776532266" lon="9.091325831626149"><ele>100.0</ele><time>2026-03-29T10:37:46.999Z</time></trkpt><trkpt lat="45.32828851305663" lon="9.091288624168957"><ele>100.0</ele><time>2026-03-29T10:37:47.999Z</time></trkpt><trkpt lat="45.3282237841108" lon="9.091248949421256"><ele>100.0</ele><time>2026-03-29T10:37:48.999Z</time></trkpt><trkpt lat="45.328076236943836" lon="9.091385428693433"><ele>100.0</ele><time>2026-03-29T10:37:50.999Z</time></trkpt><trkpt lat="45.328018692474714" lon="9.091463275236636"><ele>99.8</ele><time>2026-03-29T10:37:51.999Z</time></trkpt><trkpt lat="45.32793414888469" lon="9.091508405954952"><ele>99.6</ele><time>2026-03-29T10:37:52.999Z</time></trkpt><trkpt lat="45.32783245197864" lon="9.091495092726207"><ele>99.4</ele><time>2026-03-29T10:37:53.999Z</time></trkpt><trkpt lat="45.32772485406042" lon="9.091448539204075"><ele>99.2</ele><time>2026-03-29T10:37:54.999Z</time></trkpt><trkpt lat="45.327609273727454" lon="9.09142291642368"><ele>99.0</ele><time>2026-03-29T10:37:55.999Z</time></trkpt><trkpt lat="45.32750217077483" lon="9.091401055489307"><ele>99.0</ele><time>2026-03-29T10:37:56.999Z</time></trkpt><trkpt lat="45.32738608121655" lon="9.091377067156836"><ele>99.0</ele><time>2026-03-29T10:37:57.999Z</time></trkpt><trkpt lat="45.327277943373446" lon="9.091353296996045"><ele>99.0</ele><time>2026-03-29T10:37:58.999Z</time></trkpt><trkpt lat="45.32717364810652" lon="9.091329697775091"><ele>99.0</ele><time>2026-03-29T10:37:59.999Z</time></trkpt><trkpt lat="45.32707153604163" lon="9.091307034698124"><ele>99.0</ele><time>2026-03-29T10:38:00.999Z</time></trkpt><trkpt lat="45.326966391186346" lon="9.091276607314887"><ele>99.0</ele><time>2026-03-29T10:38:01.999Z</time></trkpt><trkpt lat="45.326866461161245" lon="9.09122175578531"><ele>99.0</ele><time>2026-03-29T10:38:02.999Z</time></trkpt><trkpt lat="45.326781823604904" lon="9.091125098107888"><ele>99.0</ele><time>2026-03-29T10:38:03.999Z</time></trkpt><trkpt lat="45.326720677453395" lon="9.090995536976566"><ele>99.0</ele><time>2026-03-29T10:38:04.999Z</time></trkpt><trkpt lat="45.32669441860733" lon="9.090842258484544"><ele>99.0</ele><time>2026-03-29T10:38:06Z</time></trkpt><trkpt lat="45.32669154019945" lon="9.090686663316157"><ele>99.2</ele><time>2026-03-29T10:38:07Z</time></trkpt><trkpt lat="45.32671370236525" lon="9.090533904604541"><ele>99.4</ele><time>2026-03-29T10:38:08Z</time></trkpt><trkpt lat="45.32675762760735" lon="9.090393425360894"><ele>99.6</ele><time>2026-03-29T10:38:09Z</time></trkpt><trkpt lat="45.32680055071449" lon="9.090249561995405"><ele>99.8</ele><time>2026-03-29T10:38:10Z</time></trkpt><trkpt lat="45.32684582818892" lon="9.090095190147755"><ele>100.0</ele><time>2026-03-29T10:38:11Z</time></trkpt><trkpt lat="45.32688693402819" lon="9.089938493285315"><ele>100.0</ele><time>2026-03-29T10:38:12Z</time></trkpt><trkpt lat="45.32692730008199" lon="9.089791817917988"><ele>100.0</ele><time>2026-03-29T10:38:13Z</time></trkpt><trkpt lat="45.32696460453816" lon="9.089654082697402"><ele>100.0</ele><time>2026-03-29T10:38:14Z</time></trkpt><trkpt lat="45.32698322898051" lon="9.08950868327242"><ele>100.0</ele><time>2026-03-29T10:38:15Z</time></trkpt><trkpt lat="45.32696364436657" lon="9.089364610282068"><ele>100.0</ele><time>2026-03-29T10:38:16Z</time></trkpt><trkpt lat="45.32690884930791" lon="9.08922413044451"><ele>100.0</ele><time>2026-03-29T10:38:17Z</time></trkpt><trkpt lat="45.32682424689274" lon="9.089105472292367"><ele>100.0</ele><time>2026-03-29T10:38:18Z</time></trkpt><trkpt lat="45.326727584979565" lon="9.089022235887915"><ele>100.0</ele><time>2026-03-29T10:38:19Z</time></trkpt><trkpt lat="45.326633967183746" lon="9.088950949657603"><ele>100.0</ele><time>2026-03-29T10:38:20Z</time></trkpt><trkpt lat="45.326544196279976" lon="9.08887868357257"><ele>100.0</ele><time>2026-03-29T10:38:21Z</time></trkpt><trkpt lat="45.32645032951935" lon="9.088796467172571"><ele>99.8</ele><time>2026-03-29T10:38:22Z</time></trkpt><trkpt lat="45.32636126352687" lon="9.08871588462132"><ele>99.6</ele><time>2026-03-29T10:38:23Z</time></trkpt><trkpt lat="45.326281488209375" lon="9.088632734764712"><ele>99.4</ele><time>2026-03-29T10:38:24Z</time></trkpt><trkpt lat="45.32621758741756" lon="9.088519254832741"><ele>99.2</ele><time>2026-03-29T10:38:25Z</time></trkpt><trkpt lat="45.32617455062979" lon="9.088380536227469"><ele>99.0</ele><time>2026-03-29T10:38:26Z</time></trkpt><trkpt lat="45.32613559772162" lon="9.088247722345127"><ele>99.0</ele><time>2026-03-29T10:38:27Z</time></trkpt><trkpt lat="45.326104268430264" lon="9.088129315805647"><ele>99.0</ele><time>2026-03-29T10:38:28Z</time></trkpt><trkpt lat="45.326072113411804" lon="9.088018344813173"><ele>99.0</ele><time>2026-03-29T10:38:29Z</time></trkpt><trkpt lat="45.32604136630768" lon="9.087914419294936"><ele>99.0</ele><time>2026-03-29T10:38:30Z</time></trkpt><trkpt lat="45.32601290497749" lon="9.087816186634575"><ele>99.0</ele><time>2026-03-29T10:38:31Z</time></trkpt><trkpt lat="45.32598534332553" lon="9.087714777766028"><ele>99.0</ele><time>2026-03-29T10:38:32Z</time></trkpt><trkpt lat="45.32595697510862" lon="9.087606752507996"><ele>99.0</ele><time>2026-03-29T10:38:33Z</time></trkpt><trkpt lat="45.325927528427364" lon="9.087501860270223"><ele>99.0</ele><time>2026-03-29T10:38:34Z</time></trkpt><trkpt lat="45.32589230963112" lon="9.087388770223143"><ele>99.0</ele><time>2026-03-29T10:38:35Z</time></trkpt><trkpt lat="45.325855871153614" lon="9.087271086391302"><ele>99.0</ele><time>2026-03-29T10:38:36Z</time></trkpt><trkpt lat="45.32581652594971" lon="9.087141441957499"><ele>99.0</ele><time>2026-03-29T10:38:37Z</time></trkpt><trkpt lat="45.325784368013615" lon="9.087003065847359"><ele>98.80000000000001</ele><time>2026-03-29T10:38:38Z</time></trkpt><trkpt lat="45.325754829745456" lon="9.086875583816271"><ele>98.60000000000001</ele><time>2026-03-29T10:38:39Z</time></trkpt><trkpt lat="45.325725623046424" lon="9.086736930011265"><ele>98.4</ele><time>2026-03-29T10:38:40Z</time></trkpt><trkpt lat="45.325690900235344" lon="9.086599084557196"><ele>98.2</ele><time>2026-03-29T10:38:41Z</time></trkpt><trkpt lat="45.32565430136204" lon="9.08645318311052"><ele>98.0</ele><time>2026-03-29T10:38:42Z</time></trkpt><trkpt lat="45.325621728067546" lon="9.086314215519081"><ele>98.0</ele><time>2026-03-29T10:38:43Z</time></trkpt><trkpt lat="45.32558914958128" lon="9.086170447475316"><ele>98.0</ele><time>2026-03-29T10:38:44Z</time></trkpt><trkpt lat="45.325556713009185" lon="9.086022898832425"><ele>98.0</ele><time>2026-03-29T10:38:45Z</time></trkpt><trkpt lat="45.32551704420379" lon="9.085864937033486"><ele>98.0</ele><time>2026-03-29T10:38:46Z</time></trkpt><trkpt lat="45.32547920163061" lon="9.085717032807326"><ele>98.0</ele><time>2026-03-29T10:38:47Z</time></trkpt><trkpt lat="45.325442100073246" lon="9.085564989306336"><ele>98.0</ele><time>2026-03-29T10:38:48Z</time></trkpt><trkpt lat="45.32540649309367" lon="9.085408986640351"><ele>98.0</ele><time>2026-03-29T10:38:49Z</time></trkpt><trkpt lat="45.32537466977695" lon="9.085255274177175"><ele>98.0</ele><time>2026-03-29T10:38:50Z</time></trkpt><trkpt lat="45.32534473372608" lon="9.085103114265102"><ele>98.0</ele><time>2026-03-29T10:38:51Z</time></trkpt><trkpt lat="45.32531335751543" lon="9.084943041984129"><ele>97.75</ele><time>2026-03-29T10:38:52Z</time></trkpt><trkpt lat="45.32529464433388" lon="9.0847845566816"><ele>97.5</ele><time>2026-03-29T10:38:53Z</time></trkpt><trkpt lat="45.32528031153187" lon="9.084619746023574"><ele>97.25</ele><time>2026-03-29T10:38:54Z</time></trkpt><trkpt lat="45.32527594350663" lon="9.08444819597265"><ele>97.0</ele><time>2026-03-29T10:38:55Z</time></trkpt><trkpt lat="45.32527754301444" lon="9.084265077121794"><ele>97.0</ele><time>2026-03-29T10:38:56Z</time></trkpt><trkpt lat="45.32528405198021" lon="9.084071583352095"><ele>97.0</ele><time>2026-03-29T10:38:57Z</time></trkpt><trkpt lat="45.32528761387733" lon="9.083868386990172"><ele>97.0</ele><time>2026-03-29T10:38:58Z</time></trkpt><trkpt lat="45.325288892851866" lon="9.08366647701451"><ele>97.0</ele><time>2026-03-29T10:38:59Z</time></trkpt><trkpt lat="45.32528473857153" lon="9.08346944124305"><ele>97.0</ele><time>2026-03-29T10:39:00Z</time></trkpt><trkpt lat="45.325266710452475" lon="9.08328171127296"><ele>97.0</ele><time>2026-03-29T10:39:01Z</time></trkpt><trkpt lat="45.32523069107864" lon="9.08309819184694"><ele>97.0</ele><time>2026-03-29T10:39:02Z</time></trkpt><trkpt lat="45.3251861031897" lon="9.082901906580098"><ele>97.0</ele><time>2026-03-29T10:39:03Z</time></trkpt><trkpt lat="45.32514145656628" lon="9.082709110004041"><ele>96.66666666666667</ele><time>2026-03-29T10:39:03.999Z</time></trkpt><trkpt lat="45.325095590011024" lon="9.08250913659115"><ele>96.33333333333334</ele><time>2026-03-29T10:39:04.999Z</time></trkpt><trkpt lat="45.325047162451426" lon="9.08230357605538"><ele>96.0</ele><time>2026-03-29T10:39:05.999Z</time></trkpt><trkpt lat="45.324994862381466" lon="9.08210050327381"><ele>96.66666666666666</ele><time>2026-03-29T10:39:06.999Z</time></trkpt><trkpt lat="45.32493856170982" lon="9.08188560868061"><ele>97.33333333333333</ele><time>2026-03-29T10:39:07.999Z</time></trkpt><trkpt lat="45.32487647562883" lon="9.081660054068218"><ele>98.0</ele><time>2026-03-29T10:39:08.999Z</time></trkpt><trkpt lat="45.324812280580176" lon="9.081429903512275"><ele>98.33333333333333</ele><time>2026-03-29T10:39:09.999Z</time></trkpt><trkpt lat="45.32475098683777" lon="9.0811811875854"><ele>98.66666666666666</ele><time>2026-03-29T10:39:10.999Z</time></trkpt><trkpt lat="45.32469672876932" lon="9.080914611231561"><ele>99.0</ele><time>2026-03-29T10:39:11.999Z</time></trkpt><trkpt lat="45.3246747263684" lon="9.08062520413293"><ele>98.33333333333334</ele><time>2026-03-29T10:39:12.999Z</time></trkpt><trkpt lat="45.32462917760985" lon="9.080328860954472"><ele>97.66666666666667</ele><time>2026-03-29T10:39:13.999Z</time></trkpt><trkpt lat="45.32460359217337" lon="9.080061086683523"><ele>97.0</ele><time>2026-03-29T10:39:14.999Z</time></trkpt><trkpt lat="45.324574902734156" lon="9.079817975393924"><ele>97.0</ele><time>2026-03-29T10:39:15.999Z</time></trkpt><trkpt lat="45.32454488374909" lon="9.079590818278344"><ele>97.0</ele><time>2026-03-29T10:39:16.999Z</time></trkpt><trkpt lat="45.32451284069609" lon="9.07937939586481"><ele>97.0</ele><time>2026-03-29T10:39:17.999Z</time></trkpt><trkpt lat="45.32448500428017" lon="9.079187507365242"><ele>96.75</ele><time>2026-03-29T10:39:18.999Z</time></trkpt><trkpt lat="45.324459673199215" lon="9.07900542981451"><ele>96.5</ele><time>2026-03-29T10:39:19.999Z</time></trkpt><trkpt lat="45.324435591748305" lon="9.078836812572419"><ele>96.25</ele><time>2026-03-29T10:39:20.999Z</time></trkpt><trkpt lat="45.32441003633384" lon="9.078679731192352"><ele>96.0</ele><time>2026-03-29T10:39:21.999Z</time></trkpt><trkpt lat="45.32438390851689" lon="9.07853470820138"><ele>96.0</ele><time>2026-03-29T10:39:22.999Z</time></trkpt><trkpt lat="45.32436012906876" lon="9.078401663011816"><ele>96.0</ele><time>2026-03-29T10:39:23.999Z</time></trkpt><trkpt lat="45.32433627399518" lon="9.078284021467141"><ele>96.0</ele><time>2026-03-29T10:39:24.999Z</time></trkpt><trkpt lat="45.32433486741132" lon="9.078173612258395"><ele>96.0</ele><time>2026-03-29T10:39:25.999Z</time></trkpt><trkpt lat="45.32435116137592" lon="9.078050651462855"><ele>96.0</ele><time>2026-03-29T10:39:27.999Z</time></trkpt><trkpt lat="45.32451878908535" lon="9.078009860753317"><ele>96.33333333333333</ele><time>2026-03-29T10:39:28.999Z</time></trkpt><trkpt lat="45.3246038665365" lon="9.077992450504698"><ele>96.66666666666666</ele><time>2026-03-29T10:39:29.999Z</time></trkpt><trkpt lat="45.32468237684692" lon="9.077977853470767"><ele>97.0</ele><time>2026-03-29T10:39:30.999Z</time></trkpt><trkpt lat="45.324766654606954" lon="9.077990881520734"><ele>97.33333333333333</ele><time>2026-03-29T10:39:31.999Z</time></trkpt><trkpt lat="45.32485169589635" lon="9.077961513655362"><ele>97.66666666666666</ele><time>2026-03-29T10:39:32.999Z</time></trkpt><trkpt lat="45.32494092339409" lon="9.077953431711165"><ele>98.0</ele><time>2026-03-29T10:39:33.999Z</time></trkpt><trkpt lat="45.325024985962095" lon="9.07794297035514"><ele>97.99999999999999</ele><time>2026-03-29T10:39:34.999Z</time></trkpt><trkpt lat="45.325108866583065" lon="9.077956969939606"><ele>98.0</ele><time>2026-03-29T10:39:35.999Z</time></trkpt><trkpt lat="45.325188159349786" lon="9.07794905096613"><ele>98.0</ele><time>2026-03-29T10:39:36.999Z</time></trkpt><trkpt lat="45.325270084099415" lon="9.07794139630733"><ele>98.0</ele><time>2026-03-29T10:39:37.999Z</time></trkpt><trkpt lat="45.325354772367646" lon="9.077928888891405"><ele>97.99999999999999</ele><time>2026-03-29T10:39:38.999Z</time></trkpt><trkpt lat="45.32543660750359" lon="9.077923058746656"><ele>98.0</ele><time>2026-03-29T10:39:39.999Z</time></trkpt><trkpt lat="45.32550857330422" lon="9.077915548155056"><ele>98.16666666666666</ele><time>2026-03-29T10:39:40.999Z</time></trkpt><trkpt lat="45.32557844411988" lon="9.077911361472886"><ele>98.33333333333333</ele><time>2026-03-29T10:39:41.999Z</time></trkpt><trkpt lat="45.32564476372075" lon="9.077908666929039"><ele>98.5</ele><time>2026-03-29T10:39:42.999Z</time></trkpt><trkpt lat="45.325757472529446" lon="9.077900797956035"><ele>98.66666666666666</ele><time>2026-03-29T10:39:44.999Z</time></trkpt><trkpt lat="45.32584872509074" lon="9.077893472313317"><ele>98.83333333333333</ele><time>2026-03-29T10:39:46.999Z</time></trkpt><trkpt lat="45.32592777689326" lon="9.077884574082692"><ele>99.0</ele><time>2026-03-29T10:39:48.999Z</time></trkpt><trkpt lat="45.32602043898024" lon="9.077875458329725"><ele>99.0</ele><time>2026-03-29T10:39:51.999Z</time></trkpt><trkpt lat="45.32610092982034" lon="9.077841258298623"><ele>99.0</ele><time>2026-03-29T10:40:43Z</time></trkpt><trkpt lat="45.32625468672831" lon="9.077832334123643"><ele>99.0</ele><time>2026-03-29T10:40:46Z</time></trkpt><trkpt lat="45.32631886611809" lon="9.07782657346639"><ele>99.0</ele><time>2026-03-29T10:40:47Z</time></trkpt><trkpt lat="45.3263884634306" lon="9.077821499233508"><ele>99.0</ele><time>2026-03-29T10:40:48Z</time></trkpt><trkpt lat="45.32645488972661" lon="9.07781910277792"><ele>99.0</ele><time>2026-03-29T10:40:49Z</time></trkpt><trkpt lat="45.326615627745724" lon="9.077704915805217"><ele>99.2</ele><time>2026-03-29T10:40:51Z</time></trkpt><trkpt lat="45.32670267506786" lon="9.077631734881912"><ele>99.4</ele><time>2026-03-29T10:40:52Z</time></trkpt><trkpt lat="45.32679678167278" lon="9.0775522625368"><ele>99.6</ele><time>2026-03-29T10:40:53Z</time></trkpt><trkpt lat="45.32689101455004" lon="9.077510844930632"><ele>99.8</ele><time>2026-03-29T10:40:54Z</time></trkpt><trkpt lat="45.3269931409576" lon="9.077445229424665"><ele>100.0</ele><time>2026-03-29T10:40:55Z</time></trkpt><trkpt lat="45.327080014715094" lon="9.077362593734973"><ele>100.0</ele><time>2026-03-29T10:40:56Z</time></trkpt><trkpt lat="45.32719055251783" lon="9.077299205156914"><ele>100.0</ele><time>2026-03-29T10:40:57Z</time></trkpt><trkpt lat="45.32728988311009" lon="9.077231874631877"><ele>100.0</ele><time>2026-03-29T10:40:58Z</time></trkpt><trkpt lat="45.32740271606726" lon="9.077162841285809"><ele>100.0</ele><time>2026-03-29T10:40:59Z</time></trkpt><trkpt lat="45.32751584308697" lon="9.07712408131083"><ele>99.25</ele><time>2026-03-29T10:41:00Z</time></trkpt><trkpt lat="45.32762696948089" lon="9.077050422734388"><ele>98.5</ele><time>2026-03-29T10:41:01Z</time></trkpt><trkpt lat="45.32774196970629" lon="9.076997427355442"><ele>97.75</ele><time>2026-03-29T10:41:02Z</time></trkpt><trkpt lat="45.32786104984249" lon="9.076950879315019"><ele>97.0</ele><time>2026-03-29T10:41:03Z</time></trkpt><trkpt lat="45.32797979478051" lon="9.076908107241714"><ele>97.25</ele><time>2026-03-29T10:41:04Z</time></trkpt><trkpt lat="45.32810043199574" lon="9.076855540165406"><ele>97.5</ele><time>2026-03-29T10:41:05Z</time></trkpt><trkpt lat="45.32822428788237" lon="9.076797093041117"><ele>97.75</ele><time>2026-03-29T10:41:06Z</time></trkpt><trkpt lat="45.3283437460906" lon="9.076735975160151"><ele>98.0</ele><time>2026-03-29T10:41:07Z</time></trkpt><trkpt lat="45.32846546317623" lon="9.076670892839319"><ele>98.0</ele><time>2026-03-29T10:41:08Z</time></trkpt><trkpt lat="45.328588253134406" lon="9.076619368429165"><ele>98.0</ele><time>2026-03-29T10:41:09Z</time></trkpt><trkpt lat="45.32871245546926" lon="9.076559880635527"><ele>98.0</ele><time>2026-03-29T10:41:10Z</time></trkpt><trkpt lat="45.32884118581778" lon="9.076498674810965"><ele>98.0</ele><time>2026-03-29T10:41:11Z</time></trkpt><trkpt lat="45.32896922661387" lon="9.076437360535484"><ele>98.0</ele><time>2026-03-29T10:41:12Z</time></trkpt><trkpt lat="45.32909665898313" lon="9.076371617529798"><ele>98.0</ele><time>2026-03-29T10:41:13Z</time></trkpt><trkpt lat="45.32923019751979" lon="9.076303109541607"><ele>98.0</ele><time>2026-03-29T10:41:14Z</time></trkpt><trkpt lat="45.32937290265357" lon="9.076228151098118"><ele>98.0</ele><time>2026-03-29T10:41:15Z</time></trkpt><trkpt lat="45.32951533967624" lon="9.07615833684436"><ele>98.0</ele><time>2026-03-29T10:41:16Z</time></trkpt><trkpt lat="45.329664727273205" lon="9.076089672922723"><ele>98.0</ele><time>2026-03-29T10:41:17Z</time></trkpt><trkpt lat="45.32981666071733" lon="9.076015981486806"><ele>98.0</ele><time>2026-03-29T10:41:18Z</time></trkpt><trkpt lat="45.32997093316986" lon="9.075948376762534"><ele>98.0</ele><time>2026-03-29T10:41:19Z</time></trkpt><trkpt lat="45.330122724885825" lon="9.07588654118533"><ele>98.0</ele><time>2026-03-29T10:41:19.999Z</time></trkpt><trkpt lat="45.33027554567597" lon="9.075830988245349"><ele>98.0</ele><time>2026-03-29T10:41:20.999Z</time></trkpt><trkpt lat="45.33042582737975" lon="9.075771549494432"><ele>98.33333333333333</ele><time>2026-03-29T10:41:21.999Z</time></trkpt><trkpt lat="45.33057848360644" lon="9.075716568289849"><ele>98.66666666666666</ele><time>2026-03-29T10:41:22.999Z</time></trkpt><trkpt lat="45.33072957352791" lon="9.075669029439023"><ele>99.0</ele><time>2026-03-29T10:41:23.999Z</time></trkpt><trkpt lat="45.330882734889954" lon="9.07562620774513"><ele>99.0</ele><time>2026-03-29T10:41:24.999Z</time></trkpt><trkpt lat="45.331041527685954" lon="9.075592823727476"><ele>99.0</ele><time>2026-03-29T10:41:25.999Z</time></trkpt><trkpt lat="45.33119785851532" lon="9.075554612866823"><ele>99.0</ele><time>2026-03-29T10:41:26.999Z</time></trkpt><trkpt lat="45.33136000186191" lon="9.075515439306857"><ele>98.33333333333334</ele><time>2026-03-29T10:41:27.999Z</time></trkpt><trkpt lat="45.331528984021745" lon="9.075468691867156"><ele>97.66666666666667</ele><time>2026-03-29T10:41:28.999Z</time></trkpt><trkpt lat="45.33169688706603" lon="9.075430861183278"><ele>97.0</ele><time>2026-03-29T10:41:29.999Z</time></trkpt><trkpt lat="45.33185413896448" lon="9.075396977931934"><ele>97.0</ele><time>2026-03-29T10:41:30.999Z</time></trkpt><trkpt lat="45.332017802203325" lon="9.075365790100866"><ele>97.0</ele><time>2026-03-29T10:41:31.999Z</time></trkpt><trkpt lat="45.33218596148234" lon="9.075330239292125"><ele>97.0</ele><time>2026-03-29T10:41:32.999Z</time></trkpt><trkpt lat="45.332338664554634" lon="9.075291912557127"><ele>97.25</ele><time>2026-03-29T10:41:33.999Z</time></trkpt><trkpt lat="45.332480821111425" lon="9.075256552572522"><ele>97.5</ele><time>2026-03-29T10:41:34.999Z</time></trkpt><trkpt lat="45.332615749139435" lon="9.075218758802384"><ele>97.75</ele><time>2026-03-29T10:41:35.999Z</time></trkpt><trkpt lat="45.33273980817389" lon="9.075176020360706"><ele>98.0</ele><time>2026-03-29T10:41:36.999Z</time></trkpt><trkpt lat="45.33285529526596" lon="9.075133720043496"><ele>98.0</ele><time>2026-03-29T10:41:37.999Z</time></trkpt><trkpt lat="45.332961230386466" lon="9.075095062796853"><ele>98.0</ele><time>2026-03-29T10:41:38.999Z</time></trkpt><trkpt lat="45.33306381028193" lon="9.075060773726802"><ele>98.0</ele><time>2026-03-29T10:41:39.999Z</time></trkpt><trkpt lat="45.333157379978836" lon="9.075026539679996"><ele>98.0</ele><time>2026-03-29T10:41:40.999Z</time></trkpt><trkpt lat="45.3332380788797" lon="9.074993452425575"><ele>98.0</ele><time>2026-03-29T10:41:41.999Z</time></trkpt><trkpt lat="45.33331302826221" lon="9.074966255170374"><ele>98.33333333333333</ele><time>2026-03-29T10:41:42.999Z</time></trkpt><trkpt lat="45.33337921874528" lon="9.074945138366827"><ele>98.66666666666666</ele><time>2026-03-29T10:41:43.999Z</time></trkpt><trkpt lat="45.333496596812225" lon="9.07491916217258"><ele>99.0</ele><time>2026-03-29T10:41:45.999Z</time></trkpt><trkpt lat="45.33359075744504" lon="9.074905537495919"><ele>99.33333333333334</ele><time>2026-03-29T10:41:47.999Z</time></trkpt><trkpt lat="45.333652226179886" lon="9.074881412376431"><ele>99.66666666666667</ele><time>2026-03-29T10:41:57.999Z</time></trkpt><trkpt lat="45.333739080788185" lon="9.074818707560096"><ele>100.0</ele><time>2026-03-29T10:42:03.999Z</time></trkpt><trkpt lat="45.33371738971606" lon="9.07463347832475"><ele>100.5</ele><time>2026-03-29T10:42:04.999Z</time></trkpt><trkpt lat="45.33370354492608" lon="9.074495669134011"><ele>101.0</ele><time>2026-03-29T10:42:05.999Z</time></trkpt><trkpt lat="45.33368444469331" lon="9.07433386339341"><ele>101.5</ele><time>2026-03-29T10:42:06.999Z</time></trkpt><trkpt lat="45.33366078897223" lon="9.07414483362056"><ele>102.0</ele><time>2026-03-29T10:42:07.999Z</time></trkpt><trkpt lat="45.33363531501512" lon="9.073917656255375"><ele>102.0</ele><time>2026-03-29T10:42:08.999Z</time></trkpt><trkpt lat="45.33361413659229" lon="9.073681647755384"><ele>102.0</ele><time>2026-03-29T10:42:09.999Z</time></trkpt><trkpt lat="45.33358938335978" lon="9.073443326422314"><ele>102.0</ele><time>2026-03-29T10:42:10.999Z</time></trkpt><trkpt lat="45.333563126517355" lon="9.073197797176606"><ele>101.0</ele><time>2026-03-29T10:42:11.999Z</time></trkpt><trkpt lat="45.33353931703016" lon="9.072943203892818"><ele>100.0</ele><time>2026-03-29T10:42:12.999Z</time></trkpt><trkpt lat="45.33351302848512" lon="9.07267549799871"><ele>99.0</ele><time>2026-03-29T10:42:13.999Z</time></trkpt><trkpt lat="45.333489537818465" lon="9.072438254421744"><ele>99.0</ele><time>2026-03-29T10:42:14.999Z</time></trkpt><trkpt lat="45.333468046207074" lon="9.072192258456152"><ele>99.0</ele><time>2026-03-29T10:42:15.999Z</time></trkpt><trkpt lat="45.333437399048194" lon="9.071941447750456"><ele>99.0</ele><time>2026-03-29T10:42:16.999Z</time></trkpt><trkpt lat="45.333413873546704" lon="9.071703275589494"><ele>98.66666666666666</ele><time>2026-03-29T10:42:18Z</time></trkpt><trkpt lat="45.33338918606869" lon="9.071463106894319"><ele>98.33333333333333</ele><time>2026-03-29T10:42:19Z</time></trkpt><trkpt lat="45.33336841451974" lon="9.071236807687571"><ele>98.0</ele><time>2026-03-29T10:42:20Z</time></trkpt><trkpt lat="45.33334478214879" lon="9.071005107937518"><ele>98.0</ele><time>2026-03-29T10:42:21Z</time></trkpt><trkpt lat="45.333318259806845" lon="9.070780733517104"><ele>98.0</ele><time>2026-03-29T10:42:22Z</time></trkpt><trkpt lat="45.33329109103725" lon="9.070539252614601"><ele>98.0</ele><time>2026-03-29T10:42:23Z</time></trkpt><trkpt lat="45.33326610328634" lon="9.07029903278429"><ele>98.0</ele><time>2026-03-29T10:42:24Z</time></trkpt><trkpt lat="45.333243954412495" lon="9.070053049888628"><ele>98.0</ele><time>2026-03-29T10:42:25Z</time></trkpt><trkpt lat="45.333220480307325" lon="9.069795496510105"><ele>98.0</ele><time>2026-03-29T10:42:26Z</time></trkpt><trkpt lat="45.33319937962176" lon="9.069540343086972"><ele>98.0</ele><time>2026-03-29T10:42:27Z</time></trkpt><trkpt lat="45.33317646917969" lon="9.069291464848295"><ele>98.0</ele><time>2026-03-29T10:42:28Z</time></trkpt><trkpt lat="45.333148189451094" lon="9.069037386648265"><ele>98.0</ele><time>2026-03-29T10:42:29Z</time></trkpt><trkpt lat="45.33312793208825" lon="9.068781544141927"><ele>97.66666666666666</ele><time>2026-03-29T10:42:30Z</time></trkpt><trkpt lat="45.33311181190329" lon="9.068534298971057"><ele>97.33333333333334</ele><time>2026-03-29T10:42:31Z</time></trkpt><trkpt lat="45.33310103482357" lon="9.068293183158827"><ele>97.0</ele><time>2026-03-29T10:42:32Z</time></trkpt><trkpt lat="45.33309004787152" lon="9.06804410179178"><ele>97.0</ele><time>2026-03-29T10:42:33Z</time></trkpt><trkpt lat="45.333085657873795" lon="9.067800893775711"><ele>97.0</ele><time>2026-03-29T10:42:34Z</time></trkpt><trkpt lat="45.33308362544242" lon="9.067550835656037"><ele>97.0</ele><time>2026-03-29T10:42:35Z</time></trkpt><trkpt lat="45.333081009048584" lon="9.067326007527202"><ele>97.33333333333334</ele><time>2026-03-29T10:42:36Z</time></trkpt><trkpt lat="45.33307401831214" lon="9.067101428024216"><ele>97.66666666666666</ele><time>2026-03-29T10:42:37Z</time></trkpt><trkpt lat="45.33307110437992" lon="9.06686972860902"><ele>98.0</ele><time>2026-03-29T10:42:38Z</time></trkpt><trkpt lat="45.33306967173706" lon="9.06663806071029"><ele>98.33333333333333</ele><time>2026-03-29T10:42:39Z</time></trkpt><trkpt lat="45.33306889063716" lon="9.066401331887503"><ele>98.66666666666666</ele><time>2026-03-29T10:42:40Z</time></trkpt><trkpt lat="45.33306448714702" lon="9.066150657385323"><ele>99.0</ele><time>2026-03-29T10:42:41Z</time></trkpt><trkpt lat="45.333059284908714" lon="9.065885224548296"><ele>99.33333333333334</ele><time>2026-03-29T10:42:42Z</time></trkpt><trkpt lat="45.333056822786425" lon="9.065623999824364"><ele>99.66666666666667</ele><time>2026-03-29T10:42:43Z</time></trkpt><trkpt lat="45.333051656376924" lon="9.065364378646317"><ele>100.0</ele><time>2026-03-29T10:42:44Z</time></trkpt><trkpt lat="45.33304658468979" lon="9.065113707177044"><ele>100.33333333333334</ele><time>2026-03-29T10:42:45Z</time></trkpt><trkpt lat="45.33304287802363" lon="9.064863461141758"><ele>100.66666666666666</ele><time>2026-03-29T10:42:46Z</time></trkpt><trkpt lat="45.33304328416014" lon="9.064615605794568"><ele>101.0</ele><time>2026-03-29T10:42:47Z</time></trkpt><trkpt lat="45.333038760142834" lon="9.064369010478634"><ele>101.0</ele><time>2026-03-29T10:42:48Z</time></trkpt><trkpt lat="45.333034651882066" lon="9.064121402611748"><ele>101.0</ele><time>2026-03-29T10:42:49Z</time></trkpt><trkpt lat="45.333032181362015" lon="9.063874544466067"><ele>101.0</ele><time>2026-03-29T10:42:50Z</time></trkpt><trkpt lat="45.33302734793132" lon="9.063625640573651"><ele>101.0</ele><time>2026-03-29T10:42:51Z</time></trkpt><trkpt lat="45.33302424339422" lon="9.06337302544283"><ele>101.0</ele><time>2026-03-29T10:42:52Z</time></trkpt><trkpt lat="45.33301772398278" lon="9.063118726088224"><ele>101.0</ele><time>2026-03-29T10:42:53Z</time></trkpt><trkpt lat="45.33300286681371" lon="9.062864067328533"><ele>101.0</ele><time>2026-03-29T10:42:54Z</time></trkpt><trkpt lat="45.33296414537211" lon="9.062606414563916"><ele>101.0</ele><time>2026-03-29T10:42:55Z</time></trkpt><trkpt lat="45.332918436609425" lon="9.062352662723088"><ele>101.0</ele><time>2026-03-29T10:42:56Z</time></trkpt><trkpt lat="45.33286893335147" lon="9.062103291845926"><ele>100.66666666666666</ele><time>2026-03-29T10:42:57Z</time></trkpt><trkpt lat="45.33282622574502" lon="9.061855334537425"><ele>100.33333333333334</ele><time>2026-03-29T10:42:58Z</time></trkpt><trkpt lat="45.33278361071699" lon="9.061608078848048"><ele>100.0</ele><time>2026-03-29T10:42:59Z</time></trkpt><trkpt lat="45.33273860482601" lon="9.06135821183635"><ele>100.0</ele><time>2026-03-29T10:43:00Z</time></trkpt><trkpt lat="45.33269305893259" lon="9.061106537790472"><ele>100.0</ele><time>2026-03-29T10:43:01Z</time></trkpt><trkpt lat="45.332651399077" lon="9.060857223772304"><ele>100.0</ele><time>2026-03-29T10:43:02Z</time></trkpt><trkpt lat="45.33261661237094" lon="9.060624094976664"><ele>100.0</ele><time>2026-03-29T10:43:03Z</time></trkpt><trkpt lat="45.33257837716005" lon="9.060378541487292"><ele>100.0</ele><time>2026-03-29T10:43:04Z</time></trkpt><trkpt lat="45.33254279621296" lon="9.060134059048004"><ele>100.0</ele><time>2026-03-29T10:43:05Z</time></trkpt><trkpt lat="45.33250841895338" lon="9.059886839171448"><ele>99.66666666666667</ele><time>2026-03-29T10:43:06Z</time></trkpt><trkpt lat="45.33247359329384" lon="9.059644821170828"><ele>99.33333333333334</ele><time>2026-03-29T10:43:07Z</time></trkpt><trkpt lat="45.33244552101678" lon="9.059427307836758"><ele>99.0</ele><time>2026-03-29T10:43:08Z</time></trkpt><trkpt lat="45.33241923585947" lon="9.059206407936411"><ele>98.66666666666666</ele><time>2026-03-29T10:43:09Z</time></trkpt><trkpt lat="45.332389490400416" lon="9.058983585863476"><ele>98.33333333333333</ele><time>2026-03-29T10:43:10Z</time></trkpt><trkpt lat="45.33236032989512" lon="9.058762609260615"><ele>98.0</ele><time>2026-03-29T10:43:11Z</time></trkpt><trkpt lat="45.33232462200101" lon="9.058536383940941"><ele>98.0</ele><time>2026-03-29T10:43:12Z</time></trkpt><trkpt lat="45.332280915186004" lon="9.058310006703596"><ele>98.0</ele><time>2026-03-29T10:43:13Z</time></trkpt><trkpt lat="45.332225733043096" lon="9.0580953912848"><ele>98.0</ele><time>2026-03-29T10:43:14Z</time></trkpt><trkpt lat="45.332152861640346" lon="9.05791115192222"><ele>98.0</ele><time>2026-03-29T10:43:15Z</time></trkpt><trkpt lat="45.33206905332619" lon="9.0577333822772"><ele>98.0</ele><time>2026-03-29T10:43:16Z</time></trkpt><trkpt lat="45.331992959506906" lon="9.05755803053061"><ele>98.0</ele><time>2026-03-29T10:43:17Z</time></trkpt><trkpt lat="45.33192399184676" lon="9.057361119916148"><ele>98.66666666666666</ele><time>2026-03-29T10:43:18Z</time></trkpt><trkpt lat="45.331877478812316" lon="9.057145662297946"><ele>99.33333333333334</ele><time>2026-03-29T10:43:19Z</time></trkpt><trkpt lat="45.33185471900291" lon="9.056916561897268"><ele>100.0</ele><time>2026-03-29T10:43:20Z</time></trkpt><trkpt lat="45.33185915838973" lon="9.05669898291709"><ele>101.33333333333334</ele><time>2026-03-29T10:43:21Z</time></trkpt><trkpt lat="45.33185656654298" lon="9.056475517121665"><ele>102.66666666666666</ele><time>2026-03-29T10:43:22Z</time></trkpt><trkpt lat="45.331849843842846" lon="9.05624226947402"><ele>104.0</ele><time>2026-03-29T10:43:23Z</time></trkpt><trkpt lat="45.331844676293905" lon="9.05599649853475"><ele>104.0</ele><time>2026-03-29T10:43:24Z</time></trkpt><trkpt lat="45.33184055476846" lon="9.055774058337347"><ele>104.0</ele><time>2026-03-29T10:43:25Z</time></trkpt><trkpt lat="45.33182997214554" lon="9.055561163090331"><ele>104.0</ele><time>2026-03-29T10:43:25.999Z</time></trkpt><trkpt lat="45.33182242414367" lon="9.055348707704312"><ele>104.0</ele><time>2026-03-29T10:43:26.999Z</time></trkpt><trkpt lat="45.33182089503094" lon="9.055138171480028"><ele>104.0</ele><time>2026-03-29T10:43:27.999Z</time></trkpt><trkpt lat="45.33181992457824" lon="9.054945205661332"><ele>104.0</ele><time>2026-03-29T10:43:28.999Z</time></trkpt><trkpt lat="45.33181706362406" lon="9.05477026764097"><ele>104.0</ele><time>2026-03-29T10:43:29.999Z</time></trkpt><trkpt lat="45.33180936399482" lon="9.05458177994128"><ele>103.0</ele><time>2026-03-29T10:43:30.999Z</time></trkpt><trkpt lat="45.33178416572829" lon="9.0543877136115"><ele>102.0</ele><time>2026-03-29T10:43:31.999Z</time></trkpt><trkpt lat="45.33173810174017" lon="9.054179323353873"><ele>101.0</ele><time>2026-03-29T10:43:32.999Z</time></trkpt><trkpt lat="45.33167248882005" lon="9.053974966002874"><ele>101.0</ele><time>2026-03-29T10:43:33.999Z</time></trkpt><trkpt lat="45.3316074873157" lon="9.053787423899339"><ele>101.0</ele><time>2026-03-29T10:43:34.999Z</time></trkpt><trkpt lat="45.33154693620479" lon="9.05359239729684"><ele>101.0</ele><time>2026-03-29T10:43:35.999Z</time></trkpt><trkpt lat="45.331487498119486" lon="9.05340262769059"><ele>101.0</ele><time>2026-03-29T10:43:36.999Z</time></trkpt><trkpt lat="45.331421386707" lon="9.053201924812068"><ele>101.0</ele><time>2026-03-29T10:43:37.999Z</time></trkpt><trkpt lat="45.33136448613839" lon="9.053020486609089"><ele>101.0</ele><time>2026-03-29T10:43:38.999Z</time></trkpt><trkpt lat="45.3313125393302" lon="9.052855298638342"><ele>101.0</ele><time>2026-03-29T10:43:39.999Z</time></trkpt><trkpt lat="45.33126856662377" lon="9.052693161860581"><ele>101.0</ele><time>2026-03-29T10:43:40.999Z</time></trkpt><trkpt lat="45.331245420018604" lon="9.052527573863015"><ele>101.19999999999999</ele><time>2026-03-29T10:43:41.999Z</time></trkpt><trkpt lat="45.33122994219451" lon="9.052373525706047"><ele>101.39999999999999</ele><time>2026-03-29T10:43:42.999Z</time></trkpt><trkpt lat="45.331228307020375" lon="9.052226731683126"><ele>101.6</ele><time>2026-03-29T10:43:43.999Z</time></trkpt><trkpt lat="45.331238484863235" lon="9.052083300632818"><ele>101.8</ele><time>2026-03-29T10:43:44.999Z</time></trkpt><trkpt lat="45.331250360993025" lon="9.051940201614883"><ele>102.0</ele><time>2026-03-29T10:43:45.999Z</time></trkpt><trkpt lat="45.33126132933181" lon="9.051804279343491"><ele>102.0</ele><time>2026-03-29T10:43:46.999Z</time></trkpt><trkpt lat="45.331273702901335" lon="9.051665096540168"><ele>102.0</ele><time>2026-03-29T10:43:47.999Z</time></trkpt><trkpt lat="45.33129211486338" lon="9.051531995324313"><ele>102.0</ele><time>2026-03-29T10:43:48.999Z</time></trkpt><trkpt lat="45.331291127462485" lon="9.051402350172195"><ele>102.0</ele><time>2026-03-29T10:43:49.999Z</time></trkpt><trkpt lat="45.33135877998373" lon="9.051289627193587"><ele>102.0</ele><time>2026-03-29T10:43:50.999Z</time></trkpt><trkpt lat="45.33140114248967" lon="9.05117678314217"><ele>102.0</ele><time>2026-03-29T10:43:51.999Z</time></trkpt><trkpt lat="45.33144945892006" lon="9.051062114328992"><ele>102.0</ele><time>2026-03-29T10:43:52.999Z</time></trkpt><trkpt lat="45.33150174784807" lon="9.050943993169103"><ele>102.0</ele><time>2026-03-29T10:43:53.999Z</time></trkpt><trkpt lat="45.331558365425636" lon="9.050828332123737"><ele>102.0</ele><time>2026-03-29T10:43:54.999Z</time></trkpt><trkpt lat="45.33161741861584" lon="9.050703083152742"><ele>102.0</ele><time>2026-03-29T10:43:55.999Z</time></trkpt><trkpt lat="45.33168315857504" lon="9.050580538313024"><ele>102.0</ele><time>2026-03-29T10:43:56.999Z</time></trkpt><trkpt lat="45.331744766806885" lon="9.050453406425925"><ele>102.0</ele><time>2026-03-29T10:43:57.999Z</time></trkpt><trkpt lat="45.331799564448445" lon="9.050327475271855"><ele>102.0</ele><time>2026-03-29T10:43:58.999Z</time></trkpt><trkpt lat="45.33185643540761" lon="9.050204436845286"><ele>102.0</ele><time>2026-03-29T10:43:59.999Z</time></trkpt><trkpt lat="45.33191433447461" lon="9.05008393140972"><ele>102.0</ele><time>2026-03-29T10:44:00.999Z</time></trkpt><trkpt lat="45.33197119633731" lon="9.049964495861062"><ele>101.8</ele><time>2026-03-29T10:44:01.999Z</time></trkpt><trkpt lat="45.33202506550931" lon="9.049850971010482"><ele>101.6</ele><time>2026-03-29T10:44:02.999Z</time></trkpt><trkpt lat="45.3320824382695" lon="9.04973635954136"><ele>101.39999999999999</ele><time>2026-03-29T10:44:03.999Z</time></trkpt><trkpt lat="45.33214302687649" lon="9.04962168238488"><ele>101.19999999999999</ele><time>2026-03-29T10:44:04.999Z</time></trkpt><trkpt lat="45.332206945970455" lon="9.049501346941456"><ele>101.0</ele><time>2026-03-29T10:44:05.999Z</time></trkpt><trkpt lat="45.33228310500695" lon="9.049390085554412"><ele>101.0</ele><time>2026-03-29T10:44:06.999Z</time></trkpt><trkpt lat="45.332366917042066" lon="9.049277050011522"><ele>101.0</ele><time>2026-03-29T10:44:07.999Z</time></trkpt><trkpt lat="45.33245477758364" lon="9.049162817562152"><ele>101.0</ele><time>2026-03-29T10:44:08.999Z</time></trkpt><trkpt lat="45.33253298181859" lon="9.049046749796306"><ele>101.0</ele><time>2026-03-29T10:44:09.999Z</time></trkpt><trkpt lat="45.332612135814344" lon="9.048928171994026"><ele>101.0</ele><time>2026-03-29T10:44:10.999Z</time></trkpt><trkpt lat="45.33270075865811" lon="9.048831272064653"><ele>101.0</ele><time>2026-03-29T10:44:11.999Z</time></trkpt><trkpt lat="45.33279679730912" lon="9.048738548562337"><ele>101.0</ele><time>2026-03-29T10:44:12.999Z</time></trkpt><trkpt lat="45.33288922870483" lon="9.048665857182858"><ele>101.0</ele><time>2026-03-29T10:44:13.999Z</time></trkpt><trkpt lat="45.332967471785864" lon="9.048608420835855"><ele>101.0</ele><time>2026-03-29T10:44:14.999Z</time></trkpt><trkpt lat="45.33302917934282" lon="9.04856175772622"><ele>101.4</ele><time>2026-03-29T10:44:15.999Z</time></trkpt><trkpt lat="45.33310038367966" lon="9.048520025286159"><ele>101.8</ele><time>2026-03-29T10:44:17.999Z</time></trkpt><trkpt lat="45.33324925846812" lon="9.048454045736525"><ele>102.2</ele><time>2026-03-29T10:45:13Z</time></trkpt><trkpt lat="45.33336175521267" lon="9.04838795743216"><ele>102.60000000000001</ele><time>2026-03-29T10:45:15Z</time></trkpt><trkpt lat="45.33343836692593" lon="9.0483515456451"><ele>103.0</ele><time>2026-03-29T10:45:16Z</time></trkpt><trkpt lat="45.33353303032051" lon="9.048300894461493"><ele>103.2</ele><time>2026-03-29T10:45:17Z</time></trkpt><trkpt lat="45.333618425006726" lon="9.048279091527801"><ele>103.4</ele><time>2026-03-29T10:45:18Z</time></trkpt><trkpt lat="45.333743383851875" lon="9.048241630271379"><ele>103.60000000000001</ele><time>2026-03-29T10:45:19Z</time></trkpt><trkpt lat="45.333841780017465" lon="9.04817790997316"><ele>103.80000000000001</ele><time>2026-03-29T10:45:20Z</time></trkpt><trkpt lat="45.33395636476851" lon="9.04811949463266"><ele>104.0</ele><time>2026-03-29T10:45:21Z</time></trkpt><trkpt lat="45.33405336050029" lon="9.048060801061714"><ele>103.25</ele><time>2026-03-29T10:45:22Z</time></trkpt><trkpt lat="45.33418678838249" lon="9.047993788313592"><ele>102.5</ele><time>2026-03-29T10:45:23Z</time></trkpt><trkpt lat="45.3343156198989" lon="9.047924911278212"><ele>101.75</ele><time>2026-03-29T10:45:24Z</time></trkpt><trkpt lat="45.33445223880707" lon="9.047849449377583"><ele>101.0</ele><time>2026-03-29T10:45:25Z</time></trkpt><trkpt lat="45.334577419643836" lon="9.04777541957767"><ele>101.0</ele><time>2026-03-29T10:45:26Z</time></trkpt><trkpt lat="45.3347127531405" lon="9.04770495779171"><ele>101.0</ele><time>2026-03-29T10:45:27Z</time></trkpt><trkpt lat="45.334856245139825" lon="9.047633553941258"><ele>101.0</ele><time>2026-03-29T10:45:28Z</time></trkpt><trkpt lat="45.335002342756255" lon="9.047561712669697"><ele>101.0</ele><time>2026-03-29T10:45:29Z</time></trkpt><trkpt lat="45.33515957780457" lon="9.047483072961796"><ele>101.0</ele><time>2026-03-29T10:45:29.999Z</time></trkpt><trkpt lat="45.335323536886094" lon="9.047396490560521"><ele>101.0</ele><time>2026-03-29T10:45:30.999Z</time></trkpt><trkpt lat="45.33549350403945" lon="9.047309995738983"><ele>101.0</ele><time>2026-03-29T10:45:31.999Z</time></trkpt><trkpt lat="45.33565961749084" lon="9.047218042884577"><ele>101.0</ele><time>2026-03-29T10:45:32.999Z</time></trkpt><trkpt lat="45.33583362097675" lon="9.047123594551177"><ele>101.0</ele><time>2026-03-29T10:45:33.999Z</time></trkpt><trkpt lat="45.33601744552083" lon="9.047034727093656"><ele>101.0</ele><time>2026-03-29T10:45:34.999Z</time></trkpt><trkpt lat="45.336203490066886" lon="9.046937072432009"><ele>101.0</ele><time>2026-03-29T10:45:35.999Z</time></trkpt><trkpt lat="45.336384491670565" lon="9.046834861032833"><ele>101.0</ele><time>2026-03-29T10:45:36.999Z</time></trkpt><trkpt lat="45.33656904873609" lon="9.046737377158028"><ele>101.0</ele><time>2026-03-29T10:45:37.999Z</time></trkpt><trkpt lat="45.33675228507858" lon="9.046645147090514"><ele>101.0</ele><time>2026-03-29T10:45:38.999Z</time></trkpt><trkpt lat="45.33693251017897" lon="9.04655766061799"><ele>101.0</ele><time>2026-03-29T10:45:39.999Z</time></trkpt><trkpt lat="45.33711175066041" lon="9.046462548165943"><ele>100.33333333333333</ele><time>2026-03-29T10:45:40.999Z</time></trkpt><trkpt lat="45.33729747980433" lon="9.046369308338909"><ele>99.66666666666666</ele><time>2026-03-29T10:45:41.999Z</time></trkpt><trkpt lat="45.33748234116871" lon="9.04627099598995"><ele>99.0</ele><time>2026-03-29T10:45:42.999Z</time></trkpt><trkpt lat="45.3376626316215" lon="9.046156492586833"><ele>99.0</ele><time>2026-03-29T10:45:43.999Z</time></trkpt><trkpt lat="45.33784541003957" lon="9.046012576285028"><ele>99.0</ele><time>2026-03-29T10:45:44.999Z</time></trkpt><trkpt lat="45.338017271623386" lon="9.0458395654956"><ele>99.0</ele><time>2026-03-29T10:45:45.999Z</time></trkpt><trkpt lat="45.33818261334604" lon="9.04563771029139"><ele>101.0</ele><time>2026-03-29T10:45:46.999Z</time></trkpt><trkpt lat="45.33834677172083" lon="9.045417166860078"><ele>103.0</ele><time>2026-03-29T10:45:47.999Z</time></trkpt><trkpt lat="45.33850593552427" lon="9.045189648937"><ele>102.5</ele><time>2026-03-29T10:45:48.999Z</time></trkpt><trkpt lat="45.33867027089088" lon="9.044957129818792"><ele>102.0</ele><time>2026-03-29T10:45:49.999Z</time></trkpt><trkpt lat="45.33883501384442" lon="9.044717199624113"><ele>102.0</ele><time>2026-03-29T10:45:50.999Z</time></trkpt><trkpt lat="45.339003878151274" lon="9.044480604552248"><ele>102.0</ele><time>2026-03-29T10:45:51.999Z</time></trkpt><trkpt lat="45.3391714067444" lon="9.044249760216106"><ele>102.5</ele><time>2026-03-29T10:45:52.999Z</time></trkpt><trkpt lat="45.33933889102646" lon="9.044011095248774"><ele>103.0</ele><time>2026-03-29T10:45:53.999Z</time></trkpt><trkpt lat="45.339509260577515" lon="9.04376995382545"><ele>103.0</ele><time>2026-03-29T10:45:54.999Z</time></trkpt><trkpt lat="45.339679681491944" lon="9.043531046338474"><ele>103.0</ele><time>2026-03-29T10:45:55.999Z</time></trkpt><trkpt lat="45.33984857153172" lon="9.043293853551488"><ele>102.0</ele><time>2026-03-29T10:45:56.999Z</time></trkpt><trkpt lat="45.34001787090148" lon="9.043057780959405"><ele>101.0</ele><time>2026-03-29T10:45:57.999Z</time></trkpt><trkpt lat="45.34018485998315" lon="9.042820635661402"><ele>101.0</ele><time>2026-03-29T10:45:58.999Z</time></trkpt><trkpt lat="45.34035380922463" lon="9.042578494779175"><ele>101.0</ele><time>2026-03-29T10:45:59.999Z</time></trkpt><trkpt lat="45.34052281295677" lon="9.042338928941845"><ele>102.0</ele><time>2026-03-29T10:46:00.999Z</time></trkpt><trkpt lat="45.34069538807899" lon="9.042099511608244"><ele>103.0</ele><time>2026-03-29T10:46:01.999Z</time></trkpt><trkpt lat="45.34086816544858" lon="9.04185721083184"><ele>102.5</ele><time>2026-03-29T10:46:02.999Z</time></trkpt><trkpt lat="45.341047377978306" lon="9.041608651218224"><ele>102.0</ele><time>2026-03-29T10:46:03.999Z</time></trkpt><trkpt lat="45.34122850172953" lon="9.041350627536753"><ele>102.5</ele><time>2026-03-29T10:46:04.999Z</time></trkpt><trkpt lat="45.34141513883911" lon="9.041089200808917"><ele>103.0</ele><time>2026-03-29T10:46:05.999Z</time></trkpt><trkpt lat="45.34160237362267" lon="9.040825667415232"><ele>103.0</ele><time>2026-03-29T10:46:06.999Z</time></trkpt><trkpt lat="45.341787355297136" lon="9.040552325966475"><ele>103.0</ele><time>2026-03-29T10:46:07.999Z</time></trkpt><trkpt lat="45.34197474047583" lon="9.040284983601905"><ele>103.0</ele><time>2026-03-29T10:46:08.999Z</time></trkpt><trkpt lat="45.3421673028959" lon="9.040022231586024"><ele>103.0</ele><time>2026-03-29T10:46:09.999Z</time></trkpt><trkpt lat="45.342354577647846" lon="9.039755402284502"><ele>102.5</ele><time>2026-03-29T10:46:10.999Z</time></trkpt><trkpt lat="45.34253411320348" lon="9.039495999640536"><ele>102.0</ele><time>2026-03-29T10:46:11.999Z</time></trkpt><trkpt lat="45.3427155886541" lon="9.039241828371848"><ele>102.0</ele><time>2026-03-29T10:46:12.999Z</time></trkpt><trkpt lat="45.3428938994107" lon="9.038994814103928"><ele>102.0</ele><time>2026-03-29T10:46:13.999Z</time></trkpt><trkpt lat="45.34306069846316" lon="9.038763597681118"><ele>102.0</ele><time>2026-03-29T10:46:14.999Z</time></trkpt><trkpt lat="45.343215557402175" lon="9.038539954053748"><ele>102.0</ele><time>2026-03-29T10:46:15.999Z</time></trkpt><trkpt lat="45.34337047762564" lon="9.038319195133422"><ele>102.0</ele><time>2026-03-29T10:46:16.999Z</time></trkpt><trkpt lat="45.343527393561985" lon="9.038098640388874"><ele>102.0</ele><time>2026-03-29T10:46:17.999Z</time></trkpt><trkpt lat="45.34368772898698" lon="9.037871095106349"><ele>102.0</ele><time>2026-03-29T10:46:18.999Z</time></trkpt><trkpt lat="45.343848313617244" lon="9.037648412761772"><ele>102.66666666666666</ele><time>2026-03-29T10:46:19.999Z</time></trkpt><trkpt lat="45.34401028741037" lon="9.037423213622073"><ele>103.33333333333333</ele><time>2026-03-29T10:46:20.999Z</time></trkpt><trkpt lat="45.344171269285496" lon="9.037207401158808"><ele>104.0</ele><time>2026-03-29T10:46:21.999Z</time></trkpt><trkpt lat="45.344326629006545" lon="9.036979952265698"><ele>104.0</ele><time>2026-03-29T10:46:22.999Z</time></trkpt><trkpt lat="45.34448083215182" lon="9.036750868179173"><ele>104.0</ele><time>2026-03-29T10:46:23.999Z</time></trkpt><trkpt lat="45.34464025628219" lon="9.036527965186316"><ele>104.0</ele><time>2026-03-29T10:46:24.999Z</time></trkpt><trkpt lat="45.3447975078716" lon="9.036304970104123"><ele>103.66666666666666</ele><time>2026-03-29T10:46:25.999Z</time></trkpt><trkpt lat="45.34495269214264" lon="9.03608347190811"><ele>103.33333333333334</ele><time>2026-03-29T10:46:26.999Z</time></trkpt><trkpt lat="45.34510825499795" lon="9.035864157820749"><ele>103.0</ele><time>2026-03-29T10:46:27.999Z</time></trkpt><trkpt lat="45.34526210058723" lon="9.035640420744116"><ele>103.0</ele><time>2026-03-29T10:46:28.999Z</time></trkpt><trkpt lat="45.34541664892883" lon="9.03541799466569"><ele>103.0</ele><time>2026-03-29T10:46:30Z</time></trkpt><trkpt lat="45.34557064010067" lon="9.035201088184861"><ele>103.0</ele><time>2026-03-29T10:46:31Z</time></trkpt><trkpt lat="45.34572068133436" lon="9.034989756600249"><ele>103.0</ele><time>2026-03-29T10:46:32Z</time></trkpt><trkpt lat="45.345854468428584" lon="9.034792522573564"><ele>103.0</ele><time>2026-03-29T10:46:33Z</time></trkpt><trkpt lat="45.34598927071725" lon="9.034604136408413"><ele>103.0</ele><time>2026-03-29T10:46:34Z</time></trkpt><trkpt lat="45.34612655942466" lon="9.034416605737329"><ele>103.0</ele><time>2026-03-29T10:46:35Z</time></trkpt><trkpt lat="45.3462655757332" lon="9.034224136062447"><ele>103.0</ele><time>2026-03-29T10:46:36Z</time></trkpt><trkpt lat="45.346405371110635" lon="9.034030717131891"><ele>103.0</ele><time>2026-03-29T10:46:37Z</time></trkpt><trkpt lat="45.34654935482764" lon="9.033833202487086"><ele>103.0</ele><time>2026-03-29T10:46:38Z</time></trkpt><trkpt lat="45.3466930211207" lon="9.033634275363926"><ele>103.0</ele><time>2026-03-29T10:46:39Z</time></trkpt><trkpt lat="45.34684047611" lon="9.033428035047649"><ele>103.0</ele><time>2026-03-29T10:46:40Z</time></trkpt><trkpt lat="45.34699100432106" lon="9.03322294805035"><ele>103.0</ele><time>2026-03-29T10:46:41Z</time></trkpt><trkpt lat="45.34714170878578" lon="9.033010105629042"><ele>103.0</ele><time>2026-03-29T10:46:42Z</time></trkpt><trkpt lat="45.34729459514443" lon="9.032797815771433"><ele>103.0</ele><time>2026-03-29T10:46:43Z</time></trkpt><trkpt lat="45.3474539028594" lon="9.032580077983189"><ele>103.33333333333334</ele><time>2026-03-29T10:46:44Z</time></trkpt><trkpt lat="45.34760755227046" lon="9.032361748761755"><ele>103.66666666666666</ele><time>2026-03-29T10:46:45Z</time></trkpt><trkpt lat="45.3477595327016" lon="9.032147503850352"><ele>104.0</ele><time>2026-03-29T10:46:46Z</time></trkpt><trkpt lat="45.34791129157815" lon="9.03193806384756"><ele>104.0</ele><time>2026-03-29T10:46:47Z</time></trkpt><trkpt lat="45.348063593603996" lon="9.031725070256156"><ele>104.0</ele><time>2026-03-29T10:46:48Z</time></trkpt><trkpt lat="45.34821257347086" lon="9.03151125276886"><ele>104.0</ele><time>2026-03-29T10:46:49Z</time></trkpt><trkpt lat="45.348359641545954" lon="9.031296614676128"><ele>104.0</ele><time>2026-03-29T10:46:50Z</time></trkpt><trkpt lat="45.34851040360007" lon="9.031088425542103"><ele>104.0</ele><time>2026-03-29T10:46:51Z</time></trkpt><trkpt lat="45.348659785489666" lon="9.030876626229412"><ele>104.0</ele><time>2026-03-29T10:46:52Z</time></trkpt><trkpt lat="45.34881239938572" lon="9.030669903860138"><ele>104.33333333333333</ele><time>2026-03-29T10:46:53Z</time></trkpt><trkpt lat="45.34896933189677" lon="9.030468265021888"><ele>104.66666666666666</ele><time>2026-03-29T10:46:54Z</time></trkpt><trkpt lat="45.34913540125997" lon="9.030281799609542"><ele>105.0</ele><time>2026-03-29T10:46:55Z</time></trkpt><trkpt lat="45.34930624119493" lon="9.030113459409954"><ele>104.66666666666666</ele><time>2026-03-29T10:46:56Z</time></trkpt><trkpt lat="45.349483841397856" lon="9.029956339537225"><ele>104.33333333333333</ele><time>2026-03-29T10:46:57Z</time></trkpt><trkpt lat="45.34966619247996" lon="9.02982779612953"><ele>104.0</ele><time>2026-03-29T10:46:58Z</time></trkpt><trkpt lat="45.3498559379628" lon="9.029712714931994"><ele>104.0</ele><time>2026-03-29T10:46:59Z</time></trkpt><trkpt lat="45.35005886099374" lon="9.029623427025037"><ele>104.0</ele><time>2026-03-29T10:47:00Z</time></trkpt><trkpt lat="45.350260179610814" lon="9.029558496326976"><ele>104.0</ele><time>2026-03-29T10:47:01Z</time></trkpt><trkpt lat="45.3504628000291" lon="9.02951078795499"><ele>104.33333333333333</ele><time>2026-03-29T10:47:02Z</time></trkpt><trkpt lat="45.350667984382596" lon="9.029489768068268"><ele>104.66666666666666</ele><time>2026-03-29T10:47:03Z</time></trkpt><trkpt lat="45.35087326526825" lon="9.029483692396273"><ele>105.0</ele><time>2026-03-29T10:47:04Z</time></trkpt><trkpt lat="45.35107856700477" lon="9.02948451318293"><ele>105.0</ele><time>2026-03-29T10:47:05Z</time></trkpt><trkpt lat="45.35128881944657" lon="9.029481782129333"><ele>105.0</ele><time>2026-03-29T10:47:06Z</time></trkpt><trkpt lat="45.3514958531427" lon="9.029480011854298"><ele>105.0</ele><time>2026-03-29T10:47:07Z</time></trkpt><trkpt lat="45.3516823825145" lon="9.029477850940287"><ele>105.0</ele><time>2026-03-29T10:47:08Z</time></trkpt><trkpt lat="45.35185461832915" lon="9.029478425914162"><ele>105.0</ele><time>2026-03-29T10:47:09Z</time></trkpt><trkpt lat="45.35202709505087" lon="9.029477615426106"><ele>105.0</ele><time>2026-03-29T10:47:10Z</time></trkpt><trkpt lat="45.352191744542644" lon="9.029477504872204"><ele>104.75</ele><time>2026-03-29T10:47:11Z</time></trkpt><trkpt lat="45.35234032452206" lon="9.029480284473157"><ele>104.5</ele><time>2026-03-29T10:47:12Z</time></trkpt><trkpt lat="45.352484711458565" lon="9.029481196095457"><ele>104.25</ele><time>2026-03-29T10:47:13Z</time></trkpt><trkpt lat="45.352614437218364" lon="9.0294825210375"><ele>104.0</ele><time>2026-03-29T10:47:14Z</time></trkpt><trkpt lat="45.35273037433856" lon="9.02949044466614"><ele>104.0</ele><time>2026-03-29T10:47:15Z</time></trkpt><trkpt lat="45.35283885191489" lon="9.029502613027676"><ele>104.0</ele><time>2026-03-29T10:47:16Z</time></trkpt><trkpt lat="45.35294359452044" lon="9.029533250265747"><ele>104.0</ele><time>2026-03-29T10:47:17Z</time></trkpt><trkpt lat="45.353041307535236" lon="9.029598753384903"><ele>104.0</ele><time>2026-03-29T10:47:18Z</time></trkpt><trkpt lat="45.3531302312653" lon="9.029704240412093"><ele>104.0</ele><time>2026-03-29T10:47:19Z</time></trkpt><trkpt lat="45.353219957379984" lon="9.02979357728776"><ele>105.0</ele><time>2026-03-29T10:47:20Z</time></trkpt><trkpt lat="45.35332145328521" lon="9.029827312143999"><ele>106.0</ele><time>2026-03-29T10:47:21Z</time></trkpt><trkpt lat="45.353429354911185" lon="9.029799043822724"><ele>107.0</ele><time>2026-03-29T10:47:22Z</time></trkpt><trkpt lat="45.35353088758062" lon="9.029713011451767"><ele>108.0</ele><time>2026-03-29T10:47:23Z</time></trkpt><trkpt lat="45.35361882285855" lon="9.029565200484605"><ele>108.0</ele><time>2026-03-29T10:47:24Z</time></trkpt><trkpt lat="45.353693988143014" lon="9.029393911577362"><ele>108.0</ele><time>2026-03-29T10:47:25Z</time></trkpt><trkpt lat="45.35380961284601" lon="9.029250712207439"><ele>108.0</ele><time>2026-03-29T10:47:26Z</time></trkpt><trkpt lat="45.35395968430361" lon="9.029135899048427"><ele>107.66666666666666</ele><time>2026-03-29T10:47:27Z</time></trkpt><trkpt lat="45.3541272610372" lon="9.02904881364709"><ele>107.33333333333333</ele><time>2026-03-29T10:47:27.999Z</time></trkpt><trkpt lat="45.35428894801824" lon="9.028967754532934"><ele>107.0</ele><time>2026-03-29T10:47:28.999Z</time></trkpt><trkpt lat="45.354442403436096" lon="9.028882974492562"><ele>107.0</ele><time>2026-03-29T10:47:29.999Z</time></trkpt><trkpt lat="45.354601422482624" lon="9.02879096686625"><ele>107.0</ele><time>2026-03-29T10:47:30.999Z</time></trkpt><trkpt lat="45.35475642707127" lon="9.028686349006808"><ele>107.0</ele><time>2026-03-29T10:47:31.999Z</time></trkpt><trkpt lat="45.354913379493084" lon="9.02856601186246"><ele>106.66666666666666</ele><time>2026-03-29T10:47:32.999Z</time></trkpt><trkpt lat="45.355067669450456" lon="9.028425892644593"><ele>106.33333333333334</ele><time>2026-03-29T10:47:33.999Z</time></trkpt><trkpt lat="45.35521510362618" lon="9.028268963817935"><ele>106.0</ele><time>2026-03-29T10:47:34.999Z</time></trkpt><trkpt lat="45.355354622861256" lon="9.02808992211761"><ele>106.0</ele><time>2026-03-29T10:47:35.999Z</time></trkpt><trkpt lat="45.35548860072943" lon="9.027892524254646"><ele>106.0</ele><time>2026-03-29T10:47:36.999Z</time></trkpt><trkpt lat="45.35560950016315" lon="9.027670888137548"><ele>106.0</ele><time>2026-03-29T10:47:37.999Z</time></trkpt><trkpt lat="45.355718879693505" lon="9.027433499341504"><ele>105.66666666666667</ele><time>2026-03-29T10:47:38.999Z</time></trkpt><trkpt lat="45.35580951474334" lon="9.02719425559497"><ele>105.33333333333334</ele><time>2026-03-29T10:47:39.999Z</time></trkpt><trkpt lat="45.35587881976282" lon="9.026965615092383"><ele>105.0</ele><time>2026-03-29T10:47:40.999Z</time></trkpt><trkpt lat="45.35593178546725" lon="9.026740113839637"><ele>105.0</ele><time>2026-03-29T10:47:41.999Z</time></trkpt><trkpt lat="45.35596865258242" lon="9.026526625881948"><ele>105.0</ele><time>2026-03-29T10:47:42.999Z</time></trkpt><trkpt lat="45.35599432651034" lon="9.026325515038332"><ele>105.0</ele><time>2026-03-29T10:47:43.999Z</time></trkpt><trkpt lat="45.35600543195393" lon="9.026141764279183"><ele>105.0</ele><time>2026-03-29T10:47:44.999Z</time></trkpt><trkpt lat="45.35600928394281" lon="9.025965034122994"><ele>104.8</ele><time>2026-03-29T10:47:45.999Z</time></trkpt><trkpt lat="45.356020332589246" lon="9.02580894760948"><ele>104.6</ele><time>2026-03-29T10:47:46.999Z</time></trkpt><trkpt lat="45.35603937522832" lon="9.025664014699434"><ele>104.4</ele><time>2026-03-29T10:47:47.999Z</time></trkpt><trkpt lat="45.35606167028951" lon="9.025526441370202"><ele>104.2</ele><time>2026-03-29T10:47:48.999Z</time></trkpt><trkpt lat="45.35610916358416" lon="9.025395977108483"><ele>104.0</ele><time>2026-03-29T10:47:49.999Z</time></trkpt><trkpt lat="45.356189856298506" lon="9.025293202840986"><ele>104.0</ele><time>2026-03-29T10:47:50.999Z</time></trkpt><trkpt lat="45.3562385942271" lon="9.025150015435647"><ele>104.0</ele><time>2026-03-29T10:47:51.999Z</time></trkpt><trkpt lat="45.356237305240434" lon="9.02497578076422"><ele>104.0</ele><time>2026-03-29T10:47:52.999Z</time></trkpt><trkpt lat="45.356193340138375" lon="9.024794107503496"><ele>104.0</ele><time>2026-03-29T10:47:53.999Z</time></trkpt><trkpt lat="45.356118377091505" lon="9.024612015593927"><ele>104.0</ele><time>2026-03-29T10:47:54.999Z</time></trkpt><trkpt lat="45.356057799085974" lon="9.024399355512724"><ele>104.0</ele><time>2026-03-29T10:47:55.999Z</time></trkpt><trkpt lat="45.356040108677355" lon="9.024142460370562"><ele>104.0</ele><time>2026-03-29T10:47:56.999Z</time></trkpt><trkpt lat="45.356048939161006" lon="9.0238954079977"><ele>104.0</ele><time>2026-03-29T10:47:57.999Z</time></trkpt><trkpt lat="45.35605632421044" lon="9.023645013737049"><ele>104.0</ele><time>2026-03-29T10:47:58.999Z</time></trkpt><trkpt lat="45.35605889927402" lon="9.023376399230628"><ele>104.0</ele><time>2026-03-29T10:47:59.999Z</time></trkpt><trkpt lat="45.356067283942785" lon="9.023101069174963"><ele>104.33333333333333</ele><time>2026-03-29T10:48:00.999Z</time></trkpt><trkpt lat="45.356073182695326" lon="9.02282297450716"><ele>104.66666666666666</ele><time>2026-03-29T10:48:01.999Z</time></trkpt><trkpt lat="45.3560784017504" lon="9.02254247617941"><ele>105.0</ele><time>2026-03-29T10:48:02.999Z</time></trkpt><trkpt lat="45.35608786493629" lon="9.022257353684298"><ele>105.0</ele><time>2026-03-29T10:48:03.999Z</time></trkpt><trkpt lat="45.356092825290965" lon="9.021958298840572"><ele>105.0</ele><time>2026-03-29T10:48:04.999Z</time></trkpt><trkpt lat="45.35609901390538" lon="9.021653946210272"><ele>105.0</ele><time>2026-03-29T10:48:05.999Z</time></trkpt><trkpt lat="45.356102462679246" lon="9.021337956877309"><ele>105.0</ele><time>2026-03-29T10:48:06.999Z</time></trkpt><trkpt lat="45.356102729658154" lon="9.021004905644018"><ele>105.0</ele><time>2026-03-29T10:48:07.999Z</time></trkpt><trkpt lat="45.356104576663014" lon="9.020655618430078"><ele>105.0</ele><time>2026-03-29T10:48:08.999Z</time></trkpt><trkpt lat="45.35610795368098" lon="9.020306060168913"><ele>105.0</ele><time>2026-03-29T10:48:09.999Z</time></trkpt><trkpt lat="45.35611161550693" lon="9.019952785928753"><ele>104.5</ele><time>2026-03-29T10:48:10.999Z</time></trkpt><trkpt lat="45.356117346072686" lon="9.01959037055726"><ele>104.0</ele><time>2026-03-29T10:48:11.999Z</time></trkpt><trkpt lat="45.356123169222265" lon="9.019221999334935"><ele>104.0</ele><time>2026-03-29T10:48:12.999Z</time></trkpt><trkpt lat="45.35612782605506" lon="9.01884574637018"><ele>104.0</ele><time>2026-03-29T10:48:13.999Z</time></trkpt><trkpt lat="45.35613502068356" lon="9.018455589729333"><ele>105.0</ele><time>2026-03-29T10:48:14.999Z</time></trkpt><trkpt lat="45.35614135225351" lon="9.018062727266921"><ele>106.0</ele><time>2026-03-29T10:48:15.999Z</time></trkpt><trkpt lat="45.35614947388959" lon="9.017680855447356"><ele>105.5</ele><time>2026-03-29T10:48:16.999Z</time></trkpt><trkpt lat="45.356151904954174" lon="9.01730883966758"><ele>105.0</ele><time>2026-03-29T10:48:17.999Z</time></trkpt><trkpt lat="45.35615484558548" lon="9.016949887549687"><ele>105.0</ele><time>2026-03-29T10:48:18.999Z</time></trkpt><trkpt lat="45.35615858324335" lon="9.016598176366612"><ele>105.0</ele><time>2026-03-29T10:48:19.999Z</time></trkpt><trkpt lat="45.35616186254051" lon="9.01624442367119"><ele>105.0</ele><time>2026-03-29T10:48:20.999Z</time></trkpt><trkpt lat="45.35616409766687" lon="9.01587861491341"><ele>105.0</ele><time>2026-03-29T10:48:21.999Z</time></trkpt><trkpt lat="45.35616632481674" lon="9.015498354050175"><ele>104.5</ele><time>2026-03-29T10:48:22.999Z</time></trkpt><trkpt lat="45.35617438871152" lon="9.015123180221133"><ele>104.0</ele><time>2026-03-29T10:48:23.999Z</time></trkpt><trkpt lat="45.35618218685628" lon="9.014754367916872"><ele>104.0</ele><time>2026-03-29T10:48:24.999Z</time></trkpt><trkpt lat="45.356187273100986" lon="9.014398482714457"><ele>104.0</ele><time>2026-03-29T10:48:25.999Z</time></trkpt><trkpt lat="45.356188517212836" lon="9.01406911827719"><ele>104.0</ele><time>2026-03-29T10:48:26.999Z</time></trkpt><trkpt lat="45.35619117651084" lon="9.013766766719595"><ele>104.0</ele><time>2026-03-29T10:48:27.999Z</time></trkpt><trkpt lat="45.356193839194134" lon="9.013483571073206"><ele>104.0</ele><time>2026-03-29T10:48:28.999Z</time></trkpt><trkpt lat="45.356199048550465" lon="9.013217580098916"><ele>104.0</ele><time>2026-03-29T10:48:29.999Z</time></trkpt><trkpt lat="45.356206559379025" lon="9.012973114887659"><ele>104.0</ele><time>2026-03-29T10:48:30.999Z</time></trkpt><trkpt lat="45.35621347818981" lon="9.012715150576899"><ele>104.0</ele><time>2026-03-29T10:48:31.999Z</time></trkpt><trkpt lat="45.35622053911273" lon="9.012458428329131"><ele>104.33333333333333</ele><time>2026-03-29T10:48:32.999Z</time></trkpt><trkpt lat="45.35622870822174" lon="9.012230612267492"><ele>104.66666666666666</ele><time>2026-03-29T10:48:33.999Z</time></trkpt><trkpt lat="45.356244182059946" lon="9.01201979172056"><ele>105.0</ele><time>2026-03-29T10:48:34.999Z</time></trkpt><trkpt lat="45.35626318050799" lon="9.011818268920488"><ele>105.0</ele><time>2026-03-29T10:48:36Z</time></trkpt><trkpt lat="45.3562834041773" lon="9.011637712583733"><ele>105.0</ele><time>2026-03-29T10:48:37Z</time></trkpt><trkpt lat="45.35630420882027" lon="9.011472992418676"><ele>105.0</ele><time>2026-03-29T10:48:38Z</time></trkpt><trkpt lat="45.35633171863884" lon="9.011322338245943"><ele>105.0</ele><time>2026-03-29T10:48:39Z</time></trkpt><trkpt lat="45.35636617110851" lon="9.011187107840728"><ele>104.5</ele><time>2026-03-29T10:48:40Z</time></trkpt><trkpt lat="45.356421087821005" lon="9.011055792063793"><ele>104.0</ele><time>2026-03-29T10:48:41Z</time></trkpt><trkpt lat="45.35649097488225" lon="9.01093672805954"><ele>103.5</ele><time>2026-03-29T10:48:42Z</time></trkpt><trkpt lat="45.356543220963374" lon="9.010793949852832"><ele>103.0</ele><time>2026-03-29T10:48:43Z</time></trkpt><trkpt lat="45.356563803287266" lon="9.010622738922136"><ele>103.0</ele><time>2026-03-29T10:48:44Z</time></trkpt><trkpt lat="45.3565687835168" lon="9.01041977587486"><ele>103.0</ele><time>2026-03-29T10:48:45Z</time></trkpt><trkpt lat="45.356609769565765" lon="9.010232749801899"><ele>103.0</ele><time>2026-03-29T10:48:46Z</time></trkpt><trkpt lat="45.3566723551455" lon="9.010062192927611"><ele>103.0</ele><time>2026-03-29T10:48:47Z</time></trkpt><trkpt lat="45.35674141792154" lon="9.009881929909744"><ele>103.5</ele><time>2026-03-29T10:48:48Z</time></trkpt><trkpt lat="45.35681475074936" lon="9.009697890688932"><ele>104.0</ele><time>2026-03-29T10:48:49Z</time></trkpt><trkpt lat="45.356896660315826" lon="9.009526480449795"><ele>104.5</ele><time>2026-03-29T10:48:50Z</time></trkpt><trkpt lat="45.35698086920582" lon="9.009348802344148"><ele>105.0</ele><time>2026-03-29T10:48:51Z</time></trkpt><trkpt lat="45.357069921240175" lon="9.009179976938762"><ele>105.0</ele><time>2026-03-29T10:48:52Z</time></trkpt><trkpt lat="45.35716232692482" lon="9.009020756020591"><ele>105.0</ele><time>2026-03-29T10:48:53Z</time></trkpt><trkpt lat="45.357255938300476" lon="9.008869214337782"><ele>105.0</ele><time>2026-03-29T10:48:54Z</time></trkpt><trkpt lat="45.35735624835467" lon="9.00872409004694"><ele>105.0</ele><time>2026-03-29T10:48:55Z</time></trkpt><trkpt lat="45.3574637075396" lon="9.008581946261447"><ele>105.25</ele><time>2026-03-29T10:48:56Z</time></trkpt><trkpt lat="45.35757412397594" lon="9.008444158995122"><ele>105.5</ele><time>2026-03-29T10:48:57Z</time></trkpt><trkpt lat="45.357688044042106" lon="9.008304716634916"><ele>105.75</ele><time>2026-03-29T10:48:58Z</time></trkpt><trkpt lat="45.35780899626287" lon="9.008173352501997"><ele>106.0</ele><time>2026-03-29T10:48:59Z</time></trkpt><trkpt lat="45.35793565447462" lon="9.008042667589102"><ele>105.33333333333334</ele><time>2026-03-29T10:49:00Z</time></trkpt><trkpt lat="45.35807087187078" lon="9.007915354269693"><ele>104.66666666666666</ele><time>2026-03-29T10:49:01Z</time></trkpt><trkpt lat="45.358207333713615" lon="9.00779069034862"><ele>104.0</ele><time>2026-03-29T10:49:02Z</time></trkpt><trkpt lat="45.35834208100188" lon="9.007663080897844"><ele>104.0</ele><time>2026-03-29T10:49:03Z</time></trkpt><trkpt lat="45.35847991022354" lon="9.007528083939345"><ele>104.0</ele><time>2026-03-29T10:49:04Z</time></trkpt><trkpt lat="45.35862289941056" lon="9.007396200109957"><ele>104.0</ele><time>2026-03-29T10:49:05Z</time></trkpt><trkpt lat="45.358762107012055" lon="9.007266341231086"><ele>104.66666666666666</ele><time>2026-03-29T10:49:06Z</time></trkpt><trkpt lat="45.35889677557384" lon="9.007137210627292"><ele>105.33333333333334</ele><time>2026-03-29T10:49:07Z</time></trkpt><trkpt lat="45.35903134899156" lon="9.007005843203945"><ele>106.0</ele><time>2026-03-29T10:49:08Z</time></trkpt><trkpt lat="45.35916583031123" lon="9.006879237319849"><ele>106.0</ele><time>2026-03-29T10:49:09Z</time></trkpt><trkpt lat="45.35930091337995" lon="9.006752738004648"><ele>106.0</ele><time>2026-03-29T10:49:10Z</time></trkpt><trkpt lat="45.359437688638366" lon="9.006628148400898"><ele>106.0</ele><time>2026-03-29T10:49:11Z</time></trkpt><trkpt lat="45.3595741718187" lon="9.006500724866957"><ele>106.0</ele><time>2026-03-29T10:49:12Z</time></trkpt><trkpt lat="45.359714480154715" lon="9.006370756358928"><ele>106.0</ele><time>2026-03-29T10:49:13Z</time></trkpt><trkpt lat="45.35984907089097" lon="9.006245553580916"><ele>106.0</ele><time>2026-03-29T10:49:14Z</time></trkpt><trkpt lat="45.359987956038864" lon="9.00612466044872"><ele>106.0</ele><time>2026-03-29T10:49:15Z</time></trkpt><trkpt lat="45.36012638918273" lon="9.006000087571037"><ele>106.0</ele><time>2026-03-29T10:49:16Z</time></trkpt><trkpt lat="45.36026348000004" lon="9.005876162796724"><ele>106.0</ele><time>2026-03-29T10:49:17Z</time></trkpt><trkpt lat="45.360402102235646" lon="9.00574145889556"><ele>105.66666666666667</ele><time>2026-03-29T10:49:18Z</time></trkpt><trkpt lat="45.36054156753834" lon="9.005617326403852"><ele>105.33333333333334</ele><time>2026-03-29T10:49:19Z</time></trkpt><trkpt lat="45.36067754820556" lon="9.005495691798611"><ele>105.0</ele><time>2026-03-29T10:49:20Z</time></trkpt><trkpt lat="45.36081437015005" lon="9.005378526446384"><ele>105.0</ele><time>2026-03-29T10:49:21Z</time></trkpt><trkpt lat="45.36095444804619" lon="9.005250698134594"><ele>105.0</ele><time>2026-03-29T10:49:22Z</time></trkpt><trkpt lat="45.36108741325571" lon="9.00511869253215"><ele>105.0</ele><time>2026-03-29T10:49:23Z</time></trkpt><trkpt lat="45.361229986455484" lon="9.004986930260701"><ele>105.0</ele><time>2026-03-29T10:49:24Z</time></trkpt><trkpt lat="45.36136573700065" lon="9.004859606099842"><ele>105.0</ele><time>2026-03-29T10:49:25Z</time></trkpt><trkpt lat="45.36150169474999" lon="9.004734794903614"><ele>105.0</ele><time>2026-03-29T10:49:26Z</time></trkpt><trkpt lat="45.361635403081266" lon="9.004606908980664"><ele>105.0</ele><time>2026-03-29T10:49:27Z</time></trkpt><trkpt lat="45.361770100390295" lon="9.004479396746547"><ele>105.0</ele><time>2026-03-29T10:49:28Z</time></trkpt><trkpt lat="45.36190418598793" lon="9.004352639731138"><ele>105.0</ele><time>2026-03-29T10:49:29Z</time></trkpt><trkpt lat="45.36204239527752" lon="9.004227302719325"><ele>105.33333333333334</ele><time>2026-03-29T10:49:30Z</time></trkpt><trkpt lat="45.36217500081483" lon="9.004099794288386"><ele>105.66666666666667</ele><time>2026-03-29T10:49:31Z</time></trkpt><trkpt lat="45.362300836043495" lon="9.003985613349682"><ele>106.0</ele><time>2026-03-29T10:49:32Z</time></trkpt><trkpt lat="45.362449493616836" lon="9.003844455017786"><ele>106.0</ele><time>2026-03-29T10:49:33Z</time></trkpt><trkpt lat="45.36258992678819" lon="9.003715715124352"><ele>106.0</ele><time>2026-03-29T10:49:34Z</time></trkpt><trkpt lat="45.36272616360618" lon="9.003589433921034"><ele>106.0</ele><time>2026-03-29T10:49:35Z</time></trkpt><trkpt lat="45.36286527517828" lon="9.003467124254724"><ele>106.0</ele><time>2026-03-29T10:49:36Z</time></trkpt><trkpt lat="45.36300379697683" lon="9.003342888719654"><ele>106.0</ele><time>2026-03-29T10:49:37Z</time></trkpt><trkpt lat="45.36314060440312" lon="9.003214669147294"><ele>106.0</ele><time>2026-03-29T10:49:38Z</time></trkpt><trkpt lat="45.363278409015074" lon="9.00308929942055"><ele>106.0</ele><time>2026-03-29T10:49:39Z</time></trkpt><trkpt lat="45.363414514808746" lon="9.002968652737822"><ele>106.0</ele><time>2026-03-29T10:49:40Z</time></trkpt><trkpt lat="45.363549641029266" lon="9.002842907976603"><ele>106.0</ele><time>2026-03-29T10:49:40.999Z</time></trkpt><trkpt lat="45.36368521711254" lon="9.002714789772332"><ele>106.0</ele><time>2026-03-29T10:49:41.999Z</time></trkpt><trkpt lat="45.363819185494414" lon="9.002591600013355"><ele>106.0</ele><time>2026-03-29T10:49:42.999Z</time></trkpt><trkpt lat="45.36395387279555" lon="9.00246291906071"><ele>106.0</ele><time>2026-03-29T10:49:43.999Z</time></trkpt><trkpt lat="45.364087711323066" lon="9.002332569508768"><ele>106.33333333333334</ele><time>2026-03-29T10:49:44.999Z</time></trkpt><trkpt lat="45.36422268877074" lon="9.002205166803888"><ele>106.66666666666666</ele><time>2026-03-29T10:49:45.999Z</time></trkpt><trkpt lat="45.36436161691259" lon="9.002075459264928"><ele>107.0</ele><time>2026-03-29T10:49:46.999Z</time></trkpt><trkpt lat="45.36449834566378" lon="9.001952451544442"><ele>107.0</ele><time>2026-03-29T10:49:47.999Z</time></trkpt><trkpt lat="45.36463485225486" lon="9.001833676791252"><ele>107.0</ele><time>2026-03-29T10:49:48.999Z</time></trkpt><trkpt lat="45.36477343977033" lon="9.001713214641386"><ele>107.0</ele><time>2026-03-29T10:49:49.999Z</time></trkpt><trkpt lat="45.364912781769476" lon="9.001590138031206"><ele>106.33333333333333</ele><time>2026-03-29T10:49:50.999Z</time></trkpt><trkpt lat="45.36504736572243" lon="9.001464479731133"><ele>105.66666666666666</ele><time>2026-03-29T10:49:51.999Z</time></trkpt><trkpt lat="45.36518385092864" lon="9.001335464995273"><ele>105.0</ele><time>2026-03-29T10:49:52.999Z</time></trkpt><trkpt lat="45.36532028174962" lon="9.001212718237502"><ele>105.0</ele><time>2026-03-29T10:49:53.999Z</time></trkpt><trkpt lat="45.365456317137074" lon="9.001082689870842"><ele>105.0</ele><time>2026-03-29T10:49:54.999Z</time></trkpt><trkpt lat="45.36559768159671" lon="9.000948342197741"><ele>105.0</ele><time>2026-03-29T10:49:55.999Z</time></trkpt><trkpt lat="45.365746818275" lon="9.00080405564068"><ele>105.66666666666666</ele><time>2026-03-29T10:49:56.999Z</time></trkpt><trkpt lat="45.365905008064345" lon="9.000660859938899"><ele>106.33333333333333</ele><time>2026-03-29T10:49:57.999Z</time></trkpt><trkpt lat="45.36607092344099" lon="9.000509585743837"><ele>107.0</ele><time>2026-03-29T10:49:58.999Z</time></trkpt><trkpt lat="45.36623925420329" lon="9.000354949307477"><ele>107.0</ele><time>2026-03-29T10:49:59.999Z</time></trkpt><trkpt lat="45.366408245026946" lon="9.000199871388187"><ele>107.0</ele><time>2026-03-29T10:50:00.999Z</time></trkpt><trkpt lat="45.36657911892374" lon="9.000044268228098"><ele>107.0</ele><time>2026-03-29T10:50:01.999Z</time></trkpt><trkpt lat="45.36675233139261" lon="8.999881034097978"><ele>107.0</ele><time>2026-03-29T10:50:02.999Z</time></trkpt><trkpt lat="45.36692594659472" lon="8.999720490897385"><ele>107.0</ele><time>2026-03-29T10:50:03.999Z</time></trkpt><trkpt lat="45.36710236770311" lon="8.999557491820768"><ele>107.0</ele><time>2026-03-29T10:50:04.999Z</time></trkpt><trkpt lat="45.367281522287655" lon="8.99939489865257"><ele>107.33333333333333</ele><time>2026-03-29T10:50:05.999Z</time></trkpt><trkpt lat="45.36746362546071" lon="8.999229649424377"><ele>107.66666666666666</ele><time>2026-03-29T10:50:06.999Z</time></trkpt><trkpt lat="45.36765094568568" lon="8.999057454440093"><ele>108.0</ele><time>2026-03-29T10:50:07.999Z</time></trkpt><trkpt lat="45.367832198472755" lon="8.998886515345587"><ele>108.0</ele><time>2026-03-29T10:50:08.999Z</time></trkpt><trkpt lat="45.36801704086196" lon="8.998710092286823"><ele>108.0</ele><time>2026-03-29T10:50:09.999Z</time></trkpt><trkpt lat="45.36820033081265" lon="8.998539117316053"><ele>108.0</ele><time>2026-03-29T10:50:10.999Z</time></trkpt><trkpt lat="45.36838680671894" lon="8.998366251907719"><ele>108.0</ele><time>2026-03-29T10:50:11.999Z</time></trkpt><trkpt lat="45.368572674717896" lon="8.99818708119077"><ele>108.0</ele><time>2026-03-29T10:50:12.999Z</time></trkpt><trkpt lat="45.36875656156612" lon="8.998016880734893"><ele>108.0</ele><time>2026-03-29T10:50:13.999Z</time></trkpt><trkpt lat="45.36894273996897" lon="8.997833632223326"><ele>108.0</ele><time>2026-03-29T10:50:14.999Z</time></trkpt><trkpt lat="45.36912744229423" lon="8.997660611876602"><ele>108.0</ele><time>2026-03-29T10:50:15.999Z</time></trkpt><trkpt lat="45.36931127353342" lon="8.997493794872195"><ele>108.0</ele><time>2026-03-29T10:50:16.999Z</time></trkpt><trkpt lat="45.369482886718195" lon="8.997336249226112"><ele>108.33333333333334</ele><time>2026-03-29T10:50:17.999Z</time></trkpt><trkpt lat="45.369643945728555" lon="8.997182162717873"><ele>108.66666666666667</ele><time>2026-03-29T10:50:18.999Z</time></trkpt><trkpt lat="45.369809363503705" lon="8.997032680055009"><ele>109.0</ele><time>2026-03-29T10:50:19.999Z</time></trkpt><trkpt lat="45.36997654254417" lon="8.996880767627546"><ele>109.0</ele><time>2026-03-29T10:50:20.999Z</time></trkpt><trkpt lat="45.37012768055437" lon="8.996736606814379"><ele>109.0</ele><time>2026-03-29T10:50:21.999Z</time></trkpt><trkpt lat="45.37028274088558" lon="8.996591674058338"><ele>109.0</ele><time>2026-03-29T10:50:22.999Z</time></trkpt><trkpt lat="45.37043993087553" lon="8.996451451545594"><ele>109.0</ele><time>2026-03-29T10:50:23.999Z</time></trkpt><trkpt lat="45.37059857461678" lon="8.996306620608697"><ele>109.0</ele><time>2026-03-29T10:50:24.999Z</time></trkpt><trkpt lat="45.37075473726764" lon="8.996160731178556"><ele>109.0</ele><time>2026-03-29T10:50:25.999Z</time></trkpt><trkpt lat="45.370918130842306" lon="8.996013063371901"><ele>109.0</ele><time>2026-03-29T10:50:26.999Z</time></trkpt><trkpt lat="45.37107957094664" lon="8.995865655166767"><ele>109.0</ele><time>2026-03-29T10:50:27.999Z</time></trkpt><trkpt lat="45.37122741287032" lon="8.995728325569738"><ele>109.0</ele><time>2026-03-29T10:50:28.999Z</time></trkpt><trkpt lat="45.37136651325186" lon="8.99559937907711"><ele>109.25</ele><time>2026-03-29T10:50:29.999Z</time></trkpt><trkpt lat="45.37149561524924" lon="8.995481640583147"><ele>109.5</ele><time>2026-03-29T10:50:30.999Z</time></trkpt><trkpt lat="45.371614833288454" lon="8.995367194407097"><ele>109.75</ele><time>2026-03-29T10:50:31.999Z</time></trkpt><trkpt lat="45.37172663716658" lon="8.995262981745961"><ele>110.0</ele><time>2026-03-29T10:50:32.999Z</time></trkpt><trkpt lat="45.37183085359548" lon="8.995169444510354"><ele>110.0</ele><time>2026-03-29T10:50:33.999Z</time></trkpt><trkpt lat="45.371925072034074" lon="8.99507741728061"><ele>110.0</ele><time>2026-03-29T10:50:34.999Z</time></trkpt><trkpt lat="45.372010919577164" lon="8.994995749494192"><ele>110.0</ele><time>2026-03-29T10:50:35.999Z</time></trkpt><trkpt lat="45.3720868954344" lon="8.994925100874442"><ele>110.0</ele><time>2026-03-29T10:50:36.999Z</time></trkpt><trkpt lat="45.37215721110091" lon="8.994865923678413"><ele>110.0</ele><time>2026-03-29T10:50:37.999Z</time></trkpt><trkpt lat="45.372227026352306" lon="8.994825723466471"><ele>110.16666666666666</ele><time>2026-03-29T10:50:38.999Z</time></trkpt><trkpt lat="45.37230447018984" lon="8.994809275558353"><ele>110.33333333333333</ele><time>2026-03-29T10:50:39.999Z</time></trkpt><trkpt lat="45.37238574508606" lon="8.994807620295473"><ele>110.5</ele><time>2026-03-29T10:50:40.999Z</time></trkpt><trkpt lat="45.37246834383583" lon="8.994814609507378"><ele>110.66666666666666</ele><time>2026-03-29T10:50:42Z</time></trkpt><trkpt lat="45.37256243505388" lon="8.99478499818186"><ele>110.83333333333333</ele><time>2026-03-29T10:50:43Z</time></trkpt><trkpt lat="45.37264424417734" lon="8.994721593087815"><ele>111.0</ele><time>2026-03-29T10:50:44Z</time></trkpt><trkpt lat="45.37270443269069" lon="8.994596906168239"><ele>111.0</ele><time>2026-03-29T10:50:45Z</time></trkpt><trkpt lat="45.37274855280227" lon="8.994444413872056"><ele>111.0</ele><time>2026-03-29T10:50:46Z</time></trkpt><trkpt lat="45.372810875159516" lon="8.99429129595972"><ele>111.0</ele><time>2026-03-29T10:50:47Z</time></trkpt><trkpt lat="45.37290666305823" lon="8.994167256878479"><ele>111.0</ele><time>2026-03-29T10:50:48Z</time></trkpt><trkpt lat="45.373013041294755" lon="8.994075135165742"><ele>110.5</ele><time>2026-03-29T10:50:49Z</time></trkpt><trkpt lat="45.3731239382483" lon="8.993975638415924"><ele>110.0</ele><time>2026-03-29T10:50:50Z</time></trkpt><trkpt lat="45.37323880158865" lon="8.993869733891232"><ele>109.5</ele><time>2026-03-29T10:50:51Z</time></trkpt><trkpt lat="45.37335689447869" lon="8.993762919302586"><ele>109.0</ele><time>2026-03-29T10:50:52Z</time></trkpt><trkpt lat="45.37347638403867" lon="8.993652449235665"><ele>109.0</ele><time>2026-03-29T10:50:53Z</time></trkpt><trkpt lat="45.37359482569001" lon="8.993547385000294"><ele>109.0</ele><time>2026-03-29T10:50:54Z</time></trkpt><trkpt lat="45.37370996822863" lon="8.993442983603789"><ele>109.0</ele><time>2026-03-29T10:50:55Z</time></trkpt><trkpt lat="45.373828431685325" lon="8.993336014531089"><ele>109.0</ele><time>2026-03-29T10:50:56Z</time></trkpt><trkpt lat="45.37393682580191" lon="8.993231310383985"><ele>109.0</ele><time>2026-03-29T10:50:57Z</time></trkpt><trkpt lat="45.37405319810562" lon="8.993122647720964"><ele>109.0</ele><time>2026-03-29T10:50:58Z</time></trkpt><trkpt lat="45.37417200490657" lon="8.99301080115316"><ele>109.0</ele><time>2026-03-29T10:50:59Z</time></trkpt><trkpt lat="45.37429164286162" lon="8.992893889874836"><ele>109.0</ele><time>2026-03-29T10:51:00Z</time></trkpt><trkpt lat="45.3744159540576" lon="8.992776302930928"><ele>109.0</ele><time>2026-03-29T10:51:01Z</time></trkpt><trkpt lat="45.37454358021751" lon="8.992661498667726"><ele>109.0</ele><time>2026-03-29T10:51:02Z</time></trkpt><trkpt lat="45.37467464264015" lon="8.992547533229297"><ele>109.0</ele><time>2026-03-29T10:51:03Z</time></trkpt><trkpt lat="45.374818189821205" lon="8.992405087638717"><ele>109.66666666666667</ele><time>2026-03-29T10:51:04Z</time></trkpt><trkpt lat="45.37495910291513" lon="8.99227233525301"><ele>110.33333333333334</ele><time>2026-03-29T10:51:05Z</time></trkpt><trkpt lat="45.37510417971986" lon="8.992133495725149"><ele>111.0</ele><time>2026-03-29T10:51:06Z</time></trkpt><trkpt lat="45.37524997750419" lon="8.991982543557299"><ele>111.0</ele><time>2026-03-29T10:51:07Z</time></trkpt><trkpt lat="45.375389578852506" lon="8.99184490348035"><ele>111.0</ele><time>2026-03-29T10:51:08Z</time></trkpt><trkpt lat="45.37554243833967" lon="8.991720919676144"><ele>111.0</ele><time>2026-03-29T10:51:09Z</time></trkpt><trkpt lat="45.37567436193166" lon="8.991592150052332"><ele>110.66666666666666</ele><time>2026-03-29T10:51:10Z</time></trkpt><trkpt lat="45.375801785707786" lon="8.9914533638131"><ele>110.33333333333333</ele><time>2026-03-29T10:51:11Z</time></trkpt><trkpt lat="45.3759438904426" lon="8.991337602103295"><ele>110.0</ele><time>2026-03-29T10:51:12Z</time></trkpt><trkpt lat="45.37608336475708" lon="8.9912067325877"><ele>110.0</ele><time>2026-03-29T10:51:13Z</time></trkpt><trkpt lat="45.37621920543058" lon="8.991086872042029"><ele>110.0</ele><time>2026-03-29T10:51:14Z</time></trkpt><trkpt lat="45.37635953162223" lon="8.990949549513772"><ele>110.0</ele><time>2026-03-29T10:51:15Z</time></trkpt><trkpt lat="45.376504288909224" lon="8.9908201556643"><ele>110.66666666666666</ele><time>2026-03-29T10:51:16Z</time></trkpt><trkpt lat="45.376648441443194" lon="8.990685031322997"><ele>111.33333333333334</ele><time>2026-03-29T10:51:17Z</time></trkpt><trkpt lat="45.37678438559764" lon="8.990549264019787"><ele>112.0</ele><time>2026-03-29T10:51:18Z</time></trkpt><trkpt lat="45.37693068957679" lon="8.990408136160466"><ele>112.0</ele><time>2026-03-29T10:51:19Z</time></trkpt><trkpt lat="45.37708361145647" lon="8.990264344827782"><ele>112.0</ele><time>2026-03-29T10:51:20Z</time></trkpt><trkpt lat="45.37722997090575" lon="8.990106092676122"><ele>112.0</ele><time>2026-03-29T10:51:21Z</time></trkpt><trkpt lat="45.37738416956057" lon="8.989947240980207"><ele>112.0</ele><time>2026-03-29T10:51:22Z</time></trkpt><trkpt lat="45.377523856633964" lon="8.989789039795005"><ele>112.0</ele><time>2026-03-29T10:51:23Z</time></trkpt><trkpt lat="45.37766272840344" lon="8.98963615334102"><ele>112.0</ele><time>2026-03-29T10:51:24Z</time></trkpt><trkpt lat="45.3778116923495" lon="8.989484145774117"><ele>112.0</ele><time>2026-03-29T10:51:25Z</time></trkpt><trkpt lat="45.37795990315561" lon="8.989325393804096"><ele>112.0</ele><time>2026-03-29T10:51:26Z</time></trkpt><trkpt lat="45.37809126356436" lon="8.989173141454065"><ele>112.0</ele><time>2026-03-29T10:51:27Z</time></trkpt><trkpt lat="45.378234148013206" lon="8.989009957980599"><ele>112.0</ele><time>2026-03-29T10:51:28Z</time></trkpt><trkpt lat="45.378380186793116" lon="8.988861305457531"><ele>112.0</ele><time>2026-03-29T10:51:29Z</time></trkpt><trkpt lat="45.378522758120226" lon="8.988706027495502"><ele>112.0</ele><time>2026-03-29T10:51:30Z</time></trkpt><trkpt lat="45.378656061423484" lon="8.988548587611504"><ele>112.0</ele><time>2026-03-29T10:51:31Z</time></trkpt><trkpt lat="45.378795274546704" lon="8.988384358240014"><ele>112.0</ele><time>2026-03-29T10:51:32Z</time></trkpt><trkpt lat="45.37892768915522" lon="8.988217209058398"><ele>112.0</ele><time>2026-03-29T10:51:33Z</time></trkpt><trkpt lat="45.379072495732586" lon="8.988059947562181"><ele>111.66666666666667</ele><time>2026-03-29T10:51:34Z</time></trkpt><trkpt lat="45.37921562169309" lon="8.987904438286082"><ele>111.33333333333334</ele><time>2026-03-29T10:51:35Z</time></trkpt><trkpt lat="45.379348188722325" lon="8.987745577225633"><ele>111.0</ele><time>2026-03-29T10:51:36Z</time></trkpt><trkpt lat="45.379485849375506" lon="8.987595790697632"><ele>111.0</ele><time>2026-03-29T10:51:37Z</time></trkpt><trkpt lat="45.37962448966586" lon="8.987450270489418"><ele>111.0</ele><time>2026-03-29T10:51:38Z</time></trkpt><trkpt lat="45.37975904292122" lon="8.98729144808704"><ele>111.0</ele><time>2026-03-29T10:51:39Z</time></trkpt><trkpt lat="45.379890140014005" lon="8.98713825548094"><ele>110.33333333333334</ele><time>2026-03-29T10:51:40Z</time></trkpt><trkpt lat="45.3800251451496" lon="8.986984808209778"><ele>109.66666666666667</ele><time>2026-03-29T10:51:41Z</time></trkpt><trkpt lat="45.38016304129692" lon="8.986832309153373"><ele>109.0</ele><time>2026-03-29T10:51:41.999Z</time></trkpt><trkpt lat="45.38030434056059" lon="8.986687966732719"><ele>109.0</ele><time>2026-03-29T10:51:42.999Z</time></trkpt><trkpt lat="45.38044191548458" lon="8.986536936324033"><ele>109.0</ele><time>2026-03-29T10:51:43.999Z</time></trkpt><trkpt lat="45.38057438053687" lon="8.986387164883961"><ele>109.0</ele><time>2026-03-29T10:51:44.999Z</time></trkpt><trkpt lat="45.38070605111915" lon="8.986247360537183"><ele>109.0</ele><time>2026-03-29T10:51:45.999Z</time></trkpt><trkpt lat="45.380838164887166" lon="8.986109550765427"><ele>109.0</ele><time>2026-03-29T10:51:46.999Z</time></trkpt><trkpt lat="45.38097548786397" lon="8.985967877807825"><ele>109.0</ele><time>2026-03-29T10:51:47.999Z</time></trkpt><trkpt lat="45.38111605381001" lon="8.985823902780865"><ele>109.0</ele><time>2026-03-29T10:51:48.999Z</time></trkpt><trkpt lat="45.38124968852075" lon="8.985681027122912"><ele>109.0</ele><time>2026-03-29T10:51:49.999Z</time></trkpt><trkpt lat="45.38138620073852" lon="8.985530756263032"><ele>109.0</ele><time>2026-03-29T10:51:50.999Z</time></trkpt><trkpt lat="45.381521679189" lon="8.985385299128998"><ele>110.0</ele><time>2026-03-29T10:51:51.999Z</time></trkpt><trkpt lat="45.381659666908625" lon="8.985243948788687"><ele>111.0</ele><time>2026-03-29T10:51:52.999Z</time></trkpt><trkpt lat="45.38179578218881" lon="8.985101258936018"><ele>112.0</ele><time>2026-03-29T10:51:53.999Z</time></trkpt><trkpt lat="45.38193819556377" lon="8.984961452459608"><ele>112.0</ele><time>2026-03-29T10:51:54.999Z</time></trkpt><trkpt lat="45.38208074587538" lon="8.984825653067798"><ele>112.0</ele><time>2026-03-29T10:51:55.999Z</time></trkpt><trkpt lat="45.38222659240154" lon="8.984695520483488"><ele>112.0</ele><time>2026-03-29T10:51:56.999Z</time></trkpt><trkpt lat="45.382371597839345" lon="8.984573579749737"><ele>112.33333333333334</ele><time>2026-03-29T10:51:57.999Z</time></trkpt><trkpt lat="45.3825158531929" lon="8.984458378620422"><ele>112.66666666666666</ele><time>2026-03-29T10:51:58.999Z</time></trkpt><trkpt lat="45.382666159922614" lon="8.98434326891533"><ele>113.0</ele><time>2026-03-29T10:51:59.999Z</time></trkpt><trkpt lat="45.38281393604592" lon="8.984231131611866"><ele>113.0</ele><time>2026-03-29T10:52:00.999Z</time></trkpt><trkpt lat="45.38296772265667" lon="8.984125629919486"><ele>113.0</ele><time>2026-03-29T10:52:01.999Z</time></trkpt><trkpt lat="45.38311775116225" lon="8.984018204146924"><ele>113.0</ele><time>2026-03-29T10:52:02.999Z</time></trkpt><trkpt lat="45.38326051988139" lon="8.9839180580175"><ele>113.0</ele><time>2026-03-29T10:52:03.999Z</time></trkpt><trkpt lat="45.38341318602932" lon="8.983811197322616"><ele>113.0</ele><time>2026-03-29T10:52:04.999Z</time></trkpt><trkpt lat="45.38356649965749" lon="8.983695259667739"><ele>113.0</ele><time>2026-03-29T10:52:05.999Z</time></trkpt><trkpt lat="45.383727625199676" lon="8.983568599256664"><ele>113.0</ele><time>2026-03-29T10:52:06.999Z</time></trkpt><trkpt lat="45.383901003226995" lon="8.983442591236964"><ele>113.0</ele><time>2026-03-29T10:52:07.999Z</time></trkpt><trkpt lat="45.38407063463914" lon="8.983316987497957"><ele>113.0</ele><time>2026-03-29T10:52:08.999Z</time></trkpt><trkpt lat="45.38424122999299" lon="8.983197207945205"><ele>113.0</ele><time>2026-03-29T10:52:09.999Z</time></trkpt><trkpt lat="45.38442048819766" lon="8.983080347187402"><ele>113.0</ele><time>2026-03-29T10:52:10.999Z</time></trkpt><trkpt lat="45.38460096639928" lon="8.982967399951894"><ele>113.0</ele><time>2026-03-29T10:52:11.999Z</time></trkpt><trkpt lat="45.38479077569073" lon="8.982850522025956"><ele>113.0</ele><time>2026-03-29T10:52:12.999Z</time></trkpt><trkpt lat="45.38498119488872" lon="8.982727459428324"><ele>113.0</ele><time>2026-03-29T10:52:13.999Z</time></trkpt><trkpt lat="45.385175183866956" lon="8.982602464274255"><ele>113.0</ele><time>2026-03-29T10:52:14.999Z</time></trkpt><trkpt lat="45.385370335376706" lon="8.98246996862971"><ele>113.33333333333333</ele><time>2026-03-29T10:52:15.999Z</time></trkpt><trkpt lat="45.385562571037326" lon="8.982339217990196"><ele>113.66666666666666</ele><time>2026-03-29T10:52:16.999Z</time></trkpt><trkpt lat="45.38575946918547" lon="8.982203843506648"><ele>114.0</ele><time>2026-03-29T10:52:17.999Z</time></trkpt><trkpt lat="45.38595737433143" lon="8.982072200648467"><ele>114.0</ele><time>2026-03-29T10:52:18.999Z</time></trkpt><trkpt lat="45.386146975789835" lon="8.981935825264362"><ele>114.0</ele><time>2026-03-29T10:52:19.999Z</time></trkpt><trkpt lat="45.38634101350485" lon="8.981802155646633"><ele>114.0</ele><time>2026-03-29T10:52:20.999Z</time></trkpt><trkpt lat="45.38653061009149" lon="8.981668881891176"><ele>113.66666666666666</ele><time>2026-03-29T10:52:21.999Z</time></trkpt><trkpt lat="45.38672779298022" lon="8.981536173337295"><ele>113.33333333333333</ele><time>2026-03-29T10:52:22.999Z</time></trkpt><trkpt lat="45.386922274680494" lon="8.981410754752467"><ele>113.0</ele><time>2026-03-29T10:52:23.999Z</time></trkpt><trkpt lat="45.38710824052463" lon="8.981281411802831"><ele>113.33333333333333</ele><time>2026-03-29T10:52:24.999Z</time></trkpt><trkpt lat="45.387293997070046" lon="8.981152957649364"><ele>113.66666666666666</ele><time>2026-03-29T10:52:25.999Z</time></trkpt><trkpt lat="45.38748592966506" lon="8.981023991450742"><ele>114.0</ele><time>2026-03-29T10:52:26.999Z</time></trkpt><trkpt lat="45.38767974061344" lon="8.980891972783711"><ele>114.0</ele><time>2026-03-29T10:52:27.999Z</time></trkpt><trkpt lat="45.387873271976375" lon="8.980764161869661"><ele>114.0</ele><time>2026-03-29T10:52:28.999Z</time></trkpt><trkpt lat="45.388059731726216" lon="8.980630835313255"><ele>114.0</ele><time>2026-03-29T10:52:29.999Z</time></trkpt><trkpt lat="45.38824932947089" lon="8.980500297888153"><ele>113.0</ele><time>2026-03-29T10:52:30.999Z</time></trkpt><trkpt lat="45.3884383333565" lon="8.980372633783674"><ele>112.0</ele><time>2026-03-29T10:52:31.999Z</time></trkpt><trkpt lat="45.38862745146495" lon="8.98024448669568"><ele>111.0</ele><time>2026-03-29T10:52:32.999Z</time></trkpt><trkpt lat="45.38882133697971" lon="8.980115199797465"><ele>111.33333333333334</ele><time>2026-03-29T10:52:33.999Z</time></trkpt><trkpt lat="45.389010641594126" lon="8.979987892307966"><ele>111.66666666666667</ele><time>2026-03-29T10:52:34.999Z</time></trkpt><trkpt lat="45.38920486863805" lon="8.97985950994268"><ele>112.0</ele><time>2026-03-29T10:52:35.999Z</time></trkpt><trkpt lat="45.389394942582335" lon="8.979730479068666"><ele>112.0</ele><time>2026-03-29T10:52:36.999Z</time></trkpt><trkpt lat="45.38958477998881" lon="8.979601702491546"><ele>112.0</ele><time>2026-03-29T10:52:37.999Z</time></trkpt><trkpt lat="45.389776248136464" lon="8.979474771084874"><ele>112.0</ele><time>2026-03-29T10:52:38.999Z</time></trkpt><trkpt lat="45.38996527430575" lon="8.979347995573848"><ele>112.0</ele><time>2026-03-29T10:52:39.999Z</time></trkpt><trkpt lat="45.39015088100183" lon="8.979218096636574"><ele>112.0</ele><time>2026-03-29T10:52:40.999Z</time></trkpt><trkpt lat="45.390323702121485" lon="8.979101445716001"><ele>112.0</ele><time>2026-03-29T10:52:41.999Z</time></trkpt><trkpt lat="45.39047811740027" lon="8.978990305267354"><ele>112.33333333333334</ele><time>2026-03-29T10:52:42.999Z</time></trkpt><trkpt lat="45.39063042210884" lon="8.978883673769598"><ele>112.66666666666666</ele><time>2026-03-29T10:52:43.999Z</time></trkpt><trkpt lat="45.390780668346565" lon="8.978784081516181"><ele>113.0</ele><time>2026-03-29T10:52:44.999Z</time></trkpt><trkpt lat="45.39092435736583" lon="8.978682471156107"><ele>113.0</ele><time>2026-03-29T10:52:45.999Z</time></trkpt><trkpt lat="45.39106626705049" lon="8.978589527362056"><ele>113.0</ele><time>2026-03-29T10:52:46.999Z</time></trkpt><trkpt lat="45.39120552779584" lon="8.978495047279662"><ele>113.0</ele><time>2026-03-29T10:52:48Z</time></trkpt><trkpt lat="45.39134349823521" lon="8.978402970601389"><ele>113.0</ele><time>2026-03-29T10:52:49Z</time></trkpt><trkpt lat="45.391481200162644" lon="8.978309789239153"><ele>113.0</ele><time>2026-03-29T10:52:50Z</time></trkpt><trkpt lat="45.39162056192747" lon="8.9782190425763"><ele>113.0</ele><time>2026-03-29T10:52:51Z</time></trkpt><trkpt lat="45.39176411279781" lon="8.978126592460303"><ele>113.0</ele><time>2026-03-29T10:52:52Z</time></trkpt><trkpt lat="45.391905678994135" lon="8.97803264938216"><ele>113.0</ele><time>2026-03-29T10:52:53Z</time></trkpt><trkpt lat="45.39204358807857" lon="8.977927117376634"><ele>113.0</ele><time>2026-03-29T10:52:54Z</time></trkpt><trkpt lat="45.39218686857944" lon="8.977821824608833"><ele>113.66666666666666</ele><time>2026-03-29T10:52:55Z</time></trkpt><trkpt lat="45.392335393484785" lon="8.977718031246514"><ele>114.33333333333334</ele><time>2026-03-29T10:52:56Z</time></trkpt><trkpt lat="45.3924849397763" lon="8.977617628293768"><ele>115.0</ele><time>2026-03-29T10:52:57Z</time></trkpt><trkpt lat="45.39263644270792" lon="8.977519192304511"><ele>114.66666666666667</ele><time>2026-03-29T10:52:58Z</time></trkpt><trkpt lat="45.39279102077788" lon="8.977417746104456"><ele>114.33333333333334</ele><time>2026-03-29T10:52:59Z</time></trkpt><trkpt lat="45.39295184655633" lon="8.977306057564613"><ele>114.0</ele><time>2026-03-29T10:53:00Z</time></trkpt><trkpt lat="45.39311820447119" lon="8.977197755512368"><ele>114.0</ele><time>2026-03-29T10:53:01Z</time></trkpt><trkpt lat="45.39329678605457" lon="8.977083224480465"><ele>114.0</ele><time>2026-03-29T10:53:02Z</time></trkpt><trkpt lat="45.393487698520524" lon="8.976970314324042"><ele>114.0</ele><time>2026-03-29T10:53:03Z</time></trkpt><trkpt lat="45.39368795022248" lon="8.976860269433582"><ele>112.5</ele><time>2026-03-29T10:53:04Z</time></trkpt><trkpt lat="45.39389470193002" lon="8.976740657889762"><ele>111.0</ele><time>2026-03-29T10:53:05Z</time></trkpt><trkpt lat="45.39410993906599" lon="8.976616201798828"><ele>110.0</ele><time>2026-03-29T10:53:06Z</time></trkpt><trkpt lat="45.394331023417735" lon="8.976488117883507"><ele>109.0</ele><time>2026-03-29T10:53:07Z</time></trkpt><trkpt lat="45.39455402077273" lon="8.976357681840074"><ele>111.0</ele><time>2026-03-29T10:53:08Z</time></trkpt><trkpt lat="45.394773504545775" lon="8.976230799998365"><ele>113.0</ele><time>2026-03-29T10:53:09Z</time></trkpt><trkpt lat="45.39499342335506" lon="8.976107464943224"><ele>113.0</ele><time>2026-03-29T10:53:10Z</time></trkpt><trkpt lat="45.395208604715954" lon="8.975980451999888"><ele>113.0</ele><time>2026-03-29T10:53:11Z</time></trkpt><trkpt lat="45.39542424152457" lon="8.975855471974915"><ele>113.5</ele><time>2026-03-29T10:53:12Z</time></trkpt><trkpt lat="45.39563937146852" lon="8.975730015882098"><ele>114.0</ele><time>2026-03-29T10:53:13Z</time></trkpt><trkpt lat="45.395853829802014" lon="8.975608275638823"><ele>114.0</ele><time>2026-03-29T10:53:14Z</time></trkpt><trkpt lat="45.396070603505144" lon="8.975484399748048"><ele>114.0</ele><time>2026-03-29T10:53:15Z</time></trkpt><trkpt lat="45.39627888932638" lon="8.975362222466716"><ele>114.5</ele><time>2026-03-29T10:53:16Z</time></trkpt><trkpt lat="45.39649201525111" lon="8.975239338036568"><ele>115.0</ele><time>2026-03-29T10:53:17Z</time></trkpt><trkpt lat="45.39670242615073" lon="8.975120581988625"><ele>115.0</ele><time>2026-03-29T10:53:18Z</time></trkpt><trkpt lat="45.396914847482705" lon="8.974998684661772"><ele>115.0</ele><time>2026-03-29T10:53:19Z</time></trkpt><trkpt lat="45.39712863773659" lon="8.974878326275205"><ele>116.0</ele><time>2026-03-29T10:53:20Z</time></trkpt><trkpt lat="45.39734614024413" lon="8.974757479037395"><ele>117.0</ele><time>2026-03-29T10:53:21Z</time></trkpt><trkpt lat="45.39755710944979" lon="8.974639555007663"><ele>117.0</ele><time>2026-03-29T10:53:22Z</time></trkpt><trkpt lat="45.39775914842959" lon="8.974532415471213"><ele>117.0</ele><time>2026-03-29T10:53:23Z</time></trkpt><trkpt lat="45.39794005927627" lon="8.974428341383264"><ele>117.0</ele><time>2026-03-29T10:53:24Z</time></trkpt><trkpt lat="45.398121971016366" lon="8.974325197805028"><ele>116.66666666666666</ele><time>2026-03-29T10:53:25Z</time></trkpt><trkpt lat="45.39830755814286" lon="8.974223408063672"><ele>116.33333333333333</ele><time>2026-03-29T10:53:26Z</time></trkpt><trkpt lat="45.3984955044259" lon="8.974129893533913"><ele>116.0</ele><time>2026-03-29T10:53:27Z</time></trkpt><trkpt lat="45.39868317117303" lon="8.974036878970727"><ele>116.33333333333333</ele><time>2026-03-29T10:53:28Z</time></trkpt><trkpt lat="45.39887623467123" lon="8.973953671648932"><ele>116.66666666666666</ele><time>2026-03-29T10:53:29Z</time></trkpt><trkpt lat="45.39906751382644" lon="8.973878098309207"><ele>117.0</ele><time>2026-03-29T10:53:30Z</time></trkpt><trkpt lat="45.39926117903986" lon="8.97380508940807"><ele>117.0</ele><time>2026-03-29T10:53:31Z</time></trkpt><trkpt lat="45.399455201328955" lon="8.97373371104677"><ele>117.0</ele><time>2026-03-29T10:53:32Z</time></trkpt><trkpt lat="45.39965188019251" lon="8.973668846972782"><ele>117.0</ele><time>2026-03-29T10:53:33Z</time></trkpt><trkpt lat="45.399853081171656" lon="8.973611461095206"><ele>117.33333333333334</ele><time>2026-03-29T10:53:34Z</time></trkpt><trkpt lat="45.400055001539165" lon="8.97355545859517"><ele>117.66666666666667</ele><time>2026-03-29T10:53:35Z</time></trkpt><trkpt lat="45.40026580922579" lon="8.973501708662239"><ele>118.0</ele><time>2026-03-29T10:53:36Z</time></trkpt><trkpt lat="45.4004721991703" lon="8.97344499545699"><ele>118.0</ele><time>2026-03-29T10:53:37Z</time></trkpt><trkpt lat="45.400677829249965" lon="8.9733901251924"><ele>118.0</ele><time>2026-03-29T10:53:38Z</time></trkpt><trkpt lat="45.400886448661474" lon="8.97333464179664"><ele>118.0</ele><time>2026-03-29T10:53:39Z</time></trkpt><trkpt lat="45.40107441596488" lon="8.973285237936945"><ele>117.33333333333334</ele><time>2026-03-29T10:53:40Z</time></trkpt><trkpt lat="45.401252600015034" lon="8.973237888120265"><ele>116.66666666666666</ele><time>2026-03-29T10:53:41Z</time></trkpt><trkpt lat="45.401426509867946" lon="8.973181962711122"><ele>116.0</ele><time>2026-03-29T10:53:42Z</time></trkpt><trkpt lat="45.401603011892476" lon="8.973125931391701"><ele>117.33333333333333</ele><time>2026-03-29T10:53:43Z</time></trkpt><trkpt lat="45.40177195166047" lon="8.973068098956478"><ele>118.66666666666666</ele><time>2026-03-29T10:53:44Z</time></trkpt><trkpt lat="45.401945167166886" lon="8.973003767678502"><ele>120.0</ele><time>2026-03-29T10:53:45Z</time></trkpt><trkpt lat="45.402120176239045" lon="8.972938044879806"><ele>119.33333333333334</ele><time>2026-03-29T10:53:46Z</time></trkpt><trkpt lat="45.402298354477175" lon="8.972872525329834"><ele>118.66666666666667</ele><time>2026-03-29T10:53:47Z</time></trkpt><trkpt lat="45.402455142177956" lon="8.972812017977539"><ele>118.0</ele><time>2026-03-29T10:53:48Z</time></trkpt><trkpt lat="45.40260495879643" lon="8.972757484539652"><ele>118.0</ele><time>2026-03-29T10:53:49Z</time></trkpt><trkpt lat="45.402744772824214" lon="8.97270543784058"><ele>118.0</ele><time>2026-03-29T10:53:50Z</time></trkpt><trkpt lat="45.40288646899358" lon="8.972644958036009"><ele>118.0</ele><time>2026-03-29T10:53:51Z</time></trkpt><trkpt lat="45.40302267126358" lon="8.972560254503062"><ele>118.0</ele><time>2026-03-29T10:53:52Z</time></trkpt><trkpt lat="45.40315670290144" lon="8.972443900705168"><ele>117.33333333333334</ele><time>2026-03-29T10:53:53Z</time></trkpt><trkpt lat="45.40328210423472" lon="8.972278641282179"><ele>116.66666666666666</ele><time>2026-03-29T10:53:54Z</time></trkpt><trkpt lat="45.40338537936198" lon="8.972091638563073"><ele>116.0</ele><time>2026-03-29T10:53:54.999Z</time></trkpt><trkpt lat="45.403449055276866" lon="8.971892561013794"><ele>116.0</ele><time>2026-03-29T10:53:55.999Z</time></trkpt><trkpt lat="45.40349240830322" lon="8.97167882544048"><ele>116.0</ele><time>2026-03-29T10:53:56.999Z</time></trkpt><trkpt lat="45.40351385239285" lon="8.971465468081462"><ele>116.0</ele><time>2026-03-29T10:53:57.999Z</time></trkpt><trkpt lat="45.40350660235394" lon="8.971237393841701"><ele>116.0</ele><time>2026-03-29T10:53:58.999Z</time></trkpt><trkpt lat="45.4034692849176" lon="8.971009405134048"><ele>116.0</ele><time>2026-03-29T10:53:59.999Z</time></trkpt><trkpt lat="45.40342403366198" lon="8.970768715847026"><ele>116.0</ele><time>2026-03-29T10:54:00.999Z</time></trkpt><trkpt lat="45.403383123407124" lon="8.97054370725668"><ele>115.75</ele><time>2026-03-29T10:54:01.999Z</time></trkpt><trkpt lat="45.403342494487376" lon="8.970334601493276"><ele>115.5</ele><time>2026-03-29T10:54:02.999Z</time></trkpt><trkpt lat="45.40330628565596" lon="8.970148596473829"><ele>115.25</ele><time>2026-03-29T10:54:03.999Z</time></trkpt><trkpt lat="45.40326691031673" lon="8.969984125283915"><ele>115.0</ele><time>2026-03-29T10:54:04.999Z</time></trkpt><trkpt lat="45.40321380903054" lon="8.969836521536445"><ele>115.0</ele><time>2026-03-29T10:54:05.999Z</time></trkpt><trkpt lat="45.403168426404086" lon="8.969695223929712"><ele>115.0</ele><time>2026-03-29T10:54:06.999Z</time></trkpt><trkpt lat="45.403077524054154" lon="8.969619133637703"><ele>115.0</ele><time>2026-03-29T10:54:07.999Z</time></trkpt><trkpt lat="45.40301800361422" lon="8.969542549004787"><ele>115.0</ele><time>2026-03-29T10:54:08.999Z</time></trkpt><trkpt lat="45.402947566306025" lon="8.969435588339278"><ele>115.0</ele><time>2026-03-29T10:54:10.999Z</time></trkpt><trkpt lat="45.40291211080114" lon="8.969351747787826"><ele>115.0</ele><time>2026-03-29T10:54:16.999Z</time></trkpt><trkpt lat="45.40288043113979" lon="8.969211496146812"><ele>115.0</ele><time>2026-03-29T10:54:19.999Z</time></trkpt><trkpt lat="45.40286121406141" lon="8.969039927170536"><ele>115.0</ele><time>2026-03-29T10:54:21.999Z</time></trkpt><trkpt lat="45.40294395597154" lon="8.968952899833198"><ele>115.0</ele><time>2026-03-29T10:54:22.999Z</time></trkpt><trkpt lat="45.40301712646341" lon="8.968899452952215"><ele>115.0</ele><time>2026-03-29T10:54:23.999Z</time></trkpt><trkpt lat="45.40309915732521" lon="8.968836349684715"><ele>115.00000000000001</ele><time>2026-03-29T10:54:24.999Z</time></trkpt><trkpt lat="45.403179150592294" lon="8.96879388479468"><ele>115.0</ele><time>2026-03-29T10:54:25.999Z</time></trkpt><trkpt lat="45.40326784439862" lon="8.968759585566229"><ele>115.0</ele><time>2026-03-29T10:54:26.999Z</time></trkpt><trkpt lat="45.4033619907388" lon="8.968735348616063"><ele>115.0</ele><time>2026-03-29T10:54:27.999Z</time></trkpt><trkpt lat="45.403446988294334" lon="8.968707069122829"><ele>115.00000000000001</ele><time>2026-03-29T10:54:28.999Z</time></trkpt><trkpt lat="45.403529107946284" lon="8.968679268614437"><ele>115.0</ele><time>2026-03-29T10:54:29.999Z</time></trkpt><trkpt lat="45.403615133621294" lon="8.968647637075565"><ele>115.0</ele><time>2026-03-29T10:54:30.999Z</time></trkpt><trkpt lat="45.40370381722995" lon="8.968610240525694"><ele>115.0</ele><time>2026-03-29T10:54:31.999Z</time></trkpt><trkpt lat="45.4037933537048" lon="8.968561759122691"><ele>115.0</ele><time>2026-03-29T10:54:32.999Z</time></trkpt><trkpt lat="45.403879310283315" lon="8.968480696032637"><ele>115.0</ele><time>2026-03-29T10:54:33.999Z</time></trkpt><trkpt lat="45.40395531757626" lon="8.968370543707552"><ele>115.0</ele><time>2026-03-29T10:54:34.999Z</time></trkpt><trkpt lat="45.40402105650667" lon="8.968230639770221"><ele>115.25</ele><time>2026-03-29T10:54:35.999Z</time></trkpt><trkpt lat="45.40407152799391" lon="8.968070649278605"><ele>115.5</ele><time>2026-03-29T10:54:36.999Z</time></trkpt><trkpt lat="45.40410727356606" lon="8.967894643061987"><ele>115.75</ele><time>2026-03-29T10:54:37.999Z</time></trkpt><trkpt lat="45.40412152792475" lon="8.967696061856339"><ele>116.0</ele><time>2026-03-29T10:54:38.999Z</time></trkpt><trkpt lat="45.404113922463914" lon="8.967492151669067"><ele>116.33333333333333</ele><time>2026-03-29T10:54:39.999Z</time></trkpt><trkpt lat="45.40409377501066" lon="8.967271151098315"><ele>116.66666666666666</ele><time>2026-03-29T10:54:40.999Z</time></trkpt><trkpt lat="45.40406924247091" lon="8.96706228409913"><ele>117.0</ele><time>2026-03-29T10:54:41.999Z</time></trkpt><trkpt lat="45.40404856900592" lon="8.966853539528621"><ele>116.5</ele><time>2026-03-29T10:54:42.999Z</time></trkpt><trkpt lat="45.40403318560686" lon="8.966653835632822"><ele>116.0</ele><time>2026-03-29T10:54:43.999Z</time></trkpt><trkpt lat="45.404017558470876" lon="8.966448706317074"><ele>115.5</ele><time>2026-03-29T10:54:44.999Z</time></trkpt><trkpt lat="45.40400161048351" lon="8.966245846971097"><ele>115.0</ele><time>2026-03-29T10:54:45.999Z</time></trkpt><trkpt lat="45.403986634021116" lon="8.966039080179527"><ele>114.75</ele><time>2026-03-29T10:54:46.999Z</time></trkpt><trkpt lat="45.40397440422833" lon="8.965839053817481"><ele>114.5</ele><time>2026-03-29T10:54:47.999Z</time></trkpt><trkpt lat="45.40396349924243" lon="8.965638273386173"><ele>114.25</ele><time>2026-03-29T10:54:48.999Z</time></trkpt><trkpt lat="45.40395348383148" lon="8.965428501292525"><ele>114.0</ele><time>2026-03-29T10:54:49.999Z</time></trkpt><trkpt lat="45.40394046970261" lon="8.965213836549324"><ele>114.66666666666666</ele><time>2026-03-29T10:54:50.999Z</time></trkpt><trkpt lat="45.40392715264925" lon="8.964997498266625"><ele>115.33333333333333</ele><time>2026-03-29T10:54:51.999Z</time></trkpt><trkpt lat="45.40390932893483" lon="8.96478375052947"><ele>116.0</ele><time>2026-03-29T10:54:52.999Z</time></trkpt><trkpt lat="45.40389043358899" lon="8.964575624796566"><ele>116.0</ele><time>2026-03-29T10:54:54Z</time></trkpt><trkpt lat="45.40386915731064" lon="8.964356237114632"><ele>116.0</ele><time>2026-03-29T10:54:55Z</time></trkpt><trkpt lat="45.40385119812397" lon="8.964144404123275"><ele>116.0</ele><time>2026-03-29T10:54:56Z</time></trkpt><trkpt lat="45.403834129694914" lon="8.963942504824974"><ele>116.0</ele><time>2026-03-29T10:54:57Z</time></trkpt><trkpt lat="45.40381836247972" lon="8.96372344506877"><ele>116.33333333333333</ele><time>2026-03-29T10:54:58Z</time></trkpt><trkpt lat="45.40380244476207" lon="8.963493398237315"><ele>116.66666666666666</ele><time>2026-03-29T10:54:59Z</time></trkpt><trkpt lat="45.40378543333946" lon="8.963265515653452"><ele>117.0</ele><time>2026-03-29T10:55:00Z</time></trkpt><trkpt lat="45.40376979652132" lon="8.963057676246445"><ele>117.0</ele><time>2026-03-29T10:55:01Z</time></trkpt><trkpt lat="45.40375094529386" lon="8.962847434924674"><ele>117.0</ele><time>2026-03-29T10:55:02Z</time></trkpt><trkpt lat="45.403736649434734" lon="8.962629773747393"><ele>117.0</ele><time>2026-03-29T10:55:03Z</time></trkpt><trkpt lat="45.403725592872924" lon="8.962406353320631"><ele>117.33333333333334</ele><time>2026-03-29T10:55:04Z</time></trkpt><trkpt lat="45.40371302163284" lon="8.962192075524557"><ele>117.66666666666667</ele><time>2026-03-29T10:55:05Z</time></trkpt><trkpt lat="45.40369835482852" lon="8.961980248497955"><ele>118.0</ele><time>2026-03-29T10:55:06Z</time></trkpt><trkpt lat="45.40368053907513" lon="8.961753070733424"><ele>118.0</ele><time>2026-03-29T10:55:07Z</time></trkpt><trkpt lat="45.403666139580565" lon="8.96154077863401"><ele>118.0</ele><time>2026-03-29T10:55:08Z</time></trkpt><trkpt lat="45.40365090634913" lon="8.961321778366528"><ele>118.0</ele><time>2026-03-29T10:55:09Z</time></trkpt><trkpt lat="45.40363673749654" lon="8.96110749274188"><ele>118.0</ele><time>2026-03-29T10:55:10Z</time></trkpt><trkpt lat="45.40362146553616" lon="8.960892862658786"><ele>118.0</ele><time>2026-03-29T10:55:11Z</time></trkpt><trkpt lat="45.403618094383624" lon="8.960691184055452"><ele>118.0</ele><time>2026-03-29T10:55:12Z</time></trkpt><trkpt lat="45.40360654397216" lon="8.960504140107167"><ele>118.0</ele><time>2026-03-29T10:55:13Z</time></trkpt><trkpt lat="45.403594541021725" lon="8.960328912377491"><ele>118.0</ele><time>2026-03-29T10:55:14Z</time></trkpt><trkpt lat="45.4035812905638" lon="8.960154156100062"><ele>118.00000000000001</ele><time>2026-03-29T10:55:15Z</time></trkpt><trkpt lat="45.403567581385396" lon="8.959990405762824"><ele>118.00000000000001</ele><time>2026-03-29T10:55:16Z</time></trkpt><trkpt lat="45.40355911557167" lon="8.959850323455365"><ele>118.0</ele><time>2026-03-29T10:55:17Z</time></trkpt><trkpt lat="45.40355070742953" lon="8.959728019824977"><ele>118.0</ele><time>2026-03-29T10:55:18Z</time></trkpt><trkpt lat="45.40354467310487" lon="8.959621705678275"><ele>118.0</ele><time>2026-03-29T10:55:19Z</time></trkpt><trkpt lat="45.403533632132365" lon="8.95946291249379"><ele>118.00000000000001</ele><time>2026-03-29T10:55:21Z</time></trkpt><trkpt lat="45.403524580145245" lon="8.959359396852546"><ele>118.00000000000001</ele><time>2026-03-29T10:55:24Z</time></trkpt><trkpt lat="45.403495812713665" lon="8.959243831110754"><ele>118.0</ele><time>2026-03-29T10:55:26Z</time></trkpt><trkpt lat="45.40345295988199" lon="8.959081250910549"><ele>118.0</ele><time>2026-03-29T10:55:28Z</time></trkpt><trkpt lat="45.403424469167895" lon="8.95898054200596"><ele>118.0</ele><time>2026-03-29T10:55:29Z</time></trkpt><trkpt lat="45.403387875811454" lon="8.958853376258414"><ele>118.00000000000001</ele><time>2026-03-29T10:55:30Z</time></trkpt><trkpt lat="45.403351553937796" lon="8.958726536255007"><ele>118.00000000000001</ele><time>2026-03-29T10:55:31Z</time></trkpt><trkpt lat="45.40330722084851" lon="8.958584963582071"><ele>118.0</ele><time>2026-03-29T10:55:32Z</time></trkpt><trkpt lat="45.4032655726238" lon="8.958431736783785"><ele>118.0</ele><time>2026-03-29T10:55:33Z</time></trkpt><trkpt lat="45.403222156651644" lon="8.95826366288338"><ele>117.75</ele><time>2026-03-29T10:55:34Z</time></trkpt><trkpt lat="45.403175479593656" lon="8.958087874022896"><ele>117.5</ele><time>2026-03-29T10:55:35Z</time></trkpt><trkpt lat="45.403131983427905" lon="8.957920603337119"><ele>117.25</ele><time>2026-03-29T10:55:36Z</time></trkpt><trkpt lat="45.40308584542288" lon="8.95774105959413"><ele>117.0</ele><time>2026-03-29T10:55:37Z</time></trkpt><trkpt lat="45.40303922481904" lon="8.957567019393167"><ele>116.75</ele><time>2026-03-29T10:55:38Z</time></trkpt><trkpt lat="45.40299073713415" lon="8.95739105011707"><ele>116.5</ele><time>2026-03-29T10:55:39Z</time></trkpt><trkpt lat="45.40293925496281" lon="8.957202709233062"><ele>116.25</ele><time>2026-03-29T10:55:40Z</time></trkpt><trkpt lat="45.402889561946836" lon="8.957013028300151"><ele>116.0</ele><time>2026-03-29T10:55:41Z</time></trkpt><trkpt lat="45.4028354890669" lon="8.956812083245183"><ele>116.0</ele><time>2026-03-29T10:55:42Z</time></trkpt><trkpt lat="45.40277644590613" lon="8.95658645400109"><ele>116.0</ele><time>2026-03-29T10:55:43Z</time></trkpt><trkpt lat="45.40271313635848" lon="8.956350232274513"><ele>116.0</ele><time>2026-03-29T10:55:44Z</time></trkpt><trkpt lat="45.40264635332157" lon="8.956108878286587"><ele>116.33333333333333</ele><time>2026-03-29T10:55:45Z</time></trkpt><trkpt lat="45.402578632728066" lon="8.955859389476755"><ele>116.66666666666666</ele><time>2026-03-29T10:55:46Z</time></trkpt><trkpt lat="45.40251120487673" lon="8.955596097753865"><ele>117.0</ele><time>2026-03-29T10:55:47Z</time></trkpt><trkpt lat="45.402443480191934" lon="8.955323856937925"><ele>117.0</ele><time>2026-03-29T10:55:48Z</time></trkpt><trkpt lat="45.40236963808908" lon="8.955047262235999"><ele>117.0</ele><time>2026-03-29T10:55:49Z</time></trkpt><trkpt lat="45.40229952448718" lon="8.954784270830004"><ele>117.0</ele><time>2026-03-29T10:55:50Z</time></trkpt><trkpt lat="45.40222972254225" lon="8.954527361460563"><ele>116.66666666666666</ele><time>2026-03-29T10:55:51Z</time></trkpt><trkpt lat="45.402166901290286" lon="8.954285065588865"><ele>116.33333333333333</ele><time>2026-03-29T10:55:52Z</time></trkpt><trkpt lat="45.402109754018525" lon="8.954060304247914"><ele>116.0</ele><time>2026-03-29T10:55:53Z</time></trkpt><trkpt lat="45.402053284818585" lon="8.953856054628746"><ele>116.25</ele><time>2026-03-29T10:55:54Z</time></trkpt><trkpt lat="45.402002211341426" lon="8.953663681262842"><ele>116.5</ele><time>2026-03-29T10:55:55Z</time></trkpt><trkpt lat="45.401956520394265" lon="8.95349716063525"><ele>116.75</ele><time>2026-03-29T10:55:56Z</time></trkpt><trkpt lat="45.40191844929135" lon="8.953349258721145"><ele>117.0</ele><time>2026-03-29T10:55:57Z</time></trkpt><trkpt lat="45.40188896945348" lon="8.95322425969269"><ele>117.0</ele><time>2026-03-29T10:55:58Z</time></trkpt><trkpt lat="45.401878790578536" lon="8.953101834782075"><ele>116.99999999999999</ele><time>2026-03-29T10:55:58.999Z</time></trkpt><trkpt lat="45.4019067954862" lon="8.952986056855538"><ele>116.99999999999999</ele><time>2026-03-29T10:55:59.999Z</time></trkpt><trkpt lat="45.401982766160906" lon="8.95289877310056"><ele>117.0</ele><time>2026-03-29T10:56:00.999Z</time></trkpt><trkpt lat="45.40208565341856" lon="8.952836155525137"><ele>117.0</ele><time>2026-03-29T10:56:01.999Z</time></trkpt><trkpt lat="45.40220715093024" lon="8.952805563625214"><ele>117.0</ele><time>2026-03-29T10:56:02.999Z</time></trkpt><trkpt lat="45.40232557838817" lon="8.952775407902903"><ele>117.0</ele><time>2026-03-29T10:56:03.999Z</time></trkpt><trkpt lat="45.40246386472378" lon="8.952733107109786"><ele>117.0</ele><time>2026-03-29T10:56:04.999Z</time></trkpt><trkpt lat="45.402594223306316" lon="8.952691302002277"><ele>117.0</ele><time>2026-03-29T10:56:05.999Z</time></trkpt><trkpt lat="45.40273752220395" lon="8.952641582211568"><ele>117.0</ele><time>2026-03-29T10:56:06.999Z</time></trkpt><trkpt lat="45.4028877828487" lon="8.952586103129423"><ele>117.0</ele><time>2026-03-29T10:56:07.999Z</time></trkpt><trkpt lat="45.403040385122296" lon="8.952534736694682"><ele>117.0</ele><time>2026-03-29T10:56:08.999Z</time></trkpt><trkpt lat="45.403182063380946" lon="8.952485112926254"><ele>117.0</ele><time>2026-03-29T10:56:09.999Z</time></trkpt><trkpt lat="45.40332427240042" lon="8.952436832512392"><ele>117.0</ele><time>2026-03-29T10:56:10.999Z</time></trkpt><trkpt lat="45.40347437681762" lon="8.952388811393606"><ele>117.0</ele><time>2026-03-29T10:56:11.999Z</time></trkpt><trkpt lat="45.40363036184963" lon="8.95233095998148"><ele>117.0</ele><time>2026-03-29T10:56:12.999Z</time></trkpt><trkpt lat="45.40379043011626" lon="8.952266228389696"><ele>117.0</ele><time>2026-03-29T10:56:13.999Z</time></trkpt><trkpt lat="45.40395558728564" lon="8.952204112472995"><ele>117.0</ele><time>2026-03-29T10:56:14.999Z</time></trkpt><trkpt lat="45.404122733016024" lon="8.952150571843632"><ele>116.33333333333334</ele><time>2026-03-29T10:56:15.999Z</time></trkpt><trkpt lat="45.404294340743405" lon="8.952092811530505"><ele>115.66666666666667</ele><time>2026-03-29T10:56:16.999Z</time></trkpt><trkpt lat="45.40447069983139" lon="8.952031048396368"><ele>115.0</ele><time>2026-03-29T10:56:17.999Z</time></trkpt><trkpt lat="45.404647826000094" lon="8.95196624937538"><ele>116.0</ele><time>2026-03-29T10:56:18.999Z</time></trkpt><trkpt lat="45.404836538742295" lon="8.951906376522823"><ele>117.0</ele><time>2026-03-29T10:56:19.999Z</time></trkpt><trkpt lat="45.404988160078034" lon="8.951851962049728"><ele>118.0</ele><time>2026-03-29T10:56:20.999Z</time></trkpt><trkpt lat="45.40514004529993" lon="8.951804023728059"><ele>118.0</ele><time>2026-03-29T10:56:21.999Z</time></trkpt><trkpt lat="45.40529227333404" lon="8.951753078147693"><ele>118.0</ele><time>2026-03-29T10:56:22.999Z</time></trkpt><trkpt lat="45.40544171131086" lon="8.951694573381856"><ele>118.0</ele><time>2026-03-29T10:56:23.999Z</time></trkpt><trkpt lat="45.405597079311605" lon="8.951641834559219"><ele>118.0</ele><time>2026-03-29T10:56:24.999Z</time></trkpt><trkpt lat="45.405759827895984" lon="8.951585311489366"><ele>118.0</ele><time>2026-03-29T10:56:25.999Z</time></trkpt><trkpt lat="45.40592613858081" lon="8.951527382263727"><ele>118.0</ele><time>2026-03-29T10:56:26.999Z</time></trkpt><trkpt lat="45.40609863242323" lon="8.951456564586737"><ele>118.0</ele><time>2026-03-29T10:56:27.999Z</time></trkpt><trkpt lat="45.40628326076942" lon="8.951381529731322"><ele>118.0</ele><time>2026-03-29T10:56:28.999Z</time></trkpt><trkpt lat="45.40646050612926" lon="8.951304751160837"><ele>118.0</ele><time>2026-03-29T10:56:29.999Z</time></trkpt><trkpt lat="45.40662462991225" lon="8.951215368757836"><ele>117.66666666666667</ele><time>2026-03-29T10:56:30.999Z</time></trkpt><trkpt lat="45.40677134763174" lon="8.951116443350324"><ele>117.33333333333334</ele><time>2026-03-29T10:56:31.999Z</time></trkpt><trkpt lat="45.406911341174705" lon="8.95100585358164"><ele>117.0</ele><time>2026-03-29T10:56:32.999Z</time></trkpt><trkpt lat="45.407057006738455" lon="8.950882997743218"><ele>117.66666666666666</ele><time>2026-03-29T10:56:33.999Z</time></trkpt><trkpt lat="45.407203961187854" lon="8.950748611616216"><ele>118.33333333333333</ele><time>2026-03-29T10:56:34.999Z</time></trkpt><trkpt lat="45.407350717015866" lon="8.950609447688707"><ele>119.0</ele><time>2026-03-29T10:56:35.999Z</time></trkpt><trkpt lat="45.40749320662172" lon="8.950455891036077"><ele>119.0</ele><time>2026-03-29T10:56:36.999Z</time></trkpt><trkpt lat="45.40763562410731" lon="8.950284318248237"><ele>119.0</ele><time>2026-03-29T10:56:37.999Z</time></trkpt><trkpt lat="45.40777215811015" lon="8.950104029125178"><ele>119.0</ele><time>2026-03-29T10:56:38.999Z</time></trkpt><trkpt lat="45.40790693860018" lon="8.949927120574683"><ele>118.33333333333333</ele><time>2026-03-29T10:56:39.999Z</time></trkpt><trkpt lat="45.408039385085935" lon="8.949751131810967"><ele>117.66666666666666</ele><time>2026-03-29T10:56:40.999Z</time></trkpt><trkpt lat="45.40817482238848" lon="8.949578388818724"><ele>117.0</ele><time>2026-03-29T10:56:41.999Z</time></trkpt><trkpt lat="45.408316185898514" lon="8.949418017200207"><ele>117.0</ele><time>2026-03-29T10:56:42.999Z</time></trkpt><trkpt lat="45.40845546499492" lon="8.949260283443358"><ele>117.0</ele><time>2026-03-29T10:56:43.999Z</time></trkpt><trkpt lat="45.40859378780258" lon="8.949097870580605"><ele>117.0</ele><time>2026-03-29T10:56:44.999Z</time></trkpt><trkpt lat="45.4087284576155" lon="8.94893601033365"><ele>117.33333333333334</ele><time>2026-03-29T10:56:45.999Z</time></trkpt><trkpt lat="45.40885903343564" lon="8.948768726438606"><ele>117.66666666666667</ele><time>2026-03-29T10:56:46.999Z</time></trkpt><trkpt lat="45.40898875953274" lon="8.948592476595989"><ele>118.0</ele><time>2026-03-29T10:56:47.999Z</time></trkpt><trkpt lat="45.40911169070428" lon="8.948401814589431"><ele>117.0</ele><time>2026-03-29T10:56:48.999Z</time></trkpt><trkpt lat="45.409239917257025" lon="8.948199488237343"><ele>116.0</ele><time>2026-03-29T10:56:49.999Z</time></trkpt><trkpt lat="45.40936123756244" lon="8.948012315462305"><ele>115.0</ele><time>2026-03-29T10:56:50.999Z</time></trkpt><trkpt lat="45.40947911315193" lon="8.947821052230596"><ele>115.0</ele><time>2026-03-29T10:56:51.999Z</time></trkpt><trkpt lat="45.40959316693385" lon="8.947645460250866"><ele>115.0</ele><time>2026-03-29T10:56:52.999Z</time></trkpt><trkpt lat="45.409701541832625" lon="8.947477961426344"><ele>115.0</ele><time>2026-03-29T10:56:53.999Z</time></trkpt><trkpt lat="45.40980483227602" lon="8.947314883573585"><ele>115.33333333333334</ele><time>2026-03-29T10:56:54.999Z</time></trkpt><trkpt lat="45.4099121231489" lon="8.947158748157953"><ele>115.66666666666666</ele><time>2026-03-29T10:56:55.999Z</time></trkpt><trkpt lat="45.4100266847329" lon="8.947016819631903"><ele>116.0</ele><time>2026-03-29T10:56:56.999Z</time></trkpt><trkpt lat="45.41017170670986" lon="8.94692163714494"><ele>116.0</ele><time>2026-03-29T10:56:57.999Z</time></trkpt><trkpt lat="45.41033136004237" lon="8.946847321248645"><ele>116.0</ele><time>2026-03-29T10:56:58.999Z</time></trkpt><trkpt lat="45.41050282682188" lon="8.9467643296927"><ele>116.0</ele><time>2026-03-29T10:57:00Z</time></trkpt><trkpt lat="45.41067498697407" lon="8.946674873629057"><ele>116.66666666666666</ele><time>2026-03-29T10:57:01Z</time></trkpt><trkpt lat="45.41084223916166" lon="8.946593100399893"><ele>117.33333333333334</ele><time>2026-03-29T10:57:02Z</time></trkpt><trkpt lat="45.411010157307" lon="8.946509116138973"><ele>118.0</ele><time>2026-03-29T10:57:03Z</time></trkpt><trkpt lat="45.41116525573647" lon="8.94642828932223"><ele>118.0</ele><time>2026-03-29T10:57:04Z</time></trkpt><trkpt lat="45.41131550247092" lon="8.946349184550344"><ele>118.0</ele><time>2026-03-29T10:57:05Z</time></trkpt><trkpt lat="45.41146691592052" lon="8.94627339334885"><ele>118.0</ele><time>2026-03-29T10:57:06Z</time></trkpt><trkpt lat="45.41161486097698" lon="8.946197946042767"><ele>118.0</ele><time>2026-03-29T10:57:07Z</time></trkpt><trkpt lat="45.41176222297049" lon="8.946127285032155"><ele>118.0</ele><time>2026-03-29T10:57:08Z</time></trkpt><trkpt lat="45.411898889755584" lon="8.946058856621852"><ele>118.0</ele><time>2026-03-29T10:57:09Z</time></trkpt><trkpt lat="45.41203219948879" lon="8.945972374495318"><ele>118.0</ele><time>2026-03-29T10:57:10Z</time></trkpt><trkpt lat="45.41215358496048" lon="8.945840897987539"><ele>118.66666666666667</ele><time>2026-03-29T10:57:11Z</time></trkpt><trkpt lat="45.412251133017136" lon="8.945659605118891"><ele>119.33333333333334</ele><time>2026-03-29T10:57:12Z</time></trkpt><trkpt lat="45.41233868005551" lon="8.945449489406514"><ele>120.0</ele><time>2026-03-29T10:57:13Z</time></trkpt><trkpt lat="45.41241851980324" lon="8.945218002148856"><ele>119.66666666666666</ele><time>2026-03-29T10:57:14Z</time></trkpt><trkpt lat="45.41252059933992" lon="8.944994807540331"><ele>119.33333333333333</ele><time>2026-03-29T10:57:15Z</time></trkpt><trkpt lat="45.412638517770226" lon="8.944798436449009"><ele>119.0</ele><time>2026-03-29T10:57:16Z</time></trkpt><trkpt lat="45.412764630035944" lon="8.944612043741547"><ele>119.0</ele><time>2026-03-29T10:57:17Z</time></trkpt><trkpt lat="45.41289522771222" lon="8.944434652237875"><ele>119.0</ele><time>2026-03-29T10:57:18Z</time></trkpt><trkpt lat="45.41302613250395" lon="8.944260984635529"><ele>119.0</ele><time>2026-03-29T10:57:19Z</time></trkpt><trkpt lat="45.413158934550815" lon="8.944091525937205"><ele>119.33333333333333</ele><time>2026-03-29T10:57:20Z</time></trkpt><trkpt lat="45.41328623011114" lon="8.94392212700092"><ele>119.66666666666666</ele><time>2026-03-29T10:57:21Z</time></trkpt><trkpt lat="45.413402397749614" lon="8.943762265228479"><ele>120.0</ele><time>2026-03-29T10:57:22Z</time></trkpt><trkpt lat="45.41352716822012" lon="8.943589073649434"><ele>120.0</ele><time>2026-03-29T10:57:23Z</time></trkpt><trkpt lat="45.413652424611946" lon="8.943411197936088"><ele>120.0</ele><time>2026-03-29T10:57:24Z</time></trkpt><trkpt lat="45.413765748314695" lon="8.943251622657877"><ele>120.0</ele><time>2026-03-29T10:57:25Z</time></trkpt><trkpt lat="45.41388024894853" lon="8.943101200595333"><ele>120.66666666666666</ele><time>2026-03-29T10:57:26Z</time></trkpt><trkpt lat="45.41400317859526" lon="8.942962117683518"><ele>121.33333333333333</ele><time>2026-03-29T10:57:27Z</time></trkpt><trkpt lat="45.41413852846725" lon="8.942826677872697"><ele>122.0</ele><time>2026-03-29T10:57:28Z</time></trkpt><trkpt lat="45.414287495790205" lon="8.942701702477706"><ele>122.0</ele><time>2026-03-29T10:57:29Z</time></trkpt><trkpt lat="45.41444365729824" lon="8.942580580198626"><ele>122.0</ele><time>2026-03-29T10:57:30Z</time></trkpt><trkpt lat="45.41460683472768" lon="8.942479748476382"><ele>122.0</ele><time>2026-03-29T10:57:31Z</time></trkpt><trkpt lat="45.41476655711383" lon="8.942401248303767"><ele>121.33333333333333</ele><time>2026-03-29T10:57:32Z</time></trkpt><trkpt lat="45.414916976198214" lon="8.942334481498508"><ele>120.66666666666666</ele><time>2026-03-29T10:57:33Z</time></trkpt><trkpt lat="45.41507261327905" lon="8.94226169640849"><ele>120.0</ele><time>2026-03-29T10:57:34Z</time></trkpt><trkpt lat="45.41522009401051" lon="8.942161368171574"><ele>120.0</ele><time>2026-03-29T10:57:35Z</time></trkpt><trkpt lat="45.41534971358204" lon="8.942054170560102"><ele>120.0</ele><time>2026-03-29T10:57:36Z</time></trkpt><trkpt lat="45.41546571251667" lon="8.941945993452164"><ele>120.0</ele><time>2026-03-29T10:57:37Z</time></trkpt><trkpt lat="45.415569888556796" lon="8.941839930723287"><ele>120.0</ele><time>2026-03-29T10:57:38Z</time></trkpt><trkpt lat="45.41566275456334" lon="8.941755892390942"><ele>120.2</ele><time>2026-03-29T10:57:39Z</time></trkpt><trkpt lat="45.41575256461211" lon="8.94167360447617"><ele>120.4</ele><time>2026-03-29T10:57:40Z</time></trkpt><trkpt lat="45.415829477451474" lon="8.9415918855004"><ele>120.6</ele><time>2026-03-29T10:57:41Z</time></trkpt><trkpt lat="45.41590402744698" lon="8.941532263860791"><ele>120.8</ele><time>2026-03-29T10:57:42Z</time></trkpt><trkpt lat="45.41598456481541" lon="8.941483565660857"><ele>121.0</ele><time>2026-03-29T10:57:43Z</time></trkpt><trkpt lat="45.41606175258163" lon="8.941457790459623"><ele>121.0</ele><time>2026-03-29T10:57:44Z</time></trkpt><trkpt lat="45.416179628886766" lon="8.941439255391563"><ele>121.0</ele><time>2026-03-29T10:57:46Z</time></trkpt><trkpt lat="45.416277091216145" lon="8.941441026003892"><ele>121.0</ele><time>2026-03-29T10:57:48Z</time></trkpt><trkpt lat="45.41638500315254" lon="8.941460562392974"><ele>121.0</ele><time>2026-03-29T10:57:50Z</time></trkpt><trkpt lat="45.41644859378064" lon="8.941541758953274"><ele>121.0</ele><time>2026-03-29T10:57:51Z</time></trkpt><trkpt lat="45.416513220730316" lon="8.94157108174002"><ele>121.00000000000001</ele><time>2026-03-29T10:57:52Z</time></trkpt><trkpt lat="45.41658567589512" lon="8.94157220517456"><ele>121.0</ele><time>2026-03-29T10:57:53Z</time></trkpt><trkpt lat="45.41665284888233" lon="8.94153946695177"><ele>121.0</ele><time>2026-03-29T10:57:54Z</time></trkpt><trkpt lat="45.41672409673105" lon="8.941505626074893"><ele>121.0</ele><time>2026-03-29T10:57:55Z</time></trkpt><trkpt lat="45.416768258781794" lon="8.941385039388887"><ele>121.00000000000001</ele><time>2026-03-29T10:57:56Z</time></trkpt><trkpt lat="45.41682241859891" lon="8.941284980966872"><ele>121.0</ele><time>2026-03-29T10:57:57Z</time></trkpt><trkpt lat="45.41687882203768" lon="8.941180459772845"><ele>121.0</ele><time>2026-03-29T10:57:58Z</time></trkpt><trkpt lat="45.416943048522995" lon="8.941096152182133"><ele>121.0</ele><time>2026-03-29T10:57:59Z</time></trkpt><trkpt lat="45.417029115808795" lon="8.941033273719425"><ele>121.0</ele><time>2026-03-29T10:58:00Z</time></trkpt><trkpt lat="45.41712106650222" lon="8.940991631587343"><ele>121.0</ele><time>2026-03-29T10:58:01Z</time></trkpt><trkpt lat="45.417229801575026" lon="8.940982702883817"><ele>121.0</ele><time>2026-03-29T10:58:02Z</time></trkpt><trkpt lat="45.41734986825705" lon="8.940989300123297"><ele>121.8</ele><time>2026-03-29T10:58:03Z</time></trkpt><trkpt lat="45.41746640814881" lon="8.940998769229433"><ele>122.6</ele><time>2026-03-29T10:58:04Z</time></trkpt><trkpt lat="45.41757778511819" lon="8.941000438121657"><ele>123.4</ele><time>2026-03-29T10:58:05Z</time></trkpt><trkpt lat="45.41769385213811" lon="8.941002879699683"><ele>124.2</ele><time>2026-03-29T10:58:06Z</time></trkpt><trkpt lat="45.41779158451525" lon="8.941015176105298"><ele>125.0</ele><time>2026-03-29T10:58:07Z</time></trkpt><trkpt lat="45.41789277012375" lon="8.94102559686371"><ele>124.4</ele><time>2026-03-29T10:58:08Z</time></trkpt><trkpt lat="45.41799579211424" lon="8.941030510689249"><ele>123.8</ele><time>2026-03-29T10:58:09Z</time></trkpt><trkpt lat="45.41809565584328" lon="8.941040305449532"><ele>123.19999999999999</ele><time>2026-03-29T10:58:10Z</time></trkpt><trkpt lat="45.418209068515594" lon="8.941043235912773"><ele>122.6</ele><time>2026-03-29T10:58:11Z</time></trkpt><trkpt lat="45.41831358505369" lon="8.941038465109058"><ele>122.0</ele><time>2026-03-29T10:58:12Z</time></trkpt><trkpt lat="45.41842239367362" lon="8.941034040511887"><ele>122.0</ele><time>2026-03-29T10:58:12.999Z</time></trkpt><trkpt lat="45.418517642190174" lon="8.941020582117018"><ele>121.99999999999999</ele><time>2026-03-29T10:58:13.999Z</time></trkpt><trkpt lat="45.41861061409918" lon="8.940999945922933"><ele>121.99999999999999</ele><time>2026-03-29T10:58:14.999Z</time></trkpt><trkpt lat="45.41870146527399" lon="8.94097082990703"><ele>122.0</ele><time>2026-03-29T10:58:15.999Z</time></trkpt><trkpt lat="45.41879026345018" lon="8.940938020031178"><ele>122.0</ele><time>2026-03-29T10:58:16.999Z</time></trkpt><trkpt lat="45.41888387533518" lon="8.940893339152607"><ele>122.39999999999999</ele><time>2026-03-29T10:58:17.999Z</time></trkpt><trkpt lat="45.4189704464699" lon="8.940842797157986"><ele>122.79999999999998</ele><time>2026-03-29T10:58:18.999Z</time></trkpt><trkpt lat="45.41906115257137" lon="8.940793151976553"><ele>123.2</ele><time>2026-03-29T10:58:19.999Z</time></trkpt><trkpt lat="45.41915315976785" lon="8.940746971608027"><ele>123.6</ele><time>2026-03-29T10:58:20.999Z</time></trkpt><trkpt lat="45.419246133863496" lon="8.9407005048851"><ele>124.0</ele><time>2026-03-29T10:58:21.999Z</time></trkpt><trkpt lat="45.41934148608477" lon="8.940650766343905"><ele>124.00000000000001</ele><time>2026-03-29T10:58:22.999Z</time></trkpt><trkpt lat="45.41943283979084" lon="8.94061166499123"><ele>124.0</ele><time>2026-03-29T10:58:23.999Z</time></trkpt><trkpt lat="45.41951245303201" lon="8.940578461138974"><ele>124.0</ele><time>2026-03-29T10:58:24.999Z</time></trkpt><trkpt lat="45.41959855534359" lon="8.940555879302368"><ele>124.0</ele><time>2026-03-29T10:58:25.999Z</time></trkpt><trkpt lat="45.419681793340615" lon="8.9405315126268"><ele>124.00000000000001</ele><time>2026-03-29T10:58:26.999Z</time></trkpt><trkpt lat="45.41976359321852" lon="8.94051738372434"><ele>124.0</ele><time>2026-03-29T10:58:27.999Z</time></trkpt><trkpt lat="45.419847414845826" lon="8.940506412529006"><ele>123.83333333333334</ele><time>2026-03-29T10:58:28.999Z</time></trkpt><trkpt lat="45.41993339570593" lon="8.940511765963945"><ele>123.66666666666667</ele><time>2026-03-29T10:58:29.999Z</time></trkpt><trkpt lat="45.42000935251656" lon="8.940520794701268"><ele>123.5</ele><time>2026-03-29T10:58:30.999Z</time></trkpt><trkpt lat="45.42009169347138" lon="8.940520344926828"><ele>123.33333333333334</ele><time>2026-03-29T10:58:31.999Z</time></trkpt><trkpt lat="45.420179186476545" lon="8.940506528721155"><ele>123.16666666666667</ele><time>2026-03-29T10:58:32.999Z</time></trkpt><trkpt lat="45.42026786635842" lon="8.940458485567257"><ele>123.0</ele><time>2026-03-29T10:58:33.999Z</time></trkpt><trkpt lat="45.42035631910884" lon="8.940385403147966"><ele>123.0</ele><time>2026-03-29T10:58:34.999Z</time></trkpt><trkpt lat="45.420424684726775" lon="8.94030068288351"><ele>123.0</ele><time>2026-03-29T10:58:35.999Z</time></trkpt><trkpt lat="45.420488428432925" lon="8.940225697467252"><ele>123.0</ele><time>2026-03-29T10:58:36.999Z</time></trkpt><trkpt lat="45.420551107589496" lon="8.940156694913709"><ele>123.0</ele><time>2026-03-29T10:58:37.999Z</time></trkpt><trkpt lat="45.420612505599834" lon="8.940099272714958"><ele>123.0</ele><time>2026-03-29T10:58:38.999Z</time></trkpt><trkpt lat="45.420690600950785" lon="8.94005955770116"><ele>123.0</ele><time>2026-03-29T10:58:40.999Z</time></trkpt><trkpt lat="45.42075879521898" lon="8.940186376232903"><ele>123.00000000000001</ele><time>2026-03-29T10:58:42.999Z</time></trkpt><trkpt lat="45.420780473926484" lon="8.940275310776777"><ele>123.0</ele><time>2026-03-29T10:58:43.999Z</time></trkpt><trkpt lat="45.42081255207482" lon="8.940362558061281"><ele>123.00000000000001</ele><time>2026-03-29T10:58:44.999Z</time></trkpt><trkpt lat="45.42084514419118" lon="8.9404448485482"><ele>123.00000000000001</ele><time>2026-03-29T10:58:45.999Z</time></trkpt><trkpt lat="45.42088022951072" lon="8.94054253105461"><ele>123.0</ele><time>2026-03-29T10:58:46.999Z</time></trkpt><trkpt lat="45.42092032931658" lon="8.940647853836932"><ele>123.00000000000001</ele><time>2026-03-29T10:58:47.999Z</time></trkpt><trkpt lat="45.42094803481355" lon="8.940763894230592"><ele>123.00000000000001</ele><time>2026-03-29T10:58:48.999Z</time></trkpt><trkpt lat="45.42098625446964" lon="8.94088500849258"><ele>123.0</ele><time>2026-03-29T10:58:49.999Z</time></trkpt><trkpt lat="45.42102565430243" lon="8.940997454836111"><ele>123.0</ele><time>2026-03-29T10:58:50.999Z</time></trkpt><trkpt lat="45.42106906487998" lon="8.94111260748615"><ele>123.0</ele><time>2026-03-29T10:58:51.999Z</time></trkpt><trkpt lat="45.421112626665696" lon="8.941225795477527"><ele>123.0</ele><time>2026-03-29T10:58:52.999Z</time></trkpt><trkpt lat="45.421158478466175" lon="8.94134106790562"><ele>123.0</ele><time>2026-03-29T10:58:53.999Z</time></trkpt><trkpt lat="45.42119668931915" lon="8.94144547994797"><ele>123.0</ele><time>2026-03-29T10:58:54.999Z</time></trkpt><trkpt lat="45.42123269356528" lon="8.941542395779836"><ele>123.0</ele><time>2026-03-29T10:58:55.999Z</time></trkpt><trkpt lat="45.42126331731607" lon="8.941633953770511"><ele>123.00000000000001</ele><time>2026-03-29T10:58:56.999Z</time></trkpt><trkpt lat="45.421291588797" lon="8.94171458986847"><ele>123.00000000000001</ele><time>2026-03-29T10:58:57.999Z</time></trkpt><trkpt lat="45.42132448852939" lon="8.941836863701708"><ele>123.0</ele><time>2026-03-29T10:58:59.999Z</time></trkpt><trkpt lat="45.42145991829934" lon="8.94175243372"><ele>123.0</ele><time>2026-03-29T10:59:00.999Z</time></trkpt><trkpt lat="45.4215288465263" lon="8.941679450364633"><ele>122.80000000000001</ele><time>2026-03-29T10:59:01.999Z</time></trkpt><trkpt lat="45.421603873816025" lon="8.941621054659867"><ele>122.60000000000001</ele><time>2026-03-29T10:59:02.999Z</time></trkpt><trkpt lat="45.42169586020473" lon="8.941568547910684"><ele>122.39999999999999</ele><time>2026-03-29T10:59:03.999Z</time></trkpt><trkpt lat="45.42178364618644" lon="8.94151276029309"><ele>122.19999999999999</ele><time>2026-03-29T10:59:04.999Z</time></trkpt><trkpt lat="45.42187389820464" lon="8.941452514529423"><ele>122.0</ele><time>2026-03-29T10:59:06Z</time></trkpt><trkpt lat="45.4219612184575" lon="8.94138811526844"><ele>122.0</ele><time>2026-03-29T10:59:07Z</time></trkpt><trkpt lat="45.42204906929409" lon="8.941322734500575"><ele>121.99999999999999</ele><time>2026-03-29T10:59:08Z</time></trkpt><trkpt lat="45.4221415506328" lon="8.941261823378923"><ele>121.99999999999999</ele><time>2026-03-29T10:59:09Z</time></trkpt><trkpt lat="45.42222538773575" lon="8.941207778352206"><ele>122.0</ele><time>2026-03-29T10:59:10Z</time></trkpt><trkpt lat="45.422311252200636" lon="8.941159804973772"><ele>122.0</ele><time>2026-03-29T10:59:11Z</time></trkpt><trkpt lat="45.422394845189466" lon="8.94111970387651"><ele>121.99999999999999</ele><time>2026-03-29T10:59:12Z</time></trkpt><trkpt lat="45.42247063045047" lon="8.941069798686547"><ele>122.0</ele><time>2026-03-29T10:59:13Z</time></trkpt><trkpt lat="45.422534804270335" lon="8.940996603228228"><ele>122.0</ele><time>2026-03-29T10:59:14Z</time></trkpt><trkpt lat="45.42259637675708" lon="8.940941614705636"><ele>122.0</ele><time>2026-03-29T10:59:15Z</time></trkpt><trkpt lat="45.422656430268596" lon="8.940895044757943"><ele>121.99999999999999</ele><time>2026-03-29T10:59:16Z</time></trkpt><trkpt lat="45.42271731604862" lon="8.940859259320154"><ele>122.0</ele><time>2026-03-29T10:59:17Z</time></trkpt><trkpt lat="45.42283481754596" lon="8.940780279396348"><ele>122.16666666666666</ele><time>2026-03-29T10:59:19Z</time></trkpt><trkpt lat="45.42289701466517" lon="8.940738175535893"><ele>122.33333333333333</ele><time>2026-03-29T10:59:20Z</time></trkpt><trkpt lat="45.42296903517714" lon="8.940695297182502"><ele>122.5</ele><time>2026-03-29T10:59:21Z</time></trkpt><trkpt lat="45.42303869735887" lon="8.940644724959776"><ele>122.66666666666666</ele><time>2026-03-29T10:59:22Z</time></trkpt><trkpt lat="45.42311219549283" lon="8.940596851101159"><ele>122.83333333333333</ele><time>2026-03-29T10:59:23Z</time></trkpt><trkpt lat="45.423175467378115" lon="8.940550131531202"><ele>123.0</ele><time>2026-03-29T10:59:24Z</time></trkpt><trkpt lat="45.4232790105515" lon="8.940469637085966"><ele>123.4</ele><time>2026-03-29T10:59:26Z</time></trkpt><trkpt lat="45.423363394588804" lon="8.940408183517757"><ele>123.80000000000001</ele><time>2026-03-29T10:59:28Z</time></trkpt><trkpt lat="45.42342898660894" lon="8.940360331131874"><ele>124.2</ele><time>2026-03-29T10:59:30Z</time></trkpt><trkpt lat="45.42341809344665" lon="8.940185280520964"><ele>124.6</ele><time>2026-03-29T10:59:33Z</time></trkpt><trkpt lat="45.42334909943164" lon="8.940044735860003"><ele>125.0</ele><time>2026-03-29T10:59:35Z</time></trkpt><trkpt lat="45.42327817662081" lon="8.939903046723831"><ele>125.0</ele><time>2026-03-29T10:59:37Z</time></trkpt><trkpt lat="45.423241390959646" lon="8.939823865373171"><ele>125.0</ele><time>2026-03-29T10:59:38Z</time></trkpt><trkpt lat="45.42319807360549" lon="8.93973093668249"><ele>125.0</ele><time>2026-03-29T10:59:39Z</time></trkpt><trkpt lat="45.42315676784381" lon="8.939643201143854"><ele>125.0</ele><time>2026-03-29T10:59:40Z</time></trkpt><trkpt lat="45.423114363087564" lon="8.93955735452677"><ele>125.0</ele><time>2026-03-29T10:59:41Z</time></trkpt><trkpt lat="45.42307258280986" lon="8.939463949618618"><ele>125.0</ele><time>2026-03-29T10:59:42Z</time></trkpt><trkpt lat="45.42303179981976" lon="8.93937190874923"><ele>125.0</ele><time>2026-03-29T10:59:43Z</time></trkpt><trkpt lat="45.42299119246538" lon="8.939283245296817"><ele>124.99999999999999</ele><time>2026-03-29T10:59:44Z</time></trkpt><trkpt lat="45.422949464907525" lon="8.939182492772812"><ele>125.0</ele><time>2026-03-29T10:59:45Z</time></trkpt><trkpt lat="45.422911894666285" lon="8.939082440605896"><ele>125.0</ele><time>2026-03-29T10:59:46Z</time></trkpt><trkpt lat="45.42287987159154" lon="8.938971604572082"><ele>125.0</ele><time>2026-03-29T10:59:47Z</time></trkpt><trkpt lat="45.42286351484205" lon="8.938864760861154"><ele>124.99999999999999</ele><time>2026-03-29T10:59:48Z</time></trkpt><trkpt lat="45.422862792908354" lon="8.938749966688974"><ele>125.0</ele><time>2026-03-29T10:59:49Z</time></trkpt><trkpt lat="45.42285876846992" lon="8.938635110019934"><ele>124.99999999999999</ele><time>2026-03-29T10:59:50Z</time></trkpt><trkpt lat="45.42285756013957" lon="8.938533018244236"><ele>125.0</ele><time>2026-03-29T10:59:51Z</time></trkpt><trkpt lat="45.422862303513504" lon="8.938439412424266"><ele>125.0</ele><time>2026-03-29T10:59:52Z</time></trkpt><trkpt lat="45.42287723586984" lon="8.938266190544866"><ele>125.0</ele><time>2026-03-29T10:59:54Z</time></trkpt><trkpt lat="45.422888782679316" lon="8.938119982956271"><ele>124.99999999999999</ele><time>2026-03-29T10:59:56Z</time></trkpt><trkpt lat="45.422891992439865" lon="8.938015063974843"><ele>125.0</ele><time>2026-03-29T10:59:58Z</time></trkpt><trkpt lat="45.42288197439824" lon="8.937921252126205"><ele>124.99999999999999</ele><time>2026-03-29T11:00:00Z</time></trkpt><trkpt lat="45.422800261672435" lon="8.93783308708562"><ele>125.0</ele><time>2026-03-29T11:00:02Z</time></trkpt><trkpt lat="45.42270562425887" lon="8.93774187820846"><ele>125.0</ele><time>2026-03-29T11:00:04Z</time></trkpt><trkpt lat="45.42264341184926" lon="8.937674123689057"><ele>125.0</ele><time>2026-03-29T11:00:05Z</time></trkpt><trkpt lat="45.42259077137247" lon="8.937609755560718"><ele>124.99999999999999</ele><time>2026-03-29T11:00:06Z</time></trkpt><trkpt lat="45.42253862493118" lon="8.937532423724099"><ele>125.0</ele><time>2026-03-29T11:00:07Z</time></trkpt><trkpt lat="45.42248909429819" lon="8.937445433102155"><ele>124.66666666666666</ele><time>2026-03-29T11:00:08Z</time></trkpt><trkpt lat="45.42244235020777" lon="8.937355742004197"><ele>124.33333333333333</ele><time>2026-03-29T11:00:09Z</time></trkpt><trkpt lat="45.42240007793302" lon="8.937264985628486"><ele>124.0</ele><time>2026-03-29T11:00:10Z</time></trkpt><trkpt lat="45.422366767017245" lon="8.93717766693284"><ele>123.66666666666666</ele><time>2026-03-29T11:00:11Z</time></trkpt><trkpt lat="45.4223095189374" lon="8.93701572881306"><ele>123.33333333333333</ele><time>2026-03-29T11:00:13Z</time></trkpt><trkpt lat="45.4222790851571" lon="8.936924375562343"><ele>123.0</ele><time>2026-03-29T11:00:14Z</time></trkpt><trkpt lat="45.422254794425974" lon="8.936821788908404"><ele>123.0</ele><time>2026-03-29T11:00:15Z</time></trkpt><trkpt lat="45.4222414450684" lon="8.936714051569433"><ele>123.0</ele><time>2026-03-29T11:00:16Z</time></trkpt><trkpt lat="45.42223593832677" lon="8.936593619546661"><ele>123.0</ele><time>2026-03-29T11:00:16.999Z</time></trkpt><trkpt lat="45.42222988480856" lon="8.936464832874877"><ele>123.0</ele><time>2026-03-29T11:00:17.999Z</time></trkpt><trkpt lat="45.42222140812069" lon="8.936335005217991"><ele>123.0</ele><time>2026-03-29T11:00:18.999Z</time></trkpt><trkpt lat="45.42221223436653" lon="8.936222650977905"><ele>123.0</ele><time>2026-03-29T11:00:19.999Z</time></trkpt><trkpt lat="45.42220816152256" lon="8.936110228169605"><ele>123.0</ele><time>2026-03-29T11:00:20.999Z</time></trkpt><trkpt lat="45.42220378324616" lon="8.936007696722989"><ele>123.00000000000001</ele><time>2026-03-29T11:00:21.999Z</time></trkpt><trkpt lat="45.42219888649035" lon="8.935844839337962"><ele>123.00000000000001</ele><time>2026-03-29T11:00:23.999Z</time></trkpt><trkpt lat="45.42219644360125" lon="8.935704709123202"><ele>123.0</ele><time>2026-03-29T11:00:25.999Z</time></trkpt><trkpt lat="45.422252755563186" lon="8.935590994286072"><ele>123.0</ele><time>2026-03-29T11:00:29.999Z</time></trkpt><trkpt lat="45.422324450292415" lon="8.93552764983477"><ele>123.0</ele><time>2026-03-29T11:00:31.999Z</time></trkpt><trkpt lat="45.42242787834407" lon="8.935455294080656"><ele>123.00000000000001</ele><time>2026-03-29T11:00:33.999Z</time></trkpt><trkpt lat="45.42255402751368" lon="8.935395403730704"><ele>123.00000000000001</ele><time>2026-03-29T11:00:35.999Z</time></trkpt><trkpt lat="45.422618524232476" lon="8.935348576833894"><ele>123.0</ele><time>2026-03-29T11:00:36.999Z</time></trkpt><trkpt lat="45.422675583704205" lon="8.93529406065046"><ele>123.0</ele><time>2026-03-29T11:00:37.999Z</time></trkpt><trkpt lat="45.42273802497014" lon="8.935237130498418"><ele>123.0</ele><time>2026-03-29T11:00:38.999Z</time></trkpt><trkpt lat="45.42279266296546" lon="8.935141558997293"><ele>123.0</ele><time>2026-03-29T11:00:39.999Z</time></trkpt><trkpt lat="45.422862057730654" lon="8.935064649839392"><ele>123.0</ele><time>2026-03-29T11:00:40.999Z</time></trkpt><trkpt lat="45.42291947873952" lon="8.934985613641587"><ele>123.0</ele><time>2026-03-29T11:00:41.999Z</time></trkpt><trkpt lat="45.42299457191536" lon="8.934916956139572"><ele>123.0</ele><time>2026-03-29T11:00:42.999Z</time></trkpt><trkpt lat="45.42305769455143" lon="8.934833192816027"><ele>123.0</ele><time>2026-03-29T11:00:43.999Z</time></trkpt><trkpt lat="45.423121787676074" lon="8.934745605368564"><ele>122.80000000000001</ele><time>2026-03-29T11:00:44.999Z</time></trkpt><trkpt lat="45.423182484632264" lon="8.93465711599268"><ele>122.60000000000001</ele><time>2026-03-29T11:00:45.999Z</time></trkpt><trkpt lat="45.423241283854836" lon="8.93456007591775"><ele>122.39999999999999</ele><time>2026-03-29T11:00:46.999Z</time></trkpt><trkpt lat="45.423302690942414" lon="8.934467056655325"><ele>122.19999999999999</ele><time>2026-03-29T11:00:47.999Z</time></trkpt><trkpt lat="45.42337374975357" lon="8.934385330774237"><ele>122.0</ele><time>2026-03-29T11:00:48.999Z</time></trkpt><trkpt lat="45.42345273573053" lon="8.934307135157683"><ele>122.19999999999999</ele><time>2026-03-29T11:00:49.999Z</time></trkpt><trkpt lat="45.423537685194965" lon="8.934220080175805"><ele>122.39999999999999</ele><time>2026-03-29T11:00:50.999Z</time></trkpt><trkpt lat="45.42362340549202" lon="8.934126499404"><ele>122.60000000000001</ele><time>2026-03-29T11:00:51.999Z</time></trkpt><trkpt lat="45.42371308310131" lon="8.934044012679308"><ele>122.80000000000001</ele><time>2026-03-29T11:00:52.999Z</time></trkpt><trkpt lat="45.42380123260258" lon="8.933962814869977"><ele>123.0</ele><time>2026-03-29T11:00:53.999Z</time></trkpt><trkpt lat="45.42388681011987" lon="8.933870999416369"><ele>122.60000000000001</ele><time>2026-03-29T11:00:54.999Z</time></trkpt><trkpt lat="45.42397155920982" lon="8.933782012112014"><ele>122.20000000000002</ele><time>2026-03-29T11:00:55.999Z</time></trkpt><trkpt lat="45.42405926259125" lon="8.933690184818827"><ele>121.8</ele><time>2026-03-29T11:00:56.999Z</time></trkpt><trkpt lat="45.42414424159564" lon="8.933602251274381"><ele>121.4</ele><time>2026-03-29T11:00:57.999Z</time></trkpt><trkpt lat="45.424233617166436" lon="8.933522515592637"><ele>121.0</ele><time>2026-03-29T11:00:58.999Z</time></trkpt><trkpt lat="45.424324468377414" lon="8.93344098570805"><ele>121.19999999999999</ele><time>2026-03-29T11:00:59.999Z</time></trkpt><trkpt lat="45.42441668025207" lon="8.933363321616142"><ele>121.39999999999999</ele><time>2026-03-29T11:01:00.999Z</time></trkpt><trkpt lat="45.424507229106865" lon="8.933282626867992"><ele>121.6</ele><time>2026-03-29T11:01:01.999Z</time></trkpt><trkpt lat="45.42460026220711" lon="8.933202672268942"><ele>121.8</ele><time>2026-03-29T11:01:02.999Z</time></trkpt><trkpt lat="45.4246933740989" lon="8.933119531782966"><ele>122.0</ele><time>2026-03-29T11:01:03.999Z</time></trkpt><trkpt lat="45.4247954927691" lon="8.933034303365508"><ele>122.25</ele><time>2026-03-29T11:01:04.999Z</time></trkpt><trkpt lat="45.42489725974755" lon="8.932940925162317"><ele>122.5</ele><time>2026-03-29T11:01:05.999Z</time></trkpt><trkpt lat="45.425000937457924" lon="8.932850147829772"><ele>122.75</ele><time>2026-03-29T11:01:06.999Z</time></trkpt><trkpt lat="45.42509644226835" lon="8.932761383813556"><ele>123.0</ele><time>2026-03-29T11:01:07.999Z</time></trkpt><trkpt lat="45.4251936178774" lon="8.932670267429668"><ele>123.0</ele><time>2026-03-29T11:01:08.999Z</time></trkpt><trkpt lat="45.42530136994794" lon="8.932598003758452"><ele>123.00000000000001</ele><time>2026-03-29T11:01:09.999Z</time></trkpt><trkpt lat="45.42539135372331" lon="8.932507854049632"><ele>123.00000000000001</ele><time>2026-03-29T11:01:10.999Z</time></trkpt><trkpt lat="45.42547603771116" lon="8.932412867150312"><ele>123.0</ele><time>2026-03-29T11:01:12Z</time></trkpt><trkpt lat="45.425558457887135" lon="8.932319768131906"><ele>123.0</ele><time>2026-03-29T11:01:13Z</time></trkpt><trkpt lat="45.42563773407297" lon="8.932223543840928"><ele>123.0</ele><time>2026-03-29T11:01:14Z</time></trkpt><trkpt lat="45.425716459785484" lon="8.932127696350573"><ele>123.00000000000001</ele><time>2026-03-29T11:01:15Z</time></trkpt><trkpt lat="45.42578849863243" lon="8.932032904353237"><ele>123.00000000000001</ele><time>2026-03-29T11:01:16Z</time></trkpt><trkpt lat="45.425859103719404" lon="8.931936548597417"><ele>123.0</ele><time>2026-03-29T11:01:17Z</time></trkpt><trkpt lat="45.42593723471599" lon="8.931847461462837"><ele>123.0</ele><time>2026-03-29T11:01:18Z</time></trkpt><trkpt lat="45.42602170875953" lon="8.931762075391896"><ele>122.75</ele><time>2026-03-29T11:01:19Z</time></trkpt><trkpt lat="45.426120334842466" lon="8.931682465809528"><ele>122.5</ele><time>2026-03-29T11:01:20Z</time></trkpt><trkpt lat="45.42623402975258" lon="8.931620447493017"><ele>122.25</ele><time>2026-03-29T11:01:21Z</time></trkpt><trkpt lat="45.426356288783545" lon="8.931579818210055"><ele>122.0</ele><time>2026-03-29T11:01:22Z</time></trkpt><trkpt lat="45.42648264613545" lon="8.931549575404535"><ele>122.75</ele><time>2026-03-29T11:01:23Z</time></trkpt><trkpt lat="45.42660961564179" lon="8.931532683045907"><ele>123.5</ele><time>2026-03-29T11:01:24Z</time></trkpt><trkpt lat="45.426739137995646" lon="8.931519965093232"><ele>124.25</ele><time>2026-03-29T11:01:25Z</time></trkpt><trkpt lat="45.426871457318875" lon="8.931513605608325"><ele>125.0</ele><time>2026-03-29T11:01:26Z</time></trkpt><trkpt lat="45.42700382070517" lon="8.931513795816613"><ele>125.0</ele><time>2026-03-29T11:01:27Z</time></trkpt><trkpt lat="45.427133293774254" lon="8.931511694523365"><ele>125.0</ele><time>2026-03-29T11:01:28Z</time></trkpt><trkpt lat="45.42726334827278" lon="8.931522377989161"><ele>125.0</ele><time>2026-03-29T11:01:29Z</time></trkpt><trkpt lat="45.42739872447309" lon="8.931522287707727"><ele>125.0</ele><time>2026-03-29T11:01:30Z</time></trkpt><trkpt lat="45.427521626174645" lon="8.931490117847071"><ele>124.75</ele><time>2026-03-29T11:01:31Z</time></trkpt><trkpt lat="45.42765722356813" lon="8.931457126258403"><ele>124.5</ele><time>2026-03-29T11:01:32Z</time></trkpt><trkpt lat="45.42780954592767" lon="8.931425620691261"><ele>124.25</ele><time>2026-03-29T11:01:33Z</time></trkpt><trkpt lat="45.42796281006852" lon="8.931391467202921"><ele>124.0</ele><time>2026-03-29T11:01:34Z</time></trkpt><trkpt lat="45.42812061112436" lon="8.931354535922974"><ele>124.0</ele><time>2026-03-29T11:01:35Z</time></trkpt><trkpt lat="45.42827707538642" lon="8.931315733263062"><ele>124.0</ele><time>2026-03-29T11:01:36Z</time></trkpt><trkpt lat="45.428438301618336" lon="8.93127656277992"><ele>124.0</ele><time>2026-03-29T11:01:37Z</time></trkpt><trkpt lat="45.42859988721872" lon="8.931240963681528"><ele>124.0</ele><time>2026-03-29T11:01:38Z</time></trkpt><trkpt lat="45.42875620445124" lon="8.931210017601341"><ele>124.0</ele><time>2026-03-29T11:01:39Z</time></trkpt><trkpt lat="45.42891543115636" lon="8.931176678489459"><ele>124.0</ele><time>2026-03-29T11:01:40Z</time></trkpt><trkpt lat="45.42907545180847" lon="8.931135495165554"><ele>123.66666666666667</ele><time>2026-03-29T11:01:41Z</time></trkpt><trkpt lat="45.429237058445686" lon="8.93109214889192"><ele>123.33333333333334</ele><time>2026-03-29T11:01:42Z</time></trkpt><trkpt lat="45.429404734460476" lon="8.931043177756637"><ele>123.0</ele><time>2026-03-29T11:01:43Z</time></trkpt><trkpt lat="45.42958287867292" lon="8.93098587029761"><ele>122.66666666666666</ele><time>2026-03-29T11:01:44Z</time></trkpt><trkpt lat="45.42975551936686" lon="8.930925816618672"><ele>122.33333333333333</ele><time>2026-03-29T11:01:45Z</time></trkpt><trkpt lat="45.42992474480997" lon="8.930859241738856"><ele>122.0</ele><time>2026-03-29T11:01:46Z</time></trkpt><trkpt lat="45.43009265387762" lon="8.930787261539654"><ele>122.66666666666666</ele><time>2026-03-29T11:01:47Z</time></trkpt><trkpt lat="45.43025925015044" lon="8.930716291823872"><ele>123.33333333333334</ele><time>2026-03-29T11:01:48Z</time></trkpt><trkpt lat="45.4304281203389" lon="8.93064338619275"><ele>124.0</ele><time>2026-03-29T11:01:49Z</time></trkpt><trkpt lat="45.430598804145205" lon="8.930570787249335"><ele>124.33333333333334</ele><time>2026-03-29T11:01:50Z</time></trkpt><trkpt lat="45.43076539438924" lon="8.930497423482306"><ele>124.66666666666666</ele><time>2026-03-29T11:01:51Z</time></trkpt><trkpt lat="45.43092406741544" lon="8.930417149263135"><ele>125.0</ele><time>2026-03-29T11:01:52Z</time></trkpt><trkpt lat="45.431069149640216" lon="8.930342255325927"><ele>125.0</ele><time>2026-03-29T11:01:53Z</time></trkpt><trkpt lat="45.431201640627776" lon="8.930282235041808"><ele>125.0</ele><time>2026-03-29T11:01:54Z</time></trkpt><trkpt lat="45.431337454567895" lon="8.930221444804934"><ele>125.0</ele><time>2026-03-29T11:01:55Z</time></trkpt><trkpt lat="45.43147023263917" lon="8.930167874426783"><ele>125.0</ele><time>2026-03-29T11:01:56Z</time></trkpt><trkpt lat="45.43158237828878" lon="8.930121531354795"><ele>125.0</ele><time>2026-03-29T11:01:57Z</time></trkpt><trkpt lat="45.43169713507809" lon="8.930105514022943"><ele>125.0</ele><time>2026-03-29T11:01:58Z</time></trkpt><trkpt lat="45.431795591539824" lon="8.930057540978803"><ele>125.0</ele><time>2026-03-29T11:01:59Z</time></trkpt><trkpt lat="45.431891975237825" lon="8.930063854909246"><ele>125.0</ele><time>2026-03-29T11:02:00Z</time></trkpt><trkpt lat="45.43197176269716" lon="8.930146271616016"><ele>125.0</ele><time>2026-03-29T11:02:01Z</time></trkpt><trkpt lat="45.432023980666145" lon="8.9302580027196"><ele>124.75</ele><time>2026-03-29T11:02:02Z</time></trkpt><trkpt lat="45.432048245334336" lon="8.930419230174207"><ele>124.5</ele><time>2026-03-29T11:02:03Z</time></trkpt><trkpt lat="45.432090060775636" lon="8.930586524873087"><ele>124.25</ele><time>2026-03-29T11:02:04Z</time></trkpt><trkpt lat="45.432111077024004" lon="8.930739110022111"><ele>124.0</ele><time>2026-03-29T11:02:05Z</time></trkpt><trkpt lat="45.43213350786793" lon="8.930907558520992"><ele>123.75</ele><time>2026-03-29T11:02:06Z</time></trkpt><trkpt lat="45.43216102357391" lon="8.931081383442724"><ele>123.5</ele><time>2026-03-29T11:02:07Z</time></trkpt><trkpt lat="45.432186136051214" lon="8.931252393452885"><ele>123.25</ele><time>2026-03-29T11:02:08Z</time></trkpt><trkpt lat="45.43221063979389" lon="8.931411803307896"><ele>123.0</ele><time>2026-03-29T11:02:09Z</time></trkpt><trkpt lat="45.43223227917407" lon="8.931550535834804"><ele>123.0</ele><time>2026-03-29T11:02:10Z</time></trkpt><trkpt lat="45.43226831396747" lon="8.931670895448088"><ele>123.00000000000001</ele><time>2026-03-29T11:02:11Z</time></trkpt><trkpt lat="45.4323308542385" lon="8.931756889094125"><ele>123.00000000000001</ele><time>2026-03-29T11:02:12Z</time></trkpt><trkpt lat="45.432411703536815" lon="8.931824380823656"><ele>123.0</ele><time>2026-03-29T11:02:13Z</time></trkpt><trkpt lat="45.432516830250464" lon="8.931802741456604"><ele>123.0</ele><time>2026-03-29T11:02:14Z</time></trkpt><trkpt lat="45.43262731358728" lon="8.931760840811274"><ele>123.0</ele><time>2026-03-29T11:02:15Z</time></trkpt><trkpt lat="45.432742825463215" lon="8.931715143982748"><ele>123.0</ele><time>2026-03-29T11:02:16Z</time></trkpt><trkpt lat="45.432865256587384" lon="8.931674969742433"><ele>123.0</ele><time>2026-03-29T11:02:16.999Z</time></trkpt><trkpt lat="45.43299747430949" lon="8.93163034672835"><ele>123.0</ele><time>2026-03-29T11:02:17.999Z</time></trkpt><trkpt lat="45.433136805734584" lon="8.931583160090284"><ele>123.66666666666666</ele><time>2026-03-29T11:02:18.999Z</time></trkpt><trkpt lat="45.43328702553397" lon="8.931533227340582"><ele>124.33333333333333</ele><time>2026-03-29T11:02:19.999Z</time></trkpt><trkpt lat="45.433439935960806" lon="8.93148253173499"><ele>125.0</ele><time>2026-03-29T11:02:20.999Z</time></trkpt><trkpt lat="45.4335965348726" lon="8.931423981386622"><ele>125.0</ele><time>2026-03-29T11:02:21.999Z</time></trkpt><trkpt lat="45.43376093277006" lon="8.931366142238863"><ele>125.0</ele><time>2026-03-29T11:02:22.999Z</time></trkpt><trkpt lat="45.43393249764206" lon="8.931304700191259"><ele>125.0</ele><time>2026-03-29T11:02:23.999Z</time></trkpt><trkpt lat="45.43411340607756" lon="8.93124192978048"><ele>125.0</ele><time>2026-03-29T11:02:24.999Z</time></trkpt><trkpt lat="45.43429966822197" lon="8.931173499245757"><ele>125.0</ele><time>2026-03-29T11:02:25.999Z</time></trkpt><trkpt lat="45.43449965191863" lon="8.931104235216955"><ele>125.0</ele><time>2026-03-29T11:02:26.999Z</time></trkpt><trkpt lat="45.43471107403937" lon="8.931033833957997"><ele>125.0</ele><time>2026-03-29T11:02:27.999Z</time></trkpt><trkpt lat="45.43492568920723" lon="8.930965621080885"><ele>125.0</ele><time>2026-03-29T11:02:28.999Z</time></trkpt><trkpt lat="45.435132917979615" lon="8.930900604590654"><ele>125.0</ele><time>2026-03-29T11:02:29.999Z</time></trkpt><trkpt lat="45.43533199947633" lon="8.930838945412276"><ele>124.66666666666666</ele><time>2026-03-29T11:02:30.999Z</time></trkpt><trkpt lat="45.43553316032569" lon="8.930777444551996"><ele>124.33333333333334</ele><time>2026-03-29T11:02:31.999Z</time></trkpt><trkpt lat="45.43573097145617" lon="8.93071692480878"><ele>124.0</ele><time>2026-03-29T11:02:32.999Z</time></trkpt><trkpt lat="45.43592277273726" lon="8.930652732139544"><ele>124.0</ele><time>2026-03-29T11:02:33.999Z</time></trkpt><trkpt lat="45.43609098285753" lon="8.930599908071617"><ele>124.0</ele><time>2026-03-29T11:02:34.999Z</time></trkpt><trkpt lat="45.4362523718734" lon="8.930549770797093"><ele>124.0</ele><time>2026-03-29T11:02:35.999Z</time></trkpt><trkpt lat="45.43640762064144" lon="8.930499685055608"><ele>124.66666666666667</ele><time>2026-03-29T11:02:36.999Z</time></trkpt><trkpt lat="45.436555753488" lon="8.93044934135834"><ele>125.33333333333334</ele><time>2026-03-29T11:02:37.999Z</time></trkpt><trkpt lat="45.43671098605746" lon="8.930403113031547"><ele>126.0</ele><time>2026-03-29T11:02:38.999Z</time></trkpt><trkpt lat="45.43687150753944" lon="8.930351855829443"><ele>126.0</ele><time>2026-03-29T11:02:39.999Z</time></trkpt><trkpt lat="45.43703441881112" lon="8.930286073541074"><ele>126.0</ele><time>2026-03-29T11:02:40.999Z</time></trkpt><trkpt lat="45.43720055963635" lon="8.930203232891062"><ele>126.0</ele><time>2026-03-29T11:02:41.999Z</time></trkpt><trkpt lat="45.43736736981628" lon="8.930100104981282"><ele>125.66666666666666</ele><time>2026-03-29T11:02:42.999Z</time></trkpt><trkpt lat="45.437548277647544" lon="8.930010730164508"><ele>125.33333333333333</ele><time>2026-03-29T11:02:43.999Z</time></trkpt><trkpt lat="45.4377353336872" lon="8.92989375145802"><ele>125.0</ele><time>2026-03-29T11:02:44.999Z</time></trkpt><trkpt lat="45.43793010808366" lon="8.929755724910697"><ele>124.66666666666666</ele><time>2026-03-29T11:02:45.999Z</time></trkpt><trkpt lat="45.438118079205466" lon="8.929587932498631"><ele>124.33333333333334</ele><time>2026-03-29T11:02:46.999Z</time></trkpt><trkpt lat="45.43832860812346" lon="8.929477835654257"><ele>124.0</ele><time>2026-03-29T11:02:47.999Z</time></trkpt><trkpt lat="45.43854720575994" lon="8.929370310101524"><ele>124.0</ele><time>2026-03-29T11:02:48.999Z</time></trkpt><trkpt lat="45.438775786860994" lon="8.929277717696984"><ele>124.0</ele><time>2026-03-29T11:02:49.999Z</time></trkpt><trkpt lat="45.43901079750853" lon="8.929164662659085"><ele>124.5</ele><time>2026-03-29T11:02:50.999Z</time></trkpt><trkpt lat="45.43923647697416" lon="8.9290286338697"><ele>125.0</ele><time>2026-03-29T11:02:51.999Z</time></trkpt><trkpt lat="45.439458037505645" lon="8.928899801854472"><ele>125.66666666666666</ele><time>2026-03-29T11:02:52.999Z</time></trkpt><trkpt lat="45.43965882599448" lon="8.928770948859265"><ele>126.33333333333334</ele><time>2026-03-29T11:02:53.999Z</time></trkpt><trkpt lat="45.43985155427187" lon="8.928687994607671"><ele>127.0</ele><time>2026-03-29T11:02:54.999Z</time></trkpt><trkpt lat="45.440027699885796" lon="8.928612049324006"><ele>127.0</ele><time>2026-03-29T11:02:55.999Z</time></trkpt><trkpt lat="45.44019246592378" lon="8.928537369786929"><ele>127.0</ele><time>2026-03-29T11:02:56.999Z</time></trkpt><trkpt lat="45.44034356990907" lon="8.92847087414944"><ele>127.0</ele><time>2026-03-29T11:02:57.999Z</time></trkpt><trkpt lat="45.44048711122082" lon="8.928411555361215"><ele>127.25</ele><time>2026-03-29T11:02:58.999Z</time></trkpt><trkpt lat="45.440613049675285" lon="8.928360969264244"><ele>127.5</ele><time>2026-03-29T11:02:59.999Z</time></trkpt><trkpt lat="45.44073503168168" lon="8.92831581265661"><ele>127.75</ele><time>2026-03-29T11:03:00.999Z</time></trkpt><trkpt lat="45.44084461134279" lon="8.92829013985654"><ele>128.0</ele><time>2026-03-29T11:03:01.999Z</time></trkpt><trkpt lat="45.44096245388703" lon="8.92830323898464"><ele>127.75</ele><time>2026-03-29T11:03:02.999Z</time></trkpt><trkpt lat="45.44106203492105" lon="8.92840356904702"><ele>127.5</ele><time>2026-03-29T11:03:03.999Z</time></trkpt><trkpt lat="45.44117494253265" lon="8.928462873248304"><ele>127.25</ele><time>2026-03-29T11:03:04.999Z</time></trkpt><trkpt lat="45.44130758902156" lon="8.928455779660156"><ele>127.0</ele><time>2026-03-29T11:03:05.999Z</time></trkpt><trkpt lat="45.44144076626546" lon="8.928417054158762"><ele>127.5</ele><time>2026-03-29T11:03:06.999Z</time></trkpt><trkpt lat="45.44158180707506" lon="8.92836775514562"><ele>128.0</ele><time>2026-03-29T11:03:07.999Z</time></trkpt><trkpt lat="45.44172955899965" lon="8.928318105604212"><ele>128.5</ele><time>2026-03-29T11:03:08.999Z</time></trkpt><trkpt lat="45.44187316672146" lon="8.928278466448393"><ele>129.0</ele><time>2026-03-29T11:03:09.999Z</time></trkpt><trkpt lat="45.44201980115692" lon="8.928236668134396"><ele>128.33333333333334</ele><time>2026-03-29T11:03:10.999Z</time></trkpt><trkpt lat="45.44216819085462" lon="8.928198320274758"><ele>127.66666666666667</ele><time>2026-03-29T11:03:11.999Z</time></trkpt><trkpt lat="45.442317597901535" lon="8.92815807038665"><ele>127.0</ele><time>2026-03-29T11:03:12.999Z</time></trkpt><trkpt lat="45.4424643437525" lon="8.928117341734808"><ele>127.0</ele><time>2026-03-29T11:03:13.999Z</time></trkpt><trkpt lat="45.44260163170852" lon="8.928072477532076"><ele>127.0</ele><time>2026-03-29T11:03:14.999Z</time></trkpt><trkpt lat="45.44273635772429" lon="8.92802831962086"><ele>127.0</ele><time>2026-03-29T11:03:15.999Z</time></trkpt><trkpt lat="45.442869106835815" lon="8.927990488508202"><ele>127.0</ele><time>2026-03-29T11:03:16.999Z</time></trkpt><trkpt lat="45.44299512631975" lon="8.927955354383455"><ele>127.25</ele><time>2026-03-29T11:03:18Z</time></trkpt><trkpt lat="45.44312805828359" lon="8.927914236758784"><ele>127.5</ele><time>2026-03-29T11:03:19Z</time></trkpt><trkpt lat="45.44324840897185" lon="8.927876133074683"><ele>127.75</ele><time>2026-03-29T11:03:20Z</time></trkpt><trkpt lat="45.4433633912472" lon="8.927837587530812"><ele>128.0</ele><time>2026-03-29T11:03:21Z</time></trkpt><trkpt lat="45.443488529342964" lon="8.92780668618382"><ele>128.0</ele><time>2026-03-29T11:03:22Z</time></trkpt><trkpt lat="45.44361182283912" lon="8.927777323620782"><ele>128.0</ele><time>2026-03-29T11:03:23Z</time></trkpt><trkpt lat="45.44371878580731" lon="8.927743474615268"><ele>128.0</ele><time>2026-03-29T11:03:24Z</time></trkpt><trkpt lat="45.44383000539084" lon="8.927710026850253"><ele>128.0</ele><time>2026-03-29T11:03:25Z</time></trkpt><trkpt lat="45.44394115335486" lon="8.927673116202902"><ele>128.20000000000002</ele><time>2026-03-29T11:03:26Z</time></trkpt><trkpt lat="45.444050868933914" lon="8.927638325569271"><ele>128.4</ele><time>2026-03-29T11:03:27Z</time></trkpt><trkpt lat="45.44415130869486" lon="8.927613546851687"><ele>128.60000000000002</ele><time>2026-03-29T11:03:28Z</time></trkpt><trkpt lat="45.444240956646546" lon="8.92758708356681"><ele>128.8</ele><time>2026-03-29T11:03:29Z</time></trkpt><trkpt lat="45.444329582376014" lon="8.927551024682542"><ele>129.0</ele><time>2026-03-29T11:03:30Z</time></trkpt><trkpt lat="45.44441475099137" lon="8.927496214099454"><ele>129.2</ele><time>2026-03-29T11:03:31Z</time></trkpt><trkpt lat="45.44449888810675" lon="8.927417957951171"><ele>129.4</ele><time>2026-03-29T11:03:32Z</time></trkpt><trkpt lat="45.44456935912835" lon="8.927322463316633"><ele>129.6</ele><time>2026-03-29T11:03:33Z</time></trkpt><trkpt lat="45.44463974740938" lon="8.927225886235142"><ele>129.8</ele><time>2026-03-29T11:03:34Z</time></trkpt><trkpt lat="45.44470932996302" lon="8.92714279428456"><ele>130.0</ele><time>2026-03-29T11:03:35Z</time></trkpt><trkpt lat="45.444780826430446" lon="8.927072558290357"><ele>130.0</ele><time>2026-03-29T11:03:36Z</time></trkpt><trkpt lat="45.44484672163794" lon="8.92700532423711"><ele>130.0</ele><time>2026-03-29T11:03:37Z</time></trkpt><trkpt lat="45.44491775947097" lon="8.926939617212245"><ele>130.0</ele><time>2026-03-29T11:03:38Z</time></trkpt><trkpt lat="45.44499438478093" lon="8.926883947335957"><ele>130.0</ele><time>2026-03-29T11:03:39Z</time></trkpt><trkpt lat="45.445082700348244" lon="8.926830342694174"><ele>130.0</ele><time>2026-03-29T11:03:40Z</time></trkpt><trkpt lat="45.44517196943652" lon="8.926780914240227"><ele>130.0</ele><time>2026-03-29T11:03:41Z</time></trkpt><trkpt lat="45.445263870850034" lon="8.926751629813499"><ele>130.0</ele><time>2026-03-29T11:03:42Z</time></trkpt><trkpt lat="45.445351978755845" lon="8.926722733000224"><ele>130.0</ele><time>2026-03-29T11:03:43Z</time></trkpt><trkpt lat="45.44543796468336" lon="8.92669310070643"><ele>130.0</ele><time>2026-03-29T11:03:44Z</time></trkpt><trkpt lat="45.44553080704534" lon="8.926664270753387"><ele>130.0</ele><time>2026-03-29T11:03:45Z</time></trkpt><trkpt lat="45.44562435058857" lon="8.92663470791684"><ele>130.0</ele><time>2026-03-29T11:03:46Z</time></trkpt><trkpt lat="45.445700582993226" lon="8.92660957847201"><ele>130.0</ele><time>2026-03-29T11:03:47Z</time></trkpt><trkpt lat="45.44577375807082" lon="8.926587992129907"><ele>130.0</ele><time>2026-03-29T11:03:48Z</time></trkpt><trkpt lat="45.445848851105566" lon="8.926572467593683"><ele>130.0</ele><time>2026-03-29T11:03:49Z</time></trkpt><trkpt lat="45.445920791476325" lon="8.92655512948088"><ele>130.0</ele><time>2026-03-29T11:03:50Z</time></trkpt><trkpt lat="45.445983128417254" lon="8.926534899103274"><ele>130.0</ele><time>2026-03-29T11:03:51Z</time></trkpt><trkpt lat="45.44605539421748" lon="8.926512921730103"><ele>130.0</ele><time>2026-03-29T11:03:52Z</time></trkpt><trkpt lat="45.44617727857046" lon="8.926462321915643"><ele>130.0</ele><time>2026-03-29T11:03:54Z</time></trkpt><trkpt lat="45.44628436757935" lon="8.92640222119509"><ele>130.0</ele><time>2026-03-29T11:03:56Z</time></trkpt><trkpt lat="45.446363148045776" lon="8.926325848609004"><ele>130.0</ele><time>2026-03-29T11:03:58Z</time></trkpt><trkpt lat="45.44644828997367" lon="8.926528861294885"><ele>130.0</ele><time>2026-03-29T11:04:02Z</time></trkpt><trkpt lat="45.446478797853494" lon="8.926614571495044"><ele>130.0</ele><time>2026-03-29T11:04:03Z</time></trkpt><trkpt lat="45.44649547910744" lon="8.926719789564638"><ele>130.0</ele><time>2026-03-29T11:04:04Z</time></trkpt><trkpt lat="45.446508982866845" lon="8.926825627887245"><ele>130.16666666666669</ele><time>2026-03-29T11:04:05Z</time></trkpt><trkpt lat="45.446514554851674" lon="8.926947969277952"><ele>130.33333333333334</ele><time>2026-03-29T11:04:06Z</time></trkpt><trkpt lat="45.44652383839082" lon="8.927074823661666"><ele>130.5</ele><time>2026-03-29T11:04:07Z</time></trkpt><trkpt lat="45.44653483387267" lon="8.927205931346839"><ele>130.66666666666666</ele><time>2026-03-29T11:04:08Z</time></trkpt><trkpt lat="45.4465453222702" lon="8.92732956722589"><ele>130.83333333333331</ele><time>2026-03-29T11:04:09Z</time></trkpt><trkpt lat="45.44655585483844" lon="8.927451338067376"><ele>131.0</ele><time>2026-03-29T11:04:10Z</time></trkpt><trkpt lat="45.44656670249534" lon="8.92757355206757"><ele>130.66666666666666</ele><time>2026-03-29T11:04:11Z</time></trkpt><trkpt lat="45.4465765859423" lon="8.92769761744179"><ele>130.33333333333331</ele><time>2026-03-29T11:04:12Z</time></trkpt><trkpt lat="45.44657935474065" lon="8.92779682299626"><ele>130.0</ele><time>2026-03-29T11:04:13Z</time></trkpt><trkpt lat="45.44656950043111" lon="8.927913877167343"><ele>129.66666666666666</ele><time>2026-03-29T11:04:14Z</time></trkpt><trkpt lat="45.4465341159408" lon="8.928023661655516"><ele>129.33333333333334</ele><time>2026-03-29T11:04:15Z</time></trkpt><trkpt lat="45.44650291290206" lon="8.92813300682564"><ele>129.0</ele><time>2026-03-29T11:04:16Z</time></trkpt><trkpt lat="45.446472231723014" lon="8.928230199161701"><ele>129.0</ele><time>2026-03-29T11:04:17Z</time></trkpt><trkpt lat="45.4464398884858" lon="8.92832422334568"><ele>129.0</ele><time>2026-03-29T11:04:18Z</time></trkpt><trkpt lat="45.44640675373348" lon="8.928411058248203"><ele>129.0</ele><time>2026-03-29T11:04:19Z</time></trkpt><trkpt lat="45.446351984881204" lon="8.928489759685707"><ele>129.0</ele><time>2026-03-29T11:04:20Z</time></trkpt><trkpt lat="45.44628483033815" lon="8.928576580305025"><ele>129.0</ele><time>2026-03-29T11:04:21Z</time></trkpt><trkpt lat="45.44621599449164" lon="8.92863126821078"><ele>129.0</ele><time>2026-03-29T11:04:22Z</time></trkpt><trkpt lat="45.44615877173691" lon="8.928703502272729"><ele>129.2</ele><time>2026-03-29T11:04:22.999Z</time></trkpt><trkpt lat="45.44609727572885" lon="8.928775344450914"><ele>129.4</ele><time>2026-03-29T11:04:23.999Z</time></trkpt><trkpt lat="45.44604834620815" lon="8.928878530690698"><ele>129.6</ele><time>2026-03-29T11:04:24.999Z</time></trkpt><trkpt lat="45.44602373714002" lon="8.929015843209182"><ele>129.8</ele><time>2026-03-29T11:04:25.999Z</time></trkpt><trkpt lat="45.446042608512094" lon="8.929140722681039"><ele>130.0</ele><time>2026-03-29T11:04:26.999Z</time></trkpt><trkpt lat="45.44609354142971" lon="8.92925836075689"><ele>130.0</ele><time>2026-03-29T11:04:27.999Z</time></trkpt><trkpt lat="45.4461330961512" lon="8.929364270347605"><ele>130.0</ele><time>2026-03-29T11:04:28.999Z</time></trkpt><trkpt lat="45.44617024040507" lon="8.929474459170729"><ele>130.0</ele><time>2026-03-29T11:04:29.999Z</time></trkpt><trkpt lat="45.446208524456644" lon="8.929590692468963"><ele>130.0</ele><time>2026-03-29T11:04:30.999Z</time></trkpt><trkpt lat="45.446244697377246" lon="8.929703571578985"><ele>130.0</ele><time>2026-03-29T11:04:31.999Z</time></trkpt><trkpt lat="45.44628059892873" lon="8.929816630765428"><ele>130.0</ele><time>2026-03-29T11:04:32.999Z</time></trkpt><trkpt lat="45.4463172479525" lon="8.929932410253262"><ele>130.0</ele><time>2026-03-29T11:04:33.999Z</time></trkpt><trkpt lat="45.44635264275078" lon="8.930050239067375"><ele>130.0</ele><time>2026-03-29T11:04:34.999Z</time></trkpt><trkpt lat="45.446383048569466" lon="8.930171486109531"><ele>130.0</ele><time>2026-03-29T11:04:35.999Z</time></trkpt><trkpt lat="45.4464040313987" lon="8.930301578712944"><ele>130.0</ele><time>2026-03-29T11:04:36.999Z</time></trkpt><trkpt lat="45.44641689292496" lon="8.930436528575447"><ele>130.0</ele><time>2026-03-29T11:04:37.999Z</time></trkpt><trkpt lat="45.446427956817665" lon="8.930584894504067"><ele>130.0</ele><time>2026-03-29T11:04:38.999Z</time></trkpt><trkpt lat="45.44642903293925" lon="8.930732007490688"><ele>130.0</ele><time>2026-03-29T11:04:39.999Z</time></trkpt><trkpt lat="45.44642762342614" lon="8.930875923435641"><ele>130.0</ele><time>2026-03-29T11:04:40.999Z</time></trkpt><trkpt lat="45.4464255527705" lon="8.931019574353355"><ele>130.0</ele><time>2026-03-29T11:04:41.999Z</time></trkpt><trkpt lat="45.44642619118602" lon="8.931164240163453"><ele>130.0</ele><time>2026-03-29T11:04:42.999Z</time></trkpt><trkpt lat="45.446431606998516" lon="8.931309431878995"><ele>130.0</ele><time>2026-03-29T11:04:43.999Z</time></trkpt><trkpt lat="45.446443471630126" lon="8.931454342677968"><ele>130.0</ele><time>2026-03-29T11:04:44.999Z</time></trkpt><trkpt lat="45.44646884155074" lon="8.931600135935902"><ele>130.0</ele><time>2026-03-29T11:04:45.999Z</time></trkpt><trkpt lat="45.446503636618466" lon="8.931741056574792"><ele>130.0</ele><time>2026-03-29T11:04:46.999Z</time></trkpt><trkpt lat="45.44654526366028" lon="8.931882211069265"><ele>130.0</ele><time>2026-03-29T11:04:47.999Z</time></trkpt><trkpt lat="45.44657622075636" lon="8.932038642376526"><ele>130.0</ele><time>2026-03-29T11:04:48.999Z</time></trkpt><trkpt lat="45.4466202190491" lon="8.932187432033166"><ele>130.0</ele><time>2026-03-29T11:04:49.999Z</time></trkpt><trkpt lat="45.44665744476844" lon="8.932333657871542"><ele>130.0</ele><time>2026-03-29T11:04:50.999Z</time></trkpt><trkpt lat="45.446701694957476" lon="8.93248037139302"><ele>130.0</ele><time>2026-03-29T11:04:51.999Z</time></trkpt><trkpt lat="45.44674362080071" lon="8.932628175178404"><ele>130.0</ele><time>2026-03-29T11:04:52.999Z</time></trkpt><trkpt lat="45.44678019046173" lon="8.932768448240521"><ele>129.8</ele><time>2026-03-29T11:04:53.999Z</time></trkpt><trkpt lat="45.44681704902069" lon="8.932911023363777"><ele>129.6</ele><time>2026-03-29T11:04:54.999Z</time></trkpt><trkpt lat="45.44685519083871" lon="8.933064059976571"><ele>129.4</ele><time>2026-03-29T11:04:55.999Z</time></trkpt><trkpt lat="45.446893425356365" lon="8.933213261389096"><ele>129.2</ele><time>2026-03-29T11:04:56.999Z</time></trkpt><trkpt lat="45.44693607043538" lon="8.93336198072677"><ele>129.0</ele><time>2026-03-29T11:04:57.999Z</time></trkpt><trkpt lat="45.44697177450468" lon="8.933508324200577"><ele>128.8</ele><time>2026-03-29T11:04:58.999Z</time></trkpt><trkpt lat="45.447007542756424" lon="8.93366026742221"><ele>128.60000000000002</ele><time>2026-03-29T11:04:59.999Z</time></trkpt><trkpt lat="45.44704143007608" lon="8.933799782699754"><ele>128.4</ele><time>2026-03-29T11:05:00.999Z</time></trkpt><trkpt lat="45.44707750359566" lon="8.933930454290456"><ele>128.20000000000002</ele><time>2026-03-29T11:05:01.999Z</time></trkpt><trkpt lat="45.447119648104" lon="8.934056261465654"><ele>128.0</ele><time>2026-03-29T11:05:02.999Z</time></trkpt><trkpt lat="45.447158135577226" lon="8.93419041353733"><ele>128.6</ele><time>2026-03-29T11:05:03.999Z</time></trkpt><trkpt lat="45.44719824111648" lon="8.934332367711269"><ele>129.20000000000002</ele><time>2026-03-29T11:05:04.999Z</time></trkpt><trkpt lat="45.447238208538096" lon="8.93447380971859"><ele>129.8</ele><time>2026-03-29T11:05:05.999Z</time></trkpt><trkpt lat="45.44727357809246" lon="8.934600029146614"><ele>130.4</ele><time>2026-03-29T11:05:06.999Z</time></trkpt><trkpt lat="45.447295374012604" lon="8.934738389255084"><ele>131.0</ele><time>2026-03-29T11:05:07.999Z</time></trkpt><trkpt lat="45.447332726609545" lon="8.93488703095428"><ele>131.0</ele><time>2026-03-29T11:05:08.999Z</time></trkpt><trkpt lat="45.447363993590265" lon="8.935024284506616"><ele>131.0</ele><time>2026-03-29T11:05:09.999Z</time></trkpt><trkpt lat="45.447394556710144" lon="8.935161882672418"><ele>131.0</ele><time>2026-03-29T11:05:10.999Z</time></trkpt><trkpt lat="45.44743957190396" lon="8.935295980436686"><ele>131.0</ele><time>2026-03-29T11:05:11.999Z</time></trkpt><trkpt lat="45.44745305083791" lon="8.935427701851948"><ele>131.0</ele><time>2026-03-29T11:05:12.999Z</time></trkpt><trkpt lat="45.44748193003464" lon="8.935560559446184"><ele>131.0</ele><time>2026-03-29T11:05:13.999Z</time></trkpt><trkpt lat="45.447510912381325" lon="8.935693891645771"><ele>131.0</ele><time>2026-03-29T11:05:14.999Z</time></trkpt><trkpt lat="45.44753539084605" lon="8.935831893055754"><ele>131.0</ele><time>2026-03-29T11:05:15.999Z</time></trkpt><trkpt lat="45.44757295430077" lon="8.935953287144061"><ele>131.0</ele><time>2026-03-29T11:05:16.999Z</time></trkpt><trkpt lat="45.44757062859835" lon="8.936081671805688"><ele>131.0</ele><time>2026-03-29T11:05:17.999Z</time></trkpt><trkpt lat="45.44758622567226" lon="8.936195958439688"><ele>131.0</ele><time>2026-03-29T11:05:18.999Z</time></trkpt><trkpt lat="45.447603505594124" lon="8.936313830099554"><ele>131.0</ele><time>2026-03-29T11:05:19.999Z</time></trkpt><trkpt lat="45.44761556166895" lon="8.936427440964282"><ele>131.0</ele><time>2026-03-29T11:05:20.999Z</time></trkpt><trkpt lat="45.44761969464772" lon="8.936565052167149"><ele>131.0</ele><time>2026-03-29T11:05:21.999Z</time></trkpt><trkpt lat="45.447607157182716" lon="8.93670472259421"><ele>131.0</ele><time>2026-03-29T11:05:22.999Z</time></trkpt><trkpt lat="45.44759193959433" lon="8.936835433814464"><ele>130.83333333333331</ele><time>2026-03-29T11:05:24Z</time></trkpt><trkpt lat="45.447574923777736" lon="8.936957936632625"><ele>130.66666666666666</ele><time>2026-03-29T11:05:25Z</time></trkpt><trkpt lat="45.44755582601029" lon="8.93707178242984"><ele>130.5</ele><time>2026-03-29T11:05:26Z</time></trkpt><trkpt lat="45.447535094087186" lon="8.937180490337683"><ele>130.33333333333334</ele><time>2026-03-29T11:05:27Z</time></trkpt><trkpt lat="45.44750752982201" lon="8.93729641755621"><ele>130.16666666666669</ele><time>2026-03-29T11:05:28Z</time></trkpt><trkpt lat="45.44746713442579" lon="8.937416657473225"><ele>130.0</ele><time>2026-03-29T11:05:29Z</time></trkpt><trkpt lat="45.447421804306195" lon="8.937519142132535"><ele>129.83333333333334</ele><time>2026-03-29T11:05:30Z</time></trkpt><trkpt lat="45.44737695929437" lon="8.937607197350024"><ele>129.66666666666669</ele><time>2026-03-29T11:05:31Z</time></trkpt><trkpt lat="45.447313342155255" lon="8.937742039001288"><ele>129.5</ele><time>2026-03-29T11:05:33Z</time></trkpt><trkpt lat="45.44725350609901" lon="8.93788069030755"><ele>129.33333333333334</ele><time>2026-03-29T11:05:35Z</time></trkpt><trkpt lat="45.44722567685594" lon="8.937968053274119"><ele>129.16666666666666</ele><time>2026-03-29T11:05:36Z</time></trkpt><trkpt lat="45.44719064139924" lon="8.938061455401956"><ele>129.0</ele><time>2026-03-29T11:05:37Z</time></trkpt><trkpt lat="45.44715806072597" lon="8.938148171752761"><ele>129.0</ele><time>2026-03-29T11:05:38Z</time></trkpt><trkpt lat="45.44713022193223" lon="8.938245682414847"><ele>129.0</ele><time>2026-03-29T11:05:39Z</time></trkpt><trkpt lat="45.44712705759311" lon="8.938355979932153"><ele>129.0</ele><time>2026-03-29T11:05:40Z</time></trkpt><trkpt lat="45.44716019775899" lon="8.938473102267624"><ele>129.0</ele><time>2026-03-29T11:05:41Z</time></trkpt><trkpt lat="45.44719880462617" lon="8.938590656959525"><ele>129.0</ele><time>2026-03-29T11:05:42Z</time></trkpt><trkpt lat="45.44723701125607" lon="8.938706983795088"><ele>129.0</ele><time>2026-03-29T11:05:43Z</time></trkpt><trkpt lat="45.44726487643621" lon="8.938831814189571"><ele>129.0</ele><time>2026-03-29T11:05:44Z</time></trkpt><trkpt lat="45.447304616849394" lon="8.938960261332268"><ele>129.0</ele><time>2026-03-29T11:05:45Z</time></trkpt><trkpt lat="45.44734513558138" lon="8.939086864653698"><ele>129.0</ele><time>2026-03-29T11:05:46Z</time></trkpt><trkpt lat="45.44738622785485" lon="8.93921050257809"><ele>129.0</ele><time>2026-03-29T11:05:47Z</time></trkpt><trkpt lat="45.44743466389238" lon="8.939326461161523"><ele>129.0</ele><time>2026-03-29T11:05:48Z</time></trkpt><trkpt lat="45.4474922826944" lon="8.93944030816714"><ele>129.0</ele><time>2026-03-29T11:05:49Z</time></trkpt><trkpt lat="45.447564749029766" lon="8.939530407668736"><ele>129.0</ele><time>2026-03-29T11:05:50Z</time></trkpt><trkpt lat="45.44764675295344" lon="8.93960892106427"><ele>129.0</ele><time>2026-03-29T11:05:51Z</time></trkpt><trkpt lat="45.447728869199544" lon="8.939673802585295"><ele>129.0</ele><time>2026-03-29T11:05:52Z</time></trkpt><trkpt lat="45.44781254765251" lon="8.93974536946373"><ele>129.0</ele><time>2026-03-29T11:05:53Z</time></trkpt><trkpt lat="45.44789801961368" lon="8.93982828057837"><ele>128.75</ele><time>2026-03-29T11:05:54Z</time></trkpt><trkpt lat="45.44798993886169" lon="8.939920273808271"><ele>128.5</ele><time>2026-03-29T11:05:55Z</time></trkpt><trkpt lat="45.4480840644906" lon="8.940010632974873"><ele>128.25</ele><time>2026-03-29T11:05:56Z</time></trkpt><trkpt lat="45.44818987778941" lon="8.940096010943503"><ele>128.0</ele><time>2026-03-29T11:05:57Z</time></trkpt><trkpt lat="45.448289802861495" lon="8.940184319351141"><ele>128.0</ele><time>2026-03-29T11:05:58Z</time></trkpt><trkpt lat="45.44838865543178" lon="8.940269624116317"><ele>128.0</ele><time>2026-03-29T11:05:59Z</time></trkpt><trkpt lat="45.44848547028698" lon="8.94035828767632"><ele>128.0</ele><time>2026-03-29T11:06:00Z</time></trkpt><trkpt lat="45.4485845567287" lon="8.940451022475917"><ele>128.0</ele><time>2026-03-29T11:06:01Z</time></trkpt><trkpt lat="45.44868462571443" lon="8.940548664935035"><ele>128.0</ele><time>2026-03-29T11:06:02Z</time></trkpt><trkpt lat="45.4487847370547" lon="8.940649836931208"><ele>128.0</ele><time>2026-03-29T11:06:03Z</time></trkpt><trkpt lat="45.44888018257275" lon="8.940757539078334"><ele>128.0</ele><time>2026-03-29T11:06:04Z</time></trkpt><trkpt lat="45.44896825433775" lon="8.94086407959463"><ele>128.0</ele><time>2026-03-29T11:06:05Z</time></trkpt><trkpt lat="45.44905474793547" lon="8.940967631054056"><ele>128.0</ele><time>2026-03-29T11:06:06Z</time></trkpt><trkpt lat="45.449146232148095" lon="8.941059366445364"><ele>128.0</ele><time>2026-03-29T11:06:07Z</time></trkpt><trkpt lat="45.44922968978515" lon="8.941141405624448"><ele>128.0</ele><time>2026-03-29T11:06:08Z</time></trkpt><trkpt lat="45.44931495847612" lon="8.941213195326855"><ele>128.0</ele><time>2026-03-29T11:06:09Z</time></trkpt><trkpt lat="45.44940318713083" lon="8.941289835163213"><ele>128.0</ele><time>2026-03-29T11:06:10Z</time></trkpt><trkpt lat="45.449492336846795" lon="8.941337796141054"><ele>128.0</ele><time>2026-03-29T11:06:11Z</time></trkpt><trkpt lat="45.449588685944896" lon="8.941389016322564"><ele>128.0</ele><time>2026-03-29T11:06:12Z</time></trkpt><trkpt lat="45.44968362282509" lon="8.941441012287507"><ele>128.0</ele><time>2026-03-29T11:06:13Z</time></trkpt><trkpt lat="45.449772686521435" lon="8.941492800580395"><ele>128.0</ele><time>2026-03-29T11:06:14Z</time></trkpt><trkpt lat="45.44985028077746" lon="8.941561401789263"><ele>128.0</ele><time>2026-03-29T11:06:15Z</time></trkpt><trkpt lat="45.44990875036193" lon="8.941647902468873"><ele>128.4</ele><time>2026-03-29T11:06:16Z</time></trkpt><trkpt lat="45.44995448135387" lon="8.941755293335522"><ele>128.8</ele><time>2026-03-29T11:06:17Z</time></trkpt><trkpt lat="45.4499837491568" lon="8.941874159867403"><ele>129.2</ele><time>2026-03-29T11:06:18Z</time></trkpt><trkpt lat="45.449980059854056" lon="8.942000918200726"><ele>129.6</ele><time>2026-03-29T11:06:19Z</time></trkpt><trkpt lat="45.449989386316716" lon="8.94213081515322"><ele>130.0</ele><time>2026-03-29T11:06:20Z</time></trkpt><trkpt lat="45.44998882289719" lon="8.942277772516734"><ele>130.0</ele><time>2026-03-29T11:06:21Z</time></trkpt><trkpt lat="45.44998762359926" lon="8.94243487905069"><ele>130.0</ele><time>2026-03-29T11:06:22Z</time></trkpt><trkpt lat="45.449989257061006" lon="8.942595128755102"><ele>130.0</ele><time>2026-03-29T11:06:23Z</time></trkpt><trkpt lat="45.44998765878174" lon="8.942767020992576"><ele>130.0</ele><time>2026-03-29T11:06:24Z</time></trkpt><trkpt lat="45.44998902098882" lon="8.942948234830883"><ele>129.75</ele><time>2026-03-29T11:06:25Z</time></trkpt><trkpt lat="45.44998378532689" lon="8.94313464428128"><ele>129.5</ele><time>2026-03-29T11:06:26Z</time></trkpt><trkpt lat="45.449976743803276" lon="8.94332318676808"><ele>129.25</ele><time>2026-03-29T11:06:27Z</time></trkpt><trkpt lat="45.44994658654912" lon="8.943525079382907"><ele>129.0</ele><time>2026-03-29T11:06:28Z</time></trkpt><trkpt lat="45.44993019405597" lon="8.94371823771068"><ele>128.75</ele><time>2026-03-29T11:06:29Z</time></trkpt><trkpt lat="45.44991573213509" lon="8.943920323386001"><ele>128.5</ele><time>2026-03-29T11:06:29.999Z</time></trkpt><trkpt lat="45.449891976280135" lon="8.944102904141163"><ele>128.25</ele><time>2026-03-29T11:06:30.999Z</time></trkpt><trkpt lat="45.44986504201812" lon="8.94429844922741"><ele>128.0</ele><time>2026-03-29T11:06:31.999Z</time></trkpt><trkpt lat="45.44982928827511" lon="8.944495807118708"><ele>128.0</ele><time>2026-03-29T11:06:32.999Z</time></trkpt><trkpt lat="45.449786411231294" lon="8.944680615348659"><ele>128.0</ele><time>2026-03-29T11:06:33.999Z</time></trkpt><trkpt lat="45.44974738156265" lon="8.944872514679352"><ele>128.0</ele><time>2026-03-29T11:06:34.999Z</time></trkpt><trkpt lat="45.44971123367261" lon="8.945076934071938"><ele>128.0</ele><time>2026-03-29T11:06:35.999Z</time></trkpt><trkpt lat="45.44968108904022" lon="8.945287146878137"><ele>128.0</ele><time>2026-03-29T11:06:36.999Z</time></trkpt><trkpt lat="45.449671628413505" lon="8.945497999833655"><ele>128.0</ele><time>2026-03-29T11:06:37.999Z</time></trkpt><trkpt lat="45.4496747207504" lon="8.945715693451778"><ele>128.0</ele><time>2026-03-29T11:06:38.999Z</time></trkpt><trkpt lat="45.449693071136814" lon="8.945934878948922"><ele>127.66666666666666</ele><time>2026-03-29T11:06:39.999Z</time></trkpt><trkpt lat="45.44973387472796" lon="8.946145100155716"><ele>127.33333333333334</ele><time>2026-03-29T11:06:40.999Z</time></trkpt><trkpt lat="45.44978555745341" lon="8.94634608287044"><ele>127.0</ele><time>2026-03-29T11:06:41.999Z</time></trkpt><trkpt lat="45.44983637031948" lon="8.946548400496733"><ele>127.25</ele><time>2026-03-29T11:06:42.999Z</time></trkpt><trkpt lat="45.449879475873" lon="8.946730322954176"><ele>127.5</ele><time>2026-03-29T11:06:43.999Z</time></trkpt><trkpt lat="45.449925084038476" lon="8.946894890654267"><ele>127.75</ele><time>2026-03-29T11:06:44.999Z</time></trkpt><trkpt lat="45.44995240926826" lon="8.94707457144196"><ele>128.0</ele><time>2026-03-29T11:06:45.999Z</time></trkpt><trkpt lat="45.449986399868486" lon="8.94724400771583"><ele>128.0</ele><time>2026-03-29T11:06:46.999Z</time></trkpt><trkpt lat="45.45002631226684" lon="8.947398258654022"><ele>128.0</ele><time>2026-03-29T11:06:47.999Z</time></trkpt><trkpt lat="45.45006441074047" lon="8.94756158303285"><ele>128.0</ele><time>2026-03-29T11:06:48.999Z</time></trkpt><trkpt lat="45.450106854104455" lon="8.947713946996455"><ele>128.0</ele><time>2026-03-29T11:06:49.999Z</time></trkpt><trkpt lat="45.45015665180963" lon="8.947871754675688"><ele>128.0</ele><time>2026-03-29T11:06:50.999Z</time></trkpt><trkpt lat="45.45021012185799" lon="8.948032634563685"><ele>128.0</ele><time>2026-03-29T11:06:51.999Z</time></trkpt><trkpt lat="45.45026654168182" lon="8.948197928408023"><ele>128.0</ele><time>2026-03-29T11:06:52.999Z</time></trkpt><trkpt lat="45.450323250856755" lon="8.948362727897186"><ele>128.0</ele><time>2026-03-29T11:06:53.999Z</time></trkpt><trkpt lat="45.45038608062588" lon="8.948524344043571"><ele>128.0</ele><time>2026-03-29T11:06:54.999Z</time></trkpt><trkpt lat="45.45045227514173" lon="8.948688896944699"><ele>128.0</ele><time>2026-03-29T11:06:55.999Z</time></trkpt><trkpt lat="45.4505148273561" lon="8.948853659918003"><ele>128.0</ele><time>2026-03-29T11:06:56.999Z</time></trkpt><trkpt lat="45.45057236374708" lon="8.949028852662583"><ele>128.0</ele><time>2026-03-29T11:06:57.999Z</time></trkpt><trkpt lat="45.450633306312476" lon="8.949195077037766"><ele>129.25</ele><time>2026-03-29T11:06:58.999Z</time></trkpt><trkpt lat="45.450688968152065" lon="8.949361462801292"><ele>130.5</ele><time>2026-03-29T11:06:59.999Z</time></trkpt><trkpt lat="45.45075125598857" lon="8.949525334883125"><ele>131.75</ele><time>2026-03-29T11:07:00.999Z</time></trkpt><trkpt lat="45.450808317645276" lon="8.949691923690315"><ele>133.0</ele><time>2026-03-29T11:07:01.999Z</time></trkpt><trkpt lat="45.45086897369084" lon="8.949861890005714"><ele>133.0</ele><time>2026-03-29T11:07:02.999Z</time></trkpt><trkpt lat="45.450924218890876" lon="8.95002605537609"><ele>133.0</ele><time>2026-03-29T11:07:03.999Z</time></trkpt><trkpt lat="45.45097457334602" lon="8.950173348378812"><ele>133.0</ele><time>2026-03-29T11:07:04.999Z</time></trkpt><trkpt lat="45.45102001875401" lon="8.9503025492168"><ele>133.0</ele><time>2026-03-29T11:07:05.999Z</time></trkpt><trkpt lat="45.45104834614495" lon="8.950428095887993"><ele>133.0</ele><time>2026-03-29T11:07:06.999Z</time></trkpt><trkpt lat="45.45108695490183" lon="8.950546756573381"><ele>132.8</ele><time>2026-03-29T11:07:07.999Z</time></trkpt><trkpt lat="45.451119160769096" lon="8.950642303865797"><ele>132.60000000000002</ele><time>2026-03-29T11:07:08.999Z</time></trkpt><trkpt lat="45.451166067474695" lon="8.950775077665746"><ele>132.39999999999998</ele><time>2026-03-29T11:07:10.999Z</time></trkpt><trkpt lat="45.45119078316147" lon="8.950873382003422"><ele>132.2</ele><time>2026-03-29T11:07:13.999Z</time></trkpt><trkpt lat="45.451191463344266" lon="8.950996682161291"><ele>132.0</ele><time>2026-03-29T11:07:21.999Z</time></trkpt><trkpt lat="45.45107158802182" lon="8.950971708557942"><ele>131.2</ele><time>2026-03-29T11:07:22.999Z</time></trkpt><trkpt lat="45.4510000061804" lon="8.95100512250319"><ele>130.39999999999998</ele><time>2026-03-29T11:07:23.999Z</time></trkpt><trkpt lat="45.45092224748479" lon="8.951040299748033"><ele>129.60000000000002</ele><time>2026-03-29T11:07:24.999Z</time></trkpt><trkpt lat="45.45083072460829" lon="8.951081071963257"><ele>128.8</ele><time>2026-03-29T11:07:25.999Z</time></trkpt><trkpt lat="45.450737681002174" lon="8.951137225028715"><ele>128.0</ele><time>2026-03-29T11:07:26.999Z</time></trkpt><trkpt lat="45.450629840744035" lon="8.95118307074174"><ele>128.0</ele><time>2026-03-29T11:07:27.999Z</time></trkpt><trkpt lat="45.45051314115607" lon="8.95123357201844"><ele>128.0</ele><time>2026-03-29T11:07:28.999Z</time></trkpt><trkpt lat="45.45038482484623" lon="8.951290618472163"><ele>128.0</ele><time>2026-03-29T11:07:30Z</time></trkpt><trkpt lat="45.450265425395806" lon="8.951345219897537"><ele>128.0</ele><time>2026-03-29T11:07:31Z</time></trkpt><trkpt lat="45.45015428369579" lon="8.951394362022075"><ele>128.4</ele><time>2026-03-29T11:07:32Z</time></trkpt><trkpt lat="45.45004757448942" lon="8.951436293931184"><ele>128.8</ele><time>2026-03-29T11:07:33Z</time></trkpt><trkpt lat="45.449944975850194" lon="8.951480949105719"><ele>129.2</ele><time>2026-03-29T11:07:34Z</time></trkpt><trkpt lat="45.44984932510184" lon="8.951524698770847"><ele>129.6</ele><time>2026-03-29T11:07:35Z</time></trkpt><trkpt lat="45.44976587338297" lon="8.951571231605266"><ele>130.0</ele><time>2026-03-29T11:07:36Z</time></trkpt><trkpt lat="45.44970783171544" lon="8.951642846410277"><ele>129.8</ele><time>2026-03-29T11:07:37Z</time></trkpt><trkpt lat="45.44967635350034" lon="8.951742246683768"><ele>129.6</ele><time>2026-03-29T11:07:38Z</time></trkpt><trkpt lat="45.44966105475177" lon="8.951862322124692"><ele>129.4</ele><time>2026-03-29T11:07:39Z</time></trkpt><trkpt lat="45.44969105040532" lon="8.951999398947422"><ele>129.2</ele><time>2026-03-29T11:07:40Z</time></trkpt><trkpt lat="45.44973949152724" lon="8.952126710134655"><ele>129.0</ele><time>2026-03-29T11:07:41Z</time></trkpt><trkpt lat="45.449771546858926" lon="8.952279334655223"><ele>129.0</ele><time>2026-03-29T11:07:42Z</time></trkpt><trkpt lat="45.44981447270172" lon="8.952427281221766"><ele>129.0</ele><time>2026-03-29T11:07:43Z</time></trkpt><trkpt lat="45.44985864638503" lon="8.95257581289683"><ele>129.0</ele><time>2026-03-29T11:07:44Z</time></trkpt><trkpt lat="45.449904386005976" lon="8.952729651648966"><ele>129.0</ele><time>2026-03-29T11:07:45Z</time></trkpt><trkpt lat="45.449955429125446" lon="8.95289643348845"><ele>129.0</ele><time>2026-03-29T11:07:46Z</time></trkpt><trkpt lat="45.45000759231341" lon="8.953067703544535"><ele>129.0</ele><time>2026-03-29T11:07:47Z</time></trkpt><trkpt lat="45.450059125501106" lon="8.953243102502345"><ele>129.0</ele><time>2026-03-29T11:07:48Z</time></trkpt><trkpt lat="45.45011334919788" lon="8.953431735858546"><ele>129.0</ele><time>2026-03-29T11:07:49Z</time></trkpt><trkpt lat="45.450163863053525" lon="8.953622000553876"><ele>129.5</ele><time>2026-03-29T11:07:50Z</time></trkpt><trkpt lat="45.450214437448956" lon="8.953800422731375"><ele>130.0</ele><time>2026-03-29T11:07:51Z</time></trkpt><trkpt lat="45.45026450831689" lon="8.953981353951981"><ele>130.5</ele><time>2026-03-29T11:07:52Z</time></trkpt><trkpt lat="45.45031327756251" lon="8.954161679346692"><ele>131.0</ele><time>2026-03-29T11:07:53Z</time></trkpt><trkpt lat="45.45036559899297" lon="8.954338870516718"><ele>131.25</ele><time>2026-03-29T11:07:54Z</time></trkpt><trkpt lat="45.45042330559399" lon="8.954525709980828"><ele>131.5</ele><time>2026-03-29T11:07:55Z</time></trkpt><trkpt lat="45.45047783501088" lon="8.954720278853829"><ele>131.75</ele><time>2026-03-29T11:07:56Z</time></trkpt><trkpt lat="45.45053329911294" lon="8.954921773241878"><ele>132.0</ele><time>2026-03-29T11:07:57Z</time></trkpt><trkpt lat="45.450589304733406" lon="8.955121870292684"><ele>131.33333333333334</ele><time>2026-03-29T11:07:58Z</time></trkpt><trkpt lat="45.45065598543685" lon="8.955331945494061"><ele>130.66666666666669</ele><time>2026-03-29T11:07:59Z</time></trkpt><trkpt lat="45.45072520070978" lon="8.955547225504912"><ele>130.0</ele><time>2026-03-29T11:08:00Z</time></trkpt><trkpt lat="45.450783124183594" lon="8.955742281141896"><ele>130.0</ele><time>2026-03-29T11:08:01Z</time></trkpt><trkpt lat="45.45083194377713" lon="8.955920270616549"><ele>130.0</ele><time>2026-03-29T11:08:02Z</time></trkpt><trkpt lat="45.450877752000295" lon="8.956086486713929"><ele>130.0</ele><time>2026-03-29T11:08:03Z</time></trkpt><trkpt lat="45.45092815817833" lon="8.956258634033043"><ele>130.0</ele><time>2026-03-29T11:08:04Z</time></trkpt><trkpt lat="45.45098190137618" lon="8.95644588616615"><ele>130.0</ele><time>2026-03-29T11:08:05Z</time></trkpt><trkpt lat="45.45101315176202" lon="8.956625836640054"><ele>130.0</ele><time>2026-03-29T11:08:06Z</time></trkpt><trkpt lat="45.451034244268406" lon="8.95679409001349"><ele>130.0</ele><time>2026-03-29T11:08:07Z</time></trkpt><trkpt lat="45.45106219628071" lon="8.956957735363446"><ele>130.0</ele><time>2026-03-29T11:08:08Z</time></trkpt><trkpt lat="45.451081597679796" lon="8.957116076106189"><ele>129.4</ele><time>2026-03-29T11:08:09Z</time></trkpt><trkpt lat="45.45107033646851" lon="8.95725457216072"><ele>128.8</ele><time>2026-03-29T11:08:10Z</time></trkpt><trkpt lat="45.45105439249915" lon="8.957382578933093"><ele>128.2</ele><time>2026-03-29T11:08:11Z</time></trkpt><trkpt lat="45.45100619076223" lon="8.957496357614671"><ele>127.6</ele><time>2026-03-29T11:08:12Z</time></trkpt><trkpt lat="45.45092584321626" lon="8.957605248148068"><ele>127.0</ele><time>2026-03-29T11:08:13Z</time></trkpt><trkpt lat="45.450821794309924" lon="8.957722525978726"><ele>127.0</ele><time>2026-03-29T11:08:14Z</time></trkpt><trkpt lat="45.450713920827724" lon="8.957837449969404"><ele>127.0</ele><time>2026-03-29T11:08:15Z</time></trkpt><trkpt lat="45.450627791218984" lon="8.957952806994838"><ele>127.0</ele><time>2026-03-29T11:08:16Z</time></trkpt><trkpt lat="45.45052803067493" lon="8.958061676971257"><ele>127.0</ele><time>2026-03-29T11:08:17Z</time></trkpt><trkpt lat="45.450435793920114" lon="8.958158385561761"><ele>127.0</ele><time>2026-03-29T11:08:18Z</time></trkpt><trkpt lat="45.450345450087724" lon="8.958238760230152"><ele>126.99999999999999</ele><time>2026-03-29T11:08:19Z</time></trkpt><trkpt lat="45.450255033727316" lon="8.95830389059083"><ele>126.99999999999999</ele><time>2026-03-29T11:08:20Z</time></trkpt><trkpt lat="45.450169011945725" lon="8.958375045617409"><ele>127.0</ele><time>2026-03-29T11:08:21Z</time></trkpt><trkpt lat="45.45008328408046" lon="8.958454396837528"><ele>127.0</ele><time>2026-03-29T11:08:22Z</time></trkpt><trkpt lat="45.45003448888558" lon="8.958626883426584"><ele>127.0</ele><time>2026-03-29T11:08:23Z</time></trkpt><trkpt lat="45.45004242962984" lon="8.958827599840673"><ele>127.0</ele><time>2026-03-29T11:08:24Z</time></trkpt><trkpt lat="45.45005983697624" lon="8.95902284940086"><ele>127.0</ele><time>2026-03-29T11:08:25Z</time></trkpt><trkpt lat="45.45008285826397" lon="8.959206917903249"><ele>127.0</ele><time>2026-03-29T11:08:26Z</time></trkpt><trkpt lat="45.45011270081612" lon="8.959407637611278"><ele>127.0</ele><time>2026-03-29T11:08:27Z</time></trkpt><trkpt lat="45.4501487607106" lon="8.95961935626158"><ele>127.0</ele><time>2026-03-29T11:08:28Z</time></trkpt><trkpt lat="45.45017350395847" lon="8.959793255348089"><ele>127.0</ele><time>2026-03-29T11:08:29Z</time></trkpt><trkpt lat="45.45020242339849" lon="8.959953047381251"><ele>127.0</ele><time>2026-03-29T11:08:30Z</time></trkpt><trkpt lat="45.45022934178062" lon="8.960103304570907"><ele>127.19999999999999</ele><time>2026-03-29T11:08:31Z</time></trkpt><trkpt lat="45.450255654795605" lon="8.960246685282124"><ele>127.39999999999999</ele><time>2026-03-29T11:08:32Z</time></trkpt><trkpt lat="45.45026743482058" lon="8.960387459660689"><ele>127.60000000000001</ele><time>2026-03-29T11:08:32.999Z</time></trkpt><trkpt lat="45.45025929238552" lon="8.96052657573446"><ele>127.80000000000001</ele><time>2026-03-29T11:08:33.999Z</time></trkpt><trkpt lat="45.45020223971048" lon="8.96065097056263"><ele>128.0</ele><time>2026-03-29T11:08:34.999Z</time></trkpt><trkpt lat="45.450096903050124" lon="8.96071475380945"><ele>128.0</ele><time>2026-03-29T11:08:35.999Z</time></trkpt><trkpt lat="45.449986803586114" lon="8.96078240907917"><ele>128.0</ele><time>2026-03-29T11:08:36.999Z</time></trkpt><trkpt lat="45.44986612889789" lon="8.96085421961566"><ele>128.0</ele><time>2026-03-29T11:08:37.999Z</time></trkpt><trkpt lat="45.44975760975651" lon="8.960930179411331"><ele>128.0</ele><time>2026-03-29T11:08:38.999Z</time></trkpt><trkpt lat="45.44965788155199" lon="8.96101001333813"><ele>128.20000000000002</ele><time>2026-03-29T11:08:39.999Z</time></trkpt><trkpt lat="45.4495682918634" lon="8.961079758367626"><ele>128.4</ele><time>2026-03-29T11:08:40.999Z</time></trkpt><trkpt lat="45.449492912559286" lon="8.961154958434191"><ele>128.60000000000002</ele><time>2026-03-29T11:08:41.999Z</time></trkpt><trkpt lat="45.44943676116279" lon="8.96125602880194"><ele>128.8</ele><time>2026-03-29T11:08:42.999Z</time></trkpt><trkpt lat="45.44940339329817" lon="8.961386023757374"><ele>129.0</ele><time>2026-03-29T11:08:43.999Z</time></trkpt><trkpt lat="45.44940629104692" lon="8.961524568203169"><ele>129.0</ele><time>2026-03-29T11:08:44.999Z</time></trkpt><trkpt lat="45.44943487703381" lon="8.961640670546064"><ele>129.0</ele><time>2026-03-29T11:08:45.999Z</time></trkpt><trkpt lat="45.44947400279533" lon="8.961761058127356"><ele>129.0</ele><time>2026-03-29T11:08:46.999Z</time></trkpt><trkpt lat="45.44951546222931" lon="8.96189233313589"><ele>129.0</ele><time>2026-03-29T11:08:47.999Z</time></trkpt><trkpt lat="45.44956493430569" lon="8.962038208354361"><ele>129.0</ele><time>2026-03-29T11:08:48.999Z</time></trkpt><trkpt lat="45.44961003628657" lon="8.962190758947536"><ele>128.75</ele><time>2026-03-29T11:08:49.999Z</time></trkpt><trkpt lat="45.44965342735572" lon="8.962340597399928"><ele>128.5</ele><time>2026-03-29T11:08:50.999Z</time></trkpt><trkpt lat="45.44970647096839" lon="8.962499396811364"><ele>128.25</ele><time>2026-03-29T11:08:51.999Z</time></trkpt><trkpt lat="45.44976247228728" lon="8.962661041080224"><ele>128.0</ele><time>2026-03-29T11:08:52.999Z</time></trkpt><trkpt lat="45.44981262915815" lon="8.962825221250077"><ele>128.5</ele><time>2026-03-29T11:08:53.999Z</time></trkpt><trkpt lat="45.4498719547494" lon="8.962983731961005"><ele>129.0</ele><time>2026-03-29T11:08:54.999Z</time></trkpt><trkpt lat="45.44992430691919" lon="8.963130033486461"><ele>129.5</ele><time>2026-03-29T11:08:55.999Z</time></trkpt><trkpt lat="45.4499781167882" lon="8.963276518839347"><ele>130.0</ele><time>2026-03-29T11:08:56.999Z</time></trkpt><trkpt lat="45.45002949097437" lon="8.96342828889793"><ele>130.0</ele><time>2026-03-29T11:08:57.999Z</time></trkpt><trkpt lat="45.45008013497876" lon="8.963575903501905"><ele>130.0</ele><time>2026-03-29T11:08:58.999Z</time></trkpt><trkpt lat="45.450128370510825" lon="8.96373353159636"><ele>130.0</ele><time>2026-03-29T11:08:59.999Z</time></trkpt><trkpt lat="45.45017142645507" lon="8.963897649031038"><ele>130.0</ele><time>2026-03-29T11:09:00.999Z</time></trkpt><trkpt lat="45.45021769681555" lon="8.964064337150385"><ele>129.5</ele><time>2026-03-29T11:09:01.999Z</time></trkpt><trkpt lat="45.450256944935276" lon="8.964217184717764"><ele>129.0</ele><time>2026-03-29T11:09:02.999Z</time></trkpt><trkpt lat="45.4503038919715" lon="8.964394941447747"><ele>128.5</ele><time>2026-03-29T11:09:03.999Z</time></trkpt><trkpt lat="45.450367798422256" lon="8.964569972829466"><ele>128.0</ele><time>2026-03-29T11:09:04.999Z</time></trkpt><trkpt lat="45.45040208257919" lon="8.964770953594396"><ele>128.0</ele><time>2026-03-29T11:09:05.999Z</time></trkpt><trkpt lat="45.4504754989683" lon="8.96493978689136"><ele>128.0</ele><time>2026-03-29T11:09:06.999Z</time></trkpt><trkpt lat="45.45055354923146" lon="8.965087101299007"><ele>128.0</ele><time>2026-03-29T11:09:07.999Z</time></trkpt><trkpt lat="45.45063536722012" lon="8.965220272885698"><ele>128.0</ele><time>2026-03-29T11:09:08.999Z</time></trkpt><trkpt lat="45.450717332592795" lon="8.96535389966141"><ele>128.0</ele><time>2026-03-29T11:09:09.999Z</time></trkpt><trkpt lat="45.450787864015254" lon="8.965478277437514"><ele>128.0</ele><time>2026-03-29T11:09:10.999Z</time></trkpt><trkpt lat="45.45085813437962" lon="8.965600312133951"><ele>128.0</ele><time>2026-03-29T11:09:11.999Z</time></trkpt><trkpt lat="45.45092908552123" lon="8.965724190422833"><ele>128.0</ele><time>2026-03-29T11:09:12.999Z</time></trkpt><trkpt lat="45.45099973227951" lon="8.965849262560178"><ele>128.0</ele><time>2026-03-29T11:09:13.999Z</time></trkpt><trkpt lat="45.451060638196545" lon="8.965971840891953"><ele>128.75</ele><time>2026-03-29T11:09:14.999Z</time></trkpt><trkpt lat="45.45110985561539" lon="8.966117557066113"><ele>129.5</ele><time>2026-03-29T11:09:15.999Z</time></trkpt><trkpt lat="45.451147747745125" lon="8.96628174613252"><ele>130.25</ele><time>2026-03-29T11:09:16.999Z</time></trkpt><trkpt lat="45.45118034334349" lon="8.966431436294112"><ele>131.0</ele><time>2026-03-29T11:09:17.999Z</time></trkpt><trkpt lat="45.45120260089724" lon="8.966589195763902"><ele>130.75</ele><time>2026-03-29T11:09:18.999Z</time></trkpt><trkpt lat="45.45121745065218" lon="8.966752791146344"><ele>130.5</ele><time>2026-03-29T11:09:19.999Z</time></trkpt><trkpt lat="45.45121557039488" lon="8.966920252009738"><ele>130.25</ele><time>2026-03-29T11:09:20.999Z</time></trkpt><trkpt lat="45.45120792121625" lon="8.967090632028391"><ele>130.0</ele><time>2026-03-29T11:09:21.999Z</time></trkpt><trkpt lat="45.45117561742084" lon="8.967230838393798"><ele>130.0</ele><time>2026-03-29T11:09:22.999Z</time></trkpt><trkpt lat="45.451133234720224" lon="8.967376357855096"><ele>130.0</ele><time>2026-03-29T11:09:23.999Z</time></trkpt><trkpt lat="45.451089535456184" lon="8.967520172532325"><ele>130.0</ele><time>2026-03-29T11:09:24.999Z</time></trkpt><trkpt lat="45.45104570191377" lon="8.967654535590961"><ele>130.0</ele><time>2026-03-29T11:09:25.999Z</time></trkpt><trkpt lat="45.450999316223516" lon="8.96779221993561"><ele>130.0</ele><time>2026-03-29T11:09:26.999Z</time></trkpt><trkpt lat="45.45095833081877" lon="8.96792793452096"><ele>129.8</ele><time>2026-03-29T11:09:27.999Z</time></trkpt><trkpt lat="45.45089249592874" lon="8.968061318158675"><ele>129.6</ele><time>2026-03-29T11:09:28.999Z</time></trkpt><trkpt lat="45.45085137855765" lon="8.968201065909904"><ele>129.4</ele><time>2026-03-29T11:09:29.999Z</time></trkpt><trkpt lat="45.45079067867801" lon="8.968335598451798"><ele>129.2</ele><time>2026-03-29T11:09:30.999Z</time></trkpt><trkpt lat="45.45071341342454" lon="8.968442082759623"><ele>129.0</ele><time>2026-03-29T11:09:31.999Z</time></trkpt><trkpt lat="45.45064362587826" lon="8.968540927319532"><ele>129.0</ele><time>2026-03-29T11:09:32.999Z</time></trkpt><trkpt lat="45.45057181284596" lon="8.968641119014197"><ele>129.0</ele><time>2026-03-29T11:09:33.999Z</time></trkpt><trkpt lat="45.45050610865744" lon="8.968769526521408"><ele>129.0</ele><time>2026-03-29T11:09:34.999Z</time></trkpt><trkpt lat="45.4504364461182" lon="8.968886333138828"><ele>129.0</ele><time>2026-03-29T11:09:36Z</time></trkpt><trkpt lat="45.45038692310991" lon="8.969027133546685"><ele>129.0</ele><time>2026-03-29T11:09:37Z</time></trkpt><trkpt lat="45.45036163590273" lon="8.969198056803524"><ele>128.75</ele><time>2026-03-29T11:09:38Z</time></trkpt><trkpt lat="45.450356876644214" lon="8.96937944835671"><ele>128.5</ele><time>2026-03-29T11:09:39Z</time></trkpt><trkpt lat="45.450341473876165" lon="8.969554626650671"><ele>128.25</ele><time>2026-03-29T11:09:40Z</time></trkpt><trkpt lat="45.4503382066698" lon="8.969704400291805"><ele>128.0</ele><time>2026-03-29T11:09:41Z</time></trkpt><trkpt lat="45.45033012919701" lon="8.969845898251368"><ele>127.99999999999999</ele><time>2026-03-29T11:09:42Z</time></trkpt><trkpt lat="45.45031865789455" lon="8.969975091416591"><ele>128.0</ele><time>2026-03-29T11:09:43Z</time></trkpt><trkpt lat="45.45030980195194" lon="8.970097051893479"><ele>128.0</ele><time>2026-03-29T11:09:44Z</time></trkpt><trkpt lat="45.4503020506848" lon="8.970197872844734"><ele>128.0</ele><time>2026-03-29T11:09:45Z</time></trkpt><trkpt lat="45.45030553079929" lon="8.970320923915251"><ele>127.99999999999999</ele><time>2026-03-29T11:09:47Z</time></trkpt><trkpt lat="45.450302468508674" lon="8.970422769445785"><ele>128.0</ele><time>2026-03-29T11:09:50Z</time></trkpt><trkpt lat="45.4504340095865" lon="8.970447677592515"><ele>127.83333333333333</ele><time>2026-03-29T11:09:51Z</time></trkpt><trkpt lat="45.45051319864654" lon="8.970449386737254"><ele>127.66666666666666</ele><time>2026-03-29T11:09:52Z</time></trkpt><trkpt lat="45.45059143624176" lon="8.970442413745058"><ele>127.5</ele><time>2026-03-29T11:09:53Z</time></trkpt><trkpt lat="45.45067657660152" lon="8.970448869802613"><ele>127.33333333333334</ele><time>2026-03-29T11:09:54Z</time></trkpt><trkpt lat="45.450761783897974" lon="8.970461244984742"><ele>127.16666666666667</ele><time>2026-03-29T11:09:55Z</time></trkpt><trkpt lat="45.450844350764434" lon="8.970501307607874"><ele>127.0</ele><time>2026-03-29T11:09:56Z</time></trkpt><trkpt lat="45.450935027181835" lon="8.970698533314408"><ele>127.0</ele><time>2026-03-29T11:09:58Z</time></trkpt><trkpt lat="45.45095414881093" lon="8.970835812285353"><ele>126.99999999999999</ele><time>2026-03-29T11:09:59Z</time></trkpt><trkpt lat="45.450966708654555" lon="8.970977548470199"><ele>126.99999999999999</ele><time>2026-03-29T11:10:00Z</time></trkpt><trkpt lat="45.45103103990425" lon="8.971124024287349"><ele>127.0</ele><time>2026-03-29T11:10:01Z</time></trkpt><trkpt lat="45.451093521686765" lon="8.971271766426028"><ele>127.0</ele><time>2026-03-29T11:10:02Z</time></trkpt><trkpt lat="45.4511456658395" lon="8.971429994427247"><ele>127.0</ele><time>2026-03-29T11:10:03Z</time></trkpt><trkpt lat="45.451214970413815" lon="8.971594688842737"><ele>127.0</ele><time>2026-03-29T11:10:04Z</time></trkpt><trkpt lat="45.4512837065962" lon="8.971773885718003"><ele>127.0</ele><time>2026-03-29T11:10:05Z</time></trkpt><trkpt lat="45.451352055029055" lon="8.971947780845184"><ele>127.0</ele><time>2026-03-29T11:10:06Z</time></trkpt><trkpt lat="45.451417301266886" lon="8.972115605941147"><ele>127.19999999999999</ele><time>2026-03-29T11:10:07Z</time></trkpt><trkpt lat="45.451477714389746" lon="8.972275003015103"><ele>127.39999999999999</ele><time>2026-03-29T11:10:08Z</time></trkpt><trkpt lat="45.45153235694175" lon="8.972412446322565"><ele>127.60000000000001</ele><time>2026-03-29T11:10:09Z</time></trkpt><trkpt lat="45.4515830320311" lon="8.972544489847088"><ele>127.80000000000001</ele><time>2026-03-29T11:10:10Z</time></trkpt><trkpt lat="45.451632009239184" lon="8.972660808851279"><ele>128.0</ele><time>2026-03-29T11:10:11Z</time></trkpt><trkpt lat="45.45165907640711" lon="8.972774475565014"><ele>128.16666666666666</ele><time>2026-03-29T11:10:12Z</time></trkpt><trkpt lat="45.45168614568053" lon="8.972884399564382"><ele>128.33333333333331</ele><time>2026-03-29T11:10:13Z</time></trkpt><trkpt lat="45.45168163706272" lon="8.97299261515153"><ele>128.5</ele><time>2026-03-29T11:10:14Z</time></trkpt><trkpt lat="45.45161597352087" lon="8.97308329203488"><ele>128.66666666666666</ele><time>2026-03-29T11:10:15Z</time></trkpt><trkpt lat="45.451563922051335" lon="8.973202534308214"><ele>128.83333333333334</ele><time>2026-03-29T11:10:16Z</time></trkpt><trkpt lat="45.45151110494144" lon="8.973294433836783"><ele>129.0</ele><time>2026-03-29T11:10:17Z</time></trkpt><trkpt lat="45.45147583984773" lon="8.973393401582953"><ele>129.16666666666666</ele><time>2026-03-29T11:10:18Z</time></trkpt><trkpt lat="45.451449392981445" lon="8.973485921790319"><ele>129.33333333333334</ele><time>2026-03-29T11:10:19Z</time></trkpt><trkpt lat="45.451454521334824" lon="8.973596976954614"><ele>129.5</ele><time>2026-03-29T11:10:20Z</time></trkpt><trkpt lat="45.45148973114533" lon="8.973694824940777"><ele>129.66666666666669</ele><time>2026-03-29T11:10:21Z</time></trkpt><trkpt lat="45.45153164487352" lon="8.973776253439688"><ele>129.83333333333334</ele><time>2026-03-29T11:10:22Z</time></trkpt><trkpt lat="45.45159436715148" lon="8.973918337503047"><ele>130.0</ele><time>2026-03-29T11:10:24Z</time></trkpt><trkpt lat="45.451634480822335" lon="8.974008000306945"><ele>130.0</ele><time>2026-03-29T11:10:25Z</time></trkpt><trkpt lat="45.45168075513493" lon="8.974123225249658"><ele>130.0</ele><time>2026-03-29T11:10:26Z</time></trkpt><trkpt lat="45.45173124676508" lon="8.974231183119583"><ele>130.0</ele><time>2026-03-29T11:10:27Z</time></trkpt><trkpt lat="45.45178321285125" lon="8.974350439935657"><ele>130.0</ele><time>2026-03-29T11:10:28Z</time></trkpt><trkpt lat="45.45183793953858" lon="8.974492170908393"><ele>130.0</ele><time>2026-03-29T11:10:29Z</time></trkpt><trkpt lat="45.45189531552051" lon="8.974644094880608"><ele>129.83333333333334</ele><time>2026-03-29T11:10:30Z</time></trkpt><trkpt lat="45.451945152262496" lon="8.974766521076496"><ele>129.66666666666669</ele><time>2026-03-29T11:10:31Z</time></trkpt><trkpt lat="45.451990677513045" lon="8.974889706074565"><ele>129.5</ele><time>2026-03-29T11:10:32Z</time></trkpt><trkpt lat="45.452028694743554" lon="8.974999894495205"><ele>129.33333333333334</ele><time>2026-03-29T11:10:33Z</time></trkpt><trkpt lat="45.45205957201362" lon="8.975084502131095"><ele>129.16666666666666</ele><time>2026-03-29T11:10:34Z</time></trkpt><trkpt lat="45.45206294850155" lon="8.975183361533029"><ele>129.0</ele><time>2026-03-29T11:10:35Z</time></trkpt><trkpt lat="45.452029023618415" lon="8.975290013098316"><ele>128.8</ele><time>2026-03-29T11:10:36Z</time></trkpt><trkpt lat="45.451934774717" lon="8.975323437623304"><ele>128.60000000000002</ele><time>2026-03-29T11:10:37Z</time></trkpt><trkpt lat="45.45184805890081" lon="8.975391495976462"><ele>128.4</ele><time>2026-03-29T11:10:38Z</time></trkpt><trkpt lat="45.45175439288572" lon="8.975462807259202"><ele>128.20000000000002</ele><time>2026-03-29T11:10:39Z</time></trkpt><trkpt lat="45.451642136833485" lon="8.975545689193863"><ele>128.0</ele><time>2026-03-29T11:10:40Z</time></trkpt><trkpt lat="45.451520544902785" lon="8.97563543686922"><ele>128.0</ele><time>2026-03-29T11:10:41Z</time></trkpt><trkpt lat="45.45140300546604" lon="8.975728562072065"><ele>128.0</ele><time>2026-03-29T11:10:42Z</time></trkpt><trkpt lat="45.45127723629558" lon="8.97581706226729"><ele>128.0</ele><time>2026-03-29T11:10:42.999Z</time></trkpt><trkpt lat="45.45114570393886" lon="8.975916253983335"><ele>128.0</ele><time>2026-03-29T11:10:43.999Z</time></trkpt><trkpt lat="45.45101653002124" lon="8.97601774848692"><ele>127.33333333333333</ele><time>2026-03-29T11:10:44.999Z</time></trkpt><trkpt lat="45.450880217292024" lon="8.976121901760886"><ele>126.66666666666666</ele><time>2026-03-29T11:10:45.999Z</time></trkpt><trkpt lat="45.45073798169074" lon="8.97623408536266"><ele>126.0</ele><time>2026-03-29T11:10:46.999Z</time></trkpt><trkpt lat="45.45058246728147" lon="8.97633075293463"><ele>126.0</ele><time>2026-03-29T11:10:47.999Z</time></trkpt><trkpt lat="45.45041839577994" lon="8.976455758367342"><ele>126.0</ele><time>2026-03-29T11:10:48.999Z</time></trkpt><trkpt lat="45.450267043521464" lon="8.976610306187363"><ele>126.0</ele><time>2026-03-29T11:10:49.999Z</time></trkpt><trkpt lat="45.450107069705275" lon="8.976745394400837"><ele>126.0</ele><time>2026-03-29T11:10:50.999Z</time></trkpt><trkpt lat="45.44994518391849" lon="8.976867869639724"><ele>126.0</ele><time>2026-03-29T11:10:51.999Z</time></trkpt><trkpt lat="45.44978663229998" lon="8.976981046787527"><ele>126.0</ele><time>2026-03-29T11:10:52.999Z</time></trkpt><trkpt lat="45.44962872000628" lon="8.97710502495489"><ele>126.0</ele><time>2026-03-29T11:10:53.999Z</time></trkpt><trkpt lat="45.44947350731768" lon="8.977258069779761"><ele>126.0</ele><time>2026-03-29T11:10:54.999Z</time></trkpt><trkpt lat="45.44931844904716" lon="8.97743271561472"><ele>126.0</ele><time>2026-03-29T11:10:55.999Z</time></trkpt><trkpt lat="45.449187817831586" lon="8.97765879223889"><ele>125.66666666666666</ele><time>2026-03-29T11:10:56.999Z</time></trkpt><trkpt lat="45.44907336357995" lon="8.977898213765277"><ele>125.33333333333333</ele><time>2026-03-29T11:10:57.999Z</time></trkpt><trkpt lat="45.4489373839577" lon="8.97808534302411"><ele>125.0</ele><time>2026-03-29T11:10:58.999Z</time></trkpt><trkpt lat="45.44881069091021" lon="8.978272366788575"><ele>125.0</ele><time>2026-03-29T11:10:59.999Z</time></trkpt><trkpt lat="45.44867715143576" lon="8.978434399266403"><ele>125.0</ele><time>2026-03-29T11:11:00.999Z</time></trkpt><trkpt lat="45.44853758113968" lon="8.978563808159041"><ele>125.0</ele><time>2026-03-29T11:11:01.999Z</time></trkpt><trkpt lat="45.44837823542264" lon="8.97864124792752"><ele>125.0</ele><time>2026-03-29T11:11:02.999Z</time></trkpt><trkpt lat="45.44820626886682" lon="8.97872132565768"><ele>125.0</ele><time>2026-03-29T11:11:03.999Z</time></trkpt><trkpt lat="45.448031485017395" lon="8.978834158440856"><ele>125.0</ele><time>2026-03-29T11:11:04.999Z</time></trkpt><trkpt lat="45.44785599986888" lon="8.97897377956796"><ele>125.33333333333333</ele><time>2026-03-29T11:11:05.999Z</time></trkpt><trkpt lat="45.447687571064556" lon="8.979129884350902"><ele>125.66666666666666</ele><time>2026-03-29T11:11:06.999Z</time></trkpt><trkpt lat="45.44753158548247" lon="8.979304783939957"><ele>126.0</ele><time>2026-03-29T11:11:07.999Z</time></trkpt><trkpt lat="45.44738555878413" lon="8.979506758580946"><ele>126.0</ele><time>2026-03-29T11:11:08.999Z</time></trkpt><trkpt lat="45.44724745574615" lon="8.979721354855537"><ele>126.0</ele><time>2026-03-29T11:11:09.999Z</time></trkpt><trkpt lat="45.447098694688805" lon="8.979912074033484"><ele>126.0</ele><time>2026-03-29T11:11:10.999Z</time></trkpt><trkpt lat="45.44693404955943" lon="8.980075194928924"><ele>126.0</ele><time>2026-03-29T11:11:11.999Z</time></trkpt><trkpt lat="45.44676919064544" lon="8.980220544011177"><ele>126.0</ele><time>2026-03-29T11:11:12.999Z</time></trkpt><trkpt lat="45.44661595158771" lon="8.980357794096845"><ele>126.0</ele><time>2026-03-29T11:11:13.999Z</time></trkpt><trkpt lat="45.44647637018396" lon="8.98048481796239"><ele>126.0</ele><time>2026-03-29T11:11:14.999Z</time></trkpt><trkpt lat="45.44634748673586" lon="8.980610967429433"><ele>126.0</ele><time>2026-03-29T11:11:15.999Z</time></trkpt><trkpt lat="45.44623468020793" lon="8.980734234073905"><ele>126.0</ele><time>2026-03-29T11:11:16.999Z</time></trkpt><trkpt lat="45.44612832864385" lon="8.98085718686202"><ele>126.0</ele><time>2026-03-29T11:11:17.999Z</time></trkpt><trkpt lat="45.44603881112863" lon="8.980952742708292"><ele>126.4</ele><time>2026-03-29T11:11:18.999Z</time></trkpt><trkpt lat="45.44595207778142" lon="8.981028723848747"><ele>126.8</ele><time>2026-03-29T11:11:19.999Z</time></trkpt><trkpt lat="45.44586236829613" lon="8.981103109186188"><ele>127.20000000000002</ele><time>2026-03-29T11:11:20.999Z</time></trkpt><trkpt lat="45.44576866597296" lon="8.981176813931881"><ele>127.60000000000001</ele><time>2026-03-29T11:11:21.999Z</time></trkpt><trkpt lat="45.44567395913333" lon="8.981264514451171"><ele>128.0</ele><time>2026-03-29T11:11:22.999Z</time></trkpt><trkpt lat="45.445571420316256" lon="8.981325974161406"><ele>128.0</ele><time>2026-03-29T11:11:23.999Z</time></trkpt><trkpt lat="45.4454651191852" lon="8.98138439086864"><ele>128.0</ele><time>2026-03-29T11:11:24.999Z</time></trkpt><trkpt lat="45.44536173888749" lon="8.98143650614206"><ele>128.0</ele><time>2026-03-29T11:11:25.999Z</time></trkpt><trkpt lat="45.44525980548531" lon="8.981486765720097"><ele>128.0</ele><time>2026-03-29T11:11:26.999Z</time></trkpt><trkpt lat="45.44516806650014" lon="8.981533039499844"><ele>128.0</ele><time>2026-03-29T11:11:27.999Z</time></trkpt><trkpt lat="45.445076653197745" lon="8.981584216993552"><ele>128.0</ele><time>2026-03-29T11:11:28.999Z</time></trkpt><trkpt lat="45.44498298507374" lon="8.981632265859501"><ele>128.0</ele><time>2026-03-29T11:11:29.999Z</time></trkpt><trkpt lat="45.44489025069587" lon="8.981677936100214"><ele>128.0</ele><time>2026-03-29T11:11:30.999Z</time></trkpt><trkpt lat="45.44478883074978" lon="8.981728860253082"><ele>128.0</ele><time>2026-03-29T11:11:31.999Z</time></trkpt><trkpt lat="45.44468763938338" lon="8.981777583930906"><ele>128.0</ele><time>2026-03-29T11:11:32.999Z</time></trkpt><trkpt lat="45.44457682890623" lon="8.981824832036297"><ele>128.0</ele><time>2026-03-29T11:11:33.999Z</time></trkpt><trkpt lat="45.44446759766908" lon="8.981854741261627"><ele>128.0</ele><time>2026-03-29T11:11:34.999Z</time></trkpt><trkpt lat="45.44434780299008" lon="8.98188704862328"><ele>128.0</ele><time>2026-03-29T11:11:35.999Z</time></trkpt><trkpt lat="45.44422171757017" lon="8.981941698069738"><ele>128.0</ele><time>2026-03-29T11:11:36.999Z</time></trkpt><trkpt lat="45.444113403781145" lon="8.982009309339787"><ele>128.0</ele><time>2026-03-29T11:11:37.999Z</time></trkpt><trkpt lat="45.44401500879783" lon="8.982079192981917"><ele>128.0</ele><time>2026-03-29T11:11:38.999Z</time></trkpt><trkpt lat="45.44391779038111" lon="8.982146406788077"><ele>128.0</ele><time>2026-03-29T11:11:39.999Z</time></trkpt><trkpt lat="45.44382377250939" lon="8.982212067108394"><ele>128.0</ele><time>2026-03-29T11:11:40.999Z</time></trkpt><trkpt lat="45.443728250486785" lon="8.982281745786905"><ele>128.0</ele><time>2026-03-29T11:11:42Z</time></trkpt><trkpt lat="45.443630821933176" lon="8.982359253787957"><ele>127.80000000000001</ele><time>2026-03-29T11:11:43Z</time></trkpt><trkpt lat="45.44352988249046" lon="8.982439114717916"><ele>127.60000000000001</ele><time>2026-03-29T11:11:44Z</time></trkpt><trkpt lat="45.44343633271164" lon="8.98251000427556"><ele>127.39999999999999</ele><time>2026-03-29T11:11:45Z</time></trkpt><trkpt lat="45.443350680575016" lon="8.9825749509297"><ele>127.19999999999999</ele><time>2026-03-29T11:11:46Z</time></trkpt><trkpt lat="45.443271636196584" lon="8.98261760435263"><ele>127.0</ele><time>2026-03-29T11:11:47Z</time></trkpt><trkpt lat="45.44320047279201" lon="8.982667688829377"><ele>127.00000000000001</ele><time>2026-03-29T11:11:48Z</time></trkpt><trkpt lat="45.44313631287301" lon="8.982715816461221"><ele>127.0</ele><time>2026-03-29T11:11:49Z</time></trkpt><trkpt lat="45.443077217778914" lon="8.982763442037378"><ele>127.0</ele><time>2026-03-29T11:11:50Z</time></trkpt><trkpt lat="45.44297635763606" lon="8.982834925542878"><ele>127.0</ele><time>2026-03-29T11:11:52Z</time></trkpt><trkpt lat="45.44291485444304" lon="8.982864453345233"><ele>127.00000000000001</ele><time>2026-03-29T11:11:53Z</time></trkpt><trkpt lat="45.4428485633973" lon="8.982886866050197"><ele>127.0</ele><time>2026-03-29T11:11:54Z</time></trkpt><trkpt lat="45.44278362386883" lon="8.98293801699375"><ele>127.19999999999999</ele><time>2026-03-29T11:11:55Z</time></trkpt><trkpt lat="45.44272466702463" lon="8.98300701671913"><ele>127.39999999999999</ele><time>2026-03-29T11:11:56Z</time></trkpt><trkpt lat="45.44265125824454" lon="8.983077696976098"><ele>127.60000000000001</ele><time>2026-03-29T11:11:57Z</time></trkpt><trkpt lat="45.44256253533979" lon="8.98315649366465"><ele>127.80000000000001</ele><time>2026-03-29T11:11:58Z</time></trkpt><trkpt lat="45.442474684270884" lon="8.983201483941658"><ele>128.0</ele><time>2026-03-29T11:11:59Z</time></trkpt><trkpt lat="45.44237544124371" lon="8.983260741084296"><ele>128.0</ele><time>2026-03-29T11:12:00Z</time></trkpt><trkpt lat="45.44227009771096" lon="8.983336419403619"><ele>128.0</ele><time>2026-03-29T11:12:01Z</time></trkpt><trkpt lat="45.44215880118855" lon="8.983414724508368"><ele>128.0</ele><time>2026-03-29T11:12:02Z</time></trkpt><trkpt lat="45.442053570041594" lon="8.983485851247345"><ele>128.0</ele><time>2026-03-29T11:12:03Z</time></trkpt><trkpt lat="45.441951021871425" lon="8.98355416039891"><ele>127.2</ele><time>2026-03-29T11:12:04Z</time></trkpt><trkpt lat="45.44185260074435" lon="8.983621735035598"><ele>126.4</ele><time>2026-03-29T11:12:05Z</time></trkpt><trkpt lat="45.44176048389649" lon="8.98368223553633"><ele>125.60000000000001</ele><time>2026-03-29T11:12:06Z</time></trkpt><trkpt lat="45.44167100657793" lon="8.983742158288097"><ele>124.80000000000001</ele><time>2026-03-29T11:12:07Z</time></trkpt><trkpt lat="45.44157769795724" lon="8.98380446188839"><ele>124.0</ele><time>2026-03-29T11:12:08Z</time></trkpt><trkpt lat="45.44147761606471" lon="8.983868860798559"><ele>124.00000000000001</ele><time>2026-03-29T11:12:09Z</time></trkpt><trkpt lat="45.441386729937754" lon="8.983929483831464"><ele>124.0</ele><time>2026-03-29T11:12:10Z</time></trkpt><trkpt lat="45.441308510622555" lon="8.983984052394867"><ele>124.0</ele><time>2026-03-29T11:12:11Z</time></trkpt><trkpt lat="45.441232028088706" lon="8.984042432082814"><ele>124.0</ele><time>2026-03-29T11:12:12Z</time></trkpt><trkpt lat="45.4411653473967" lon="8.98409268235726"><ele>124.00000000000001</ele><time>2026-03-29T11:12:13Z</time></trkpt><trkpt lat="45.44109840562314" lon="8.984120360831366"><ele>124.0</ele><time>2026-03-29T11:12:14Z</time></trkpt><trkpt lat="45.44104121801846" lon="8.984160485643015"><ele>124.2</ele><time>2026-03-29T11:12:15Z</time></trkpt><trkpt lat="45.44096879955907" lon="8.984214877183959"><ele>124.4</ele><time>2026-03-29T11:12:17Z</time></trkpt><trkpt lat="45.44103986081137" lon="8.98442910008453"><ele>124.6</ele><time>2026-03-29T11:12:18Z</time></trkpt><trkpt lat="45.44106880244195" lon="8.984544178725146"><ele>124.8</ele><time>2026-03-29T11:12:19Z</time></trkpt><trkpt lat="45.44110744174141" lon="8.98465944402648"><ele>125.0</ele><time>2026-03-29T11:12:20Z</time></trkpt><trkpt lat="45.44115859338873" lon="8.98475703835218"><ele>125.0</ele><time>2026-03-29T11:12:21Z</time></trkpt><trkpt lat="45.441193471837195" lon="8.984862513629164"><ele>125.0</ele><time>2026-03-29T11:12:22Z</time></trkpt><trkpt lat="45.44121659903601" lon="8.984992218018327"><ele>125.0</ele><time>2026-03-29T11:12:23Z</time></trkpt><trkpt lat="45.44125338790127" lon="8.98511239646"><ele>125.0</ele><time>2026-03-29T11:12:24Z</time></trkpt><trkpt lat="45.44129507934563" lon="8.985236005252336"><ele>125.0</ele><time>2026-03-29T11:12:25Z</time></trkpt><trkpt lat="45.44133494194667" lon="8.98535568093946"><ele>125.0</ele><time>2026-03-29T11:12:26Z</time></trkpt><trkpt lat="45.44137913734151" lon="8.985479277070981"><ele>125.0</ele><time>2026-03-29T11:12:27Z</time></trkpt><trkpt lat="45.44142406912794" lon="8.985609330003186"><ele>125.0</ele><time>2026-03-29T11:12:28Z</time></trkpt><trkpt lat="45.44146204457958" lon="8.985728206899879"><ele>125.0</ele><time>2026-03-29T11:12:29Z</time></trkpt><trkpt lat="45.441504166718026" lon="8.985851982324334"><ele>125.0</ele><time>2026-03-29T11:12:30Z</time></trkpt><trkpt lat="45.44154654601695" lon="8.985977168129969"><ele>125.0</ele><time>2026-03-29T11:12:31Z</time></trkpt><trkpt lat="45.441586375851415" lon="8.986108159712925"><ele>125.0</ele><time>2026-03-29T11:12:32Z</time></trkpt><trkpt lat="45.441629000309966" lon="8.986239418317027"><ele>125.0</ele><time>2026-03-29T11:12:33Z</time></trkpt><trkpt lat="45.441671872503576" lon="8.986370374251"><ele>125.0</ele><time>2026-03-29T11:12:34Z</time></trkpt><trkpt lat="45.44172344167469" lon="8.986511163086298"><ele>125.0</ele><time>2026-03-29T11:12:35Z</time></trkpt><trkpt lat="45.44176586168257" lon="8.986657120146328"><ele>125.0</ele><time>2026-03-29T11:12:36Z</time></trkpt><trkpt lat="45.44181165819029" lon="8.98680451296779"><ele>125.0</ele><time>2026-03-29T11:12:37Z</time></trkpt><trkpt lat="45.441858603177124" lon="8.986954933826842"><ele>125.0</ele><time>2026-03-29T11:12:38Z</time></trkpt><trkpt lat="45.441913032375254" lon="8.9871061249992"><ele>125.0</ele><time>2026-03-29T11:12:39Z</time></trkpt><trkpt lat="45.44196283595096" lon="8.987265958335591"><ele>125.0</ele><time>2026-03-29T11:12:40Z</time></trkpt><trkpt lat="45.44202089734719" lon="8.987438957216343"><ele>125.0</ele><time>2026-03-29T11:12:41Z</time></trkpt><trkpt lat="45.44207481396999" lon="8.987590747182907"><ele>125.0</ele><time>2026-03-29T11:12:42Z</time></trkpt><trkpt lat="45.44212856530655" lon="8.987739759029804"><ele>125.0</ele><time>2026-03-29T11:12:43Z</time></trkpt><trkpt lat="45.44217832705938" lon="8.987888082876"><ele>125.25</ele><time>2026-03-29T11:12:44Z</time></trkpt><trkpt lat="45.442224993188006" lon="8.988045558496754"><ele>125.5</ele><time>2026-03-29T11:12:45Z</time></trkpt><trkpt lat="45.44227623852523" lon="8.988200869199284"><ele>125.75</ele><time>2026-03-29T11:12:46Z</time></trkpt><trkpt lat="45.44233009075515" lon="8.988356107346151"><ele>126.0</ele><time>2026-03-29T11:12:46.999Z</time></trkpt><trkpt lat="45.442385572085534" lon="8.98851846758597"><ele>126.0</ele><time>2026-03-29T11:12:47.999Z</time></trkpt><trkpt lat="45.442436101985415" lon="8.988673945552677"><ele>126.0</ele><time>2026-03-29T11:12:48.999Z</time></trkpt><trkpt lat="45.44248786681721" lon="8.98882960013034"><ele>126.0</ele><time>2026-03-29T11:12:49.999Z</time></trkpt><trkpt lat="45.44254015298032" lon="8.988984738924355"><ele>126.0</ele><time>2026-03-29T11:12:50.999Z</time></trkpt><trkpt lat="45.44258829381375" lon="8.989123302968466"><ele>125.8</ele><time>2026-03-29T11:12:51.999Z</time></trkpt><trkpt lat="45.44263187255536" lon="8.989253842822336"><ele>125.6</ele><time>2026-03-29T11:12:52.999Z</time></trkpt><trkpt lat="45.44265921750971" lon="8.989386658991108"><ele>125.4</ele><time>2026-03-29T11:12:53.999Z</time></trkpt><trkpt lat="45.44270013156226" lon="8.989509640699671"><ele>125.2</ele><time>2026-03-29T11:12:54.999Z</time></trkpt><trkpt lat="45.4427392227376" lon="8.989630267229616"><ele>125.0</ele><time>2026-03-29T11:12:55.999Z</time></trkpt><trkpt lat="45.4427763186008" lon="8.989735546361672"><ele>124.99999999999999</ele><time>2026-03-29T11:12:56.999Z</time></trkpt><trkpt lat="45.44281344208952" lon="8.989839536331344"><ele>125.0</ele><time>2026-03-29T11:12:57.999Z</time></trkpt><trkpt lat="45.44284998434058" lon="8.989944759883592"><ele>125.0</ele><time>2026-03-29T11:12:58.999Z</time></trkpt><trkpt lat="45.4428841905626" lon="8.990051887616756"><ele>125.0</ele><time>2026-03-29T11:12:59.999Z</time></trkpt><trkpt lat="45.442922368186075" lon="8.990162488042548"><ele>124.99999999999999</ele><time>2026-03-29T11:13:00.999Z</time></trkpt><trkpt lat="45.4429578525727" lon="8.990274867036687"><ele>125.0</ele><time>2026-03-29T11:13:01.999Z</time></trkpt><trkpt lat="45.44299547644663" lon="8.990387943786649"><ele>125.33333333333333</ele><time>2026-03-29T11:13:02.999Z</time></trkpt><trkpt lat="45.44303369639654" lon="8.990501043035438"><ele>125.66666666666666</ele><time>2026-03-29T11:13:03.999Z</time></trkpt><trkpt lat="45.44307477846762" lon="8.990615608215153"><ele>126.0</ele><time>2026-03-29T11:13:04.999Z</time></trkpt><trkpt lat="45.44311642741949" lon="8.990724116551274"><ele>126.33333333333334</ele><time>2026-03-29T11:13:05.999Z</time></trkpt><trkpt lat="45.44314972324353" lon="8.99082267318147"><ele>126.66666666666667</ele><time>2026-03-29T11:13:06.999Z</time></trkpt><trkpt lat="45.44317913529954" lon="8.990911088158443"><ele>127.0</ele><time>2026-03-29T11:13:07.999Z</time></trkpt><trkpt lat="45.44322526407013" lon="8.991043447790771"><ele>127.19999999999999</ele><time>2026-03-29T11:13:09.999Z</time></trkpt><trkpt lat="45.44325310164715" lon="8.99114466879507"><ele>127.39999999999999</ele><time>2026-03-29T11:13:12.999Z</time></trkpt><trkpt lat="45.443274534490406" lon="8.991253801356276"><ele>127.60000000000001</ele><time>2026-03-29T11:13:15.999Z</time></trkpt><trkpt lat="45.443403773711715" lon="8.991227997374866"><ele>127.80000000000001</ele><time>2026-03-29T11:13:17.999Z</time></trkpt><trkpt lat="45.443519066405614" lon="8.991176605783714"><ele>128.0</ele><time>2026-03-29T11:13:19.999Z</time></trkpt><trkpt lat="45.44357832093748" lon="8.991144928821631"><ele>127.99999999999999</ele><time>2026-03-29T11:13:20.999Z</time></trkpt><trkpt lat="45.443653895560495" lon="8.991107944647492"><ele>128.0</ele><time>2026-03-29T11:13:21.999Z</time></trkpt><trkpt lat="45.44372423291501" lon="8.991071194479842"><ele>128.0</ele><time>2026-03-29T11:13:22.999Z</time></trkpt><trkpt lat="45.443799921872305" lon="8.99102628573991"><ele>128.0</ele><time>2026-03-29T11:13:23.999Z</time></trkpt><trkpt lat="45.44387835683792" lon="8.99098540686772"><ele>127.99999999999999</ele><time>2026-03-29T11:13:24.999Z</time></trkpt><trkpt lat="45.443953308960076" lon="8.990954976626037"><ele>128.0</ele><time>2026-03-29T11:13:25.999Z</time></trkpt><trkpt lat="45.44402234345956" lon="8.990923586931565"><ele>127.83333333333333</ele><time>2026-03-29T11:13:26.999Z</time></trkpt><trkpt lat="45.44408803156465" lon="8.990899495531535"><ele>127.66666666666666</ele><time>2026-03-29T11:13:27.999Z</time></trkpt><trkpt lat="45.44414692184052" lon="8.99086525919963"><ele>127.5</ele><time>2026-03-29T11:13:28.999Z</time></trkpt><trkpt lat="45.44422836510785" lon="8.990807929953013"><ele>127.33333333333334</ele><time>2026-03-29T11:13:30.999Z</time></trkpt><trkpt lat="45.44431060414863" lon="8.990726975927519"><ele>127.16666666666667</ele><time>2026-03-29T11:13:32.999Z</time></trkpt><trkpt lat="45.44435641495558" lon="8.990657047425664"><ele>127.0</ele><time>2026-03-29T11:13:33.999Z</time></trkpt><trkpt lat="45.444439287345645" lon="8.990522704722057"><ele>127.00000000000001</ele><time>2026-03-29T11:13:35.999Z</time></trkpt><trkpt lat="45.44449297233846" lon="8.990443207121753"><ele>127.0</ele><time>2026-03-29T11:13:36.999Z</time></trkpt><trkpt lat="45.44454120602104" lon="8.990364579316891"><ele>127.0</ele><time>2026-03-29T11:13:37.999Z</time></trkpt><trkpt lat="45.44459763556978" lon="8.990274595452991"><ele>127.0</ele><time>2026-03-29T11:13:38.999Z</time></trkpt><trkpt lat="45.44465740226495" lon="8.990177283876793"><ele>127.00000000000001</ele><time>2026-03-29T11:13:39.999Z</time></trkpt><trkpt lat="45.44471759841237" lon="8.990070709953434"><ele>127.0</ele><time>2026-03-29T11:13:40.999Z</time></trkpt><trkpt lat="45.444774459622" lon="8.989968655387774"><ele>126.8</ele><time>2026-03-29T11:13:41.999Z</time></trkpt><trkpt lat="45.44483269831012" lon="8.989866369957792"><ele>126.6</ele><time>2026-03-29T11:13:42.999Z</time></trkpt><trkpt lat="45.44488569056017" lon="8.9897537559703"><ele>126.39999999999999</ele><time>2026-03-29T11:13:43.999Z</time></trkpt><trkpt lat="45.444956796221476" lon="8.989647437183224"><ele>126.19999999999999</ele><time>2026-03-29T11:13:44.999Z</time></trkpt><trkpt lat="45.44502129525635" lon="8.989533801934536"><ele>126.0</ele><time>2026-03-29T11:13:45.999Z</time></trkpt><trkpt lat="45.445101758109" lon="8.989422452695905"><ele>126.0</ele><time>2026-03-29T11:13:46.999Z</time></trkpt><trkpt lat="45.44517656213523" lon="8.989319392834657"><ele>126.0</ele><time>2026-03-29T11:13:48Z</time></trkpt><trkpt lat="45.445253466521265" lon="8.989219040461258"><ele>126.0</ele><time>2026-03-29T11:13:49Z</time></trkpt><trkpt lat="45.44533379239107" lon="8.989114779100472"><ele>126.0</ele><time>2026-03-29T11:13:50Z</time></trkpt><trkpt lat="45.44541624751431" lon="8.989012882620004"><ele>126.0</ele><time>2026-03-29T11:13:51Z</time></trkpt><trkpt lat="45.44549878509442" lon="8.988919640263122"><ele>126.0</ele><time>2026-03-29T11:13:52Z</time></trkpt><trkpt lat="45.44558247707717" lon="8.98881613321728"><ele>126.0</ele><time>2026-03-29T11:13:53Z</time></trkpt><trkpt lat="45.44566309982524" lon="8.988715142790614"><ele>126.0</ele><time>2026-03-29T11:13:54Z</time></trkpt><trkpt lat="45.445742497448954" lon="8.988610152217031"><ele>126.0</ele><time>2026-03-29T11:13:55Z</time></trkpt><trkpt lat="45.44581708566247" lon="8.988508403511458"><ele>126.0</ele><time>2026-03-29T11:13:56Z</time></trkpt><trkpt lat="45.44589527758452" lon="8.98840939764253"><ele>126.0</ele><time>2026-03-29T11:13:57Z</time></trkpt><trkpt lat="45.44597854892823" lon="8.988321471147943"><ele>126.0</ele><time>2026-03-29T11:13:58Z</time></trkpt><trkpt lat="45.44606046377466" lon="8.988242295934347"><ele>126.0</ele><time>2026-03-29T11:13:59Z</time></trkpt><trkpt lat="45.446158192602354" lon="8.98818006766882"><ele>126.0</ele><time>2026-03-29T11:14:00Z</time></trkpt><trkpt lat="45.44625993540884" lon="8.988134990943085"><ele>126.0</ele><time>2026-03-29T11:14:01Z</time></trkpt><trkpt lat="45.446363533581895" lon="8.988098971031555"><ele>126.0</ele><time>2026-03-29T11:14:02Z</time></trkpt><trkpt lat="45.4464638822119" lon="8.988057941293068"><ele>126.0</ele><time>2026-03-29T11:14:03Z</time></trkpt><trkpt lat="45.44655974939554" lon="8.987998838594619"><ele>126.0</ele><time>2026-03-29T11:14:04Z</time></trkpt><trkpt lat="45.44665885845872" lon="8.987939658986862"><ele>126.0</ele><time>2026-03-29T11:14:05Z</time></trkpt><trkpt lat="45.44676350580933" lon="8.987893528283967"><ele>126.0</ele><time>2026-03-29T11:14:06Z</time></trkpt><trkpt lat="45.44685964689059" lon="8.9878593803777"><ele>126.0</ele><time>2026-03-29T11:14:07Z</time></trkpt><trkpt lat="45.44694884926164" lon="8.98783122647817"><ele>126.0</ele><time>2026-03-29T11:14:08Z</time></trkpt><trkpt lat="45.44703068838849" lon="8.987807839506175"><ele>126.0</ele><time>2026-03-29T11:14:09Z</time></trkpt><trkpt lat="45.447108953600775" lon="8.98779145695627"><ele>126.0</ele><time>2026-03-29T11:14:10Z</time></trkpt><trkpt lat="45.44718841316083" lon="8.987770930256465"><ele>126.0</ele><time>2026-03-29T11:14:11Z</time></trkpt><trkpt lat="45.44726766440629" lon="8.987764812130763"><ele>126.0</ele><time>2026-03-29T11:14:12Z</time></trkpt><trkpt lat="45.44734980836981" lon="8.987785382654605"><ele>126.0</ele><time>2026-03-29T11:14:13Z</time></trkpt><trkpt lat="45.44742171145253" lon="8.98783623888831"><ele>126.0</ele><time>2026-03-29T11:14:14Z</time></trkpt><trkpt lat="45.447517096493726" lon="8.987777046590322"><ele>126.0</ele><time>2026-03-29T11:14:15Z</time></trkpt><trkpt lat="45.44759125622393" lon="8.98770116605977"><ele>126.0</ele><time>2026-03-29T11:14:16Z</time></trkpt><trkpt lat="45.44767326594888" lon="8.987646699677638"><ele>126.0</ele><time>2026-03-29T11:14:17Z</time></trkpt><trkpt lat="45.44775389060247" lon="8.987595547596523"><ele>126.19999999999999</ele><time>2026-03-29T11:14:18Z</time></trkpt><trkpt lat="45.447799529150416" lon="8.987485657631334"><ele>126.39999999999999</ele><time>2026-03-29T11:14:19Z</time></trkpt><trkpt lat="45.44781604221825" lon="8.987349758541066"><ele>126.6</ele><time>2026-03-29T11:14:20Z</time></trkpt><trkpt lat="45.44781995627843" lon="8.987203174888249"><ele>126.8</ele><time>2026-03-29T11:14:21Z</time></trkpt><trkpt lat="45.44783117578248" lon="8.98706233861718"><ele>127.0</ele><time>2026-03-29T11:14:22Z</time></trkpt><trkpt lat="45.44785039627738" lon="8.986929518637654"><ele>127.00000000000001</ele><time>2026-03-29T11:14:23Z</time></trkpt><trkpt lat="45.44786955347835" lon="8.986807413264524"><ele>127.0</ele><time>2026-03-29T11:14:24Z</time></trkpt><trkpt lat="45.44788439565173" lon="8.986694123751267"><ele>127.0</ele><time>2026-03-29T11:14:25Z</time></trkpt><trkpt lat="45.447889141015196" lon="8.986592056437189"><ele>127.0</ele><time>2026-03-29T11:14:26Z</time></trkpt><trkpt lat="45.44789918615594" lon="8.986491851841254"><ele>127.00000000000001</ele><time>2026-03-29T11:14:27Z</time></trkpt><trkpt lat="45.44790380227771" lon="8.986350130765437"><ele>127.0</ele><time>2026-03-29T11:14:29Z</time></trkpt><trkpt lat="45.44804423269648" lon="8.986322196079103"><ele>126.8</ele><time>2026-03-29T11:14:31Z</time></trkpt><trkpt lat="45.44812035904969" lon="8.986338944877968"><ele>126.6</ele><time>2026-03-29T11:14:32Z</time></trkpt><trkpt lat="45.44820625485244" lon="8.986347346360883"><ele>126.39999999999999</ele><time>2026-03-29T11:14:33Z</time></trkpt><trkpt lat="45.448295540142794" lon="8.986379155342286"><ele>126.19999999999999</ele><time>2026-03-29T11:14:34Z</time></trkpt><trkpt lat="45.448389982272566" lon="8.986403103391408"><ele>126.0</ele><time>2026-03-29T11:14:35Z</time></trkpt><trkpt lat="45.448489167873895" lon="8.986413981884832"><ele>126.0</ele><time>2026-03-29T11:14:36Z</time></trkpt><trkpt lat="45.44858661980122" lon="8.98642568194265"><ele>126.0</ele><time>2026-03-29T11:14:37Z</time></trkpt><trkpt lat="45.448701874882694" lon="8.986422048033939"><ele>126.0</ele><time>2026-03-29T11:14:38Z</time></trkpt><trkpt lat="45.448814815126326" lon="8.9863823568129"><ele>126.0</ele><time>2026-03-29T11:14:39Z</time></trkpt><trkpt lat="45.448901030029205" lon="8.98631745923022"><ele>126.0</ele><time>2026-03-29T11:14:40Z</time></trkpt><trkpt lat="45.4489913038731" lon="8.986254464499824"><ele>126.0</ele><time>2026-03-29T11:14:41Z</time></trkpt><trkpt lat="45.44908851662384" lon="8.986191747054427"><ele>126.0</ele><time>2026-03-29T11:14:42Z</time></trkpt><trkpt lat="45.449181019189226" lon="8.986133012196541"><ele>126.0</ele><time>2026-03-29T11:14:43Z</time></trkpt><trkpt lat="45.4492714012769" lon="8.98608169374887"><ele>126.0</ele><time>2026-03-29T11:14:44Z</time></trkpt><trkpt lat="45.44936959493196" lon="8.986029783896504"><ele>126.0</ele><time>2026-03-29T11:14:45Z</time></trkpt><trkpt lat="45.44946985467019" lon="8.98597013755282"><ele>126.0</ele><time>2026-03-29T11:14:46Z</time></trkpt><trkpt lat="45.44956916586376" lon="8.985910838996647"><ele>126.0</ele><time>2026-03-29T11:14:47Z</time></trkpt><trkpt lat="45.449672646279495" lon="8.985858873148992"><ele>126.0</ele><time>2026-03-29T11:14:48Z</time></trkpt><trkpt lat="45.44977796693836" lon="8.985803680928228"><ele>126.0</ele><time>2026-03-29T11:14:49Z</time></trkpt><trkpt lat="45.44987162639641" lon="8.985743589317009"><ele>126.0</ele><time>2026-03-29T11:14:50Z</time></trkpt><trkpt lat="45.449957045417555" lon="8.985695063303602"><ele>126.16666666666667</ele><time>2026-03-29T11:14:51Z</time></trkpt><trkpt lat="45.45003124694153" lon="8.985660650600833"><ele>126.33333333333334</ele><time>2026-03-29T11:14:52Z</time></trkpt><trkpt lat="45.45010591608936" lon="8.985645610790616"><ele>126.5</ele><time>2026-03-29T11:14:53Z</time></trkpt><trkpt lat="45.45019786655614" lon="8.985667907063652"><ele>126.66666666666667</ele><time>2026-03-29T11:14:54Z</time></trkpt><trkpt lat="45.450256276237006" lon="8.985758621830014"><ele>126.83333333333334</ele><time>2026-03-29T11:14:55Z</time></trkpt><trkpt lat="45.45029328628814" lon="8.985891106491428"><ele>127.0</ele><time>2026-03-29T11:14:56Z</time></trkpt><trkpt lat="45.450336974235825" lon="8.986027237871115"><ele>127.0</ele><time>2026-03-29T11:14:56.999Z</time></trkpt><trkpt lat="45.4503608780893" lon="8.986152153651553"><ele>126.99999999999999</ele><time>2026-03-29T11:14:57.999Z</time></trkpt><trkpt lat="45.450411425421386" lon="8.986295861357087"><ele>126.99999999999999</ele><time>2026-03-29T11:14:58.999Z</time></trkpt><trkpt lat="45.450466228473495" lon="8.986427611959428"><ele>127.0</ele><time>2026-03-29T11:14:59.999Z</time></trkpt><trkpt lat="45.45055952259614" lon="8.986534695906984"><ele>127.0</ele><time>2026-03-29T11:15:00.999Z</time></trkpt><trkpt lat="45.450676747869785" lon="8.986587171273918"><ele>127.0</ele><time>2026-03-29T11:15:01.999Z</time></trkpt><trkpt lat="45.450805904215976" lon="8.98660427579004"><ele>127.0</ele><time>2026-03-29T11:15:02.999Z</time></trkpt><trkpt lat="45.45094815196734" lon="8.986575929582532"><ele>127.0</ele><time>2026-03-29T11:15:03.999Z</time></trkpt><trkpt lat="45.45108557626481" lon="8.986540719594725"><ele>127.0</ele><time>2026-03-29T11:15:04.999Z</time></trkpt><trkpt lat="45.451223210866104" lon="8.98650581842993"><ele>126.75</ele><time>2026-03-29T11:15:05.999Z</time></trkpt><trkpt lat="45.451361936603035" lon="8.98647254147603"><ele>126.5</ele><time>2026-03-29T11:15:06.999Z</time></trkpt><trkpt lat="45.45149896772956" lon="8.986438384278058"><ele>126.25</ele><time>2026-03-29T11:15:07.999Z</time></trkpt><trkpt lat="45.451635212446526" lon="8.986400898196877"><ele>126.0</ele><time>2026-03-29T11:15:08.999Z</time></trkpt><trkpt lat="45.45178231235496" lon="8.986351332982661"><ele>126.0</ele><time>2026-03-29T11:15:09.999Z</time></trkpt><trkpt lat="45.45193202164485" lon="8.986305804132533"><ele>126.0</ele><time>2026-03-29T11:15:10.999Z</time></trkpt><trkpt lat="45.452069399662484" lon="8.986251724590879"><ele>126.0</ele><time>2026-03-29T11:15:11.999Z</time></trkpt><trkpt lat="45.45221754541412" lon="8.986191728675122"><ele>126.0</ele><time>2026-03-29T11:15:12.999Z</time></trkpt><trkpt lat="45.45236664914672" lon="8.986132906626764"><ele>126.0</ele><time>2026-03-29T11:15:13.999Z</time></trkpt><trkpt lat="45.452519634847256" lon="8.986067963113076"><ele>126.0</ele><time>2026-03-29T11:15:14.999Z</time></trkpt><trkpt lat="45.45264952817798" lon="8.986012573000497"><ele>126.0</ele><time>2026-03-29T11:15:15.999Z</time></trkpt><trkpt lat="45.452801641818425" lon="8.98596296522922"><ele>126.0</ele><time>2026-03-29T11:15:16.999Z</time></trkpt><trkpt lat="45.45294313699902" lon="8.985920550037742"><ele>126.0</ele><time>2026-03-29T11:15:17.999Z</time></trkpt><trkpt lat="45.45308608878052" lon="8.985879527841245"><ele>126.0</ele><time>2026-03-29T11:15:18.999Z</time></trkpt><trkpt lat="45.45322493933911" lon="8.985838981911265"><ele>126.33333333333334</ele><time>2026-03-29T11:15:19.999Z</time></trkpt><trkpt lat="45.45337951776199" lon="8.985813654916706"><ele>126.66666666666667</ele><time>2026-03-29T11:15:20.999Z</time></trkpt><trkpt lat="45.45353231817287" lon="8.985822600252273"><ele>127.0</ele><time>2026-03-29T11:15:21.999Z</time></trkpt><trkpt lat="45.45368279950421" lon="8.985852857588567"><ele>128.0</ele><time>2026-03-29T11:15:22.999Z</time></trkpt><trkpt lat="45.45382731703898" lon="8.98589505460632"><ele>129.0</ele><time>2026-03-29T11:15:23.999Z</time></trkpt><trkpt lat="45.453970250062596" lon="8.985913697099297"><ele>130.0</ele><time>2026-03-29T11:15:24.999Z</time></trkpt><trkpt lat="45.45411154044872" lon="8.985893199187197"><ele>131.0</ele><time>2026-03-29T11:15:25.999Z</time></trkpt><trkpt lat="45.45426151692905" lon="8.985853427054181"><ele>130.75</ele><time>2026-03-29T11:15:26.999Z</time></trkpt><trkpt lat="45.454405988726954" lon="8.98583844788002"><ele>130.5</ele><time>2026-03-29T11:15:27.999Z</time></trkpt><trkpt lat="45.45455376544465" lon="8.985798083946705"><ele>130.25</ele><time>2026-03-29T11:15:28.999Z</time></trkpt><trkpt lat="45.4546894500955" lon="8.985736211727122"><ele>130.0</ele><time>2026-03-29T11:15:29.999Z</time></trkpt><trkpt lat="45.454842695619476" lon="8.985697728975463"><ele>131.0</ele><time>2026-03-29T11:15:30.999Z</time></trkpt><trkpt lat="45.455005037898545" lon="8.985650014097667"><ele>132.0</ele><time>2026-03-29T11:15:31.999Z</time></trkpt><trkpt lat="45.45516285675252" lon="8.985613613728807"><ele>133.0</ele><time>2026-03-29T11:15:32.999Z</time></trkpt><trkpt lat="45.45531845656309" lon="8.98557578005394"><ele>133.66666666666669</ele><time>2026-03-29T11:15:33.999Z</time></trkpt><trkpt lat="45.455482873605185" lon="8.985528499269215"><ele>134.33333333333334</ele><time>2026-03-29T11:15:34.999Z</time></trkpt><trkpt lat="45.455647067731874" lon="8.98547880941872"><ele>135.0</ele><time>2026-03-29T11:15:35.999Z</time></trkpt><trkpt lat="45.45581594988759" lon="8.985433636943947"><ele>135.0</ele><time>2026-03-29T11:15:36.999Z</time></trkpt><trkpt lat="45.455974766754416" lon="8.985384379061067"><ele>135.0</ele><time>2026-03-29T11:15:37.999Z</time></trkpt><trkpt lat="45.4561247573157" lon="8.985336416110247"><ele>135.0</ele><time>2026-03-29T11:15:38.999Z</time></trkpt><trkpt lat="45.45628431961743" lon="8.985284299491765"><ele>134.0</ele><time>2026-03-29T11:15:39.999Z</time></trkpt><trkpt lat="45.4564397648821" lon="8.985229652168947"><ele>133.0</ele><time>2026-03-29T11:15:40.999Z</time></trkpt><trkpt lat="45.45658846049116" lon="8.985180489135578"><ele>132.0</ele><time>2026-03-29T11:15:41.999Z</time></trkpt><trkpt lat="45.45674356783575" lon="8.98513683303715"><ele>132.0</ele><time>2026-03-29T11:15:42.999Z</time></trkpt><trkpt lat="45.45689710269307" lon="8.985099056773477"><ele>132.0</ele><time>2026-03-29T11:15:43.999Z</time></trkpt><trkpt lat="45.45705294991582" lon="8.98507149046116"><ele>132.0</ele><time>2026-03-29T11:15:44.999Z</time></trkpt><trkpt lat="45.45721629652822" lon="8.985046257647793"><ele>131.33333333333334</ele><time>2026-03-29T11:15:45.999Z</time></trkpt><trkpt lat="45.45738471423485" lon="8.98501947259885"><ele>130.66666666666669</ele><time>2026-03-29T11:15:46.999Z</time></trkpt><trkpt lat="45.45755772366847" lon="8.984987595103231"><ele>130.0</ele><time>2026-03-29T11:15:47.999Z</time></trkpt><trkpt lat="45.45773716147889" lon="8.984953472682859"><ele>129.66666666666669</ele><time>2026-03-29T11:15:48.999Z</time></trkpt><trkpt lat="45.45791183555101" lon="8.984927900716887"><ele>129.33333333333334</ele><time>2026-03-29T11:15:49.999Z</time></trkpt><trkpt lat="45.45810403060188" lon="8.984903801253125"><ele>129.0</ele><time>2026-03-29T11:15:50.999Z</time></trkpt><trkpt lat="45.45826841708017" lon="8.984876120373855"><ele>129.0</ele><time>2026-03-29T11:15:51.999Z</time></trkpt><trkpt lat="45.45841994745303" lon="8.984848453222783"><ele>129.0</ele><time>2026-03-29T11:15:52.999Z</time></trkpt><trkpt lat="45.45856246539616" lon="8.98481994947074"><ele>129.0</ele><time>2026-03-29T11:15:54Z</time></trkpt><trkpt lat="45.4586846516791" lon="8.984796712801913"><ele>129.0</ele><time>2026-03-29T11:15:55Z</time></trkpt><trkpt lat="45.45880727090507" lon="8.98477946602289"><ele>129.4</ele><time>2026-03-29T11:15:56Z</time></trkpt><trkpt lat="45.45890566040727" lon="8.98475830609359"><ele>129.8</ele><time>2026-03-29T11:15:57Z</time></trkpt><trkpt lat="45.459006936557756" lon="8.984742802565954"><ele>130.2</ele><time>2026-03-29T11:15:58Z</time></trkpt><trkpt lat="45.459099769042105" lon="8.98472973912927"><ele>130.6</ele><time>2026-03-29T11:15:59Z</time></trkpt><trkpt lat="45.459185169624675" lon="8.98474440317939"><ele>131.0</ele><time>2026-03-29T11:16:00Z</time></trkpt><trkpt lat="45.45925723384116" lon="8.984844015858787"><ele>131.0</ele><time>2026-03-29T11:16:01Z</time></trkpt><trkpt lat="45.459309850489326" lon="8.98498998252208"><ele>131.0</ele><time>2026-03-29T11:16:02Z</time></trkpt><trkpt lat="45.45938219674287" lon="8.985095979247534"><ele>131.0</ele><time>2026-03-29T11:16:03Z</time></trkpt><trkpt lat="45.45942031152193" lon="8.985212439595795"><ele>131.0</ele><time>2026-03-29T11:16:04Z</time></trkpt><trkpt lat="45.45947453782615" lon="8.98531121590012"><ele>131.0</ele><time>2026-03-29T11:16:05Z</time></trkpt><trkpt lat="45.45952631391311" lon="8.985397276315249"><ele>130.83333333333331</ele><time>2026-03-29T11:16:06Z</time></trkpt><trkpt lat="45.459573196861776" lon="8.985477588752019"><ele>130.66666666666666</ele><time>2026-03-29T11:16:07Z</time></trkpt><trkpt lat="45.459645603746125" lon="8.98558126674285"><ele>130.5</ele><time>2026-03-29T11:16:09Z</time></trkpt><trkpt lat="45.45969331410255" lon="8.98564930907256"><ele>130.33333333333334</ele><time>2026-03-29T11:16:12Z</time></trkpt><trkpt lat="45.459799159784936" lon="8.985632068490437"><ele>130.16666666666669</ele><time>2026-03-29T11:26:52Z</time></trkpt><trkpt lat="45.459869460901125" lon="8.985585386650177"><ele>130.0</ele><time>2026-03-29T11:26:54Z</time></trkpt><trkpt lat="45.45995703393799" lon="8.985504348762875"><ele>130.0</ele><time>2026-03-29T11:26:56Z</time></trkpt><trkpt lat="45.46006652759084" lon="8.985446991946205"><ele>130.0</ele><time>2026-03-29T11:26:58Z</time></trkpt><trkpt lat="45.46018685432937" lon="8.985394833203177"><ele>130.0</ele><time>2026-03-29T11:27:00Z</time></trkpt><trkpt lat="45.46024922872635" lon="8.985370957747852"><ele>130.0</ele><time>2026-03-29T11:27:01Z</time></trkpt><trkpt lat="45.460319883351914" lon="8.98535456405216"><ele>130.0</ele><time>2026-03-29T11:27:02Z</time></trkpt><trkpt lat="45.460394066067096" lon="8.985351662536734"><ele>130.16666666666669</ele><time>2026-03-29T11:27:03Z</time></trkpt><trkpt lat="45.46047483372675" lon="8.985349074356149"><ele>130.33333333333334</ele><time>2026-03-29T11:27:04Z</time></trkpt><trkpt lat="45.46054747111603" lon="8.985358452305444"><ele>130.5</ele><time>2026-03-29T11:27:05Z</time></trkpt><trkpt lat="45.4606183521834" lon="8.985391066005324"><ele>130.66666666666666</ele><time>2026-03-29T11:27:06Z</time></trkpt><trkpt lat="45.46069398845836" lon="8.985449388816818"><ele>130.83333333333331</ele><time>2026-03-29T11:27:07Z</time></trkpt><trkpt lat="45.46075838138812" lon="8.985516255570232"><ele>131.0</ele><time>2026-03-29T11:27:08Z</time></trkpt><trkpt lat="45.46082376876567" lon="8.985592251812442"><ele>131.0</ele><time>2026-03-29T11:27:09Z</time></trkpt><trkpt lat="45.46087998610849" lon="8.985693782557163"><ele>131.0</ele><time>2026-03-29T11:27:10Z</time></trkpt><trkpt lat="45.46093884173241" lon="8.985782055719225"><ele>131.0</ele><time>2026-03-29T11:27:11Z</time></trkpt><trkpt lat="45.461002170711744" lon="8.98587469983462"><ele>131.0</ele><time>2026-03-29T11:27:12Z</time></trkpt><trkpt lat="45.46106625784303" lon="8.98596862370538"><ele>131.0</ele><time>2026-03-29T11:27:13Z</time></trkpt><trkpt lat="45.461135911296715" lon="8.986070580742219"><ele>131.0</ele><time>2026-03-29T11:27:14Z</time></trkpt><trkpt lat="45.4612039702513" lon="8.98613632354906"><ele>131.0</ele><time>2026-03-29T11:27:15Z</time></trkpt><trkpt lat="45.461253812484664" lon="8.986242211985237"><ele>131.0</ele><time>2026-03-29T11:27:16Z</time></trkpt><trkpt lat="45.46132567015356" lon="8.986318440099314"><ele>131.0</ele><time>2026-03-29T11:27:17Z</time></trkpt><trkpt lat="45.4613708031142" lon="8.986430928917741"><ele>131.0</ele><time>2026-03-29T11:27:18Z</time></trkpt><trkpt lat="45.46142160092198" lon="8.98653195538076"><ele>131.0</ele><time>2026-03-29T11:27:19Z</time></trkpt><trkpt lat="45.46146894702499" lon="8.986640494923163"><ele>130.6</ele><time>2026-03-29T11:27:20Z</time></trkpt><trkpt lat="45.461513113561274" lon="8.986754825798839"><ele>130.2</ele><time>2026-03-29T11:27:21Z</time></trkpt><trkpt lat="45.46156083667589" lon="8.986882598982378"><ele>129.8</ele><time>2026-03-29T11:27:22Z</time></trkpt><trkpt lat="45.461603487869176" lon="8.986996484788499"><ele>129.4</ele><time>2026-03-29T11:27:23Z</time></trkpt><trkpt lat="45.46165023006796" lon="8.987121294416829"><ele>129.0</ele><time>2026-03-29T11:27:24Z</time></trkpt><trkpt lat="45.4616843871052" lon="8.987233349135222"><ele>129.0</ele><time>2026-03-29T11:27:25Z</time></trkpt><trkpt lat="45.46173457026144" lon="8.987358780677448"><ele>129.0</ele><time>2026-03-29T11:27:26Z</time></trkpt><trkpt lat="45.461787422372026" lon="8.987474358463613"><ele>129.0</ele><time>2026-03-29T11:27:27Z</time></trkpt><trkpt lat="45.46184430602119" lon="8.987600442293232"><ele>129.0</ele><time>2026-03-29T11:27:27.999Z</time></trkpt><trkpt lat="45.461898594623165" lon="8.987714948115954"><ele>129.0</ele><time>2026-03-29T11:27:28.999Z</time></trkpt><trkpt lat="45.46195573204284" lon="8.987824981897141"><ele>129.2</ele><time>2026-03-29T11:27:29.999Z</time></trkpt><trkpt lat="45.46202564238795" lon="8.987919769361763"><ele>129.4</ele><time>2026-03-29T11:27:30.999Z</time></trkpt><trkpt lat="45.46208963874903" lon="8.988011663588646"><ele>129.6</ele><time>2026-03-29T11:27:31.999Z</time></trkpt><trkpt lat="45.46216767685383" lon="8.988098410851082"><ele>129.8</ele><time>2026-03-29T11:27:32.999Z</time></trkpt><trkpt lat="45.46223661582594" lon="8.988178271478345"><ele>130.0</ele><time>2026-03-29T11:27:33.999Z</time></trkpt><trkpt lat="45.462305522893864" lon="8.988273173032784"><ele>130.6</ele><time>2026-03-29T11:27:34.999Z</time></trkpt><trkpt lat="45.46239824419206" lon="8.988329345039055"><ele>131.2</ele><time>2026-03-29T11:27:35.999Z</time></trkpt><trkpt lat="45.462497126418626" lon="8.988372419064433"><ele>131.8</ele><time>2026-03-29T11:27:36.999Z</time></trkpt><trkpt lat="45.46257416833984" lon="8.988395889040577"><ele>132.4</ele><time>2026-03-29T11:27:37.999Z</time></trkpt><trkpt lat="45.46265264715553" lon="8.988426886716407"><ele>133.0</ele><time>2026-03-29T11:27:38.999Z</time></trkpt><trkpt lat="45.462738775971935" lon="8.988463781218371"><ele>133.0</ele><time>2026-03-29T11:27:39.999Z</time></trkpt><trkpt lat="45.46282614536504" lon="8.988504437887775"><ele>133.0</ele><time>2026-03-29T11:27:40.999Z</time></trkpt><trkpt lat="45.462907616990115" lon="8.988555988795973"><ele>133.0</ele><time>2026-03-29T11:27:41.999Z</time></trkpt><trkpt lat="45.46298311274195" lon="8.988610341857017"><ele>133.0</ele><time>2026-03-29T11:27:42.999Z</time></trkpt><trkpt lat="45.46307057169578" lon="8.988646431413141"><ele>133.0</ele><time>2026-03-29T11:27:43.999Z</time></trkpt><trkpt lat="45.46316516618625" lon="8.98866467651388"><ele>132.8</ele><time>2026-03-29T11:27:44.999Z</time></trkpt><trkpt lat="45.46326095385426" lon="8.988681470217093"><ele>132.60000000000002</ele><time>2026-03-29T11:27:45.999Z</time></trkpt><trkpt lat="45.463347929139275" lon="8.988694510344324"><ele>132.39999999999998</ele><time>2026-03-29T11:27:46.999Z</time></trkpt><trkpt lat="45.463436739818256" lon="8.98870088696905"><ele>132.2</ele><time>2026-03-29T11:27:47.999Z</time></trkpt><trkpt lat="45.463536914842784" lon="8.98870420299316"><ele>132.0</ele><time>2026-03-29T11:27:48.999Z</time></trkpt><trkpt lat="45.46362672400369" lon="8.988704675701998"><ele>132.0</ele><time>2026-03-29T11:27:49.999Z</time></trkpt><trkpt lat="45.463725357525405" lon="8.98870751007843"><ele>132.0</ele><time>2026-03-29T11:27:50.999Z</time></trkpt><trkpt lat="45.46382303869938" lon="8.98871822692202"><ele>132.0</ele><time>2026-03-29T11:27:51.999Z</time></trkpt><trkpt lat="45.463914264827004" lon="8.98872868668048"><ele>132.0</ele><time>2026-03-29T11:27:52.999Z</time></trkpt><trkpt lat="45.464017413115215" lon="8.988748200664016"><ele>132.0</ele><time>2026-03-29T11:27:53.999Z</time></trkpt><trkpt lat="45.46411525764698" lon="8.988778144172553"><ele>131.79999999999998</ele><time>2026-03-29T11:27:54.999Z</time></trkpt><trkpt lat="45.46420880026968" lon="8.988814950597263"><ele>131.6</ele><time>2026-03-29T11:27:55.999Z</time></trkpt><trkpt lat="45.46430720484634" lon="8.988846900125834"><ele>131.39999999999998</ele><time>2026-03-29T11:27:56.999Z</time></trkpt><trkpt lat="45.4644038037753" lon="8.988883675407482"><ele>131.2</ele><time>2026-03-29T11:27:57.999Z</time></trkpt><trkpt lat="45.46450826206648" lon="8.988923723545392"><ele>131.0</ele><time>2026-03-29T11:27:58.999Z</time></trkpt><trkpt lat="45.464613494440535" lon="8.988961214804295"><ele>130.75</ele><time>2026-03-29T11:27:59.999Z</time></trkpt><trkpt lat="45.46471854257861" lon="8.989001528958116"><ele>130.5</ele><time>2026-03-29T11:28:00.999Z</time></trkpt><trkpt lat="45.4648293970917" lon="8.989043973556797"><ele>130.25</ele><time>2026-03-29T11:28:01.999Z</time></trkpt><trkpt lat="45.464943531299724" lon="8.989094014545143"><ele>130.0</ele><time>2026-03-29T11:28:02.999Z</time></trkpt><trkpt lat="45.465056748084145" lon="8.989147475604774"><ele>130.0</ele><time>2026-03-29T11:28:03.999Z</time></trkpt><trkpt lat="45.46517317088993" lon="8.989204890608011"><ele>130.0</ele><time>2026-03-29T11:28:04.999Z</time></trkpt><trkpt lat="45.46529165783081" lon="8.989271582405845"><ele>130.0</ele><time>2026-03-29T11:28:05.999Z</time></trkpt><trkpt lat="45.465407875486676" lon="8.98933953460942"><ele>130.0</ele><time>2026-03-29T11:28:06.999Z</time></trkpt><trkpt lat="45.46552493815886" lon="8.989408360760562"><ele>130.5</ele><time>2026-03-29T11:28:07.999Z</time></trkpt><trkpt lat="45.46564076820282" lon="8.989474764298054"><ele>131.0</ele><time>2026-03-29T11:28:08.999Z</time></trkpt><trkpt lat="45.46576471034199" lon="8.989543622204243"><ele>131.5</ele><time>2026-03-29T11:28:09.999Z</time></trkpt><trkpt lat="45.465876890818116" lon="8.989623987468411"><ele>132.0</ele><time>2026-03-29T11:28:10.999Z</time></trkpt><trkpt lat="45.46599788789601" lon="8.989691840741974"><ele>132.0</ele><time>2026-03-29T11:28:11.999Z</time></trkpt><trkpt lat="45.46611889085188" lon="8.989760134213332"><ele>132.0</ele><time>2026-03-29T11:28:12.999Z</time></trkpt><trkpt lat="45.46624934617468" lon="8.989833918050126"><ele>132.0</ele><time>2026-03-29T11:28:13.999Z</time></trkpt><trkpt lat="45.466371043457116" lon="8.989902884925957"><ele>132.0</ele><time>2026-03-29T11:28:14.999Z</time></trkpt><trkpt lat="45.46648648932079" lon="8.989964602794213"><ele>132.0</ele><time>2026-03-29T11:28:15.999Z</time></trkpt><trkpt lat="45.46659420534" lon="8.99003051944952"><ele>132.0</ele><time>2026-03-29T11:28:16.999Z</time></trkpt><trkpt lat="45.466708125954206" lon="8.990099016854664"><ele>132.0</ele><time>2026-03-29T11:28:17.999Z</time></trkpt><trkpt lat="45.46682347613837" lon="8.990170843270567"><ele>132.0</ele><time>2026-03-29T11:28:18.999Z</time></trkpt><trkpt lat="45.46693427881813" lon="8.990250434158337"><ele>132.0</ele><time>2026-03-29T11:28:19.999Z</time></trkpt><trkpt lat="45.46704300009258" lon="8.990340609353689"><ele>132.0</ele><time>2026-03-29T11:28:20.999Z</time></trkpt><trkpt lat="45.467154282509156" lon="8.990437496991104"><ele>132.0</ele><time>2026-03-29T11:28:21.999Z</time></trkpt><trkpt lat="45.467259353547604" lon="8.990532186687956"><ele>132.0</ele><time>2026-03-29T11:28:22.999Z</time></trkpt><trkpt lat="45.46736837635962" lon="8.990624750439583"><ele>132.25</ele><time>2026-03-29T11:28:23.999Z</time></trkpt><trkpt lat="45.46746473518015" lon="8.99071754712109"><ele>132.5</ele><time>2026-03-29T11:28:24.999Z</time></trkpt><trkpt lat="45.46757814454202" lon="8.990790625378235"><ele>132.75</ele><time>2026-03-29T11:28:25.999Z</time></trkpt><trkpt lat="45.46768885060113" lon="8.99086869924266"><ele>133.0</ele><time>2026-03-29T11:28:26.999Z</time></trkpt><trkpt lat="45.46779754012363" lon="8.99094833816899"><ele>133.0</ele><time>2026-03-29T11:28:27.999Z</time></trkpt><trkpt lat="45.4679007921235" lon="8.991034186240187"><ele>133.0</ele><time>2026-03-29T11:28:28.999Z</time></trkpt><trkpt lat="45.468002417385094" lon="8.99112173326934"><ele>133.0</ele><time>2026-03-29T11:28:30Z</time></trkpt><trkpt lat="45.46810901383486" lon="8.991229718582927"><ele>133.0</ele><time>2026-03-29T11:28:31Z</time></trkpt><trkpt lat="45.46821670137244" lon="8.991345621147229"><ele>133.5</ele><time>2026-03-29T11:28:32Z</time></trkpt><trkpt lat="45.468310600298246" lon="8.99146359886841"><ele>134.0</ele><time>2026-03-29T11:28:33Z</time></trkpt><trkpt lat="45.46839314245597" lon="8.99157505206804"><ele>134.5</ele><time>2026-03-29T11:28:34Z</time></trkpt><trkpt lat="45.46848050485931" lon="8.991679686285565"><ele>135.0</ele><time>2026-03-29T11:28:35Z</time></trkpt><trkpt lat="45.46858056186124" lon="8.991777875249356"><ele>135.0</ele><time>2026-03-29T11:28:36Z</time></trkpt><trkpt lat="45.468662421827744" lon="8.99186869335568"><ele>135.0</ele><time>2026-03-29T11:28:37Z</time></trkpt><trkpt lat="45.4687631030331" lon="8.991936955887983"><ele>135.0</ele><time>2026-03-29T11:28:38Z</time></trkpt><trkpt lat="45.46885684290103" lon="8.992010991471856"><ele>135.0</ele><time>2026-03-29T11:28:39Z</time></trkpt><trkpt lat="45.46894797152153" lon="8.992099832177834"><ele>135.0</ele><time>2026-03-29T11:28:40Z</time></trkpt><trkpt lat="45.46901915481754" lon="8.992199298354448"><ele>135.0</ele><time>2026-03-29T11:28:41Z</time></trkpt><trkpt lat="45.46908052029277" lon="8.992314620698515"><ele>135.0</ele><time>2026-03-29T11:28:42Z</time></trkpt><trkpt lat="45.469132190341156" lon="8.992435267852672"><ele>135.0</ele><time>2026-03-29T11:28:43Z</time></trkpt><trkpt lat="45.46919071722389" lon="8.992559024241109"><ele>135.0</ele><time>2026-03-29T11:28:44Z</time></trkpt><trkpt lat="45.46924915819394" lon="8.99268267923677"><ele>135.0</ele><time>2026-03-29T11:28:45Z</time></trkpt><trkpt lat="45.46931592875519" lon="8.992805573710008"><ele>135.0</ele><time>2026-03-29T11:28:46Z</time></trkpt><trkpt lat="45.469386680150265" lon="8.992929365639787"><ele>135.0</ele><time>2026-03-29T11:28:47Z</time></trkpt><trkpt lat="45.46947476444571" lon="8.993050868606408"><ele>135.0</ele><time>2026-03-29T11:28:48Z</time></trkpt><trkpt lat="45.46956916148357" lon="8.993166839650229"><ele>135.0</ele><time>2026-03-29T11:28:49Z</time></trkpt><trkpt lat="45.46966172392137" lon="8.993278610470846"><ele>134.5</ele><time>2026-03-29T11:28:50Z</time></trkpt><trkpt lat="45.46976036692904" lon="8.993378545064855"><ele>134.0</ele><time>2026-03-29T11:28:51Z</time></trkpt><trkpt lat="45.46986556935316" lon="8.993474385260386"><ele>133.5</ele><time>2026-03-29T11:28:52Z</time></trkpt><trkpt lat="45.469976851895396" lon="8.993563641085196"><ele>133.0</ele><time>2026-03-29T11:28:53Z</time></trkpt><trkpt lat="45.470078378652744" lon="8.993648077344213"><ele>133.0</ele><time>2026-03-29T11:28:54Z</time></trkpt><trkpt lat="45.4701811360349" lon="8.993736333349064"><ele>133.0</ele><time>2026-03-29T11:28:55Z</time></trkpt><trkpt lat="45.47027987700864" lon="8.993828140782236"><ele>133.0</ele><time>2026-03-29T11:28:56Z</time></trkpt><trkpt lat="45.47036732366113" lon="8.99392809497653"><ele>133.0</ele><time>2026-03-29T11:28:57Z</time></trkpt><trkpt lat="45.47045568458548" lon="8.99403003400338"><ele>133.4</ele><time>2026-03-29T11:28:58Z</time></trkpt><trkpt lat="45.470535616750865" lon="8.994120766172196"><ele>133.8</ele><time>2026-03-29T11:28:59Z</time></trkpt><trkpt lat="45.47062131119352" lon="8.994204069246285"><ele>134.2</ele><time>2026-03-29T11:29:00Z</time></trkpt><trkpt lat="45.470701421341346" lon="8.99426927306864"><ele>134.6</ele><time>2026-03-29T11:29:01Z</time></trkpt><trkpt lat="45.470792631236264" lon="8.994307649041886"><ele>135.0</ele><time>2026-03-29T11:29:02Z</time></trkpt><trkpt lat="45.470896034399445" lon="8.994308289828659"><ele>135.0</ele><time>2026-03-29T11:29:03Z</time></trkpt><trkpt lat="45.47099373456809" lon="8.994269602919243"><ele>135.0</ele><time>2026-03-29T11:29:04Z</time></trkpt><trkpt lat="45.47107331102069" lon="8.99421986810542"><ele>135.0</ele><time>2026-03-29T11:29:05Z</time></trkpt><trkpt lat="45.47115838232827" lon="8.99419568915071"><ele>135.0</ele><time>2026-03-29T11:29:06Z</time></trkpt><trkpt lat="45.47124040236216" lon="8.99421091293872"><ele>135.0</ele><time>2026-03-29T11:29:07Z</time></trkpt><trkpt lat="45.47131021250917" lon="8.994274010731283"><ele>135.0</ele><time>2026-03-29T11:29:08Z</time></trkpt><trkpt lat="45.4713645549122" lon="8.994370044607791"><ele>135.2</ele><time>2026-03-29T11:29:09Z</time></trkpt><trkpt lat="45.471415473475005" lon="8.994498772564603"><ele>135.4</ele><time>2026-03-29T11:29:10Z</time></trkpt><trkpt lat="45.4714675823713" lon="8.994635264587318"><ele>135.6</ele><time>2026-03-29T11:29:11Z</time></trkpt><trkpt lat="45.4715231180274" lon="8.994760855785826"><ele>135.8</ele><time>2026-03-29T11:29:12Z</time></trkpt><trkpt lat="45.471582042113404" lon="8.994887202665376"><ele>136.0</ele><time>2026-03-29T11:29:13Z</time></trkpt><trkpt lat="45.471644910303866" lon="8.995018448104815"><ele>136.2</ele><time>2026-03-29T11:29:14Z</time></trkpt><trkpt lat="45.471706976055046" lon="8.995138319734398"><ele>136.39999999999998</ele><time>2026-03-29T11:29:15Z</time></trkpt><trkpt lat="45.471762534588564" lon="8.99525285433217"><ele>136.6</ele><time>2026-03-29T11:29:16Z</time></trkpt><trkpt lat="45.47182194549817" lon="8.99536582759603"><ele>136.79999999999998</ele><time>2026-03-29T11:29:17Z</time></trkpt><trkpt lat="45.47188346671272" lon="8.995474503755538"><ele>137.0</ele><time>2026-03-29T11:29:18Z</time></trkpt><trkpt lat="45.47194325372225" lon="8.995596132170503"><ele>137.0</ele><time>2026-03-29T11:29:19Z</time></trkpt><trkpt lat="45.472002906970104" lon="8.995726987504478"><ele>137.0</ele><time>2026-03-29T11:29:20Z</time></trkpt><trkpt lat="45.472057039386684" lon="8.995857786858831"><ele>137.0</ele><time>2026-03-29T11:29:21Z</time></trkpt><trkpt lat="45.472113612777285" lon="8.995993003014531"><ele>137.0</ele><time>2026-03-29T11:29:22Z</time></trkpt><trkpt lat="45.47217003249628" lon="8.996120324327745"><ele>137.0</ele><time>2026-03-29T11:29:23Z</time></trkpt><trkpt lat="45.47222494145474" lon="8.996234359054554"><ele>136.4</ele><time>2026-03-29T11:29:24Z</time></trkpt><trkpt lat="45.472285684754176" lon="8.996350124062841"><ele>135.79999999999998</ele><time>2026-03-29T11:29:25Z</time></trkpt><trkpt lat="45.47235182121098" lon="8.996456425252218"><ele>135.2</ele><time>2026-03-29T11:29:26Z</time></trkpt><trkpt lat="45.47243206867114" lon="8.996560621107813"><ele>134.6</ele><time>2026-03-29T11:29:27Z</time></trkpt><trkpt lat="45.47254197362451" lon="8.996613175857496"><ele>134.0</ele><time>2026-03-29T11:29:28Z</time></trkpt><trkpt lat="45.47263949153645" lon="8.996695798375276"><ele>134.0</ele><time>2026-03-29T11:29:29Z</time></trkpt><trkpt lat="45.47272191077072" lon="8.996796689907052"><ele>134.0</ele><time>2026-03-29T11:29:30Z</time></trkpt><trkpt lat="45.4728106092333" lon="8.996892874790255"><ele>134.0</ele><time>2026-03-29T11:29:31Z</time></trkpt><trkpt lat="45.47289330760451" lon="8.99697315407802"><ele>134.0</ele><time>2026-03-29T11:29:32Z</time></trkpt><trkpt lat="45.47296786446116" lon="8.997037759247837"><ele>134.0</ele><time>2026-03-29T11:29:33Z</time></trkpt><trkpt lat="45.47303410821774" lon="8.997117340790192"><ele>134.2</ele><time>2026-03-29T11:29:33.999Z</time></trkpt><trkpt lat="45.47311070650162" lon="8.997177825092367"><ele>134.4</ele><time>2026-03-29T11:29:34.999Z</time></trkpt><trkpt lat="45.47320573937145" lon="8.997218343201151"><ele>134.6</ele><time>2026-03-29T11:29:35.999Z</time></trkpt><trkpt lat="45.47327688193201" lon="8.997319071096978"><ele>134.8</ele><time>2026-03-29T11:29:36.999Z</time></trkpt><trkpt lat="45.47335953072111" lon="8.997364653550822"><ele>135.0</ele><time>2026-03-29T11:29:37.999Z</time></trkpt><trkpt lat="45.473422973327345" lon="8.997470169452336"><ele>135.4</ele><time>2026-03-29T11:29:38.999Z</time></trkpt><trkpt lat="45.473437956642925" lon="8.997615015122788"><ele>135.8</ele><time>2026-03-29T11:29:39.999Z</time></trkpt><trkpt lat="45.473467679006426" lon="8.997757041266246"><ele>136.2</ele><time>2026-03-29T11:29:40.999Z</time></trkpt><trkpt lat="45.47349064852626" lon="8.997892888618768"><ele>136.6</ele><time>2026-03-29T11:29:41.999Z</time></trkpt><trkpt lat="45.47352030263551" lon="8.998041127259441"><ele>137.0</ele><time>2026-03-29T11:29:42.999Z</time></trkpt><trkpt lat="45.473559100432446" lon="8.998181827992962"><ele>137.0</ele><time>2026-03-29T11:29:43.999Z</time></trkpt><trkpt lat="45.47358447463466" lon="8.998320537570779"><ele>137.0</ele><time>2026-03-29T11:29:44.999Z</time></trkpt><trkpt lat="45.4736137546208" lon="8.998465680720315"><ele>137.0</ele><time>2026-03-29T11:29:45.999Z</time></trkpt><trkpt lat="45.47364234971074" lon="8.99861317456601"><ele>137.0</ele><time>2026-03-29T11:29:46.999Z</time></trkpt><trkpt lat="45.47368009261354" lon="8.998761612192052"><ele>137.0</ele><time>2026-03-29T11:29:47.999Z</time></trkpt><trkpt lat="45.47371249268917" lon="8.998911511571398"><ele>136.79999999999998</ele><time>2026-03-29T11:29:48.999Z</time></trkpt><trkpt lat="45.47374696484901" lon="8.99906859689174"><ele>136.6</ele><time>2026-03-29T11:29:49.999Z</time></trkpt><trkpt lat="45.473775513781106" lon="8.999220780088795"><ele>136.39999999999998</ele><time>2026-03-29T11:29:50.999Z</time></trkpt><trkpt lat="45.47380670997985" lon="8.999358917224159"><ele>136.2</ele><time>2026-03-29T11:29:51.999Z</time></trkpt><trkpt lat="45.47383640254354" lon="8.99949597013168"><ele>136.0</ele><time>2026-03-29T11:29:52.999Z</time></trkpt><trkpt lat="45.473867994329574" lon="8.999623645507357"><ele>136.0</ele><time>2026-03-29T11:29:53.999Z</time></trkpt><trkpt lat="45.473902664302344" lon="8.999760456225742"><ele>136.0</ele><time>2026-03-29T11:29:54.999Z</time></trkpt><trkpt lat="45.47393304376463" lon="8.999886543491249"><ele>136.0</ele><time>2026-03-29T11:29:55.999Z</time></trkpt><trkpt lat="45.473949672549765" lon="9.000026928607317"><ele>136.0</ele><time>2026-03-29T11:29:56.999Z</time></trkpt><trkpt lat="45.47397706771939" lon="9.000156094979248"><ele>136.0</ele><time>2026-03-29T11:29:57.999Z</time></trkpt><trkpt lat="45.47400633869133" lon="9.000299861797252"><ele>136.0</ele><time>2026-03-29T11:29:58.999Z</time></trkpt><trkpt lat="45.47404260628487" lon="9.000460710061349"><ele>136.0</ele><time>2026-03-29T11:29:59.999Z</time></trkpt><trkpt lat="45.474082648354205" lon="9.00062880892306"><ele>136.0</ele><time>2026-03-29T11:30:00.999Z</time></trkpt><trkpt lat="45.47411896964689" lon="9.000797149020974"><ele>136.0</ele><time>2026-03-29T11:30:01.999Z</time></trkpt><trkpt lat="45.47415266453972" lon="9.000940204940845"><ele>136.2</ele><time>2026-03-29T11:30:02.999Z</time></trkpt><trkpt lat="45.47418466048555" lon="9.001072491866605"><ele>136.39999999999998</ele><time>2026-03-29T11:30:03.999Z</time></trkpt><trkpt lat="45.47421453505043" lon="9.001200187154545"><ele>136.6</ele><time>2026-03-29T11:30:04.999Z</time></trkpt><trkpt lat="45.47424239789931" lon="9.001316671250008"><ele>136.79999999999998</ele><time>2026-03-29T11:30:05.999Z</time></trkpt><trkpt lat="45.474273398705584" lon="9.001465213838218"><ele>137.0</ele><time>2026-03-29T11:30:07.999Z</time></trkpt><trkpt lat="45.47443972862622" lon="9.001418544175232"><ele>137.0</ele><time>2026-03-29T11:30:09.999Z</time></trkpt><trkpt lat="45.47452356397893" lon="9.001399100741692"><ele>137.0</ele><time>2026-03-29T11:30:10.999Z</time></trkpt><trkpt lat="45.47460123499555" lon="9.001367361202917"><ele>137.0</ele><time>2026-03-29T11:30:11.999Z</time></trkpt><trkpt lat="45.47469573797186" lon="9.001329510219563"><ele>137.0</ele><time>2026-03-29T11:30:12.999Z</time></trkpt><trkpt lat="45.47478140234498" lon="9.001295855983413"><ele>137.0</ele><time>2026-03-29T11:30:13.999Z</time></trkpt><trkpt lat="45.47485647537352" lon="9.001273619548936"><ele>137.0</ele><time>2026-03-29T11:30:14.999Z</time></trkpt><trkpt lat="45.474920220243675" lon="9.001248525709261"><ele>136.79999999999998</ele><time>2026-03-29T11:30:15.999Z</time></trkpt><trkpt lat="45.475026372760446" lon="9.001201956523406"><ele>136.6</ele><time>2026-03-29T11:30:17.999Z</time></trkpt><trkpt lat="45.47509606481975" lon="9.001176848837227"><ele>136.39999999999998</ele><time>2026-03-29T11:30:20.999Z</time></trkpt><trkpt lat="45.47518111414924" lon="9.001126779734289"><ele>136.2</ele><time>2026-03-29T11:30:23.999Z</time></trkpt><trkpt lat="45.47528086632865" lon="9.001085778681924"><ele>136.0</ele><time>2026-03-29T11:30:25.999Z</time></trkpt><trkpt lat="45.47539788328569" lon="9.001032149484272"><ele>136.33333333333334</ele><time>2026-03-29T11:30:27.999Z</time></trkpt><trkpt lat="45.47546518447" lon="9.001001598808605"><ele>136.66666666666669</ele><time>2026-03-29T11:30:28.999Z</time></trkpt><trkpt lat="45.47553179036837" lon="9.000971074622987"><ele>137.0</ele><time>2026-03-29T11:30:29.999Z</time></trkpt><trkpt lat="45.475608867520364" lon="9.000940294640959"><ele>137.33333333333334</ele><time>2026-03-29T11:30:30.999Z</time></trkpt><trkpt lat="45.47569107045667" lon="9.000910181289424"><ele>137.66666666666666</ele><time>2026-03-29T11:30:31.999Z</time></trkpt><trkpt lat="45.47577473082606" lon="9.000879964094255"><ele>138.0</ele><time>2026-03-29T11:30:32.999Z</time></trkpt><trkpt lat="45.475864605228416" lon="9.000848810446879"><ele>138.0</ele><time>2026-03-29T11:30:33.999Z</time></trkpt><trkpt lat="45.47595030666072" lon="9.000808786231527"><ele>138.0</ele><time>2026-03-29T11:30:34.999Z</time></trkpt><trkpt lat="45.4760418432675" lon="9.000776374664241"><ele>138.0</ele><time>2026-03-29T11:30:36Z</time></trkpt><trkpt lat="45.47613089374627" lon="9.000740282639548"><ele>138.0</ele><time>2026-03-29T11:30:37Z</time></trkpt><trkpt lat="45.47623089761642" lon="9.000707026620388"><ele>138.0</ele><time>2026-03-29T11:30:38Z</time></trkpt><trkpt lat="45.476341782313796" lon="9.000667104081609"><ele>138.0</ele><time>2026-03-29T11:30:39Z</time></trkpt><trkpt lat="45.47645733879035" lon="9.000630592290095"><ele>138.0</ele><time>2026-03-29T11:30:40Z</time></trkpt><trkpt lat="45.47657566483953" lon="9.000595515611113"><ele>138.0</ele><time>2026-03-29T11:30:41Z</time></trkpt><trkpt lat="45.47669758561246" lon="9.000540401283457"><ele>138.0</ele><time>2026-03-29T11:30:42Z</time></trkpt><trkpt lat="45.47682893300211" lon="9.00048237992845"><ele>138.0</ele><time>2026-03-29T11:30:43Z</time></trkpt><trkpt lat="45.476955289757925" lon="9.000432670040196"><ele>138.0</ele><time>2026-03-29T11:30:44Z</time></trkpt><trkpt lat="45.477090014683895" lon="9.000405934878273"><ele>138.0</ele><time>2026-03-29T11:30:45Z</time></trkpt><trkpt lat="45.47721975240213" lon="9.00035810457843"><ele>138.0</ele><time>2026-03-29T11:30:46Z</time></trkpt><trkpt lat="45.47733487724311" lon="9.000314043551215"><ele>138.20000000000002</ele><time>2026-03-29T11:30:47Z</time></trkpt><trkpt lat="45.477441640116325" lon="9.000268695149167"><ele>138.4</ele><time>2026-03-29T11:30:48Z</time></trkpt><trkpt lat="45.47754080875032" lon="9.000229236636574"><ele>138.60000000000002</ele><time>2026-03-29T11:30:49Z</time></trkpt><trkpt lat="45.477634450287205" lon="9.000193753909908"><ele>138.8</ele><time>2026-03-29T11:30:50Z</time></trkpt><trkpt lat="45.47772250206127" lon="9.000164189941005"><ele>139.0</ele><time>2026-03-29T11:30:51Z</time></trkpt><trkpt lat="45.47780067170334" lon="9.00013338228983"><ele>139.0</ele><time>2026-03-29T11:30:52Z</time></trkpt><trkpt lat="45.477873328546366" lon="9.00010014268278"><ele>139.0</ele><time>2026-03-29T11:30:53Z</time></trkpt><trkpt lat="45.477937298894545" lon="9.00007666616128"><ele>139.0</ele><time>2026-03-29T11:30:54Z</time></trkpt><trkpt lat="45.478048670984315" lon="9.000040026184724"><ele>139.0</ele><time>2026-03-29T11:30:56Z</time></trkpt><trkpt lat="45.47811154727136" lon="9.000020611445152"><ele>139.0</ele><time>2026-03-29T11:30:58Z</time></trkpt><trkpt lat="45.478175718206664" lon="9.000129360034686"><ele>139.0</ele><time>2026-03-29T11:31:02Z</time></trkpt><trkpt lat="45.47823479176037" lon="9.000263809664435"><ele>139.0</ele><time>2026-03-29T11:31:04Z</time></trkpt><trkpt lat="45.47827018888434" lon="9.00034216469785"><ele>139.0</ele><time>2026-03-29T11:31:05Z</time></trkpt><trkpt lat="45.478314444654224" lon="9.000439603657663"><ele>139.0</ele><time>2026-03-29T11:31:06Z</time></trkpt><trkpt lat="45.478357234746916" lon="9.00052971930105"><ele>139.0</ele><time>2026-03-29T11:31:07Z</time></trkpt><trkpt lat="45.47840069132624" lon="9.00062724333712"><ele>139.0</ele><time>2026-03-29T11:31:08Z</time></trkpt><trkpt lat="45.47844868927219" lon="9.000735952878332"><ele>139.0</ele><time>2026-03-29T11:31:09Z</time></trkpt><trkpt lat="45.47850253880199" lon="9.00085446695424"><ele>139.0</ele><time>2026-03-29T11:31:10Z</time></trkpt><trkpt lat="45.47855396430906" lon="9.000965120932994"><ele>139.0</ele><time>2026-03-29T11:31:11Z</time></trkpt><trkpt lat="45.478604394734354" lon="9.001079137258808"><ele>139.0</ele><time>2026-03-29T11:31:12Z</time></trkpt><trkpt lat="45.47865964999655" lon="9.00120562657383"><ele>139.0</ele><time>2026-03-29T11:31:13Z</time></trkpt><trkpt lat="45.47871854540968" lon="9.00133573704692"><ele>139.0</ele><time>2026-03-29T11:31:14Z</time></trkpt><trkpt lat="45.478772753788945" lon="9.001459116005153"><ele>138.83333333333334</ele><time>2026-03-29T11:31:15Z</time></trkpt><trkpt lat="45.47882924576303" lon="9.001575728613647"><ele>138.66666666666669</ele><time>2026-03-29T11:31:16Z</time></trkpt><trkpt lat="45.47887626780548" lon="9.00169040652533"><ele>138.5</ele><time>2026-03-29T11:31:17Z</time></trkpt><trkpt lat="45.47891713189" lon="9.001787239281063"><ele>138.33333333333334</ele><time>2026-03-29T11:31:18Z</time></trkpt><trkpt lat="45.47896072313172" lon="9.001890064155258"><ele>138.16666666666666</ele><time>2026-03-29T11:31:19Z</time></trkpt><trkpt lat="45.4790043052049" lon="9.002004952113415"><ele>138.0</ele><time>2026-03-29T11:31:20Z</time></trkpt><trkpt lat="45.47906160414513" lon="9.002114906387582"><ele>138.0</ele><time>2026-03-29T11:31:21Z</time></trkpt><trkpt lat="45.479120426993944" lon="9.002208568971325"><ele>138.0</ele><time>2026-03-29T11:31:22Z</time></trkpt><trkpt lat="45.47916326443128" lon="9.002296089431548"><ele>138.0</ele><time>2026-03-29T11:31:23Z</time></trkpt><trkpt lat="45.47919303778484" lon="9.002375838692988"><ele>138.0</ele><time>2026-03-29T11:31:24Z</time></trkpt><trkpt lat="45.47924134173828" lon="9.002484878198832"><ele>138.0</ele><time>2026-03-29T11:31:26Z</time></trkpt><trkpt lat="45.47927647747871" lon="9.002590781150959"><ele>138.0</ele><time>2026-03-29T11:31:30Z</time></trkpt><trkpt lat="45.479398515379614" lon="9.002591086493931"><ele>138.0</ele><time>2026-03-29T11:31:33Z</time></trkpt><trkpt lat="45.47951622480022" lon="9.002534970266924"><ele>138.0</ele><time>2026-03-29T11:31:34.999Z</time></trkpt><trkpt lat="45.479592377958376" lon="9.002522792803088"><ele>138.0</ele><time>2026-03-29T11:31:35.999Z</time></trkpt><trkpt lat="45.479662564840424" lon="9.002495777282888"><ele>138.0</ele><time>2026-03-29T11:31:36.999Z</time></trkpt><trkpt lat="45.47973789571502" lon="9.002441635388129"><ele>138.0</ele><time>2026-03-29T11:31:37.999Z</time></trkpt><trkpt lat="45.4798217980911" lon="9.00241292041732"><ele>138.0</ele><time>2026-03-29T11:31:38.999Z</time></trkpt><trkpt lat="45.47990787668918" lon="9.002376901800055"><ele>138.0</ele><time>2026-03-29T11:31:39.999Z</time></trkpt><trkpt lat="45.479993201400916" lon="9.002340540197192"><ele>138.0</ele><time>2026-03-29T11:31:40.999Z</time></trkpt><trkpt lat="45.48008121930723" lon="9.00231697402823"><ele>138.0</ele><time>2026-03-29T11:31:41.999Z</time></trkpt><trkpt lat="45.48015537185474" lon="9.002286358621216"><ele>138.0</ele><time>2026-03-29T11:31:42.999Z</time></trkpt><trkpt lat="45.480231235698" lon="9.002264891609736"><ele>138.0</ele><time>2026-03-29T11:31:43.999Z</time></trkpt><trkpt lat="45.480338093454186" lon="9.00225627103724"><ele>138.0</ele><time>2026-03-29T11:31:45.999Z</time></trkpt><trkpt lat="45.480433322924085" lon="9.002289470229107"><ele>138.4</ele><time>2026-03-29T11:31:48.999Z</time></trkpt><trkpt lat="45.48053487006039" lon="9.002346914261995"><ele>138.8</ele><time>2026-03-29T11:31:50.999Z</time></trkpt><trkpt lat="45.48065015295484" lon="9.002426785043156"><ele>139.2</ele><time>2026-03-29T11:31:52.999Z</time></trkpt><trkpt lat="45.48067288495747" lon="9.00251741032304"><ele>139.6</ele><time>2026-03-29T11:31:53.999Z</time></trkpt><trkpt lat="45.48071253794482" lon="9.002600187934702"><ele>140.0</ele><time>2026-03-29T11:31:54.999Z</time></trkpt><trkpt lat="45.48075002623681" lon="9.002698294705585"><ele>140.0</ele><time>2026-03-29T11:31:55.999Z</time></trkpt><trkpt lat="45.48079675756569" lon="9.002801562752316"><ele>140.0</ele><time>2026-03-29T11:31:56.999Z</time></trkpt><trkpt lat="45.48084160101353" lon="9.002909639095034"><ele>140.0</ele><time>2026-03-29T11:31:57.999Z</time></trkpt><trkpt lat="45.4808869551808" lon="9.003024800906152"><ele>140.0</ele><time>2026-03-29T11:31:58.999Z</time></trkpt><trkpt lat="45.480933553358376" lon="9.003135314184957"><ele>140.0</ele><time>2026-03-29T11:31:59.999Z</time></trkpt><trkpt lat="45.4809802752993" lon="9.003253334910303"><ele>140.0</ele><time>2026-03-29T11:32:00.999Z</time></trkpt><trkpt lat="45.48103042042461" lon="9.003375301331914"><ele>140.0</ele><time>2026-03-29T11:32:01.999Z</time></trkpt><trkpt lat="45.48107419244698" lon="9.003500089579779"><ele>140.0</ele><time>2026-03-29T11:32:02.999Z</time></trkpt><trkpt lat="45.48112375551543" lon="9.003628975435607"><ele>140.0</ele><time>2026-03-29T11:32:03.999Z</time></trkpt><trkpt lat="45.48117332664249" lon="9.003760033028167"><ele>140.0</ele><time>2026-03-29T11:32:04.999Z</time></trkpt><trkpt lat="45.48122887171257" lon="9.003896963160452"><ele>140.0</ele><time>2026-03-29T11:32:05.999Z</time></trkpt><trkpt lat="45.48126352121698" lon="9.004036206162887"><ele>140.0</ele><time>2026-03-29T11:32:06.999Z</time></trkpt><trkpt lat="45.48131610226197" lon="9.004169393311804"><ele>140.0</ele><time>2026-03-29T11:32:07.999Z</time></trkpt><trkpt lat="45.481370554800485" lon="9.004306236170141"><ele>140.0</ele><time>2026-03-29T11:32:08.999Z</time></trkpt><trkpt lat="45.4814213818814" lon="9.004436819809266"><ele>140.0</ele><time>2026-03-29T11:32:09.999Z</time></trkpt><trkpt lat="45.48147128643709" lon="9.004569155467387"><ele>139.8</ele><time>2026-03-29T11:32:10.999Z</time></trkpt><trkpt lat="45.48152165533941" lon="9.00470099349422"><ele>139.6</ele><time>2026-03-29T11:32:11.999Z</time></trkpt><trkpt lat="45.48156973447189" lon="9.004830958037044"><ele>139.4</ele><time>2026-03-29T11:32:12.999Z</time></trkpt><trkpt lat="45.48162318969493" lon="9.004965166453061"><ele>139.2</ele><time>2026-03-29T11:32:13.999Z</time></trkpt><trkpt lat="45.48167863748527" lon="9.005090898481397"><ele>139.0</ele><time>2026-03-29T11:32:14.999Z</time></trkpt><trkpt lat="45.48174109680984" lon="9.005206796456102"><ele>139.0</ele><time>2026-03-29T11:32:15.999Z</time></trkpt><trkpt lat="45.48180099230096" lon="9.005311166266598"><ele>139.0</ele><time>2026-03-29T11:32:16.999Z</time></trkpt><trkpt lat="45.48187428424118" lon="9.005416811179606"><ele>139.0</ele><time>2026-03-29T11:32:17.999Z</time></trkpt><trkpt lat="45.48194683466818" lon="9.00550724124208"><ele>139.0</ele><time>2026-03-29T11:32:18.999Z</time></trkpt><trkpt lat="45.4820150707454" lon="9.00558699588981"><ele>139.0</ele><time>2026-03-29T11:32:19.999Z</time></trkpt><trkpt lat="45.48207451108558" lon="9.005650652921839"><ele>139.2</ele><time>2026-03-29T11:32:20.999Z</time></trkpt><trkpt lat="45.48214770240219" lon="9.005715693991744"><ele>139.4</ele><time>2026-03-29T11:32:21.999Z</time></trkpt><trkpt lat="45.482228907983966" lon="9.005782049773424"><ele>139.6</ele><time>2026-03-29T11:32:22.999Z</time></trkpt><trkpt lat="45.48232525676918" lon="9.005852394718731"><ele>139.8</ele><time>2026-03-29T11:32:23.999Z</time></trkpt><trkpt lat="45.4824271938714" lon="9.005922879803416"><ele>140.0</ele><time>2026-03-29T11:32:24.999Z</time></trkpt><trkpt lat="45.48251891069183" lon="9.005986520315647"><ele>140.2</ele><time>2026-03-29T11:32:25.999Z</time></trkpt><trkpt lat="45.48260705556513" lon="9.006040615534452"><ele>140.4</ele><time>2026-03-29T11:32:26.999Z</time></trkpt><trkpt lat="45.482681924771704" lon="9.00609843305728"><ele>140.6</ele><time>2026-03-29T11:32:27.999Z</time></trkpt><trkpt lat="45.48274929744856" lon="9.00614894058804"><ele>140.8</ele><time>2026-03-29T11:32:28.999Z</time></trkpt><trkpt lat="45.4828298687752" lon="9.00625368305345"><ele>141.0</ele><time>2026-03-29T11:32:30.999Z</time></trkpt><trkpt lat="45.48285519925802" lon="9.006430202993398"><ele>141.0</ele><time>2026-03-29T11:32:32.999Z</time></trkpt><trkpt lat="45.48291415241974" lon="9.00658008250941"><ele>141.0</ele><time>2026-03-29T11:32:34.999Z</time></trkpt><trkpt lat="45.482985774972725" lon="9.006596389275028"><ele>141.0</ele><time>2026-03-29T11:32:35.999Z</time></trkpt><trkpt lat="45.4830556066337" lon="9.006556170666524"><ele>141.0</ele><time>2026-03-29T11:32:36.999Z</time></trkpt><trkpt lat="45.48312899870605" lon="9.00652213626195"><ele>141.0</ele><time>2026-03-29T11:32:37.999Z</time></trkpt><trkpt lat="45.48320135625973" lon="9.006541270799408"><ele>141.0</ele><time>2026-03-29T11:32:38.999Z</time></trkpt><trkpt lat="45.48326862306376" lon="9.006619161661"><ele>141.0</ele><time>2026-03-29T11:32:39.999Z</time></trkpt><trkpt lat="45.48334454781188" lon="9.006719684388614"><ele>141.0</ele><time>2026-03-29T11:32:40.999Z</time></trkpt><trkpt lat="45.483414459153316" lon="9.006848899366199"><ele>141.0</ele><time>2026-03-29T11:32:42Z</time></trkpt><trkpt lat="45.48346761558249" lon="9.007002129827892"><ele>141.0</ele><time>2026-03-29T11:32:43Z</time></trkpt><trkpt lat="45.48352415992716" lon="9.007153696186224"><ele>141.0</ele><time>2026-03-29T11:32:44Z</time></trkpt><trkpt lat="45.483578503005326" lon="9.007292084202966"><ele>141.0</ele><time>2026-03-29T11:32:45Z</time></trkpt><trkpt lat="45.48362541313777" lon="9.007427086202012"><ele>141.0</ele><time>2026-03-29T11:32:46Z</time></trkpt><trkpt lat="45.483667485801796" lon="9.007561373290242"><ele>141.0</ele><time>2026-03-29T11:32:47Z</time></trkpt><trkpt lat="45.48371011459677" lon="9.007693985515564"><ele>141.0</ele><time>2026-03-29T11:32:48Z</time></trkpt><trkpt lat="45.483756774119634" lon="9.007820456159088"><ele>140.8</ele><time>2026-03-29T11:32:49Z</time></trkpt><trkpt lat="45.48380611834557" lon="9.007939148462356"><ele>140.6</ele><time>2026-03-29T11:32:50Z</time></trkpt><trkpt lat="45.48384608549344" lon="9.008062051706915"><ele>140.4</ele><time>2026-03-29T11:32:51Z</time></trkpt><trkpt lat="45.48388559596093" lon="9.008191018887713"><ele>140.2</ele><time>2026-03-29T11:32:52Z</time></trkpt><trkpt lat="45.48392692486808" lon="9.008321874920988"><ele>140.0</ele><time>2026-03-29T11:32:53Z</time></trkpt><trkpt lat="45.48396819338934" lon="9.008452953357661"><ele>140.0</ele><time>2026-03-29T11:32:54Z</time></trkpt><trkpt lat="45.48401999314118" lon="9.008584218564613"><ele>140.0</ele><time>2026-03-29T11:32:55Z</time></trkpt><trkpt lat="45.48408558292294" lon="9.008708981944352"><ele>140.0</ele><time>2026-03-29T11:32:56Z</time></trkpt><trkpt lat="45.48416374329928" lon="9.008811924469653"><ele>140.0</ele><time>2026-03-29T11:32:57Z</time></trkpt><trkpt lat="45.48424132208301" lon="9.008902936036526"><ele>140.0</ele><time>2026-03-29T11:32:58Z</time></trkpt><trkpt lat="45.48431729896497" lon="9.008977004342878"><ele>140.0</ele><time>2026-03-29T11:32:59Z</time></trkpt><trkpt lat="45.48439003907081" lon="9.009045222067213"><ele>140.0</ele><time>2026-03-29T11:33:00Z</time></trkpt><trkpt lat="45.484458023978725" lon="9.009101408943208"><ele>140.0</ele><time>2026-03-29T11:33:01Z</time></trkpt><trkpt lat="45.48451908904401" lon="9.009147935160396"><ele>140.0</ele><time>2026-03-29T11:33:02Z</time></trkpt><trkpt lat="45.48457772529701" lon="9.009191613732552"><ele>140.0</ele><time>2026-03-29T11:33:03Z</time></trkpt><trkpt lat="45.48463690367776" lon="9.009234161897247"><ele>140.0</ele><time>2026-03-29T11:33:04Z</time></trkpt><trkpt lat="45.48468756607419" lon="9.009298950763815"><ele>140.0</ele><time>2026-03-29T11:33:05Z</time></trkpt><trkpt lat="45.48471311850763" lon="9.009398216107847"><ele>140.0</ele><time>2026-03-29T11:33:06Z</time></trkpt><trkpt lat="45.4847269170248" lon="9.009515117797205"><ele>140.0</ele><time>2026-03-29T11:33:07Z</time></trkpt><trkpt lat="45.484754404674916" lon="9.00964313921921"><ele>140.0</ele><time>2026-03-29T11:33:08Z</time></trkpt><trkpt lat="45.4847776213078" lon="9.009767955253501"><ele>140.0</ele><time>2026-03-29T11:33:09Z</time></trkpt><trkpt lat="45.48480578728542" lon="9.009914924636593"><ele>140.0</ele><time>2026-03-29T11:33:10Z</time></trkpt><trkpt lat="45.48483659838104" lon="9.010063341416963"><ele>140.0</ele><time>2026-03-29T11:33:11Z</time></trkpt><trkpt lat="45.48487269591547" lon="9.0102137457031"><ele>140.0</ele><time>2026-03-29T11:33:12Z</time></trkpt><trkpt lat="45.4849037031686" lon="9.010362693368343"><ele>140.0</ele><time>2026-03-29T11:33:13Z</time></trkpt><trkpt lat="45.48492832419807" lon="9.01050116378484"><ele>140.0</ele><time>2026-03-29T11:33:14Z</time></trkpt><trkpt lat="45.484955136614865" lon="9.01062668707986"><ele>140.0</ele><time>2026-03-29T11:33:15Z</time></trkpt><trkpt lat="45.48497369070472" lon="9.01074409419314"><ele>140.2</ele><time>2026-03-29T11:33:16Z</time></trkpt><trkpt lat="45.4849923650409" lon="9.010852910254222"><ele>140.4</ele><time>2026-03-29T11:33:17Z</time></trkpt><trkpt lat="45.48501246497193" lon="9.010948705751888"><ele>140.6</ele><time>2026-03-29T11:33:18Z</time></trkpt><trkpt lat="45.48503641571479" lon="9.011108137679974"><ele>140.8</ele><time>2026-03-29T11:33:20Z</time></trkpt><trkpt lat="45.48505155137335" lon="9.011203318473884"><ele>141.0</ele><time>2026-03-29T11:33:22Z</time></trkpt><trkpt lat="45.48492628910437" lon="9.011299396986853"><ele>141.0</ele><time>2026-03-29T11:33:29Z</time></trkpt><trkpt lat="45.48481411457158" lon="9.011347254016862"><ele>141.0</ele><time>2026-03-29T11:33:31Z</time></trkpt><trkpt lat="45.48474896072542" lon="9.011371888140193"><ele>141.0</ele><time>2026-03-29T11:33:32Z</time></trkpt><trkpt lat="45.48461836526814" lon="9.011418300494412"><ele>141.0</ele><time>2026-03-29T11:33:34Z</time></trkpt><trkpt lat="45.48453995687474" lon="9.011451731767712"><ele>141.0</ele><time>2026-03-29T11:33:35Z</time></trkpt><trkpt lat="45.48447537754018" lon="9.011476973140633"><ele>140.6</ele><time>2026-03-29T11:33:36Z</time></trkpt><trkpt lat="45.484412490469126" lon="9.0115053475142"><ele>140.2</ele><time>2026-03-29T11:33:37Z</time></trkpt><trkpt lat="45.48430444119714" lon="9.011537509423936"><ele>139.8</ele><time>2026-03-29T11:33:39Z</time></trkpt><trkpt lat="45.48433405912578" lon="9.011744016628912"><ele>139.4</ele><time>2026-03-29T11:33:41Z</time></trkpt><trkpt lat="45.48435695246855" lon="9.011845100105239"><ele>139.0</ele><time>2026-03-29T11:33:42Z</time></trkpt><trkpt lat="45.48438067060642" lon="9.011955227982646"><ele>139.0</ele><time>2026-03-29T11:33:43Z</time></trkpt><trkpt lat="45.48441456787677" lon="9.012062829855092"><ele>139.0</ele><time>2026-03-29T11:33:44Z</time></trkpt><trkpt lat="45.48443858779691" lon="9.012175578241036"><ele>139.0</ele><time>2026-03-29T11:33:44.999Z</time></trkpt><trkpt lat="45.484460934666615" lon="9.012303796939927"><ele>139.0</ele><time>2026-03-29T11:33:45.999Z</time></trkpt><trkpt lat="45.484488273604626" lon="9.01243347603149"><ele>139.0</ele><time>2026-03-29T11:33:46.999Z</time></trkpt><trkpt lat="45.484518770863495" lon="9.012569965152748"><ele>139.0</ele><time>2026-03-29T11:33:47.999Z</time></trkpt><trkpt lat="45.48455214803052" lon="9.012701354950698"><ele>139.0</ele><time>2026-03-29T11:33:48.999Z</time></trkpt><trkpt lat="45.48458130474608" lon="9.012841721589464"><ele>139.0</ele><time>2026-03-29T11:33:49.999Z</time></trkpt><trkpt lat="45.48461670195894" lon="9.012991920493407"><ele>139.0</ele><time>2026-03-29T11:33:50.999Z</time></trkpt><trkpt lat="45.48464405468941" lon="9.013149496461848"><ele>139.0</ele><time>2026-03-29T11:33:51.999Z</time></trkpt><trkpt lat="45.484676391477244" lon="9.013303759925185"><ele>139.0</ele><time>2026-03-29T11:33:52.999Z</time></trkpt><trkpt lat="45.4847056375643" lon="9.013446592202163"><ele>139.0</ele><time>2026-03-29T11:33:53.999Z</time></trkpt><trkpt lat="45.48473276322728" lon="9.01357990964113"><ele>139.0</ele><time>2026-03-29T11:33:54.999Z</time></trkpt><trkpt lat="45.484755138916434" lon="9.013703134623265"><ele>139.0</ele><time>2026-03-29T11:33:55.999Z</time></trkpt><trkpt lat="45.48477974966066" lon="9.013815811947387"><ele>139.0</ele><time>2026-03-29T11:33:56.999Z</time></trkpt><trkpt lat="45.48480348091893" lon="9.013916120515557"><ele>139.0</ele><time>2026-03-29T11:33:57.999Z</time></trkpt><trkpt lat="45.484822589166406" lon="9.014005791849069"><ele>139.0</ele><time>2026-03-29T11:33:58.999Z</time></trkpt><trkpt lat="45.48485752698695" lon="9.014165031676377"><ele>139.0</ele><time>2026-03-29T11:34:00.999Z</time></trkpt><trkpt lat="45.484885011379696" lon="9.01427221749295"><ele>139.0</ele><time>2026-03-29T11:34:02.999Z</time></trkpt><trkpt lat="45.48484188803869" lon="9.014356642050137"><ele>139.0</ele><time>2026-03-29T11:34:05.999Z</time></trkpt><trkpt lat="45.48477660294496" lon="9.014388060354639"><ele>139.0</ele><time>2026-03-29T11:34:07.999Z</time></trkpt><trkpt lat="45.484817097990515" lon="9.01451381362694"><ele>139.0</ele><time>2026-03-29T11:34:08.999Z</time></trkpt><trkpt lat="45.48485491946851" lon="9.014587949499177"><ele>139.0</ele><time>2026-03-29T11:34:09.999Z</time></trkpt><trkpt lat="45.48485926481161" lon="9.01467802006995"><ele>139.0</ele><time>2026-03-29T11:34:10.999Z</time></trkpt><trkpt lat="45.48488834715011" lon="9.014764556803524"><ele>139.0</ele><time>2026-03-29T11:34:11.999Z</time></trkpt><trkpt lat="45.48490914456277" lon="9.014859504865141"><ele>139.0</ele><time>2026-03-29T11:34:12.999Z</time></trkpt><trkpt lat="45.4849244245487" lon="9.01496750349878"><ele>139.0</ele><time>2026-03-29T11:34:13.999Z</time></trkpt><trkpt lat="45.484939630659575" lon="9.01506889727936"><ele>139.0</ele><time>2026-03-29T11:34:14.999Z</time></trkpt><trkpt lat="45.48495935331345" lon="9.015181086248955"><ele>139.0</ele><time>2026-03-29T11:34:15.999Z</time></trkpt><trkpt lat="45.48498367299011" lon="9.015298028155081"><ele>139.0</ele><time>2026-03-29T11:34:16.999Z</time></trkpt><trkpt lat="45.48501213525515" lon="9.015421037669894"><ele>139.0</ele><time>2026-03-29T11:34:17.999Z</time></trkpt><trkpt lat="45.485038799776675" lon="9.015547080947186"><ele>139.0</ele><time>2026-03-29T11:34:18.999Z</time></trkpt><trkpt lat="45.485065145301704" lon="9.015691873403393"><ele>139.0</ele><time>2026-03-29T11:34:19.999Z</time></trkpt><trkpt lat="45.485094166603375" lon="9.015836775236892"><ele>139.0</ele><time>2026-03-29T11:34:20.999Z</time></trkpt><trkpt lat="45.48511959294199" lon="9.015973962529518"><ele>139.0</ele><time>2026-03-29T11:34:21.999Z</time></trkpt><trkpt lat="45.48514594232846" lon="9.016100474523887"><ele>139.0</ele><time>2026-03-29T11:34:22.999Z</time></trkpt><trkpt lat="45.485173847948786" lon="9.016213215498963"><ele>139.0</ele><time>2026-03-29T11:34:23.999Z</time></trkpt><trkpt lat="45.48519784704458" lon="9.016321556087608"><ele>139.0</ele><time>2026-03-29T11:34:24.999Z</time></trkpt><trkpt lat="45.48521846471483" lon="9.016414430543808"><ele>139.0</ele><time>2026-03-29T11:34:25.999Z</time></trkpt><trkpt lat="45.4852378509083" lon="9.016506772030665"><ele>139.0</ele><time>2026-03-29T11:34:26.999Z</time></trkpt><trkpt lat="45.48525390567042" lon="9.016597574584402"><ele>139.0</ele><time>2026-03-29T11:34:27.999Z</time></trkpt><trkpt lat="45.48528370680666" lon="9.016753845026143"><ele>139.0</ele><time>2026-03-29T11:34:29.999Z</time></trkpt><trkpt lat="45.48530542082809" lon="9.016881251350892"><ele>139.0</ele><time>2026-03-29T11:34:31.999Z</time></trkpt><trkpt lat="45.48529795953458" lon="9.016976643964135"><ele>139.0</ele><time>2026-03-29T11:34:33.999Z</time></trkpt><trkpt lat="45.48528447495355" lon="9.017116615154706"><ele>139.0</ele><time>2026-03-29T11:34:35.999Z</time></trkpt><trkpt lat="45.485261235410604" lon="9.017280034273826"><ele>139.0</ele><time>2026-03-29T11:34:37.999Z</time></trkpt><trkpt lat="45.48526922713069" lon="9.017375064606325"><ele>139.0</ele><time>2026-03-29T11:34:38.999Z</time></trkpt><trkpt lat="45.485263081283854" lon="9.017487077932236"><ele>139.0</ele><time>2026-03-29T11:34:39.999Z</time></trkpt><trkpt lat="45.48523825587512" lon="9.017593185893277"><ele>139.0</ele><time>2026-03-29T11:34:40.999Z</time></trkpt><trkpt lat="45.485224820684245" lon="9.01772736328326"><ele>139.0</ele><time>2026-03-29T11:34:41.999Z</time></trkpt><trkpt lat="45.48521750659305" lon="9.01785090414797"><ele>139.0</ele><time>2026-03-29T11:34:42.999Z</time></trkpt><trkpt lat="45.48520835190395" lon="9.017983350365817"><ele>138.8</ele><time>2026-03-29T11:34:43.999Z</time></trkpt><trkpt lat="45.4851993078391" lon="9.018121198568398"><ele>138.60000000000002</ele><time>2026-03-29T11:34:44.999Z</time></trkpt><trkpt lat="45.48520810359363" lon="9.01825535426926"><ele>138.4</ele><time>2026-03-29T11:34:45.999Z</time></trkpt><trkpt lat="45.485199357368806" lon="9.018396095824336"><ele>138.20000000000002</ele><time>2026-03-29T11:34:46.999Z</time></trkpt><trkpt lat="45.48517769452047" lon="9.018517286169267"><ele>138.0</ele><time>2026-03-29T11:34:48Z</time></trkpt><trkpt lat="45.48517143647545" lon="9.018636943535856"><ele>138.0</ele><time>2026-03-29T11:34:49Z</time></trkpt><trkpt lat="45.48516512545943" lon="9.01875761381473"><ele>138.0</ele><time>2026-03-29T11:34:50Z</time></trkpt><trkpt lat="45.48516125487032" lon="9.01887965385844"><ele>138.0</ele><time>2026-03-29T11:34:51Z</time></trkpt><trkpt lat="45.485173770575756" lon="9.019011638639618"><ele>138.0</ele><time>2026-03-29T11:34:52Z</time></trkpt><trkpt lat="45.48518285486935" lon="9.019131856307506"><ele>138.0</ele><time>2026-03-29T11:34:53Z</time></trkpt><trkpt lat="45.48517302959053" lon="9.019256706075192"><ele>138.0</ele><time>2026-03-29T11:34:54Z</time></trkpt><trkpt lat="45.48516378517467" lon="9.019381885199264"><ele>138.0</ele><time>2026-03-29T11:34:55Z</time></trkpt><trkpt lat="45.485155351153736" lon="9.019491378050484"><ele>138.0</ele><time>2026-03-29T11:34:56Z</time></trkpt><trkpt lat="45.48514368799368" lon="9.019599105250785"><ele>138.0</ele><time>2026-03-29T11:34:57Z</time></trkpt><trkpt lat="45.48513463540998" lon="9.019713765506031"><ele>138.0</ele><time>2026-03-29T11:34:58Z</time></trkpt><trkpt lat="45.4851211337329" lon="9.019839579098495"><ele>138.0</ele><time>2026-03-29T11:34:59Z</time></trkpt><trkpt lat="45.4851067318319" lon="9.019970803519843"><ele>138.0</ele><time>2026-03-29T11:35:00Z</time></trkpt><trkpt lat="45.4850880230607" lon="9.020106508307977"><ele>138.16666666666666</ele><time>2026-03-29T11:35:01Z</time></trkpt><trkpt lat="45.485069198350125" lon="9.020242847477508"><ele>138.33333333333334</ele><time>2026-03-29T11:35:02Z</time></trkpt><trkpt lat="45.485054074637866" lon="9.0203713412071"><ele>138.5</ele><time>2026-03-29T11:35:03Z</time></trkpt><trkpt lat="45.48503872485746" lon="9.020497749108522"><ele>138.66666666666669</ele><time>2026-03-29T11:35:04Z</time></trkpt><trkpt lat="45.485023771837575" lon="9.02060643578565"><ele>138.83333333333334</ele><time>2026-03-29T11:35:05Z</time></trkpt><trkpt lat="45.485007491257925" lon="9.020719863342398"><ele>139.0</ele><time>2026-03-29T11:35:06Z</time></trkpt><trkpt lat="45.484991098145485" lon="9.020845646639893"><ele>139.4</ele><time>2026-03-29T11:35:07Z</time></trkpt><trkpt lat="45.484981940436455" lon="9.020983749419356"><ele>139.8</ele><time>2026-03-29T11:35:08Z</time></trkpt><trkpt lat="45.484970114516734" lon="9.021123090288121"><ele>140.2</ele><time>2026-03-29T11:35:09Z</time></trkpt><trkpt lat="45.48495488949335" lon="9.021263209860654"><ele>140.6</ele><time>2026-03-29T11:35:10Z</time></trkpt><trkpt lat="45.48494307383571" lon="9.02142090229209"><ele>141.0</ele><time>2026-03-29T11:35:11Z</time></trkpt><trkpt lat="45.48491154822142" lon="9.02157571709443"><ele>141.25</ele><time>2026-03-29T11:35:12Z</time></trkpt><trkpt lat="45.484920976842425" lon="9.021742367992102"><ele>141.5</ele><time>2026-03-29T11:35:13Z</time></trkpt><trkpt lat="45.48491635372018" lon="9.021907097296934"><ele>141.75</ele><time>2026-03-29T11:35:14Z</time></trkpt><trkpt lat="45.48491937172983" lon="9.022072233842172"><ele>142.0</ele><time>2026-03-29T11:35:15Z</time></trkpt><trkpt lat="45.48493426448153" lon="9.022236912027559"><ele>142.0</ele><time>2026-03-29T11:35:16Z</time></trkpt><trkpt lat="45.484948593112705" lon="9.022400387024494"><ele>142.0</ele><time>2026-03-29T11:35:17Z</time></trkpt><trkpt lat="45.484939603809444" lon="9.022579126374344"><ele>142.0</ele><time>2026-03-29T11:35:18Z</time></trkpt><trkpt lat="45.48494715871658" lon="9.022759538474057"><ele>142.0</ele><time>2026-03-29T11:35:19Z</time></trkpt><trkpt lat="45.48495690919959" lon="9.0229325026011"><ele>141.4</ele><time>2026-03-29T11:35:20Z</time></trkpt><trkpt lat="45.48496577034469" lon="9.023105001592125"><ele>140.79999999999998</ele><time>2026-03-29T11:35:21Z</time></trkpt><trkpt lat="45.484978994452064" lon="9.023259740336375"><ele>140.2</ele><time>2026-03-29T11:35:22Z</time></trkpt><trkpt lat="45.48499319939529" lon="9.023420358289947"><ele>139.6</ele><time>2026-03-29T11:35:23Z</time></trkpt><trkpt lat="45.485010954484544" lon="9.023552423991894"><ele>139.0</ele><time>2026-03-29T11:35:24Z</time></trkpt><trkpt lat="45.48503169502205" lon="9.023679931563715"><ele>138.83333333333334</ele><time>2026-03-29T11:35:25Z</time></trkpt><trkpt lat="45.485049978808924" lon="9.023794236262972"><ele>138.66666666666669</ele><time>2026-03-29T11:35:26Z</time></trkpt><trkpt lat="45.48506716047538" lon="9.023910476511443"><ele>138.5</ele><time>2026-03-29T11:35:27Z</time></trkpt><trkpt lat="45.485084225466046" lon="9.024026624771992"><ele>138.33333333333334</ele><time>2026-03-29T11:35:28Z</time></trkpt><trkpt lat="45.485106502058976" lon="9.024139413981143"><ele>138.16666666666666</ele><time>2026-03-29T11:35:29Z</time></trkpt><trkpt lat="45.4851295258126" lon="9.024273604822456"><ele>138.0</ele><time>2026-03-29T11:35:30Z</time></trkpt><trkpt lat="45.48515076848112" lon="9.024393227128815"><ele>138.0</ele><time>2026-03-29T11:35:31Z</time></trkpt><trkpt lat="45.48517171807472" lon="9.024539143411912"><ele>138.0</ele><time>2026-03-29T11:35:32Z</time></trkpt><trkpt lat="45.485196223609286" lon="9.024685501450138"><ele>138.0</ele><time>2026-03-29T11:35:33Z</time></trkpt><trkpt lat="45.48521237638948" lon="9.0248181678475"><ele>138.0</ele><time>2026-03-29T11:35:34Z</time></trkpt><trkpt lat="45.48523231657656" lon="9.02496156082059"><ele>138.0</ele><time>2026-03-29T11:35:35Z</time></trkpt><trkpt lat="45.485259639570714" lon="9.025113709218235"><ele>138.0</ele><time>2026-03-29T11:35:36Z</time></trkpt><trkpt lat="45.48528157239777" lon="9.025255700823964"><ele>138.0</ele><time>2026-03-29T11:35:37Z</time></trkpt><trkpt lat="45.48529970965918" lon="9.025399829356163"><ele>138.0</ele><time>2026-03-29T11:35:38Z</time></trkpt><trkpt lat="45.48532108513855" lon="9.02554598637628"><ele>138.0</ele><time>2026-03-29T11:35:39Z</time></trkpt><trkpt lat="45.48534783706372" lon="9.025700109768703"><ele>138.0</ele><time>2026-03-29T11:35:40Z</time></trkpt><trkpt lat="45.48537323594603" lon="9.025866394620236"><ele>138.0</ele><time>2026-03-29T11:35:41Z</time></trkpt><trkpt lat="45.48539326751771" lon="9.026041803200163"><ele>138.0</ele><time>2026-03-29T11:35:42Z</time></trkpt><trkpt lat="45.48542188422202" lon="9.026216622352319"><ele>138.0</ele><time>2026-03-29T11:35:43Z</time></trkpt><trkpt lat="45.48544620791232" lon="9.026382499027774"><ele>138.0</ele><time>2026-03-29T11:35:44Z</time></trkpt><trkpt lat="45.48547008496222" lon="9.026536260478741"><ele>137.5</ele><time>2026-03-29T11:35:45Z</time></trkpt><trkpt lat="45.48549933866124" lon="9.026691124245747"><ele>137.0</ele><time>2026-03-29T11:35:46Z</time></trkpt><trkpt lat="45.48553131312709" lon="9.026850443794562"><ele>136.5</ele><time>2026-03-29T11:35:46.999Z</time></trkpt><trkpt lat="45.48556798400464" lon="9.02700861777925"><ele>136.0</ele><time>2026-03-29T11:35:47.999Z</time></trkpt><trkpt lat="45.48560822875699" lon="9.027168481369774"><ele>136.0</ele><time>2026-03-29T11:35:48.999Z</time></trkpt><trkpt lat="45.485652275556234" lon="9.027337771224163"><ele>136.0</ele><time>2026-03-29T11:35:49.999Z</time></trkpt><trkpt lat="45.48568833154645" lon="9.027519764316878"><ele>136.0</ele><time>2026-03-29T11:35:50.999Z</time></trkpt><trkpt lat="45.48573287838095" lon="9.02769924032451"><ele>136.0</ele><time>2026-03-29T11:35:51.999Z</time></trkpt><trkpt lat="45.485785584603136" lon="9.027893610410155"><ele>136.25</ele><time>2026-03-29T11:35:52.999Z</time></trkpt><trkpt lat="45.48584924088084" lon="9.028066511907339"><ele>136.5</ele><time>2026-03-29T11:35:53.999Z</time></trkpt><trkpt lat="45.48589700133976" lon="9.02822838854928"><ele>136.75</ele><time>2026-03-29T11:35:54.999Z</time></trkpt><trkpt lat="45.485931278065905" lon="9.028372309053838"><ele>137.0</ele><time>2026-03-29T11:35:55.999Z</time></trkpt><trkpt lat="45.4859638780074" lon="9.028496458142628"><ele>137.0</ele><time>2026-03-29T11:35:56.999Z</time></trkpt><trkpt lat="45.48598091594846" lon="9.028604391199796"><ele>137.0</ele><time>2026-03-29T11:35:57.999Z</time></trkpt><trkpt lat="45.48598683739098" lon="9.028698897482142"><ele>137.0</ele><time>2026-03-29T11:35:58.999Z</time></trkpt><trkpt lat="45.48598304139447" lon="9.028860762915167"><ele>137.0</ele><time>2026-03-29T11:36:00.999Z</time></trkpt><trkpt lat="45.48603958453449" lon="9.028992476044309"><ele>137.0</ele><time>2026-03-29T11:36:02.999Z</time></trkpt><trkpt lat="45.48613570891545" lon="9.028955979087637"><ele>137.0</ele><time>2026-03-29T11:36:03.999Z</time></trkpt><trkpt lat="45.486192334480705" lon="9.028870960503163"><ele>137.0</ele><time>2026-03-29T11:36:04.999Z</time></trkpt><trkpt lat="45.48630029970016" lon="9.028893330323765"><ele>137.0</ele><time>2026-03-29T11:36:05.999Z</time></trkpt><trkpt lat="45.486389815153984" lon="9.028853319424417"><ele>137.0</ele><time>2026-03-29T11:36:06.999Z</time></trkpt><trkpt lat="45.486491045260365" lon="9.028804342410606"><ele>137.0</ele><time>2026-03-29T11:36:07.999Z</time></trkpt><trkpt lat="45.48658289442905" lon="9.028753766658326"><ele>137.6</ele><time>2026-03-29T11:36:08.999Z</time></trkpt><trkpt lat="45.486676769605005" lon="9.028701400667797"><ele>138.2</ele><time>2026-03-29T11:36:09.999Z</time></trkpt><trkpt lat="45.4867593801071" lon="9.028660290099191"><ele>138.8</ele><time>2026-03-29T11:36:10.999Z</time></trkpt><trkpt lat="45.48682990127186" lon="9.028624095958962"><ele>139.4</ele><time>2026-03-29T11:36:11.999Z</time></trkpt><trkpt lat="45.48693815504209" lon="9.028568709862387"><ele>140.0</ele><time>2026-03-29T11:36:13.999Z</time></trkpt><trkpt lat="45.48704162248504" lon="9.028527142366793"><ele>140.16666666666666</ele><time>2026-03-29T11:36:15.999Z</time></trkpt><trkpt lat="45.4871069941665" lon="9.028653072204614"><ele>140.33333333333331</ele><time>2026-03-29T11:36:17.999Z</time></trkpt><trkpt lat="45.48713590662211" lon="9.028746525449263"><ele>140.5</ele><time>2026-03-29T11:36:18.999Z</time></trkpt><trkpt lat="45.48716227428154" lon="9.02886010423143"><ele>140.66666666666666</ele><time>2026-03-29T11:36:19.999Z</time></trkpt><trkpt lat="45.487184570486974" lon="9.02898697980485"><ele>140.83333333333334</ele><time>2026-03-29T11:36:20.999Z</time></trkpt><trkpt lat="45.48721009002434" lon="9.029105122659141"><ele>141.0</ele><time>2026-03-29T11:36:21.999Z</time></trkpt><trkpt lat="45.48723753659145" lon="9.029224876743843"><ele>140.6</ele><time>2026-03-29T11:36:22.999Z</time></trkpt><trkpt lat="45.48727286633057" lon="9.029355046170982"><ele>140.2</ele><time>2026-03-29T11:36:23.999Z</time></trkpt><trkpt lat="45.487311758197656" lon="9.029491374142774"><ele>139.8</ele><time>2026-03-29T11:36:24.999Z</time></trkpt><trkpt lat="45.4873518810649" lon="9.029631315886611"><ele>139.4</ele><time>2026-03-29T11:36:25.999Z</time></trkpt><trkpt lat="45.487384115670665" lon="9.029776712923487"><ele>139.0</ele><time>2026-03-29T11:36:26.999Z</time></trkpt><trkpt lat="45.487416619407824" lon="9.029919893833895"><ele>139.16666666666669</ele><time>2026-03-29T11:36:27.999Z</time></trkpt><trkpt lat="45.48745260169186" lon="9.030048199333693"><ele>139.33333333333334</ele><time>2026-03-29T11:36:28.999Z</time></trkpt><trkpt lat="45.487485500319195" lon="9.030170957740287"><ele>139.5</ele><time>2026-03-29T11:36:29.999Z</time></trkpt><trkpt lat="45.48751284781175" lon="9.030289923501128"><ele>139.66666666666666</ele><time>2026-03-29T11:36:30.999Z</time></trkpt><trkpt lat="45.4875380785401" lon="9.030387790775853"><ele>139.83333333333331</ele><time>2026-03-29T11:36:31.999Z</time></trkpt><trkpt lat="45.48756220370831" lon="9.030486727584714"><ele>140.0</ele><time>2026-03-29T11:36:32.999Z</time></trkpt><trkpt lat="45.48760294916875" lon="9.030645172223304"><ele>140.0</ele><time>2026-03-29T11:36:34.999Z</time></trkpt><trkpt lat="45.48763332325328" lon="9.03077468405585"><ele>140.0</ele><time>2026-03-29T11:36:36.999Z</time></trkpt><trkpt lat="45.487684369432614" lon="9.030960141730821"><ele>140.0</ele><time>2026-03-29T11:37:22Z</time></trkpt><trkpt lat="45.48776375363593" lon="9.031120606862938"><ele>140.0</ele><time>2026-03-29T11:37:24Z</time></trkpt><trkpt lat="45.48779838821244" lon="9.031217623198309"><ele>140.0</ele><time>2026-03-29T11:37:25Z</time></trkpt><trkpt lat="45.4878439579923" lon="9.0313373231837"><ele>139.6</ele><time>2026-03-29T11:37:26Z</time></trkpt><trkpt lat="45.487886201736934" lon="9.031473590782666"><ele>139.2</ele><time>2026-03-29T11:37:27Z</time></trkpt><trkpt lat="45.48794019193367" lon="9.031616062375122"><ele>138.8</ele><time>2026-03-29T11:37:28Z</time></trkpt><trkpt lat="45.48798825783343" lon="9.031762178589789"><ele>138.4</ele><time>2026-03-29T11:37:29Z</time></trkpt><trkpt lat="45.48802653049749" lon="9.031916929895491"><ele>138.0</ele><time>2026-03-29T11:37:30Z</time></trkpt><trkpt lat="45.48809057021461" lon="9.032065567084022"><ele>138.0</ele><time>2026-03-29T11:37:31Z</time></trkpt><trkpt lat="45.488132123227714" lon="9.032229780901673"><ele>138.0</ele><time>2026-03-29T11:37:32Z</time></trkpt><trkpt lat="45.48817379760938" lon="9.032391213961944"><ele>138.0</ele><time>2026-03-29T11:37:33Z</time></trkpt><trkpt lat="45.48821897887359" lon="9.032556221075453"><ele>138.0</ele><time>2026-03-29T11:37:34Z</time></trkpt><trkpt lat="45.48823549684203" lon="9.032711521787649"><ele>138.0</ele><time>2026-03-29T11:37:35Z</time></trkpt><trkpt lat="45.4882709098522" lon="9.032849496913242"><ele>138.0</ele><time>2026-03-29T11:37:36Z</time></trkpt><trkpt lat="45.48831963474951" lon="9.032964231748558"><ele>138.0</ele><time>2026-03-29T11:37:37Z</time></trkpt><trkpt lat="45.48834213596325" lon="9.033074016319981"><ele>138.0</ele><time>2026-03-29T11:37:38Z</time></trkpt><trkpt lat="45.48835608083653" lon="9.033175027232128"><ele>138.0</ele><time>2026-03-29T11:37:39Z</time></trkpt><trkpt lat="45.48837720168432" lon="9.033276253985719"><ele>138.0</ele><time>2026-03-29T11:37:40Z</time></trkpt><trkpt lat="45.48838545286066" lon="9.033368504620347"><ele>138.0</ele><time>2026-03-29T11:37:41Z</time></trkpt><trkpt lat="45.488383387711096" lon="9.033515998303374"><ele>138.0</ele><time>2026-03-29T11:37:43Z</time></trkpt><trkpt lat="45.48851970206347" lon="9.033643724666915"><ele>138.0</ele><time>2026-03-29T11:37:45Z</time></trkpt><trkpt lat="45.48862182630238" lon="9.033541686757651"><ele>138.0</ele><time>2026-03-29T11:37:46Z</time></trkpt><trkpt lat="45.48870975655707" lon="9.033477590943155"><ele>138.0</ele><time>2026-03-29T11:37:47Z</time></trkpt><trkpt lat="45.488801719986675" lon="9.03343272632023"><ele>138.0</ele><time>2026-03-29T11:37:48Z</time></trkpt><trkpt lat="45.488907013768475" lon="9.033389060381735"><ele>138.0</ele><time>2026-03-29T11:37:49Z</time></trkpt><trkpt lat="45.488997019482476" lon="9.033356405828448"><ele>138.0</ele><time>2026-03-29T11:37:50Z</time></trkpt><trkpt lat="45.48908282851151" lon="9.033321656262997"><ele>138.0</ele><time>2026-03-29T11:37:51Z</time></trkpt><trkpt lat="45.489157897908726" lon="9.033289199311167"><ele>138.0</ele><time>2026-03-29T11:37:52Z</time></trkpt><trkpt lat="45.489225824641316" lon="9.033260595288404"><ele>138.0</ele><time>2026-03-29T11:37:53Z</time></trkpt><trkpt lat="45.48928854318041" lon="9.033238737133795"><ele>138.0</ele><time>2026-03-29T11:37:54Z</time></trkpt><trkpt lat="45.489397520219086" lon="9.033217910918415"><ele>138.0</ele><time>2026-03-29T11:37:55.999Z</time></trkpt><trkpt lat="45.48946697071329" lon="9.033217273534222"><ele>138.0</ele><time>2026-03-29T11:37:57.999Z</time></trkpt><trkpt lat="45.48956028914863" lon="9.033254645961696"><ele>138.0</ele><time>2026-03-29T11:38:17.999Z</time></trkpt><trkpt lat="45.48965377849206" lon="9.0333520228719"><ele>137.8</ele><time>2026-03-29T11:38:19.999Z</time></trkpt><trkpt lat="45.489666323955404" lon="9.033487131817127"><ele>137.60000000000002</ele><time>2026-03-29T11:38:20.999Z</time></trkpt><trkpt lat="45.48967593921758" lon="9.033607541233986"><ele>137.39999999999998</ele><time>2026-03-29T11:38:21.999Z</time></trkpt><trkpt lat="45.48968646132533" lon="9.033741170608126"><ele>137.2</ele><time>2026-03-29T11:38:22.999Z</time></trkpt><trkpt lat="45.48969561790135" lon="9.033879803306705"><ele>137.0</ele><time>2026-03-29T11:38:23.999Z</time></trkpt><trkpt lat="45.489704551125385" lon="9.034010340081863"><ele>137.4</ele><time>2026-03-29T11:38:24.999Z</time></trkpt><trkpt lat="45.489713009068346" lon="9.034155428393566"><ele>137.79999999999998</ele><time>2026-03-29T11:38:25.999Z</time></trkpt><trkpt lat="45.48972701260904" lon="9.034299408843225"><ele>138.2</ele><time>2026-03-29T11:38:26.999Z</time></trkpt><trkpt lat="45.489738340828964" lon="9.03444616153027"><ele>138.6</ele><time>2026-03-29T11:38:27.999Z</time></trkpt><trkpt lat="45.48975381823741" lon="9.03457575284923"><ele>139.0</ele><time>2026-03-29T11:38:28.999Z</time></trkpt><trkpt lat="45.48976712759738" lon="9.03474457479798"><ele>139.0</ele><time>2026-03-29T11:38:29.999Z</time></trkpt><trkpt lat="45.48978542350057" lon="9.034908666355605"><ele>139.0</ele><time>2026-03-29T11:38:30.999Z</time></trkpt><trkpt lat="45.489797932631454" lon="9.035057704522785"><ele>139.0</ele><time>2026-03-29T11:38:31.999Z</time></trkpt><trkpt lat="45.48981444315614" lon="9.035226859326288"><ele>139.0</ele><time>2026-03-29T11:38:32.999Z</time></trkpt><trkpt lat="45.48982449795705" lon="9.03539449749282"><ele>139.0</ele><time>2026-03-29T11:38:33.999Z</time></trkpt><trkpt lat="45.48984488927929" lon="9.035567922531362"><ele>139.0</ele><time>2026-03-29T11:38:34.999Z</time></trkpt><trkpt lat="45.489860513821334" lon="9.035732917365518"><ele>139.0</ele><time>2026-03-29T11:38:35.999Z</time></trkpt><trkpt lat="45.48987696737197" lon="9.035911168504073"><ele>139.0</ele><time>2026-03-29T11:38:36.999Z</time></trkpt><trkpt lat="45.48989547415281" lon="9.036067465193652"><ele>139.0</ele><time>2026-03-29T11:38:37.999Z</time></trkpt><trkpt lat="45.48990579591812" lon="9.036236136011198"><ele>139.0</ele><time>2026-03-29T11:38:38.999Z</time></trkpt><trkpt lat="45.4899227509261" lon="9.036424054504689"><ele>139.0</ele><time>2026-03-29T11:38:39.999Z</time></trkpt><trkpt lat="45.48994028592458" lon="9.036619385726551"><ele>139.0</ele><time>2026-03-29T11:38:40.999Z</time></trkpt><trkpt lat="45.48996732953383" lon="9.036806204060687"><ele>138.75</ele><time>2026-03-29T11:38:41.999Z</time></trkpt><trkpt lat="45.489998374989135" lon="9.03698394169693"><ele>138.5</ele><time>2026-03-29T11:38:42.999Z</time></trkpt><trkpt lat="45.49002720856489" lon="9.037145129295949"><ele>138.25</ele><time>2026-03-29T11:38:43.999Z</time></trkpt><trkpt lat="45.49005790818308" lon="9.037299869801238"><ele>138.0</ele><time>2026-03-29T11:38:44.999Z</time></trkpt><trkpt lat="45.49007786802117" lon="9.037469009291963"><ele>138.0</ele><time>2026-03-29T11:38:45.999Z</time></trkpt><trkpt lat="45.49009065996712" lon="9.037632706353497"><ele>138.0</ele><time>2026-03-29T11:38:46.999Z</time></trkpt><trkpt lat="45.49009192611751" lon="9.037799356985179"><ele>138.0</ele><time>2026-03-29T11:38:47.999Z</time></trkpt><trkpt lat="45.49008207785077" lon="9.037979446656342"><ele>138.0</ele><time>2026-03-29T11:38:48.999Z</time></trkpt><trkpt lat="45.49007116594103" lon="9.038160608443532"><ele>138.0</ele><time>2026-03-29T11:38:49.999Z</time></trkpt><trkpt lat="45.49004303346077" lon="9.038336113409052"><ele>138.0</ele><time>2026-03-29T11:38:50.999Z</time></trkpt><trkpt lat="45.48999759515609" lon="9.038503374540193"><ele>138.0</ele><time>2026-03-29T11:38:51.999Z</time></trkpt><trkpt lat="45.48996928730721" lon="9.038660552309102"><ele>138.0</ele><time>2026-03-29T11:38:52.999Z</time></trkpt><trkpt lat="45.48996962943738" lon="9.03882335131435"><ele>138.0</ele><time>2026-03-29T11:38:53.999Z</time></trkpt><trkpt lat="45.489986629493636" lon="9.039004491594007"><ele>138.0</ele><time>2026-03-29T11:38:54.999Z</time></trkpt><trkpt lat="45.490011999634504" lon="9.03917889541902"><ele>138.0</ele><time>2026-03-29T11:38:55.999Z</time></trkpt><trkpt lat="45.490045297972706" lon="9.039355782029507"><ele>138.0</ele><time>2026-03-29T11:38:56.999Z</time></trkpt><trkpt lat="45.490080539113855" lon="9.039541086762902"><ele>137.75</ele><time>2026-03-29T11:38:57.999Z</time></trkpt><trkpt lat="45.49011786453049" lon="9.039726579420366"><ele>137.5</ele><time>2026-03-29T11:38:58.999Z</time></trkpt><trkpt lat="45.49015306546469" lon="9.039913930647005"><ele>137.25</ele><time>2026-03-29T11:39:00Z</time></trkpt><trkpt lat="45.49018496179034" lon="9.040108778092808"><ele>137.0</ele><time>2026-03-29T11:39:01Z</time></trkpt><trkpt lat="45.490214537128196" lon="9.040304208113584"><ele>137.0</ele><time>2026-03-29T11:39:02Z</time></trkpt><trkpt lat="45.49024433131427" lon="9.040509361156621"><ele>137.0</ele><time>2026-03-29T11:39:03Z</time></trkpt><trkpt lat="45.49026964258944" lon="9.040720662282057"><ele>137.0</ele><time>2026-03-29T11:39:04Z</time></trkpt><trkpt lat="45.490295165130014" lon="9.04093266928811"><ele>137.0</ele><time>2026-03-29T11:39:05Z</time></trkpt><trkpt lat="45.49031884698399" lon="9.041151684814913"><ele>137.66666666666666</ele><time>2026-03-29T11:39:06Z</time></trkpt><trkpt lat="45.490340197782714" lon="9.041379129039779"><ele>138.33333333333334</ele><time>2026-03-29T11:39:07Z</time></trkpt><trkpt lat="45.49036131097468" lon="9.041613331626978"><ele>139.0</ele><time>2026-03-29T11:39:08Z</time></trkpt><trkpt lat="45.49038070813211" lon="9.041850790556753"><ele>139.0</ele><time>2026-03-29T11:39:09Z</time></trkpt><trkpt lat="45.490403965173115" lon="9.042082763719689"><ele>139.0</ele><time>2026-03-29T11:39:10Z</time></trkpt><trkpt lat="45.49043561878968" lon="9.042314589610093"><ele>139.0</ele><time>2026-03-29T11:39:11Z</time></trkpt><trkpt lat="45.490477759823726" lon="9.042542432118822"><ele>138.66666666666669</ele><time>2026-03-29T11:39:12Z</time></trkpt><trkpt lat="45.490526582092556" lon="9.042765362126648"><ele>138.33333333333334</ele><time>2026-03-29T11:39:13Z</time></trkpt><trkpt lat="45.49057881333468" lon="9.042979251911126"><ele>138.0</ele><time>2026-03-29T11:39:14Z</time></trkpt><trkpt lat="45.49063435586991" lon="9.043195420962341"><ele>137.33333333333334</ele><time>2026-03-29T11:39:15Z</time></trkpt><trkpt lat="45.49069458508761" lon="9.043414716929393"><ele>136.66666666666669</ele><time>2026-03-29T11:39:16Z</time></trkpt><trkpt lat="45.490765848586506" lon="9.043634457657564"><ele>136.0</ele><time>2026-03-29T11:39:17Z</time></trkpt><trkpt lat="45.490835685989026" lon="9.043843522933559"><ele>136.0</ele><time>2026-03-29T11:39:18Z</time></trkpt><trkpt lat="45.490911560004875" lon="9.044042561918445"><ele>136.0</ele><time>2026-03-29T11:39:19Z</time></trkpt><trkpt lat="45.49099062945893" lon="9.044247101790491"><ele>136.0</ele><time>2026-03-29T11:39:20Z</time></trkpt><trkpt lat="45.49106576383431" lon="9.044449552775745"><ele>136.0</ele><time>2026-03-29T11:39:21Z</time></trkpt><trkpt lat="45.49114166363411" lon="9.044653820866749"><ele>136.0</ele><time>2026-03-29T11:39:22Z</time></trkpt><trkpt lat="45.4912145371259" lon="9.044853485798736"><ele>136.0</ele><time>2026-03-29T11:39:23Z</time></trkpt><trkpt lat="45.49128666413571" lon="9.04505468778485"><ele>137.0</ele><time>2026-03-29T11:39:24Z</time></trkpt><trkpt lat="45.4913592444638" lon="9.045253518988158"><ele>138.0</ele><time>2026-03-29T11:39:25Z</time></trkpt><trkpt lat="45.491434348321505" lon="9.045456214516857"><ele>139.0</ele><time>2026-03-29T11:39:26Z</time></trkpt><trkpt lat="45.4915066346589" lon="9.04565667429446"><ele>139.0</ele><time>2026-03-29T11:39:27Z</time></trkpt><trkpt lat="45.49157824391185" lon="9.045858698112207"><ele>139.0</ele><time>2026-03-29T11:39:28Z</time></trkpt><trkpt lat="45.491648453938815" lon="9.046059106984323"><ele>139.0</ele><time>2026-03-29T11:39:29Z</time></trkpt><trkpt lat="45.49172214901185" lon="9.046263499044208"><ele>139.0</ele><time>2026-03-29T11:39:30Z</time></trkpt><trkpt lat="45.49179672569071" lon="9.046471271368791"><ele>139.0</ele><time>2026-03-29T11:39:31Z</time></trkpt><trkpt lat="45.491871917671226" lon="9.046680170656417"><ele>139.0</ele><time>2026-03-29T11:39:32Z</time></trkpt><trkpt lat="45.49195040198728" lon="9.046887903173813"><ele>139.0</ele><time>2026-03-29T11:39:33Z</time></trkpt><trkpt lat="45.49202850946436" lon="9.047101830849824"><ele>139.0</ele><time>2026-03-29T11:39:34Z</time></trkpt><trkpt lat="45.49210917721571" lon="9.047316637834898"><ele>139.0</ele><time>2026-03-29T11:39:35Z</time></trkpt><trkpt lat="45.4921885066532" lon="9.047534474900234"><ele>138.66666666666669</ele><time>2026-03-29T11:39:36Z</time></trkpt><trkpt lat="45.492270652118926" lon="9.047758478269373"><ele>138.33333333333334</ele><time>2026-03-29T11:39:37Z</time></trkpt><trkpt lat="45.49235166476388" lon="9.047987488429772"><ele>138.0</ele><time>2026-03-29T11:39:38Z</time></trkpt><trkpt lat="45.49243575373809" lon="9.048222903090318"><ele>137.0</ele><time>2026-03-29T11:39:39Z</time></trkpt><trkpt lat="45.4925222231454" lon="9.048455830492879"><ele>136.0</ele><time>2026-03-29T11:39:40Z</time></trkpt><trkpt lat="45.4926080117291" lon="9.048697971208675"><ele>135.0</ele><time>2026-03-29T11:39:41Z</time></trkpt><trkpt lat="45.49269826312186" lon="9.048935705263155"><ele>135.0</ele><time>2026-03-29T11:39:42Z</time></trkpt><trkpt lat="45.49278677697909" lon="9.04917284111538"><ele>135.0</ele><time>2026-03-29T11:39:43Z</time></trkpt><trkpt lat="45.49287297928255" lon="9.04941297384934"><ele>135.0</ele><time>2026-03-29T11:39:44Z</time></trkpt><trkpt lat="45.49295951711437" lon="9.04964869020195"><ele>134.66666666666666</ele><time>2026-03-29T11:39:45Z</time></trkpt><trkpt lat="45.493045357006075" lon="9.049886045586753"><ele>134.33333333333331</ele><time>2026-03-29T11:39:46Z</time></trkpt><trkpt lat="45.49313384702069" lon="9.0501223020312"><ele>134.0</ele><time>2026-03-29T11:39:47Z</time></trkpt><trkpt lat="45.49322094693591" lon="9.050358650612761"><ele>134.0</ele><time>2026-03-29T11:39:48Z</time></trkpt><trkpt lat="45.493308676022735" lon="9.050597632691629"><ele>134.0</ele><time>2026-03-29T11:39:49Z</time></trkpt><trkpt lat="45.49339577907529" lon="9.050832980028845"><ele>134.0</ele><time>2026-03-29T11:39:50Z</time></trkpt><trkpt lat="45.49348652407325" lon="9.051068743486278"><ele>134.66666666666666</ele><time>2026-03-29T11:39:51Z</time></trkpt><trkpt lat="45.49357948937268" lon="9.05130836149812"><ele>135.33333333333334</ele><time>2026-03-29T11:39:52Z</time></trkpt><trkpt lat="45.49367537219239" lon="9.051548667325305"><ele>136.0</ele><time>2026-03-29T11:39:53Z</time></trkpt><trkpt lat="45.49377149546355" lon="9.051799093597534"><ele>136.0</ele><time>2026-03-29T11:39:54Z</time></trkpt><trkpt lat="45.49386434148908" lon="9.052050362877992"><ele>136.0</ele><time>2026-03-29T11:39:55Z</time></trkpt><trkpt lat="45.493959890439065" lon="9.05230674352174"><ele>136.0</ele><time>2026-03-29T11:39:56Z</time></trkpt><trkpt lat="45.49406064925891" lon="9.052573826728937"><ele>137.0</ele><time>2026-03-29T11:39:57Z</time></trkpt><trkpt lat="45.49416225372909" lon="9.052850775357264"><ele>138.0</ele><time>2026-03-29T11:39:58Z</time></trkpt><trkpt lat="45.49426515083694" lon="9.053123570533806"><ele>139.0</ele><time>2026-03-29T11:39:59Z</time></trkpt><trkpt lat="45.49437140820301" lon="9.053396540360307"><ele>139.0</ele><time>2026-03-29T11:40:00Z</time></trkpt><trkpt lat="45.49448017395" lon="9.053667991231638"><ele>139.0</ele><time>2026-03-29T11:40:01Z</time></trkpt><trkpt lat="45.49459187316134" lon="9.053936424913353"><ele>139.0</ele><time>2026-03-29T11:40:02Z</time></trkpt><trkpt lat="45.49470220313778" lon="9.054209052026753"><ele>139.0</ele><time>2026-03-29T11:40:02.999Z</time></trkpt><trkpt lat="45.49481608023196" lon="9.054476600184806"><ele>139.0</ele><time>2026-03-29T11:40:03.999Z</time></trkpt><trkpt lat="45.494925140625305" lon="9.054746283406718"><ele>139.0</ele><time>2026-03-29T11:40:04.999Z</time></trkpt><trkpt lat="45.4950440746762" lon="9.055012908798162"><ele>139.0</ele><time>2026-03-29T11:40:05.999Z</time></trkpt><trkpt lat="45.49516965679562" lon="9.05527708126264"><ele>139.0</ele><time>2026-03-29T11:40:06.999Z</time></trkpt><trkpt lat="45.4952899272731" lon="9.055544023421549"><ele>139.0</ele><time>2026-03-29T11:40:07.999Z</time></trkpt><trkpt lat="45.495405755006495" lon="9.055809821732355"><ele>139.0</ele><time>2026-03-29T11:40:08.999Z</time></trkpt><trkpt lat="45.49551535902014" lon="9.056072793822352"><ele>139.0</ele><time>2026-03-29T11:40:09.999Z</time></trkpt><trkpt lat="45.4956280504716" lon="9.056341206993581"><ele>139.0</ele><time>2026-03-29T11:40:10.999Z</time></trkpt><trkpt lat="45.495740826468186" lon="9.056608569779439"><ele>139.0</ele><time>2026-03-29T11:40:11.999Z</time></trkpt><trkpt lat="45.49585636825145" lon="9.056871605516932"><ele>139.0</ele><time>2026-03-29T11:40:12.999Z</time></trkpt><trkpt lat="45.49597922013121" lon="9.057129513515438"><ele>139.0</ele><time>2026-03-29T11:40:13.999Z</time></trkpt><trkpt lat="45.49610113382249" lon="9.05738042049343"><ele>139.0</ele><time>2026-03-29T11:40:14.999Z</time></trkpt><trkpt lat="45.49622196892187" lon="9.05763022875977"><ele>139.0</ele><time>2026-03-29T11:40:15.999Z</time></trkpt><trkpt lat="45.496341760480185" lon="9.057886002152069"><ele>139.0</ele><time>2026-03-29T11:40:16.999Z</time></trkpt><trkpt lat="45.496458721330725" lon="9.058146192827865"><ele>138.66666666666669</ele><time>2026-03-29T11:40:17.999Z</time></trkpt><trkpt lat="45.49658464042421" lon="9.058403542623173"><ele>138.33333333333334</ele><time>2026-03-29T11:40:18.999Z</time></trkpt><trkpt lat="45.49670650459989" lon="9.058659857830778"><ele>138.0</ele><time>2026-03-29T11:40:19.999Z</time></trkpt><trkpt lat="45.496827022655104" lon="9.058920694852334"><ele>138.0</ele><time>2026-03-29T11:40:20.999Z</time></trkpt><trkpt lat="45.4969533983256" lon="9.059175839869411"><ele>138.0</ele><time>2026-03-29T11:40:21.999Z</time></trkpt><trkpt lat="45.49707315172676" lon="9.059436886519302"><ele>138.0</ele><time>2026-03-29T11:40:22.999Z</time></trkpt><trkpt lat="45.49719939058603" lon="9.059693530823333"><ele>137.0</ele><time>2026-03-29T11:40:23.999Z</time></trkpt><trkpt lat="45.4973192616084" lon="9.059951284350836"><ele>136.0</ele><time>2026-03-29T11:40:24.999Z</time></trkpt><trkpt lat="45.49743568131439" lon="9.060210834572759"><ele>135.0</ele><time>2026-03-29T11:40:25.999Z</time></trkpt><trkpt lat="45.497552544901694" lon="9.060476606218982"><ele>135.0</ele><time>2026-03-29T11:40:26.999Z</time></trkpt><trkpt lat="45.49766225156096" lon="9.060744708457738"><ele>135.0</ele><time>2026-03-29T11:40:27.999Z</time></trkpt><trkpt lat="45.49775651097897" lon="9.061023548750839"><ele>135.0</ele><time>2026-03-29T11:40:28.999Z</time></trkpt><trkpt lat="45.4978342185702" lon="9.061318284197291"><ele>135.0</ele><time>2026-03-29T11:40:29.999Z</time></trkpt><trkpt lat="45.49789942063724" lon="9.061613289872277"><ele>135.0</ele><time>2026-03-29T11:40:30.999Z</time></trkpt><trkpt lat="45.497951567826995" lon="9.061913752779807"><ele>135.0</ele><time>2026-03-29T11:40:31.999Z</time></trkpt><trkpt lat="45.49798974013722" lon="9.062215625835279"><ele>135.66666666666666</ele><time>2026-03-29T11:40:32.999Z</time></trkpt><trkpt lat="45.49801036624166" lon="9.06252929001776"><ele>136.33333333333331</ele><time>2026-03-29T11:40:33.999Z</time></trkpt><trkpt lat="45.498018679512214" lon="9.062838658943422"><ele>137.0</ele><time>2026-03-29T11:40:34.999Z</time></trkpt><trkpt lat="45.498020110181585" lon="9.063151081049499"><ele>137.0</ele><time>2026-03-29T11:40:35.999Z</time></trkpt><trkpt lat="45.49801457661993" lon="9.063461083395849"><ele>137.0</ele><time>2026-03-29T11:40:36.999Z</time></trkpt><trkpt lat="45.498005083822264" lon="9.063768544037233"><ele>137.0</ele><time>2026-03-29T11:40:37.999Z</time></trkpt><trkpt lat="45.498001981436" lon="9.06407479414107"><ele>137.33333333333331</ele><time>2026-03-29T11:40:38.999Z</time></trkpt><trkpt lat="45.49799930312898" lon="9.064383731421149"><ele>137.66666666666666</ele><time>2026-03-29T11:40:39.999Z</time></trkpt><trkpt lat="45.49799494135255" lon="9.064688143710315"><ele>138.0</ele><time>2026-03-29T11:40:40.999Z</time></trkpt><trkpt lat="45.49798741053108" lon="9.064987600270117"><ele>138.0</ele><time>2026-03-29T11:40:41.999Z</time></trkpt><trkpt lat="45.49797747418756" lon="9.06529473821245"><ele>138.0</ele><time>2026-03-29T11:40:42.999Z</time></trkpt><trkpt lat="45.497967722505095" lon="9.065606659791387"><ele>138.0</ele><time>2026-03-29T11:40:43.999Z</time></trkpt><trkpt lat="45.4979577710296" lon="9.06591138938485"><ele>138.0</ele><time>2026-03-29T11:40:44.999Z</time></trkpt><trkpt lat="45.49794840614394" lon="9.066215190650494"><ele>138.0</ele><time>2026-03-29T11:40:45.999Z</time></trkpt><trkpt lat="45.49794196977739" lon="9.0665209587819"><ele>138.0</ele><time>2026-03-29T11:40:46.999Z</time></trkpt><trkpt lat="45.49793365518739" lon="9.066831112120456"><ele>137.66666666666666</ele><time>2026-03-29T11:40:47.999Z</time></trkpt><trkpt lat="45.497926037491496" lon="9.06714061035528"><ele>137.33333333333331</ele><time>2026-03-29T11:40:48.999Z</time></trkpt><trkpt lat="45.497916358626085" lon="9.067451305935988"><ele>137.0</ele><time>2026-03-29T11:40:49.999Z</time></trkpt><trkpt lat="45.49791299425698" lon="9.067767941987597"><ele>137.0</ele><time>2026-03-29T11:40:50.999Z</time></trkpt><trkpt lat="45.49790859137654" lon="9.068079303265318"><ele>137.0</ele><time>2026-03-29T11:40:51.999Z</time></trkpt><trkpt lat="45.497904588149716" lon="9.068388082384619"><ele>137.0</ele><time>2026-03-29T11:40:52.999Z</time></trkpt><trkpt lat="45.49789664230974" lon="9.068705708491514"><ele>137.33333333333331</ele><time>2026-03-29T11:40:53.999Z</time></trkpt><trkpt lat="45.497892161673626" lon="9.069019000363037"><ele>137.66666666666666</ele><time>2026-03-29T11:40:54.999Z</time></trkpt><trkpt lat="45.49789166727011" lon="9.069335027647437"><ele>138.0</ele><time>2026-03-29T11:40:55.999Z</time></trkpt><trkpt lat="45.49789208109333" lon="9.069666189914932"><ele>139.5</ele><time>2026-03-29T11:40:56.999Z</time></trkpt><trkpt lat="45.49788788307202" lon="9.069994715260092"><ele>141.0</ele><time>2026-03-29T11:40:57.999Z</time></trkpt><trkpt lat="45.49788254937635" lon="9.070328603198247"><ele>141.0</ele><time>2026-03-29T11:40:58.999Z</time></trkpt><trkpt lat="45.49787902836186" lon="9.070665817844686"><ele>141.0</ele><time>2026-03-29T11:40:59.999Z</time></trkpt><trkpt lat="45.497870657281794" lon="9.071009053936644"><ele>140.5</ele><time>2026-03-29T11:41:00.999Z</time></trkpt><trkpt lat="45.49785988765321" lon="9.07135138958606"><ele>140.0</ele><time>2026-03-29T11:41:01.999Z</time></trkpt><trkpt lat="45.49784891608653" lon="9.071694000812974"><ele>139.5</ele><time>2026-03-29T11:41:02.999Z</time></trkpt><trkpt lat="45.497840010009746" lon="9.072039718836022"><ele>139.0</ele><time>2026-03-29T11:41:03.999Z</time></trkpt><trkpt lat="45.49783008893793" lon="9.072394442660336"><ele>138.0</ele><time>2026-03-29T11:41:04.999Z</time></trkpt><trkpt lat="45.497814725715074" lon="9.072744614019506"><ele>137.0</ele><time>2026-03-29T11:41:06Z</time></trkpt><trkpt lat="45.49779730372064" lon="9.073087723601189"><ele>136.5</ele><time>2026-03-29T11:41:07Z</time></trkpt><trkpt lat="45.49778283430777" lon="9.073428677110487"><ele>136.0</ele><time>2026-03-29T11:41:08Z</time></trkpt><trkpt lat="45.49776899325915" lon="9.073766542744945"><ele>137.0</ele><time>2026-03-29T11:41:09Z</time></trkpt><trkpt lat="45.49775824288913" lon="9.074107507214448"><ele>138.0</ele><time>2026-03-29T11:41:10Z</time></trkpt><trkpt lat="45.49774858378798" lon="9.074443996271894"><ele>138.0</ele><time>2026-03-29T11:41:11Z</time></trkpt><trkpt lat="45.49774042555916" lon="9.074780178885646"><ele>138.0</ele><time>2026-03-29T11:41:12Z</time></trkpt><trkpt lat="45.49773280105978" lon="9.075112404398114"><ele>138.0</ele><time>2026-03-29T11:41:13Z</time></trkpt><trkpt lat="45.49772742690962" lon="9.075449911130125"><ele>138.0</ele><time>2026-03-29T11:41:14Z</time></trkpt><trkpt lat="45.49772610690266" lon="9.07579076640906"><ele>138.0</ele><time>2026-03-29T11:41:15Z</time></trkpt><trkpt lat="45.49773109270559" lon="9.076130441925827"><ele>138.0</ele><time>2026-03-29T11:41:16Z</time></trkpt><trkpt lat="45.49774349550997" lon="9.076477072847496"><ele>137.5</ele><time>2026-03-29T11:41:17Z</time></trkpt><trkpt lat="45.4977563035828" lon="9.076817948728536"><ele>137.0</ele><time>2026-03-29T11:41:18Z</time></trkpt><trkpt lat="45.49777420146123" lon="9.077160585738655"><ele>137.5</ele><time>2026-03-29T11:41:19Z</time></trkpt><trkpt lat="45.4977938407955" lon="9.077503253754845"><ele>138.0</ele><time>2026-03-29T11:41:20Z</time></trkpt><trkpt lat="45.497816094879475" lon="9.077848960429074"><ele>138.0</ele><time>2026-03-29T11:41:21Z</time></trkpt><trkpt lat="45.49784029419689" lon="9.078190154964709"><ele>138.0</ele><time>2026-03-29T11:41:22Z</time></trkpt><trkpt lat="45.49786463090549" lon="9.078528199417432"><ele>139.0</ele><time>2026-03-29T11:41:23Z</time></trkpt><trkpt lat="45.49788780771376" lon="9.078865906742228"><ele>140.0</ele><time>2026-03-29T11:41:24Z</time></trkpt><trkpt lat="45.497914664281026" lon="9.07920550272746"><ele>140.0</ele><time>2026-03-29T11:41:25Z</time></trkpt><trkpt lat="45.49793884826429" lon="9.079535966913864"><ele>140.0</ele><time>2026-03-29T11:41:26Z</time></trkpt><trkpt lat="45.49796118929652" lon="9.07986744310136"><ele>139.5</ele><time>2026-03-29T11:41:27Z</time></trkpt><trkpt lat="45.49798277254261" lon="9.08019352562224"><ele>139.0</ele><time>2026-03-29T11:41:28Z</time></trkpt><trkpt lat="45.49800745886918" lon="9.080519202530011"><ele>139.0</ele><time>2026-03-29T11:41:29Z</time></trkpt><trkpt lat="45.498030121705426" lon="9.080843168279328"><ele>139.0</ele><time>2026-03-29T11:41:30Z</time></trkpt><trkpt lat="45.498054112219954" lon="9.081169369525973"><ele>139.0</ele><time>2026-03-29T11:41:31Z</time></trkpt><trkpt lat="45.49807619725082" lon="9.08149598344581"><ele>139.0</ele><time>2026-03-29T11:41:32Z</time></trkpt><trkpt lat="45.49809928937168" lon="9.08182521333254"><ele>138.5</ele><time>2026-03-29T11:41:33Z</time></trkpt><trkpt lat="45.49811963095755" lon="9.082154516398365"><ele>138.0</ele><time>2026-03-29T11:41:34Z</time></trkpt><trkpt lat="45.498143023754785" lon="9.082478919564887"><ele>138.0</ele><time>2026-03-29T11:41:35Z</time></trkpt><trkpt lat="45.49816803750939" lon="9.082808803442921"><ele>138.0</ele><time>2026-03-29T11:41:36Z</time></trkpt><trkpt lat="45.498201338828274" lon="9.083147745229123"><ele>138.0</ele><time>2026-03-29T11:41:37Z</time></trkpt><trkpt lat="45.498241647133305" lon="9.083495406935969"><ele>138.0</ele><time>2026-03-29T11:41:38Z</time></trkpt><trkpt lat="45.498302408549236" lon="9.083848237296863"><ele>137.5</ele><time>2026-03-29T11:41:39Z</time></trkpt><trkpt lat="45.49837350692887" lon="9.08420186480526"><ele>137.0</ele><time>2026-03-29T11:41:40Z</time></trkpt><trkpt lat="45.49845300524209" lon="9.08455897270448"><ele>137.0</ele><time>2026-03-29T11:41:41Z</time></trkpt><trkpt lat="45.4985448918758" lon="9.08491808400067"><ele>137.0</ele><time>2026-03-29T11:41:42Z</time></trkpt><trkpt lat="45.498641158165434" lon="9.08526792812066"><ele>137.0</ele><time>2026-03-29T11:41:43Z</time></trkpt><trkpt lat="45.49875000152798" lon="9.085621656139725"><ele>137.0</ele><time>2026-03-29T11:41:44Z</time></trkpt><trkpt lat="45.498867079626066" lon="9.085968837012796"><ele>137.0</ele><time>2026-03-29T11:41:45Z</time></trkpt><trkpt lat="45.4989931490821" lon="9.086297823504513"><ele>137.0</ele><time>2026-03-29T11:41:46Z</time></trkpt><trkpt lat="45.499123116189" lon="9.08662675810042"><ele>136.0</ele><time>2026-03-29T11:41:47Z</time></trkpt><trkpt lat="45.49926990663647" lon="9.086932478201504"><ele>135.0</ele><time>2026-03-29T11:41:48Z</time></trkpt><trkpt lat="45.499438713586095" lon="9.087229047893874"><ele>136.5</ele><time>2026-03-29T11:41:49Z</time></trkpt><trkpt lat="45.49960117876653" lon="9.087517615056303"><ele>138.0</ele><time>2026-03-29T11:41:50Z</time></trkpt><trkpt lat="45.499772098797614" lon="9.087796284288151"><ele>138.0</ele><time>2026-03-29T11:41:51Z</time></trkpt><trkpt lat="45.49994671545559" lon="9.088077366341247"><ele>138.0</ele><time>2026-03-29T11:41:52Z</time></trkpt><trkpt lat="45.500118221176656" lon="9.088352318392174"><ele>138.5</ele><time>2026-03-29T11:41:53Z</time></trkpt><trkpt lat="45.50029068225363" lon="9.088627875044038"><ele>139.0</ele><time>2026-03-29T11:41:54Z</time></trkpt><trkpt lat="45.50047244210141" lon="9.088883868554168"><ele>139.0</ele><time>2026-03-29T11:41:55Z</time></trkpt><trkpt lat="45.500664192682926" lon="9.089123458991626"><ele>139.0</ele><time>2026-03-29T11:41:56Z</time></trkpt><trkpt lat="45.50086085321977" lon="9.089348610921324"><ele>139.0</ele><time>2026-03-29T11:41:57Z</time></trkpt><trkpt lat="45.50106039934762" lon="9.089550586320417"><ele>139.0</ele><time>2026-03-29T11:41:58Z</time></trkpt><trkpt lat="45.50127070667264" lon="9.089734750410308"><ele>139.5</ele><time>2026-03-29T11:41:59Z</time></trkpt><trkpt lat="45.50148201009546" lon="9.089903089819078"><ele>140.0</ele><time>2026-03-29T11:42:00Z</time></trkpt><trkpt lat="45.50169953604935" lon="9.09004817149437"><ele>140.0</ele><time>2026-03-29T11:42:01Z</time></trkpt><trkpt lat="45.501922926747625" lon="9.090174520212386"><ele>140.0</ele><time>2026-03-29T11:42:02Z</time></trkpt><trkpt lat="45.502147331595026" lon="9.090281774065579"><ele>141.0</ele><time>2026-03-29T11:42:03Z</time></trkpt><trkpt lat="45.502383491354465" lon="9.090378140743846"><ele>142.0</ele><time>2026-03-29T11:42:04Z</time></trkpt><trkpt lat="45.50261178566487" lon="9.09046455296939"><ele>142.0</ele><time>2026-03-29T11:42:05Z</time></trkpt><trkpt lat="45.502834783377914" lon="9.090543545940314"><ele>142.0</ele><time>2026-03-29T11:42:06Z</time></trkpt><trkpt lat="45.503059901245216" lon="9.090625024310363"><ele>141.0</ele><time>2026-03-29T11:42:07Z</time></trkpt><trkpt lat="45.503270472406214" lon="9.090708626233086"><ele>140.0</ele><time>2026-03-29T11:42:08Z</time></trkpt><trkpt lat="45.50346653667221" lon="9.090781827671814"><ele>139.0</ele><time>2026-03-29T11:42:09Z</time></trkpt><trkpt lat="45.50366060781495" lon="9.090856811246113"><ele>139.0</ele><time>2026-03-29T11:42:10Z</time></trkpt><trkpt lat="45.50384738269081" lon="9.090943612867218"><ele>139.0</ele><time>2026-03-29T11:42:11Z</time></trkpt><trkpt lat="45.50403361789052" lon="9.091037736590001"><ele>139.0</ele><time>2026-03-29T11:42:11.999Z</time></trkpt><trkpt lat="45.50419086988662" lon="9.091129890330063"><ele>139.0</ele><time>2026-03-29T11:42:12.999Z</time></trkpt><trkpt lat="45.504340140918615" lon="9.091228222487432"><ele>139.0</ele><time>2026-03-29T11:42:13.999Z</time></trkpt><trkpt lat="45.50449044538191" lon="9.091329422213247"><ele>139.0</ele><time>2026-03-29T11:42:14.999Z</time></trkpt><trkpt lat="45.50462460259489" lon="9.091427147655484"><ele>138.33333333333334</ele><time>2026-03-29T11:42:15.999Z</time></trkpt><trkpt lat="45.50476016780581" lon="9.091539612637423"><ele>137.66666666666666</ele><time>2026-03-29T11:42:16.999Z</time></trkpt><trkpt lat="45.504906188685105" lon="9.091659778719647"><ele>137.0</ele><time>2026-03-29T11:42:17.999Z</time></trkpt><trkpt lat="45.50503077813876" lon="9.091777139294829"><ele>137.0</ele><time>2026-03-29T11:42:18.999Z</time></trkpt><trkpt lat="45.50515814655422" lon="9.091885869831424"><ele>137.0</ele><time>2026-03-29T11:42:19.999Z</time></trkpt><trkpt lat="45.50526630620962" lon="9.092048543452725"><ele>137.0</ele><time>2026-03-29T11:42:20.999Z</time></trkpt><trkpt lat="45.505379949158176" lon="9.09220566023894"><ele>137.0</ele><time>2026-03-29T11:42:21.999Z</time></trkpt><trkpt lat="45.50548816089598" lon="9.092371640895012"><ele>137.0</ele><time>2026-03-29T11:42:22.999Z</time></trkpt><trkpt lat="45.505601594191624" lon="9.092541983919542"><ele>137.0</ele><time>2026-03-29T11:42:23.999Z</time></trkpt><trkpt lat="45.505719278919656" lon="9.092702523439577"><ele>137.0</ele><time>2026-03-29T11:42:24.999Z</time></trkpt><trkpt lat="45.50582929544345" lon="9.092859116682487"><ele>137.0</ele><time>2026-03-29T11:42:25.999Z</time></trkpt><trkpt lat="45.50592802396407" lon="9.093008640933604"><ele>137.0</ele><time>2026-03-29T11:42:26.999Z</time></trkpt><trkpt lat="45.506030905341305" lon="9.093153052423181"><ele>137.0</ele><time>2026-03-29T11:42:27.999Z</time></trkpt><trkpt lat="45.50613484279554" lon="9.093305245470434"><ele>137.0</ele><time>2026-03-29T11:42:28.999Z</time></trkpt><trkpt lat="45.5062299155741" lon="9.093449899262918"><ele>137.0</ele><time>2026-03-29T11:42:29.999Z</time></trkpt><trkpt lat="45.506322584757065" lon="9.093594331927061"><ele>137.0</ele><time>2026-03-29T11:42:30.999Z</time></trkpt><trkpt lat="45.506410724958684" lon="9.093758304381124"><ele>137.0</ele><time>2026-03-29T11:42:31.999Z</time></trkpt><trkpt lat="45.506498290240565" lon="9.093938973465372"><ele>137.0</ele><time>2026-03-29T11:42:32.999Z</time></trkpt><trkpt lat="45.50659746210141" lon="9.094109719512982"><ele>137.0</ele><time>2026-03-29T11:42:33.999Z</time></trkpt><trkpt lat="45.50666127749542" lon="9.094314036177906"><ele>137.0</ele><time>2026-03-29T11:42:34.999Z</time></trkpt><trkpt lat="45.50671748272252" lon="9.094505213489525"><ele>137.0</ele><time>2026-03-29T11:42:35.999Z</time></trkpt><trkpt lat="45.50674795984512" lon="9.094698930124506"><ele>137.0</ele><time>2026-03-29T11:42:36.999Z</time></trkpt><trkpt lat="45.506805221575725" lon="9.094889343291403"><ele>137.0</ele><time>2026-03-29T11:42:37.999Z</time></trkpt><trkpt lat="45.506866366311" lon="9.0950859056688"><ele>137.0</ele><time>2026-03-29T11:42:38.999Z</time></trkpt><trkpt lat="45.506926388804374" lon="9.095291015610787"><ele>137.33333333333331</ele><time>2026-03-29T11:42:39.999Z</time></trkpt><trkpt lat="45.506967085193104" lon="9.095504426629475"><ele>137.66666666666666</ele><time>2026-03-29T11:42:40.999Z</time></trkpt><trkpt lat="45.506996827253744" lon="9.095720776970776"><ele>138.0</ele><time>2026-03-29T11:42:41.999Z</time></trkpt><trkpt lat="45.507016817229584" lon="9.095941411569694"><ele>138.0</ele><time>2026-03-29T11:42:42.999Z</time></trkpt><trkpt lat="45.50701425602873" lon="9.09615047984459"><ele>138.0</ele><time>2026-03-29T11:42:43.999Z</time></trkpt><trkpt lat="45.50701047011047" lon="9.096345123842514"><ele>138.0</ele><time>2026-03-29T11:42:44.999Z</time></trkpt><trkpt lat="45.506996307543886" lon="9.09652690121213"><ele>138.0</ele><time>2026-03-29T11:42:45.999Z</time></trkpt><trkpt lat="45.50698189240112" lon="9.096687024239252"><ele>138.20000000000002</ele><time>2026-03-29T11:42:46.999Z</time></trkpt><trkpt lat="45.50696306973179" lon="9.096838628140418"><ele>138.4</ele><time>2026-03-29T11:42:47.999Z</time></trkpt><trkpt lat="45.50693899200459" lon="9.096978257868548"><ele>138.60000000000002</ele><time>2026-03-29T11:42:48.999Z</time></trkpt><trkpt lat="45.506907026273595" lon="9.097109572273574"><ele>138.8</ele><time>2026-03-29T11:42:49.999Z</time></trkpt><trkpt lat="45.506881687507274" lon="9.097217831388136"><ele>139.0</ele><time>2026-03-29T11:42:50.999Z</time></trkpt><trkpt lat="45.506858615525" lon="9.097302360212554"><ele>138.8</ele><time>2026-03-29T11:42:51.999Z</time></trkpt><trkpt lat="45.506818205834435" lon="9.097451513295082"><ele>138.60000000000002</ele><time>2026-03-29T11:42:53.999Z</time></trkpt><trkpt lat="45.50682184124557" lon="9.097546915660653"><ele>138.4</ele><time>2026-03-29T11:42:54.999Z</time></trkpt><trkpt lat="45.506667317223304" lon="9.097635783751551"><ele>138.20000000000002</ele><time>2026-03-29T11:42:56.999Z</time></trkpt><trkpt lat="45.506570540895204" lon="9.097644073886627"><ele>138.0</ele><time>2026-03-29T11:42:57.999Z</time></trkpt><trkpt lat="45.506486611297305" lon="9.097589521793582"><ele>138.0</ele><time>2026-03-29T11:42:58.999Z</time></trkpt><trkpt lat="45.5063895248721" lon="9.097512292564245"><ele>138.0</ele><time>2026-03-29T11:42:59.999Z</time></trkpt><trkpt lat="45.50629000533587" lon="9.097452644465895"><ele>138.0</ele><time>2026-03-29T11:43:00.999Z</time></trkpt><trkpt lat="45.506211675318134" lon="9.09738353344032"><ele>138.0</ele><time>2026-03-29T11:43:01.999Z</time></trkpt><trkpt lat="45.50615069766786" lon="9.097290226434849"><ele>138.0</ele><time>2026-03-29T11:43:02.999Z</time></trkpt><trkpt lat="45.50610082578217" lon="9.097193325805717"><ele>138.5</ele><time>2026-03-29T11:43:03.999Z</time></trkpt><trkpt lat="45.50607981789923" lon="9.097098395381137"><ele>139.0</ele><time>2026-03-29T11:43:04.999Z</time></trkpt><trkpt lat="45.50602085445468" lon="9.097053145385592"><ele>139.5</ele><time>2026-03-29T11:43:05.999Z</time></trkpt><trkpt lat="45.505950413520395" lon="9.09711776829199"><ele>140.0</ele><time>2026-03-29T11:43:06.999Z</time></trkpt><trkpt lat="45.50590891041043" lon="9.097271026543277"><ele>140.5</ele><time>2026-03-29T11:43:08.999Z</time></trkpt><trkpt lat="45.50593141624342" lon="9.097368817164028"><ele>141.0</ele><time>2026-03-29T11:43:09.999Z</time></trkpt><trkpt lat="45.505939399003736" lon="9.097489514655342"><ele>141.2</ele><time>2026-03-29T11:43:10.999Z</time></trkpt><trkpt lat="45.50592455050679" lon="9.097612351915226"><ele>141.39999999999998</ele><time>2026-03-29T11:43:12Z</time></trkpt><trkpt lat="45.50591290025039" lon="9.097744043069095"><ele>141.6</ele><time>2026-03-29T11:43:13Z</time></trkpt><trkpt lat="45.50589502373037" lon="9.097890748846833"><ele>141.79999999999998</ele><time>2026-03-29T11:43:14Z</time></trkpt><trkpt lat="45.50587195638209" lon="9.098039688217224"><ele>142.0</ele><time>2026-03-29T11:43:15Z</time></trkpt><trkpt lat="45.50584583641019" lon="9.098205737218082"><ele>141.5</ele><time>2026-03-29T11:43:16Z</time></trkpt><trkpt lat="45.505822845081504" lon="9.098363165611248"><ele>141.0</ele><time>2026-03-29T11:43:17Z</time></trkpt><trkpt lat="45.50579307352728" lon="9.098519929534305"><ele>140.5</ele><time>2026-03-29T11:43:18Z</time></trkpt><trkpt lat="45.50576208176611" lon="9.098677179721028"><ele>140.0</ele><time>2026-03-29T11:43:19Z</time></trkpt><trkpt lat="45.50573145842196" lon="9.098860368508232"><ele>140.0</ele><time>2026-03-29T11:43:20Z</time></trkpt><trkpt lat="45.50570281386679" lon="9.099076448853294"><ele>140.0</ele><time>2026-03-29T11:43:21Z</time></trkpt><trkpt lat="45.50566616877571" lon="9.099280094458411"><ele>140.0</ele><time>2026-03-29T11:43:22Z</time></trkpt><trkpt lat="45.50564137500491" lon="9.099478190679841"><ele>140.0</ele><time>2026-03-29T11:43:23Z</time></trkpt><trkpt lat="45.505608934923444" lon="9.099677802422574"><ele>139.66666666666666</ele><time>2026-03-29T11:43:24Z</time></trkpt><trkpt lat="45.5055705339301" lon="9.099894040830199"><ele>139.33333333333334</ele><time>2026-03-29T11:43:25Z</time></trkpt><trkpt lat="45.50552321059516" lon="9.100100194216914"><ele>139.0</ele><time>2026-03-29T11:43:26Z</time></trkpt><trkpt lat="45.505485077753555" lon="9.100331655028574"><ele>138.75</ele><time>2026-03-29T11:43:27Z</time></trkpt><trkpt lat="45.505443970532234" lon="9.100547545587098"><ele>138.5</ele><time>2026-03-29T11:43:28Z</time></trkpt><trkpt lat="45.50539993746272" lon="9.10073912941678"><ele>138.25</ele><time>2026-03-29T11:43:29Z</time></trkpt><trkpt lat="45.5053566314597" lon="9.100933524217167"><ele>138.0</ele><time>2026-03-29T11:43:30Z</time></trkpt><trkpt lat="45.50531327174775" lon="9.101141727300142"><ele>138.25</ele><time>2026-03-29T11:43:31Z</time></trkpt><trkpt lat="45.505267597694946" lon="9.101330282745531"><ele>138.5</ele><time>2026-03-29T11:43:32Z</time></trkpt><trkpt lat="45.505224936272846" lon="9.10147982695571"><ele>138.75</ele><time>2026-03-29T11:43:33Z</time></trkpt><trkpt lat="45.50518945446696" lon="9.101612503685782"><ele>139.0</ele><time>2026-03-29T11:43:34Z</time></trkpt><trkpt lat="45.50514812926649" lon="9.101754760360176"><ele>139.0</ele><time>2026-03-29T11:43:35Z</time></trkpt><trkpt lat="45.50510340235234" lon="9.101906201746386"><ele>139.0</ele><time>2026-03-29T11:43:36Z</time></trkpt><trkpt lat="45.50506010421393" lon="9.102061755849174"><ele>139.0</ele><time>2026-03-29T11:43:37Z</time></trkpt><trkpt lat="45.50500797577832" lon="9.10223002873751"><ele>139.0</ele><time>2026-03-29T11:43:38Z</time></trkpt><trkpt lat="45.5049485948129" lon="9.102412548593414"><ele>138.5</ele><time>2026-03-29T11:43:39Z</time></trkpt><trkpt lat="45.50488837959816" lon="9.102568107621531"><ele>138.0</ele><time>2026-03-29T11:43:40Z</time></trkpt><trkpt lat="45.504818920226406" lon="9.102725540528658"><ele>137.5</ele><time>2026-03-29T11:43:41Z</time></trkpt><trkpt lat="45.50474715142853" lon="9.10288235613267"><ele>137.0</ele><time>2026-03-29T11:43:42Z</time></trkpt><trkpt lat="45.50466861667809" lon="9.103046711054523"><ele>137.0</ele><time>2026-03-29T11:43:43Z</time></trkpt><trkpt lat="45.504584392847676" lon="9.103206968229916"><ele>137.0</ele><time>2026-03-29T11:43:44Z</time></trkpt><trkpt lat="45.5044922536701" lon="9.103367720034264"><ele>137.0</ele><time>2026-03-29T11:43:45Z</time></trkpt><trkpt lat="45.50439525654942" lon="9.103520892942797"><ele>137.0</ele><time>2026-03-29T11:43:46Z</time></trkpt><trkpt lat="45.5043027396344" lon="9.103665275312727"><ele>137.0</ele><time>2026-03-29T11:43:47Z</time></trkpt><trkpt lat="45.50420761875143" lon="9.103792739024437"><ele>137.0</ele><time>2026-03-29T11:43:48Z</time></trkpt><trkpt lat="45.504115935090184" lon="9.103908588416393"><ele>137.0</ele><time>2026-03-29T11:43:49Z</time></trkpt><trkpt lat="45.50402920881319" lon="9.10401777169728"><ele>137.0</ele><time>2026-03-29T11:43:50Z</time></trkpt><trkpt lat="45.50394561491499" lon="9.104106051603635"><ele>137.0</ele><time>2026-03-29T11:43:51Z</time></trkpt><trkpt lat="45.50386360464838" lon="9.10420190550009"><ele>137.0</ele><time>2026-03-29T11:43:52Z</time></trkpt><trkpt lat="45.50378469636578" lon="9.104305134834751"><ele>137.0</ele><time>2026-03-29T11:43:53Z</time></trkpt><trkpt lat="45.50370617208347" lon="9.104419392844644"><ele>137.0</ele><time>2026-03-29T11:43:54Z</time></trkpt><trkpt lat="45.50363320998695" lon="9.10451939769352"><ele>137.0</ele><time>2026-03-29T11:43:55Z</time></trkpt><trkpt lat="45.50355809357606" lon="9.104605640391421"><ele>137.16666666666666</ele><time>2026-03-29T11:43:56Z</time></trkpt><trkpt lat="45.503485397570266" lon="9.104693562431907"><ele>137.33333333333331</ele><time>2026-03-29T11:43:57Z</time></trkpt><trkpt lat="45.50342624927236" lon="9.104771930574682"><ele>137.5</ele><time>2026-03-29T11:43:58Z</time></trkpt><trkpt lat="45.503377113798905" lon="9.104833517982337"><ele>137.66666666666666</ele><time>2026-03-29T11:43:59Z</time></trkpt><trkpt lat="45.503329106033114" lon="9.104894177848953"><ele>137.83333333333334</ele><time>2026-03-29T11:44:00Z</time></trkpt><trkpt lat="45.50338674166004" lon="9.10506840225441"><ele>138.0</ele><time>2026-03-29T11:44:01Z</time></trkpt><trkpt lat="45.50340538581384" lon="9.105178105045983"><ele>137.8</ele><time>2026-03-29T11:44:02Z</time></trkpt><trkpt lat="45.50342423158768" lon="9.105280462879218"><ele>137.60000000000002</ele><time>2026-03-29T11:44:03Z</time></trkpt><trkpt lat="45.50341566368626" lon="9.105411198300256"><ele>137.39999999999998</ele><time>2026-03-29T11:44:05Z</time></trkpt><trkpt lat="45.50357403359375" lon="9.105439104984054"><ele>137.2</ele><time>2026-03-29T11:44:06Z</time></trkpt><trkpt lat="45.5036639477454" lon="9.105476718758515"><ele>137.0</ele><time>2026-03-29T11:44:07Z</time></trkpt><trkpt lat="45.50376804948785" lon="9.105488016838871"><ele>137.0</ele><time>2026-03-29T11:44:08Z</time></trkpt><trkpt lat="45.50387632410337" lon="9.105482326542438"><ele>137.0</ele><time>2026-03-29T11:44:09Z</time></trkpt><trkpt lat="45.50397769455162" lon="9.10544034912649"><ele>137.0</ele><time>2026-03-29T11:44:10Z</time></trkpt><trkpt lat="45.504076477846944" lon="9.105443276871739"><ele>137.0</ele><time>2026-03-29T11:44:11Z</time></trkpt><trkpt lat="45.504159640205856" lon="9.105422951602067"><ele>137.0</ele><time>2026-03-29T11:44:12Z</time></trkpt><trkpt lat="45.50424083309382" lon="9.10540272653221"><ele>137.0</ele><time>2026-03-29T11:44:13Z</time></trkpt><trkpt lat="45.50431723195841" lon="9.105385010097072"><ele>137.0</ele><time>2026-03-29T11:44:13.999Z</time></trkpt><trkpt lat="45.50438241080586" lon="9.105365351149295"><ele>137.0</ele><time>2026-03-29T11:44:14.999Z</time></trkpt><trkpt lat="45.50450603818938" lon="9.105370056379021"><ele>137.0</ele><time>2026-03-29T11:44:16.999Z</time></trkpt><trkpt lat="45.50457747018736" lon="9.105350770832338"><ele>137.0</ele><time>2026-03-29T11:44:17.999Z</time></trkpt><trkpt lat="45.50464331242442" lon="9.1053279944067"><ele>137.0</ele><time>2026-03-29T11:44:18.999Z</time></trkpt><trkpt lat="45.50473345649385" lon="9.105319790027053"><ele>136.79999999999998</ele><time>2026-03-29T11:44:20.999Z</time></trkpt><trkpt lat="45.504799000340206" lon="9.10534238170489"><ele>136.6</ele><time>2026-03-29T11:44:23.999Z</time></trkpt><trkpt lat="45.50487838104974" lon="9.105382982914303"><ele>136.39999999999998</ele><time>2026-03-29T11:44:26.999Z</time></trkpt><trkpt lat="45.504879102628166" lon="9.105588139794017"><ele>136.2</ele><time>2026-03-29T11:44:33.999Z</time></trkpt><trkpt lat="45.504846043124004" lon="9.105684126310432"><ele>136.0</ele><time>2026-03-29T11:44:34.999Z</time></trkpt><trkpt lat="45.50481341453948" lon="9.105805842297299"><ele>136.0</ele><time>2026-03-29T11:44:35.999Z</time></trkpt><trkpt lat="45.50477537819408" lon="9.105951933718044"><ele>136.0</ele><time>2026-03-29T11:44:36.999Z</time></trkpt><trkpt lat="45.50473708321317" lon="9.106104578459862"><ele>136.0</ele><time>2026-03-29T11:44:37.999Z</time></trkpt><trkpt lat="45.50469944319231" lon="9.106270165405158"><ele>136.0</ele><time>2026-03-29T11:44:38.999Z</time></trkpt><trkpt lat="45.50465752638809" lon="9.106432585553495"><ele>136.25</ele><time>2026-03-29T11:44:39.999Z</time></trkpt><trkpt lat="45.504608159546834" lon="9.106617085808276"><ele>136.5</ele><time>2026-03-29T11:44:40.999Z</time></trkpt><trkpt lat="45.50456298649457" lon="9.106811045229637"><ele>136.75</ele><time>2026-03-29T11:44:41.999Z</time></trkpt><trkpt lat="45.50451508851213" lon="9.106989588702323"><ele>137.0</ele><time>2026-03-29T11:44:42.999Z</time></trkpt><trkpt lat="45.50446978324195" lon="9.107177815763707"><ele>137.0</ele><time>2026-03-29T11:44:43.999Z</time></trkpt><trkpt lat="45.50442124372947" lon="9.10737430218812"><ele>137.0</ele><time>2026-03-29T11:44:44.999Z</time></trkpt><trkpt lat="45.50436891311837" lon="9.107577298911059"><ele>137.0</ele><time>2026-03-29T11:44:45.999Z</time></trkpt><trkpt lat="45.50431832318965" lon="9.107790628428669"><ele>136.75</ele><time>2026-03-29T11:44:46.999Z</time></trkpt><trkpt lat="45.50426753321348" lon="9.107994595330558"><ele>136.5</ele><time>2026-03-29T11:44:47.999Z</time></trkpt><trkpt lat="45.504218651666314" lon="9.1081822105139"><ele>136.25</ele><time>2026-03-29T11:44:48.999Z</time></trkpt><trkpt lat="45.504173762084434" lon="9.108365611946688"><ele>136.0</ele><time>2026-03-29T11:44:49.999Z</time></trkpt><trkpt lat="45.50413291395449" lon="9.108545442031318"><ele>135.5</ele><time>2026-03-29T11:44:50.999Z</time></trkpt><trkpt lat="45.50409217027372" lon="9.108711419011728"><ele>135.0</ele><time>2026-03-29T11:44:51.999Z</time></trkpt><trkpt lat="45.504051866572595" lon="9.108871856368708"><ele>134.5</ele><time>2026-03-29T11:44:52.999Z</time></trkpt><trkpt lat="45.50401329392828" lon="9.109016832381455"><ele>134.0</ele><time>2026-03-29T11:44:53.999Z</time></trkpt><trkpt lat="45.50398054482351" lon="9.109157496093529"><ele>134.0</ele><time>2026-03-29T11:44:54.999Z</time></trkpt><trkpt lat="45.503943534468135" lon="9.109286346284831"><ele>134.0</ele><time>2026-03-29T11:44:55.999Z</time></trkpt><trkpt lat="45.503902711213556" lon="9.109404329696137"><ele>134.0</ele><time>2026-03-29T11:44:56.999Z</time></trkpt><trkpt lat="45.50384460705948" lon="9.109500474715022"><ele>134.0</ele><time>2026-03-29T11:44:57.999Z</time></trkpt><trkpt lat="45.50378840228182" lon="9.10960218732436"><ele>134.0</ele><time>2026-03-29T11:44:58.999Z</time></trkpt><trkpt lat="45.503768921024225" lon="9.109713832953615"><ele>134.0</ele><time>2026-03-29T11:44:59.999Z</time></trkpt><trkpt lat="45.50377082204489" lon="9.109819107485439"><ele>134.0</ele><time>2026-03-29T11:45:00.999Z</time></trkpt><trkpt lat="45.503766112662944" lon="9.109917149160893"><ele>134.0</ele><time>2026-03-29T11:45:01.999Z</time></trkpt><trkpt lat="45.50374424168478" lon="9.110065845331485"><ele>134.0</ele><time>2026-03-29T11:45:03.999Z</time></trkpt><trkpt lat="45.50371453496499" lon="9.110165321751897"><ele>134.0</ele><time>2026-03-29T11:45:05.999Z</time></trkpt><trkpt lat="45.503633299635844" lon="9.110138749379093"><ele>134.0</ele><time>2026-03-29T11:46:11Z</time></trkpt><trkpt lat="45.50359033861682" lon="9.110051129462581"><ele>134.0</ele><time>2026-03-29T11:46:14Z</time></trkpt><trkpt lat="45.50351928928702" lon="9.110045889055606"><ele>134.0</ele><time>2026-03-29T11:46:17Z</time></trkpt><trkpt lat="45.50344432415496" lon="9.110046427588152"><ele>134.0</ele><time>2026-03-29T11:46:22Z</time></trkpt><trkpt lat="45.50352223726717" lon="9.1100346245819"><ele>134.0</ele><time>2026-03-29T11:48:21Z</time></trkpt><trkpt lat="45.50360719373258" lon="9.110059305682352"><ele>134.0</ele><time>2026-03-29T11:48:32.999Z</time></trkpt><trkpt lat="45.50354211772153" lon="9.110045058726886"><ele>134.0</ele><time>2026-03-29T11:49:08.999Z</time></trkpt><trkpt lat="45.50363802397835" lon="9.110034128586936"><ele>134.0</ele><time>2026-03-29T11:50:47.999Z</time></trkpt><trkpt lat="45.503799983955574" lon="9.110068225526552"><ele>134.0</ele><time>2026-03-29T11:51:17.999Z</time></trkpt><trkpt lat="45.50372197050663" lon="9.11012309775465"><ele>134.0</ele><time>2026-03-29T11:51:19.999Z</time></trkpt><trkpt lat="45.50362826536945" lon="9.11010112928913"><ele>134.0</ele><time>2026-03-29T11:51:21.999Z</time></trkpt><trkpt lat="45.50367766423066" lon="9.110171547717554"><ele>134.0</ele><time>2026-03-29T11:51:36Z</time></trkpt><trkpt lat="45.50362145855917" lon="9.110090131575559"><ele>134.0</ele><time>2026-03-29T11:51:45Z</time></trkpt><trkpt lat="45.50356658823072" lon="9.110024963164804"><ele>134.0</ele><time>2026-03-29T11:51:51Z</time></trkpt><trkpt lat="45.50357678026898" lon="9.110150637788113"><ele>134.0</ele><time>2026-03-29T11:52:17Z</time></trkpt><trkpt lat="45.50364219459488" lon="9.110125509741591"><ele>134.0</ele><time>2026-03-29T11:52:27Z</time></trkpt><trkpt lat="45.503580276873166" lon="9.11009787136289"><ele>134.0</ele><time>2026-03-29T11:52:43.999Z</time></trkpt><trkpt lat="45.50352039091662" lon="9.110045049636888"><ele>134.0</ele><time>2026-03-29T11:53:02.999Z</time></trkpt></trkseg></trk></gpx>